<?xml version="1.0" encoding="UTF-8" standalone="no" ?>
<gpx xmlns="http://www.topografix.com/GPX/1/1" xmlns:xsi="http://www.w3.org/2001/XMLSchema-instance" xsi:schemaLocation="http://www.topografix.com/GPX/1/1 http://www.topografix.com/GPX/1/1/gpx.xsd" version="1.1" creator="VisuGPX - https://www.visugpx.com">
  <metadata>
    <name>23-08-09</name>
    <desc><![CDATA[ADV]]></desc>
  </metadata>
  <trk>
    <name><![CDATA[Desvres Cyclisme sur route]]></name>
    <trkseg>
      <trkpt lat="50.67778" lon="1.81742">
        <ele>56.200000762939</ele>
        <time>2023-08-09T06:18:48.000Z</time>
      </trkpt>
      <trkpt lat="50.67776" lon="1.81748">
        <ele>60</ele>
        <time>2023-08-09T06:18:51.000Z</time>
      </trkpt>
      <trkpt lat="50.6777" lon="1.8175">
        <ele>60.599998474121</ele>
        <time>2023-08-09T06:18:54.000Z</time>
      </trkpt>
      <trkpt lat="50.67756" lon="1.81745">
        <ele>60.799999237061</ele>
        <time>2023-08-09T06:19:01.000Z</time>
      </trkpt>
      <trkpt lat="50.67748" lon="1.81746">
        <ele>61</ele>
        <time>2023-08-09T06:19:06.000Z</time>
      </trkpt>
      <trkpt lat="50.67738" lon="1.81745">
        <ele>62</ele>
        <time>2023-08-09T06:19:10.000Z</time>
      </trkpt>
      <trkpt lat="50.67734" lon="1.81743">
        <ele>62.400001525879</ele>
        <time>2023-08-09T06:19:12.000Z</time>
      </trkpt>
      <trkpt lat="50.67724" lon="1.81742">
        <ele>63.200000762939</ele>
        <time>2023-08-09T06:19:16.000Z</time>
      </trkpt>
      <trkpt lat="50.6772" lon="1.81741">
        <ele>63.599998474121</ele>
        <time>2023-08-09T06:19:18.000Z</time>
      </trkpt>
      <trkpt lat="50.67707" lon="1.81737">
        <ele>64</ele>
        <time>2023-08-09T06:19:24.000Z</time>
      </trkpt>
      <trkpt lat="50.67705" lon="1.81736">
        <ele>64.199996948242</ele>
        <time>2023-08-09T06:19:25.000Z</time>
      </trkpt>
      <trkpt lat="50.67694" lon="1.81728">
        <ele>64.800003051758</ele>
        <time>2023-08-09T06:19:31.000Z</time>
      </trkpt>
      <trkpt lat="50.67688" lon="1.81725">
        <ele>65.400001525879</ele>
        <time>2023-08-09T06:19:35.000Z</time>
      </trkpt>
      <trkpt lat="50.67685" lon="1.81725">
        <ele>65.599998474121</ele>
        <time>2023-08-09T06:19:37.000Z</time>
      </trkpt>
      <trkpt lat="50.67684" lon="1.81725">
        <ele>65.599998474121</ele>
        <time>2023-08-09T06:19:38.000Z</time>
      </trkpt>
      <trkpt lat="50.67684" lon="1.81725">
        <ele>66</ele>
        <time>2023-08-09T06:19:40.000Z</time>
      </trkpt>
      <trkpt lat="50.6768" lon="1.81723">
        <ele>66.199996948242</ele>
        <time>2023-08-09T06:19:43.000Z</time>
      </trkpt>
      <trkpt lat="50.67676" lon="1.81724">
        <ele>66.199996948242</ele>
        <time>2023-08-09T06:19:45.000Z</time>
      </trkpt>
      <trkpt lat="50.67672" lon="1.81728">
        <ele>66.400001525879</ele>
        <time>2023-08-09T06:19:47.000Z</time>
      </trkpt>
      <trkpt lat="50.67669" lon="1.81733">
        <ele>66.400001525879</ele>
        <time>2023-08-09T06:19:49.000Z</time>
      </trkpt>
      <trkpt lat="50.67656" lon="1.81752">
        <ele>67</ele>
        <time>2023-08-09T06:19:56.000Z</time>
      </trkpt>
      <trkpt lat="50.67645" lon="1.81768">
        <ele>67.400001525879</ele>
        <time>2023-08-09T06:20:01.000Z</time>
      </trkpt>
      <trkpt lat="50.67642" lon="1.81772">
        <ele>67.800003051758</ele>
        <time>2023-08-09T06:20:03.000Z</time>
      </trkpt>
      <trkpt lat="50.67635" lon="1.81778">
        <ele>68</ele>
        <time>2023-08-09T06:20:06.000Z</time>
      </trkpt>
      <trkpt lat="50.67634" lon="1.81781">
        <ele>68.400001525879</ele>
        <time>2023-08-09T06:20:07.000Z</time>
      </trkpt>
      <trkpt lat="50.67632" lon="1.81784">
        <ele>68.599998474121</ele>
        <time>2023-08-09T06:20:08.000Z</time>
      </trkpt>
      <trkpt lat="50.6763" lon="1.81786">
        <ele>68.800003051758</ele>
        <time>2023-08-09T06:20:09.000Z</time>
      </trkpt>
      <trkpt lat="50.67626" lon="1.81791">
        <ele>68.800003051758</ele>
        <time>2023-08-09T06:20:11.000Z</time>
      </trkpt>
      <trkpt lat="50.67621" lon="1.81798">
        <ele>69</ele>
        <time>2023-08-09T06:20:13.000Z</time>
      </trkpt>
      <trkpt lat="50.67616" lon="1.81804">
        <ele>69.199996948242</ele>
        <time>2023-08-09T06:20:15.000Z</time>
      </trkpt>
      <trkpt lat="50.67603" lon="1.81816">
        <ele>69.599998474121</ele>
        <time>2023-08-09T06:20:20.000Z</time>
      </trkpt>
      <trkpt lat="50.67582" lon="1.8184">
        <ele>69.800003051758</ele>
        <time>2023-08-09T06:20:26.000Z</time>
      </trkpt>
      <trkpt lat="50.67569" lon="1.81857">
        <ele>69.800003051758</ele>
        <time>2023-08-09T06:20:30.000Z</time>
      </trkpt>
      <trkpt lat="50.67556" lon="1.81878">
        <ele>70</ele>
        <time>2023-08-09T06:20:35.000Z</time>
      </trkpt>
      <trkpt lat="50.67536" lon="1.81909">
        <ele>70.400001525879</ele>
        <time>2023-08-09T06:20:43.000Z</time>
      </trkpt>
      <trkpt lat="50.67528" lon="1.81921">
        <ele>70.599998474121</ele>
        <time>2023-08-09T06:20:47.000Z</time>
      </trkpt>
      <trkpt lat="50.67526" lon="1.81924">
        <ele>71</ele>
        <time>2023-08-09T06:20:48.000Z</time>
      </trkpt>
      <trkpt lat="50.67517" lon="1.8194">
        <ele>71.599998474121</ele>
        <time>2023-08-09T06:20:53.000Z</time>
      </trkpt>
      <trkpt lat="50.67513" lon="1.81946">
        <ele>71.800003051758</ele>
        <time>2023-08-09T06:20:55.000Z</time>
      </trkpt>
      <trkpt lat="50.67506" lon="1.81957">
        <ele>72.599998474121</ele>
        <time>2023-08-09T06:20:59.000Z</time>
      </trkpt>
      <trkpt lat="50.675" lon="1.81965">
        <ele>73.199996948242</ele>
        <time>2023-08-09T06:21:02.000Z</time>
      </trkpt>
      <trkpt lat="50.67493" lon="1.81977">
        <ele>74</ele>
        <time>2023-08-09T06:21:06.000Z</time>
      </trkpt>
      <trkpt lat="50.67485" lon="1.81988">
        <ele>74.599998474121</ele>
        <time>2023-08-09T06:21:10.000Z</time>
      </trkpt>
      <trkpt lat="50.67482" lon="1.81994">
        <ele>75.199996948242</ele>
        <time>2023-08-09T06:21:12.000Z</time>
      </trkpt>
      <trkpt lat="50.67473" lon="1.82008">
        <ele>76.199996948242</ele>
        <time>2023-08-09T06:21:17.000Z</time>
      </trkpt>
      <trkpt lat="50.67471" lon="1.82011">
        <ele>76.599998474121</ele>
        <time>2023-08-09T06:21:18.000Z</time>
      </trkpt>
      <trkpt lat="50.67456" lon="1.82034">
        <ele>77.599998474121</ele>
        <time>2023-08-09T06:21:25.000Z</time>
      </trkpt>
      <trkpt lat="50.67449" lon="1.82045">
        <ele>78.800003051758</ele>
        <time>2023-08-09T06:21:29.000Z</time>
      </trkpt>
      <trkpt lat="50.67442" lon="1.82054">
        <ele>79.199996948242</ele>
        <time>2023-08-09T06:21:32.000Z</time>
      </trkpt>
      <trkpt lat="50.67434" lon="1.82067">
        <ele>79.800003051758</ele>
        <time>2023-08-09T06:21:36.000Z</time>
      </trkpt>
      <trkpt lat="50.67425" lon="1.82083">
        <ele>80.599998474121</ele>
        <time>2023-08-09T06:21:41.000Z</time>
      </trkpt>
      <trkpt lat="50.67423" lon="1.82086">
        <ele>80.800003051758</ele>
        <time>2023-08-09T06:21:42.000Z</time>
      </trkpt>
      <trkpt lat="50.67413" lon="1.82103">
        <ele>81.800003051758</ele>
        <time>2023-08-09T06:21:47.000Z</time>
      </trkpt>
      <trkpt lat="50.67411" lon="1.82107">
        <ele>82</ele>
        <time>2023-08-09T06:21:48.000Z</time>
      </trkpt>
      <trkpt lat="50.67406" lon="1.8212">
        <ele>82.800003051758</ele>
        <time>2023-08-09T06:21:51.000Z</time>
      </trkpt>
      <trkpt lat="50.67403" lon="1.82132">
        <ele>83.400001525879</ele>
        <time>2023-08-09T06:21:54.000Z</time>
      </trkpt>
      <trkpt lat="50.67401" lon="1.82141">
        <ele>83.800003051758</ele>
        <time>2023-08-09T06:21:56.000Z</time>
      </trkpt>
      <trkpt lat="50.67397" lon="1.82173">
        <ele>84.800003051758</ele>
        <time>2023-08-09T06:22:04.000Z</time>
      </trkpt>
      <trkpt lat="50.67396" lon="1.82183">
        <ele>85.199996948242</ele>
        <time>2023-08-09T06:22:07.000Z</time>
      </trkpt>
      <trkpt lat="50.67396" lon="1.82199">
        <ele>85</ele>
        <time>2023-08-09T06:22:11.000Z</time>
      </trkpt>
      <trkpt lat="50.67393" lon="1.82227">
        <ele>85</ele>
        <time>2023-08-09T06:22:18.000Z</time>
      </trkpt>
      <trkpt lat="50.67382" lon="1.82247">
        <ele>84.800003051758</ele>
        <time>2023-08-09T06:22:23.000Z</time>
      </trkpt>
      <trkpt lat="50.67369" lon="1.82245">
        <ele>84.800003051758</ele>
        <time>2023-08-09T06:22:27.000Z</time>
      </trkpt>
      <trkpt lat="50.67355" lon="1.82239">
        <ele>85.599998474121</ele>
        <time>2023-08-09T06:22:32.000Z</time>
      </trkpt>
      <trkpt lat="50.67343" lon="1.82236">
        <ele>86.199996948242</ele>
        <time>2023-08-09T06:22:36.000Z</time>
      </trkpt>
      <trkpt lat="50.6733" lon="1.82232">
        <ele>87</ele>
        <time>2023-08-09T06:22:41.000Z</time>
      </trkpt>
      <trkpt lat="50.67327" lon="1.82231">
        <ele>87.199996948242</ele>
        <time>2023-08-09T06:22:42.000Z</time>
      </trkpt>
      <trkpt lat="50.67316" lon="1.82228">
        <ele>88.400001525879</ele>
        <time>2023-08-09T06:22:46.000Z</time>
      </trkpt>
      <trkpt lat="50.67302" lon="1.82222">
        <ele>89.199996948242</ele>
        <time>2023-08-09T06:22:51.000Z</time>
      </trkpt>
      <trkpt lat="50.67297" lon="1.8222">
        <ele>89.599998474121</ele>
        <time>2023-08-09T06:22:53.000Z</time>
      </trkpt>
      <trkpt lat="50.67286" lon="1.82215">
        <ele>90.199996948242</ele>
        <time>2023-08-09T06:22:57.000Z</time>
      </trkpt>
      <trkpt lat="50.67283" lon="1.82214">
        <ele>90.599998474121</ele>
        <time>2023-08-09T06:22:58.000Z</time>
      </trkpt>
      <trkpt lat="50.67275" lon="1.82208">
        <ele>91.800003051758</ele>
        <time>2023-08-09T06:23:01.000Z</time>
      </trkpt>
      <trkpt lat="50.67261" lon="1.82199">
        <ele>92.599998474121</ele>
        <time>2023-08-09T06:23:06.000Z</time>
      </trkpt>
      <trkpt lat="50.67258" lon="1.82197">
        <ele>92.800003051758</ele>
        <time>2023-08-09T06:23:07.000Z</time>
      </trkpt>
      <trkpt lat="50.67239" lon="1.82183">
        <ele>93.800003051758</ele>
        <time>2023-08-09T06:23:14.000Z</time>
      </trkpt>
      <trkpt lat="50.6723" lon="1.82175">
        <ele>94.599998474121</ele>
        <time>2023-08-09T06:23:17.000Z</time>
      </trkpt>
      <trkpt lat="50.67225" lon="1.82171">
        <ele>95</ele>
        <time>2023-08-09T06:23:19.000Z</time>
      </trkpt>
      <trkpt lat="50.67205" lon="1.82147">
        <ele>96</ele>
        <time>2023-08-09T06:23:27.000Z</time>
      </trkpt>
      <trkpt lat="50.67186" lon="1.82123">
        <ele>97.199996948242</ele>
        <time>2023-08-09T06:23:35.000Z</time>
      </trkpt>
      <trkpt lat="50.67178" lon="1.82112">
        <ele>97.599998474121</ele>
        <time>2023-08-09T06:23:38.000Z</time>
      </trkpt>
      <trkpt lat="50.6715" lon="1.82063">
        <ele>97.800003051758</ele>
        <time>2023-08-09T06:23:49.000Z</time>
      </trkpt>
      <trkpt lat="50.67127" lon="1.82016">
        <ele>97.599998474121</ele>
        <time>2023-08-09T06:23:58.000Z</time>
      </trkpt>
      <trkpt lat="50.67108" lon="1.81977">
        <ele>97.400001525879</ele>
        <time>2023-08-09T06:24:04.000Z</time>
      </trkpt>
      <trkpt lat="50.67104" lon="1.81971">
        <ele>97.199996948242</ele>
        <time>2023-08-09T06:24:05.000Z</time>
      </trkpt>
      <trkpt lat="50.67069" lon="1.81908">
        <ele>96.800003051758</ele>
        <time>2023-08-09T06:24:15.000Z</time>
      </trkpt>
      <trkpt lat="50.67059" lon="1.81889">
        <ele>96.800003051758</ele>
        <time>2023-08-09T06:24:18.000Z</time>
      </trkpt>
      <trkpt lat="50.67054" lon="1.81873">
        <ele>96.400001525879</ele>
        <time>2023-08-09T06:24:20.000Z</time>
      </trkpt>
      <trkpt lat="50.67052" lon="1.81866">
        <ele>96.400001525879</ele>
        <time>2023-08-09T06:24:21.000Z</time>
      </trkpt>
      <trkpt lat="50.67043" lon="1.81851">
        <ele>96.199996948242</ele>
        <time>2023-08-09T06:24:23.000Z</time>
      </trkpt>
      <trkpt lat="50.67037" lon="1.81848">
        <ele>96</ele>
        <time>2023-08-09T06:24:24.000Z</time>
      </trkpt>
      <trkpt lat="50.67032" lon="1.81848">
        <ele>96</ele>
        <time>2023-08-09T06:24:25.000Z</time>
      </trkpt>
      <trkpt lat="50.67023" lon="1.81856">
        <ele>95.800003051758</ele>
        <time>2023-08-09T06:24:27.000Z</time>
      </trkpt>
      <trkpt lat="50.67016" lon="1.81871">
        <ele>95.599998474121</ele>
        <time>2023-08-09T06:24:29.000Z</time>
      </trkpt>
      <trkpt lat="50.67015" lon="1.81879">
        <ele>95.599998474121</ele>
        <time>2023-08-09T06:24:30.000Z</time>
      </trkpt>
      <trkpt lat="50.67016" lon="1.81887">
        <ele>95.599998474121</ele>
        <time>2023-08-09T06:24:31.000Z</time>
      </trkpt>
      <trkpt lat="50.67019" lon="1.819">
        <ele>96</ele>
        <time>2023-08-09T06:24:33.000Z</time>
      </trkpt>
      <trkpt lat="50.67022" lon="1.81908">
        <ele>96.199996948242</ele>
        <time>2023-08-09T06:24:34.000Z</time>
      </trkpt>
      <trkpt lat="50.67024" lon="1.81924">
        <ele>96.599998474121</ele>
        <time>2023-08-09T06:24:36.000Z</time>
      </trkpt>
      <trkpt lat="50.67023" lon="1.8193">
        <ele>96.800003051758</ele>
        <time>2023-08-09T06:24:37.000Z</time>
      </trkpt>
      <trkpt lat="50.67023" lon="1.81937">
        <ele>97</ele>
        <time>2023-08-09T06:24:38.000Z</time>
      </trkpt>
      <trkpt lat="50.67018" lon="1.81963">
        <ele>97.800003051758</ele>
        <time>2023-08-09T06:24:42.000Z</time>
      </trkpt>
      <trkpt lat="50.67016" lon="1.81973">
        <ele>98.400001525879</ele>
        <time>2023-08-09T06:24:44.000Z</time>
      </trkpt>
      <trkpt lat="50.67009" lon="1.81991">
        <ele>99.199996948242</ele>
        <time>2023-08-09T06:24:48.000Z</time>
      </trkpt>
      <trkpt lat="50.67005" lon="1.82001">
        <ele>99.599998474121</ele>
        <time>2023-08-09T06:24:50.000Z</time>
      </trkpt>
      <trkpt lat="50.66993" lon="1.82023">
        <ele>100.59999847412</ele>
        <time>2023-08-09T06:24:55.000Z</time>
      </trkpt>
      <trkpt lat="50.66982" lon="1.82043">
        <ele>102</ele>
        <time>2023-08-09T06:25:00.000Z</time>
      </trkpt>
      <trkpt lat="50.66971" lon="1.82067">
        <ele>103</ele>
        <time>2023-08-09T06:25:05.000Z</time>
      </trkpt>
      <trkpt lat="50.66969" lon="1.82073">
        <ele>103.19999694824</ele>
        <time>2023-08-09T06:25:06.000Z</time>
      </trkpt>
      <trkpt lat="50.66958" lon="1.82097">
        <ele>104.40000152588</ele>
        <time>2023-08-09T06:25:11.000Z</time>
      </trkpt>
      <trkpt lat="50.66952" lon="1.8211">
        <ele>104.59999847412</ele>
        <time>2023-08-09T06:25:14.000Z</time>
      </trkpt>
      <trkpt lat="50.66938" lon="1.8214">
        <ele>105.40000152588</ele>
        <time>2023-08-09T06:25:20.000Z</time>
      </trkpt>
      <trkpt lat="50.66923" lon="1.82172">
        <ele>106.19999694824</ele>
        <time>2023-08-09T06:25:26.000Z</time>
      </trkpt>
      <trkpt lat="50.66904" lon="1.82211">
        <ele>106.19999694824</ele>
        <time>2023-08-09T06:25:32.000Z</time>
      </trkpt>
      <trkpt lat="50.66897" lon="1.82226">
        <ele>106.19999694824</ele>
        <time>2023-08-09T06:25:34.000Z</time>
      </trkpt>
      <trkpt lat="50.66881" lon="1.82254">
        <ele>106</ele>
        <time>2023-08-09T06:25:38.000Z</time>
      </trkpt>
      <trkpt lat="50.66857" lon="1.82288">
        <ele>104.59999847412</ele>
        <time>2023-08-09T06:25:43.000Z</time>
      </trkpt>
      <trkpt lat="50.66854" lon="1.82296">
        <ele>104.40000152588</ele>
        <time>2023-08-09T06:25:44.000Z</time>
      </trkpt>
      <trkpt lat="50.6685" lon="1.82311">
        <ele>103.59999847412</ele>
        <time>2023-08-09T06:25:47.000Z</time>
      </trkpt>
      <trkpt lat="50.66849" lon="1.82316">
        <ele>103.19999694824</ele>
        <time>2023-08-09T06:25:48.000Z</time>
      </trkpt>
      <trkpt lat="50.6685" lon="1.82335">
        <ele>102.40000152588</ele>
        <time>2023-08-09T06:25:52.000Z</time>
      </trkpt>
      <trkpt lat="50.6685" lon="1.82342">
        <ele>102.19999694824</ele>
        <time>2023-08-09T06:25:53.000Z</time>
      </trkpt>
      <trkpt lat="50.6685" lon="1.82348">
        <ele>102</ele>
        <time>2023-08-09T06:25:54.000Z</time>
      </trkpt>
      <trkpt lat="50.6685" lon="1.82364">
        <ele>101.80000305176</ele>
        <time>2023-08-09T06:25:56.000Z</time>
      </trkpt>
      <trkpt lat="50.66852" lon="1.8244">
        <ele>101.40000152588</ele>
        <time>2023-08-09T06:26:05.000Z</time>
      </trkpt>
      <trkpt lat="50.66857" lon="1.82511">
        <ele>101.40000152588</ele>
        <time>2023-08-09T06:26:13.000Z</time>
      </trkpt>
      <trkpt lat="50.66866" lon="1.82578">
        <ele>101.59999847412</ele>
        <time>2023-08-09T06:26:21.000Z</time>
      </trkpt>
      <trkpt lat="50.66881" lon="1.82625">
        <ele>102.59999847412</ele>
        <time>2023-08-09T06:26:28.000Z</time>
      </trkpt>
      <trkpt lat="50.66888" lon="1.82646">
        <ele>103.19999694824</ele>
        <time>2023-08-09T06:26:31.000Z</time>
      </trkpt>
      <trkpt lat="50.66895" lon="1.82668">
        <ele>104</ele>
        <time>2023-08-09T06:26:35.000Z</time>
      </trkpt>
      <trkpt lat="50.66898" lon="1.82678">
        <ele>104.19999694824</ele>
        <time>2023-08-09T06:26:38.000Z</time>
      </trkpt>
      <trkpt lat="50.66899" lon="1.82682">
        <ele>104.19999694824</ele>
        <time>2023-08-09T06:26:40.000Z</time>
      </trkpt>
      <trkpt lat="50.66899" lon="1.82682">
        <ele>104.19999694824</ele>
        <time>2023-08-09T06:26:42.000Z</time>
      </trkpt>
      <trkpt lat="50.66901" lon="1.82679">
        <ele>103.59999847412</ele>
        <time>2023-08-09T06:27:39.000Z</time>
      </trkpt>
      <trkpt lat="50.66901" lon="1.82676">
        <ele>103.59999847412</ele>
        <time>2023-08-09T06:27:40.000Z</time>
      </trkpt>
      <trkpt lat="50.66893" lon="1.82648">
        <ele>103.80000305176</ele>
        <time>2023-08-09T06:27:46.000Z</time>
      </trkpt>
      <trkpt lat="50.6688" lon="1.82605">
        <ele>103.80000305176</ele>
        <time>2023-08-09T06:27:52.000Z</time>
      </trkpt>
      <trkpt lat="50.66875" lon="1.82589">
        <ele>103.80000305176</ele>
        <time>2023-08-09T06:27:54.000Z</time>
      </trkpt>
      <trkpt lat="50.66869" lon="1.82562">
        <ele>103.40000152588</ele>
        <time>2023-08-09T06:27:57.000Z</time>
      </trkpt>
      <trkpt lat="50.66867" lon="1.82552">
        <ele>103.19999694824</ele>
        <time>2023-08-09T06:27:58.000Z</time>
      </trkpt>
      <trkpt lat="50.66862" lon="1.82523">
        <ele>102.80000305176</ele>
        <time>2023-08-09T06:28:01.000Z</time>
      </trkpt>
      <trkpt lat="50.6686" lon="1.82504">
        <ele>102.59999847412</ele>
        <time>2023-08-09T06:28:03.000Z</time>
      </trkpt>
      <trkpt lat="50.66858" lon="1.82466">
        <ele>102</ele>
        <time>2023-08-09T06:28:07.000Z</time>
      </trkpt>
      <trkpt lat="50.66856" lon="1.82447">
        <ele>102</ele>
        <time>2023-08-09T06:28:09.000Z</time>
      </trkpt>
      <trkpt lat="50.66856" lon="1.82428">
        <ele>101.80000305176</ele>
        <time>2023-08-09T06:28:11.000Z</time>
      </trkpt>
      <trkpt lat="50.66854" lon="1.8234">
        <ele>102.19999694824</ele>
        <time>2023-08-09T06:28:21.000Z</time>
      </trkpt>
      <trkpt lat="50.6686" lon="1.82306">
        <ele>102.59999847412</ele>
        <time>2023-08-09T06:28:26.000Z</time>
      </trkpt>
      <trkpt lat="50.66861" lon="1.82295">
        <ele>102.59999847412</ele>
        <time>2023-08-09T06:28:28.000Z</time>
      </trkpt>
      <trkpt lat="50.6686" lon="1.8229">
        <ele>102.80000305176</ele>
        <time>2023-08-09T06:28:29.000Z</time>
      </trkpt>
      <trkpt lat="50.66857" lon="1.82288">
        <ele>102.80000305176</ele>
        <time>2023-08-09T06:28:30.000Z</time>
      </trkpt>
      <trkpt lat="50.66853" lon="1.8229">
        <ele>102.80000305176</ele>
        <time>2023-08-09T06:28:31.000Z</time>
      </trkpt>
      <trkpt lat="50.66848" lon="1.82294">
        <ele>102.80000305176</ele>
        <time>2023-08-09T06:28:32.000Z</time>
      </trkpt>
      <trkpt lat="50.66835" lon="1.82312">
        <ele>102.59999847412</ele>
        <time>2023-08-09T06:28:35.000Z</time>
      </trkpt>
      <trkpt lat="50.66817" lon="1.82343">
        <ele>102.19999694824</ele>
        <time>2023-08-09T06:28:39.000Z</time>
      </trkpt>
      <trkpt lat="50.66809" lon="1.82359">
        <ele>101.80000305176</ele>
        <time>2023-08-09T06:28:41.000Z</time>
      </trkpt>
      <trkpt lat="50.66802" lon="1.82375">
        <ele>101.19999694824</ele>
        <time>2023-08-09T06:28:43.000Z</time>
      </trkpt>
      <trkpt lat="50.66781" lon="1.82421">
        <ele>100.59999847412</ele>
        <time>2023-08-09T06:28:48.000Z</time>
      </trkpt>
      <trkpt lat="50.66772" lon="1.82443">
        <ele>99.800003051758</ele>
        <time>2023-08-09T06:28:50.000Z</time>
      </trkpt>
      <trkpt lat="50.66744" lon="1.82505">
        <ele>98.800003051758</ele>
        <time>2023-08-09T06:28:57.000Z</time>
      </trkpt>
      <trkpt lat="50.6674" lon="1.82514">
        <ele>98.599998474121</ele>
        <time>2023-08-09T06:28:58.000Z</time>
      </trkpt>
      <trkpt lat="50.66705" lon="1.82578">
        <ele>98</ele>
        <time>2023-08-09T06:29:06.000Z</time>
      </trkpt>
      <trkpt lat="50.6667" lon="1.82644">
        <ele>98.599998474121</ele>
        <time>2023-08-09T06:29:15.000Z</time>
      </trkpt>
      <trkpt lat="50.66662" lon="1.82658">
        <ele>98.800003051758</ele>
        <time>2023-08-09T06:29:17.000Z</time>
      </trkpt>
      <trkpt lat="50.66636" lon="1.82707">
        <ele>99</ele>
        <time>2023-08-09T06:29:24.000Z</time>
      </trkpt>
      <trkpt lat="50.66612" lon="1.82756">
        <ele>99.800003051758</ele>
        <time>2023-08-09T06:29:31.000Z</time>
      </trkpt>
      <trkpt lat="50.66605" lon="1.82769">
        <ele>100</ele>
        <time>2023-08-09T06:29:33.000Z</time>
      </trkpt>
      <trkpt lat="50.66577" lon="1.8283">
        <ele>100.80000305176</ele>
        <time>2023-08-09T06:29:42.000Z</time>
      </trkpt>
      <trkpt lat="50.66569" lon="1.82848">
        <ele>101.19999694824</ele>
        <time>2023-08-09T06:29:45.000Z</time>
      </trkpt>
      <trkpt lat="50.66554" lon="1.8288">
        <ele>101.80000305176</ele>
        <time>2023-08-09T06:29:50.000Z</time>
      </trkpt>
      <trkpt lat="50.66541" lon="1.82906">
        <ele>102.40000152588</ele>
        <time>2023-08-09T06:29:54.000Z</time>
      </trkpt>
      <trkpt lat="50.66526" lon="1.82935">
        <ele>102.80000305176</ele>
        <time>2023-08-09T06:29:59.000Z</time>
      </trkpt>
      <trkpt lat="50.66505" lon="1.82976">
        <ele>103.40000152588</ele>
        <time>2023-08-09T06:30:06.000Z</time>
      </trkpt>
      <trkpt lat="50.6647" lon="1.83045">
        <ele>104</ele>
        <time>2023-08-09T06:30:17.000Z</time>
      </trkpt>
      <trkpt lat="50.66467" lon="1.8305">
        <ele>104</ele>
        <time>2023-08-09T06:30:18.000Z</time>
      </trkpt>
      <trkpt lat="50.6646" lon="1.83064">
        <ele>104</ele>
        <time>2023-08-09T06:30:20.000Z</time>
      </trkpt>
      <trkpt lat="50.66437" lon="1.83109">
        <ele>104.40000152588</ele>
        <time>2023-08-09T06:30:27.000Z</time>
      </trkpt>
      <trkpt lat="50.66402" lon="1.83178">
        <ele>104.80000305176</ele>
        <time>2023-08-09T06:30:38.000Z</time>
      </trkpt>
      <trkpt lat="50.66386" lon="1.83209">
        <ele>105.19999694824</ele>
        <time>2023-08-09T06:30:43.000Z</time>
      </trkpt>
      <trkpt lat="50.6637" lon="1.8324">
        <ele>106</ele>
        <time>2023-08-09T06:30:48.000Z</time>
      </trkpt>
      <trkpt lat="50.66368" lon="1.83245">
        <ele>106.19999694824</ele>
        <time>2023-08-09T06:30:49.000Z</time>
      </trkpt>
      <trkpt lat="50.66355" lon="1.83273">
        <ele>107.19999694824</ele>
        <time>2023-08-09T06:30:55.000Z</time>
      </trkpt>
      <trkpt lat="50.66347" lon="1.83289">
        <ele>107.40000152588</ele>
        <time>2023-08-09T06:30:57.000Z</time>
      </trkpt>
      <trkpt lat="50.66331" lon="1.83326">
        <ele>108.19999694824</ele>
        <time>2023-08-09T06:31:04.000Z</time>
      </trkpt>
      <trkpt lat="50.66325" lon="1.83336">
        <ele>108.59999847412</ele>
        <time>2023-08-09T06:31:06.000Z</time>
      </trkpt>
      <trkpt lat="50.66319" lon="1.83346">
        <ele>108.80000305176</ele>
        <time>2023-08-09T06:31:08.000Z</time>
      </trkpt>
      <trkpt lat="50.66312" lon="1.83361">
        <ele>109.40000152588</ele>
        <time>2023-08-09T06:31:11.000Z</time>
      </trkpt>
      <trkpt lat="50.6631" lon="1.83367">
        <ele>109.59999847412</ele>
        <time>2023-08-09T06:31:12.000Z</time>
      </trkpt>
      <trkpt lat="50.66305" lon="1.83378">
        <ele>110</ele>
        <time>2023-08-09T06:31:14.000Z</time>
      </trkpt>
      <trkpt lat="50.66296" lon="1.83392">
        <ele>110.59999847412</ele>
        <time>2023-08-09T06:31:17.000Z</time>
      </trkpt>
      <trkpt lat="50.66292" lon="1.83395">
        <ele>110.80000305176</ele>
        <time>2023-08-09T06:31:18.000Z</time>
      </trkpt>
      <trkpt lat="50.66288" lon="1.83397">
        <ele>111</ele>
        <time>2023-08-09T06:31:19.000Z</time>
      </trkpt>
      <trkpt lat="50.66274" lon="1.83402">
        <ele>111.80000305176</ele>
        <time>2023-08-09T06:31:23.000Z</time>
      </trkpt>
      <trkpt lat="50.66248" lon="1.83413">
        <ele>112.80000305176</ele>
        <time>2023-08-09T06:31:30.000Z</time>
      </trkpt>
      <trkpt lat="50.66244" lon="1.83415">
        <ele>113</ele>
        <time>2023-08-09T06:31:31.000Z</time>
      </trkpt>
      <trkpt lat="50.66212" lon="1.83425">
        <ele>113.80000305176</ele>
        <time>2023-08-09T06:31:39.000Z</time>
      </trkpt>
      <trkpt lat="50.66175" lon="1.83439">
        <ele>115.19999694824</ele>
        <time>2023-08-09T06:31:49.000Z</time>
      </trkpt>
      <trkpt lat="50.66171" lon="1.8344">
        <ele>115.19999694824</ele>
        <time>2023-08-09T06:31:50.000Z</time>
      </trkpt>
      <trkpt lat="50.66154" lon="1.83446">
        <ele>116.19999694824</ele>
        <time>2023-08-09T06:31:55.000Z</time>
      </trkpt>
      <trkpt lat="50.66139" lon="1.83452">
        <ele>116.80000305176</ele>
        <time>2023-08-09T06:32:00.000Z</time>
      </trkpt>
      <trkpt lat="50.66122" lon="1.83459">
        <ele>117.40000152588</ele>
        <time>2023-08-09T06:32:04.000Z</time>
      </trkpt>
      <trkpt lat="50.6611" lon="1.83464">
        <ele>117.59999847412</ele>
        <time>2023-08-09T06:32:07.000Z</time>
      </trkpt>
      <trkpt lat="50.66079" lon="1.83478">
        <ele>118.40000152588</ele>
        <time>2023-08-09T06:32:15.000Z</time>
      </trkpt>
      <trkpt lat="50.66075" lon="1.8348">
        <ele>118.40000152588</ele>
        <time>2023-08-09T06:32:16.000Z</time>
      </trkpt>
      <trkpt lat="50.66054" lon="1.83494">
        <ele>119.40000152588</ele>
        <time>2023-08-09T06:32:22.000Z</time>
      </trkpt>
      <trkpt lat="50.66042" lon="1.83503">
        <ele>119.80000305176</ele>
        <time>2023-08-09T06:32:25.000Z</time>
      </trkpt>
      <trkpt lat="50.66016" lon="1.83522">
        <ele>120</ele>
        <time>2023-08-09T06:32:30.000Z</time>
      </trkpt>
      <trkpt lat="50.65982" lon="1.83549">
        <ele>119.19999694824</ele>
        <time>2023-08-09T06:32:35.000Z</time>
      </trkpt>
      <trkpt lat="50.65959" lon="1.83565">
        <ele>118.40000152588</ele>
        <time>2023-08-09T06:32:38.000Z</time>
      </trkpt>
      <trkpt lat="50.65941" lon="1.83574">
        <ele>117.19999694824</ele>
        <time>2023-08-09T06:32:40.000Z</time>
      </trkpt>
      <trkpt lat="50.65934" lon="1.83577">
        <ele>116.59999847412</ele>
        <time>2023-08-09T06:32:41.000Z</time>
      </trkpt>
      <trkpt lat="50.65926" lon="1.83581">
        <ele>116.19999694824</ele>
        <time>2023-08-09T06:32:42.000Z</time>
      </trkpt>
      <trkpt lat="50.65903" lon="1.83591">
        <ele>115</ele>
        <time>2023-08-09T06:32:45.000Z</time>
      </trkpt>
      <trkpt lat="50.65873" lon="1.83603">
        <ele>114.19999694824</ele>
        <time>2023-08-09T06:32:49.000Z</time>
      </trkpt>
      <trkpt lat="50.65866" lon="1.83606">
        <ele>114</ele>
        <time>2023-08-09T06:32:50.000Z</time>
      </trkpt>
      <trkpt lat="50.6584" lon="1.83615">
        <ele>113.80000305176</ele>
        <time>2023-08-09T06:32:54.000Z</time>
      </trkpt>
      <trkpt lat="50.6581" lon="1.8363">
        <ele>113.80000305176</ele>
        <time>2023-08-09T06:32:59.000Z</time>
      </trkpt>
      <trkpt lat="50.65804" lon="1.83634">
        <ele>114</ele>
        <time>2023-08-09T06:33:00.000Z</time>
      </trkpt>
      <trkpt lat="50.65799" lon="1.83638">
        <ele>114</ele>
        <time>2023-08-09T06:33:01.000Z</time>
      </trkpt>
      <trkpt lat="50.65789" lon="1.8365">
        <ele>114.19999694824</ele>
        <time>2023-08-09T06:33:03.000Z</time>
      </trkpt>
      <trkpt lat="50.65785" lon="1.83655">
        <ele>114.19999694824</ele>
        <time>2023-08-09T06:33:04.000Z</time>
      </trkpt>
      <trkpt lat="50.65778" lon="1.83667">
        <ele>114.40000152588</ele>
        <time>2023-08-09T06:33:06.000Z</time>
      </trkpt>
      <trkpt lat="50.65769" lon="1.83684">
        <ele>114.59999847412</ele>
        <time>2023-08-09T06:33:09.000Z</time>
      </trkpt>
      <trkpt lat="50.65759" lon="1.83704">
        <ele>115.19999694824</ele>
        <time>2023-08-09T06:33:13.000Z</time>
      </trkpt>
      <trkpt lat="50.65755" lon="1.83712">
        <ele>115.59999847412</ele>
        <time>2023-08-09T06:33:15.000Z</time>
      </trkpt>
      <trkpt lat="50.65748" lon="1.83728">
        <ele>116.40000152588</ele>
        <time>2023-08-09T06:33:19.000Z</time>
      </trkpt>
      <trkpt lat="50.65742" lon="1.83739">
        <ele>117</ele>
        <time>2023-08-09T06:33:22.000Z</time>
      </trkpt>
      <trkpt lat="50.65737" lon="1.8375">
        <ele>117.40000152588</ele>
        <time>2023-08-09T06:33:25.000Z</time>
      </trkpt>
      <trkpt lat="50.65731" lon="1.83765">
        <ele>118.59999847412</ele>
        <time>2023-08-09T06:33:29.000Z</time>
      </trkpt>
      <trkpt lat="50.65728" lon="1.83772">
        <ele>119.19999694824</ele>
        <time>2023-08-09T06:33:32.000Z</time>
      </trkpt>
      <trkpt lat="50.65724" lon="1.83783">
        <ele>119.80000305176</ele>
        <time>2023-08-09T06:33:34.000Z</time>
      </trkpt>
      <trkpt lat="50.65716" lon="1.83803">
        <ele>121</ele>
        <time>2023-08-09T06:33:40.000Z</time>
      </trkpt>
      <trkpt lat="50.65709" lon="1.83821">
        <ele>122.19999694824</ele>
        <time>2023-08-09T06:33:45.000Z</time>
      </trkpt>
      <trkpt lat="50.65706" lon="1.83834">
        <ele>122.80000305176</ele>
        <time>2023-08-09T06:33:48.000Z</time>
      </trkpt>
      <trkpt lat="50.65703" lon="1.8385">
        <ele>123.19999694824</ele>
        <time>2023-08-09T06:33:52.000Z</time>
      </trkpt>
      <trkpt lat="50.65698" lon="1.83869">
        <ele>124.19999694824</ele>
        <time>2023-08-09T06:33:57.000Z</time>
      </trkpt>
      <trkpt lat="50.65698" lon="1.83872">
        <ele>124.40000152588</ele>
        <time>2023-08-09T06:33:58.000Z</time>
      </trkpt>
      <trkpt lat="50.65695" lon="1.83885">
        <ele>125.59999847412</ele>
        <time>2023-08-09T06:34:02.000Z</time>
      </trkpt>
      <trkpt lat="50.65694" lon="1.83892">
        <ele>126</ele>
        <time>2023-08-09T06:34:04.000Z</time>
      </trkpt>
      <trkpt lat="50.65693" lon="1.83904">
        <ele>126.80000305176</ele>
        <time>2023-08-09T06:34:07.000Z</time>
      </trkpt>
      <trkpt lat="50.65691" lon="1.83925">
        <ele>128.19999694824</ele>
        <time>2023-08-09T06:34:12.000Z</time>
      </trkpt>
      <trkpt lat="50.65688" lon="1.83954">
        <ele>129.39999389648</ele>
        <time>2023-08-09T06:34:19.000Z</time>
      </trkpt>
      <trkpt lat="50.65688" lon="1.83962">
        <ele>129.60000610352</ele>
        <time>2023-08-09T06:34:21.000Z</time>
      </trkpt>
      <trkpt lat="50.65685" lon="1.83982">
        <ele>130.39999389648</ele>
        <time>2023-08-09T06:34:26.000Z</time>
      </trkpt>
      <trkpt lat="50.65684" lon="1.83998">
        <ele>131.19999694824</ele>
        <time>2023-08-09T06:34:30.000Z</time>
      </trkpt>
      <trkpt lat="50.65683" lon="1.8401">
        <ele>131.60000610352</ele>
        <time>2023-08-09T06:34:33.000Z</time>
      </trkpt>
      <trkpt lat="50.65679" lon="1.84038">
        <ele>132.60000610352</ele>
        <time>2023-08-09T06:34:39.000Z</time>
      </trkpt>
      <trkpt lat="50.65677" lon="1.84053">
        <ele>133</ele>
        <time>2023-08-09T06:34:42.000Z</time>
      </trkpt>
      <trkpt lat="50.65674" lon="1.84072">
        <ele>133.80000305176</ele>
        <time>2023-08-09T06:34:46.000Z</time>
      </trkpt>
      <trkpt lat="50.65671" lon="1.84096">
        <ele>134.80000305176</ele>
        <time>2023-08-09T06:34:51.000Z</time>
      </trkpt>
      <trkpt lat="50.6567" lon="1.841">
        <ele>134.80000305176</ele>
        <time>2023-08-09T06:34:52.000Z</time>
      </trkpt>
      <trkpt lat="50.65668" lon="1.8412">
        <ele>136</ele>
        <time>2023-08-09T06:34:56.000Z</time>
      </trkpt>
      <trkpt lat="50.65666" lon="1.84134">
        <ele>136.60000610352</ele>
        <time>2023-08-09T06:34:59.000Z</time>
      </trkpt>
      <trkpt lat="50.65664" lon="1.84142">
        <ele>137</ele>
        <time>2023-08-09T06:35:01.000Z</time>
      </trkpt>
      <trkpt lat="50.65662" lon="1.84144">
        <ele>137.39999389648</ele>
        <time>2023-08-09T06:35:02.000Z</time>
      </trkpt>
      <trkpt lat="50.65658" lon="1.84149">
        <ele>137.80000305176</ele>
        <time>2023-08-09T06:35:04.000Z</time>
      </trkpt>
      <trkpt lat="50.65649" lon="1.84153">
        <ele>138.39999389648</ele>
        <time>2023-08-09T06:35:07.000Z</time>
      </trkpt>
      <trkpt lat="50.65644" lon="1.84152">
        <ele>139</ele>
        <time>2023-08-09T06:35:09.000Z</time>
      </trkpt>
      <trkpt lat="50.65638" lon="1.84152">
        <ele>139.80000305176</ele>
        <time>2023-08-09T06:35:12.000Z</time>
      </trkpt>
      <trkpt lat="50.65622" lon="1.84145">
        <ele>140.80000305176</ele>
        <time>2023-08-09T06:35:17.000Z</time>
      </trkpt>
      <trkpt lat="50.65616" lon="1.84142">
        <ele>141.19999694824</ele>
        <time>2023-08-09T06:35:19.000Z</time>
      </trkpt>
      <trkpt lat="50.65609" lon="1.84137">
        <ele>142</ele>
        <time>2023-08-09T06:35:22.000Z</time>
      </trkpt>
      <trkpt lat="50.65598" lon="1.84131">
        <ele>143</ele>
        <time>2023-08-09T06:35:26.000Z</time>
      </trkpt>
      <trkpt lat="50.65588" lon="1.84127">
        <ele>144.19999694824</ele>
        <time>2023-08-09T06:35:30.000Z</time>
      </trkpt>
      <trkpt lat="50.65585" lon="1.84126">
        <ele>144.39999389648</ele>
        <time>2023-08-09T06:35:31.000Z</time>
      </trkpt>
      <trkpt lat="50.65575" lon="1.8412">
        <ele>145.19999694824</ele>
        <time>2023-08-09T06:35:35.000Z</time>
      </trkpt>
      <trkpt lat="50.65567" lon="1.84115">
        <ele>146</ele>
        <time>2023-08-09T06:35:39.000Z</time>
      </trkpt>
      <trkpt lat="50.65564" lon="1.84113">
        <ele>146.19999694824</ele>
        <time>2023-08-09T06:35:40.000Z</time>
      </trkpt>
      <trkpt lat="50.65556" lon="1.84108">
        <ele>147.19999694824</ele>
        <time>2023-08-09T06:35:44.000Z</time>
      </trkpt>
      <trkpt lat="50.65553" lon="1.84107">
        <ele>147.39999389648</ele>
        <time>2023-08-09T06:35:45.000Z</time>
      </trkpt>
      <trkpt lat="50.65545" lon="1.84098">
        <ele>148.39999389648</ele>
        <time>2023-08-09T06:35:49.000Z</time>
      </trkpt>
      <trkpt lat="50.65536" lon="1.84088">
        <ele>149.19999694824</ele>
        <time>2023-08-09T06:35:54.000Z</time>
      </trkpt>
      <trkpt lat="50.65534" lon="1.84086">
        <ele>149.39999389648</ele>
        <time>2023-08-09T06:35:55.000Z</time>
      </trkpt>
      <trkpt lat="50.65523" lon="1.84069">
        <ele>150.60000610352</ele>
        <time>2023-08-09T06:36:01.000Z</time>
      </trkpt>
      <trkpt lat="50.65513" lon="1.84051">
        <ele>151.80000305176</ele>
        <time>2023-08-09T06:36:07.000Z</time>
      </trkpt>
      <trkpt lat="50.6551" lon="1.84044">
        <ele>152.19999694824</ele>
        <time>2023-08-09T06:36:09.000Z</time>
      </trkpt>
      <trkpt lat="50.65504" lon="1.84033">
        <ele>153</ele>
        <time>2023-08-09T06:36:13.000Z</time>
      </trkpt>
      <trkpt lat="50.655" lon="1.84024">
        <ele>153.39999389648</ele>
        <time>2023-08-09T06:36:16.000Z</time>
      </trkpt>
      <trkpt lat="50.65494" lon="1.84014">
        <ele>154</ele>
        <time>2023-08-09T06:36:19.000Z</time>
      </trkpt>
      <trkpt lat="50.65487" lon="1.83995">
        <ele>155</ele>
        <time>2023-08-09T06:36:25.000Z</time>
      </trkpt>
      <trkpt lat="50.65472" lon="1.8397">
        <ele>156.19999694824</ele>
        <time>2023-08-09T06:36:32.000Z</time>
      </trkpt>
      <trkpt lat="50.65464" lon="1.83955">
        <ele>157.19999694824</ele>
        <time>2023-08-09T06:36:37.000Z</time>
      </trkpt>
      <trkpt lat="50.65461" lon="1.83946">
        <ele>157.60000610352</ele>
        <time>2023-08-09T06:36:40.000Z</time>
      </trkpt>
      <trkpt lat="50.65459" lon="1.83941">
        <ele>158.39999389648</ele>
        <time>2023-08-09T06:36:43.000Z</time>
      </trkpt>
      <trkpt lat="50.65457" lon="1.83933">
        <ele>159</ele>
        <time>2023-08-09T06:36:46.000Z</time>
      </trkpt>
      <trkpt lat="50.65453" lon="1.83926">
        <ele>159.39999389648</ele>
        <time>2023-08-09T06:36:49.000Z</time>
      </trkpt>
      <trkpt lat="50.65447" lon="1.83916">
        <ele>160.19999694824</ele>
        <time>2023-08-09T06:36:53.000Z</time>
      </trkpt>
      <trkpt lat="50.65443" lon="1.83908">
        <ele>160.39999389648</ele>
        <time>2023-08-09T06:36:55.000Z</time>
      </trkpt>
      <trkpt lat="50.65432" lon="1.83887">
        <ele>161.60000610352</ele>
        <time>2023-08-09T06:37:01.000Z</time>
      </trkpt>
      <trkpt lat="50.65423" lon="1.8387">
        <ele>162.80000305176</ele>
        <time>2023-08-09T06:37:06.000Z</time>
      </trkpt>
      <trkpt lat="50.65418" lon="1.83856">
        <ele>163.60000610352</ele>
        <time>2023-08-09T06:37:10.000Z</time>
      </trkpt>
      <trkpt lat="50.65415" lon="1.83848">
        <ele>163.80000305176</ele>
        <time>2023-08-09T06:37:12.000Z</time>
      </trkpt>
      <trkpt lat="50.65405" lon="1.83829">
        <ele>164.80000305176</ele>
        <time>2023-08-09T06:37:17.000Z</time>
      </trkpt>
      <trkpt lat="50.65394" lon="1.83812">
        <ele>165.80000305176</ele>
        <time>2023-08-09T06:37:23.000Z</time>
      </trkpt>
      <trkpt lat="50.6539" lon="1.83806">
        <ele>166.39999389648</ele>
        <time>2023-08-09T06:37:25.000Z</time>
      </trkpt>
      <trkpt lat="50.65387" lon="1.83795">
        <ele>167</ele>
        <time>2023-08-09T06:37:28.000Z</time>
      </trkpt>
      <trkpt lat="50.65384" lon="1.83788">
        <ele>167.19999694824</ele>
        <time>2023-08-09T06:37:30.000Z</time>
      </trkpt>
      <trkpt lat="50.65376" lon="1.83774">
        <ele>168</ele>
        <time>2023-08-09T06:37:35.000Z</time>
      </trkpt>
      <trkpt lat="50.65375" lon="1.83771">
        <ele>168.39999389648</ele>
        <time>2023-08-09T06:37:36.000Z</time>
      </trkpt>
      <trkpt lat="50.65367" lon="1.83758">
        <ele>169.19999694824</ele>
        <time>2023-08-09T06:37:41.000Z</time>
      </trkpt>
      <trkpt lat="50.6536" lon="1.83744">
        <ele>170.19999694824</ele>
        <time>2023-08-09T06:37:45.000Z</time>
      </trkpt>
      <trkpt lat="50.65355" lon="1.83739">
        <ele>170.60000610352</ele>
        <time>2023-08-09T06:37:47.000Z</time>
      </trkpt>
      <trkpt lat="50.65348" lon="1.83733">
        <ele>171.19999694824</ele>
        <time>2023-08-09T06:37:50.000Z</time>
      </trkpt>
      <trkpt lat="50.65338" lon="1.83724">
        <ele>172.19999694824</ele>
        <time>2023-08-09T06:37:54.000Z</time>
      </trkpt>
      <trkpt lat="50.65333" lon="1.83721">
        <ele>172.60000610352</ele>
        <time>2023-08-09T06:37:56.000Z</time>
      </trkpt>
      <trkpt lat="50.65321" lon="1.83716">
        <ele>173.39999389648</ele>
        <time>2023-08-09T06:38:01.000Z</time>
      </trkpt>
      <trkpt lat="50.65316" lon="1.83714">
        <ele>173.60000610352</ele>
        <time>2023-08-09T06:38:03.000Z</time>
      </trkpt>
      <trkpt lat="50.65303" lon="1.83709">
        <ele>174.60000610352</ele>
        <time>2023-08-09T06:38:08.000Z</time>
      </trkpt>
      <trkpt lat="50.65292" lon="1.83707">
        <ele>175.60000610352</ele>
        <time>2023-08-09T06:38:12.000Z</time>
      </trkpt>
      <trkpt lat="50.65289" lon="1.83706">
        <ele>175.80000305176</ele>
        <time>2023-08-09T06:38:13.000Z</time>
      </trkpt>
      <trkpt lat="50.65273" lon="1.83704">
        <ele>177</ele>
        <time>2023-08-09T06:38:19.000Z</time>
      </trkpt>
      <trkpt lat="50.65262" lon="1.83702">
        <ele>177.80000305176</ele>
        <time>2023-08-09T06:38:23.000Z</time>
      </trkpt>
      <trkpt lat="50.65259" lon="1.83701">
        <ele>178</ele>
        <time>2023-08-09T06:38:24.000Z</time>
      </trkpt>
      <trkpt lat="50.65239" lon="1.83697">
        <ele>178.80000305176</ele>
        <time>2023-08-09T06:38:30.000Z</time>
      </trkpt>
      <trkpt lat="50.65224" lon="1.83695">
        <ele>179</ele>
        <time>2023-08-09T06:38:34.000Z</time>
      </trkpt>
      <trkpt lat="50.6521" lon="1.83693">
        <ele>179.19999694824</ele>
        <time>2023-08-09T06:38:37.000Z</time>
      </trkpt>
      <trkpt lat="50.65178" lon="1.83691">
        <ele>178.80000305176</ele>
        <time>2023-08-09T06:38:43.000Z</time>
      </trkpt>
      <trkpt lat="50.65141" lon="1.83694">
        <ele>177.80000305176</ele>
        <time>2023-08-09T06:38:49.000Z</time>
      </trkpt>
      <trkpt lat="50.65135" lon="1.83695">
        <ele>177.80000305176</ele>
        <time>2023-08-09T06:38:50.000Z</time>
      </trkpt>
      <trkpt lat="50.65129" lon="1.83696">
        <ele>177.60000610352</ele>
        <time>2023-08-09T06:38:51.000Z</time>
      </trkpt>
      <trkpt lat="50.65078" lon="1.8371">
        <ele>177.19999694824</ele>
        <time>2023-08-09T06:38:59.000Z</time>
      </trkpt>
      <trkpt lat="50.65065" lon="1.83714">
        <ele>176.80000305176</ele>
        <time>2023-08-09T06:39:01.000Z</time>
      </trkpt>
      <trkpt lat="50.65047" lon="1.8372">
        <ele>176.60000610352</ele>
        <time>2023-08-09T06:39:04.000Z</time>
      </trkpt>
      <trkpt lat="50.65015" lon="1.83733">
        <ele>176.19999694824</ele>
        <time>2023-08-09T06:39:09.000Z</time>
      </trkpt>
      <trkpt lat="50.65003" lon="1.83741">
        <ele>176.19999694824</ele>
        <time>2023-08-09T06:39:11.000Z</time>
      </trkpt>
      <trkpt lat="50.64971" lon="1.83761">
        <ele>175.80000305176</ele>
        <time>2023-08-09T06:39:17.000Z</time>
      </trkpt>
      <trkpt lat="50.64958" lon="1.8377">
        <ele>175.80000305176</ele>
        <time>2023-08-09T06:39:18.000Z</time>
      </trkpt>
      <trkpt lat="50.64919" lon="1.838">
        <ele>175.39999389648</ele>
        <time>2023-08-09T06:39:24.000Z</time>
      </trkpt>
      <trkpt lat="50.64913" lon="1.83804">
        <ele>175.19999694824</ele>
        <time>2023-08-09T06:39:25.000Z</time>
      </trkpt>
      <trkpt lat="50.64884" lon="1.83816">
        <ele>174.80000305176</ele>
        <time>2023-08-09T06:39:29.000Z</time>
      </trkpt>
      <trkpt lat="50.64875" lon="1.83819">
        <ele>174.60000610352</ele>
        <time>2023-08-09T06:39:30.000Z</time>
      </trkpt>
      <trkpt lat="50.64838" lon="1.83826">
        <ele>173.60000610352</ele>
        <time>2023-08-09T06:39:34.000Z</time>
      </trkpt>
      <trkpt lat="50.64818" lon="1.83831">
        <ele>172.19999694824</ele>
        <time>2023-08-09T06:39:36.000Z</time>
      </trkpt>
      <trkpt lat="50.64797" lon="1.83842">
        <ele>170.19999694824</ele>
        <time>2023-08-09T06:39:38.000Z</time>
      </trkpt>
      <trkpt lat="50.64787" lon="1.83848">
        <ele>170</ele>
        <time>2023-08-09T06:39:39.000Z</time>
      </trkpt>
      <trkpt lat="50.64777" lon="1.83854">
        <ele>169</ele>
        <time>2023-08-09T06:39:40.000Z</time>
      </trkpt>
      <trkpt lat="50.64757" lon="1.83867">
        <ele>167.60000610352</ele>
        <time>2023-08-09T06:39:42.000Z</time>
      </trkpt>
      <trkpt lat="50.64737" lon="1.83881">
        <ele>165.60000610352</ele>
        <time>2023-08-09T06:39:44.000Z</time>
      </trkpt>
      <trkpt lat="50.64718" lon="1.83896">
        <ele>164.19999694824</ele>
        <time>2023-08-09T06:39:46.000Z</time>
      </trkpt>
      <trkpt lat="50.64709" lon="1.83905">
        <ele>162.80000305176</ele>
        <time>2023-08-09T06:39:48.000Z</time>
      </trkpt>
      <trkpt lat="50.64693" lon="1.83927">
        <ele>161.80000305176</ele>
        <time>2023-08-09T06:39:49.000Z</time>
      </trkpt>
      <trkpt lat="50.64686" lon="1.83939">
        <ele>160.60000610352</ele>
        <time>2023-08-09T06:39:50.000Z</time>
      </trkpt>
      <trkpt lat="50.64673" lon="1.83961">
        <ele>159.60000610352</ele>
        <time>2023-08-09T06:39:52.000Z</time>
      </trkpt>
      <trkpt lat="50.64667" lon="1.8397">
        <ele>158.60000610352</ele>
        <time>2023-08-09T06:39:54.000Z</time>
      </trkpt>
      <trkpt lat="50.64655" lon="1.83987">
        <ele>158.39999389648</ele>
        <time>2023-08-09T06:39:55.000Z</time>
      </trkpt>
      <trkpt lat="50.64642" lon="1.84">
        <ele>157.19999694824</ele>
        <time>2023-08-09T06:39:57.000Z</time>
      </trkpt>
      <trkpt lat="50.64636" lon="1.84007">
        <ele>157</ele>
        <time>2023-08-09T06:39:58.000Z</time>
      </trkpt>
      <trkpt lat="50.64608" lon="1.84032">
        <ele>156.39999389648</ele>
        <time>2023-08-09T06:40:03.000Z</time>
      </trkpt>
      <trkpt lat="50.64566" lon="1.84063">
        <ele>157.19999694824</ele>
        <time>2023-08-09T06:40:10.000Z</time>
      </trkpt>
      <trkpt lat="50.64551" lon="1.8407">
        <ele>157.19999694824</ele>
        <time>2023-08-09T06:40:12.000Z</time>
      </trkpt>
      <trkpt lat="50.64534" lon="1.84072">
        <ele>156.80000305176</ele>
        <time>2023-08-09T06:40:14.000Z</time>
      </trkpt>
      <trkpt lat="50.64517" lon="1.84072">
        <ele>156.19999694824</ele>
        <time>2023-08-09T06:40:16.000Z</time>
      </trkpt>
      <trkpt lat="50.64492" lon="1.84072">
        <ele>154.80000305176</ele>
        <time>2023-08-09T06:40:19.000Z</time>
      </trkpt>
      <trkpt lat="50.64476" lon="1.84073">
        <ele>154.60000610352</ele>
        <time>2023-08-09T06:40:21.000Z</time>
      </trkpt>
      <trkpt lat="50.64454" lon="1.84077">
        <ele>153.80000305176</ele>
        <time>2023-08-09T06:40:24.000Z</time>
      </trkpt>
      <trkpt lat="50.6444" lon="1.8408">
        <ele>153.39999389648</ele>
        <time>2023-08-09T06:40:26.000Z</time>
      </trkpt>
      <trkpt lat="50.64411" lon="1.84088">
        <ele>152.39999389648</ele>
        <time>2023-08-09T06:40:30.000Z</time>
      </trkpt>
      <trkpt lat="50.64397" lon="1.84091">
        <ele>152</ele>
        <time>2023-08-09T06:40:32.000Z</time>
      </trkpt>
      <trkpt lat="50.64383" lon="1.84096">
        <ele>151.80000305176</ele>
        <time>2023-08-09T06:40:34.000Z</time>
      </trkpt>
      <trkpt lat="50.64366" lon="1.841">
        <ele>151.39999389648</ele>
        <time>2023-08-09T06:40:36.000Z</time>
      </trkpt>
      <trkpt lat="50.64328" lon="1.84111">
        <ele>151</ele>
        <time>2023-08-09T06:40:40.000Z</time>
      </trkpt>
      <trkpt lat="50.64301" lon="1.84121">
        <ele>150.19999694824</ele>
        <time>2023-08-09T06:40:44.000Z</time>
      </trkpt>
      <trkpt lat="50.64265" lon="1.84131">
        <ele>149.19999694824</ele>
        <time>2023-08-09T06:40:47.000Z</time>
      </trkpt>
      <trkpt lat="50.64239" lon="1.84142">
        <ele>148.80000305176</ele>
        <time>2023-08-09T06:40:50.000Z</time>
      </trkpt>
      <trkpt lat="50.64229" lon="1.84146">
        <ele>148.19999694824</ele>
        <time>2023-08-09T06:40:52.000Z</time>
      </trkpt>
      <trkpt lat="50.64192" lon="1.84168">
        <ele>147.19999694824</ele>
        <time>2023-08-09T06:40:55.000Z</time>
      </trkpt>
      <trkpt lat="50.64192" lon="1.84168">
        <ele>147</ele>
        <time>2023-08-09T06:40:56.000Z</time>
      </trkpt>
      <trkpt lat="50.64174" lon="1.8418">
        <ele>146</ele>
        <time>2023-08-09T06:40:58.000Z</time>
      </trkpt>
      <trkpt lat="50.64143" lon="1.84204">
        <ele>144.60000610352</ele>
        <time>2023-08-09T06:41:01.000Z</time>
      </trkpt>
      <trkpt lat="50.64133" lon="1.8421">
        <ele>144</ele>
        <time>2023-08-09T06:41:02.000Z</time>
      </trkpt>
      <trkpt lat="50.64114" lon="1.84222">
        <ele>142.80000305176</ele>
        <time>2023-08-09T06:41:04.000Z</time>
      </trkpt>
      <trkpt lat="50.64091" lon="1.84231">
        <ele>141.60000610352</ele>
        <time>2023-08-09T06:41:06.000Z</time>
      </trkpt>
      <trkpt lat="50.64077" lon="1.84236">
        <ele>141</ele>
        <time>2023-08-09T06:41:07.000Z</time>
      </trkpt>
      <trkpt lat="50.64066" lon="1.84238">
        <ele>140.39999389648</ele>
        <time>2023-08-09T06:41:08.000Z</time>
      </trkpt>
      <trkpt lat="50.64045" lon="1.8424">
        <ele>139</ele>
        <time>2023-08-09T06:41:10.000Z</time>
      </trkpt>
      <trkpt lat="50.64033" lon="1.8424">
        <ele>138.39999389648</ele>
        <time>2023-08-09T06:41:11.000Z</time>
      </trkpt>
      <trkpt lat="50.64022" lon="1.8424">
        <ele>137.39999389648</ele>
        <time>2023-08-09T06:41:12.000Z</time>
      </trkpt>
      <trkpt lat="50.63988" lon="1.8424">
        <ele>136</ele>
        <time>2023-08-09T06:41:15.000Z</time>
      </trkpt>
      <trkpt lat="50.63954" lon="1.8424">
        <ele>135</ele>
        <time>2023-08-09T06:41:18.000Z</time>
      </trkpt>
      <trkpt lat="50.63943" lon="1.8424">
        <ele>134.39999389648</ele>
        <time>2023-08-09T06:41:19.000Z</time>
      </trkpt>
      <trkpt lat="50.63925" lon="1.8424">
        <ele>134</ele>
        <time>2023-08-09T06:41:21.000Z</time>
      </trkpt>
      <trkpt lat="50.63874" lon="1.8424">
        <ele>132.60000610352</ele>
        <time>2023-08-09T06:41:26.000Z</time>
      </trkpt>
      <trkpt lat="50.63805" lon="1.8424">
        <ele>131.80000305176</ele>
        <time>2023-08-09T06:41:32.000Z</time>
      </trkpt>
      <trkpt lat="50.63805" lon="1.8424">
        <ele>131.60000610352</ele>
        <time>2023-08-09T06:41:33.000Z</time>
      </trkpt>
      <trkpt lat="50.63788" lon="1.8424">
        <ele>131.39999389648</ele>
        <time>2023-08-09T06:41:35.000Z</time>
      </trkpt>
      <trkpt lat="50.63733" lon="1.84238">
        <ele>130.60000610352</ele>
        <time>2023-08-09T06:41:41.000Z</time>
      </trkpt>
      <trkpt lat="50.63715" lon="1.84234">
        <ele>130.39999389648</ele>
        <time>2023-08-09T06:41:42.000Z</time>
      </trkpt>
      <trkpt lat="50.63661" lon="1.84222">
        <ele>130</ele>
        <time>2023-08-09T06:41:48.000Z</time>
      </trkpt>
      <trkpt lat="50.63627" lon="1.84214">
        <ele>129.80000305176</ele>
        <time>2023-08-09T06:41:52.000Z</time>
      </trkpt>
      <trkpt lat="50.63569" lon="1.84204">
        <ele>129.60000610352</ele>
        <time>2023-08-09T06:42:00.000Z</time>
      </trkpt>
      <trkpt lat="50.63554" lon="1.84203">
        <ele>129.60000610352</ele>
        <time>2023-08-09T06:42:01.000Z</time>
      </trkpt>
      <trkpt lat="50.63544" lon="1.84204">
        <ele>129.39999389648</ele>
        <time>2023-08-09T06:42:03.000Z</time>
      </trkpt>
      <trkpt lat="50.63485" lon="1.8421">
        <ele>129</ele>
        <time>2023-08-09T06:42:09.000Z</time>
      </trkpt>
      <trkpt lat="50.63477" lon="1.84211">
        <ele>128.80000305176</ele>
        <time>2023-08-09T06:42:11.000Z</time>
      </trkpt>
      <trkpt lat="50.63444" lon="1.84216">
        <ele>128.39999389648</ele>
        <time>2023-08-09T06:42:14.000Z</time>
      </trkpt>
      <trkpt lat="50.63388" lon="1.84223">
        <ele>127.59999847412</ele>
        <time>2023-08-09T06:42:22.000Z</time>
      </trkpt>
      <trkpt lat="50.63322" lon="1.84231">
        <ele>127.80000305176</ele>
        <time>2023-08-09T06:42:30.000Z</time>
      </trkpt>
      <trkpt lat="50.63322" lon="1.84231">
        <ele>127.80000305176</ele>
        <time>2023-08-09T06:42:31.000Z</time>
      </trkpt>
      <trkpt lat="50.63273" lon="1.84232">
        <ele>128.60000610352</ele>
        <time>2023-08-09T06:42:38.000Z</time>
      </trkpt>
      <trkpt lat="50.63216" lon="1.84224">
        <ele>129.19999694824</ele>
        <time>2023-08-09T06:42:46.000Z</time>
      </trkpt>
      <trkpt lat="50.63209" lon="1.84224">
        <ele>129.60000610352</ele>
        <time>2023-08-09T06:42:48.000Z</time>
      </trkpt>
      <trkpt lat="50.63144" lon="1.84214">
        <ele>129.80000305176</ele>
        <time>2023-08-09T06:42:57.000Z</time>
      </trkpt>
      <trkpt lat="50.63094" lon="1.84208">
        <ele>129.39999389648</ele>
        <time>2023-08-09T06:43:05.000Z</time>
      </trkpt>
      <trkpt lat="50.63057" lon="1.84205">
        <ele>128.39999389648</ele>
        <time>2023-08-09T06:43:09.000Z</time>
      </trkpt>
      <trkpt lat="50.63031" lon="1.84204">
        <ele>127.19999694824</ele>
        <time>2023-08-09T06:43:12.000Z</time>
      </trkpt>
      <trkpt lat="50.63" lon="1.84201">
        <ele>125.59999847412</ele>
        <time>2023-08-09T06:43:15.000Z</time>
      </trkpt>
      <trkpt lat="50.62971" lon="1.84198">
        <ele>125</ele>
        <time>2023-08-09T06:43:17.000Z</time>
      </trkpt>
      <trkpt lat="50.62961" lon="1.84197">
        <ele>124.40000152588</ele>
        <time>2023-08-09T06:43:18.000Z</time>
      </trkpt>
      <trkpt lat="50.62952" lon="1.84196">
        <ele>123.40000152588</ele>
        <time>2023-08-09T06:43:20.000Z</time>
      </trkpt>
      <trkpt lat="50.62921" lon="1.84193">
        <ele>122.19999694824</ele>
        <time>2023-08-09T06:43:22.000Z</time>
      </trkpt>
      <trkpt lat="50.62901" lon="1.84193">
        <ele>121.59999847412</ele>
        <time>2023-08-09T06:43:24.000Z</time>
      </trkpt>
      <trkpt lat="50.62891" lon="1.84194">
        <ele>120.59999847412</ele>
        <time>2023-08-09T06:43:25.000Z</time>
      </trkpt>
      <trkpt lat="50.62881" lon="1.84198">
        <ele>120.19999694824</ele>
        <time>2023-08-09T06:43:26.000Z</time>
      </trkpt>
      <trkpt lat="50.62861" lon="1.84209">
        <ele>119.19999694824</ele>
        <time>2023-08-09T06:43:28.000Z</time>
      </trkpt>
      <trkpt lat="50.62852" lon="1.84215">
        <ele>118.59999847412</ele>
        <time>2023-08-09T06:43:29.000Z</time>
      </trkpt>
      <trkpt lat="50.62842" lon="1.84222">
        <ele>118</ele>
        <time>2023-08-09T06:43:30.000Z</time>
      </trkpt>
      <trkpt lat="50.62823" lon="1.84237">
        <ele>116.80000305176</ele>
        <time>2023-08-09T06:43:32.000Z</time>
      </trkpt>
      <trkpt lat="50.62803" lon="1.84252">
        <ele>115.59999847412</ele>
        <time>2023-08-09T06:43:34.000Z</time>
      </trkpt>
      <trkpt lat="50.62783" lon="1.84265">
        <ele>114.59999847412</ele>
        <time>2023-08-09T06:43:36.000Z</time>
      </trkpt>
      <trkpt lat="50.62772" lon="1.8427">
        <ele>114</ele>
        <time>2023-08-09T06:43:37.000Z</time>
      </trkpt>
      <trkpt lat="50.62752" lon="1.84278">
        <ele>112.59999847412</ele>
        <time>2023-08-09T06:43:39.000Z</time>
      </trkpt>
      <trkpt lat="50.62723" lon="1.84285">
        <ele>111.19999694824</ele>
        <time>2023-08-09T06:43:42.000Z</time>
      </trkpt>
      <trkpt lat="50.62679" lon="1.84292">
        <ele>110.19999694824</ele>
        <time>2023-08-09T06:43:47.000Z</time>
      </trkpt>
      <trkpt lat="50.6267" lon="1.84294">
        <ele>110.19999694824</ele>
        <time>2023-08-09T06:43:48.000Z</time>
      </trkpt>
      <trkpt lat="50.62636" lon="1.84306">
        <ele>109.40000152588</ele>
        <time>2023-08-09T06:43:52.000Z</time>
      </trkpt>
      <trkpt lat="50.6261" lon="1.8432">
        <ele>109</ele>
        <time>2023-08-09T06:43:55.000Z</time>
      </trkpt>
      <trkpt lat="50.62576" lon="1.84337">
        <ele>108.59999847412</ele>
        <time>2023-08-09T06:43:59.000Z</time>
      </trkpt>
      <trkpt lat="50.62559" lon="1.84342">
        <ele>108.40000152588</ele>
        <time>2023-08-09T06:44:01.000Z</time>
      </trkpt>
      <trkpt lat="50.6255" lon="1.84341">
        <ele>108</ele>
        <time>2023-08-09T06:44:03.000Z</time>
      </trkpt>
      <trkpt lat="50.62542" lon="1.8434">
        <ele>107.80000305176</ele>
        <time>2023-08-09T06:44:04.000Z</time>
      </trkpt>
      <trkpt lat="50.62534" lon="1.84338">
        <ele>107.80000305176</ele>
        <time>2023-08-09T06:44:05.000Z</time>
      </trkpt>
      <trkpt lat="50.62518" lon="1.84329">
        <ele>107.59999847412</ele>
        <time>2023-08-09T06:44:07.000Z</time>
      </trkpt>
      <trkpt lat="50.62466" lon="1.84297">
        <ele>107.19999694824</ele>
        <time>2023-08-09T06:44:14.000Z</time>
      </trkpt>
      <trkpt lat="50.62453" lon="1.84289">
        <ele>107.19999694824</ele>
        <time>2023-08-09T06:44:15.000Z</time>
      </trkpt>
      <trkpt lat="50.62405" lon="1.84271">
        <ele>106.80000305176</ele>
        <time>2023-08-09T06:44:21.000Z</time>
      </trkpt>
      <trkpt lat="50.62397" lon="1.84269">
        <ele>106.59999847412</ele>
        <time>2023-08-09T06:44:22.000Z</time>
      </trkpt>
      <trkpt lat="50.6235" lon="1.84258">
        <ele>105.59999847412</ele>
        <time>2023-08-09T06:44:28.000Z</time>
      </trkpt>
      <trkpt lat="50.62314" lon="1.84247">
        <ele>105.19999694824</ele>
        <time>2023-08-09T06:44:33.000Z</time>
      </trkpt>
      <trkpt lat="50.62297" lon="1.8424">
        <ele>105</ele>
        <time>2023-08-09T06:44:36.000Z</time>
      </trkpt>
      <trkpt lat="50.62287" lon="1.8423">
        <ele>105</ele>
        <time>2023-08-09T06:44:38.000Z</time>
      </trkpt>
      <trkpt lat="50.62276" lon="1.84214">
        <ele>105</ele>
        <time>2023-08-09T06:44:41.000Z</time>
      </trkpt>
      <trkpt lat="50.62271" lon="1.84198">
        <ele>105.19999694824</ele>
        <time>2023-08-09T06:44:43.000Z</time>
      </trkpt>
      <trkpt lat="50.62266" lon="1.84179">
        <ele>105.40000152588</ele>
        <time>2023-08-09T06:44:46.000Z</time>
      </trkpt>
      <trkpt lat="50.62263" lon="1.84162">
        <ele>106.40000152588</ele>
        <time>2023-08-09T06:44:49.000Z</time>
      </trkpt>
      <trkpt lat="50.62263" lon="1.84162">
        <ele>106.80000305176</ele>
        <time>2023-08-09T06:44:50.000Z</time>
      </trkpt>
      <trkpt lat="50.62257" lon="1.84133">
        <ele>107.80000305176</ele>
        <time>2023-08-09T06:44:55.000Z</time>
      </trkpt>
      <trkpt lat="50.62252" lon="1.84112">
        <ele>108.59999847412</ele>
        <time>2023-08-09T06:44:58.000Z</time>
      </trkpt>
      <trkpt lat="50.62251" lon="1.84107">
        <ele>109.19999694824</ele>
        <time>2023-08-09T06:44:59.000Z</time>
      </trkpt>
      <trkpt lat="50.62248" lon="1.8409">
        <ele>110.80000305176</ele>
        <time>2023-08-09T06:45:03.000Z</time>
      </trkpt>
      <trkpt lat="50.62248" lon="1.84085">
        <ele>111.40000152588</ele>
        <time>2023-08-09T06:45:05.000Z</time>
      </trkpt>
      <trkpt lat="50.62248" lon="1.84081">
        <ele>111.80000305176</ele>
        <time>2023-08-09T06:45:06.000Z</time>
      </trkpt>
      <trkpt lat="50.62243" lon="1.84063">
        <ele>112.40000152588</ele>
        <time>2023-08-09T06:45:10.000Z</time>
      </trkpt>
      <trkpt lat="50.62242" lon="1.84059">
        <ele>112.80000305176</ele>
        <time>2023-08-09T06:45:12.000Z</time>
      </trkpt>
      <trkpt lat="50.62237" lon="1.84043">
        <ele>114</ele>
        <time>2023-08-09T06:45:15.000Z</time>
      </trkpt>
      <trkpt lat="50.62227" lon="1.8403">
        <ele>115.19999694824</ele>
        <time>2023-08-09T06:45:20.000Z</time>
      </trkpt>
      <trkpt lat="50.62225" lon="1.84028">
        <ele>115.19999694824</ele>
        <time>2023-08-09T06:45:21.000Z</time>
      </trkpt>
      <trkpt lat="50.62205" lon="1.84012">
        <ele>115.40000152588</ele>
        <time>2023-08-09T06:45:29.000Z</time>
      </trkpt>
      <trkpt lat="50.62197" lon="1.8401">
        <ele>115.19999694824</ele>
        <time>2023-08-09T06:45:33.000Z</time>
      </trkpt>
      <trkpt lat="50.62193" lon="1.84006">
        <ele>115</ele>
        <time>2023-08-09T06:45:35.000Z</time>
      </trkpt>
      <trkpt lat="50.62177" lon="1.83998">
        <ele>114.40000152588</ele>
        <time>2023-08-09T06:45:40.000Z</time>
      </trkpt>
      <trkpt lat="50.62164" lon="1.83991">
        <ele>114</ele>
        <time>2023-08-09T06:45:44.000Z</time>
      </trkpt>
      <trkpt lat="50.62152" lon="1.83987">
        <ele>113.59999847412</ele>
        <time>2023-08-09T06:45:46.000Z</time>
      </trkpt>
      <trkpt lat="50.62152" lon="1.83987">
        <ele>113.19999694824</ele>
        <time>2023-08-09T06:45:47.000Z</time>
      </trkpt>
      <trkpt lat="50.62148" lon="1.83983">
        <ele>113</ele>
        <time>2023-08-09T06:45:48.000Z</time>
      </trkpt>
      <trkpt lat="50.6214" lon="1.83972">
        <ele>112.80000305176</ele>
        <time>2023-08-09T06:45:49.000Z</time>
      </trkpt>
      <trkpt lat="50.62135" lon="1.83964">
        <ele>112.19999694824</ele>
        <time>2023-08-09T06:45:50.000Z</time>
      </trkpt>
      <trkpt lat="50.62126" lon="1.83953">
        <ele>111.59999847412</ele>
        <time>2023-08-09T06:45:52.000Z</time>
      </trkpt>
      <trkpt lat="50.6211" lon="1.83934">
        <ele>110.59999847412</ele>
        <time>2023-08-09T06:45:56.000Z</time>
      </trkpt>
      <trkpt lat="50.62099" lon="1.8392">
        <ele>110.40000152588</ele>
        <time>2023-08-09T06:45:57.000Z</time>
      </trkpt>
      <trkpt lat="50.62069" lon="1.83885">
        <ele>109.19999694824</ele>
        <time>2023-08-09T06:46:02.000Z</time>
      </trkpt>
      <trkpt lat="50.62047" lon="1.83855">
        <ele>108.19999694824</ele>
        <time>2023-08-09T06:46:06.000Z</time>
      </trkpt>
      <trkpt lat="50.62015" lon="1.83809">
        <ele>107.59999847412</ele>
        <time>2023-08-09T06:46:12.000Z</time>
      </trkpt>
      <trkpt lat="50.62001" lon="1.83786">
        <ele>107.19999694824</ele>
        <time>2023-08-09T06:46:16.000Z</time>
      </trkpt>
      <trkpt lat="50.61967" lon="1.83729">
        <ele>106.80000305176</ele>
        <time>2023-08-09T06:46:23.000Z</time>
      </trkpt>
      <trkpt lat="50.61927" lon="1.83662">
        <ele>106.59999847412</ele>
        <time>2023-08-09T06:46:30.000Z</time>
      </trkpt>
      <trkpt lat="50.61918" lon="1.83646">
        <ele>106.40000152588</ele>
        <time>2023-08-09T06:46:32.000Z</time>
      </trkpt>
      <trkpt lat="50.61908" lon="1.8363">
        <ele>106.19999694824</ele>
        <time>2023-08-09T06:46:34.000Z</time>
      </trkpt>
      <trkpt lat="50.61869" lon="1.8357">
        <ele>105.40000152588</ele>
        <time>2023-08-09T06:46:42.000Z</time>
      </trkpt>
      <trkpt lat="50.61859" lon="1.83555">
        <ele>105.40000152588</ele>
        <time>2023-08-09T06:46:44.000Z</time>
      </trkpt>
      <trkpt lat="50.61829" lon="1.83514">
        <ele>105</ele>
        <time>2023-08-09T06:46:50.000Z</time>
      </trkpt>
      <trkpt lat="50.61813" lon="1.83491">
        <ele>104.80000305176</ele>
        <time>2023-08-09T06:46:53.000Z</time>
      </trkpt>
      <trkpt lat="50.61783" lon="1.83453">
        <ele>104</ele>
        <time>2023-08-09T06:46:58.000Z</time>
      </trkpt>
      <trkpt lat="50.61742" lon="1.83416">
        <ele>102.80000305176</ele>
        <time>2023-08-09T06:47:04.000Z</time>
      </trkpt>
      <trkpt lat="50.61693" lon="1.83396">
        <ele>101.80000305176</ele>
        <time>2023-08-09T06:47:10.000Z</time>
      </trkpt>
      <trkpt lat="50.6166" lon="1.83383">
        <ele>100.59999847412</ele>
        <time>2023-08-09T06:47:14.000Z</time>
      </trkpt>
      <trkpt lat="50.61644" lon="1.83373">
        <ele>100</ele>
        <time>2023-08-09T06:47:16.000Z</time>
      </trkpt>
      <trkpt lat="50.61631" lon="1.83358">
        <ele>99.400001525879</ele>
        <time>2023-08-09T06:47:18.000Z</time>
      </trkpt>
      <trkpt lat="50.61619" lon="1.83341">
        <ele>99.199996948242</ele>
        <time>2023-08-09T06:47:20.000Z</time>
      </trkpt>
      <trkpt lat="50.61603" lon="1.83315">
        <ele>98.400001525879</ele>
        <time>2023-08-09T06:47:23.000Z</time>
      </trkpt>
      <trkpt lat="50.61592" lon="1.833">
        <ele>98.199996948242</ele>
        <time>2023-08-09T06:47:25.000Z</time>
      </trkpt>
      <trkpt lat="50.61586" lon="1.83294">
        <ele>98</ele>
        <time>2023-08-09T06:47:26.000Z</time>
      </trkpt>
      <trkpt lat="50.6158" lon="1.83288">
        <ele>97.800003051758</ele>
        <time>2023-08-09T06:47:27.000Z</time>
      </trkpt>
      <trkpt lat="50.61552" lon="1.8327">
        <ele>97.400001525879</ele>
        <time>2023-08-09T06:47:31.000Z</time>
      </trkpt>
      <trkpt lat="50.61515" lon="1.83233">
        <ele>97</ele>
        <time>2023-08-09T06:47:37.000Z</time>
      </trkpt>
      <trkpt lat="50.61473" lon="1.83183">
        <ele>96.400001525879</ele>
        <time>2023-08-09T06:47:44.000Z</time>
      </trkpt>
      <trkpt lat="50.61454" lon="1.83162">
        <ele>95.800003051758</ele>
        <time>2023-08-09T06:47:47.000Z</time>
      </trkpt>
      <trkpt lat="50.61436" lon="1.8314">
        <ele>95.400001525879</ele>
        <time>2023-08-09T06:47:50.000Z</time>
      </trkpt>
      <trkpt lat="50.61399" lon="1.83098">
        <ele>94.800003051758</ele>
        <time>2023-08-09T06:47:56.000Z</time>
      </trkpt>
      <trkpt lat="50.61369" lon="1.83065">
        <ele>94.199996948242</ele>
        <time>2023-08-09T06:48:01.000Z</time>
      </trkpt>
      <trkpt lat="50.61343" lon="1.83044">
        <ele>93.800003051758</ele>
        <time>2023-08-09T06:48:05.000Z</time>
      </trkpt>
      <trkpt lat="50.61336" lon="1.83041">
        <ele>93.800003051758</ele>
        <time>2023-08-09T06:48:06.000Z</time>
      </trkpt>
      <trkpt lat="50.61307" lon="1.83033">
        <ele>93.400001525879</ele>
        <time>2023-08-09T06:48:10.000Z</time>
      </trkpt>
      <trkpt lat="50.613" lon="1.83032">
        <ele>93.199996948242</ele>
        <time>2023-08-09T06:48:11.000Z</time>
      </trkpt>
      <trkpt lat="50.61264" lon="1.83024">
        <ele>92.800003051758</ele>
        <time>2023-08-09T06:48:16.000Z</time>
      </trkpt>
      <trkpt lat="50.6121" lon="1.83">
        <ele>92.400001525879</ele>
        <time>2023-08-09T06:48:24.000Z</time>
      </trkpt>
      <trkpt lat="50.61196" lon="1.82994">
        <ele>92.199996948242</ele>
        <time>2023-08-09T06:48:26.000Z</time>
      </trkpt>
      <trkpt lat="50.61148" lon="1.82972">
        <ele>91.800003051758</ele>
        <time>2023-08-09T06:48:33.000Z</time>
      </trkpt>
      <trkpt lat="50.61127" lon="1.82964">
        <ele>91.800003051758</ele>
        <time>2023-08-09T06:48:36.000Z</time>
      </trkpt>
      <trkpt lat="50.61112" lon="1.82963">
        <ele>91.599998474121</ele>
        <time>2023-08-09T06:48:38.000Z</time>
      </trkpt>
      <trkpt lat="50.61105" lon="1.82964">
        <ele>91.599998474121</ele>
        <time>2023-08-09T06:48:39.000Z</time>
      </trkpt>
      <trkpt lat="50.61077" lon="1.82976">
        <ele>91.400001525879</ele>
        <time>2023-08-09T06:48:43.000Z</time>
      </trkpt>
      <trkpt lat="50.61063" lon="1.82983">
        <ele>91.199996948242</ele>
        <time>2023-08-09T06:48:45.000Z</time>
      </trkpt>
      <trkpt lat="50.61013" lon="1.83007">
        <ele>89.199996948242</ele>
        <time>2023-08-09T06:48:52.000Z</time>
      </trkpt>
      <trkpt lat="50.60977" lon="1.83012">
        <ele>90.400001525879</ele>
        <time>2023-08-09T06:48:57.000Z</time>
      </trkpt>
      <trkpt lat="50.60962" lon="1.83011">
        <ele>90.199996948242</ele>
        <time>2023-08-09T06:48:59.000Z</time>
      </trkpt>
      <trkpt lat="50.60917" lon="1.83005">
        <ele>89.599998474121</ele>
        <time>2023-08-09T06:49:05.000Z</time>
      </trkpt>
      <trkpt lat="50.6086" lon="1.83">
        <ele>89</ele>
        <time>2023-08-09T06:49:13.000Z</time>
      </trkpt>
      <trkpt lat="50.60845" lon="1.82999">
        <ele>89</ele>
        <time>2023-08-09T06:49:15.000Z</time>
      </trkpt>
      <trkpt lat="50.60825" lon="1.82993">
        <ele>88.800003051758</ele>
        <time>2023-08-09T06:49:18.000Z</time>
      </trkpt>
      <trkpt lat="50.60818" lon="1.82989">
        <ele>88.800003051758</ele>
        <time>2023-08-09T06:49:19.000Z</time>
      </trkpt>
      <trkpt lat="50.60789" lon="1.82961">
        <ele>88.800003051758</ele>
        <time>2023-08-09T06:49:24.000Z</time>
      </trkpt>
      <trkpt lat="50.60743" lon="1.829">
        <ele>89</ele>
        <time>2023-08-09T06:49:33.000Z</time>
      </trkpt>
      <trkpt lat="50.60732" lon="1.82887">
        <ele>89</ele>
        <time>2023-08-09T06:49:35.000Z</time>
      </trkpt>
      <trkpt lat="50.60687" lon="1.82827">
        <ele>89.199996948242</ele>
        <time>2023-08-09T06:49:44.000Z</time>
      </trkpt>
      <trkpt lat="50.60667" lon="1.82802">
        <ele>89.400001525879</ele>
        <time>2023-08-09T06:49:48.000Z</time>
      </trkpt>
      <trkpt lat="50.60619" lon="1.82749">
        <ele>89.199996948242</ele>
        <time>2023-08-09T06:49:57.000Z</time>
      </trkpt>
      <trkpt lat="50.60614" lon="1.82743">
        <ele>89.199996948242</ele>
        <time>2023-08-09T06:49:58.000Z</time>
      </trkpt>
      <trkpt lat="50.60569" lon="1.82685">
        <ele>88.800003051758</ele>
        <time>2023-08-09T06:50:07.000Z</time>
      </trkpt>
      <trkpt lat="50.60554" lon="1.82666">
        <ele>89</ele>
        <time>2023-08-09T06:50:10.000Z</time>
      </trkpt>
      <trkpt lat="50.60509" lon="1.82609">
        <ele>89.199996948242</ele>
        <time>2023-08-09T06:50:19.000Z</time>
      </trkpt>
      <trkpt lat="50.60499" lon="1.82597">
        <ele>89.199996948242</ele>
        <time>2023-08-09T06:50:21.000Z</time>
      </trkpt>
      <trkpt lat="50.60453" lon="1.82541">
        <ele>89</ele>
        <time>2023-08-09T06:50:30.000Z</time>
      </trkpt>
      <trkpt lat="50.60443" lon="1.82529">
        <ele>89.199996948242</ele>
        <time>2023-08-09T06:50:32.000Z</time>
      </trkpt>
      <trkpt lat="50.60398" lon="1.82473">
        <ele>89</ele>
        <time>2023-08-09T06:50:41.000Z</time>
      </trkpt>
      <trkpt lat="50.60383" lon="1.82454">
        <ele>89</ele>
        <time>2023-08-09T06:50:44.000Z</time>
      </trkpt>
      <trkpt lat="50.60336" lon="1.82394">
        <ele>88.400001525879</ele>
        <time>2023-08-09T06:50:53.000Z</time>
      </trkpt>
      <trkpt lat="50.6032" lon="1.82373">
        <ele>88.199996948242</ele>
        <time>2023-08-09T06:50:56.000Z</time>
      </trkpt>
      <trkpt lat="50.60315" lon="1.82366">
        <ele>88</ele>
        <time>2023-08-09T06:50:57.000Z</time>
      </trkpt>
      <trkpt lat="50.60272" lon="1.82317">
        <ele>87.400001525879</ele>
        <time>2023-08-09T06:51:04.000Z</time>
      </trkpt>
      <trkpt lat="50.60265" lon="1.8231">
        <ele>87.199996948242</ele>
        <time>2023-08-09T06:51:05.000Z</time>
      </trkpt>
      <trkpt lat="50.6023" lon="1.82279">
        <ele>86</ele>
        <time>2023-08-09T06:51:10.000Z</time>
      </trkpt>
      <trkpt lat="50.60216" lon="1.82265">
        <ele>85.400001525879</ele>
        <time>2023-08-09T06:51:12.000Z</time>
      </trkpt>
      <trkpt lat="50.60209" lon="1.82258">
        <ele>85</ele>
        <time>2023-08-09T06:51:14.000Z</time>
      </trkpt>
      <trkpt lat="50.60166" lon="1.82218">
        <ele>84</ele>
        <time>2023-08-09T06:51:19.000Z</time>
      </trkpt>
      <trkpt lat="50.60145" lon="1.82197">
        <ele>83.199996948242</ele>
        <time>2023-08-09T06:51:22.000Z</time>
      </trkpt>
      <trkpt lat="50.60138" lon="1.82189">
        <ele>82.800003051758</ele>
        <time>2023-08-09T06:51:23.000Z</time>
      </trkpt>
      <trkpt lat="50.60112" lon="1.82154">
        <ele>82</ele>
        <time>2023-08-09T06:51:27.000Z</time>
      </trkpt>
      <trkpt lat="50.60107" lon="1.82145">
        <ele>81.800003051758</ele>
        <time>2023-08-09T06:51:28.000Z</time>
      </trkpt>
      <trkpt lat="50.60086" lon="1.82107">
        <ele>81</ele>
        <time>2023-08-09T06:51:32.000Z</time>
      </trkpt>
      <trkpt lat="50.60082" lon="1.82098">
        <ele>81</ele>
        <time>2023-08-09T06:51:33.000Z</time>
      </trkpt>
      <trkpt lat="50.60053" lon="1.82031">
        <ele>80.800003051758</ele>
        <time>2023-08-09T06:51:40.000Z</time>
      </trkpt>
      <trkpt lat="50.60016" lon="1.81962">
        <ele>80.599998474121</ele>
        <time>2023-08-09T06:51:48.000Z</time>
      </trkpt>
      <trkpt lat="50.60012" lon="1.81954">
        <ele>80.599998474121</ele>
        <time>2023-08-09T06:51:49.000Z</time>
      </trkpt>
      <trkpt lat="50.5997" lon="1.81894">
        <ele>80.400001525879</ele>
        <time>2023-08-09T06:51:57.000Z</time>
      </trkpt>
      <trkpt lat="50.5996" lon="1.8188">
        <ele>80.199996948242</ele>
        <time>2023-08-09T06:51:59.000Z</time>
      </trkpt>
      <trkpt lat="50.59939" lon="1.81852">
        <ele>79.800003051758</ele>
        <time>2023-08-09T06:52:03.000Z</time>
      </trkpt>
      <trkpt lat="50.59914" lon="1.81812">
        <ele>79.599998474121</ele>
        <time>2023-08-09T06:52:08.000Z</time>
      </trkpt>
      <trkpt lat="50.59875" lon="1.81758">
        <ele>79</ele>
        <time>2023-08-09T06:52:15.000Z</time>
      </trkpt>
      <trkpt lat="50.59862" lon="1.81744">
        <ele>78.800003051758</ele>
        <time>2023-08-09T06:52:17.000Z</time>
      </trkpt>
      <trkpt lat="50.59835" lon="1.81717">
        <ele>77.599998474121</ele>
        <time>2023-08-09T06:52:22.000Z</time>
      </trkpt>
      <trkpt lat="50.59828" lon="1.8171">
        <ele>77.400001525879</ele>
        <time>2023-08-09T06:52:23.000Z</time>
      </trkpt>
      <trkpt lat="50.59791" lon="1.81667">
        <ele>76.599998474121</ele>
        <time>2023-08-09T06:52:28.000Z</time>
      </trkpt>
      <trkpt lat="50.59768" lon="1.81638">
        <ele>76.400001525879</ele>
        <time>2023-08-09T06:52:32.000Z</time>
      </trkpt>
      <trkpt lat="50.59724" lon="1.81579">
        <ele>75.800003051758</ele>
        <time>2023-08-09T06:52:40.000Z</time>
      </trkpt>
      <trkpt lat="50.59718" lon="1.81573">
        <ele>75.800003051758</ele>
        <time>2023-08-09T06:52:41.000Z</time>
      </trkpt>
      <trkpt lat="50.59671" lon="1.81527">
        <ele>76.199996948242</ele>
        <time>2023-08-09T06:52:50.000Z</time>
      </trkpt>
      <trkpt lat="50.59659" lon="1.81515">
        <ele>76.199996948242</ele>
        <time>2023-08-09T06:52:51.000Z</time>
      </trkpt>
      <trkpt lat="50.59612" lon="1.81463">
        <ele>75.599998474121</ele>
        <time>2023-08-09T06:52:59.000Z</time>
      </trkpt>
      <trkpt lat="50.59567" lon="1.81407">
        <ele>74.800003051758</ele>
        <time>2023-08-09T06:53:07.000Z</time>
      </trkpt>
      <trkpt lat="50.59555" lon="1.81393">
        <ele>74.400001525879</ele>
        <time>2023-08-09T06:53:09.000Z</time>
      </trkpt>
      <trkpt lat="50.5953" lon="1.81353">
        <ele>73.800003051758</ele>
        <time>2023-08-09T06:53:14.000Z</time>
      </trkpt>
      <trkpt lat="50.59511" lon="1.81306">
        <ele>73.400001525879</ele>
        <time>2023-08-09T06:53:19.000Z</time>
      </trkpt>
      <trkpt lat="50.59495" lon="1.81269">
        <ele>73.199996948242</ele>
        <time>2023-08-09T06:53:23.000Z</time>
      </trkpt>
      <trkpt lat="50.59464" lon="1.81207">
        <ele>72.800003051758</ele>
        <time>2023-08-09T06:53:31.000Z</time>
      </trkpt>
      <trkpt lat="50.59433" lon="1.81165">
        <ele>72.599998474121</ele>
        <time>2023-08-09T06:53:37.000Z</time>
      </trkpt>
      <trkpt lat="50.59418" lon="1.81148">
        <ele>72.599998474121</ele>
        <time>2023-08-09T06:53:39.000Z</time>
      </trkpt>
      <trkpt lat="50.59405" lon="1.81137">
        <ele>72.599998474121</ele>
        <time>2023-08-09T06:53:42.000Z</time>
      </trkpt>
      <trkpt lat="50.5935" lon="1.81102">
        <ele>72.400001525879</ele>
        <time>2023-08-09T06:53:50.000Z</time>
      </trkpt>
      <trkpt lat="50.59336" lon="1.81095">
        <ele>72.400001525879</ele>
        <time>2023-08-09T06:53:53.000Z</time>
      </trkpt>
      <trkpt lat="50.59272" lon="1.81061">
        <ele>72</ele>
        <time>2023-08-09T06:54:02.000Z</time>
      </trkpt>
      <trkpt lat="50.59266" lon="1.81057">
        <ele>72</ele>
        <time>2023-08-09T06:54:04.000Z</time>
      </trkpt>
      <trkpt lat="50.59209" lon="1.81027">
        <ele>71.599998474121</ele>
        <time>2023-08-09T06:54:12.000Z</time>
      </trkpt>
      <trkpt lat="50.59198" lon="1.8102">
        <ele>71.599998474121</ele>
        <time>2023-08-09T06:54:15.000Z</time>
      </trkpt>
      <trkpt lat="50.59138" lon="1.80988">
        <ele>71.400001525879</ele>
        <time>2023-08-09T06:54:23.000Z</time>
      </trkpt>
      <trkpt lat="50.59115" lon="1.80975">
        <ele>71.400001525879</ele>
        <time>2023-08-09T06:54:27.000Z</time>
      </trkpt>
      <trkpt lat="50.59107" lon="1.80972">
        <ele>71.199996948242</ele>
        <time>2023-08-09T06:54:29.000Z</time>
      </trkpt>
      <trkpt lat="50.59064" lon="1.80948">
        <ele>71.199996948242</ele>
        <time>2023-08-09T06:54:36.000Z</time>
      </trkpt>
      <trkpt lat="50.59008" lon="1.8092">
        <ele>71</ele>
        <time>2023-08-09T06:54:44.000Z</time>
      </trkpt>
      <trkpt lat="50.58995" lon="1.80912">
        <ele>70.599998474121</ele>
        <time>2023-08-09T06:54:47.000Z</time>
      </trkpt>
      <trkpt lat="50.58976" lon="1.80903">
        <ele>70.199996948242</ele>
        <time>2023-08-09T06:54:50.000Z</time>
      </trkpt>
      <trkpt lat="50.5895" lon="1.80896">
        <ele>70</ele>
        <time>2023-08-09T06:54:53.000Z</time>
      </trkpt>
      <trkpt lat="50.58942" lon="1.80896">
        <ele>69.800003051758</ele>
        <time>2023-08-09T06:54:54.000Z</time>
      </trkpt>
      <trkpt lat="50.58888" lon="1.80899">
        <ele>70</ele>
        <time>2023-08-09T06:55:04.000Z</time>
      </trkpt>
      <trkpt lat="50.58875" lon="1.80899">
        <ele>70.199996948242</ele>
        <time>2023-08-09T06:55:06.000Z</time>
      </trkpt>
      <trkpt lat="50.58846" lon="1.80902">
        <ele>70.599998474121</ele>
        <time>2023-08-09T06:55:10.000Z</time>
      </trkpt>
      <trkpt lat="50.5884" lon="1.80904">
        <ele>70.800003051758</ele>
        <time>2023-08-09T06:55:12.000Z</time>
      </trkpt>
      <trkpt lat="50.58795" lon="1.80932">
        <ele>70.800003051758</ele>
        <time>2023-08-09T06:55:19.000Z</time>
      </trkpt>
      <trkpt lat="50.58771" lon="1.80951">
        <ele>70</ele>
        <time>2023-08-09T06:55:24.000Z</time>
      </trkpt>
      <trkpt lat="50.58755" lon="1.80974">
        <ele>69.800003051758</ele>
        <time>2023-08-09T06:55:26.000Z</time>
      </trkpt>
      <trkpt lat="50.58747" lon="1.80989">
        <ele>69</ele>
        <time>2023-08-09T06:55:29.000Z</time>
      </trkpt>
      <trkpt lat="50.58717" lon="1.8105">
        <ele>68.400001525879</ele>
        <time>2023-08-09T06:55:35.000Z</time>
      </trkpt>
      <trkpt lat="50.58708" lon="1.81069">
        <ele>68</ele>
        <time>2023-08-09T06:55:38.000Z</time>
      </trkpt>
      <trkpt lat="50.58672" lon="1.81138">
        <ele>67.599998474121</ele>
        <time>2023-08-09T06:55:45.000Z</time>
      </trkpt>
      <trkpt lat="50.58667" lon="1.81147">
        <ele>67.599998474121</ele>
        <time>2023-08-09T06:55:46.000Z</time>
      </trkpt>
      <trkpt lat="50.58638" lon="1.81185">
        <ele>67.400001525879</ele>
        <time>2023-08-09T06:55:52.000Z</time>
      </trkpt>
      <trkpt lat="50.58584" lon="1.8124">
        <ele>67</ele>
        <time>2023-08-09T06:56:02.000Z</time>
      </trkpt>
      <trkpt lat="50.58584" lon="1.8124">
        <ele>67</ele>
        <time>2023-08-09T06:56:03.000Z</time>
      </trkpt>
      <trkpt lat="50.58545" lon="1.81281">
        <ele>67.400001525879</ele>
        <time>2023-08-09T06:56:10.000Z</time>
      </trkpt>
      <trkpt lat="50.58514" lon="1.81316">
        <ele>67.400001525879</ele>
        <time>2023-08-09T06:56:16.000Z</time>
      </trkpt>
      <trkpt lat="50.58481" lon="1.81366">
        <ele>67.199996948242</ele>
        <time>2023-08-09T06:56:23.000Z</time>
      </trkpt>
      <trkpt lat="50.58456" lon="1.81416">
        <ele>67</ele>
        <time>2023-08-09T06:56:29.000Z</time>
      </trkpt>
      <trkpt lat="50.58448" lon="1.81433">
        <ele>66.800003051758</ele>
        <time>2023-08-09T06:56:31.000Z</time>
      </trkpt>
      <trkpt lat="50.58421" lon="1.81486">
        <ele>65.800003051758</ele>
        <time>2023-08-09T06:56:37.000Z</time>
      </trkpt>
      <trkpt lat="50.58406" lon="1.81518">
        <ele>65.599998474121</ele>
        <time>2023-08-09T06:56:41.000Z</time>
      </trkpt>
      <trkpt lat="50.5837" lon="1.81589">
        <ele>65.199996948242</ele>
        <time>2023-08-09T06:56:51.000Z</time>
      </trkpt>
      <trkpt lat="50.58346" lon="1.81652">
        <ele>65.199996948242</ele>
        <time>2023-08-09T06:56:57.000Z</time>
      </trkpt>
      <trkpt lat="50.58344" lon="1.81662">
        <ele>65.199996948242</ele>
        <time>2023-08-09T06:56:59.000Z</time>
      </trkpt>
      <trkpt lat="50.58333" lon="1.81711">
        <ele>64.800003051758</ele>
        <time>2023-08-09T06:57:04.000Z</time>
      </trkpt>
      <trkpt lat="50.58327" lon="1.81751">
        <ele>64.599998474121</ele>
        <time>2023-08-09T06:57:07.000Z</time>
      </trkpt>
      <trkpt lat="50.58322" lon="1.81778">
        <ele>64.400001525879</ele>
        <time>2023-08-09T06:57:11.000Z</time>
      </trkpt>
      <trkpt lat="50.58311" lon="1.81815">
        <ele>64.199996948242</ele>
        <time>2023-08-09T06:57:14.000Z</time>
      </trkpt>
      <trkpt lat="50.58283" lon="1.81875">
        <ele>63.799999237061</ele>
        <time>2023-08-09T06:57:21.000Z</time>
      </trkpt>
      <trkpt lat="50.58274" lon="1.81891">
        <ele>63.599998474121</ele>
        <time>2023-08-09T06:57:23.000Z</time>
      </trkpt>
      <trkpt lat="50.58239" lon="1.81961">
        <ele>63.400001525879</ele>
        <time>2023-08-09T06:57:32.000Z</time>
      </trkpt>
      <trkpt lat="50.58231" lon="1.81975">
        <ele>63.599998474121</ele>
        <time>2023-08-09T06:57:34.000Z</time>
      </trkpt>
      <trkpt lat="50.58224" lon="1.81991">
        <ele>63.799999237061</ele>
        <time>2023-08-09T06:57:36.000Z</time>
      </trkpt>
      <trkpt lat="50.58189" lon="1.8206">
        <ele>64.199996948242</ele>
        <time>2023-08-09T06:57:45.000Z</time>
      </trkpt>
      <trkpt lat="50.58185" lon="1.82068">
        <ele>64.199996948242</ele>
        <time>2023-08-09T06:57:46.000Z</time>
      </trkpt>
      <trkpt lat="50.58158" lon="1.8212">
        <ele>64.800003051758</ele>
        <time>2023-08-09T06:57:53.000Z</time>
      </trkpt>
      <trkpt lat="50.5815" lon="1.82134">
        <ele>65.199996948242</ele>
        <time>2023-08-09T06:57:55.000Z</time>
      </trkpt>
      <trkpt lat="50.58118" lon="1.82177">
        <ele>65.599998474121</ele>
        <time>2023-08-09T06:58:02.000Z</time>
      </trkpt>
      <trkpt lat="50.581" lon="1.82195">
        <ele>65.800003051758</ele>
        <time>2023-08-09T06:58:06.000Z</time>
      </trkpt>
      <trkpt lat="50.58086" lon="1.82206">
        <ele>66.199996948242</ele>
        <time>2023-08-09T06:58:09.000Z</time>
      </trkpt>
      <trkpt lat="50.58062" lon="1.82225">
        <ele>67</ele>
        <time>2023-08-09T06:58:14.000Z</time>
      </trkpt>
      <trkpt lat="50.58044" lon="1.82239">
        <ele>67.800003051758</ele>
        <time>2023-08-09T06:58:18.000Z</time>
      </trkpt>
      <trkpt lat="50.58039" lon="1.82242">
        <ele>68</ele>
        <time>2023-08-09T06:58:19.000Z</time>
      </trkpt>
      <trkpt lat="50.58026" lon="1.82252">
        <ele>68.599998474121</ele>
        <time>2023-08-09T06:58:22.000Z</time>
      </trkpt>
      <trkpt lat="50.58012" lon="1.82262">
        <ele>69.199996948242</ele>
        <time>2023-08-09T06:58:25.000Z</time>
      </trkpt>
      <trkpt lat="50.57998" lon="1.8227">
        <ele>69.400001525879</ele>
        <time>2023-08-09T06:58:28.000Z</time>
      </trkpt>
      <trkpt lat="50.57964" lon="1.82286">
        <ele>70.199996948242</ele>
        <time>2023-08-09T06:58:35.000Z</time>
      </trkpt>
      <trkpt lat="50.57949" lon="1.82291">
        <ele>70.599998474121</ele>
        <time>2023-08-09T06:58:38.000Z</time>
      </trkpt>
      <trkpt lat="50.57922" lon="1.82301">
        <ele>71.199996948242</ele>
        <time>2023-08-09T06:58:44.000Z</time>
      </trkpt>
      <trkpt lat="50.57901" lon="1.82309">
        <ele>72.199996948242</ele>
        <time>2023-08-09T06:58:49.000Z</time>
      </trkpt>
      <trkpt lat="50.57897" lon="1.82311">
        <ele>72.400001525879</ele>
        <time>2023-08-09T06:58:50.000Z</time>
      </trkpt>
      <trkpt lat="50.57849" lon="1.8233">
        <ele>73.199996948242</ele>
        <time>2023-08-09T06:59:00.000Z</time>
      </trkpt>
      <trkpt lat="50.57829" lon="1.82338">
        <ele>73.400001525879</ele>
        <time>2023-08-09T06:59:04.000Z</time>
      </trkpt>
      <trkpt lat="50.57799" lon="1.82353">
        <ele>73.800003051758</ele>
        <time>2023-08-09T06:59:10.000Z</time>
      </trkpt>
      <trkpt lat="50.57763" lon="1.82371">
        <ele>74.199996948242</ele>
        <time>2023-08-09T06:59:17.000Z</time>
      </trkpt>
      <trkpt lat="50.57758" lon="1.82375">
        <ele>74.199996948242</ele>
        <time>2023-08-09T06:59:18.000Z</time>
      </trkpt>
      <trkpt lat="50.57752" lon="1.82379">
        <ele>74.199996948242</ele>
        <time>2023-08-09T06:59:19.000Z</time>
      </trkpt>
      <trkpt lat="50.57705" lon="1.82404">
        <ele>74.400001525879</ele>
        <time>2023-08-09T06:59:28.000Z</time>
      </trkpt>
      <trkpt lat="50.57674" lon="1.8242">
        <ele>74.400001525879</ele>
        <time>2023-08-09T06:59:34.000Z</time>
      </trkpt>
      <trkpt lat="50.57642" lon="1.82434">
        <ele>74.599998474121</ele>
        <time>2023-08-09T06:59:40.000Z</time>
      </trkpt>
      <trkpt lat="50.57612" lon="1.82446">
        <ele>74.400001525879</ele>
        <time>2023-08-09T06:59:46.000Z</time>
      </trkpt>
      <trkpt lat="50.57581" lon="1.82456">
        <ele>73.400001525879</ele>
        <time>2023-08-09T06:59:50.000Z</time>
      </trkpt>
      <trkpt lat="50.57573" lon="1.82457">
        <ele>73</ele>
        <time>2023-08-09T06:59:51.000Z</time>
      </trkpt>
      <trkpt lat="50.57554" lon="1.82459">
        <ele>72.199996948242</ele>
        <time>2023-08-09T06:59:53.000Z</time>
      </trkpt>
      <trkpt lat="50.57537" lon="1.82456">
        <ele>71.199996948242</ele>
        <time>2023-08-09T06:59:54.000Z</time>
      </trkpt>
      <trkpt lat="50.57526" lon="1.82454">
        <ele>71</ele>
        <time>2023-08-09T06:59:55.000Z</time>
      </trkpt>
      <trkpt lat="50.57497" lon="1.8244">
        <ele>69.800003051758</ele>
        <time>2023-08-09T06:59:58.000Z</time>
      </trkpt>
      <trkpt lat="50.57487" lon="1.82433">
        <ele>68.599998474121</ele>
        <time>2023-08-09T07:00:00.000Z</time>
      </trkpt>
      <trkpt lat="50.57468" lon="1.82422">
        <ele>67.199996948242</ele>
        <time>2023-08-09T07:00:01.000Z</time>
      </trkpt>
      <trkpt lat="50.57444" lon="1.82408">
        <ele>66</ele>
        <time>2023-08-09T07:00:03.000Z</time>
      </trkpt>
      <trkpt lat="50.57433" lon="1.82403">
        <ele>64.800003051758</ele>
        <time>2023-08-09T07:00:04.000Z</time>
      </trkpt>
      <trkpt lat="50.57423" lon="1.824">
        <ele>64.400001525879</ele>
        <time>2023-08-09T07:00:05.000Z</time>
      </trkpt>
      <trkpt lat="50.57412" lon="1.824">
        <ele>63.400001525879</ele>
        <time>2023-08-09T07:00:06.000Z</time>
      </trkpt>
      <trkpt lat="50.57394" lon="1.82404">
        <ele>62.400001525879</ele>
        <time>2023-08-09T07:00:08.000Z</time>
      </trkpt>
      <trkpt lat="50.57386" lon="1.82408">
        <ele>62.200000762939</ele>
        <time>2023-08-09T07:00:09.000Z</time>
      </trkpt>
      <trkpt lat="50.57372" lon="1.82416">
        <ele>62.200000762939</ele>
        <time>2023-08-09T07:00:11.000Z</time>
      </trkpt>
      <trkpt lat="50.57366" lon="1.82421">
        <ele>62.200000762939</ele>
        <time>2023-08-09T07:00:12.000Z</time>
      </trkpt>
      <trkpt lat="50.57345" lon="1.82437">
        <ele>63.400001525879</ele>
        <time>2023-08-09T07:00:16.000Z</time>
      </trkpt>
      <trkpt lat="50.57341" lon="1.8244">
        <ele>63.599998474121</ele>
        <time>2023-08-09T07:00:17.000Z</time>
      </trkpt>
      <trkpt lat="50.57337" lon="1.82444">
        <ele>64.599998474121</ele>
        <time>2023-08-09T07:00:19.000Z</time>
      </trkpt>
      <trkpt lat="50.57323" lon="1.82455">
        <ele>65.800003051758</ele>
        <time>2023-08-09T07:00:22.000Z</time>
      </trkpt>
      <trkpt lat="50.57323" lon="1.82455">
        <ele>66.199996948242</ele>
        <time>2023-08-09T07:00:23.000Z</time>
      </trkpt>
      <trkpt lat="50.57318" lon="1.8246">
        <ele>67</ele>
        <time>2023-08-09T07:00:25.000Z</time>
      </trkpt>
      <trkpt lat="50.57308" lon="1.82468">
        <ele>68</ele>
        <time>2023-08-09T07:00:28.000Z</time>
      </trkpt>
      <trkpt lat="50.57305" lon="1.8247">
        <ele>68</ele>
        <time>2023-08-09T07:00:29.000Z</time>
      </trkpt>
      <trkpt lat="50.57293" lon="1.82479">
        <ele>69.199996948242</ele>
        <time>2023-08-09T07:00:33.000Z</time>
      </trkpt>
      <trkpt lat="50.57282" lon="1.82489">
        <ele>70.400001525879</ele>
        <time>2023-08-09T07:00:37.000Z</time>
      </trkpt>
      <trkpt lat="50.57262" lon="1.82506">
        <ele>71.599998474121</ele>
        <time>2023-08-09T07:00:43.000Z</time>
      </trkpt>
      <trkpt lat="50.57255" lon="1.82512">
        <ele>71.800003051758</ele>
        <time>2023-08-09T07:00:45.000Z</time>
      </trkpt>
      <trkpt lat="50.5722" lon="1.8254">
        <ele>72.400001525879</ele>
        <time>2023-08-09T07:00:54.000Z</time>
      </trkpt>
      <trkpt lat="50.57178" lon="1.82561">
        <ele>72.400001525879</ele>
        <time>2023-08-09T07:01:02.000Z</time>
      </trkpt>
      <trkpt lat="50.57171" lon="1.82562">
        <ele>72.400001525879</ele>
        <time>2023-08-09T07:01:03.000Z</time>
      </trkpt>
      <trkpt lat="50.57153" lon="1.82564">
        <ele>72</ele>
        <time>2023-08-09T07:01:07.000Z</time>
      </trkpt>
      <trkpt lat="50.57137" lon="1.82563">
        <ele>71.800003051758</ele>
        <time>2023-08-09T07:01:08.000Z</time>
      </trkpt>
      <trkpt lat="50.5713" lon="1.82562">
        <ele>71.599998474121</ele>
        <time>2023-08-09T07:01:09.000Z</time>
      </trkpt>
      <trkpt lat="50.57099" lon="1.82552">
        <ele>70.599998474121</ele>
        <time>2023-08-09T07:01:13.000Z</time>
      </trkpt>
      <trkpt lat="50.57083" lon="1.82546">
        <ele>70</ele>
        <time>2023-08-09T07:01:15.000Z</time>
      </trkpt>
      <trkpt lat="50.57058" lon="1.82534">
        <ele>69.199996948242</ele>
        <time>2023-08-09T07:01:18.000Z</time>
      </trkpt>
      <trkpt lat="50.57033" lon="1.82516">
        <ele>68.400001525879</ele>
        <time>2023-08-09T07:01:21.000Z</time>
      </trkpt>
      <trkpt lat="50.57026" lon="1.82508">
        <ele>68</ele>
        <time>2023-08-09T07:01:22.000Z</time>
      </trkpt>
      <trkpt lat="50.57005" lon="1.82481">
        <ele>67.199996948242</ele>
        <time>2023-08-09T07:01:25.000Z</time>
      </trkpt>
      <trkpt lat="50.57" lon="1.8247">
        <ele>67</ele>
        <time>2023-08-09T07:01:26.000Z</time>
      </trkpt>
      <trkpt lat="50.56975" lon="1.82419">
        <ele>66.199996948242</ele>
        <time>2023-08-09T07:01:31.000Z</time>
      </trkpt>
      <trkpt lat="50.56965" lon="1.82398">
        <ele>66</ele>
        <time>2023-08-09T07:01:33.000Z</time>
      </trkpt>
      <trkpt lat="50.56939" lon="1.8235">
        <ele>65.599998474121</ele>
        <time>2023-08-09T07:01:38.000Z</time>
      </trkpt>
      <trkpt lat="50.5692" lon="1.82328">
        <ele>65.199996948242</ele>
        <time>2023-08-09T07:01:41.000Z</time>
      </trkpt>
      <trkpt lat="50.56907" lon="1.82317">
        <ele>65</ele>
        <time>2023-08-09T07:01:43.000Z</time>
      </trkpt>
      <trkpt lat="50.569" lon="1.82311">
        <ele>64.800003051758</ele>
        <time>2023-08-09T07:01:44.000Z</time>
      </trkpt>
      <trkpt lat="50.56871" lon="1.82287">
        <ele>64.599998474121</ele>
        <time>2023-08-09T07:01:49.000Z</time>
      </trkpt>
      <trkpt lat="50.56828" lon="1.82251">
        <ele>65.400001525879</ele>
        <time>2023-08-09T07:01:57.000Z</time>
      </trkpt>
      <trkpt lat="50.56784" lon="1.82203">
        <ele>65.400001525879</ele>
        <time>2023-08-09T07:02:05.000Z</time>
      </trkpt>
      <trkpt lat="50.56742" lon="1.82138">
        <ele>64.800003051758</ele>
        <time>2023-08-09T07:02:14.000Z</time>
      </trkpt>
      <trkpt lat="50.5671" lon="1.82089">
        <ele>64.599998474121</ele>
        <time>2023-08-09T07:02:21.000Z</time>
      </trkpt>
      <trkpt lat="50.56672" lon="1.8203">
        <ele>64</ele>
        <time>2023-08-09T07:02:29.000Z</time>
      </trkpt>
      <trkpt lat="50.56657" lon="1.82007">
        <ele>63.599998474121</ele>
        <time>2023-08-09T07:02:32.000Z</time>
      </trkpt>
      <trkpt lat="50.56625" lon="1.81963">
        <ele>63</ele>
        <time>2023-08-09T07:02:38.000Z</time>
      </trkpt>
      <trkpt lat="50.56604" lon="1.81934">
        <ele>62.400001525879</ele>
        <time>2023-08-09T07:02:42.000Z</time>
      </trkpt>
      <trkpt lat="50.56572" lon="1.81897">
        <ele>62</ele>
        <time>2023-08-09T07:02:48.000Z</time>
      </trkpt>
      <trkpt lat="50.56541" lon="1.81868">
        <ele>61.799999237061</ele>
        <time>2023-08-09T07:02:54.000Z</time>
      </trkpt>
      <trkpt lat="50.56508" lon="1.81835">
        <ele>61.799999237061</ele>
        <time>2023-08-09T07:03:01.000Z</time>
      </trkpt>
      <trkpt lat="50.56463" lon="1.81789">
        <ele>61.799999237061</ele>
        <time>2023-08-09T07:03:10.000Z</time>
      </trkpt>
      <trkpt lat="50.56453" lon="1.81777">
        <ele>61.799999237061</ele>
        <time>2023-08-09T07:03:12.000Z</time>
      </trkpt>
      <trkpt lat="50.56407" lon="1.81728">
        <ele>61.599998474121</ele>
        <time>2023-08-09T07:03:21.000Z</time>
      </trkpt>
      <trkpt lat="50.56361" lon="1.81683">
        <ele>61.599998474121</ele>
        <time>2023-08-09T07:03:30.000Z</time>
      </trkpt>
      <trkpt lat="50.56356" lon="1.81678">
        <ele>61.599998474121</ele>
        <time>2023-08-09T07:03:31.000Z</time>
      </trkpt>
      <trkpt lat="50.56331" lon="1.81656">
        <ele>61.400001525879</ele>
        <time>2023-08-09T07:03:36.000Z</time>
      </trkpt>
      <trkpt lat="50.56325" lon="1.81652">
        <ele>61.400001525879</ele>
        <time>2023-08-09T07:03:37.000Z</time>
      </trkpt>
      <trkpt lat="50.56281" lon="1.81623">
        <ele>60.200000762939</ele>
        <time>2023-08-09T07:03:44.000Z</time>
      </trkpt>
      <trkpt lat="50.56245" lon="1.816">
        <ele>59.200000762939</ele>
        <time>2023-08-09T07:03:49.000Z</time>
      </trkpt>
      <trkpt lat="50.56223" lon="1.81584">
        <ele>58</ele>
        <time>2023-08-09T07:03:53.000Z</time>
      </trkpt>
      <trkpt lat="50.56199" lon="1.81565">
        <ele>57</ele>
        <time>2023-08-09T07:03:55.000Z</time>
      </trkpt>
      <trkpt lat="50.5619" lon="1.81557">
        <ele>56.599998474121</ele>
        <time>2023-08-09T07:03:56.000Z</time>
      </trkpt>
      <trkpt lat="50.56174" lon="1.81544">
        <ele>55.799999237061</ele>
        <time>2023-08-09T07:03:58.000Z</time>
      </trkpt>
      <trkpt lat="50.56158" lon="1.8153">
        <ele>54.799999237061</ele>
        <time>2023-08-09T07:04:00.000Z</time>
      </trkpt>
      <trkpt lat="50.56135" lon="1.81512">
        <ele>53.200000762939</ele>
        <time>2023-08-09T07:04:03.000Z</time>
      </trkpt>
      <trkpt lat="50.56105" lon="1.81486">
        <ele>52</ele>
        <time>2023-08-09T07:04:07.000Z</time>
      </trkpt>
      <trkpt lat="50.56078" lon="1.81456">
        <ele>51.200000762939</ele>
        <time>2023-08-09T07:04:11.000Z</time>
      </trkpt>
      <trkpt lat="50.56065" lon="1.81439">
        <ele>51</ele>
        <time>2023-08-09T07:04:13.000Z</time>
      </trkpt>
      <trkpt lat="50.56043" lon="1.81404">
        <ele>50.599998474121</ele>
        <time>2023-08-09T07:04:17.000Z</time>
      </trkpt>
      <trkpt lat="50.56012" lon="1.8135">
        <ele>50</ele>
        <time>2023-08-09T07:04:23.000Z</time>
      </trkpt>
      <trkpt lat="50.55992" lon="1.81317">
        <ele>49.599998474121</ele>
        <time>2023-08-09T07:04:27.000Z</time>
      </trkpt>
      <trkpt lat="50.55955" lon="1.81258">
        <ele>49.200000762939</ele>
        <time>2023-08-09T07:04:36.000Z</time>
      </trkpt>
      <trkpt lat="50.55914" lon="1.81202">
        <ele>49</ele>
        <time>2023-08-09T07:04:43.000Z</time>
      </trkpt>
      <trkpt lat="50.55914" lon="1.81202">
        <ele>49</ele>
        <time>2023-08-09T07:04:44.000Z</time>
      </trkpt>
      <trkpt lat="50.55909" lon="1.81195">
        <ele>49</ele>
        <time>2023-08-09T07:04:45.000Z</time>
      </trkpt>
      <trkpt lat="50.55874" lon="1.81148">
        <ele>48.799999237061</ele>
        <time>2023-08-09T07:04:51.000Z</time>
      </trkpt>
      <trkpt lat="50.55829" lon="1.81084">
        <ele>48.200000762939</ele>
        <time>2023-08-09T07:05:00.000Z</time>
      </trkpt>
      <trkpt lat="50.55824" lon="1.81076">
        <ele>48</ele>
        <time>2023-08-09T07:05:01.000Z</time>
      </trkpt>
      <trkpt lat="50.55815" lon="1.81061">
        <ele>47.799999237061</ele>
        <time>2023-08-09T07:05:03.000Z</time>
      </trkpt>
      <trkpt lat="50.55777" lon="1.80994">
        <ele>47.200000762939</ele>
        <time>2023-08-09T07:05:11.000Z</time>
      </trkpt>
      <trkpt lat="50.55772" lon="1.80985">
        <ele>47</ele>
        <time>2023-08-09T07:05:12.000Z</time>
      </trkpt>
      <trkpt lat="50.55762" lon="1.80968">
        <ele>46.799999237061</ele>
        <time>2023-08-09T07:05:14.000Z</time>
      </trkpt>
      <trkpt lat="50.5573" lon="1.80913">
        <ele>46</ele>
        <time>2023-08-09T07:05:21.000Z</time>
      </trkpt>
      <trkpt lat="50.55692" lon="1.80847">
        <ele>46.200000762939</ele>
        <time>2023-08-09T07:05:30.000Z</time>
      </trkpt>
      <trkpt lat="50.55688" lon="1.8084">
        <ele>46.200000762939</ele>
        <time>2023-08-09T07:05:31.000Z</time>
      </trkpt>
      <trkpt lat="50.5566" lon="1.80785">
        <ele>46.599998474121</ele>
        <time>2023-08-09T07:05:40.000Z</time>
      </trkpt>
      <trkpt lat="50.55634" lon="1.80736">
        <ele>47.400001525879</ele>
        <time>2023-08-09T07:05:47.000Z</time>
      </trkpt>
      <trkpt lat="50.55622" lon="1.80705">
        <ele>47.599998474121</ele>
        <time>2023-08-09T07:05:51.000Z</time>
      </trkpt>
      <trkpt lat="50.55618" lon="1.80689">
        <ele>47.599998474121</ele>
        <time>2023-08-09T07:05:53.000Z</time>
      </trkpt>
      <trkpt lat="50.5561" lon="1.80652">
        <ele>47.599998474121</ele>
        <time>2023-08-09T07:05:58.000Z</time>
      </trkpt>
      <trkpt lat="50.55605" lon="1.80636">
        <ele>47.799999237061</ele>
        <time>2023-08-09T07:06:01.000Z</time>
      </trkpt>
      <trkpt lat="50.5559" lon="1.80603">
        <ele>48</ele>
        <time>2023-08-09T07:06:06.000Z</time>
      </trkpt>
      <trkpt lat="50.55584" lon="1.80591">
        <ele>48.200000762939</ele>
        <time>2023-08-09T07:06:08.000Z</time>
      </trkpt>
      <trkpt lat="50.55556" lon="1.80547">
        <ele>48.400001525879</ele>
        <time>2023-08-09T07:06:15.000Z</time>
      </trkpt>
      <trkpt lat="50.55512" lon="1.80491">
        <ele>48</ele>
        <time>2023-08-09T07:06:24.000Z</time>
      </trkpt>
      <trkpt lat="50.55494" lon="1.80468">
        <ele>48</ele>
        <time>2023-08-09T07:06:28.000Z</time>
      </trkpt>
      <trkpt lat="50.55451" lon="1.80409">
        <ele>47.200000762939</ele>
        <time>2023-08-09T07:06:37.000Z</time>
      </trkpt>
      <trkpt lat="50.55446" lon="1.80402">
        <ele>47</ele>
        <time>2023-08-09T07:06:39.000Z</time>
      </trkpt>
      <trkpt lat="50.55403" lon="1.80344">
        <ele>46.200000762939</ele>
        <time>2023-08-09T07:06:47.000Z</time>
      </trkpt>
      <trkpt lat="50.55394" lon="1.80334">
        <ele>46.200000762939</ele>
        <time>2023-08-09T07:06:49.000Z</time>
      </trkpt>
      <trkpt lat="50.55379" lon="1.80315">
        <ele>46</ele>
        <time>2023-08-09T07:06:52.000Z</time>
      </trkpt>
      <trkpt lat="50.55355" lon="1.80284">
        <ele>46.200000762939</ele>
        <time>2023-08-09T07:06:58.000Z</time>
      </trkpt>
      <trkpt lat="50.55338" lon="1.80261">
        <ele>47.200000762939</ele>
        <time>2023-08-09T07:07:04.000Z</time>
      </trkpt>
      <trkpt lat="50.55332" lon="1.80252">
        <ele>47.400001525879</ele>
        <time>2023-08-09T07:07:06.000Z</time>
      </trkpt>
      <trkpt lat="50.55317" lon="1.80225">
        <ele>48.400001525879</ele>
        <time>2023-08-09T07:07:11.000Z</time>
      </trkpt>
      <trkpt lat="50.55306" lon="1.80202">
        <ele>49</ele>
        <time>2023-08-09T07:07:15.000Z</time>
      </trkpt>
      <trkpt lat="50.55298" lon="1.80185">
        <ele>49.200000762939</ele>
        <time>2023-08-09T07:07:17.000Z</time>
      </trkpt>
      <trkpt lat="50.55295" lon="1.80179">
        <ele>49.400001525879</ele>
        <time>2023-08-09T07:07:18.000Z</time>
      </trkpt>
      <trkpt lat="50.55292" lon="1.80173">
        <ele>49.799999237061</ele>
        <time>2023-08-09T07:07:20.000Z</time>
      </trkpt>
      <trkpt lat="50.55285" lon="1.80157">
        <ele>50.400001525879</ele>
        <time>2023-08-09T07:07:23.000Z</time>
      </trkpt>
      <trkpt lat="50.55272" lon="1.80129">
        <ele>51.200000762939</ele>
        <time>2023-08-09T07:07:28.000Z</time>
      </trkpt>
      <trkpt lat="50.55266" lon="1.80118">
        <ele>51.200000762939</ele>
        <time>2023-08-09T07:07:29.000Z</time>
      </trkpt>
      <trkpt lat="50.55263" lon="1.80113">
        <ele>51.799999237061</ele>
        <time>2023-08-09T07:07:31.000Z</time>
      </trkpt>
      <trkpt lat="50.55245" lon="1.80081">
        <ele>52</ele>
        <time>2023-08-09T07:07:36.000Z</time>
      </trkpt>
      <trkpt lat="50.55245" lon="1.80081">
        <ele>52</ele>
        <time>2023-08-09T07:07:37.000Z</time>
      </trkpt>
      <trkpt lat="50.55237" lon="1.80068">
        <ele>52</ele>
        <time>2023-08-09T07:07:38.000Z</time>
      </trkpt>
      <trkpt lat="50.55231" lon="1.80059">
        <ele>51.799999237061</ele>
        <time>2023-08-09T07:07:40.000Z</time>
      </trkpt>
      <trkpt lat="50.55193" lon="1.80011">
        <ele>50.400001525879</ele>
        <time>2023-08-09T07:07:47.000Z</time>
      </trkpt>
      <trkpt lat="50.55168" lon="1.7998">
        <ele>49.200000762939</ele>
        <time>2023-08-09T07:07:50.000Z</time>
      </trkpt>
      <trkpt lat="50.55151" lon="1.79958">
        <ele>48.200000762939</ele>
        <time>2023-08-09T07:07:53.000Z</time>
      </trkpt>
      <trkpt lat="50.55151" lon="1.79958">
        <ele>47.799999237061</ele>
        <time>2023-08-09T07:07:54.000Z</time>
      </trkpt>
      <trkpt lat="50.55121" lon="1.79903">
        <ele>46.599998474121</ele>
        <time>2023-08-09T07:07:59.000Z</time>
      </trkpt>
      <trkpt lat="50.55115" lon="1.79891">
        <ele>46</ele>
        <time>2023-08-09T07:08:01.000Z</time>
      </trkpt>
      <trkpt lat="50.55111" lon="1.79881">
        <ele>45.599998474121</ele>
        <time>2023-08-09T07:08:02.000Z</time>
      </trkpt>
      <trkpt lat="50.55081" lon="1.79817">
        <ele>44.400001525879</ele>
        <time>2023-08-09T07:08:09.000Z</time>
      </trkpt>
      <trkpt lat="50.55072" lon="1.79799">
        <ele>44.200000762939</ele>
        <time>2023-08-09T07:08:10.000Z</time>
      </trkpt>
      <trkpt lat="50.55037" lon="1.79721">
        <ele>43.200000762939</ele>
        <time>2023-08-09T07:08:19.000Z</time>
      </trkpt>
      <trkpt lat="50.54999" lon="1.79645">
        <ele>42.599998474121</ele>
        <time>2023-08-09T07:08:27.000Z</time>
      </trkpt>
      <trkpt lat="50.54982" lon="1.79619">
        <ele>42.400001525879</ele>
        <time>2023-08-09T07:08:31.000Z</time>
      </trkpt>
      <trkpt lat="50.54969" lon="1.79605">
        <ele>42.200000762939</ele>
        <time>2023-08-09T07:08:34.000Z</time>
      </trkpt>
      <trkpt lat="50.54941" lon="1.79571">
        <ele>41.400001525879</ele>
        <time>2023-08-09T07:08:38.000Z</time>
      </trkpt>
      <trkpt lat="50.5493" lon="1.79556">
        <ele>41</ele>
        <time>2023-08-09T07:08:40.000Z</time>
      </trkpt>
      <trkpt lat="50.54926" lon="1.79548">
        <ele>40.799999237061</ele>
        <time>2023-08-09T07:08:41.000Z</time>
      </trkpt>
      <trkpt lat="50.54898" lon="1.795">
        <ele>40</ele>
        <time>2023-08-09T07:08:47.000Z</time>
      </trkpt>
      <trkpt lat="50.54889" lon="1.79485">
        <ele>39.799999237061</ele>
        <time>2023-08-09T07:08:49.000Z</time>
      </trkpt>
      <trkpt lat="50.54862" lon="1.79435">
        <ele>39.799999237061</ele>
        <time>2023-08-09T07:08:56.000Z</time>
      </trkpt>
      <trkpt lat="50.54829" lon="1.79384">
        <ele>39.599998474121</ele>
        <time>2023-08-09T07:09:03.000Z</time>
      </trkpt>
      <trkpt lat="50.54798" lon="1.79339">
        <ele>38.799999237061</ele>
        <time>2023-08-09T07:09:09.000Z</time>
      </trkpt>
      <trkpt lat="50.54786" lon="1.79329">
        <ele>38.400001525879</ele>
        <time>2023-08-09T07:09:11.000Z</time>
      </trkpt>
      <trkpt lat="50.54765" lon="1.79316">
        <ele>37.799999237061</ele>
        <time>2023-08-09T07:09:14.000Z</time>
      </trkpt>
      <trkpt lat="50.54759" lon="1.79312">
        <ele>37.599998474121</ele>
        <time>2023-08-09T07:09:15.000Z</time>
      </trkpt>
      <trkpt lat="50.54732" lon="1.79296">
        <ele>36.400001525879</ele>
        <time>2023-08-09T07:09:19.000Z</time>
      </trkpt>
      <trkpt lat="50.5472" lon="1.79286">
        <ele>36</ele>
        <time>2023-08-09T07:09:21.000Z</time>
      </trkpt>
      <trkpt lat="50.54711" lon="1.79275">
        <ele>35.599998474121</ele>
        <time>2023-08-09T07:09:23.000Z</time>
      </trkpt>
      <trkpt lat="50.54705" lon="1.79272">
        <ele>35.400001525879</ele>
        <time>2023-08-09T07:09:24.000Z</time>
      </trkpt>
      <trkpt lat="50.54698" lon="1.79272">
        <ele>35.200000762939</ele>
        <time>2023-08-09T07:09:25.000Z</time>
      </trkpt>
      <trkpt lat="50.54681" lon="1.79276">
        <ele>35</ele>
        <time>2023-08-09T07:09:28.000Z</time>
      </trkpt>
      <trkpt lat="50.54669" lon="1.79282">
        <ele>34.599998474121</ele>
        <time>2023-08-09T07:09:30.000Z</time>
      </trkpt>
      <trkpt lat="50.5466" lon="1.7929">
        <ele>34.400001525879</ele>
        <time>2023-08-09T07:09:32.000Z</time>
      </trkpt>
      <trkpt lat="50.54652" lon="1.79304">
        <ele>34</ele>
        <time>2023-08-09T07:09:34.000Z</time>
      </trkpt>
      <trkpt lat="50.5465" lon="1.79312">
        <ele>34</ele>
        <time>2023-08-09T07:09:35.000Z</time>
      </trkpt>
      <trkpt lat="50.54645" lon="1.79327">
        <ele>33.799999237061</ele>
        <time>2023-08-09T07:09:37.000Z</time>
      </trkpt>
      <trkpt lat="50.54641" lon="1.79349">
        <ele>33.799999237061</ele>
        <time>2023-08-09T07:09:40.000Z</time>
      </trkpt>
      <trkpt lat="50.54638" lon="1.79363">
        <ele>33.599998474121</ele>
        <time>2023-08-09T07:09:42.000Z</time>
      </trkpt>
      <trkpt lat="50.54635" lon="1.79385">
        <ele>33.400001525879</ele>
        <time>2023-08-09T07:09:45.000Z</time>
      </trkpt>
      <trkpt lat="50.54634" lon="1.79395">
        <ele>33.200000762939</ele>
        <time>2023-08-09T07:09:47.000Z</time>
      </trkpt>
      <trkpt lat="50.54634" lon="1.79403">
        <ele>33</ele>
        <time>2023-08-09T07:09:49.000Z</time>
      </trkpt>
      <trkpt lat="50.54635" lon="1.79409">
        <ele>33</ele>
        <time>2023-08-09T07:09:51.000Z</time>
      </trkpt>
      <trkpt lat="50.54637" lon="1.79406">
        <ele>32.799999237061</ele>
        <time>2023-08-09T07:09:53.000Z</time>
      </trkpt>
      <trkpt lat="50.54639" lon="1.79386">
        <ele>32.799999237061</ele>
        <time>2023-08-09T07:09:58.000Z</time>
      </trkpt>
      <trkpt lat="50.54644" lon="1.79359">
        <ele>33</ele>
        <time>2023-08-09T07:10:03.000Z</time>
      </trkpt>
      <trkpt lat="50.54652" lon="1.7932">
        <ele>33.200000762939</ele>
        <time>2023-08-09T07:10:10.000Z</time>
      </trkpt>
      <trkpt lat="50.54668" lon="1.79293">
        <ele>33.599998474121</ele>
        <time>2023-08-09T07:10:16.000Z</time>
      </trkpt>
      <trkpt lat="50.54688" lon="1.79284">
        <ele>33.799999237061</ele>
        <time>2023-08-09T07:10:21.000Z</time>
      </trkpt>
      <trkpt lat="50.54701" lon="1.79281">
        <ele>34.200000762939</ele>
        <time>2023-08-09T07:10:25.000Z</time>
      </trkpt>
      <trkpt lat="50.54704" lon="1.79281">
        <ele>34.400001525879</ele>
        <time>2023-08-09T07:10:27.000Z</time>
      </trkpt>
      <trkpt lat="50.54712" lon="1.79278">
        <ele>34.400001525879</ele>
        <time>2023-08-09T07:10:29.000Z</time>
      </trkpt>
      <trkpt lat="50.54713" lon="1.79271">
        <ele>34.400001525879</ele>
        <time>2023-08-09T07:10:31.000Z</time>
      </trkpt>
      <trkpt lat="50.54705" lon="1.79247">
        <ele>34.400001525879</ele>
        <time>2023-08-09T07:10:36.000Z</time>
      </trkpt>
      <trkpt lat="50.54689" lon="1.79205">
        <ele>34.400001525879</ele>
        <time>2023-08-09T07:10:43.000Z</time>
      </trkpt>
      <trkpt lat="50.54683" lon="1.79195">
        <ele>34.400001525879</ele>
        <time>2023-08-09T07:10:45.000Z</time>
      </trkpt>
      <trkpt lat="50.54674" lon="1.79188">
        <ele>34.400001525879</ele>
        <time>2023-08-09T07:10:47.000Z</time>
      </trkpt>
      <trkpt lat="50.54653" lon="1.79187">
        <ele>34.599998474121</ele>
        <time>2023-08-09T07:10:51.000Z</time>
      </trkpt>
      <trkpt lat="50.54618" lon="1.79186">
        <ele>34.599998474121</ele>
        <time>2023-08-09T07:10:57.000Z</time>
      </trkpt>
      <trkpt lat="50.5457" lon="1.79179">
        <ele>33.599998474121</ele>
        <time>2023-08-09T07:11:05.000Z</time>
      </trkpt>
      <trkpt lat="50.54533" lon="1.79167">
        <ele>33.200000762939</ele>
        <time>2023-08-09T07:11:11.000Z</time>
      </trkpt>
      <trkpt lat="50.54527" lon="1.79164">
        <ele>33.200000762939</ele>
        <time>2023-08-09T07:11:12.000Z</time>
      </trkpt>
      <trkpt lat="50.54493" lon="1.79135">
        <ele>33.200000762939</ele>
        <time>2023-08-09T07:11:18.000Z</time>
      </trkpt>
      <trkpt lat="50.54462" lon="1.79097">
        <ele>32.799999237061</ele>
        <time>2023-08-09T07:11:24.000Z</time>
      </trkpt>
      <trkpt lat="50.54458" lon="1.79089">
        <ele>32.799999237061</ele>
        <time>2023-08-09T07:11:25.000Z</time>
      </trkpt>
      <trkpt lat="50.54423" lon="1.79014">
        <ele>32.599998474121</ele>
        <time>2023-08-09T07:11:34.000Z</time>
      </trkpt>
      <trkpt lat="50.54392" lon="1.78957">
        <ele>32.400001525879</ele>
        <time>2023-08-09T07:11:41.000Z</time>
      </trkpt>
      <trkpt lat="50.54357" lon="1.78925">
        <ele>32.400001525879</ele>
        <time>2023-08-09T07:11:47.000Z</time>
      </trkpt>
      <trkpt lat="50.54314" lon="1.78902">
        <ele>32.400001525879</ele>
        <time>2023-08-09T07:11:54.000Z</time>
      </trkpt>
      <trkpt lat="50.54277" lon="1.78878">
        <ele>33</ele>
        <time>2023-08-09T07:12:01.000Z</time>
      </trkpt>
      <trkpt lat="50.54266" lon="1.78873">
        <ele>33.200000762939</ele>
        <time>2023-08-09T07:12:03.000Z</time>
      </trkpt>
      <trkpt lat="50.54248" lon="1.78866">
        <ele>33.400001525879</ele>
        <time>2023-08-09T07:12:06.000Z</time>
      </trkpt>
      <trkpt lat="50.54199" lon="1.78845">
        <ele>32.799999237061</ele>
        <time>2023-08-09T07:12:13.000Z</time>
      </trkpt>
      <trkpt lat="50.5416" lon="1.78827">
        <ele>32.200000762939</ele>
        <time>2023-08-09T07:12:19.000Z</time>
      </trkpt>
      <trkpt lat="50.54147" lon="1.78821">
        <ele>32.200000762939</ele>
        <time>2023-08-09T07:12:21.000Z</time>
      </trkpt>
      <trkpt lat="50.54097" lon="1.78792">
        <ele>32.200000762939</ele>
        <time>2023-08-09T07:12:29.000Z</time>
      </trkpt>
      <trkpt lat="50.54056" lon="1.78762">
        <ele>31.799999237061</ele>
        <time>2023-08-09T07:12:35.000Z</time>
      </trkpt>
      <trkpt lat="50.54016" lon="1.78725">
        <ele>31.60000038147</ele>
        <time>2023-08-09T07:12:42.000Z</time>
      </trkpt>
      <trkpt lat="50.53981" lon="1.78694">
        <ele>32.599998474121</ele>
        <time>2023-08-09T07:12:49.000Z</time>
      </trkpt>
      <trkpt lat="50.53957" lon="1.78677">
        <ele>33.400001525879</ele>
        <time>2023-08-09T07:12:54.000Z</time>
      </trkpt>
      <trkpt lat="50.53947" lon="1.78672">
        <ele>33.599998474121</ele>
        <time>2023-08-09T07:12:56.000Z</time>
      </trkpt>
      <trkpt lat="50.53941" lon="1.7867">
        <ele>33.599998474121</ele>
        <time>2023-08-09T07:12:57.000Z</time>
      </trkpt>
      <trkpt lat="50.53912" lon="1.78665">
        <ele>34</ele>
        <time>2023-08-09T07:13:02.000Z</time>
      </trkpt>
      <trkpt lat="50.53889" lon="1.78659">
        <ele>34</ele>
        <time>2023-08-09T07:13:06.000Z</time>
      </trkpt>
      <trkpt lat="50.53883" lon="1.78655">
        <ele>33.799999237061</ele>
        <time>2023-08-09T07:13:07.000Z</time>
      </trkpt>
      <trkpt lat="50.53839" lon="1.78619">
        <ele>33.599998474121</ele>
        <time>2023-08-09T07:13:15.000Z</time>
      </trkpt>
      <trkpt lat="50.5379" lon="1.78585">
        <ele>33.799999237061</ele>
        <time>2023-08-09T07:13:24.000Z</time>
      </trkpt>
      <trkpt lat="50.53784" lon="1.78581">
        <ele>33.799999237061</ele>
        <time>2023-08-09T07:13:25.000Z</time>
      </trkpt>
      <trkpt lat="50.53742" lon="1.78559">
        <ele>33.599998474121</ele>
        <time>2023-08-09T07:13:32.000Z</time>
      </trkpt>
      <trkpt lat="50.53709" lon="1.7855">
        <ele>32.799999237061</ele>
        <time>2023-08-09T07:13:37.000Z</time>
      </trkpt>
      <trkpt lat="50.53696" lon="1.78546">
        <ele>32.200000762939</ele>
        <time>2023-08-09T07:13:39.000Z</time>
      </trkpt>
      <trkpt lat="50.53658" lon="1.78531">
        <ele>31.39999961853</ele>
        <time>2023-08-09T07:13:45.000Z</time>
      </trkpt>
      <trkpt lat="50.53646" lon="1.78525">
        <ele>31.200000762939</ele>
        <time>2023-08-09T07:13:47.000Z</time>
      </trkpt>
      <trkpt lat="50.53613" lon="1.78516">
        <ele>30.60000038147</ele>
        <time>2023-08-09T07:13:52.000Z</time>
      </trkpt>
      <trkpt lat="50.53586" lon="1.78504">
        <ele>30.200000762939</ele>
        <time>2023-08-09T07:13:56.000Z</time>
      </trkpt>
      <trkpt lat="50.53579" lon="1.78499">
        <ele>30</ele>
        <time>2023-08-09T07:13:57.000Z</time>
      </trkpt>
      <trkpt lat="50.53538" lon="1.7846">
        <ele>29.60000038147</ele>
        <time>2023-08-09T07:14:04.000Z</time>
      </trkpt>
      <trkpt lat="50.53506" lon="1.78441">
        <ele>29.60000038147</ele>
        <time>2023-08-09T07:14:09.000Z</time>
      </trkpt>
      <trkpt lat="50.53485" lon="1.78431">
        <ele>29</ele>
        <time>2023-08-09T07:14:12.000Z</time>
      </trkpt>
      <trkpt lat="50.5345" lon="1.78416">
        <ele>28.799999237061</ele>
        <time>2023-08-09T07:14:18.000Z</time>
      </trkpt>
      <trkpt lat="50.53427" lon="1.78408">
        <ele>29.200000762939</ele>
        <time>2023-08-09T07:14:22.000Z</time>
      </trkpt>
      <trkpt lat="50.53404" lon="1.78401">
        <ele>30</ele>
        <time>2023-08-09T07:14:26.000Z</time>
      </trkpt>
      <trkpt lat="50.53393" lon="1.78397">
        <ele>30.200000762939</ele>
        <time>2023-08-09T07:14:28.000Z</time>
      </trkpt>
      <trkpt lat="50.53359" lon="1.78385">
        <ele>30.60000038147</ele>
        <time>2023-08-09T07:14:34.000Z</time>
      </trkpt>
      <trkpt lat="50.53309" lon="1.78367">
        <ele>30.799999237061</ele>
        <time>2023-08-09T07:14:43.000Z</time>
      </trkpt>
      <trkpt lat="50.53253" lon="1.78351">
        <ele>30.799999237061</ele>
        <time>2023-08-09T07:14:53.000Z</time>
      </trkpt>
      <trkpt lat="50.53241" lon="1.7835">
        <ele>30.799999237061</ele>
        <time>2023-08-09T07:14:55.000Z</time>
      </trkpt>
      <trkpt lat="50.53225" lon="1.78343">
        <ele>30.799999237061</ele>
        <time>2023-08-09T07:14:58.000Z</time>
      </trkpt>
      <trkpt lat="50.53195" lon="1.78322">
        <ele>30.799999237061</ele>
        <time>2023-08-09T07:15:04.000Z</time>
      </trkpt>
      <trkpt lat="50.5318" lon="1.78311">
        <ele>31.39999961853</ele>
        <time>2023-08-09T07:15:07.000Z</time>
      </trkpt>
      <trkpt lat="50.53157" lon="1.78293">
        <ele>32.200000762939</ele>
        <time>2023-08-09T07:15:12.000Z</time>
      </trkpt>
      <trkpt lat="50.53147" lon="1.78287">
        <ele>32.400001525879</ele>
        <time>2023-08-09T07:15:14.000Z</time>
      </trkpt>
      <trkpt lat="50.53133" lon="1.78281">
        <ele>32.799999237061</ele>
        <time>2023-08-09T07:15:17.000Z</time>
      </trkpt>
      <trkpt lat="50.53082" lon="1.78262">
        <ele>33.200000762939</ele>
        <time>2023-08-09T07:15:27.000Z</time>
      </trkpt>
      <trkpt lat="50.53072" lon="1.78264">
        <ele>33.200000762939</ele>
        <time>2023-08-09T07:15:29.000Z</time>
      </trkpt>
      <trkpt lat="50.53061" lon="1.78273">
        <ele>33</ele>
        <time>2023-08-09T07:15:31.000Z</time>
      </trkpt>
      <trkpt lat="50.5305" lon="1.7829">
        <ele>32.799999237061</ele>
        <time>2023-08-09T07:15:33.000Z</time>
      </trkpt>
      <trkpt lat="50.53041" lon="1.78305">
        <ele>32.599998474121</ele>
        <time>2023-08-09T07:15:35.000Z</time>
      </trkpt>
      <trkpt lat="50.53034" lon="1.78315">
        <ele>32.200000762939</ele>
        <time>2023-08-09T07:15:36.000Z</time>
      </trkpt>
      <trkpt lat="50.53008" lon="1.78341">
        <ele>30.799999237061</ele>
        <time>2023-08-09T07:15:40.000Z</time>
      </trkpt>
      <trkpt lat="50.52986" lon="1.78359">
        <ele>29.60000038147</ele>
        <time>2023-08-09T07:15:43.000Z</time>
      </trkpt>
      <trkpt lat="50.52952" lon="1.78385">
        <ele>28.39999961853</ele>
        <time>2023-08-09T07:15:48.000Z</time>
      </trkpt>
      <trkpt lat="50.52908" lon="1.78417">
        <ele>27.60000038147</ele>
        <time>2023-08-09T07:15:54.000Z</time>
      </trkpt>
      <trkpt lat="50.52901" lon="1.78422">
        <ele>27.39999961853</ele>
        <time>2023-08-09T07:15:55.000Z</time>
      </trkpt>
      <trkpt lat="50.52854" lon="1.78447">
        <ele>26.799999237061</ele>
        <time>2023-08-09T07:16:01.000Z</time>
      </trkpt>
      <trkpt lat="50.52823" lon="1.78452">
        <ele>26.200000762939</ele>
        <time>2023-08-09T07:16:05.000Z</time>
      </trkpt>
      <trkpt lat="50.52802" lon="1.78453">
        <ele>26.200000762939</ele>
        <time>2023-08-09T07:16:08.000Z</time>
      </trkpt>
      <trkpt lat="50.52745" lon="1.78453">
        <ele>26.200000762939</ele>
        <time>2023-08-09T07:16:16.000Z</time>
      </trkpt>
      <trkpt lat="50.52738" lon="1.78453">
        <ele>26.200000762939</ele>
        <time>2023-08-09T07:16:17.000Z</time>
      </trkpt>
      <trkpt lat="50.52696" lon="1.78453">
        <ele>26.39999961853</ele>
        <time>2023-08-09T07:16:23.000Z</time>
      </trkpt>
      <trkpt lat="50.52676" lon="1.78453">
        <ele>26.39999961853</ele>
        <time>2023-08-09T07:16:26.000Z</time>
      </trkpt>
      <trkpt lat="50.52618" lon="1.78455">
        <ele>25.799999237061</ele>
        <time>2023-08-09T07:16:34.000Z</time>
      </trkpt>
      <trkpt lat="50.52598" lon="1.78455">
        <ele>25.799999237061</ele>
        <time>2023-08-09T07:16:37.000Z</time>
      </trkpt>
      <trkpt lat="50.52541" lon="1.78456">
        <ele>25.39999961853</ele>
        <time>2023-08-09T07:16:45.000Z</time>
      </trkpt>
      <trkpt lat="50.52527" lon="1.78457">
        <ele>25.39999961853</ele>
        <time>2023-08-09T07:16:47.000Z</time>
      </trkpt>
      <trkpt lat="50.52477" lon="1.78456">
        <ele>25.200000762939</ele>
        <time>2023-08-09T07:16:54.000Z</time>
      </trkpt>
      <trkpt lat="50.52463" lon="1.78456">
        <ele>25.200000762939</ele>
        <time>2023-08-09T07:16:56.000Z</time>
      </trkpt>
      <trkpt lat="50.52413" lon="1.78449">
        <ele>25.200000762939</ele>
        <time>2023-08-09T07:17:03.000Z</time>
      </trkpt>
      <trkpt lat="50.52386" lon="1.78438">
        <ele>25.799999237061</ele>
        <time>2023-08-09T07:17:08.000Z</time>
      </trkpt>
      <trkpt lat="50.52365" lon="1.78429">
        <ele>26.39999961853</ele>
        <time>2023-08-09T07:17:12.000Z</time>
      </trkpt>
      <trkpt lat="50.52361" lon="1.78428">
        <ele>26.39999961853</ele>
        <time>2023-08-09T07:17:13.000Z</time>
      </trkpt>
      <trkpt lat="50.52341" lon="1.7842">
        <ele>27.39999961853</ele>
        <time>2023-08-09T07:17:17.000Z</time>
      </trkpt>
      <trkpt lat="50.52332" lon="1.78419">
        <ele>28.39999961853</ele>
        <time>2023-08-09T07:17:19.000Z</time>
      </trkpt>
      <trkpt lat="50.52327" lon="1.78419">
        <ele>28.39999961853</ele>
        <time>2023-08-09T07:17:20.000Z</time>
      </trkpt>
      <trkpt lat="50.52292" lon="1.78424">
        <ele>29.200000762939</ele>
        <time>2023-08-09T07:17:27.000Z</time>
      </trkpt>
      <trkpt lat="50.5228" lon="1.78429">
        <ele>29.200000762939</ele>
        <time>2023-08-09T07:17:29.000Z</time>
      </trkpt>
      <trkpt lat="50.52266" lon="1.78437">
        <ele>29.200000762939</ele>
        <time>2023-08-09T07:17:31.000Z</time>
      </trkpt>
      <trkpt lat="50.52261" lon="1.78439">
        <ele>29</ele>
        <time>2023-08-09T07:17:32.000Z</time>
      </trkpt>
      <trkpt lat="50.52232" lon="1.78449">
        <ele>28.200000762939</ele>
        <time>2023-08-09T07:17:36.000Z</time>
      </trkpt>
      <trkpt lat="50.52217" lon="1.7845">
        <ele>27.39999961853</ele>
        <time>2023-08-09T07:17:38.000Z</time>
      </trkpt>
      <trkpt lat="50.52187" lon="1.78451">
        <ele>26.39999961853</ele>
        <time>2023-08-09T07:17:42.000Z</time>
      </trkpt>
      <trkpt lat="50.52144" lon="1.78453">
        <ele>25.39999961853</ele>
        <time>2023-08-09T07:17:48.000Z</time>
      </trkpt>
      <trkpt lat="50.52122" lon="1.78456">
        <ele>25</ele>
        <time>2023-08-09T07:17:51.000Z</time>
      </trkpt>
      <trkpt lat="50.52081" lon="1.78462">
        <ele>24.200000762939</ele>
        <time>2023-08-09T07:17:57.000Z</time>
      </trkpt>
      <trkpt lat="50.52074" lon="1.78463">
        <ele>24.200000762939</ele>
        <time>2023-08-09T07:17:58.000Z</time>
      </trkpt>
      <trkpt lat="50.52068" lon="1.78463">
        <ele>24.200000762939</ele>
        <time>2023-08-09T07:17:59.000Z</time>
      </trkpt>
      <trkpt lat="50.52056" lon="1.78461">
        <ele>24.200000762939</ele>
        <time>2023-08-09T07:18:01.000Z</time>
      </trkpt>
      <trkpt lat="50.52044" lon="1.78457">
        <ele>24</ele>
        <time>2023-08-09T07:18:03.000Z</time>
      </trkpt>
      <trkpt lat="50.52029" lon="1.78443">
        <ele>24.39999961853</ele>
        <time>2023-08-09T07:18:07.000Z</time>
      </trkpt>
      <trkpt lat="50.52026" lon="1.78439">
        <ele>24.39999961853</ele>
        <time>2023-08-09T07:18:08.000Z</time>
      </trkpt>
      <trkpt lat="50.52015" lon="1.78428">
        <ele>25.39999961853</ele>
        <time>2023-08-09T07:18:11.000Z</time>
      </trkpt>
      <trkpt lat="50.52007" lon="1.78423">
        <ele>25.799999237061</ele>
        <time>2023-08-09T07:18:13.000Z</time>
      </trkpt>
      <trkpt lat="50.52002" lon="1.7842">
        <ele>26</ele>
        <time>2023-08-09T07:18:14.000Z</time>
      </trkpt>
      <trkpt lat="50.5199" lon="1.78419">
        <ele>26.200000762939</ele>
        <time>2023-08-09T07:18:17.000Z</time>
      </trkpt>
      <trkpt lat="50.51985" lon="1.7842">
        <ele>26.39999961853</ele>
        <time>2023-08-09T07:18:18.000Z</time>
      </trkpt>
      <trkpt lat="50.5198" lon="1.78421">
        <ele>26.39999961853</ele>
        <time>2023-08-09T07:18:19.000Z</time>
      </trkpt>
      <trkpt lat="50.51958" lon="1.78431">
        <ele>26.200000762939</ele>
        <time>2023-08-09T07:18:23.000Z</time>
      </trkpt>
      <trkpt lat="50.51922" lon="1.78452">
        <ele>25.39999961853</ele>
        <time>2023-08-09T07:18:29.000Z</time>
      </trkpt>
      <trkpt lat="50.51916" lon="1.78457">
        <ele>24.799999237061</ele>
        <time>2023-08-09T07:18:30.000Z</time>
      </trkpt>
      <trkpt lat="50.51898" lon="1.78474">
        <ele>24</ele>
        <time>2023-08-09T07:18:33.000Z</time>
      </trkpt>
      <trkpt lat="50.51886" lon="1.78486">
        <ele>23.39999961853</ele>
        <time>2023-08-09T07:18:35.000Z</time>
      </trkpt>
      <trkpt lat="50.51874" lon="1.785">
        <ele>23.200000762939</ele>
        <time>2023-08-09T07:18:37.000Z</time>
      </trkpt>
      <trkpt lat="50.51858" lon="1.78515">
        <ele>22.799999237061</ele>
        <time>2023-08-09T07:18:40.000Z</time>
      </trkpt>
      <trkpt lat="50.51844" lon="1.78524">
        <ele>22.799999237061</ele>
        <time>2023-08-09T07:18:42.000Z</time>
      </trkpt>
      <trkpt lat="50.51813" lon="1.78533">
        <ele>22.200000762939</ele>
        <time>2023-08-09T07:18:47.000Z</time>
      </trkpt>
      <trkpt lat="50.51775" lon="1.7853">
        <ele>21.799999237061</ele>
        <time>2023-08-09T07:18:53.000Z</time>
      </trkpt>
      <trkpt lat="50.51757" lon="1.78527">
        <ele>21.799999237061</ele>
        <time>2023-08-09T07:18:56.000Z</time>
      </trkpt>
      <trkpt lat="50.51716" lon="1.7852">
        <ele>21.60000038147</ele>
        <time>2023-08-09T07:19:03.000Z</time>
      </trkpt>
      <trkpt lat="50.51668" lon="1.78517">
        <ele>21.60000038147</ele>
        <time>2023-08-09T07:19:11.000Z</time>
      </trkpt>
      <trkpt lat="50.51627" lon="1.78538">
        <ele>21.39999961853</ele>
        <time>2023-08-09T07:19:18.000Z</time>
      </trkpt>
      <trkpt lat="50.51576" lon="1.78578">
        <ele>20.799999237061</ele>
        <time>2023-08-09T07:19:27.000Z</time>
      </trkpt>
      <trkpt lat="50.5157" lon="1.78582">
        <ele>20.799999237061</ele>
        <time>2023-08-09T07:19:28.000Z</time>
      </trkpt>
      <trkpt lat="50.51553" lon="1.78596">
        <ele>20.60000038147</ele>
        <time>2023-08-09T07:19:31.000Z</time>
      </trkpt>
      <trkpt lat="50.51501" lon="1.78636">
        <ele>20</ele>
        <time>2023-08-09T07:19:40.000Z</time>
      </trkpt>
      <trkpt lat="50.5149" lon="1.78645">
        <ele>20</ele>
        <time>2023-08-09T07:19:42.000Z</time>
      </trkpt>
      <trkpt lat="50.51444" lon="1.78678">
        <ele>19.799999237061</ele>
        <time>2023-08-09T07:19:50.000Z</time>
      </trkpt>
      <trkpt lat="50.51439" lon="1.78683">
        <ele>19.799999237061</ele>
        <time>2023-08-09T07:19:51.000Z</time>
      </trkpt>
      <trkpt lat="50.5139" lon="1.78721">
        <ele>19.60000038147</ele>
        <time>2023-08-09T07:20:00.000Z</time>
      </trkpt>
      <trkpt lat="50.51383" lon="1.78726">
        <ele>19.60000038147</ele>
        <time>2023-08-09T07:20:01.000Z</time>
      </trkpt>
      <trkpt lat="50.51374" lon="1.78732">
        <ele>19.60000038147</ele>
        <time>2023-08-09T07:20:03.000Z</time>
      </trkpt>
      <trkpt lat="50.51364" lon="1.78739">
        <ele>19.39999961853</ele>
        <time>2023-08-09T07:20:05.000Z</time>
      </trkpt>
      <trkpt lat="50.51358" lon="1.78741">
        <ele>19.39999961853</ele>
        <time>2023-08-09T07:20:06.000Z</time>
      </trkpt>
      <trkpt lat="50.51307" lon="1.78757">
        <ele>19.200000762939</ele>
        <time>2023-08-09T07:20:14.000Z</time>
      </trkpt>
      <trkpt lat="50.51281" lon="1.78764">
        <ele>18.60000038147</ele>
        <time>2023-08-09T07:20:18.000Z</time>
      </trkpt>
      <trkpt lat="50.51262" lon="1.78767">
        <ele>18.200000762939</ele>
        <time>2023-08-09T07:20:21.000Z</time>
      </trkpt>
      <trkpt lat="50.51213" lon="1.78771">
        <ele>17.60000038147</ele>
        <time>2023-08-09T07:20:29.000Z</time>
      </trkpt>
      <trkpt lat="50.51207" lon="1.78771">
        <ele>17.39999961853</ele>
        <time>2023-08-09T07:20:30.000Z</time>
      </trkpt>
      <trkpt lat="50.51152" lon="1.78778">
        <ele>17.200000762939</ele>
        <time>2023-08-09T07:20:39.000Z</time>
      </trkpt>
      <trkpt lat="50.51146" lon="1.78779">
        <ele>17.200000762939</ele>
        <time>2023-08-09T07:20:40.000Z</time>
      </trkpt>
      <trkpt lat="50.51091" lon="1.7879">
        <ele>17</ele>
        <time>2023-08-09T07:20:49.000Z</time>
      </trkpt>
      <trkpt lat="50.51085" lon="1.78791">
        <ele>17</ele>
        <time>2023-08-09T07:20:50.000Z</time>
      </trkpt>
      <trkpt lat="50.51039" lon="1.78798">
        <ele>17.200000762939</ele>
        <time>2023-08-09T07:20:58.000Z</time>
      </trkpt>
      <trkpt lat="50.50985" lon="1.78807">
        <ele>17.39999961853</ele>
        <time>2023-08-09T07:21:07.000Z</time>
      </trkpt>
      <trkpt lat="50.50937" lon="1.78819">
        <ele>17.39999961853</ele>
        <time>2023-08-09T07:21:15.000Z</time>
      </trkpt>
      <trkpt lat="50.50924" lon="1.78823">
        <ele>17.39999961853</ele>
        <time>2023-08-09T07:21:17.000Z</time>
      </trkpt>
      <trkpt lat="50.50896" lon="1.78831">
        <ele>17.39999961853</ele>
        <time>2023-08-09T07:21:22.000Z</time>
      </trkpt>
      <trkpt lat="50.50838" lon="1.78846">
        <ele>17.39999961853</ele>
        <time>2023-08-09T07:21:32.000Z</time>
      </trkpt>
      <trkpt lat="50.50831" lon="1.78847">
        <ele>17.39999961853</ele>
        <time>2023-08-09T07:21:33.000Z</time>
      </trkpt>
      <trkpt lat="50.50775" lon="1.7885">
        <ele>17.60000038147</ele>
        <time>2023-08-09T07:21:43.000Z</time>
      </trkpt>
      <trkpt lat="50.50719" lon="1.7885">
        <ele>17.60000038147</ele>
        <time>2023-08-09T07:21:53.000Z</time>
      </trkpt>
      <trkpt lat="50.50713" lon="1.78849">
        <ele>17.60000038147</ele>
        <time>2023-08-09T07:21:54.000Z</time>
      </trkpt>
      <trkpt lat="50.50657" lon="1.78834">
        <ele>17.799999237061</ele>
        <time>2023-08-09T07:22:04.000Z</time>
      </trkpt>
      <trkpt lat="50.50608" lon="1.78816">
        <ele>18</ele>
        <time>2023-08-09T07:22:14.000Z</time>
      </trkpt>
      <trkpt lat="50.50565" lon="1.78801">
        <ele>18.200000762939</ele>
        <time>2023-08-09T07:22:22.000Z</time>
      </trkpt>
      <trkpt lat="50.50544" lon="1.78793">
        <ele>18</ele>
        <time>2023-08-09T07:22:26.000Z</time>
      </trkpt>
      <trkpt lat="50.50534" lon="1.78782">
        <ele>18</ele>
        <time>2023-08-09T07:22:28.000Z</time>
      </trkpt>
      <trkpt lat="50.50533" lon="1.78761">
        <ele>17.799999237061</ele>
        <time>2023-08-09T07:22:31.000Z</time>
      </trkpt>
      <trkpt lat="50.50529" lon="1.78746">
        <ele>17.799999237061</ele>
        <time>2023-08-09T07:22:33.000Z</time>
      </trkpt>
      <trkpt lat="50.50523" lon="1.78733">
        <ele>17.799999237061</ele>
        <time>2023-08-09T07:22:35.000Z</time>
      </trkpt>
      <trkpt lat="50.50497" lon="1.78686">
        <ele>18.39999961853</ele>
        <time>2023-08-09T07:22:43.000Z</time>
      </trkpt>
      <trkpt lat="50.50494" lon="1.7868">
        <ele>18.60000038147</ele>
        <time>2023-08-09T07:22:44.000Z</time>
      </trkpt>
      <trkpt lat="50.50491" lon="1.78677">
        <ele>18.60000038147</ele>
        <time>2023-08-09T07:22:45.000Z</time>
      </trkpt>
      <trkpt lat="50.50482" lon="1.78666">
        <ele>19.39999961853</ele>
        <time>2023-08-09T07:22:48.000Z</time>
      </trkpt>
      <trkpt lat="50.50479" lon="1.78664">
        <ele>19.799999237061</ele>
        <time>2023-08-09T07:22:49.000Z</time>
      </trkpt>
      <trkpt lat="50.50466" lon="1.78651">
        <ele>21</ele>
        <time>2023-08-09T07:22:53.000Z</time>
      </trkpt>
      <trkpt lat="50.50461" lon="1.78647">
        <ele>21.200000762939</ele>
        <time>2023-08-09T07:22:55.000Z</time>
      </trkpt>
      <trkpt lat="50.50451" lon="1.7864">
        <ele>22.200000762939</ele>
        <time>2023-08-09T07:22:58.000Z</time>
      </trkpt>
      <trkpt lat="50.50433" lon="1.7863">
        <ele>23.200000762939</ele>
        <time>2023-08-09T07:23:03.000Z</time>
      </trkpt>
      <trkpt lat="50.50429" lon="1.78628">
        <ele>23.200000762939</ele>
        <time>2023-08-09T07:23:04.000Z</time>
      </trkpt>
      <trkpt lat="50.50401" lon="1.78617">
        <ele>23.799999237061</ele>
        <time>2023-08-09T07:23:11.000Z</time>
      </trkpt>
      <trkpt lat="50.50383" lon="1.78611">
        <ele>24.39999961853</ele>
        <time>2023-08-09T07:23:15.000Z</time>
      </trkpt>
      <trkpt lat="50.50365" lon="1.78604">
        <ele>24.39999961853</ele>
        <time>2023-08-09T07:23:19.000Z</time>
      </trkpt>
      <trkpt lat="50.50324" lon="1.78582">
        <ele>24.799999237061</ele>
        <time>2023-08-09T07:23:28.000Z</time>
      </trkpt>
      <trkpt lat="50.503" lon="1.78559">
        <ele>25.200000762939</ele>
        <time>2023-08-09T07:23:34.000Z</time>
      </trkpt>
      <trkpt lat="50.50296" lon="1.78554">
        <ele>25.200000762939</ele>
        <time>2023-08-09T07:23:35.000Z</time>
      </trkpt>
      <trkpt lat="50.50285" lon="1.78542">
        <ele>25.39999961853</ele>
        <time>2023-08-09T07:23:38.000Z</time>
      </trkpt>
      <trkpt lat="50.50269" lon="1.78515">
        <ele>26.200000762939</ele>
        <time>2023-08-09T07:23:44.000Z</time>
      </trkpt>
      <trkpt lat="50.50266" lon="1.7851">
        <ele>26.39999961853</ele>
        <time>2023-08-09T07:23:45.000Z</time>
      </trkpt>
      <trkpt lat="50.50254" lon="1.78492">
        <ele>27.60000038147</ele>
        <time>2023-08-09T07:23:50.000Z</time>
      </trkpt>
      <trkpt lat="50.50251" lon="1.78488">
        <ele>27.799999237061</ele>
        <time>2023-08-09T07:23:51.000Z</time>
      </trkpt>
      <trkpt lat="50.50243" lon="1.78476">
        <ele>28.60000038147</ele>
        <time>2023-08-09T07:23:54.000Z</time>
      </trkpt>
      <trkpt lat="50.50233" lon="1.78468">
        <ele>29.39999961853</ele>
        <time>2023-08-09T07:23:57.000Z</time>
      </trkpt>
      <trkpt lat="50.50229" lon="1.78465">
        <ele>29.60000038147</ele>
        <time>2023-08-09T07:23:58.000Z</time>
      </trkpt>
      <trkpt lat="50.50203" lon="1.78449">
        <ele>30.200000762939</ele>
        <time>2023-08-09T07:24:04.000Z</time>
      </trkpt>
      <trkpt lat="50.5019" lon="1.7844">
        <ele>30.39999961853</ele>
        <time>2023-08-09T07:24:07.000Z</time>
      </trkpt>
      <trkpt lat="50.50178" lon="1.78429">
        <ele>30.39999961853</ele>
        <time>2023-08-09T07:24:10.000Z</time>
      </trkpt>
      <trkpt lat="50.50156" lon="1.78417">
        <ele>30.60000038147</ele>
        <time>2023-08-09T07:24:14.000Z</time>
      </trkpt>
      <trkpt lat="50.50152" lon="1.78413">
        <ele>30.60000038147</ele>
        <time>2023-08-09T07:24:15.000Z</time>
      </trkpt>
      <trkpt lat="50.50137" lon="1.78401">
        <ele>30.60000038147</ele>
        <time>2023-08-09T07:24:18.000Z</time>
      </trkpt>
      <trkpt lat="50.50119" lon="1.78392">
        <ele>30.60000038147</ele>
        <time>2023-08-09T07:24:21.000Z</time>
      </trkpt>
      <trkpt lat="50.5008" lon="1.78358">
        <ele>30.200000762939</ele>
        <time>2023-08-09T07:24:29.000Z</time>
      </trkpt>
      <trkpt lat="50.50032" lon="1.78321">
        <ele>30.200000762939</ele>
        <time>2023-08-09T07:24:39.000Z</time>
      </trkpt>
      <trkpt lat="50.49982" lon="1.7828">
        <ele>30.200000762939</ele>
        <time>2023-08-09T07:24:49.000Z</time>
      </trkpt>
      <trkpt lat="50.49979" lon="1.78276">
        <ele>30</ele>
        <time>2023-08-09T07:24:50.000Z</time>
      </trkpt>
      <trkpt lat="50.49937" lon="1.78238">
        <ele>30.200000762939</ele>
        <time>2023-08-09T07:24:59.000Z</time>
      </trkpt>
      <trkpt lat="50.49913" lon="1.78216">
        <ele>30.200000762939</ele>
        <time>2023-08-09T07:25:04.000Z</time>
      </trkpt>
      <trkpt lat="50.49908" lon="1.78212">
        <ele>30.39999961853</ele>
        <time>2023-08-09T07:25:05.000Z</time>
      </trkpt>
      <trkpt lat="50.49904" lon="1.78206">
        <ele>30.60000038147</ele>
        <time>2023-08-09T07:25:06.000Z</time>
      </trkpt>
      <trkpt lat="50.49862" lon="1.78168">
        <ele>30.60000038147</ele>
        <time>2023-08-09T07:25:15.000Z</time>
      </trkpt>
      <trkpt lat="50.49812" lon="1.78124">
        <ele>31</ele>
        <time>2023-08-09T07:25:26.000Z</time>
      </trkpt>
      <trkpt lat="50.49806" lon="1.7812">
        <ele>31</ele>
        <time>2023-08-09T07:25:27.000Z</time>
      </trkpt>
      <trkpt lat="50.4979" lon="1.78104">
        <ele>31.200000762939</ele>
        <time>2023-08-09T07:25:31.000Z</time>
      </trkpt>
      <trkpt lat="50.49774" lon="1.78089">
        <ele>31.39999961853</ele>
        <time>2023-08-09T07:25:35.000Z</time>
      </trkpt>
      <trkpt lat="50.49751" lon="1.78064">
        <ele>32.400001525879</ele>
        <time>2023-08-09T07:25:41.000Z</time>
      </trkpt>
      <trkpt lat="50.49747" lon="1.7806">
        <ele>32.400001525879</ele>
        <time>2023-08-09T07:25:42.000Z</time>
      </trkpt>
      <trkpt lat="50.49722" lon="1.78025">
        <ele>33.400001525879</ele>
        <time>2023-08-09T07:25:50.000Z</time>
      </trkpt>
      <trkpt lat="50.4972" lon="1.78021">
        <ele>33.400001525879</ele>
        <time>2023-08-09T07:25:51.000Z</time>
      </trkpt>
      <trkpt lat="50.49705" lon="1.78001">
        <ele>34</ele>
        <time>2023-08-09T07:25:56.000Z</time>
      </trkpt>
      <trkpt lat="50.497" lon="1.77994">
        <ele>34.400001525879</ele>
        <time>2023-08-09T07:25:58.000Z</time>
      </trkpt>
      <trkpt lat="50.49687" lon="1.77979">
        <ele>35.599998474121</ele>
        <time>2023-08-09T07:26:03.000Z</time>
      </trkpt>
      <trkpt lat="50.49685" lon="1.77976">
        <ele>35.799999237061</ele>
        <time>2023-08-09T07:26:04.000Z</time>
      </trkpt>
      <trkpt lat="50.49676" lon="1.77969">
        <ele>37</ele>
        <time>2023-08-09T07:26:07.000Z</time>
      </trkpt>
      <trkpt lat="50.49665" lon="1.77962">
        <ele>37.799999237061</ele>
        <time>2023-08-09T07:26:11.000Z</time>
      </trkpt>
      <trkpt lat="50.49663" lon="1.77961">
        <ele>38.200000762939</ele>
        <time>2023-08-09T07:26:12.000Z</time>
      </trkpt>
      <trkpt lat="50.49652" lon="1.77953">
        <ele>39.400001525879</ele>
        <time>2023-08-09T07:26:16.000Z</time>
      </trkpt>
      <trkpt lat="50.49649" lon="1.77951">
        <ele>39.599998474121</ele>
        <time>2023-08-09T07:26:17.000Z</time>
      </trkpt>
      <trkpt lat="50.4964" lon="1.77944">
        <ele>40.400001525879</ele>
        <time>2023-08-09T07:26:20.000Z</time>
      </trkpt>
      <trkpt lat="50.4963" lon="1.77934">
        <ele>40.799999237061</ele>
        <time>2023-08-09T07:26:23.000Z</time>
      </trkpt>
      <trkpt lat="50.49611" lon="1.77912">
        <ele>40.799999237061</ele>
        <time>2023-08-09T07:26:28.000Z</time>
      </trkpt>
      <trkpt lat="50.4958" lon="1.77879">
        <ele>40.400001525879</ele>
        <time>2023-08-09T07:26:34.000Z</time>
      </trkpt>
      <trkpt lat="50.49565" lon="1.77861">
        <ele>39.400001525879</ele>
        <time>2023-08-09T07:26:37.000Z</time>
      </trkpt>
      <trkpt lat="50.49549" lon="1.77843">
        <ele>38.599998474121</ele>
        <time>2023-08-09T07:26:40.000Z</time>
      </trkpt>
      <trkpt lat="50.49527" lon="1.77819">
        <ele>38.400001525879</ele>
        <time>2023-08-09T07:26:45.000Z</time>
      </trkpt>
      <trkpt lat="50.49523" lon="1.77814">
        <ele>38.400001525879</ele>
        <time>2023-08-09T07:26:46.000Z</time>
      </trkpt>
      <trkpt lat="50.49499" lon="1.77787">
        <ele>38.400001525879</ele>
        <time>2023-08-09T07:26:52.000Z</time>
      </trkpt>
      <trkpt lat="50.49495" lon="1.77783">
        <ele>38.400001525879</ele>
        <time>2023-08-09T07:26:53.000Z</time>
      </trkpt>
      <trkpt lat="50.49484" lon="1.77771">
        <ele>38.799999237061</ele>
        <time>2023-08-09T07:26:56.000Z</time>
      </trkpt>
      <trkpt lat="50.4946" lon="1.77738">
        <ele>39.400001525879</ele>
        <time>2023-08-09T07:27:03.000Z</time>
      </trkpt>
      <trkpt lat="50.49457" lon="1.77732">
        <ele>39.400001525879</ele>
        <time>2023-08-09T07:27:04.000Z</time>
      </trkpt>
      <trkpt lat="50.49453" lon="1.77726">
        <ele>39.599998474121</ele>
        <time>2023-08-09T07:27:05.000Z</time>
      </trkpt>
      <trkpt lat="50.49425" lon="1.7768">
        <ele>39.599998474121</ele>
        <time>2023-08-09T07:27:13.000Z</time>
      </trkpt>
      <trkpt lat="50.49421" lon="1.77674">
        <ele>39.599998474121</ele>
        <time>2023-08-09T07:27:14.000Z</time>
      </trkpt>
      <trkpt lat="50.49391" lon="1.77629">
        <ele>39.200000762939</ele>
        <time>2023-08-09T07:27:21.000Z</time>
      </trkpt>
      <trkpt lat="50.49365" lon="1.77587">
        <ele>38.599998474121</ele>
        <time>2023-08-09T07:27:27.000Z</time>
      </trkpt>
      <trkpt lat="50.49362" lon="1.7758">
        <ele>38.599998474121</ele>
        <time>2023-08-09T07:27:28.000Z</time>
      </trkpt>
      <trkpt lat="50.49348" lon="1.77552">
        <ele>38.400001525879</ele>
        <time>2023-08-09T07:27:32.000Z</time>
      </trkpt>
      <trkpt lat="50.49334" lon="1.77525">
        <ele>38.400001525879</ele>
        <time>2023-08-09T07:27:36.000Z</time>
      </trkpt>
      <trkpt lat="50.49301" lon="1.77459">
        <ele>38.799999237061</ele>
        <time>2023-08-09T07:27:46.000Z</time>
      </trkpt>
      <trkpt lat="50.4927" lon="1.77395">
        <ele>39.400001525879</ele>
        <time>2023-08-09T07:27:56.000Z</time>
      </trkpt>
      <trkpt lat="50.4924" lon="1.77335">
        <ele>40.599998474121</ele>
        <time>2023-08-09T07:28:06.000Z</time>
      </trkpt>
      <trkpt lat="50.49223" lon="1.77302">
        <ele>41.400001525879</ele>
        <time>2023-08-09T07:28:13.000Z</time>
      </trkpt>
      <trkpt lat="50.4922" lon="1.77297">
        <ele>41.599998474121</ele>
        <time>2023-08-09T07:28:14.000Z</time>
      </trkpt>
      <trkpt lat="50.49205" lon="1.7727">
        <ele>42.599998474121</ele>
        <time>2023-08-09T07:28:20.000Z</time>
      </trkpt>
      <trkpt lat="50.49203" lon="1.77267">
        <ele>42.599998474121</ele>
        <time>2023-08-09T07:28:21.000Z</time>
      </trkpt>
      <trkpt lat="50.49185" lon="1.77238">
        <ele>43.400001525879</ele>
        <time>2023-08-09T07:28:28.000Z</time>
      </trkpt>
      <trkpt lat="50.4918" lon="1.7723">
        <ele>43.799999237061</ele>
        <time>2023-08-09T07:28:30.000Z</time>
      </trkpt>
      <trkpt lat="50.49172" lon="1.77217">
        <ele>44.200000762939</ele>
        <time>2023-08-09T07:28:33.000Z</time>
      </trkpt>
      <trkpt lat="50.49165" lon="1.7721">
        <ele>44.599998474121</ele>
        <time>2023-08-09T07:28:35.000Z</time>
      </trkpt>
      <trkpt lat="50.49159" lon="1.77202">
        <ele>44.799999237061</ele>
        <time>2023-08-09T07:28:37.000Z</time>
      </trkpt>
      <trkpt lat="50.49143" lon="1.77186">
        <ele>45.200000762939</ele>
        <time>2023-08-09T07:28:41.000Z</time>
      </trkpt>
      <trkpt lat="50.4912" lon="1.77162">
        <ele>45</ele>
        <time>2023-08-09T07:28:46.000Z</time>
      </trkpt>
      <trkpt lat="50.4908" lon="1.77122">
        <ele>44.200000762939</ele>
        <time>2023-08-09T07:28:54.000Z</time>
      </trkpt>
      <trkpt lat="50.49066" lon="1.77106">
        <ele>43.599998474121</ele>
        <time>2023-08-09T07:28:57.000Z</time>
      </trkpt>
      <trkpt lat="50.49035" lon="1.77068">
        <ele>43.400001525879</ele>
        <time>2023-08-09T07:29:04.000Z</time>
      </trkpt>
      <trkpt lat="50.49" lon="1.77014">
        <ele>43.200000762939</ele>
        <time>2023-08-09T07:29:13.000Z</time>
      </trkpt>
      <trkpt lat="50.48965" lon="1.76951">
        <ele>43.799999237061</ele>
        <time>2023-08-09T07:29:23.000Z</time>
      </trkpt>
      <trkpt lat="50.48953" lon="1.76926">
        <ele>44.400001525879</ele>
        <time>2023-08-09T07:29:28.000Z</time>
      </trkpt>
      <trkpt lat="50.48952" lon="1.76924">
        <ele>44.400001525879</ele>
        <time>2023-08-09T07:29:29.000Z</time>
      </trkpt>
      <trkpt lat="50.48952" lon="1.76923">
        <ele>44.599998474121</ele>
        <time>2023-08-09T07:29:30.000Z</time>
      </trkpt>
      <trkpt lat="50.48952" lon="1.76923">
        <ele>45</ele>
        <time>2023-08-09T07:29:32.000Z</time>
      </trkpt>
      <trkpt lat="50.48951" lon="1.76916">
        <ele>45.799999237061</ele>
        <time>2023-08-09T07:29:37.000Z</time>
      </trkpt>
      <trkpt lat="50.48948" lon="1.76908">
        <ele>45.799999237061</ele>
        <time>2023-08-09T07:29:38.000Z</time>
      </trkpt>
      <trkpt lat="50.48941" lon="1.76901">
        <ele>45.799999237061</ele>
        <time>2023-08-09T07:29:40.000Z</time>
      </trkpt>
      <trkpt lat="50.48914" lon="1.7688">
        <ele>45.400001525879</ele>
        <time>2023-08-09T07:29:45.000Z</time>
      </trkpt>
      <trkpt lat="50.48895" lon="1.76865">
        <ele>44.799999237061</ele>
        <time>2023-08-09T07:29:48.000Z</time>
      </trkpt>
      <trkpt lat="50.48882" lon="1.76853">
        <ele>43.400001525879</ele>
        <time>2023-08-09T07:29:51.000Z</time>
      </trkpt>
      <trkpt lat="50.48868" lon="1.76841">
        <ele>43.200000762939</ele>
        <time>2023-08-09T07:29:52.000Z</time>
      </trkpt>
      <trkpt lat="50.48853" lon="1.76827">
        <ele>42.200000762939</ele>
        <time>2023-08-09T07:29:54.000Z</time>
      </trkpt>
      <trkpt lat="50.4883" lon="1.76806">
        <ele>41</ele>
        <time>2023-08-09T07:29:57.000Z</time>
      </trkpt>
      <trkpt lat="50.48815" lon="1.76793">
        <ele>40.400001525879</ele>
        <time>2023-08-09T07:29:59.000Z</time>
      </trkpt>
      <trkpt lat="50.488" lon="1.76778">
        <ele>40</ele>
        <time>2023-08-09T07:30:01.000Z</time>
      </trkpt>
      <trkpt lat="50.48768" lon="1.76747">
        <ele>38.799999237061</ele>
        <time>2023-08-09T07:30:05.000Z</time>
      </trkpt>
      <trkpt lat="50.4876" lon="1.76739">
        <ele>38.200000762939</ele>
        <time>2023-08-09T07:30:06.000Z</time>
      </trkpt>
      <trkpt lat="50.48743" lon="1.76723">
        <ele>37.400001525879</ele>
        <time>2023-08-09T07:30:08.000Z</time>
      </trkpt>
      <trkpt lat="50.48718" lon="1.76698">
        <ele>36.200000762939</ele>
        <time>2023-08-09T07:30:11.000Z</time>
      </trkpt>
      <trkpt lat="50.48701" lon="1.76681">
        <ele>35.400001525879</ele>
        <time>2023-08-09T07:30:13.000Z</time>
      </trkpt>
      <trkpt lat="50.48685" lon="1.76665">
        <ele>34.599998474121</ele>
        <time>2023-08-09T07:30:15.000Z</time>
      </trkpt>
      <trkpt lat="50.48661" lon="1.76641">
        <ele>33.599998474121</ele>
        <time>2023-08-09T07:30:18.000Z</time>
      </trkpt>
      <trkpt lat="50.48629" lon="1.7661">
        <ele>32.400001525879</ele>
        <time>2023-08-09T07:30:22.000Z</time>
      </trkpt>
      <trkpt lat="50.48613" lon="1.76594">
        <ele>31.200000762939</ele>
        <time>2023-08-09T07:30:25.000Z</time>
      </trkpt>
      <trkpt lat="50.48582" lon="1.76563">
        <ele>30.200000762939</ele>
        <time>2023-08-09T07:30:28.000Z</time>
      </trkpt>
      <trkpt lat="50.48558" lon="1.76541">
        <ele>29</ele>
        <time>2023-08-09T07:30:32.000Z</time>
      </trkpt>
      <trkpt lat="50.48527" lon="1.76511">
        <ele>28</ele>
        <time>2023-08-09T07:30:35.000Z</time>
      </trkpt>
      <trkpt lat="50.48497" lon="1.76481">
        <ele>26.60000038147</ele>
        <time>2023-08-09T07:30:39.000Z</time>
      </trkpt>
      <trkpt lat="50.48475" lon="1.76459">
        <ele>25.60000038147</ele>
        <time>2023-08-09T07:30:43.000Z</time>
      </trkpt>
      <trkpt lat="50.48437" lon="1.76426">
        <ele>24.60000038147</ele>
        <time>2023-08-09T07:30:47.000Z</time>
      </trkpt>
      <trkpt lat="50.4842" lon="1.76414">
        <ele>24.39999961853</ele>
        <time>2023-08-09T07:30:49.000Z</time>
      </trkpt>
      <trkpt lat="50.48393" lon="1.76397">
        <ele>23.39999961853</ele>
        <time>2023-08-09T07:30:52.000Z</time>
      </trkpt>
      <trkpt lat="50.48374" lon="1.76387">
        <ele>22.799999237061</ele>
        <time>2023-08-09T07:30:54.000Z</time>
      </trkpt>
      <trkpt lat="50.48364" lon="1.76384">
        <ele>22</ele>
        <time>2023-08-09T07:30:56.000Z</time>
      </trkpt>
      <trkpt lat="50.48345" lon="1.76377">
        <ele>21</ele>
        <time>2023-08-09T07:30:58.000Z</time>
      </trkpt>
      <trkpt lat="50.48322" lon="1.76372">
        <ele>20</ele>
        <time>2023-08-09T07:31:00.000Z</time>
      </trkpt>
      <trkpt lat="50.483" lon="1.76369">
        <ele>19.200000762939</ele>
        <time>2023-08-09T07:31:01.000Z</time>
      </trkpt>
      <trkpt lat="50.48279" lon="1.76368">
        <ele>17.799999237061</ele>
        <time>2023-08-09T07:31:03.000Z</time>
      </trkpt>
      <trkpt lat="50.48268" lon="1.76369">
        <ele>16.39999961853</ele>
        <time>2023-08-09T07:31:05.000Z</time>
      </trkpt>
      <trkpt lat="50.48247" lon="1.76371">
        <ele>15.39999961853</ele>
        <time>2023-08-09T07:31:07.000Z</time>
      </trkpt>
      <trkpt lat="50.48228" lon="1.76374">
        <ele>13.60000038147</ele>
        <time>2023-08-09T07:31:09.000Z</time>
      </trkpt>
      <trkpt lat="50.48221" lon="1.76375">
        <ele>13</ele>
        <time>2023-08-09T07:31:10.000Z</time>
      </trkpt>
      <trkpt lat="50.48202" lon="1.76378">
        <ele>12.39999961853</ele>
        <time>2023-08-09T07:31:11.000Z</time>
      </trkpt>
      <trkpt lat="50.48188" lon="1.76379">
        <ele>11.39999961853</ele>
        <time>2023-08-09T07:31:14.000Z</time>
      </trkpt>
      <trkpt lat="50.48175" lon="1.76378">
        <ele>10.800000190735</ele>
        <time>2023-08-09T07:31:15.000Z</time>
      </trkpt>
      <trkpt lat="50.48167" lon="1.76374">
        <ele>10.199999809265</ele>
        <time>2023-08-09T07:31:17.000Z</time>
      </trkpt>
      <trkpt lat="50.4816" lon="1.76368">
        <ele>10</ele>
        <time>2023-08-09T07:31:18.000Z</time>
      </trkpt>
      <trkpt lat="50.48141" lon="1.76365">
        <ele>9.8000001907349</ele>
        <time>2023-08-09T07:31:20.000Z</time>
      </trkpt>
      <trkpt lat="50.48133" lon="1.76381">
        <ele>9.1999998092651</ele>
        <time>2023-08-09T07:31:22.000Z</time>
      </trkpt>
      <trkpt lat="50.48133" lon="1.76381">
        <ele>9</ele>
        <time>2023-08-09T07:31:23.000Z</time>
      </trkpt>
      <trkpt lat="50.48129" lon="1.76391">
        <ele>9</ele>
        <time>2023-08-09T07:31:24.000Z</time>
      </trkpt>
      <trkpt lat="50.48108" lon="1.76421">
        <ele>8.3999996185303</ele>
        <time>2023-08-09T07:31:27.000Z</time>
      </trkpt>
      <trkpt lat="50.48108" lon="1.76421">
        <ele>8.1999998092651</ele>
        <time>2023-08-09T07:31:28.000Z</time>
      </trkpt>
      <trkpt lat="50.48055" lon="1.76481">
        <ele>7.8000001907349</ele>
        <time>2023-08-09T07:31:36.000Z</time>
      </trkpt>
      <trkpt lat="50.48038" lon="1.76499">
        <ele>7.8000001907349</ele>
        <time>2023-08-09T07:31:39.000Z</time>
      </trkpt>
      <trkpt lat="50.47993" lon="1.76547">
        <ele>8.1999998092651</ele>
        <time>2023-08-09T07:31:47.000Z</time>
      </trkpt>
      <trkpt lat="50.47987" lon="1.76553">
        <ele>8.1999998092651</ele>
        <time>2023-08-09T07:31:48.000Z</time>
      </trkpt>
      <trkpt lat="50.47938" lon="1.76607">
        <ele>8.1999998092651</ele>
        <time>2023-08-09T07:31:57.000Z</time>
      </trkpt>
      <trkpt lat="50.47932" lon="1.76613">
        <ele>8.1999998092651</ele>
        <time>2023-08-09T07:31:58.000Z</time>
      </trkpt>
      <trkpt lat="50.47883" lon="1.76666">
        <ele>8</ele>
        <time>2023-08-09T07:32:07.000Z</time>
      </trkpt>
      <trkpt lat="50.47837" lon="1.76717">
        <ele>8</ele>
        <time>2023-08-09T07:32:16.000Z</time>
      </trkpt>
      <trkpt lat="50.47832" lon="1.76723">
        <ele>8</ele>
        <time>2023-08-09T07:32:17.000Z</time>
      </trkpt>
      <trkpt lat="50.47784" lon="1.76777">
        <ele>7.8000001907349</ele>
        <time>2023-08-09T07:32:26.000Z</time>
      </trkpt>
      <trkpt lat="50.47779" lon="1.76782">
        <ele>7.8000001907349</ele>
        <time>2023-08-09T07:32:27.000Z</time>
      </trkpt>
      <trkpt lat="50.47732" lon="1.76832">
        <ele>7.8000001907349</ele>
        <time>2023-08-09T07:32:36.000Z</time>
      </trkpt>
      <trkpt lat="50.47727" lon="1.76838">
        <ele>7.8000001907349</ele>
        <time>2023-08-09T07:32:37.000Z</time>
      </trkpt>
      <trkpt lat="50.47717" lon="1.76849">
        <ele>7.5999999046326</ele>
        <time>2023-08-09T07:32:39.000Z</time>
      </trkpt>
      <trkpt lat="50.47689" lon="1.76875">
        <ele>7.5999999046326</ele>
        <time>2023-08-09T07:32:44.000Z</time>
      </trkpt>
      <trkpt lat="50.47662" lon="1.769">
        <ele>7.4000000953674</ele>
        <time>2023-08-09T07:32:49.000Z</time>
      </trkpt>
      <trkpt lat="50.47617" lon="1.76937">
        <ele>7.5999999046326</ele>
        <time>2023-08-09T07:32:57.000Z</time>
      </trkpt>
      <trkpt lat="50.47567" lon="1.76975">
        <ele>7.8000001907349</ele>
        <time>2023-08-09T07:33:06.000Z</time>
      </trkpt>
      <trkpt lat="50.47549" lon="1.76988">
        <ele>8</ele>
        <time>2023-08-09T07:33:09.000Z</time>
      </trkpt>
      <trkpt lat="50.47505" lon="1.77022">
        <ele>8.1999998092651</ele>
        <time>2023-08-09T07:33:17.000Z</time>
      </trkpt>
      <trkpt lat="50.47454" lon="1.7706">
        <ele>8.3999996185303</ele>
        <time>2023-08-09T07:33:26.000Z</time>
      </trkpt>
      <trkpt lat="50.47448" lon="1.77064">
        <ele>8.3999996185303</ele>
        <time>2023-08-09T07:33:27.000Z</time>
      </trkpt>
      <trkpt lat="50.47397" lon="1.77103">
        <ele>7.8000001907349</ele>
        <time>2023-08-09T07:33:36.000Z</time>
      </trkpt>
      <trkpt lat="50.4738" lon="1.77116">
        <ele>7.8000001907349</ele>
        <time>2023-08-09T07:33:39.000Z</time>
      </trkpt>
      <trkpt lat="50.47327" lon="1.77153">
        <ele>7.5999999046326</ele>
        <time>2023-08-09T07:33:48.000Z</time>
      </trkpt>
      <trkpt lat="50.47275" lon="1.77188">
        <ele>7.4000000953674</ele>
        <time>2023-08-09T07:33:57.000Z</time>
      </trkpt>
      <trkpt lat="50.4727" lon="1.77192">
        <ele>7.4000000953674</ele>
        <time>2023-08-09T07:33:58.000Z</time>
      </trkpt>
      <trkpt lat="50.47225" lon="1.77221">
        <ele>7.1999998092651</ele>
        <time>2023-08-09T07:34:06.000Z</time>
      </trkpt>
      <trkpt lat="50.47191" lon="1.77241">
        <ele>7.1999998092651</ele>
        <time>2023-08-09T07:34:12.000Z</time>
      </trkpt>
      <trkpt lat="50.4718" lon="1.77242">
        <ele>7.1999998092651</ele>
        <time>2023-08-09T07:34:14.000Z</time>
      </trkpt>
      <trkpt lat="50.47169" lon="1.7724">
        <ele>7.1999998092651</ele>
        <time>2023-08-09T07:34:16.000Z</time>
      </trkpt>
      <trkpt lat="50.47164" lon="1.77238">
        <ele>7.1999998092651</ele>
        <time>2023-08-09T07:34:17.000Z</time>
      </trkpt>
      <trkpt lat="50.47154" lon="1.77229">
        <ele>7.4000000953674</ele>
        <time>2023-08-09T07:34:19.000Z</time>
      </trkpt>
      <trkpt lat="50.47135" lon="1.77201">
        <ele>7.4000000953674</ele>
        <time>2023-08-09T07:34:24.000Z</time>
      </trkpt>
      <trkpt lat="50.4713" lon="1.77192">
        <ele>7.5999999046326</ele>
        <time>2023-08-09T07:34:26.000Z</time>
      </trkpt>
      <trkpt lat="50.4712" lon="1.7718">
        <ele>7.5999999046326</ele>
        <time>2023-08-09T07:34:31.000Z</time>
      </trkpt>
      <trkpt lat="50.4712" lon="1.77179">
        <ele>7.5999999046326</ele>
        <time>2023-08-09T07:34:35.000Z</time>
      </trkpt>
      <trkpt lat="50.47116" lon="1.77174">
        <ele>7.4000000953674</ele>
        <time>2023-08-09T07:35:49.000Z</time>
      </trkpt>
      <trkpt lat="50.47111" lon="1.77169">
        <ele>7.4000000953674</ele>
        <time>2023-08-09T07:35:51.000Z</time>
      </trkpt>
      <trkpt lat="50.47097" lon="1.7715">
        <ele>7.4000000953674</ele>
        <time>2023-08-09T07:35:56.000Z</time>
      </trkpt>
      <trkpt lat="50.47093" lon="1.77145">
        <ele>7.4000000953674</ele>
        <time>2023-08-09T07:35:57.000Z</time>
      </trkpt>
      <trkpt lat="50.47081" lon="1.7713">
        <ele>7.1999998092651</ele>
        <time>2023-08-09T07:36:00.000Z</time>
      </trkpt>
      <trkpt lat="50.47049" lon="1.77085">
        <ele>7</ele>
        <time>2023-08-09T07:36:09.000Z</time>
      </trkpt>
      <trkpt lat="50.47012" lon="1.77035">
        <ele>7.4000000953674</ele>
        <time>2023-08-09T07:36:17.000Z</time>
      </trkpt>
      <trkpt lat="50.46974" lon="1.76982">
        <ele>7.1999998092651</ele>
        <time>2023-08-09T07:36:26.000Z</time>
      </trkpt>
      <trkpt lat="50.4694" lon="1.76939">
        <ele>7.1999998092651</ele>
        <time>2023-08-09T07:36:34.000Z</time>
      </trkpt>
      <trkpt lat="50.46901" lon="1.76899">
        <ele>7.4000000953674</ele>
        <time>2023-08-09T07:36:42.000Z</time>
      </trkpt>
      <trkpt lat="50.46858" lon="1.76857">
        <ele>7</ele>
        <time>2023-08-09T07:36:51.000Z</time>
      </trkpt>
      <trkpt lat="50.46813" lon="1.76813">
        <ele>7.1999998092651</ele>
        <time>2023-08-09T07:37:01.000Z</time>
      </trkpt>
      <trkpt lat="50.4677" lon="1.76769">
        <ele>7.8000001907349</ele>
        <time>2023-08-09T07:37:11.000Z</time>
      </trkpt>
      <trkpt lat="50.46758" lon="1.76756">
        <ele>8</ele>
        <time>2023-08-09T07:37:14.000Z</time>
      </trkpt>
      <trkpt lat="50.46748" lon="1.7675">
        <ele>8</ele>
        <time>2023-08-09T07:37:16.000Z</time>
      </trkpt>
      <trkpt lat="50.46743" lon="1.76749">
        <ele>8.1999998092651</ele>
        <time>2023-08-09T07:37:17.000Z</time>
      </trkpt>
      <trkpt lat="50.46738" lon="1.7675">
        <ele>8.1999998092651</ele>
        <time>2023-08-09T07:37:18.000Z</time>
      </trkpt>
      <trkpt lat="50.46729" lon="1.76754">
        <ele>8.1999998092651</ele>
        <time>2023-08-09T07:37:20.000Z</time>
      </trkpt>
      <trkpt lat="50.46721" lon="1.76761">
        <ele>8.3999996185303</ele>
        <time>2023-08-09T07:37:22.000Z</time>
      </trkpt>
      <trkpt lat="50.46706" lon="1.76778">
        <ele>9</ele>
        <time>2023-08-09T07:37:27.000Z</time>
      </trkpt>
      <trkpt lat="50.467" lon="1.76784">
        <ele>9.3999996185303</ele>
        <time>2023-08-09T07:37:29.000Z</time>
      </trkpt>
      <trkpt lat="50.46692" lon="1.76792">
        <ele>10</ele>
        <time>2023-08-09T07:37:32.000Z</time>
      </trkpt>
      <trkpt lat="50.46684" lon="1.76801">
        <ele>10.60000038147</ele>
        <time>2023-08-09T07:37:35.000Z</time>
      </trkpt>
      <trkpt lat="50.46676" lon="1.76809">
        <ele>11.199999809265</ele>
        <time>2023-08-09T07:37:38.000Z</time>
      </trkpt>
      <trkpt lat="50.46666" lon="1.76819">
        <ele>12</ele>
        <time>2023-08-09T07:37:42.000Z</time>
      </trkpt>
      <trkpt lat="50.46657" lon="1.76825">
        <ele>12.39999961853</ele>
        <time>2023-08-09T07:37:45.000Z</time>
      </trkpt>
      <trkpt lat="50.46649" lon="1.76827">
        <ele>12.800000190735</ele>
        <time>2023-08-09T07:37:48.000Z</time>
      </trkpt>
      <trkpt lat="50.46643" lon="1.76825">
        <ele>13.39999961853</ele>
        <time>2023-08-09T07:37:50.000Z</time>
      </trkpt>
      <trkpt lat="50.46635" lon="1.76821">
        <ele>14</ele>
        <time>2023-08-09T07:37:53.000Z</time>
      </trkpt>
      <trkpt lat="50.46633" lon="1.76819">
        <ele>14.199999809265</ele>
        <time>2023-08-09T07:37:54.000Z</time>
      </trkpt>
      <trkpt lat="50.46629" lon="1.76812">
        <ele>14.800000190735</ele>
        <time>2023-08-09T07:37:56.000Z</time>
      </trkpt>
      <trkpt lat="50.46621" lon="1.76789">
        <ele>15.800000190735</ele>
        <time>2023-08-09T07:38:01.000Z</time>
      </trkpt>
      <trkpt lat="50.46621" lon="1.76784">
        <ele>15.800000190735</ele>
        <time>2023-08-09T07:38:02.000Z</time>
      </trkpt>
      <trkpt lat="50.4662" lon="1.76764">
        <ele>17.200000762939</ele>
        <time>2023-08-09T07:38:06.000Z</time>
      </trkpt>
      <trkpt lat="50.4662" lon="1.76759">
        <ele>17.39999961853</ele>
        <time>2023-08-09T07:38:07.000Z</time>
      </trkpt>
      <trkpt lat="50.46625" lon="1.76746">
        <ele>18.200000762939</ele>
        <time>2023-08-09T07:38:10.000Z</time>
      </trkpt>
      <trkpt lat="50.46626" lon="1.76742">
        <ele>18.39999961853</ele>
        <time>2023-08-09T07:38:11.000Z</time>
      </trkpt>
      <trkpt lat="50.46631" lon="1.76728">
        <ele>19.200000762939</ele>
        <time>2023-08-09T07:38:15.000Z</time>
      </trkpt>
      <trkpt lat="50.46632" lon="1.76725">
        <ele>19.799999237061</ele>
        <time>2023-08-09T07:38:16.000Z</time>
      </trkpt>
      <trkpt lat="50.46634" lon="1.76721">
        <ele>20.200000762939</ele>
        <time>2023-08-09T07:38:18.000Z</time>
      </trkpt>
      <trkpt lat="50.46645" lon="1.76698">
        <ele>21.200000762939</ele>
        <time>2023-08-09T07:38:24.000Z</time>
      </trkpt>
      <trkpt lat="50.46647" lon="1.76695">
        <ele>21.200000762939</ele>
        <time>2023-08-09T07:38:25.000Z</time>
      </trkpt>
      <trkpt lat="50.46658" lon="1.7668">
        <ele>22.200000762939</ele>
        <time>2023-08-09T07:38:30.000Z</time>
      </trkpt>
      <trkpt lat="50.46662" lon="1.76672">
        <ele>22.60000038147</ele>
        <time>2023-08-09T07:38:32.000Z</time>
      </trkpt>
      <trkpt lat="50.46666" lon="1.76659">
        <ele>23.200000762939</ele>
        <time>2023-08-09T07:38:35.000Z</time>
      </trkpt>
      <trkpt lat="50.46669" lon="1.76641">
        <ele>24.200000762939</ele>
        <time>2023-08-09T07:38:39.000Z</time>
      </trkpt>
      <trkpt lat="50.46669" lon="1.76636">
        <ele>24.39999961853</ele>
        <time>2023-08-09T07:38:40.000Z</time>
      </trkpt>
      <trkpt lat="50.46669" lon="1.76609">
        <ele>25.39999961853</ele>
        <time>2023-08-09T07:38:45.000Z</time>
      </trkpt>
      <trkpt lat="50.4667" lon="1.766">
        <ele>25.60000038147</ele>
        <time>2023-08-09T07:38:47.000Z</time>
      </trkpt>
      <trkpt lat="50.46669" lon="1.76572">
        <ele>26.39999961853</ele>
        <time>2023-08-09T07:38:53.000Z</time>
      </trkpt>
      <trkpt lat="50.46668" lon="1.76567">
        <ele>26.799999237061</ele>
        <time>2023-08-09T07:38:54.000Z</time>
      </trkpt>
      <trkpt lat="50.46665" lon="1.76539">
        <ele>27.60000038147</ele>
        <time>2023-08-09T07:39:00.000Z</time>
      </trkpt>
      <trkpt lat="50.46665" lon="1.76534">
        <ele>27.60000038147</ele>
        <time>2023-08-09T07:39:01.000Z</time>
      </trkpt>
      <trkpt lat="50.46663" lon="1.76506">
        <ele>28.60000038147</ele>
        <time>2023-08-09T07:39:07.000Z</time>
      </trkpt>
      <trkpt lat="50.46661" lon="1.76497">
        <ele>29</ele>
        <time>2023-08-09T07:39:09.000Z</time>
      </trkpt>
      <trkpt lat="50.46657" lon="1.76486">
        <ele>29.60000038147</ele>
        <time>2023-08-09T07:39:12.000Z</time>
      </trkpt>
      <trkpt lat="50.46653" lon="1.76482">
        <ele>29.799999237061</ele>
        <time>2023-08-09T07:39:14.000Z</time>
      </trkpt>
      <trkpt lat="50.46647" lon="1.76467">
        <ele>30</ele>
        <time>2023-08-09T07:39:18.000Z</time>
      </trkpt>
      <trkpt lat="50.46646" lon="1.76461">
        <ele>30.200000762939</ele>
        <time>2023-08-09T07:39:19.000Z</time>
      </trkpt>
      <trkpt lat="50.46646" lon="1.7644">
        <ele>30.60000038147</ele>
        <time>2023-08-09T07:39:23.000Z</time>
      </trkpt>
      <trkpt lat="50.46647" lon="1.7643">
        <ele>31.200000762939</ele>
        <time>2023-08-09T07:39:25.000Z</time>
      </trkpt>
      <trkpt lat="50.46651" lon="1.76417">
        <ele>31.799999237061</ele>
        <time>2023-08-09T07:39:29.000Z</time>
      </trkpt>
      <trkpt lat="50.46658" lon="1.7639">
        <ele>32.799999237061</ele>
        <time>2023-08-09T07:39:35.000Z</time>
      </trkpt>
      <trkpt lat="50.46664" lon="1.76358">
        <ele>34</ele>
        <time>2023-08-09T07:39:41.000Z</time>
      </trkpt>
      <trkpt lat="50.46666" lon="1.76349">
        <ele>34.599998474121</ele>
        <time>2023-08-09T07:39:43.000Z</time>
      </trkpt>
      <trkpt lat="50.46666" lon="1.76345">
        <ele>35</ele>
        <time>2023-08-09T07:39:44.000Z</time>
      </trkpt>
      <trkpt lat="50.4667" lon="1.76326">
        <ele>36</ele>
        <time>2023-08-09T07:39:49.000Z</time>
      </trkpt>
      <trkpt lat="50.46671" lon="1.76322">
        <ele>36.200000762939</ele>
        <time>2023-08-09T07:39:50.000Z</time>
      </trkpt>
      <trkpt lat="50.46672" lon="1.763">
        <ele>37.200000762939</ele>
        <time>2023-08-09T07:39:55.000Z</time>
      </trkpt>
      <trkpt lat="50.46671" lon="1.76295">
        <ele>37.400001525879</ele>
        <time>2023-08-09T07:39:56.000Z</time>
      </trkpt>
      <trkpt lat="50.46666" lon="1.76278">
        <ele>38.200000762939</ele>
        <time>2023-08-09T07:40:01.000Z</time>
      </trkpt>
      <trkpt lat="50.46658" lon="1.7627">
        <ele>38.400001525879</ele>
        <time>2023-08-09T07:40:03.000Z</time>
      </trkpt>
      <trkpt lat="50.46646" lon="1.76264">
        <ele>39</ele>
        <time>2023-08-09T07:40:07.000Z</time>
      </trkpt>
      <trkpt lat="50.46631" lon="1.76266">
        <ele>39.599998474121</ele>
        <time>2023-08-09T07:40:12.000Z</time>
      </trkpt>
      <trkpt lat="50.46628" lon="1.76268">
        <ele>39.599998474121</ele>
        <time>2023-08-09T07:40:13.000Z</time>
      </trkpt>
      <trkpt lat="50.46614" lon="1.76281">
        <ele>40.599998474121</ele>
        <time>2023-08-09T07:40:18.000Z</time>
      </trkpt>
      <trkpt lat="50.46611" lon="1.76289">
        <ele>40.799999237061</ele>
        <time>2023-08-09T07:40:20.000Z</time>
      </trkpt>
      <trkpt lat="50.46604" lon="1.76312">
        <ele>41.599998474121</ele>
        <time>2023-08-09T07:40:25.000Z</time>
      </trkpt>
      <trkpt lat="50.46603" lon="1.76316">
        <ele>41.599998474121</ele>
        <time>2023-08-09T07:40:26.000Z</time>
      </trkpt>
      <trkpt lat="50.46599" lon="1.76329">
        <ele>42</ele>
        <time>2023-08-09T07:40:29.000Z</time>
      </trkpt>
      <trkpt lat="50.46595" lon="1.76335">
        <ele>42</ele>
        <time>2023-08-09T07:40:31.000Z</time>
      </trkpt>
      <trkpt lat="50.46589" lon="1.76338">
        <ele>42.599998474121</ele>
        <time>2023-08-09T07:40:33.000Z</time>
      </trkpt>
      <trkpt lat="50.4658" lon="1.76342">
        <ele>43.599998474121</ele>
        <time>2023-08-09T07:40:36.000Z</time>
      </trkpt>
      <trkpt lat="50.46557" lon="1.76344">
        <ele>44.799999237061</ele>
        <time>2023-08-09T07:40:43.000Z</time>
      </trkpt>
      <trkpt lat="50.46555" lon="1.76341">
        <ele>44.799999237061</ele>
        <time>2023-08-09T07:40:44.000Z</time>
      </trkpt>
      <trkpt lat="50.46552" lon="1.76334">
        <ele>45.200000762939</ele>
        <time>2023-08-09T07:40:46.000Z</time>
      </trkpt>
      <trkpt lat="50.46544" lon="1.76319">
        <ele>45.799999237061</ele>
        <time>2023-08-09T07:40:50.000Z</time>
      </trkpt>
      <trkpt lat="50.46537" lon="1.76308">
        <ele>46.200000762939</ele>
        <time>2023-08-09T07:40:53.000Z</time>
      </trkpt>
      <trkpt lat="50.46525" lon="1.76289">
        <ele>47.200000762939</ele>
        <time>2023-08-09T07:40:59.000Z</time>
      </trkpt>
      <trkpt lat="50.46515" lon="1.76271">
        <ele>48.200000762939</ele>
        <time>2023-08-09T07:41:04.000Z</time>
      </trkpt>
      <trkpt lat="50.46507" lon="1.76257">
        <ele>48.599998474121</ele>
        <time>2023-08-09T07:41:08.000Z</time>
      </trkpt>
      <trkpt lat="50.4649" lon="1.76228">
        <ele>49.200000762939</ele>
        <time>2023-08-09T07:41:16.000Z</time>
      </trkpt>
      <trkpt lat="50.46489" lon="1.76223">
        <ele>49.400001525879</ele>
        <time>2023-08-09T07:41:17.000Z</time>
      </trkpt>
      <trkpt lat="50.46478" lon="1.76195">
        <ele>49.799999237061</ele>
        <time>2023-08-09T07:41:23.000Z</time>
      </trkpt>
      <trkpt lat="50.46468" lon="1.76168">
        <ele>50</ele>
        <time>2023-08-09T07:41:29.000Z</time>
      </trkpt>
      <trkpt lat="50.46454" lon="1.76139">
        <ele>50</ele>
        <time>2023-08-09T07:41:36.000Z</time>
      </trkpt>
      <trkpt lat="50.46438" lon="1.76106">
        <ele>49.599998474121</ele>
        <time>2023-08-09T07:41:43.000Z</time>
      </trkpt>
      <trkpt lat="50.46431" lon="1.76109">
        <ele>48.599998474121</ele>
        <time>2023-08-09T07:41:46.000Z</time>
      </trkpt>
      <trkpt lat="50.4643" lon="1.76111">
        <ele>48.599998474121</ele>
        <time>2023-08-09T07:41:47.000Z</time>
      </trkpt>
      <trkpt lat="50.46424" lon="1.76121">
        <ele>48.200000762939</ele>
        <time>2023-08-09T07:41:52.000Z</time>
      </trkpt>
      <trkpt lat="50.46424" lon="1.76121">
        <ele>48.200000762939</ele>
        <time>2023-08-09T07:41:53.000Z</time>
      </trkpt>
      <trkpt lat="50.46422" lon="1.76123">
        <ele>48</ele>
        <time>2023-08-09T07:41:56.000Z</time>
      </trkpt>
      <trkpt lat="50.46425" lon="1.76121">
        <ele>48.400001525879</ele>
        <time>2023-08-09T07:42:14.000Z</time>
      </trkpt>
      <trkpt lat="50.46435" lon="1.76111">
        <ele>48.200000762939</ele>
        <time>2023-08-09T07:42:22.000Z</time>
      </trkpt>
      <trkpt lat="50.46438" lon="1.76114">
        <ele>47.799999237061</ele>
        <time>2023-08-09T07:42:32.000Z</time>
      </trkpt>
      <trkpt lat="50.46438" lon="1.76117">
        <ele>47.799999237061</ele>
        <time>2023-08-09T07:42:34.000Z</time>
      </trkpt>
      <trkpt lat="50.4644" lon="1.76123">
        <ele>47.799999237061</ele>
        <time>2023-08-09T07:42:35.000Z</time>
      </trkpt>
      <trkpt lat="50.46437" lon="1.76133">
        <ele>47.799999237061</ele>
        <time>2023-08-09T07:42:38.000Z</time>
      </trkpt>
      <trkpt lat="50.46429" lon="1.7615">
        <ele>48.200000762939</ele>
        <time>2023-08-09T07:42:43.000Z</time>
      </trkpt>
      <trkpt lat="50.46416" lon="1.76176">
        <ele>48.599998474121</ele>
        <time>2023-08-09T07:42:50.000Z</time>
      </trkpt>
      <trkpt lat="50.46415" lon="1.7618">
        <ele>48.799999237061</ele>
        <time>2023-08-09T07:42:51.000Z</time>
      </trkpt>
      <trkpt lat="50.46413" lon="1.76189">
        <ele>48.799999237061</ele>
        <time>2023-08-09T07:42:53.000Z</time>
      </trkpt>
      <trkpt lat="50.4641" lon="1.762">
        <ele>49.200000762939</ele>
        <time>2023-08-09T07:42:55.000Z</time>
      </trkpt>
      <trkpt lat="50.46407" lon="1.76224">
        <ele>49.200000762939</ele>
        <time>2023-08-09T07:42:59.000Z</time>
      </trkpt>
      <trkpt lat="50.46402" lon="1.76249">
        <ele>49</ele>
        <time>2023-08-09T07:43:04.000Z</time>
      </trkpt>
      <trkpt lat="50.46399" lon="1.76261">
        <ele>48.799999237061</ele>
        <time>2023-08-09T07:43:08.000Z</time>
      </trkpt>
      <trkpt lat="50.464" lon="1.76264">
        <ele>48.799999237061</ele>
        <time>2023-08-09T07:43:09.000Z</time>
      </trkpt>
      <trkpt lat="50.46401" lon="1.76266">
        <ele>48.400001525879</ele>
        <time>2023-08-09T07:43:10.000Z</time>
      </trkpt>
      <trkpt lat="50.46404" lon="1.76263">
        <ele>48.400001525879</ele>
        <time>2023-08-09T07:43:12.000Z</time>
      </trkpt>
      <trkpt lat="50.46404" lon="1.76244">
        <ele>48.400001525879</ele>
        <time>2023-08-09T07:43:17.000Z</time>
      </trkpt>
      <trkpt lat="50.46405" lon="1.76235">
        <ele>48.799999237061</ele>
        <time>2023-08-09T07:43:19.000Z</time>
      </trkpt>
      <trkpt lat="50.46407" lon="1.7622">
        <ele>49</ele>
        <time>2023-08-09T07:43:22.000Z</time>
      </trkpt>
      <trkpt lat="50.46413" lon="1.76194">
        <ele>49.599998474121</ele>
        <time>2023-08-09T07:43:27.000Z</time>
      </trkpt>
      <trkpt lat="50.46421" lon="1.76173">
        <ele>49.599998474121</ele>
        <time>2023-08-09T07:43:31.000Z</time>
      </trkpt>
      <trkpt lat="50.46431" lon="1.76151">
        <ele>49.599998474121</ele>
        <time>2023-08-09T07:43:35.000Z</time>
      </trkpt>
      <trkpt lat="50.46437" lon="1.76143">
        <ele>49.400001525879</ele>
        <time>2023-08-09T07:43:37.000Z</time>
      </trkpt>
      <trkpt lat="50.46445" lon="1.76133">
        <ele>49</ele>
        <time>2023-08-09T07:43:42.000Z</time>
      </trkpt>
      <trkpt lat="50.46445" lon="1.76132">
        <ele>49</ele>
        <time>2023-08-09T07:43:43.000Z</time>
      </trkpt>
      <trkpt lat="50.46442" lon="1.76118">
        <ele>49</ele>
        <time>2023-08-09T07:43:47.000Z</time>
      </trkpt>
      <trkpt lat="50.46433" lon="1.76091">
        <ele>47.799999237061</ele>
        <time>2023-08-09T07:43:53.000Z</time>
      </trkpt>
      <trkpt lat="50.46421" lon="1.76052">
        <ele>47.200000762939</ele>
        <time>2023-08-09T07:44:00.000Z</time>
      </trkpt>
      <trkpt lat="50.46413" lon="1.76024">
        <ele>46.799999237061</ele>
        <time>2023-08-09T07:44:05.000Z</time>
      </trkpt>
      <trkpt lat="50.46412" lon="1.76019">
        <ele>46.599998474121</ele>
        <time>2023-08-09T07:44:06.000Z</time>
      </trkpt>
      <trkpt lat="50.46403" lon="1.75994">
        <ele>45.599998474121</ele>
        <time>2023-08-09T07:44:11.000Z</time>
      </trkpt>
      <trkpt lat="50.46401" lon="1.75989">
        <ele>45.599998474121</ele>
        <time>2023-08-09T07:44:12.000Z</time>
      </trkpt>
      <trkpt lat="50.4639" lon="1.75975">
        <ele>45.200000762939</ele>
        <time>2023-08-09T07:44:16.000Z</time>
      </trkpt>
      <trkpt lat="50.46377" lon="1.75971">
        <ele>44.400001525879</ele>
        <time>2023-08-09T07:44:19.000Z</time>
      </trkpt>
      <trkpt lat="50.46363" lon="1.75978">
        <ele>43.200000762939</ele>
        <time>2023-08-09T07:44:23.000Z</time>
      </trkpt>
      <trkpt lat="50.46359" lon="1.75979">
        <ele>43</ele>
        <time>2023-08-09T07:44:24.000Z</time>
      </trkpt>
      <trkpt lat="50.4633" lon="1.76001">
        <ele>43.200000762939</ele>
        <time>2023-08-09T07:44:31.000Z</time>
      </trkpt>
      <trkpt lat="50.463" lon="1.76017">
        <ele>43.599998474121</ele>
        <time>2023-08-09T07:44:37.000Z</time>
      </trkpt>
      <trkpt lat="50.46283" lon="1.76018">
        <ele>43.400001525879</ele>
        <time>2023-08-09T07:44:41.000Z</time>
      </trkpt>
      <trkpt lat="50.46263" lon="1.76018">
        <ele>44.400001525879</ele>
        <time>2023-08-09T07:44:45.000Z</time>
      </trkpt>
      <trkpt lat="50.46244" lon="1.76018">
        <ele>44.599998474121</ele>
        <time>2023-08-09T07:44:49.000Z</time>
      </trkpt>
      <trkpt lat="50.46239" lon="1.76017">
        <ele>44.799999237061</ele>
        <time>2023-08-09T07:44:50.000Z</time>
      </trkpt>
      <trkpt lat="50.46221" lon="1.76016">
        <ele>44.799999237061</ele>
        <time>2023-08-09T07:44:54.000Z</time>
      </trkpt>
      <trkpt lat="50.46205" lon="1.76006">
        <ele>44.799999237061</ele>
        <time>2023-08-09T07:44:58.000Z</time>
      </trkpt>
      <trkpt lat="50.46195" lon="1.75998">
        <ele>44.799999237061</ele>
        <time>2023-08-09T07:45:01.000Z</time>
      </trkpt>
      <trkpt lat="50.46188" lon="1.75994">
        <ele>44.799999237061</ele>
        <time>2023-08-09T07:45:03.000Z</time>
      </trkpt>
      <trkpt lat="50.46172" lon="1.75986">
        <ele>45.200000762939</ele>
        <time>2023-08-09T07:45:07.000Z</time>
      </trkpt>
      <trkpt lat="50.46164" lon="1.75982">
        <ele>45.200000762939</ele>
        <time>2023-08-09T07:45:09.000Z</time>
      </trkpt>
      <trkpt lat="50.46161" lon="1.75981">
        <ele>45.200000762939</ele>
        <time>2023-08-09T07:45:10.000Z</time>
      </trkpt>
      <trkpt lat="50.46154" lon="1.75978">
        <ele>45.200000762939</ele>
        <time>2023-08-09T07:45:12.000Z</time>
      </trkpt>
      <trkpt lat="50.46136" lon="1.75968">
        <ele>45.599998474121</ele>
        <time>2023-08-09T07:45:17.000Z</time>
      </trkpt>
      <trkpt lat="50.46111" lon="1.75945">
        <ele>45.799999237061</ele>
        <time>2023-08-09T07:45:24.000Z</time>
      </trkpt>
      <trkpt lat="50.46093" lon="1.75925">
        <ele>46</ele>
        <time>2023-08-09T07:45:29.000Z</time>
      </trkpt>
      <trkpt lat="50.46093" lon="1.7592">
        <ele>46</ele>
        <time>2023-08-09T07:45:30.000Z</time>
      </trkpt>
      <trkpt lat="50.46091" lon="1.75913">
        <ele>46</ele>
        <time>2023-08-09T07:45:31.000Z</time>
      </trkpt>
      <trkpt lat="50.46084" lon="1.75895">
        <ele>46</ele>
        <time>2023-08-09T07:45:34.000Z</time>
      </trkpt>
      <trkpt lat="50.46081" lon="1.75887">
        <ele>46</ele>
        <time>2023-08-09T07:45:35.000Z</time>
      </trkpt>
      <trkpt lat="50.46075" lon="1.75877">
        <ele>46.200000762939</ele>
        <time>2023-08-09T07:45:37.000Z</time>
      </trkpt>
      <trkpt lat="50.46069" lon="1.75867">
        <ele>46.200000762939</ele>
        <time>2023-08-09T07:45:39.000Z</time>
      </trkpt>
      <trkpt lat="50.46061" lon="1.75858">
        <ele>46.200000762939</ele>
        <time>2023-08-09T07:45:41.000Z</time>
      </trkpt>
      <trkpt lat="50.46045" lon="1.75842">
        <ele>46.599998474121</ele>
        <time>2023-08-09T07:45:45.000Z</time>
      </trkpt>
      <trkpt lat="50.46036" lon="1.75836">
        <ele>47</ele>
        <time>2023-08-09T07:45:47.000Z</time>
      </trkpt>
      <trkpt lat="50.46032" lon="1.75833">
        <ele>47</ele>
        <time>2023-08-09T07:45:48.000Z</time>
      </trkpt>
      <trkpt lat="50.46022" lon="1.7583">
        <ele>47.200000762939</ele>
        <time>2023-08-09T07:45:50.000Z</time>
      </trkpt>
      <trkpt lat="50.46008" lon="1.75825">
        <ele>47.200000762939</ele>
        <time>2023-08-09T07:45:53.000Z</time>
      </trkpt>
      <trkpt lat="50.45967" lon="1.75814">
        <ele>47.400001525879</ele>
        <time>2023-08-09T07:46:01.000Z</time>
      </trkpt>
      <trkpt lat="50.45921" lon="1.75803">
        <ele>46.799999237061</ele>
        <time>2023-08-09T07:46:10.000Z</time>
      </trkpt>
      <trkpt lat="50.45877" lon="1.75792">
        <ele>46</ele>
        <time>2023-08-09T07:46:18.000Z</time>
      </trkpt>
      <trkpt lat="50.45872" lon="1.7579">
        <ele>46</ele>
        <time>2023-08-09T07:46:19.000Z</time>
      </trkpt>
      <trkpt lat="50.45827" lon="1.75779">
        <ele>45</ele>
        <time>2023-08-09T07:46:27.000Z</time>
      </trkpt>
      <trkpt lat="50.45776" lon="1.75767">
        <ele>44.200000762939</ele>
        <time>2023-08-09T07:46:36.000Z</time>
      </trkpt>
      <trkpt lat="50.45765" lon="1.75762">
        <ele>44.200000762939</ele>
        <time>2023-08-09T07:46:38.000Z</time>
      </trkpt>
      <trkpt lat="50.45755" lon="1.75756">
        <ele>44</ele>
        <time>2023-08-09T07:46:40.000Z</time>
      </trkpt>
      <trkpt lat="50.45751" lon="1.75755">
        <ele>43.799999237061</ele>
        <time>2023-08-09T07:46:41.000Z</time>
      </trkpt>
      <trkpt lat="50.45742" lon="1.75764">
        <ele>43.400001525879</ele>
        <time>2023-08-09T07:46:44.000Z</time>
      </trkpt>
      <trkpt lat="50.45732" lon="1.75786">
        <ele>43</ele>
        <time>2023-08-09T07:46:47.000Z</time>
      </trkpt>
      <trkpt lat="50.45725" lon="1.75803">
        <ele>43</ele>
        <time>2023-08-09T07:46:49.000Z</time>
      </trkpt>
      <trkpt lat="50.45713" lon="1.75832">
        <ele>42.400001525879</ele>
        <time>2023-08-09T07:46:52.000Z</time>
      </trkpt>
      <trkpt lat="50.45702" lon="1.75854">
        <ele>42</ele>
        <time>2023-08-09T07:46:54.000Z</time>
      </trkpt>
      <trkpt lat="50.45692" lon="1.75877">
        <ele>41.200000762939</ele>
        <time>2023-08-09T07:46:56.000Z</time>
      </trkpt>
      <trkpt lat="50.45686" lon="1.7589">
        <ele>40.799999237061</ele>
        <time>2023-08-09T07:46:57.000Z</time>
      </trkpt>
      <trkpt lat="50.45674" lon="1.75915">
        <ele>39.799999237061</ele>
        <time>2023-08-09T07:46:59.000Z</time>
      </trkpt>
      <trkpt lat="50.45655" lon="1.75955">
        <ele>37.799999237061</ele>
        <time>2023-08-09T07:47:02.000Z</time>
      </trkpt>
      <trkpt lat="50.45648" lon="1.75969">
        <ele>36.599998474121</ele>
        <time>2023-08-09T07:47:03.000Z</time>
      </trkpt>
      <trkpt lat="50.45636" lon="1.75995">
        <ele>35.200000762939</ele>
        <time>2023-08-09T07:47:05.000Z</time>
      </trkpt>
      <trkpt lat="50.45623" lon="1.76019">
        <ele>34.200000762939</ele>
        <time>2023-08-09T07:47:07.000Z</time>
      </trkpt>
      <trkpt lat="50.45611" lon="1.76043">
        <ele>33.200000762939</ele>
        <time>2023-08-09T07:47:09.000Z</time>
      </trkpt>
      <trkpt lat="50.45604" lon="1.76051">
        <ele>32</ele>
        <time>2023-08-09T07:47:10.000Z</time>
      </trkpt>
      <trkpt lat="50.45597" lon="1.76056">
        <ele>31.39999961853</ele>
        <time>2023-08-09T07:47:11.000Z</time>
      </trkpt>
      <trkpt lat="50.4559" lon="1.76058">
        <ele>30.39999961853</ele>
        <time>2023-08-09T07:47:12.000Z</time>
      </trkpt>
      <trkpt lat="50.4558" lon="1.76062">
        <ele>29.799999237061</ele>
        <time>2023-08-09T07:47:13.000Z</time>
      </trkpt>
      <trkpt lat="50.45574" lon="1.76065">
        <ele>29</ele>
        <time>2023-08-09T07:47:14.000Z</time>
      </trkpt>
      <trkpt lat="50.45567" lon="1.76069">
        <ele>27.60000038147</ele>
        <time>2023-08-09T07:47:15.000Z</time>
      </trkpt>
      <trkpt lat="50.45554" lon="1.76074">
        <ele>26.60000038147</ele>
        <time>2023-08-09T07:47:17.000Z</time>
      </trkpt>
      <trkpt lat="50.45543" lon="1.76079">
        <ele>25.799999237061</ele>
        <time>2023-08-09T07:47:19.000Z</time>
      </trkpt>
      <trkpt lat="50.45534" lon="1.76083">
        <ele>25.200000762939</ele>
        <time>2023-08-09T07:47:21.000Z</time>
      </trkpt>
      <trkpt lat="50.45523" lon="1.76085">
        <ele>24.799999237061</ele>
        <time>2023-08-09T07:47:23.000Z</time>
      </trkpt>
      <trkpt lat="50.45492" lon="1.7609">
        <ele>24.200000762939</ele>
        <time>2023-08-09T07:47:28.000Z</time>
      </trkpt>
      <trkpt lat="50.45486" lon="1.7609">
        <ele>24.200000762939</ele>
        <time>2023-08-09T07:47:29.000Z</time>
      </trkpt>
      <trkpt lat="50.45436" lon="1.76097">
        <ele>23.200000762939</ele>
        <time>2023-08-09T07:47:36.000Z</time>
      </trkpt>
      <trkpt lat="50.45429" lon="1.76097">
        <ele>23.200000762939</ele>
        <time>2023-08-09T07:47:37.000Z</time>
      </trkpt>
      <trkpt lat="50.45388" lon="1.76103">
        <ele>22.39999961853</ele>
        <time>2023-08-09T07:47:43.000Z</time>
      </trkpt>
      <trkpt lat="50.45372" lon="1.76105">
        <ele>22</ele>
        <time>2023-08-09T07:47:45.000Z</time>
      </trkpt>
      <trkpt lat="50.45342" lon="1.76108">
        <ele>21.200000762939</ele>
        <time>2023-08-09T07:47:49.000Z</time>
      </trkpt>
      <trkpt lat="50.45326" lon="1.7611">
        <ele>20.799999237061</ele>
        <time>2023-08-09T07:47:51.000Z</time>
      </trkpt>
      <trkpt lat="50.45293" lon="1.76116">
        <ele>19.60000038147</ele>
        <time>2023-08-09T07:47:55.000Z</time>
      </trkpt>
      <trkpt lat="50.45285" lon="1.76117">
        <ele>19.60000038147</ele>
        <time>2023-08-09T07:47:56.000Z</time>
      </trkpt>
      <trkpt lat="50.4526" lon="1.76121">
        <ele>18.39999961853</ele>
        <time>2023-08-09T07:47:59.000Z</time>
      </trkpt>
      <trkpt lat="50.45218" lon="1.76126">
        <ele>17</ele>
        <time>2023-08-09T07:48:04.000Z</time>
      </trkpt>
      <trkpt lat="50.45208" lon="1.76125">
        <ele>16.799999237061</ele>
        <time>2023-08-09T07:48:05.000Z</time>
      </trkpt>
      <trkpt lat="50.45193" lon="1.76123">
        <ele>16</ele>
        <time>2023-08-09T07:48:07.000Z</time>
      </trkpt>
      <trkpt lat="50.45145" lon="1.76113">
        <ele>14.800000190735</ele>
        <time>2023-08-09T07:48:13.000Z</time>
      </trkpt>
      <trkpt lat="50.45091" lon="1.76116">
        <ele>13.800000190735</ele>
        <time>2023-08-09T07:48:20.000Z</time>
      </trkpt>
      <trkpt lat="50.4505" lon="1.76126">
        <ele>13.60000038147</ele>
        <time>2023-08-09T07:48:26.000Z</time>
      </trkpt>
      <trkpt lat="50.45021" lon="1.76128">
        <ele>13.60000038147</ele>
        <time>2023-08-09T07:48:31.000Z</time>
      </trkpt>
      <trkpt lat="50.45" lon="1.76126">
        <ele>14</ele>
        <time>2023-08-09T07:48:36.000Z</time>
      </trkpt>
      <trkpt lat="50.44981" lon="1.76124">
        <ele>14</ele>
        <time>2023-08-09T07:48:42.000Z</time>
      </trkpt>
      <trkpt lat="50.44967" lon="1.76121">
        <ele>13.800000190735</ele>
        <time>2023-08-09T07:48:48.000Z</time>
      </trkpt>
      <trkpt lat="50.44963" lon="1.76118">
        <ele>13.800000190735</ele>
        <time>2023-08-09T07:48:51.000Z</time>
      </trkpt>
      <trkpt lat="50.44958" lon="1.76117">
        <ele>13.800000190735</ele>
        <time>2023-08-09T07:48:53.000Z</time>
      </trkpt>
      <trkpt lat="50.44937" lon="1.76116">
        <ele>13.800000190735</ele>
        <time>2023-08-09T07:48:59.000Z</time>
      </trkpt>
      <trkpt lat="50.44925" lon="1.76116">
        <ele>14</ele>
        <time>2023-08-09T07:49:03.000Z</time>
      </trkpt>
      <trkpt lat="50.44898" lon="1.76113">
        <ele>14.199999809265</ele>
        <time>2023-08-09T07:49:09.000Z</time>
      </trkpt>
      <trkpt lat="50.44884" lon="1.76111">
        <ele>14.39999961853</ele>
        <time>2023-08-09T07:49:12.000Z</time>
      </trkpt>
      <trkpt lat="50.44874" lon="1.76111">
        <ele>14.39999961853</ele>
        <time>2023-08-09T07:49:14.000Z</time>
      </trkpt>
      <trkpt lat="50.4487" lon="1.7611">
        <ele>14.60000038147</ele>
        <time>2023-08-09T07:49:15.000Z</time>
      </trkpt>
      <trkpt lat="50.44856" lon="1.76109">
        <ele>15</ele>
        <time>2023-08-09T07:49:18.000Z</time>
      </trkpt>
      <trkpt lat="50.44821" lon="1.76106">
        <ele>15</ele>
        <time>2023-08-09T07:49:25.000Z</time>
      </trkpt>
      <trkpt lat="50.44783" lon="1.76096">
        <ele>15.199999809265</ele>
        <time>2023-08-09T07:49:32.000Z</time>
      </trkpt>
      <trkpt lat="50.44738" lon="1.76081">
        <ele>15.199999809265</ele>
        <time>2023-08-09T07:49:40.000Z</time>
      </trkpt>
      <trkpt lat="50.44732" lon="1.76079">
        <ele>15.199999809265</ele>
        <time>2023-08-09T07:49:41.000Z</time>
      </trkpt>
      <trkpt lat="50.44687" lon="1.76062">
        <ele>14.60000038147</ele>
        <time>2023-08-09T07:49:48.000Z</time>
      </trkpt>
      <trkpt lat="50.44642" lon="1.76047">
        <ele>13.800000190735</ele>
        <time>2023-08-09T07:49:55.000Z</time>
      </trkpt>
      <trkpt lat="50.44635" lon="1.76046">
        <ele>13.800000190735</ele>
        <time>2023-08-09T07:49:56.000Z</time>
      </trkpt>
      <trkpt lat="50.44628" lon="1.76047">
        <ele>13.800000190735</ele>
        <time>2023-08-09T07:49:57.000Z</time>
      </trkpt>
      <trkpt lat="50.44622" lon="1.76049">
        <ele>13.60000038147</ele>
        <time>2023-08-09T07:49:58.000Z</time>
      </trkpt>
      <trkpt lat="50.4461" lon="1.76055">
        <ele>13.60000038147</ele>
        <time>2023-08-09T07:50:00.000Z</time>
      </trkpt>
      <trkpt lat="50.44571" lon="1.76071">
        <ele>13.60000038147</ele>
        <time>2023-08-09T07:50:07.000Z</time>
      </trkpt>
      <trkpt lat="50.44537" lon="1.76083">
        <ele>14.60000038147</ele>
        <time>2023-08-09T07:50:14.000Z</time>
      </trkpt>
      <trkpt lat="50.44533" lon="1.76084">
        <ele>14.800000190735</ele>
        <time>2023-08-09T07:50:15.000Z</time>
      </trkpt>
      <trkpt lat="50.44516" lon="1.76087">
        <ele>15.800000190735</ele>
        <time>2023-08-09T07:50:19.000Z</time>
      </trkpt>
      <trkpt lat="50.44494" lon="1.7609">
        <ele>17</ele>
        <time>2023-08-09T07:50:24.000Z</time>
      </trkpt>
      <trkpt lat="50.44485" lon="1.76091">
        <ele>17.200000762939</ele>
        <time>2023-08-09T07:50:26.000Z</time>
      </trkpt>
      <trkpt lat="50.44462" lon="1.76092">
        <ele>18</ele>
        <time>2023-08-09T07:50:31.000Z</time>
      </trkpt>
      <trkpt lat="50.44452" lon="1.76093">
        <ele>18</ele>
        <time>2023-08-09T07:50:33.000Z</time>
      </trkpt>
      <trkpt lat="50.44408" lon="1.7609">
        <ele>18.39999961853</ele>
        <time>2023-08-09T07:50:42.000Z</time>
      </trkpt>
      <trkpt lat="50.44367" lon="1.76084">
        <ele>18.200000762939</ele>
        <time>2023-08-09T07:50:49.000Z</time>
      </trkpt>
      <trkpt lat="50.44354" lon="1.76084">
        <ele>18</ele>
        <time>2023-08-09T07:50:51.000Z</time>
      </trkpt>
      <trkpt lat="50.44328" lon="1.76084">
        <ele>17.200000762939</ele>
        <time>2023-08-09T07:50:55.000Z</time>
      </trkpt>
      <trkpt lat="50.44314" lon="1.76084">
        <ele>16.799999237061</ele>
        <time>2023-08-09T07:50:57.000Z</time>
      </trkpt>
      <trkpt lat="50.44272" lon="1.76081">
        <ele>16</ele>
        <time>2023-08-09T07:51:03.000Z</time>
      </trkpt>
      <trkpt lat="50.44265" lon="1.7608">
        <ele>15.800000190735</ele>
        <time>2023-08-09T07:51:04.000Z</time>
      </trkpt>
      <trkpt lat="50.44229" lon="1.76079">
        <ele>14.800000190735</ele>
        <time>2023-08-09T07:51:09.000Z</time>
      </trkpt>
      <trkpt lat="50.44222" lon="1.76078">
        <ele>14.60000038147</ele>
        <time>2023-08-09T07:51:10.000Z</time>
      </trkpt>
      <trkpt lat="50.44163" lon="1.76068">
        <ele>14</ele>
        <time>2023-08-09T07:51:19.000Z</time>
      </trkpt>
      <trkpt lat="50.44146" lon="1.76063">
        <ele>14</ele>
        <time>2023-08-09T07:51:22.000Z</time>
      </trkpt>
      <trkpt lat="50.44134" lon="1.76061">
        <ele>14</ele>
        <time>2023-08-09T07:51:24.000Z</time>
      </trkpt>
      <trkpt lat="50.44092" lon="1.76051">
        <ele>14</ele>
        <time>2023-08-09T07:51:31.000Z</time>
      </trkpt>
      <trkpt lat="50.4404" lon="1.76038">
        <ele>14.199999809265</ele>
        <time>2023-08-09T07:51:40.000Z</time>
      </trkpt>
      <trkpt lat="50.43998" lon="1.7603">
        <ele>14</ele>
        <time>2023-08-09T07:51:47.000Z</time>
      </trkpt>
      <trkpt lat="50.43978" lon="1.76025">
        <ele>14.199999809265</ele>
        <time>2023-08-09T07:51:51.000Z</time>
      </trkpt>
      <trkpt lat="50.43973" lon="1.76023">
        <ele>14.199999809265</ele>
        <time>2023-08-09T07:51:52.000Z</time>
      </trkpt>
      <trkpt lat="50.43936" lon="1.76015">
        <ele>14</ele>
        <time>2023-08-09T07:51:58.000Z</time>
      </trkpt>
      <trkpt lat="50.43893" lon="1.76008">
        <ele>14</ele>
        <time>2023-08-09T07:52:05.000Z</time>
      </trkpt>
      <trkpt lat="50.43867" lon="1.76006">
        <ele>14</ele>
        <time>2023-08-09T07:52:09.000Z</time>
      </trkpt>
      <trkpt lat="50.43856" lon="1.76007">
        <ele>14</ele>
        <time>2023-08-09T07:52:11.000Z</time>
      </trkpt>
      <trkpt lat="50.43815" lon="1.7601">
        <ele>13.800000190735</ele>
        <time>2023-08-09T07:52:18.000Z</time>
      </trkpt>
      <trkpt lat="50.43779" lon="1.76009">
        <ele>13.60000038147</ele>
        <time>2023-08-09T07:52:24.000Z</time>
      </trkpt>
      <trkpt lat="50.43727" lon="1.76008">
        <ele>14</ele>
        <time>2023-08-09T07:52:33.000Z</time>
      </trkpt>
      <trkpt lat="50.43676" lon="1.76006">
        <ele>14.39999961853</ele>
        <time>2023-08-09T07:52:42.000Z</time>
      </trkpt>
      <trkpt lat="50.43621" lon="1.75997">
        <ele>14.800000190735</ele>
        <time>2023-08-09T07:52:52.000Z</time>
      </trkpt>
      <trkpt lat="50.43569" lon="1.75993">
        <ele>15.39999961853</ele>
        <time>2023-08-09T07:53:01.000Z</time>
      </trkpt>
      <trkpt lat="50.43545" lon="1.75995">
        <ele>15.60000038147</ele>
        <time>2023-08-09T07:53:05.000Z</time>
      </trkpt>
      <trkpt lat="50.43517" lon="1.76002">
        <ele>15.60000038147</ele>
        <time>2023-08-09T07:53:10.000Z</time>
      </trkpt>
      <trkpt lat="50.43477" lon="1.76022">
        <ele>15.800000190735</ele>
        <time>2023-08-09T07:53:17.000Z</time>
      </trkpt>
      <trkpt lat="50.43424" lon="1.76059">
        <ele>16</ele>
        <time>2023-08-09T07:53:27.000Z</time>
      </trkpt>
      <trkpt lat="50.43372" lon="1.76104">
        <ele>16</ele>
        <time>2023-08-09T07:53:37.000Z</time>
      </trkpt>
      <trkpt lat="50.43352" lon="1.76121">
        <ele>16</ele>
        <time>2023-08-09T07:53:41.000Z</time>
      </trkpt>
      <trkpt lat="50.43306" lon="1.76154">
        <ele>16.39999961853</ele>
        <time>2023-08-09T07:53:50.000Z</time>
      </trkpt>
      <trkpt lat="50.43251" lon="1.76181">
        <ele>16.39999961853</ele>
        <time>2023-08-09T07:54:00.000Z</time>
      </trkpt>
      <trkpt lat="50.4324" lon="1.76185">
        <ele>16.60000038147</ele>
        <time>2023-08-09T07:54:02.000Z</time>
      </trkpt>
      <trkpt lat="50.43234" lon="1.76187">
        <ele>16.60000038147</ele>
        <time>2023-08-09T07:54:03.000Z</time>
      </trkpt>
      <trkpt lat="50.432" lon="1.76194">
        <ele>17</ele>
        <time>2023-08-09T07:54:09.000Z</time>
      </trkpt>
      <trkpt lat="50.43149" lon="1.76208">
        <ele>17</ele>
        <time>2023-08-09T07:54:18.000Z</time>
      </trkpt>
      <trkpt lat="50.43113" lon="1.76236">
        <ele>17.200000762939</ele>
        <time>2023-08-09T07:54:25.000Z</time>
      </trkpt>
      <trkpt lat="50.4309" lon="1.76257">
        <ele>17.799999237061</ele>
        <time>2023-08-09T07:54:30.000Z</time>
      </trkpt>
      <trkpt lat="50.43077" lon="1.76267">
        <ele>18.200000762939</ele>
        <time>2023-08-09T07:54:33.000Z</time>
      </trkpt>
      <trkpt lat="50.43058" lon="1.76275">
        <ele>18.799999237061</ele>
        <time>2023-08-09T07:54:37.000Z</time>
      </trkpt>
      <trkpt lat="50.43048" lon="1.76278">
        <ele>19</ele>
        <time>2023-08-09T07:54:39.000Z</time>
      </trkpt>
      <trkpt lat="50.43003" lon="1.76283">
        <ele>19.60000038147</ele>
        <time>2023-08-09T07:54:48.000Z</time>
      </trkpt>
      <trkpt lat="50.42998" lon="1.76284">
        <ele>19.60000038147</ele>
        <time>2023-08-09T07:54:49.000Z</time>
      </trkpt>
      <trkpt lat="50.42994" lon="1.76283">
        <ele>19.799999237061</ele>
        <time>2023-08-09T07:54:50.000Z</time>
      </trkpt>
      <trkpt lat="50.42983" lon="1.76284">
        <ele>19.799999237061</ele>
        <time>2023-08-09T07:54:52.000Z</time>
      </trkpt>
      <trkpt lat="50.4297" lon="1.76285">
        <ele>19.799999237061</ele>
        <time>2023-08-09T07:54:54.000Z</time>
      </trkpt>
      <trkpt lat="50.42927" lon="1.7629">
        <ele>20</ele>
        <time>2023-08-09T07:55:01.000Z</time>
      </trkpt>
      <trkpt lat="50.42877" lon="1.76286">
        <ele>19.60000038147</ele>
        <time>2023-08-09T07:55:09.000Z</time>
      </trkpt>
      <trkpt lat="50.42822" lon="1.76286">
        <ele>19.60000038147</ele>
        <time>2023-08-09T07:55:19.000Z</time>
      </trkpt>
      <trkpt lat="50.42779" lon="1.76288">
        <ele>20.39999961853</ele>
        <time>2023-08-09T07:55:28.000Z</time>
      </trkpt>
      <trkpt lat="50.42775" lon="1.76288">
        <ele>20.60000038147</ele>
        <time>2023-08-09T07:55:29.000Z</time>
      </trkpt>
      <trkpt lat="50.42752" lon="1.7629">
        <ele>21.60000038147</ele>
        <time>2023-08-09T07:55:35.000Z</time>
      </trkpt>
      <trkpt lat="50.42748" lon="1.7629">
        <ele>21.799999237061</ele>
        <time>2023-08-09T07:55:36.000Z</time>
      </trkpt>
      <trkpt lat="50.42733" lon="1.76291">
        <ele>22.39999961853</ele>
        <time>2023-08-09T07:55:40.000Z</time>
      </trkpt>
      <trkpt lat="50.42722" lon="1.76291">
        <ele>23</ele>
        <time>2023-08-09T07:55:43.000Z</time>
      </trkpt>
      <trkpt lat="50.42719" lon="1.76292">
        <ele>23.200000762939</ele>
        <time>2023-08-09T07:55:44.000Z</time>
      </trkpt>
      <trkpt lat="50.42698" lon="1.76292">
        <ele>24.200000762939</ele>
        <time>2023-08-09T07:55:50.000Z</time>
      </trkpt>
      <trkpt lat="50.42676" lon="1.76294">
        <ele>25</ele>
        <time>2023-08-09T07:55:56.000Z</time>
      </trkpt>
      <trkpt lat="50.42673" lon="1.76294">
        <ele>25.200000762939</ele>
        <time>2023-08-09T07:55:57.000Z</time>
      </trkpt>
      <trkpt lat="50.42652" lon="1.76295">
        <ele>26.200000762939</ele>
        <time>2023-08-09T07:56:03.000Z</time>
      </trkpt>
      <trkpt lat="50.42638" lon="1.76296">
        <ele>26.799999237061</ele>
        <time>2023-08-09T07:56:07.000Z</time>
      </trkpt>
      <trkpt lat="50.42627" lon="1.76297">
        <ele>27.39999961853</ele>
        <time>2023-08-09T07:56:10.000Z</time>
      </trkpt>
      <trkpt lat="50.42601" lon="1.76298">
        <ele>28.39999961853</ele>
        <time>2023-08-09T07:56:18.000Z</time>
      </trkpt>
      <trkpt lat="50.42573" lon="1.763">
        <ele>29.39999961853</ele>
        <time>2023-08-09T07:56:26.000Z</time>
      </trkpt>
      <trkpt lat="50.42552" lon="1.76301">
        <ele>30.200000762939</ele>
        <time>2023-08-09T07:56:32.000Z</time>
      </trkpt>
      <trkpt lat="50.42544" lon="1.76302">
        <ele>30.39999961853</ele>
        <time>2023-08-09T07:56:34.000Z</time>
      </trkpt>
      <trkpt lat="50.42537" lon="1.76302">
        <ele>30.60000038147</ele>
        <time>2023-08-09T07:56:36.000Z</time>
      </trkpt>
      <trkpt lat="50.42505" lon="1.76304">
        <ele>31.200000762939</ele>
        <time>2023-08-09T07:56:44.000Z</time>
      </trkpt>
      <trkpt lat="50.42494" lon="1.76305">
        <ele>31.60000038147</ele>
        <time>2023-08-09T07:56:47.000Z</time>
      </trkpt>
      <trkpt lat="50.42472" lon="1.76306">
        <ele>32.200000762939</ele>
        <time>2023-08-09T07:56:53.000Z</time>
      </trkpt>
      <trkpt lat="50.42458" lon="1.76307">
        <ele>32.799999237061</ele>
        <time>2023-08-09T07:56:57.000Z</time>
      </trkpt>
      <trkpt lat="50.42439" lon="1.76308">
        <ele>34.200000762939</ele>
        <time>2023-08-09T07:57:03.000Z</time>
      </trkpt>
      <trkpt lat="50.4242" lon="1.76309">
        <ele>35.200000762939</ele>
        <time>2023-08-09T07:57:09.000Z</time>
      </trkpt>
      <trkpt lat="50.42404" lon="1.76311">
        <ele>36.200000762939</ele>
        <time>2023-08-09T07:57:14.000Z</time>
      </trkpt>
      <trkpt lat="50.42402" lon="1.76311">
        <ele>36.599998474121</ele>
        <time>2023-08-09T07:57:15.000Z</time>
      </trkpt>
      <trkpt lat="50.42393" lon="1.76311">
        <ele>37.400001525879</ele>
        <time>2023-08-09T07:57:18.000Z</time>
      </trkpt>
      <trkpt lat="50.42377" lon="1.76312">
        <ele>38.599998474121</ele>
        <time>2023-08-09T07:57:23.000Z</time>
      </trkpt>
      <trkpt lat="50.4237" lon="1.76311">
        <ele>38.799999237061</ele>
        <time>2023-08-09T07:57:25.000Z</time>
      </trkpt>
      <trkpt lat="50.42365" lon="1.76311">
        <ele>39.200000762939</ele>
        <time>2023-08-09T07:57:27.000Z</time>
      </trkpt>
      <trkpt lat="50.42358" lon="1.76311">
        <ele>39.599998474121</ele>
        <time>2023-08-09T07:57:29.000Z</time>
      </trkpt>
      <trkpt lat="50.42343" lon="1.76313">
        <ele>40.599998474121</ele>
        <time>2023-08-09T07:57:34.000Z</time>
      </trkpt>
      <trkpt lat="50.42339" lon="1.76313">
        <ele>40.599998474121</ele>
        <time>2023-08-09T07:57:35.000Z</time>
      </trkpt>
      <trkpt lat="50.4232" lon="1.76314">
        <ele>41.799999237061</ele>
        <time>2023-08-09T07:57:41.000Z</time>
      </trkpt>
      <trkpt lat="50.42305" lon="1.76315">
        <ele>43</ele>
        <time>2023-08-09T07:57:46.000Z</time>
      </trkpt>
      <trkpt lat="50.42285" lon="1.76316">
        <ele>44.200000762939</ele>
        <time>2023-08-09T07:57:53.000Z</time>
      </trkpt>
      <trkpt lat="50.42276" lon="1.76317">
        <ele>44.599998474121</ele>
        <time>2023-08-09T07:57:56.000Z</time>
      </trkpt>
      <trkpt lat="50.4227" lon="1.76317">
        <ele>45.200000762939</ele>
        <time>2023-08-09T07:57:58.000Z</time>
      </trkpt>
      <trkpt lat="50.42256" lon="1.76318">
        <ele>46.200000762939</ele>
        <time>2023-08-09T07:58:03.000Z</time>
      </trkpt>
      <trkpt lat="50.42244" lon="1.76319">
        <ele>46.799999237061</ele>
        <time>2023-08-09T07:58:07.000Z</time>
      </trkpt>
      <trkpt lat="50.42238" lon="1.76319">
        <ele>47.400001525879</ele>
        <time>2023-08-09T07:58:09.000Z</time>
      </trkpt>
      <trkpt lat="50.42219" lon="1.7632">
        <ele>48.400001525879</ele>
        <time>2023-08-09T07:58:15.000Z</time>
      </trkpt>
      <trkpt lat="50.42206" lon="1.76321">
        <ele>49.200000762939</ele>
        <time>2023-08-09T07:58:19.000Z</time>
      </trkpt>
      <trkpt lat="50.42199" lon="1.76322">
        <ele>49.599998474121</ele>
        <time>2023-08-09T07:58:21.000Z</time>
      </trkpt>
      <trkpt lat="50.42174" lon="1.76323">
        <ele>50.400001525879</ele>
        <time>2023-08-09T07:58:28.000Z</time>
      </trkpt>
      <trkpt lat="50.42162" lon="1.76323">
        <ele>50.599998474121</ele>
        <time>2023-08-09T07:58:31.000Z</time>
      </trkpt>
      <trkpt lat="50.42143" lon="1.76324">
        <ele>51</ele>
        <time>2023-08-09T07:58:36.000Z</time>
      </trkpt>
      <trkpt lat="50.42116" lon="1.76327">
        <ele>51.200000762939</ele>
        <time>2023-08-09T07:58:42.000Z</time>
      </trkpt>
      <trkpt lat="50.421" lon="1.76327">
        <ele>51.400001525879</ele>
        <time>2023-08-09T07:58:46.000Z</time>
      </trkpt>
      <trkpt lat="50.42082" lon="1.76328">
        <ele>51.599998474121</ele>
        <time>2023-08-09T07:58:50.000Z</time>
      </trkpt>
      <trkpt lat="50.42054" lon="1.76329">
        <ele>52.200000762939</ele>
        <time>2023-08-09T07:58:56.000Z</time>
      </trkpt>
      <trkpt lat="50.42007" lon="1.76332">
        <ele>52.599998474121</ele>
        <time>2023-08-09T07:59:06.000Z</time>
      </trkpt>
      <trkpt lat="50.41991" lon="1.76333">
        <ele>52.599998474121</ele>
        <time>2023-08-09T07:59:09.000Z</time>
      </trkpt>
      <trkpt lat="50.41958" lon="1.76336">
        <ele>53.400001525879</ele>
        <time>2023-08-09T07:59:16.000Z</time>
      </trkpt>
      <trkpt lat="50.41939" lon="1.76337">
        <ele>53.599998474121</ele>
        <time>2023-08-09T07:59:20.000Z</time>
      </trkpt>
      <trkpt lat="50.41899" lon="1.76338">
        <ele>54</ele>
        <time>2023-08-09T07:59:28.000Z</time>
      </trkpt>
      <trkpt lat="50.41856" lon="1.76341">
        <ele>54.599998474121</ele>
        <time>2023-08-09T07:59:37.000Z</time>
      </trkpt>
      <trkpt lat="50.41846" lon="1.76342">
        <ele>54.599998474121</ele>
        <time>2023-08-09T07:59:39.000Z</time>
      </trkpt>
      <trkpt lat="50.41806" lon="1.76343">
        <ele>55.200000762939</ele>
        <time>2023-08-09T07:59:47.000Z</time>
      </trkpt>
      <trkpt lat="50.41762" lon="1.76346">
        <ele>55.799999237061</ele>
        <time>2023-08-09T07:59:56.000Z</time>
      </trkpt>
      <trkpt lat="50.41747" lon="1.76347">
        <ele>56</ele>
        <time>2023-08-09T07:59:59.000Z</time>
      </trkpt>
      <trkpt lat="50.41698" lon="1.7635">
        <ele>56.200000762939</ele>
        <time>2023-08-09T08:00:08.000Z</time>
      </trkpt>
      <trkpt lat="50.4165" lon="1.76353">
        <ele>56.599998474121</ele>
        <time>2023-08-09T08:00:17.000Z</time>
      </trkpt>
      <trkpt lat="50.41614" lon="1.76356">
        <ele>56.799999237061</ele>
        <time>2023-08-09T08:00:24.000Z</time>
      </trkpt>
      <trkpt lat="50.41554" lon="1.76359">
        <ele>57.200000762939</ele>
        <time>2023-08-09T08:00:35.000Z</time>
      </trkpt>
      <trkpt lat="50.41496" lon="1.76362">
        <ele>57.400001525879</ele>
        <time>2023-08-09T08:00:46.000Z</time>
      </trkpt>
      <trkpt lat="50.41489" lon="1.76362">
        <ele>57.400001525879</ele>
        <time>2023-08-09T08:00:47.000Z</time>
      </trkpt>
      <trkpt lat="50.41453" lon="1.76364">
        <ele>57.799999237061</ele>
        <time>2023-08-09T08:00:54.000Z</time>
      </trkpt>
      <trkpt lat="50.41442" lon="1.76364">
        <ele>58</ele>
        <time>2023-08-09T08:00:56.000Z</time>
      </trkpt>
      <trkpt lat="50.41389" lon="1.76373">
        <ele>58.799999237061</ele>
        <time>2023-08-09T08:01:06.000Z</time>
      </trkpt>
      <trkpt lat="50.41374" lon="1.76379">
        <ele>58.799999237061</ele>
        <time>2023-08-09T08:01:09.000Z</time>
      </trkpt>
      <trkpt lat="50.41359" lon="1.76388">
        <ele>59</ele>
        <time>2023-08-09T08:01:12.000Z</time>
      </trkpt>
      <trkpt lat="50.41305" lon="1.76417">
        <ele>59.599998474121</ele>
        <time>2023-08-09T08:01:23.000Z</time>
      </trkpt>
      <trkpt lat="50.413" lon="1.76419">
        <ele>59.599998474121</ele>
        <time>2023-08-09T08:01:24.000Z</time>
      </trkpt>
      <trkpt lat="50.41276" lon="1.76433">
        <ele>60</ele>
        <time>2023-08-09T08:01:29.000Z</time>
      </trkpt>
      <trkpt lat="50.41243" lon="1.7645">
        <ele>60.400001525879</ele>
        <time>2023-08-09T08:01:36.000Z</time>
      </trkpt>
      <trkpt lat="50.41209" lon="1.76468">
        <ele>61</ele>
        <time>2023-08-09T08:01:43.000Z</time>
      </trkpt>
      <trkpt lat="50.41184" lon="1.76481">
        <ele>60.799999237061</ele>
        <time>2023-08-09T08:01:48.000Z</time>
      </trkpt>
      <trkpt lat="50.41137" lon="1.76505">
        <ele>61</ele>
        <time>2023-08-09T08:01:57.000Z</time>
      </trkpt>
      <trkpt lat="50.41084" lon="1.76533">
        <ele>61.799999237061</ele>
        <time>2023-08-09T08:02:07.000Z</time>
      </trkpt>
      <trkpt lat="50.4104" lon="1.76549">
        <ele>62.200000762939</ele>
        <time>2023-08-09T08:02:15.000Z</time>
      </trkpt>
      <trkpt lat="50.40986" lon="1.76564">
        <ele>62.599998474121</ele>
        <time>2023-08-09T08:02:25.000Z</time>
      </trkpt>
      <trkpt lat="50.40939" lon="1.76578">
        <ele>63.200000762939</ele>
        <time>2023-08-09T08:02:34.000Z</time>
      </trkpt>
      <trkpt lat="50.40923" lon="1.76583">
        <ele>63.200000762939</ele>
        <time>2023-08-09T08:02:37.000Z</time>
      </trkpt>
      <trkpt lat="50.40882" lon="1.76597">
        <ele>63.599998474121</ele>
        <time>2023-08-09T08:02:45.000Z</time>
      </trkpt>
      <trkpt lat="50.4084" lon="1.76613">
        <ele>64.199996948242</ele>
        <time>2023-08-09T08:02:53.000Z</time>
      </trkpt>
      <trkpt lat="50.40826" lon="1.76617">
        <ele>64.599998474121</ele>
        <time>2023-08-09T08:02:56.000Z</time>
      </trkpt>
      <trkpt lat="50.40818" lon="1.76617">
        <ele>64.800003051758</ele>
        <time>2023-08-09T08:02:58.000Z</time>
      </trkpt>
      <trkpt lat="50.40812" lon="1.76614">
        <ele>65</ele>
        <time>2023-08-09T08:03:00.000Z</time>
      </trkpt>
      <trkpt lat="50.40808" lon="1.76609">
        <ele>65.400001525879</ele>
        <time>2023-08-09T08:03:02.000Z</time>
      </trkpt>
      <trkpt lat="50.40806" lon="1.76608">
        <ele>65.599998474121</ele>
        <time>2023-08-09T08:03:03.000Z</time>
      </trkpt>
      <trkpt lat="50.40803" lon="1.76608">
        <ele>65.800003051758</ele>
        <time>2023-08-09T08:03:04.000Z</time>
      </trkpt>
      <trkpt lat="50.40789" lon="1.76615">
        <ele>66</ele>
        <time>2023-08-09T08:03:08.000Z</time>
      </trkpt>
      <trkpt lat="50.40776" lon="1.76621">
        <ele>66.400001525879</ele>
        <time>2023-08-09T08:03:11.000Z</time>
      </trkpt>
      <trkpt lat="50.40767" lon="1.76627">
        <ele>66.400001525879</ele>
        <time>2023-08-09T08:03:13.000Z</time>
      </trkpt>
      <trkpt lat="50.40762" lon="1.7663">
        <ele>66.599998474121</ele>
        <time>2023-08-09T08:03:14.000Z</time>
      </trkpt>
      <trkpt lat="50.40729" lon="1.7666">
        <ele>67.199996948242</ele>
        <time>2023-08-09T08:03:22.000Z</time>
      </trkpt>
      <trkpt lat="50.40717" lon="1.76672">
        <ele>67.400001525879</ele>
        <time>2023-08-09T08:03:25.000Z</time>
      </trkpt>
      <trkpt lat="50.40685" lon="1.76709">
        <ele>68</ele>
        <time>2023-08-09T08:03:33.000Z</time>
      </trkpt>
      <trkpt lat="50.40665" lon="1.76732">
        <ele>68</ele>
        <time>2023-08-09T08:03:38.000Z</time>
      </trkpt>
      <trkpt lat="50.40656" lon="1.76741">
        <ele>68.199996948242</ele>
        <time>2023-08-09T08:03:40.000Z</time>
      </trkpt>
      <trkpt lat="50.40648" lon="1.7675">
        <ele>68.400001525879</ele>
        <time>2023-08-09T08:03:42.000Z</time>
      </trkpt>
      <trkpt lat="50.40617" lon="1.76778">
        <ele>68.800003051758</ele>
        <time>2023-08-09T08:03:49.000Z</time>
      </trkpt>
      <trkpt lat="50.40602" lon="1.76787">
        <ele>68.800003051758</ele>
        <time>2023-08-09T08:03:52.000Z</time>
      </trkpt>
      <trkpt lat="50.40581" lon="1.76795">
        <ele>69</ele>
        <time>2023-08-09T08:03:56.000Z</time>
      </trkpt>
      <trkpt lat="50.40554" lon="1.76806">
        <ele>69</ele>
        <time>2023-08-09T08:04:01.000Z</time>
      </trkpt>
      <trkpt lat="50.40543" lon="1.76811">
        <ele>69</ele>
        <time>2023-08-09T08:04:03.000Z</time>
      </trkpt>
      <trkpt lat="50.40507" lon="1.7683">
        <ele>69.199996948242</ele>
        <time>2023-08-09T08:04:10.000Z</time>
      </trkpt>
      <trkpt lat="50.40474" lon="1.76856">
        <ele>69.400001525879</ele>
        <time>2023-08-09T08:04:17.000Z</time>
      </trkpt>
      <trkpt lat="50.40461" lon="1.76867">
        <ele>69.400001525879</ele>
        <time>2023-08-09T08:04:20.000Z</time>
      </trkpt>
      <trkpt lat="50.40422" lon="1.76898">
        <ele>69</ele>
        <time>2023-08-09T08:04:28.000Z</time>
      </trkpt>
      <trkpt lat="50.40389" lon="1.7692">
        <ele>68.400001525879</ele>
        <time>2023-08-09T08:04:34.000Z</time>
      </trkpt>
      <trkpt lat="50.40384" lon="1.76922">
        <ele>68.199996948242</ele>
        <time>2023-08-09T08:04:35.000Z</time>
      </trkpt>
      <trkpt lat="50.4034" lon="1.76937">
        <ele>67.400001525879</ele>
        <time>2023-08-09T08:04:42.000Z</time>
      </trkpt>
      <trkpt lat="50.40334" lon="1.76938">
        <ele>67.199996948242</ele>
        <time>2023-08-09T08:04:43.000Z</time>
      </trkpt>
      <trkpt lat="50.40289" lon="1.76939">
        <ele>66.199996948242</ele>
        <time>2023-08-09T08:04:50.000Z</time>
      </trkpt>
      <trkpt lat="50.40256" lon="1.76936">
        <ele>65.800003051758</ele>
        <time>2023-08-09T08:04:55.000Z</time>
      </trkpt>
      <trkpt lat="50.4025" lon="1.76933">
        <ele>65.599998474121</ele>
        <time>2023-08-09T08:04:56.000Z</time>
      </trkpt>
      <trkpt lat="50.40245" lon="1.76926">
        <ele>65.599998474121</ele>
        <time>2023-08-09T08:04:57.000Z</time>
      </trkpt>
      <trkpt lat="50.40237" lon="1.7691">
        <ele>65.400001525879</ele>
        <time>2023-08-09T08:04:59.000Z</time>
      </trkpt>
      <trkpt lat="50.40235" lon="1.76894">
        <ele>65.199996948242</ele>
        <time>2023-08-09T08:05:01.000Z</time>
      </trkpt>
      <trkpt lat="50.40234" lon="1.76886">
        <ele>65.199996948242</ele>
        <time>2023-08-09T08:05:02.000Z</time>
      </trkpt>
      <trkpt lat="50.40232" lon="1.76832">
        <ele>64.800003051758</ele>
        <time>2023-08-09T08:05:08.000Z</time>
      </trkpt>
      <trkpt lat="50.40229" lon="1.76751">
        <ele>64.400001525879</ele>
        <time>2023-08-09T08:05:17.000Z</time>
      </trkpt>
      <trkpt lat="50.40227" lon="1.76698">
        <ele>64.400001525879</ele>
        <time>2023-08-09T08:05:23.000Z</time>
      </trkpt>
      <trkpt lat="50.40228" lon="1.76681">
        <ele>64.199996948242</ele>
        <time>2023-08-09T08:05:25.000Z</time>
      </trkpt>
      <trkpt lat="50.40229" lon="1.76667">
        <ele>64.199996948242</ele>
        <time>2023-08-09T08:05:27.000Z</time>
      </trkpt>
      <trkpt lat="50.4023" lon="1.7665">
        <ele>64.199996948242</ele>
        <time>2023-08-09T08:05:29.000Z</time>
      </trkpt>
      <trkpt lat="50.40229" lon="1.76642">
        <ele>64</ele>
        <time>2023-08-09T08:05:30.000Z</time>
      </trkpt>
      <trkpt lat="50.40228" lon="1.76633">
        <ele>63.799999237061</ele>
        <time>2023-08-09T08:05:31.000Z</time>
      </trkpt>
      <trkpt lat="50.40223" lon="1.76617">
        <ele>63.599998474121</ele>
        <time>2023-08-09T08:05:33.000Z</time>
      </trkpt>
      <trkpt lat="50.40219" lon="1.76608">
        <ele>63.599998474121</ele>
        <time>2023-08-09T08:05:34.000Z</time>
      </trkpt>
      <trkpt lat="50.40214" lon="1.766">
        <ele>63.400001525879</ele>
        <time>2023-08-09T08:05:35.000Z</time>
      </trkpt>
      <trkpt lat="50.40194" lon="1.76573">
        <ele>63</ele>
        <time>2023-08-09T08:05:39.000Z</time>
      </trkpt>
      <trkpt lat="50.40172" lon="1.76542">
        <ele>61.799999237061</ele>
        <time>2023-08-09T08:05:43.000Z</time>
      </trkpt>
      <trkpt lat="50.40161" lon="1.76524">
        <ele>61.200000762939</ele>
        <time>2023-08-09T08:05:45.000Z</time>
      </trkpt>
      <trkpt lat="50.40151" lon="1.76508">
        <ele>60.799999237061</ele>
        <time>2023-08-09T08:05:47.000Z</time>
      </trkpt>
      <trkpt lat="50.40133" lon="1.76475">
        <ele>59.799999237061</ele>
        <time>2023-08-09T08:05:51.000Z</time>
      </trkpt>
      <trkpt lat="50.40129" lon="1.76465">
        <ele>59.599998474121</ele>
        <time>2023-08-09T08:05:52.000Z</time>
      </trkpt>
      <trkpt lat="50.40118" lon="1.76435">
        <ele>58.599998474121</ele>
        <time>2023-08-09T08:05:55.000Z</time>
      </trkpt>
      <trkpt lat="50.40108" lon="1.76414">
        <ele>58.400001525879</ele>
        <time>2023-08-09T08:05:57.000Z</time>
      </trkpt>
      <trkpt lat="50.40103" lon="1.76406">
        <ele>58.400001525879</ele>
        <time>2023-08-09T08:05:58.000Z</time>
      </trkpt>
      <trkpt lat="50.40087" lon="1.76386">
        <ele>58</ele>
        <time>2023-08-09T08:06:01.000Z</time>
      </trkpt>
      <trkpt lat="50.4008" lon="1.7638">
        <ele>57.799999237061</ele>
        <time>2023-08-09T08:06:02.000Z</time>
      </trkpt>
      <trkpt lat="50.40072" lon="1.76373">
        <ele>57.599998474121</ele>
        <time>2023-08-09T08:06:03.000Z</time>
      </trkpt>
      <trkpt lat="50.40067" lon="1.76369">
        <ele>57.599998474121</ele>
        <time>2023-08-09T08:06:04.000Z</time>
      </trkpt>
      <trkpt lat="50.40047" lon="1.7635">
        <ele>56.400001525879</ele>
        <time>2023-08-09T08:06:07.000Z</time>
      </trkpt>
      <trkpt lat="50.4003" lon="1.7633">
        <ele>55.599998474121</ele>
        <time>2023-08-09T08:06:10.000Z</time>
      </trkpt>
      <trkpt lat="50.40025" lon="1.76323">
        <ele>55.400001525879</ele>
        <time>2023-08-09T08:06:11.000Z</time>
      </trkpt>
      <trkpt lat="50.40017" lon="1.76315">
        <ele>55.200000762939</ele>
        <time>2023-08-09T08:06:12.000Z</time>
      </trkpt>
      <trkpt lat="50.40011" lon="1.76312">
        <ele>55</ele>
        <time>2023-08-09T08:06:13.000Z</time>
      </trkpt>
      <trkpt lat="50.40004" lon="1.7631">
        <ele>54.799999237061</ele>
        <time>2023-08-09T08:06:14.000Z</time>
      </trkpt>
      <trkpt lat="50.39981" lon="1.76307">
        <ele>54.200000762939</ele>
        <time>2023-08-09T08:06:17.000Z</time>
      </trkpt>
      <trkpt lat="50.39973" lon="1.76307">
        <ele>54</ele>
        <time>2023-08-09T08:06:18.000Z</time>
      </trkpt>
      <trkpt lat="50.39953" lon="1.76306">
        <ele>53.200000762939</ele>
        <time>2023-08-09T08:06:21.000Z</time>
      </trkpt>
      <trkpt lat="50.39936" lon="1.76302">
        <ele>52.200000762939</ele>
        <time>2023-08-09T08:06:23.000Z</time>
      </trkpt>
      <trkpt lat="50.39929" lon="1.763">
        <ele>52</ele>
        <time>2023-08-09T08:06:24.000Z</time>
      </trkpt>
      <trkpt lat="50.39894" lon="1.7628">
        <ele>50.799999237061</ele>
        <time>2023-08-09T08:06:29.000Z</time>
      </trkpt>
      <trkpt lat="50.39864" lon="1.76267">
        <ele>49.799999237061</ele>
        <time>2023-08-09T08:06:33.000Z</time>
      </trkpt>
      <trkpt lat="50.39844" lon="1.76259">
        <ele>49.200000762939</ele>
        <time>2023-08-09T08:06:36.000Z</time>
      </trkpt>
      <trkpt lat="50.39824" lon="1.7625">
        <ele>48.599998474121</ele>
        <time>2023-08-09T08:06:39.000Z</time>
      </trkpt>
      <trkpt lat="50.3981" lon="1.76245">
        <ele>48.400001525879</ele>
        <time>2023-08-09T08:06:41.000Z</time>
      </trkpt>
      <trkpt lat="50.39802" lon="1.76242">
        <ele>48.200000762939</ele>
        <time>2023-08-09T08:06:42.000Z</time>
      </trkpt>
      <trkpt lat="50.39775" lon="1.76241">
        <ele>47.599998474121</ele>
        <time>2023-08-09T08:06:45.000Z</time>
      </trkpt>
      <trkpt lat="50.39766" lon="1.76242">
        <ele>47.400001525879</ele>
        <time>2023-08-09T08:06:46.000Z</time>
      </trkpt>
      <trkpt lat="50.39737" lon="1.76249">
        <ele>46.200000762939</ele>
        <time>2023-08-09T08:06:50.000Z</time>
      </trkpt>
      <trkpt lat="50.39729" lon="1.7625">
        <ele>46</ele>
        <time>2023-08-09T08:06:51.000Z</time>
      </trkpt>
      <trkpt lat="50.39707" lon="1.76255">
        <ele>45.200000762939</ele>
        <time>2023-08-09T08:06:54.000Z</time>
      </trkpt>
      <trkpt lat="50.39698" lon="1.76256">
        <ele>45</ele>
        <time>2023-08-09T08:06:55.000Z</time>
      </trkpt>
      <trkpt lat="50.39692" lon="1.76255">
        <ele>45</ele>
        <time>2023-08-09T08:06:56.000Z</time>
      </trkpt>
      <trkpt lat="50.39661" lon="1.76239">
        <ele>44.400001525879</ele>
        <time>2023-08-09T08:07:01.000Z</time>
      </trkpt>
      <trkpt lat="50.39643" lon="1.76229">
        <ele>44</ele>
        <time>2023-08-09T08:07:04.000Z</time>
      </trkpt>
      <trkpt lat="50.39621" lon="1.76217">
        <ele>44</ele>
        <time>2023-08-09T08:07:07.000Z</time>
      </trkpt>
      <trkpt lat="50.39591" lon="1.76197">
        <ele>43.400001525879</ele>
        <time>2023-08-09T08:07:12.000Z</time>
      </trkpt>
      <trkpt lat="50.39577" lon="1.7619">
        <ele>43.400001525879</ele>
        <time>2023-08-09T08:07:14.000Z</time>
      </trkpt>
      <trkpt lat="50.39561" lon="1.76186">
        <ele>43.200000762939</ele>
        <time>2023-08-09T08:07:16.000Z</time>
      </trkpt>
      <trkpt lat="50.39555" lon="1.76184">
        <ele>43.200000762939</ele>
        <time>2023-08-09T08:07:17.000Z</time>
      </trkpt>
      <trkpt lat="50.39541" lon="1.76182">
        <ele>42.799999237061</ele>
        <time>2023-08-09T08:07:19.000Z</time>
      </trkpt>
      <trkpt lat="50.3952" lon="1.7618">
        <ele>42.599998474121</ele>
        <time>2023-08-09T08:07:22.000Z</time>
      </trkpt>
      <trkpt lat="50.39473" lon="1.76174">
        <ele>42.400001525879</ele>
        <time>2023-08-09T08:07:30.000Z</time>
      </trkpt>
      <trkpt lat="50.39445" lon="1.76173">
        <ele>43</ele>
        <time>2023-08-09T08:07:35.000Z</time>
      </trkpt>
      <trkpt lat="50.39437" lon="1.76173">
        <ele>43.200000762939</ele>
        <time>2023-08-09T08:07:37.000Z</time>
      </trkpt>
      <trkpt lat="50.39406" lon="1.76173">
        <ele>43.599998474121</ele>
        <time>2023-08-09T08:07:43.000Z</time>
      </trkpt>
      <trkpt lat="50.39387" lon="1.76176">
        <ele>43.799999237061</ele>
        <time>2023-08-09T08:07:47.000Z</time>
      </trkpt>
      <trkpt lat="50.39382" lon="1.76178">
        <ele>44</ele>
        <time>2023-08-09T08:07:48.000Z</time>
      </trkpt>
      <trkpt lat="50.3937" lon="1.76186">
        <ele>43.799999237061</ele>
        <time>2023-08-09T08:07:50.000Z</time>
      </trkpt>
      <trkpt lat="50.3934" lon="1.76205">
        <ele>43</ele>
        <time>2023-08-09T08:07:55.000Z</time>
      </trkpt>
      <trkpt lat="50.39334" lon="1.76209">
        <ele>42.799999237061</ele>
        <time>2023-08-09T08:07:56.000Z</time>
      </trkpt>
      <trkpt lat="50.39306" lon="1.7623">
        <ele>42</ele>
        <time>2023-08-09T08:08:00.000Z</time>
      </trkpt>
      <trkpt lat="50.39298" lon="1.76236">
        <ele>41.599998474121</ele>
        <time>2023-08-09T08:08:01.000Z</time>
      </trkpt>
      <trkpt lat="50.39274" lon="1.76253">
        <ele>40.400001525879</ele>
        <time>2023-08-09T08:08:04.000Z</time>
      </trkpt>
      <trkpt lat="50.39265" lon="1.76259">
        <ele>40.200000762939</ele>
        <time>2023-08-09T08:08:05.000Z</time>
      </trkpt>
      <trkpt lat="50.39239" lon="1.76278">
        <ele>39.200000762939</ele>
        <time>2023-08-09T08:08:08.000Z</time>
      </trkpt>
      <trkpt lat="50.39211" lon="1.76296">
        <ele>37.799999237061</ele>
        <time>2023-08-09T08:08:11.000Z</time>
      </trkpt>
      <trkpt lat="50.39192" lon="1.76307">
        <ele>36.200000762939</ele>
        <time>2023-08-09T08:08:13.000Z</time>
      </trkpt>
      <trkpt lat="50.39174" lon="1.76316">
        <ele>35</ele>
        <time>2023-08-09T08:08:15.000Z</time>
      </trkpt>
      <trkpt lat="50.39148" lon="1.76337">
        <ele>33.599998474121</ele>
        <time>2023-08-09T08:08:18.000Z</time>
      </trkpt>
      <trkpt lat="50.39118" lon="1.76377">
        <ele>32.200000762939</ele>
        <time>2023-08-09T08:08:22.000Z</time>
      </trkpt>
      <trkpt lat="50.39113" lon="1.76385">
        <ele>31.799999237061</ele>
        <time>2023-08-09T08:08:23.000Z</time>
      </trkpt>
      <trkpt lat="50.391" lon="1.76404">
        <ele>31</ele>
        <time>2023-08-09T08:08:25.000Z</time>
      </trkpt>
      <trkpt lat="50.39068" lon="1.76446">
        <ele>30</ele>
        <time>2023-08-09T08:08:30.000Z</time>
      </trkpt>
      <trkpt lat="50.39053" lon="1.76461">
        <ele>29.799999237061</ele>
        <time>2023-08-09T08:08:32.000Z</time>
      </trkpt>
      <trkpt lat="50.39047" lon="1.76467">
        <ele>29.799999237061</ele>
        <time>2023-08-09T08:08:33.000Z</time>
      </trkpt>
      <trkpt lat="50.39034" lon="1.76476">
        <ele>29.39999961853</ele>
        <time>2023-08-09T08:08:35.000Z</time>
      </trkpt>
      <trkpt lat="50.39018" lon="1.76485">
        <ele>29</ele>
        <time>2023-08-09T08:08:37.000Z</time>
      </trkpt>
      <trkpt lat="50.39003" lon="1.76489">
        <ele>28.60000038147</ele>
        <time>2023-08-09T08:08:39.000Z</time>
      </trkpt>
      <trkpt lat="50.38964" lon="1.76495">
        <ele>27.799999237061</ele>
        <time>2023-08-09T08:08:44.000Z</time>
      </trkpt>
      <trkpt lat="50.3895" lon="1.76498">
        <ele>27.60000038147</ele>
        <time>2023-08-09T08:08:46.000Z</time>
      </trkpt>
      <trkpt lat="50.38912" lon="1.76504">
        <ele>27.200000762939</ele>
        <time>2023-08-09T08:08:51.000Z</time>
      </trkpt>
      <trkpt lat="50.38875" lon="1.76509">
        <ele>26.200000762939</ele>
        <time>2023-08-09T08:08:56.000Z</time>
      </trkpt>
      <trkpt lat="50.38859" lon="1.76512">
        <ele>26</ele>
        <time>2023-08-09T08:08:58.000Z</time>
      </trkpt>
      <trkpt lat="50.38852" lon="1.76515">
        <ele>25.799999237061</ele>
        <time>2023-08-09T08:08:59.000Z</time>
      </trkpt>
      <trkpt lat="50.38845" lon="1.76518">
        <ele>25.799999237061</ele>
        <time>2023-08-09T08:09:00.000Z</time>
      </trkpt>
      <trkpt lat="50.38834" lon="1.76528">
        <ele>25.60000038147</ele>
        <time>2023-08-09T08:09:02.000Z</time>
      </trkpt>
      <trkpt lat="50.38827" lon="1.76536">
        <ele>25.60000038147</ele>
        <time>2023-08-09T08:09:03.000Z</time>
      </trkpt>
      <trkpt lat="50.38822" lon="1.76543">
        <ele>25.60000038147</ele>
        <time>2023-08-09T08:09:04.000Z</time>
      </trkpt>
      <trkpt lat="50.3881" lon="1.76565">
        <ele>25.39999961853</ele>
        <time>2023-08-09T08:09:07.000Z</time>
      </trkpt>
      <trkpt lat="50.38789" lon="1.7661">
        <ele>26</ele>
        <time>2023-08-09T08:09:13.000Z</time>
      </trkpt>
      <trkpt lat="50.38764" lon="1.76657">
        <ele>26.799999237061</ele>
        <time>2023-08-09T08:09:20.000Z</time>
      </trkpt>
      <trkpt lat="50.3875" lon="1.7668">
        <ele>27</ele>
        <time>2023-08-09T08:09:24.000Z</time>
      </trkpt>
      <trkpt lat="50.38736" lon="1.76697">
        <ele>27</ele>
        <time>2023-08-09T08:09:27.000Z</time>
      </trkpt>
      <trkpt lat="50.38698" lon="1.76739">
        <ele>26</ele>
        <time>2023-08-09T08:09:35.000Z</time>
      </trkpt>
      <trkpt lat="50.38664" lon="1.76781">
        <ele>25.200000762939</ele>
        <time>2023-08-09T08:09:41.000Z</time>
      </trkpt>
      <trkpt lat="50.38659" lon="1.76788">
        <ele>25</ele>
        <time>2023-08-09T08:09:42.000Z</time>
      </trkpt>
      <trkpt lat="50.38638" lon="1.76817">
        <ele>24.39999961853</ele>
        <time>2023-08-09T08:09:46.000Z</time>
      </trkpt>
      <trkpt lat="50.38632" lon="1.76824">
        <ele>24.200000762939</ele>
        <time>2023-08-09T08:09:47.000Z</time>
      </trkpt>
      <trkpt lat="50.3862" lon="1.76833">
        <ele>24</ele>
        <time>2023-08-09T08:09:49.000Z</time>
      </trkpt>
      <trkpt lat="50.38598" lon="1.76845">
        <ele>23.60000038147</ele>
        <time>2023-08-09T08:09:52.000Z</time>
      </trkpt>
      <trkpt lat="50.38556" lon="1.76853">
        <ele>23</ele>
        <time>2023-08-09T08:09:58.000Z</time>
      </trkpt>
      <trkpt lat="50.38542" lon="1.76856">
        <ele>23</ele>
        <time>2023-08-09T08:10:00.000Z</time>
      </trkpt>
      <trkpt lat="50.38494" lon="1.76865">
        <ele>22.60000038147</ele>
        <time>2023-08-09T08:10:07.000Z</time>
      </trkpt>
      <trkpt lat="50.3844" lon="1.76869">
        <ele>22</ele>
        <time>2023-08-09T08:10:15.000Z</time>
      </trkpt>
      <trkpt lat="50.38432" lon="1.76869">
        <ele>21.60000038147</ele>
        <time>2023-08-09T08:10:16.000Z</time>
      </trkpt>
      <trkpt lat="50.38426" lon="1.7687">
        <ele>21.200000762939</ele>
        <time>2023-08-09T08:10:17.000Z</time>
      </trkpt>
      <trkpt lat="50.3839" lon="1.76869">
        <ele>20.39999961853</ele>
        <time>2023-08-09T08:10:22.000Z</time>
      </trkpt>
      <trkpt lat="50.38348" lon="1.76869">
        <ele>19.799999237061</ele>
        <time>2023-08-09T08:10:28.000Z</time>
      </trkpt>
      <trkpt lat="50.38307" lon="1.76876">
        <ele>19.39999961853</ele>
        <time>2023-08-09T08:10:34.000Z</time>
      </trkpt>
      <trkpt lat="50.38301" lon="1.76878">
        <ele>19.39999961853</ele>
        <time>2023-08-09T08:10:35.000Z</time>
      </trkpt>
      <trkpt lat="50.38245" lon="1.76894">
        <ele>18.60000038147</ele>
        <time>2023-08-09T08:10:43.000Z</time>
      </trkpt>
      <trkpt lat="50.38225" lon="1.76899">
        <ele>18.39999961853</ele>
        <time>2023-08-09T08:10:46.000Z</time>
      </trkpt>
      <trkpt lat="50.3821" lon="1.76904">
        <ele>18.200000762939</ele>
        <time>2023-08-09T08:10:48.000Z</time>
      </trkpt>
      <trkpt lat="50.3816" lon="1.76918">
        <ele>18</ele>
        <time>2023-08-09T08:10:56.000Z</time>
      </trkpt>
      <trkpt lat="50.38103" lon="1.76934">
        <ele>18.200000762939</ele>
        <time>2023-08-09T08:11:05.000Z</time>
      </trkpt>
      <trkpt lat="50.38047" lon="1.7695">
        <ele>18</ele>
        <time>2023-08-09T08:11:14.000Z</time>
      </trkpt>
      <trkpt lat="50.38042" lon="1.76951">
        <ele>18</ele>
        <time>2023-08-09T08:11:15.000Z</time>
      </trkpt>
      <trkpt lat="50.37991" lon="1.76958">
        <ele>17.200000762939</ele>
        <time>2023-08-09T08:11:23.000Z</time>
      </trkpt>
      <trkpt lat="50.37985" lon="1.76958">
        <ele>17.200000762939</ele>
        <time>2023-08-09T08:11:24.000Z</time>
      </trkpt>
      <trkpt lat="50.37941" lon="1.76964">
        <ele>16.200000762939</ele>
        <time>2023-08-09T08:11:30.000Z</time>
      </trkpt>
      <trkpt lat="50.37927" lon="1.76967">
        <ele>16</ele>
        <time>2023-08-09T08:11:32.000Z</time>
      </trkpt>
      <trkpt lat="50.37896" lon="1.76978">
        <ele>15.199999809265</ele>
        <time>2023-08-09T08:11:36.000Z</time>
      </trkpt>
      <trkpt lat="50.37889" lon="1.76981">
        <ele>15</ele>
        <time>2023-08-09T08:11:37.000Z</time>
      </trkpt>
      <trkpt lat="50.37882" lon="1.76984">
        <ele>15</ele>
        <time>2023-08-09T08:11:38.000Z</time>
      </trkpt>
      <trkpt lat="50.37847" lon="1.76999">
        <ele>13.800000190735</ele>
        <time>2023-08-09T08:11:43.000Z</time>
      </trkpt>
      <trkpt lat="50.37824" lon="1.77009">
        <ele>13.199999809265</ele>
        <time>2023-08-09T08:11:46.000Z</time>
      </trkpt>
      <trkpt lat="50.37795" lon="1.77022">
        <ele>12.800000190735</ele>
        <time>2023-08-09T08:11:50.000Z</time>
      </trkpt>
      <trkpt lat="50.37768" lon="1.77033">
        <ele>12.60000038147</ele>
        <time>2023-08-09T08:11:54.000Z</time>
      </trkpt>
      <trkpt lat="50.37712" lon="1.77061">
        <ele>11.800000190735</ele>
        <time>2023-08-09T08:12:02.000Z</time>
      </trkpt>
      <trkpt lat="50.37692" lon="1.77074">
        <ele>11.800000190735</ele>
        <time>2023-08-09T08:12:05.000Z</time>
      </trkpt>
      <trkpt lat="50.37685" lon="1.77078">
        <ele>11.60000038147</ele>
        <time>2023-08-09T08:12:06.000Z</time>
      </trkpt>
      <trkpt lat="50.37638" lon="1.77113">
        <ele>11</ele>
        <time>2023-08-09T08:12:13.000Z</time>
      </trkpt>
      <trkpt lat="50.37585" lon="1.77152">
        <ele>10.800000190735</ele>
        <time>2023-08-09T08:12:20.000Z</time>
      </trkpt>
      <trkpt lat="50.37561" lon="1.77169">
        <ele>10.60000038147</ele>
        <time>2023-08-09T08:12:23.000Z</time>
      </trkpt>
      <trkpt lat="50.37531" lon="1.77185">
        <ele>10.199999809265</ele>
        <time>2023-08-09T08:12:27.000Z</time>
      </trkpt>
      <trkpt lat="50.37498" lon="1.77193">
        <ele>9.6000003814697</ele>
        <time>2023-08-09T08:12:31.000Z</time>
      </trkpt>
      <trkpt lat="50.37479" lon="1.77196">
        <ele>9.3999996185303</ele>
        <time>2023-08-09T08:12:33.000Z</time>
      </trkpt>
      <trkpt lat="50.37424" lon="1.77206">
        <ele>9</ele>
        <time>2023-08-09T08:12:40.000Z</time>
      </trkpt>
      <trkpt lat="50.37406" lon="1.77211">
        <ele>8.8000001907349</ele>
        <time>2023-08-09T08:12:42.000Z</time>
      </trkpt>
      <trkpt lat="50.37399" lon="1.77214">
        <ele>8.6000003814697</ele>
        <time>2023-08-09T08:12:43.000Z</time>
      </trkpt>
      <trkpt lat="50.37391" lon="1.77217">
        <ele>8.6000003814697</ele>
        <time>2023-08-09T08:12:44.000Z</time>
      </trkpt>
      <trkpt lat="50.37354" lon="1.77239">
        <ele>8.1999998092651</ele>
        <time>2023-08-09T08:12:49.000Z</time>
      </trkpt>
      <trkpt lat="50.37311" lon="1.77287">
        <ele>8</ele>
        <time>2023-08-09T08:12:56.000Z</time>
      </trkpt>
      <trkpt lat="50.37303" lon="1.77295">
        <ele>8</ele>
        <time>2023-08-09T08:12:57.000Z</time>
      </trkpt>
      <trkpt lat="50.37275" lon="1.77316">
        <ele>7.5999999046326</ele>
        <time>2023-08-09T08:13:01.000Z</time>
      </trkpt>
      <trkpt lat="50.37236" lon="1.77342">
        <ele>7.5999999046326</ele>
        <time>2023-08-09T08:13:07.000Z</time>
      </trkpt>
      <trkpt lat="50.37231" lon="1.77345">
        <ele>7.5999999046326</ele>
        <time>2023-08-09T08:13:08.000Z</time>
      </trkpt>
      <trkpt lat="50.37204" lon="1.77361">
        <ele>7.5999999046326</ele>
        <time>2023-08-09T08:13:13.000Z</time>
      </trkpt>
      <trkpt lat="50.372" lon="1.77362">
        <ele>7.5999999046326</ele>
        <time>2023-08-09T08:13:14.000Z</time>
      </trkpt>
      <trkpt lat="50.37196" lon="1.77365">
        <ele>7.8000001907349</ele>
        <time>2023-08-09T08:13:15.000Z</time>
      </trkpt>
      <trkpt lat="50.37187" lon="1.77374">
        <ele>7.8000001907349</ele>
        <time>2023-08-09T08:13:17.000Z</time>
      </trkpt>
      <trkpt lat="50.37184" lon="1.77381">
        <ele>8</ele>
        <time>2023-08-09T08:13:18.000Z</time>
      </trkpt>
      <trkpt lat="50.37161" lon="1.77437">
        <ele>8.6000003814697</ele>
        <time>2023-08-09T08:13:26.000Z</time>
      </trkpt>
      <trkpt lat="50.3715" lon="1.7747">
        <ele>9</ele>
        <time>2023-08-09T08:13:31.000Z</time>
      </trkpt>
      <trkpt lat="50.37147" lon="1.77477">
        <ele>9</ele>
        <time>2023-08-09T08:13:32.000Z</time>
      </trkpt>
      <trkpt lat="50.37136" lon="1.77512">
        <ele>9.6000003814697</ele>
        <time>2023-08-09T08:13:37.000Z</time>
      </trkpt>
      <trkpt lat="50.37131" lon="1.77524">
        <ele>9.8000001907349</ele>
        <time>2023-08-09T08:13:39.000Z</time>
      </trkpt>
      <trkpt lat="50.37115" lon="1.77551">
        <ele>10.800000190735</ele>
        <time>2023-08-09T08:13:45.000Z</time>
      </trkpt>
      <trkpt lat="50.37098" lon="1.77559">
        <ele>12</ele>
        <time>2023-08-09T08:13:50.000Z</time>
      </trkpt>
      <trkpt lat="50.37095" lon="1.77559">
        <ele>12.199999809265</ele>
        <time>2023-08-09T08:13:51.000Z</time>
      </trkpt>
      <trkpt lat="50.37092" lon="1.77559">
        <ele>12.39999961853</ele>
        <time>2023-08-09T08:13:52.000Z</time>
      </trkpt>
      <trkpt lat="50.37076" lon="1.77558">
        <ele>13.199999809265</ele>
        <time>2023-08-09T08:13:56.000Z</time>
      </trkpt>
      <trkpt lat="50.37068" lon="1.77557">
        <ele>13.39999961853</ele>
        <time>2023-08-09T08:13:58.000Z</time>
      </trkpt>
      <trkpt lat="50.37057" lon="1.77555">
        <ele>14.199999809265</ele>
        <time>2023-08-09T08:14:01.000Z</time>
      </trkpt>
      <trkpt lat="50.37037" lon="1.77548">
        <ele>14.800000190735</ele>
        <time>2023-08-09T08:14:06.000Z</time>
      </trkpt>
      <trkpt lat="50.37023" lon="1.77543">
        <ele>15.199999809265</ele>
        <time>2023-08-09T08:14:09.000Z</time>
      </trkpt>
      <trkpt lat="50.36999" lon="1.77537">
        <ele>15.199999809265</ele>
        <time>2023-08-09T08:14:14.000Z</time>
      </trkpt>
      <trkpt lat="50.36967" lon="1.77534">
        <ele>14.800000190735</ele>
        <time>2023-08-09T08:14:20.000Z</time>
      </trkpt>
      <trkpt lat="50.36961" lon="1.77535">
        <ele>14.800000190735</ele>
        <time>2023-08-09T08:14:21.000Z</time>
      </trkpt>
      <trkpt lat="50.36955" lon="1.77535">
        <ele>14.800000190735</ele>
        <time>2023-08-09T08:14:22.000Z</time>
      </trkpt>
      <trkpt lat="50.36929" lon="1.7754">
        <ele>14.800000190735</ele>
        <time>2023-08-09T08:14:27.000Z</time>
      </trkpt>
      <trkpt lat="50.36877" lon="1.7755">
        <ele>14.800000190735</ele>
        <time>2023-08-09T08:14:37.000Z</time>
      </trkpt>
      <trkpt lat="50.36842" lon="1.77555">
        <ele>15</ele>
        <time>2023-08-09T08:14:44.000Z</time>
      </trkpt>
      <trkpt lat="50.36818" lon="1.77561">
        <ele>15.60000038147</ele>
        <time>2023-08-09T08:14:49.000Z</time>
      </trkpt>
      <trkpt lat="50.36809" lon="1.77566">
        <ele>15.800000190735</ele>
        <time>2023-08-09T08:14:51.000Z</time>
      </trkpt>
      <trkpt lat="50.368" lon="1.7757">
        <ele>16.39999961853</ele>
        <time>2023-08-09T08:14:53.000Z</time>
      </trkpt>
      <trkpt lat="50.36785" lon="1.77582">
        <ele>17.200000762939</ele>
        <time>2023-08-09T08:14:57.000Z</time>
      </trkpt>
      <trkpt lat="50.36778" lon="1.77588">
        <ele>17.39999961853</ele>
        <time>2023-08-09T08:14:59.000Z</time>
      </trkpt>
      <trkpt lat="50.3675" lon="1.77614">
        <ele>18</ele>
        <time>2023-08-09T08:15:06.000Z</time>
      </trkpt>
      <trkpt lat="50.36739" lon="1.77624">
        <ele>18</ele>
        <time>2023-08-09T08:15:09.000Z</time>
      </trkpt>
      <trkpt lat="50.36721" lon="1.77637">
        <ele>18</ele>
        <time>2023-08-09T08:15:13.000Z</time>
      </trkpt>
      <trkpt lat="50.36704" lon="1.77661">
        <ele>17.39999961853</ele>
        <time>2023-08-09T08:15:17.000Z</time>
      </trkpt>
      <trkpt lat="50.36699" lon="1.7767">
        <ele>16.799999237061</ele>
        <time>2023-08-09T08:15:18.000Z</time>
      </trkpt>
      <trkpt lat="50.36695" lon="1.7768">
        <ele>16.39999961853</ele>
        <time>2023-08-09T08:15:19.000Z</time>
      </trkpt>
      <trkpt lat="50.3669" lon="1.77699">
        <ele>15.39999961853</ele>
        <time>2023-08-09T08:15:21.000Z</time>
      </trkpt>
      <trkpt lat="50.36685" lon="1.77721">
        <ele>15</ele>
        <time>2023-08-09T08:15:23.000Z</time>
      </trkpt>
      <trkpt lat="50.36681" lon="1.77734">
        <ele>14.39999961853</ele>
        <time>2023-08-09T08:15:24.000Z</time>
      </trkpt>
      <trkpt lat="50.36673" lon="1.77753">
        <ele>13.39999961853</ele>
        <time>2023-08-09T08:15:26.000Z</time>
      </trkpt>
      <trkpt lat="50.36668" lon="1.77762">
        <ele>12.39999961853</ele>
        <time>2023-08-09T08:15:27.000Z</time>
      </trkpt>
      <trkpt lat="50.36655" lon="1.77778">
        <ele>11.199999809265</ele>
        <time>2023-08-09T08:15:29.000Z</time>
      </trkpt>
      <trkpt lat="50.36643" lon="1.77784">
        <ele>10</ele>
        <time>2023-08-09T08:15:31.000Z</time>
      </trkpt>
      <trkpt lat="50.36628" lon="1.77785">
        <ele>8.6000003814697</ele>
        <time>2023-08-09T08:15:33.000Z</time>
      </trkpt>
      <trkpt lat="50.36611" lon="1.77785">
        <ele>7.5999999046326</ele>
        <time>2023-08-09T08:15:35.000Z</time>
      </trkpt>
      <trkpt lat="50.36605" lon="1.77785">
        <ele>7</ele>
        <time>2023-08-09T08:15:36.000Z</time>
      </trkpt>
      <trkpt lat="50.36583" lon="1.77785">
        <ele>6.1999998092651</ele>
        <time>2023-08-09T08:15:39.000Z</time>
      </trkpt>
      <trkpt lat="50.36564" lon="1.77785">
        <ele>5.8000001907349</ele>
        <time>2023-08-09T08:15:42.000Z</time>
      </trkpt>
      <trkpt lat="50.36524" lon="1.77792">
        <ele>5.1999998092651</ele>
        <time>2023-08-09T08:15:48.000Z</time>
      </trkpt>
      <trkpt lat="50.36519" lon="1.77794">
        <ele>5.1999998092651</ele>
        <time>2023-08-09T08:15:49.000Z</time>
      </trkpt>
      <trkpt lat="50.36508" lon="1.77798">
        <ele>5</ele>
        <time>2023-08-09T08:15:51.000Z</time>
      </trkpt>
      <trkpt lat="50.36502" lon="1.77798">
        <ele>5</ele>
        <time>2023-08-09T08:15:52.000Z</time>
      </trkpt>
      <trkpt lat="50.3646" lon="1.7781">
        <ele>4.5999999046326</ele>
        <time>2023-08-09T08:16:00.000Z</time>
      </trkpt>
      <trkpt lat="50.36405" lon="1.77826">
        <ele>4.5999999046326</ele>
        <time>2023-08-09T08:16:10.000Z</time>
      </trkpt>
      <trkpt lat="50.36353" lon="1.7784">
        <ele>4.5999999046326</ele>
        <time>2023-08-09T08:16:20.000Z</time>
      </trkpt>
      <trkpt lat="50.36308" lon="1.77852">
        <ele>4</ele>
        <time>2023-08-09T08:16:29.000Z</time>
      </trkpt>
      <trkpt lat="50.36303" lon="1.77853">
        <ele>4</ele>
        <time>2023-08-09T08:16:30.000Z</time>
      </trkpt>
      <trkpt lat="50.36263" lon="1.77864">
        <ele>4.5999999046326</ele>
        <time>2023-08-09T08:16:38.000Z</time>
      </trkpt>
      <trkpt lat="50.36229" lon="1.77874">
        <ele>4.5999999046326</ele>
        <time>2023-08-09T08:16:45.000Z</time>
      </trkpt>
      <trkpt lat="50.3619" lon="1.77884">
        <ele>4.5999999046326</ele>
        <time>2023-08-09T08:16:53.000Z</time>
      </trkpt>
      <trkpt lat="50.36149" lon="1.77896">
        <ele>4.1999998092651</ele>
        <time>2023-08-09T08:17:01.000Z</time>
      </trkpt>
      <trkpt lat="50.36092" lon="1.7791">
        <ele>4.4000000953674</ele>
        <time>2023-08-09T08:17:12.000Z</time>
      </trkpt>
      <trkpt lat="50.36051" lon="1.77918">
        <ele>4.4000000953674</ele>
        <time>2023-08-09T08:17:20.000Z</time>
      </trkpt>
      <trkpt lat="50.3601" lon="1.7793">
        <ele>4.5999999046326</ele>
        <time>2023-08-09T08:17:28.000Z</time>
      </trkpt>
      <trkpt lat="50.35967" lon="1.77942">
        <ele>5</ele>
        <time>2023-08-09T08:17:36.000Z</time>
      </trkpt>
      <trkpt lat="50.35952" lon="1.77947">
        <ele>5.1999998092651</ele>
        <time>2023-08-09T08:17:39.000Z</time>
      </trkpt>
      <trkpt lat="50.35935" lon="1.77952">
        <ele>5.1999998092651</ele>
        <time>2023-08-09T08:17:42.000Z</time>
      </trkpt>
      <trkpt lat="50.35897" lon="1.77962">
        <ele>5.5999999046326</ele>
        <time>2023-08-09T08:17:49.000Z</time>
      </trkpt>
      <trkpt lat="50.35871" lon="1.77969">
        <ele>5.5999999046326</ele>
        <time>2023-08-09T08:17:54.000Z</time>
      </trkpt>
      <trkpt lat="50.35861" lon="1.77968">
        <ele>5.5999999046326</ele>
        <time>2023-08-09T08:17:56.000Z</time>
      </trkpt>
      <trkpt lat="50.35851" lon="1.77961">
        <ele>5.8000001907349</ele>
        <time>2023-08-09T08:17:58.000Z</time>
      </trkpt>
      <trkpt lat="50.35847" lon="1.77956">
        <ele>5.8000001907349</ele>
        <time>2023-08-09T08:17:59.000Z</time>
      </trkpt>
      <trkpt lat="50.35831" lon="1.7792">
        <ele>6.1999998092651</ele>
        <time>2023-08-09T08:18:04.000Z</time>
      </trkpt>
      <trkpt lat="50.35826" lon="1.77907">
        <ele>6.1999998092651</ele>
        <time>2023-08-09T08:18:06.000Z</time>
      </trkpt>
      <trkpt lat="50.35814" lon="1.77875">
        <ele>6.1999998092651</ele>
        <time>2023-08-09T08:18:10.000Z</time>
      </trkpt>
      <trkpt lat="50.35812" lon="1.77858">
        <ele>6.1999998092651</ele>
        <time>2023-08-09T08:18:12.000Z</time>
      </trkpt>
      <trkpt lat="50.35816" lon="1.77816">
        <ele>6.1999998092651</ele>
        <time>2023-08-09T08:18:17.000Z</time>
      </trkpt>
      <trkpt lat="50.3582" lon="1.77799">
        <ele>6.1999998092651</ele>
        <time>2023-08-09T08:18:19.000Z</time>
      </trkpt>
      <trkpt lat="50.35825" lon="1.77767">
        <ele>6.4000000953674</ele>
        <time>2023-08-09T08:18:23.000Z</time>
      </trkpt>
      <trkpt lat="50.35826" lon="1.77742">
        <ele>6.4000000953674</ele>
        <time>2023-08-09T08:18:26.000Z</time>
      </trkpt>
      <trkpt lat="50.35823" lon="1.77725">
        <ele>6.4000000953674</ele>
        <time>2023-08-09T08:18:28.000Z</time>
      </trkpt>
      <trkpt lat="50.35821" lon="1.77717">
        <ele>6.4000000953674</ele>
        <time>2023-08-09T08:18:29.000Z</time>
      </trkpt>
      <trkpt lat="50.35813" lon="1.77696">
        <ele>6.4000000953674</ele>
        <time>2023-08-09T08:18:32.000Z</time>
      </trkpt>
      <trkpt lat="50.3581" lon="1.7769">
        <ele>6.4000000953674</ele>
        <time>2023-08-09T08:18:33.000Z</time>
      </trkpt>
      <trkpt lat="50.35784" lon="1.77638">
        <ele>6.1999998092651</ele>
        <time>2023-08-09T08:18:41.000Z</time>
      </trkpt>
      <trkpt lat="50.35766" lon="1.77601">
        <ele>6.1999998092651</ele>
        <time>2023-08-09T08:18:47.000Z</time>
      </trkpt>
      <trkpt lat="50.35759" lon="1.77597">
        <ele>6</ele>
        <time>2023-08-09T08:18:49.000Z</time>
      </trkpt>
      <trkpt lat="50.35753" lon="1.77597">
        <ele>6</ele>
        <time>2023-08-09T08:18:50.000Z</time>
      </trkpt>
      <trkpt lat="50.35728" lon="1.77604">
        <ele>6</ele>
        <time>2023-08-09T08:18:56.000Z</time>
      </trkpt>
      <trkpt lat="50.35702" lon="1.77613">
        <ele>6.1999998092651</ele>
        <time>2023-08-09T08:19:03.000Z</time>
      </trkpt>
      <trkpt lat="50.35679" lon="1.77619">
        <ele>6.1999998092651</ele>
        <time>2023-08-09T08:19:09.000Z</time>
      </trkpt>
      <trkpt lat="50.35669" lon="1.77621">
        <ele>6.1999998092651</ele>
        <time>2023-08-09T08:19:11.000Z</time>
      </trkpt>
      <trkpt lat="50.35656" lon="1.77625">
        <ele>6.5999999046326</ele>
        <time>2023-08-09T08:19:14.000Z</time>
      </trkpt>
      <trkpt lat="50.35648" lon="1.77626">
        <ele>6.8000001907349</ele>
        <time>2023-08-09T08:19:16.000Z</time>
      </trkpt>
      <trkpt lat="50.35637" lon="1.77626">
        <ele>7.4000000953674</ele>
        <time>2023-08-09T08:19:19.000Z</time>
      </trkpt>
      <trkpt lat="50.35619" lon="1.7763">
        <ele>8.6000003814697</ele>
        <time>2023-08-09T08:19:24.000Z</time>
      </trkpt>
      <trkpt lat="50.35609" lon="1.77642">
        <ele>9.3999996185303</ele>
        <time>2023-08-09T08:19:28.000Z</time>
      </trkpt>
      <trkpt lat="50.35608" lon="1.77648">
        <ele>9.8000001907349</ele>
        <time>2023-08-09T08:19:29.000Z</time>
      </trkpt>
      <trkpt lat="50.35604" lon="1.77674">
        <ele>11.199999809265</ele>
        <time>2023-08-09T08:19:34.000Z</time>
      </trkpt>
      <trkpt lat="50.35602" lon="1.77699">
        <ele>12.60000038147</ele>
        <time>2023-08-09T08:19:39.000Z</time>
      </trkpt>
      <trkpt lat="50.35602" lon="1.77704">
        <ele>12.800000190735</ele>
        <time>2023-08-09T08:19:40.000Z</time>
      </trkpt>
      <trkpt lat="50.35599" lon="1.77723">
        <ele>13.60000038147</ele>
        <time>2023-08-09T08:19:44.000Z</time>
      </trkpt>
      <trkpt lat="50.35598" lon="1.77728">
        <ele>14</ele>
        <time>2023-08-09T08:19:45.000Z</time>
      </trkpt>
      <trkpt lat="50.35597" lon="1.77748">
        <ele>15.199999809265</ele>
        <time>2023-08-09T08:19:49.000Z</time>
      </trkpt>
      <trkpt lat="50.35597" lon="1.77752">
        <ele>15.39999961853</ele>
        <time>2023-08-09T08:19:50.000Z</time>
      </trkpt>
      <trkpt lat="50.35597" lon="1.77771">
        <ele>16</ele>
        <time>2023-08-09T08:19:54.000Z</time>
      </trkpt>
      <trkpt lat="50.35596" lon="1.77791">
        <ele>16.60000038147</ele>
        <time>2023-08-09T08:19:58.000Z</time>
      </trkpt>
      <trkpt lat="50.35597" lon="1.77805">
        <ele>17</ele>
        <time>2023-08-09T08:20:01.000Z</time>
      </trkpt>
      <trkpt lat="50.35594" lon="1.77825">
        <ele>17.799999237061</ele>
        <time>2023-08-09T08:20:05.000Z</time>
      </trkpt>
      <trkpt lat="50.35592" lon="1.77835">
        <ele>18.200000762939</ele>
        <time>2023-08-09T08:20:07.000Z</time>
      </trkpt>
      <trkpt lat="50.35584" lon="1.77877">
        <ele>19.200000762939</ele>
        <time>2023-08-09T08:20:15.000Z</time>
      </trkpt>
      <trkpt lat="50.35583" lon="1.77898">
        <ele>19.39999961853</ele>
        <time>2023-08-09T08:20:18.000Z</time>
      </trkpt>
      <trkpt lat="50.35583" lon="1.77912">
        <ele>19.60000038147</ele>
        <time>2023-08-09T08:20:20.000Z</time>
      </trkpt>
      <trkpt lat="50.35583" lon="1.77929">
        <ele>19.60000038147</ele>
        <time>2023-08-09T08:20:22.000Z</time>
      </trkpt>
      <trkpt lat="50.35584" lon="1.77944">
        <ele>19.60000038147</ele>
        <time>2023-08-09T08:20:24.000Z</time>
      </trkpt>
      <trkpt lat="50.35585" lon="1.77953">
        <ele>19.60000038147</ele>
        <time>2023-08-09T08:20:25.000Z</time>
      </trkpt>
      <trkpt lat="50.35588" lon="1.78017">
        <ele>19.39999961853</ele>
        <time>2023-08-09T08:20:32.000Z</time>
      </trkpt>
      <trkpt lat="50.35591" lon="1.78077">
        <ele>18.39999961853</ele>
        <time>2023-08-09T08:20:38.000Z</time>
      </trkpt>
      <trkpt lat="50.35594" lon="1.78109">
        <ele>18</ele>
        <time>2023-08-09T08:20:41.000Z</time>
      </trkpt>
      <trkpt lat="50.35597" lon="1.78166">
        <ele>17</ele>
        <time>2023-08-09T08:20:47.000Z</time>
      </trkpt>
      <trkpt lat="50.35601" lon="1.78259">
        <ele>16.799999237061</ele>
        <time>2023-08-09T08:20:57.000Z</time>
      </trkpt>
      <trkpt lat="50.35604" lon="1.78338">
        <ele>17.39999961853</ele>
        <time>2023-08-09T08:21:06.000Z</time>
      </trkpt>
      <trkpt lat="50.35609" lon="1.78426">
        <ele>18</ele>
        <time>2023-08-09T08:21:16.000Z</time>
      </trkpt>
      <trkpt lat="50.3561" lon="1.78435">
        <ele>18</ele>
        <time>2023-08-09T08:21:17.000Z</time>
      </trkpt>
      <trkpt lat="50.35619" lon="1.78507">
        <ele>18.799999237061</ele>
        <time>2023-08-09T08:21:25.000Z</time>
      </trkpt>
      <trkpt lat="50.35621" lon="1.78524">
        <ele>19</ele>
        <time>2023-08-09T08:21:27.000Z</time>
      </trkpt>
      <trkpt lat="50.35623" lon="1.78533">
        <ele>19.200000762939</ele>
        <time>2023-08-09T08:21:28.000Z</time>
      </trkpt>
      <trkpt lat="50.35629" lon="1.78567">
        <ele>19.39999961853</ele>
        <time>2023-08-09T08:21:32.000Z</time>
      </trkpt>
      <trkpt lat="50.3564" lon="1.78636">
        <ele>19.60000038147</ele>
        <time>2023-08-09T08:21:40.000Z</time>
      </trkpt>
      <trkpt lat="50.35644" lon="1.78653">
        <ele>19.60000038147</ele>
        <time>2023-08-09T08:21:42.000Z</time>
      </trkpt>
      <trkpt lat="50.35651" lon="1.78677">
        <ele>19.60000038147</ele>
        <time>2023-08-09T08:21:45.000Z</time>
      </trkpt>
      <trkpt lat="50.35656" lon="1.78694">
        <ele>19.60000038147</ele>
        <time>2023-08-09T08:21:47.000Z</time>
      </trkpt>
      <trkpt lat="50.35665" lon="1.78727">
        <ele>19.60000038147</ele>
        <time>2023-08-09T08:21:51.000Z</time>
      </trkpt>
      <trkpt lat="50.35683" lon="1.78795">
        <ele>19.60000038147</ele>
        <time>2023-08-09T08:21:59.000Z</time>
      </trkpt>
      <trkpt lat="50.35698" lon="1.78852">
        <ele>20.200000762939</ele>
        <time>2023-08-09T08:22:06.000Z</time>
      </trkpt>
      <trkpt lat="50.35699" lon="1.7886">
        <ele>20.200000762939</ele>
        <time>2023-08-09T08:22:07.000Z</time>
      </trkpt>
      <trkpt lat="50.3571" lon="1.78896">
        <ele>21</ele>
        <time>2023-08-09T08:22:12.000Z</time>
      </trkpt>
      <trkpt lat="50.35723" lon="1.78943">
        <ele>21.200000762939</ele>
        <time>2023-08-09T08:22:18.000Z</time>
      </trkpt>
      <trkpt lat="50.35728" lon="1.78958">
        <ele>21.39999961853</ele>
        <time>2023-08-09T08:22:20.000Z</time>
      </trkpt>
      <trkpt lat="50.3573" lon="1.78965">
        <ele>21.60000038147</ele>
        <time>2023-08-09T08:22:21.000Z</time>
      </trkpt>
      <trkpt lat="50.35739" lon="1.79001">
        <ele>21.799999237061</ele>
        <time>2023-08-09T08:22:26.000Z</time>
      </trkpt>
      <trkpt lat="50.35756" lon="1.7906">
        <ele>22.200000762939</ele>
        <time>2023-08-09T08:22:34.000Z</time>
      </trkpt>
      <trkpt lat="50.35758" lon="1.79068">
        <ele>22.39999961853</ele>
        <time>2023-08-09T08:22:35.000Z</time>
      </trkpt>
      <trkpt lat="50.35772" lon="1.79121">
        <ele>22.60000038147</ele>
        <time>2023-08-09T08:22:42.000Z</time>
      </trkpt>
      <trkpt lat="50.35775" lon="1.79131">
        <ele>22.60000038147</ele>
        <time>2023-08-09T08:22:43.000Z</time>
      </trkpt>
      <trkpt lat="50.35793" lon="1.792">
        <ele>21.60000038147</ele>
        <time>2023-08-09T08:22:51.000Z</time>
      </trkpt>
      <trkpt lat="50.35803" lon="1.79236">
        <ele>21.39999961853</ele>
        <time>2023-08-09T08:22:55.000Z</time>
      </trkpt>
      <trkpt lat="50.35825" lon="1.79315">
        <ele>20.60000038147</ele>
        <time>2023-08-09T08:23:03.000Z</time>
      </trkpt>
      <trkpt lat="50.35837" lon="1.79354">
        <ele>20</ele>
        <time>2023-08-09T08:23:07.000Z</time>
      </trkpt>
      <trkpt lat="50.35853" lon="1.79413">
        <ele>19.39999961853</ele>
        <time>2023-08-09T08:23:13.000Z</time>
      </trkpt>
      <trkpt lat="50.35863" lon="1.79453">
        <ele>19</ele>
        <time>2023-08-09T08:23:17.000Z</time>
      </trkpt>
      <trkpt lat="50.35868" lon="1.79482">
        <ele>18.799999237061</ele>
        <time>2023-08-09T08:23:20.000Z</time>
      </trkpt>
      <trkpt lat="50.35873" lon="1.79526">
        <ele>18.200000762939</ele>
        <time>2023-08-09T08:23:24.000Z</time>
      </trkpt>
      <trkpt lat="50.35874" lon="1.79536">
        <ele>18.200000762939</ele>
        <time>2023-08-09T08:23:25.000Z</time>
      </trkpt>
      <trkpt lat="50.35875" lon="1.79555">
        <ele>17.799999237061</ele>
        <time>2023-08-09T08:23:27.000Z</time>
      </trkpt>
      <trkpt lat="50.35875" lon="1.79568">
        <ele>17.799999237061</ele>
        <time>2023-08-09T08:23:28.000Z</time>
      </trkpt>
      <trkpt lat="50.35873" lon="1.79599">
        <ele>17.60000038147</ele>
        <time>2023-08-09T08:23:31.000Z</time>
      </trkpt>
      <trkpt lat="50.35871" lon="1.79634">
        <ele>16.60000038147</ele>
        <time>2023-08-09T08:23:34.000Z</time>
      </trkpt>
      <trkpt lat="50.35867" lon="1.79677">
        <ele>16.200000762939</ele>
        <time>2023-08-09T08:23:38.000Z</time>
      </trkpt>
      <trkpt lat="50.35864" lon="1.79706">
        <ele>15.60000038147</ele>
        <time>2023-08-09T08:23:41.000Z</time>
      </trkpt>
      <trkpt lat="50.35859" lon="1.79726">
        <ele>15</ele>
        <time>2023-08-09T08:23:43.000Z</time>
      </trkpt>
      <trkpt lat="50.35857" lon="1.79737">
        <ele>15</ele>
        <time>2023-08-09T08:23:44.000Z</time>
      </trkpt>
      <trkpt lat="50.35853" lon="1.79748">
        <ele>14.39999961853</ele>
        <time>2023-08-09T08:23:45.000Z</time>
      </trkpt>
      <trkpt lat="50.35843" lon="1.79781">
        <ele>13.39999961853</ele>
        <time>2023-08-09T08:23:48.000Z</time>
      </trkpt>
      <trkpt lat="50.35832" lon="1.7982">
        <ele>12.199999809265</ele>
        <time>2023-08-09T08:23:51.000Z</time>
      </trkpt>
      <trkpt lat="50.35829" lon="1.79833">
        <ele>11.60000038147</ele>
        <time>2023-08-09T08:23:52.000Z</time>
      </trkpt>
      <trkpt lat="50.35825" lon="1.79845">
        <ele>11.199999809265</ele>
        <time>2023-08-09T08:23:53.000Z</time>
      </trkpt>
      <trkpt lat="50.35815" lon="1.79884">
        <ele>10</ele>
        <time>2023-08-09T08:23:56.000Z</time>
      </trkpt>
      <trkpt lat="50.35813" lon="1.79896">
        <ele>9.3999996185303</ele>
        <time>2023-08-09T08:23:57.000Z</time>
      </trkpt>
      <trkpt lat="50.3581" lon="1.79909">
        <ele>9.1999998092651</ele>
        <time>2023-08-09T08:23:58.000Z</time>
      </trkpt>
      <trkpt lat="50.35797" lon="1.79959">
        <ele>8.8000001907349</ele>
        <time>2023-08-09T08:24:02.000Z</time>
      </trkpt>
      <trkpt lat="50.35795" lon="1.79971">
        <ele>8.8000001907349</ele>
        <time>2023-08-09T08:24:03.000Z</time>
      </trkpt>
      <trkpt lat="50.35795" lon="1.79982">
        <ele>8.8000001907349</ele>
        <time>2023-08-09T08:24:04.000Z</time>
      </trkpt>
      <trkpt lat="50.35795" lon="1.8">
        <ele>8.8000001907349</ele>
        <time>2023-08-09T08:24:06.000Z</time>
      </trkpt>
      <trkpt lat="50.35797" lon="1.80025">
        <ele>9</ele>
        <time>2023-08-09T08:24:09.000Z</time>
      </trkpt>
      <trkpt lat="50.35797" lon="1.80047">
        <ele>9.8000001907349</ele>
        <time>2023-08-09T08:24:12.000Z</time>
      </trkpt>
      <trkpt lat="50.35797" lon="1.80053">
        <ele>10</ele>
        <time>2023-08-09T08:24:13.000Z</time>
      </trkpt>
      <trkpt lat="50.358" lon="1.80074">
        <ele>11</ele>
        <time>2023-08-09T08:24:17.000Z</time>
      </trkpt>
      <trkpt lat="50.35798" lon="1.80095">
        <ele>11.800000190735</ele>
        <time>2023-08-09T08:24:21.000Z</time>
      </trkpt>
      <trkpt lat="50.35798" lon="1.80104">
        <ele>12.39999961853</ele>
        <time>2023-08-09T08:24:23.000Z</time>
      </trkpt>
      <trkpt lat="50.35794" lon="1.80117">
        <ele>13.199999809265</ele>
        <time>2023-08-09T08:24:26.000Z</time>
      </trkpt>
      <trkpt lat="50.35788" lon="1.80139">
        <ele>14.199999809265</ele>
        <time>2023-08-09T08:24:30.000Z</time>
      </trkpt>
      <trkpt lat="50.35788" lon="1.80143">
        <ele>14.39999961853</ele>
        <time>2023-08-09T08:24:31.000Z</time>
      </trkpt>
      <trkpt lat="50.35778" lon="1.80167">
        <ele>15.60000038147</ele>
        <time>2023-08-09T08:24:36.000Z</time>
      </trkpt>
      <trkpt lat="50.35774" lon="1.8017">
        <ele>15.60000038147</ele>
        <time>2023-08-09T08:24:37.000Z</time>
      </trkpt>
      <trkpt lat="50.35773" lon="1.80176">
        <ele>15.800000190735</ele>
        <time>2023-08-09T08:24:38.000Z</time>
      </trkpt>
      <trkpt lat="50.35769" lon="1.8019">
        <ele>16.60000038147</ele>
        <time>2023-08-09T08:24:41.000Z</time>
      </trkpt>
      <trkpt lat="50.35769" lon="1.80197">
        <ele>17</ele>
        <time>2023-08-09T08:24:42.000Z</time>
      </trkpt>
      <trkpt lat="50.35768" lon="1.80224">
        <ele>17.60000038147</ele>
        <time>2023-08-09T08:24:46.000Z</time>
      </trkpt>
      <trkpt lat="50.35765" lon="1.80237">
        <ele>18</ele>
        <time>2023-08-09T08:24:49.000Z</time>
      </trkpt>
      <trkpt lat="50.3576" lon="1.80251">
        <ele>18.60000038147</ele>
        <time>2023-08-09T08:24:52.000Z</time>
      </trkpt>
      <trkpt lat="50.35758" lon="1.8026">
        <ele>19.200000762939</ele>
        <time>2023-08-09T08:24:54.000Z</time>
      </trkpt>
      <trkpt lat="50.35758" lon="1.80275">
        <ele>19.799999237061</ele>
        <time>2023-08-09T08:24:58.000Z</time>
      </trkpt>
      <trkpt lat="50.35754" lon="1.80283">
        <ele>20.200000762939</ele>
        <time>2023-08-09T08:25:00.000Z</time>
      </trkpt>
      <trkpt lat="50.35749" lon="1.80291">
        <ele>20.60000038147</ele>
        <time>2023-08-09T08:25:02.000Z</time>
      </trkpt>
      <trkpt lat="50.35748" lon="1.80301">
        <ele>21</ele>
        <time>2023-08-09T08:25:04.000Z</time>
      </trkpt>
      <trkpt lat="50.35747" lon="1.80314">
        <ele>21.39999961853</ele>
        <time>2023-08-09T08:25:07.000Z</time>
      </trkpt>
      <trkpt lat="50.35743" lon="1.80322">
        <ele>21.60000038147</ele>
        <time>2023-08-09T08:25:09.000Z</time>
      </trkpt>
      <trkpt lat="50.3574" lon="1.80333">
        <ele>21.799999237061</ele>
        <time>2023-08-09T08:25:12.000Z</time>
      </trkpt>
      <trkpt lat="50.35735" lon="1.80346">
        <ele>22</ele>
        <time>2023-08-09T08:25:15.000Z</time>
      </trkpt>
      <trkpt lat="50.35732" lon="1.80352">
        <ele>22.200000762939</ele>
        <time>2023-08-09T08:25:16.000Z</time>
      </trkpt>
      <trkpt lat="50.3573" lon="1.80358">
        <ele>22.200000762939</ele>
        <time>2023-08-09T08:25:17.000Z</time>
      </trkpt>
      <trkpt lat="50.35727" lon="1.8037">
        <ele>22.200000762939</ele>
        <time>2023-08-09T08:25:19.000Z</time>
      </trkpt>
      <trkpt lat="50.35727" lon="1.80376">
        <ele>22.200000762939</ele>
        <time>2023-08-09T08:25:20.000Z</time>
      </trkpt>
      <trkpt lat="50.35723" lon="1.80402">
        <ele>22.39999961853</ele>
        <time>2023-08-09T08:25:24.000Z</time>
      </trkpt>
      <trkpt lat="50.35718" lon="1.8041">
        <ele>22.39999961853</ele>
        <time>2023-08-09T08:25:25.000Z</time>
      </trkpt>
      <trkpt lat="50.35714" lon="1.80419">
        <ele>22.39999961853</ele>
        <time>2023-08-09T08:25:26.000Z</time>
      </trkpt>
      <trkpt lat="50.3571" lon="1.80447">
        <ele>22.200000762939</ele>
        <time>2023-08-09T08:25:29.000Z</time>
      </trkpt>
      <trkpt lat="50.35704" lon="1.80488">
        <ele>21.60000038147</ele>
        <time>2023-08-09T08:25:34.000Z</time>
      </trkpt>
      <trkpt lat="50.35702" lon="1.80508">
        <ele>21.39999961853</ele>
        <time>2023-08-09T08:25:36.000Z</time>
      </trkpt>
      <trkpt lat="50.35699" lon="1.80528">
        <ele>21.39999961853</ele>
        <time>2023-08-09T08:25:38.000Z</time>
      </trkpt>
      <trkpt lat="50.35697" lon="1.80547">
        <ele>21.200000762939</ele>
        <time>2023-08-09T08:25:40.000Z</time>
      </trkpt>
      <trkpt lat="50.35697" lon="1.80554">
        <ele>21.200000762939</ele>
        <time>2023-08-09T08:25:41.000Z</time>
      </trkpt>
      <trkpt lat="50.35691" lon="1.80594">
        <ele>21.200000762939</ele>
        <time>2023-08-09T08:25:45.000Z</time>
      </trkpt>
      <trkpt lat="50.35684" lon="1.80624">
        <ele>21</ele>
        <time>2023-08-09T08:25:49.000Z</time>
      </trkpt>
      <trkpt lat="50.35676" lon="1.80669">
        <ele>20.39999961853</ele>
        <time>2023-08-09T08:25:54.000Z</time>
      </trkpt>
      <trkpt lat="50.35672" lon="1.80682">
        <ele>20.200000762939</ele>
        <time>2023-08-09T08:25:55.000Z</time>
      </trkpt>
      <trkpt lat="50.35672" lon="1.80691">
        <ele>20.200000762939</ele>
        <time>2023-08-09T08:25:56.000Z</time>
      </trkpt>
      <trkpt lat="50.35671" lon="1.80697">
        <ele>20.200000762939</ele>
        <time>2023-08-09T08:25:57.000Z</time>
      </trkpt>
      <trkpt lat="50.35664" lon="1.80715">
        <ele>20.200000762939</ele>
        <time>2023-08-09T08:25:59.000Z</time>
      </trkpt>
      <trkpt lat="50.35663" lon="1.80723">
        <ele>20.200000762939</ele>
        <time>2023-08-09T08:26:00.000Z</time>
      </trkpt>
      <trkpt lat="50.35655" lon="1.80745">
        <ele>20</ele>
        <time>2023-08-09T08:26:03.000Z</time>
      </trkpt>
      <trkpt lat="50.35655" lon="1.80765">
        <ele>19.799999237061</ele>
        <time>2023-08-09T08:26:05.000Z</time>
      </trkpt>
      <trkpt lat="50.3565" lon="1.8078">
        <ele>19.60000038147</ele>
        <time>2023-08-09T08:26:07.000Z</time>
      </trkpt>
      <trkpt lat="50.35644" lon="1.80797">
        <ele>19.39999961853</ele>
        <time>2023-08-09T08:26:09.000Z</time>
      </trkpt>
      <trkpt lat="50.35637" lon="1.80819">
        <ele>19</ele>
        <time>2023-08-09T08:26:11.000Z</time>
      </trkpt>
      <trkpt lat="50.35636" lon="1.80828">
        <ele>19.200000762939</ele>
        <time>2023-08-09T08:26:12.000Z</time>
      </trkpt>
      <trkpt lat="50.35636" lon="1.80845">
        <ele>18.39999961853</ele>
        <time>2023-08-09T08:26:14.000Z</time>
      </trkpt>
      <trkpt lat="50.3563" lon="1.80861">
        <ele>18.200000762939</ele>
        <time>2023-08-09T08:26:16.000Z</time>
      </trkpt>
      <trkpt lat="50.35624" lon="1.80876">
        <ele>17.799999237061</ele>
        <time>2023-08-09T08:26:18.000Z</time>
      </trkpt>
      <trkpt lat="50.35618" lon="1.80905">
        <ele>17</ele>
        <time>2023-08-09T08:26:21.000Z</time>
      </trkpt>
      <trkpt lat="50.35614" lon="1.80927">
        <ele>16.60000038147</ele>
        <time>2023-08-09T08:26:23.000Z</time>
      </trkpt>
      <trkpt lat="50.356" lon="1.80953">
        <ele>15.800000190735</ele>
        <time>2023-08-09T08:26:26.000Z</time>
      </trkpt>
      <trkpt lat="50.35591" lon="1.80966">
        <ele>15.39999961853</ele>
        <time>2023-08-09T08:26:28.000Z</time>
      </trkpt>
      <trkpt lat="50.35578" lon="1.80985">
        <ele>14.800000190735</ele>
        <time>2023-08-09T08:26:30.000Z</time>
      </trkpt>
      <trkpt lat="50.35566" lon="1.81006">
        <ele>14.199999809265</ele>
        <time>2023-08-09T08:26:32.000Z</time>
      </trkpt>
      <trkpt lat="50.35548" lon="1.81029">
        <ele>13</ele>
        <time>2023-08-09T08:26:35.000Z</time>
      </trkpt>
      <trkpt lat="50.35542" lon="1.81039">
        <ele>12.800000190735</ele>
        <time>2023-08-09T08:26:36.000Z</time>
      </trkpt>
      <trkpt lat="50.35527" lon="1.81071">
        <ele>12.199999809265</ele>
        <time>2023-08-09T08:26:39.000Z</time>
      </trkpt>
      <trkpt lat="50.35504" lon="1.81108">
        <ele>11.800000190735</ele>
        <time>2023-08-09T08:26:43.000Z</time>
      </trkpt>
      <trkpt lat="50.35498" lon="1.81117">
        <ele>11.800000190735</ele>
        <time>2023-08-09T08:26:44.000Z</time>
      </trkpt>
      <trkpt lat="50.35457" lon="1.81163">
        <ele>10.800000190735</ele>
        <time>2023-08-09T08:26:51.000Z</time>
      </trkpt>
      <trkpt lat="50.35435" lon="1.81187">
        <ele>10.39999961853</ele>
        <time>2023-08-09T08:26:55.000Z</time>
      </trkpt>
      <trkpt lat="50.35419" lon="1.81202">
        <ele>10.199999809265</ele>
        <time>2023-08-09T08:26:58.000Z</time>
      </trkpt>
      <trkpt lat="50.35375" lon="1.81235">
        <ele>10</ele>
        <time>2023-08-09T08:27:05.000Z</time>
      </trkpt>
      <trkpt lat="50.35332" lon="1.81251">
        <ele>11</ele>
        <time>2023-08-09T08:27:14.000Z</time>
      </trkpt>
      <trkpt lat="50.35289" lon="1.81275">
        <ele>10.800000190735</ele>
        <time>2023-08-09T08:27:20.000Z</time>
      </trkpt>
      <trkpt lat="50.35236" lon="1.8131">
        <ele>10</ele>
        <time>2023-08-09T08:27:28.000Z</time>
      </trkpt>
      <trkpt lat="50.3523" lon="1.81313">
        <ele>10</ele>
        <time>2023-08-09T08:27:29.000Z</time>
      </trkpt>
      <trkpt lat="50.35196" lon="1.8132">
        <ele>9.3999996185303</ele>
        <time>2023-08-09T08:27:34.000Z</time>
      </trkpt>
      <trkpt lat="50.3519" lon="1.81321">
        <ele>9.3999996185303</ele>
        <time>2023-08-09T08:27:35.000Z</time>
      </trkpt>
      <trkpt lat="50.35137" lon="1.81329">
        <ele>8.8000001907349</ele>
        <time>2023-08-09T08:27:43.000Z</time>
      </trkpt>
      <trkpt lat="50.35127" lon="1.81337">
        <ele>8.8000001907349</ele>
        <time>2023-08-09T08:27:45.000Z</time>
      </trkpt>
      <trkpt lat="50.35107" lon="1.81357">
        <ele>8.8000001907349</ele>
        <time>2023-08-09T08:27:49.000Z</time>
      </trkpt>
      <trkpt lat="50.35082" lon="1.8139">
        <ele>9.1999998092651</ele>
        <time>2023-08-09T08:27:55.000Z</time>
      </trkpt>
      <trkpt lat="50.35067" lon="1.8141">
        <ele>10.199999809265</ele>
        <time>2023-08-09T08:28:00.000Z</time>
      </trkpt>
      <trkpt lat="50.35065" lon="1.81414">
        <ele>10.60000038147</ele>
        <time>2023-08-09T08:28:01.000Z</time>
      </trkpt>
      <trkpt lat="50.35062" lon="1.81421">
        <ele>11.60000038147</ele>
        <time>2023-08-09T08:28:04.000Z</time>
      </trkpt>
      <trkpt lat="50.35057" lon="1.81434">
        <ele>12.39999961853</ele>
        <time>2023-08-09T08:28:06.000Z</time>
      </trkpt>
      <trkpt lat="50.35055" lon="1.81439">
        <ele>13</ele>
        <time>2023-08-09T08:28:08.000Z</time>
      </trkpt>
      <trkpt lat="50.3505" lon="1.81464">
        <ele>14</ele>
        <time>2023-08-09T08:28:12.000Z</time>
      </trkpt>
      <trkpt lat="50.35048" lon="1.81478">
        <ele>15</ele>
        <time>2023-08-09T08:28:15.000Z</time>
      </trkpt>
      <trkpt lat="50.35045" lon="1.81496">
        <ele>16.200000762939</ele>
        <time>2023-08-09T08:28:19.000Z</time>
      </trkpt>
      <trkpt lat="50.35041" lon="1.81505">
        <ele>17.200000762939</ele>
        <time>2023-08-09T08:28:21.000Z</time>
      </trkpt>
      <trkpt lat="50.35039" lon="1.81509">
        <ele>17.200000762939</ele>
        <time>2023-08-09T08:28:22.000Z</time>
      </trkpt>
      <trkpt lat="50.35032" lon="1.81526">
        <ele>18.60000038147</ele>
        <time>2023-08-09T08:28:26.000Z</time>
      </trkpt>
      <trkpt lat="50.35024" lon="1.81541">
        <ele>19.39999961853</ele>
        <time>2023-08-09T08:28:30.000Z</time>
      </trkpt>
      <trkpt lat="50.35022" lon="1.81544">
        <ele>19.60000038147</ele>
        <time>2023-08-09T08:28:31.000Z</time>
      </trkpt>
      <trkpt lat="50.35015" lon="1.81561">
        <ele>21</ele>
        <time>2023-08-09T08:28:35.000Z</time>
      </trkpt>
      <trkpt lat="50.35008" lon="1.81578">
        <ele>21.39999961853</ele>
        <time>2023-08-09T08:28:38.000Z</time>
      </trkpt>
      <trkpt lat="50.34997" lon="1.81611">
        <ele>21.60000038147</ele>
        <time>2023-08-09T08:28:42.000Z</time>
      </trkpt>
      <trkpt lat="50.34973" lon="1.81677">
        <ele>19.39999961853</ele>
        <time>2023-08-09T08:28:49.000Z</time>
      </trkpt>
      <trkpt lat="50.3497" lon="1.81686">
        <ele>19</ele>
        <time>2023-08-09T08:28:50.000Z</time>
      </trkpt>
      <trkpt lat="50.34965" lon="1.81702">
        <ele>18</ele>
        <time>2023-08-09T08:28:52.000Z</time>
      </trkpt>
      <trkpt lat="50.34952" lon="1.81738">
        <ele>16.200000762939</ele>
        <time>2023-08-09T08:28:56.000Z</time>
      </trkpt>
      <trkpt lat="50.34945" lon="1.81756">
        <ele>15.199999809265</ele>
        <time>2023-08-09T08:28:58.000Z</time>
      </trkpt>
      <trkpt lat="50.34941" lon="1.81764">
        <ele>14.60000038147</ele>
        <time>2023-08-09T08:28:59.000Z</time>
      </trkpt>
      <trkpt lat="50.34928" lon="1.81799">
        <ele>13.199999809265</ele>
        <time>2023-08-09T08:29:03.000Z</time>
      </trkpt>
      <trkpt lat="50.34928" lon="1.81799">
        <ele>12.60000038147</ele>
        <time>2023-08-09T08:29:04.000Z</time>
      </trkpt>
      <trkpt lat="50.34923" lon="1.81818">
        <ele>12.199999809265</ele>
        <time>2023-08-09T08:29:05.000Z</time>
      </trkpt>
      <trkpt lat="50.34921" lon="1.81826">
        <ele>11.800000190735</ele>
        <time>2023-08-09T08:29:06.000Z</time>
      </trkpt>
      <trkpt lat="50.3492" lon="1.81846">
        <ele>11</ele>
        <time>2023-08-09T08:29:08.000Z</time>
      </trkpt>
      <trkpt lat="50.34922" lon="1.81861">
        <ele>10.39999961853</ele>
        <time>2023-08-09T08:29:10.000Z</time>
      </trkpt>
      <trkpt lat="50.34924" lon="1.81866">
        <ele>9.3999996185303</ele>
        <time>2023-08-09T08:29:12.000Z</time>
      </trkpt>
      <trkpt lat="50.34927" lon="1.81882">
        <ele>8.8000001907349</ele>
        <time>2023-08-09T08:29:13.000Z</time>
      </trkpt>
      <trkpt lat="50.34928" lon="1.8189">
        <ele>8.6000003814697</ele>
        <time>2023-08-09T08:29:14.000Z</time>
      </trkpt>
      <trkpt lat="50.34928" lon="1.81905">
        <ele>8.1999998092651</ele>
        <time>2023-08-09T08:29:16.000Z</time>
      </trkpt>
      <trkpt lat="50.34927" lon="1.81924">
        <ele>7.5999999046326</ele>
        <time>2023-08-09T08:29:18.000Z</time>
      </trkpt>
      <trkpt lat="50.34924" lon="1.81954">
        <ele>6.4000000953674</ele>
        <time>2023-08-09T08:29:22.000Z</time>
      </trkpt>
      <trkpt lat="50.34922" lon="1.81961">
        <ele>6.1999998092651</ele>
        <time>2023-08-09T08:29:23.000Z</time>
      </trkpt>
      <trkpt lat="50.34921" lon="1.81973">
        <ele>6.1999998092651</ele>
        <time>2023-08-09T08:29:25.000Z</time>
      </trkpt>
      <trkpt lat="50.34914" lon="1.81989">
        <ele>6</ele>
        <time>2023-08-09T08:29:28.000Z</time>
      </trkpt>
      <trkpt lat="50.34903" lon="1.82007">
        <ele>6</ele>
        <time>2023-08-09T08:29:32.000Z</time>
      </trkpt>
      <trkpt lat="50.34896" lon="1.82014">
        <ele>6</ele>
        <time>2023-08-09T08:29:34.000Z</time>
      </trkpt>
      <trkpt lat="50.34892" lon="1.82017">
        <ele>6</ele>
        <time>2023-08-09T08:29:35.000Z</time>
      </trkpt>
      <trkpt lat="50.34884" lon="1.8202">
        <ele>6</ele>
        <time>2023-08-09T08:29:37.000Z</time>
      </trkpt>
      <trkpt lat="50.34867" lon="1.82028">
        <ele>6</ele>
        <time>2023-08-09T08:29:41.000Z</time>
      </trkpt>
      <trkpt lat="50.34846" lon="1.82052">
        <ele>6.1999998092651</ele>
        <time>2023-08-09T08:29:47.000Z</time>
      </trkpt>
      <trkpt lat="50.3484" lon="1.82061">
        <ele>6.1999998092651</ele>
        <time>2023-08-09T08:29:49.000Z</time>
      </trkpt>
      <trkpt lat="50.34831" lon="1.82077">
        <ele>6.1999998092651</ele>
        <time>2023-08-09T08:29:52.000Z</time>
      </trkpt>
      <trkpt lat="50.34828" lon="1.82082">
        <ele>6.4000000953674</ele>
        <time>2023-08-09T08:29:53.000Z</time>
      </trkpt>
      <trkpt lat="50.34818" lon="1.821">
        <ele>6.4000000953674</ele>
        <time>2023-08-09T08:29:56.000Z</time>
      </trkpt>
      <trkpt lat="50.34807" lon="1.82117">
        <ele>6.4000000953674</ele>
        <time>2023-08-09T08:29:59.000Z</time>
      </trkpt>
      <trkpt lat="50.34796" lon="1.82135">
        <ele>6.5999999046326</ele>
        <time>2023-08-09T08:30:02.000Z</time>
      </trkpt>
      <trkpt lat="50.34789" lon="1.82145">
        <ele>6.5999999046326</ele>
        <time>2023-08-09T08:30:04.000Z</time>
      </trkpt>
      <trkpt lat="50.34775" lon="1.82166">
        <ele>6.1999998092651</ele>
        <time>2023-08-09T08:30:08.000Z</time>
      </trkpt>
      <trkpt lat="50.34763" lon="1.82186">
        <ele>6.1999998092651</ele>
        <time>2023-08-09T08:30:11.000Z</time>
      </trkpt>
      <trkpt lat="50.34759" lon="1.82191">
        <ele>6</ele>
        <time>2023-08-09T08:30:12.000Z</time>
      </trkpt>
      <trkpt lat="50.34755" lon="1.82196">
        <ele>6</ele>
        <time>2023-08-09T08:30:13.000Z</time>
      </trkpt>
      <trkpt lat="50.34736" lon="1.82226">
        <ele>6.1999998092651</ele>
        <time>2023-08-09T08:30:18.000Z</time>
      </trkpt>
      <trkpt lat="50.34728" lon="1.8224">
        <ele>6.1999998092651</ele>
        <time>2023-08-09T08:30:20.000Z</time>
      </trkpt>
      <trkpt lat="50.34722" lon="1.82255">
        <ele>6.1999998092651</ele>
        <time>2023-08-09T08:30:22.000Z</time>
      </trkpt>
      <trkpt lat="50.34719" lon="1.82262">
        <ele>6.1999998092651</ele>
        <time>2023-08-09T08:30:23.000Z</time>
      </trkpt>
      <trkpt lat="50.34711" lon="1.8229">
        <ele>6.1999998092651</ele>
        <time>2023-08-09T08:30:26.000Z</time>
      </trkpt>
      <trkpt lat="50.34709" lon="1.82305">
        <ele>6.1999998092651</ele>
        <time>2023-08-09T08:30:28.000Z</time>
      </trkpt>
      <trkpt lat="50.34697" lon="1.82392">
        <ele>6.5999999046326</ele>
        <time>2023-08-09T08:30:38.000Z</time>
      </trkpt>
      <trkpt lat="50.34683" lon="1.82474">
        <ele>7</ele>
        <time>2023-08-09T08:30:48.000Z</time>
      </trkpt>
      <trkpt lat="50.34665" lon="1.82535">
        <ele>6.8000001907349</ele>
        <time>2023-08-09T08:30:56.000Z</time>
      </trkpt>
      <trkpt lat="50.34643" lon="1.82607">
        <ele>7</ele>
        <time>2023-08-09T08:31:06.000Z</time>
      </trkpt>
      <trkpt lat="50.34636" lon="1.8263">
        <ele>7.1999998092651</ele>
        <time>2023-08-09T08:31:11.000Z</time>
      </trkpt>
      <trkpt lat="50.34636" lon="1.82631">
        <ele>7.1999998092651</ele>
        <time>2023-08-09T08:31:15.000Z</time>
      </trkpt>
      <trkpt lat="50.34638" lon="1.82633">
        <ele>7.5999999046326</ele>
        <time>2023-08-09T08:32:25.000Z</time>
      </trkpt>
      <trkpt lat="50.3464" lon="1.82632">
        <ele>7.5999999046326</ele>
        <time>2023-08-09T08:32:27.000Z</time>
      </trkpt>
      <trkpt lat="50.3464" lon="1.82632">
        <ele>7.5999999046326</ele>
        <time>2023-08-09T08:32:28.000Z</time>
      </trkpt>
      <trkpt lat="50.34639" lon="1.82637">
        <ele>7.1999998092651</ele>
        <time>2023-08-09T08:42:06.000Z</time>
      </trkpt>
      <trkpt lat="50.34636" lon="1.82643">
        <ele>7</ele>
        <time>2023-08-09T08:42:08.000Z</time>
      </trkpt>
      <trkpt lat="50.3463" lon="1.82658">
        <ele>7</ele>
        <time>2023-08-09T08:42:11.000Z</time>
      </trkpt>
      <trkpt lat="50.34626" lon="1.82671">
        <ele>7</ele>
        <time>2023-08-09T08:42:13.000Z</time>
      </trkpt>
      <trkpt lat="50.34615" lon="1.82705">
        <ele>7.1999998092651</ele>
        <time>2023-08-09T08:42:20.000Z</time>
      </trkpt>
      <trkpt lat="50.34599" lon="1.82754">
        <ele>7.5999999046326</ele>
        <time>2023-08-09T08:42:27.000Z</time>
      </trkpt>
      <trkpt lat="50.34596" lon="1.82766">
        <ele>7.8000001907349</ele>
        <time>2023-08-09T08:42:29.000Z</time>
      </trkpt>
      <trkpt lat="50.34593" lon="1.82772">
        <ele>7.8000001907349</ele>
        <time>2023-08-09T08:42:30.000Z</time>
      </trkpt>
      <trkpt lat="50.34588" lon="1.82791">
        <ele>8.1999998092651</ele>
        <time>2023-08-09T08:42:33.000Z</time>
      </trkpt>
      <trkpt lat="50.34586" lon="1.82797">
        <ele>8.1999998092651</ele>
        <time>2023-08-09T08:42:34.000Z</time>
      </trkpt>
      <trkpt lat="50.34578" lon="1.82822">
        <ele>8.3999996185303</ele>
        <time>2023-08-09T08:42:38.000Z</time>
      </trkpt>
      <trkpt lat="50.34572" lon="1.82834">
        <ele>8.6000003814697</ele>
        <time>2023-08-09T08:42:40.000Z</time>
      </trkpt>
      <trkpt lat="50.34568" lon="1.82839">
        <ele>8.8000001907349</ele>
        <time>2023-08-09T08:42:41.000Z</time>
      </trkpt>
      <trkpt lat="50.34564" lon="1.82842">
        <ele>8.8000001907349</ele>
        <time>2023-08-09T08:42:42.000Z</time>
      </trkpt>
      <trkpt lat="50.3455" lon="1.82848">
        <ele>9</ele>
        <time>2023-08-09T08:42:45.000Z</time>
      </trkpt>
      <trkpt lat="50.34541" lon="1.82847">
        <ele>9</ele>
        <time>2023-08-09T08:42:47.000Z</time>
      </trkpt>
      <trkpt lat="50.34531" lon="1.82842">
        <ele>9</ele>
        <time>2023-08-09T08:42:49.000Z</time>
      </trkpt>
      <trkpt lat="50.34524" lon="1.82838">
        <ele>9.1999998092651</ele>
        <time>2023-08-09T08:42:51.000Z</time>
      </trkpt>
      <trkpt lat="50.34506" lon="1.82829">
        <ele>9.3999996185303</ele>
        <time>2023-08-09T08:42:55.000Z</time>
      </trkpt>
      <trkpt lat="50.34502" lon="1.82826">
        <ele>9.3999996185303</ele>
        <time>2023-08-09T08:42:56.000Z</time>
      </trkpt>
      <trkpt lat="50.34472" lon="1.8281">
        <ele>10.199999809265</ele>
        <time>2023-08-09T08:43:03.000Z</time>
      </trkpt>
      <trkpt lat="50.34467" lon="1.82809">
        <ele>10.199999809265</ele>
        <time>2023-08-09T08:43:04.000Z</time>
      </trkpt>
      <trkpt lat="50.34441" lon="1.82805">
        <ele>10.800000190735</ele>
        <time>2023-08-09T08:43:10.000Z</time>
      </trkpt>
      <trkpt lat="50.34432" lon="1.82807">
        <ele>11</ele>
        <time>2023-08-09T08:43:12.000Z</time>
      </trkpt>
      <trkpt lat="50.34426" lon="1.82815">
        <ele>11.39999961853</ele>
        <time>2023-08-09T08:43:14.000Z</time>
      </trkpt>
      <trkpt lat="50.34422" lon="1.82826">
        <ele>11.60000038147</ele>
        <time>2023-08-09T08:43:16.000Z</time>
      </trkpt>
      <trkpt lat="50.34418" lon="1.82841">
        <ele>11.800000190735</ele>
        <time>2023-08-09T08:43:18.000Z</time>
      </trkpt>
      <trkpt lat="50.3441" lon="1.82882">
        <ele>12.199999809265</ele>
        <time>2023-08-09T08:43:24.000Z</time>
      </trkpt>
      <trkpt lat="50.34409" lon="1.8289">
        <ele>12.199999809265</ele>
        <time>2023-08-09T08:43:25.000Z</time>
      </trkpt>
      <trkpt lat="50.34405" lon="1.82929">
        <ele>12.39999961853</ele>
        <time>2023-08-09T08:43:30.000Z</time>
      </trkpt>
      <trkpt lat="50.34404" lon="1.82944">
        <ele>12.39999961853</ele>
        <time>2023-08-09T08:43:32.000Z</time>
      </trkpt>
      <trkpt lat="50.34402" lon="1.82966">
        <ele>12.60000038147</ele>
        <time>2023-08-09T08:43:35.000Z</time>
      </trkpt>
      <trkpt lat="50.34399" lon="1.82981">
        <ele>12.60000038147</ele>
        <time>2023-08-09T08:43:37.000Z</time>
      </trkpt>
      <trkpt lat="50.34386" lon="1.8304">
        <ele>13</ele>
        <time>2023-08-09T08:43:45.000Z</time>
      </trkpt>
      <trkpt lat="50.34374" lon="1.8309">
        <ele>13</ele>
        <time>2023-08-09T08:43:51.000Z</time>
      </trkpt>
      <trkpt lat="50.34362" lon="1.83151">
        <ele>13</ele>
        <time>2023-08-09T08:43:59.000Z</time>
      </trkpt>
      <trkpt lat="50.34344" lon="1.83233">
        <ele>13.199999809265</ele>
        <time>2023-08-09T08:44:09.000Z</time>
      </trkpt>
      <trkpt lat="50.34328" lon="1.83276">
        <ele>13</ele>
        <time>2023-08-09T08:44:15.000Z</time>
      </trkpt>
      <trkpt lat="50.34307" lon="1.8332">
        <ele>13.199999809265</ele>
        <time>2023-08-09T08:44:22.000Z</time>
      </trkpt>
      <trkpt lat="50.34304" lon="1.83325">
        <ele>13.199999809265</ele>
        <time>2023-08-09T08:44:23.000Z</time>
      </trkpt>
      <trkpt lat="50.34293" lon="1.83347">
        <ele>13.60000038147</ele>
        <time>2023-08-09T08:44:27.000Z</time>
      </trkpt>
      <trkpt lat="50.34289" lon="1.83361">
        <ele>13.60000038147</ele>
        <time>2023-08-09T08:44:29.000Z</time>
      </trkpt>
      <trkpt lat="50.34274" lon="1.83402">
        <ele>13.800000190735</ele>
        <time>2023-08-09T08:44:34.000Z</time>
      </trkpt>
      <trkpt lat="50.34256" lon="1.8345">
        <ele>13.199999809265</ele>
        <time>2023-08-09T08:44:39.000Z</time>
      </trkpt>
      <trkpt lat="50.3424" lon="1.83481">
        <ele>12.199999809265</ele>
        <time>2023-08-09T08:44:43.000Z</time>
      </trkpt>
      <trkpt lat="50.34232" lon="1.83493">
        <ele>12</ele>
        <time>2023-08-09T08:44:45.000Z</time>
      </trkpt>
      <trkpt lat="50.34228" lon="1.83498">
        <ele>12</ele>
        <time>2023-08-09T08:44:46.000Z</time>
      </trkpt>
      <trkpt lat="50.34214" lon="1.8351">
        <ele>11.800000190735</ele>
        <time>2023-08-09T08:44:49.000Z</time>
      </trkpt>
      <trkpt lat="50.34209" lon="1.83513">
        <ele>12</ele>
        <time>2023-08-09T08:44:50.000Z</time>
      </trkpt>
      <trkpt lat="50.34191" lon="1.83519">
        <ele>12.199999809265</ele>
        <time>2023-08-09T08:44:55.000Z</time>
      </trkpt>
      <trkpt lat="50.3418" lon="1.83524">
        <ele>12.39999961853</ele>
        <time>2023-08-09T08:45:00.000Z</time>
      </trkpt>
      <trkpt lat="50.34167" lon="1.8354">
        <ele>12.60000038147</ele>
        <time>2023-08-09T08:45:05.000Z</time>
      </trkpt>
      <trkpt lat="50.3416" lon="1.83548">
        <ele>12.199999809265</ele>
        <time>2023-08-09T08:45:07.000Z</time>
      </trkpt>
      <trkpt lat="50.34149" lon="1.83566">
        <ele>12.199999809265</ele>
        <time>2023-08-09T08:45:10.000Z</time>
      </trkpt>
      <trkpt lat="50.3413" lon="1.83613">
        <ele>12</ele>
        <time>2023-08-09T08:45:17.000Z</time>
      </trkpt>
      <trkpt lat="50.34127" lon="1.83619">
        <ele>12</ele>
        <time>2023-08-09T08:45:18.000Z</time>
      </trkpt>
      <trkpt lat="50.34121" lon="1.83635">
        <ele>12.60000038147</ele>
        <time>2023-08-09T08:45:21.000Z</time>
      </trkpt>
      <trkpt lat="50.34115" lon="1.8365">
        <ele>13.39999961853</ele>
        <time>2023-08-09T08:45:24.000Z</time>
      </trkpt>
      <trkpt lat="50.34111" lon="1.83667">
        <ele>14</ele>
        <time>2023-08-09T08:45:27.000Z</time>
      </trkpt>
      <trkpt lat="50.34109" lon="1.83679">
        <ele>14.800000190735</ele>
        <time>2023-08-09T08:45:29.000Z</time>
      </trkpt>
      <trkpt lat="50.341" lon="1.83713">
        <ele>15.800000190735</ele>
        <time>2023-08-09T08:45:35.000Z</time>
      </trkpt>
      <trkpt lat="50.34097" lon="1.83725">
        <ele>16</ele>
        <time>2023-08-09T08:45:37.000Z</time>
      </trkpt>
      <trkpt lat="50.34084" lon="1.83773">
        <ele>15.800000190735</ele>
        <time>2023-08-09T08:45:44.000Z</time>
      </trkpt>
      <trkpt lat="50.34081" lon="1.83794">
        <ele>15.39999961853</ele>
        <time>2023-08-09T08:45:46.000Z</time>
      </trkpt>
      <trkpt lat="50.34078" lon="1.83805">
        <ele>15.199999809265</ele>
        <time>2023-08-09T08:45:47.000Z</time>
      </trkpt>
      <trkpt lat="50.34069" lon="1.8384">
        <ele>14.800000190735</ele>
        <time>2023-08-09T08:45:50.000Z</time>
      </trkpt>
      <trkpt lat="50.34062" lon="1.83862">
        <ele>14.39999961853</ele>
        <time>2023-08-09T08:45:52.000Z</time>
      </trkpt>
      <trkpt lat="50.34059" lon="1.83874">
        <ele>14.199999809265</ele>
        <time>2023-08-09T08:45:53.000Z</time>
      </trkpt>
      <trkpt lat="50.34055" lon="1.83892">
        <ele>14</ele>
        <time>2023-08-09T08:45:55.000Z</time>
      </trkpt>
      <trkpt lat="50.34052" lon="1.83902">
        <ele>13.800000190735</ele>
        <time>2023-08-09T08:45:56.000Z</time>
      </trkpt>
      <trkpt lat="50.34048" lon="1.83913">
        <ele>13.60000038147</ele>
        <time>2023-08-09T08:45:57.000Z</time>
      </trkpt>
      <trkpt lat="50.3404" lon="1.8394">
        <ele>13.39999961853</ele>
        <time>2023-08-09T08:46:00.000Z</time>
      </trkpt>
      <trkpt lat="50.34033" lon="1.83957">
        <ele>13.199999809265</ele>
        <time>2023-08-09T08:46:02.000Z</time>
      </trkpt>
      <trkpt lat="50.34022" lon="1.83979">
        <ele>12.800000190735</ele>
        <time>2023-08-09T08:46:04.000Z</time>
      </trkpt>
      <trkpt lat="50.34016" lon="1.84002">
        <ele>12.800000190735</ele>
        <time>2023-08-09T08:46:06.000Z</time>
      </trkpt>
      <trkpt lat="50.34008" lon="1.84024">
        <ele>12.60000038147</ele>
        <time>2023-08-09T08:46:08.000Z</time>
      </trkpt>
      <trkpt lat="50.33999" lon="1.84038">
        <ele>12.60000038147</ele>
        <time>2023-08-09T08:46:10.000Z</time>
      </trkpt>
      <trkpt lat="50.33995" lon="1.84043">
        <ele>12.60000038147</ele>
        <time>2023-08-09T08:46:11.000Z</time>
      </trkpt>
      <trkpt lat="50.33984" lon="1.84073">
        <ele>12.39999961853</ele>
        <time>2023-08-09T08:46:14.000Z</time>
      </trkpt>
      <trkpt lat="50.33977" lon="1.84083">
        <ele>12.39999961853</ele>
        <time>2023-08-09T08:46:16.000Z</time>
      </trkpt>
      <trkpt lat="50.33973" lon="1.84089">
        <ele>12.39999961853</ele>
        <time>2023-08-09T08:46:17.000Z</time>
      </trkpt>
      <trkpt lat="50.33965" lon="1.8411">
        <ele>12.39999961853</ele>
        <time>2023-08-09T08:46:20.000Z</time>
      </trkpt>
      <trkpt lat="50.33961" lon="1.8412">
        <ele>12.39999961853</ele>
        <time>2023-08-09T08:46:22.000Z</time>
      </trkpt>
      <trkpt lat="50.33957" lon="1.84126">
        <ele>12.60000038147</ele>
        <time>2023-08-09T08:46:25.000Z</time>
      </trkpt>
      <trkpt lat="50.33958" lon="1.84125">
        <ele>12.199999809265</ele>
        <time>2023-08-09T08:46:29.000Z</time>
      </trkpt>
      <trkpt lat="50.33953" lon="1.84126">
        <ele>11.39999961853</ele>
        <time>2023-08-09T08:47:13.000Z</time>
      </trkpt>
      <trkpt lat="50.33944" lon="1.84141">
        <ele>11.199999809265</ele>
        <time>2023-08-09T08:47:17.000Z</time>
      </trkpt>
      <trkpt lat="50.33931" lon="1.84158">
        <ele>11.199999809265</ele>
        <time>2023-08-09T08:47:21.000Z</time>
      </trkpt>
      <trkpt lat="50.33907" lon="1.84193">
        <ele>11.39999961853</ele>
        <time>2023-08-09T08:47:27.000Z</time>
      </trkpt>
      <trkpt lat="50.33887" lon="1.84221">
        <ele>11.199999809265</ele>
        <time>2023-08-09T08:47:32.000Z</time>
      </trkpt>
      <trkpt lat="50.33867" lon="1.84251">
        <ele>11.39999961853</ele>
        <time>2023-08-09T08:47:37.000Z</time>
      </trkpt>
      <trkpt lat="50.33864" lon="1.84255">
        <ele>11.39999961853</ele>
        <time>2023-08-09T08:47:38.000Z</time>
      </trkpt>
      <trkpt lat="50.33838" lon="1.84292">
        <ele>11.60000038147</ele>
        <time>2023-08-09T08:47:44.000Z</time>
      </trkpt>
      <trkpt lat="50.33808" lon="1.84335">
        <ele>11.199999809265</ele>
        <time>2023-08-09T08:47:51.000Z</time>
      </trkpt>
      <trkpt lat="50.33778" lon="1.84372">
        <ele>10.800000190735</ele>
        <time>2023-08-09T08:47:57.000Z</time>
      </trkpt>
      <trkpt lat="50.33762" lon="1.84397">
        <ele>10.199999809265</ele>
        <time>2023-08-09T08:48:01.000Z</time>
      </trkpt>
      <trkpt lat="50.3375" lon="1.84416">
        <ele>10</ele>
        <time>2023-08-09T08:48:04.000Z</time>
      </trkpt>
      <trkpt lat="50.33726" lon="1.84462">
        <ele>10</ele>
        <time>2023-08-09T08:48:11.000Z</time>
      </trkpt>
      <trkpt lat="50.33715" lon="1.84481">
        <ele>10.199999809265</ele>
        <time>2023-08-09T08:48:14.000Z</time>
      </trkpt>
      <trkpt lat="50.3368" lon="1.84544">
        <ele>10.199999809265</ele>
        <time>2023-08-09T08:48:23.000Z</time>
      </trkpt>
      <trkpt lat="50.33654" lon="1.84592">
        <ele>10</ele>
        <time>2023-08-09T08:48:30.000Z</time>
      </trkpt>
      <trkpt lat="50.33635" lon="1.84629">
        <ele>10.39999961853</ele>
        <time>2023-08-09T08:48:36.000Z</time>
      </trkpt>
      <trkpt lat="50.33612" lon="1.84674">
        <ele>11</ele>
        <time>2023-08-09T08:48:43.000Z</time>
      </trkpt>
      <trkpt lat="50.33608" lon="1.84681">
        <ele>11.199999809265</ele>
        <time>2023-08-09T08:48:44.000Z</time>
      </trkpt>
      <trkpt lat="50.33587" lon="1.84729">
        <ele>11.800000190735</ele>
        <time>2023-08-09T08:48:52.000Z</time>
      </trkpt>
      <trkpt lat="50.33574" lon="1.84756">
        <ele>12.199999809265</ele>
        <time>2023-08-09T08:48:57.000Z</time>
      </trkpt>
      <trkpt lat="50.33566" lon="1.84772">
        <ele>12.60000038147</ele>
        <time>2023-08-09T08:49:00.000Z</time>
      </trkpt>
      <trkpt lat="50.33565" lon="1.84777">
        <ele>12.800000190735</ele>
        <time>2023-08-09T08:49:01.000Z</time>
      </trkpt>
      <trkpt lat="50.33557" lon="1.84794">
        <ele>13.199999809265</ele>
        <time>2023-08-09T08:49:04.000Z</time>
      </trkpt>
      <trkpt lat="50.33549" lon="1.84814">
        <ele>14.199999809265</ele>
        <time>2023-08-09T08:49:08.000Z</time>
      </trkpt>
      <trkpt lat="50.33546" lon="1.8482">
        <ele>14.39999961853</ele>
        <time>2023-08-09T08:49:09.000Z</time>
      </trkpt>
      <trkpt lat="50.3353" lon="1.84859">
        <ele>15.199999809265</ele>
        <time>2023-08-09T08:49:17.000Z</time>
      </trkpt>
      <trkpt lat="50.33528" lon="1.84864">
        <ele>15.39999961853</ele>
        <time>2023-08-09T08:49:18.000Z</time>
      </trkpt>
      <trkpt lat="50.33509" lon="1.849">
        <ele>16.200000762939</ele>
        <time>2023-08-09T08:49:25.000Z</time>
      </trkpt>
      <trkpt lat="50.33503" lon="1.84911">
        <ele>16.39999961853</ele>
        <time>2023-08-09T08:49:27.000Z</time>
      </trkpt>
      <trkpt lat="50.3348" lon="1.84948">
        <ele>16.60000038147</ele>
        <time>2023-08-09T08:49:34.000Z</time>
      </trkpt>
      <trkpt lat="50.33466" lon="1.84969">
        <ele>16.799999237061</ele>
        <time>2023-08-09T08:49:38.000Z</time>
      </trkpt>
      <trkpt lat="50.33456" lon="1.84984">
        <ele>16.799999237061</ele>
        <time>2023-08-09T08:49:41.000Z</time>
      </trkpt>
      <trkpt lat="50.33431" lon="1.85026">
        <ele>17</ele>
        <time>2023-08-09T08:49:48.000Z</time>
      </trkpt>
      <trkpt lat="50.33409" lon="1.85053">
        <ele>16.60000038147</ele>
        <time>2023-08-09T08:49:53.000Z</time>
      </trkpt>
      <trkpt lat="50.33403" lon="1.85059">
        <ele>16.39999961853</ele>
        <time>2023-08-09T08:49:54.000Z</time>
      </trkpt>
      <trkpt lat="50.33393" lon="1.85067">
        <ele>16</ele>
        <time>2023-08-09T08:49:56.000Z</time>
      </trkpt>
      <trkpt lat="50.3338" lon="1.8508">
        <ele>16</ele>
        <time>2023-08-09T08:49:59.000Z</time>
      </trkpt>
      <trkpt lat="50.33346" lon="1.85117">
        <ele>16.39999961853</ele>
        <time>2023-08-09T08:50:07.000Z</time>
      </trkpt>
      <trkpt lat="50.3332" lon="1.85149">
        <ele>16.60000038147</ele>
        <time>2023-08-09T08:50:14.000Z</time>
      </trkpt>
      <trkpt lat="50.33317" lon="1.85153">
        <ele>16.799999237061</ele>
        <time>2023-08-09T08:50:15.000Z</time>
      </trkpt>
      <trkpt lat="50.33276" lon="1.85205">
        <ele>17.200000762939</ele>
        <time>2023-08-09T08:50:25.000Z</time>
      </trkpt>
      <trkpt lat="50.33238" lon="1.85252">
        <ele>16.799999237061</ele>
        <time>2023-08-09T08:50:34.000Z</time>
      </trkpt>
      <trkpt lat="50.33194" lon="1.85304">
        <ele>16.799999237061</ele>
        <time>2023-08-09T08:50:44.000Z</time>
      </trkpt>
      <trkpt lat="50.33189" lon="1.85309">
        <ele>16.799999237061</ele>
        <time>2023-08-09T08:50:45.000Z</time>
      </trkpt>
      <trkpt lat="50.33159" lon="1.8534">
        <ele>16.799999237061</ele>
        <time>2023-08-09T08:50:52.000Z</time>
      </trkpt>
      <trkpt lat="50.33142" lon="1.85358">
        <ele>17.200000762939</ele>
        <time>2023-08-09T08:50:56.000Z</time>
      </trkpt>
      <trkpt lat="50.33134" lon="1.85371">
        <ele>17.39999961853</ele>
        <time>2023-08-09T08:50:58.000Z</time>
      </trkpt>
      <trkpt lat="50.33117" lon="1.85402">
        <ele>17.39999961853</ele>
        <time>2023-08-09T08:51:02.000Z</time>
      </trkpt>
      <trkpt lat="50.33114" lon="1.85411">
        <ele>17.200000762939</ele>
        <time>2023-08-09T08:51:03.000Z</time>
      </trkpt>
      <trkpt lat="50.33111" lon="1.85421">
        <ele>16.799999237061</ele>
        <time>2023-08-09T08:51:04.000Z</time>
      </trkpt>
      <trkpt lat="50.33103" lon="1.85464">
        <ele>16</ele>
        <time>2023-08-09T08:51:08.000Z</time>
      </trkpt>
      <trkpt lat="50.33086" lon="1.85527">
        <ele>15</ele>
        <time>2023-08-09T08:51:14.000Z</time>
      </trkpt>
      <trkpt lat="50.33079" lon="1.85547">
        <ele>14.60000038147</ele>
        <time>2023-08-09T08:51:16.000Z</time>
      </trkpt>
      <trkpt lat="50.33067" lon="1.85575">
        <ele>14</ele>
        <time>2023-08-09T08:51:19.000Z</time>
      </trkpt>
      <trkpt lat="50.33041" lon="1.85632">
        <ele>12.800000190735</ele>
        <time>2023-08-09T08:51:25.000Z</time>
      </trkpt>
      <trkpt lat="50.33038" lon="1.8564">
        <ele>12.800000190735</ele>
        <time>2023-08-09T08:51:26.000Z</time>
      </trkpt>
      <trkpt lat="50.33008" lon="1.857">
        <ele>12.199999809265</ele>
        <time>2023-08-09T08:51:33.000Z</time>
      </trkpt>
      <trkpt lat="50.33" lon="1.85708">
        <ele>12</ele>
        <time>2023-08-09T08:51:35.000Z</time>
      </trkpt>
      <trkpt lat="50.32995" lon="1.85707">
        <ele>11.800000190735</ele>
        <time>2023-08-09T08:51:36.000Z</time>
      </trkpt>
      <trkpt lat="50.3299" lon="1.85704">
        <ele>11.800000190735</ele>
        <time>2023-08-09T08:51:37.000Z</time>
      </trkpt>
      <trkpt lat="50.32974" lon="1.85689">
        <ele>11.39999961853</ele>
        <time>2023-08-09T08:51:40.000Z</time>
      </trkpt>
      <trkpt lat="50.32922" lon="1.85642">
        <ele>11.199999809265</ele>
        <time>2023-08-09T08:51:50.000Z</time>
      </trkpt>
      <trkpt lat="50.32876" lon="1.85605">
        <ele>11.39999961853</ele>
        <time>2023-08-09T08:51:59.000Z</time>
      </trkpt>
      <trkpt lat="50.32829" lon="1.85574">
        <ele>11.800000190735</ele>
        <time>2023-08-09T08:52:08.000Z</time>
      </trkpt>
      <trkpt lat="50.32824" lon="1.8557">
        <ele>12</ele>
        <time>2023-08-09T08:52:09.000Z</time>
      </trkpt>
      <trkpt lat="50.328" lon="1.8555">
        <ele>12</ele>
        <time>2023-08-09T08:52:14.000Z</time>
      </trkpt>
      <trkpt lat="50.3279" lon="1.85535">
        <ele>12.39999961853</ele>
        <time>2023-08-09T08:52:17.000Z</time>
      </trkpt>
      <trkpt lat="50.32776" lon="1.85512">
        <ele>12.60000038147</ele>
        <time>2023-08-09T08:52:21.000Z</time>
      </trkpt>
      <trkpt lat="50.32768" lon="1.85499">
        <ele>12.60000038147</ele>
        <time>2023-08-09T08:52:23.000Z</time>
      </trkpt>
      <trkpt lat="50.32753" lon="1.85467">
        <ele>12.60000038147</ele>
        <time>2023-08-09T08:52:28.000Z</time>
      </trkpt>
      <trkpt lat="50.32745" lon="1.85459">
        <ele>12.800000190735</ele>
        <time>2023-08-09T08:52:30.000Z</time>
      </trkpt>
      <trkpt lat="50.32741" lon="1.85458">
        <ele>13</ele>
        <time>2023-08-09T08:52:31.000Z</time>
      </trkpt>
      <trkpt lat="50.32709" lon="1.85462">
        <ele>13.39999961853</ele>
        <time>2023-08-09T08:52:38.000Z</time>
      </trkpt>
      <trkpt lat="50.32678" lon="1.8547">
        <ele>14</ele>
        <time>2023-08-09T08:52:45.000Z</time>
      </trkpt>
      <trkpt lat="50.32675" lon="1.85471">
        <ele>14.199999809265</ele>
        <time>2023-08-09T08:52:46.000Z</time>
      </trkpt>
      <trkpt lat="50.32639" lon="1.85485">
        <ele>14.800000190735</ele>
        <time>2023-08-09T08:52:55.000Z</time>
      </trkpt>
      <trkpt lat="50.32623" lon="1.8549">
        <ele>15.199999809265</ele>
        <time>2023-08-09T08:52:59.000Z</time>
      </trkpt>
      <trkpt lat="50.32603" lon="1.85497">
        <ele>16</ele>
        <time>2023-08-09T08:53:04.000Z</time>
      </trkpt>
      <trkpt lat="50.32596" lon="1.855">
        <ele>16.200000762939</ele>
        <time>2023-08-09T08:53:06.000Z</time>
      </trkpt>
      <trkpt lat="50.32562" lon="1.85512">
        <ele>17.200000762939</ele>
        <time>2023-08-09T08:53:15.000Z</time>
      </trkpt>
      <trkpt lat="50.32559" lon="1.85513">
        <ele>17.200000762939</ele>
        <time>2023-08-09T08:53:16.000Z</time>
      </trkpt>
      <trkpt lat="50.32537" lon="1.85521">
        <ele>18.200000762939</ele>
        <time>2023-08-09T08:53:22.000Z</time>
      </trkpt>
      <trkpt lat="50.3253" lon="1.85524">
        <ele>18.60000038147</ele>
        <time>2023-08-09T08:53:24.000Z</time>
      </trkpt>
      <trkpt lat="50.32505" lon="1.85535">
        <ele>19.39999961853</ele>
        <time>2023-08-09T08:53:31.000Z</time>
      </trkpt>
      <trkpt lat="50.32502" lon="1.85537">
        <ele>19.60000038147</ele>
        <time>2023-08-09T08:53:32.000Z</time>
      </trkpt>
      <trkpt lat="50.32483" lon="1.85551">
        <ele>20.39999961853</ele>
        <time>2023-08-09T08:53:38.000Z</time>
      </trkpt>
      <trkpt lat="50.32477" lon="1.85554">
        <ele>20.799999237061</ele>
        <time>2023-08-09T08:53:40.000Z</time>
      </trkpt>
      <trkpt lat="50.32465" lon="1.85561">
        <ele>21.39999961853</ele>
        <time>2023-08-09T08:53:44.000Z</time>
      </trkpt>
      <trkpt lat="50.32462" lon="1.85562">
        <ele>21.60000038147</ele>
        <time>2023-08-09T08:53:45.000Z</time>
      </trkpt>
      <trkpt lat="50.32446" lon="1.85576">
        <ele>22.39999961853</ele>
        <time>2023-08-09T08:53:51.000Z</time>
      </trkpt>
      <trkpt lat="50.32443" lon="1.85578">
        <ele>22.39999961853</ele>
        <time>2023-08-09T08:53:52.000Z</time>
      </trkpt>
      <trkpt lat="50.3242" lon="1.85598">
        <ele>23.39999961853</ele>
        <time>2023-08-09T08:53:59.000Z</time>
      </trkpt>
      <trkpt lat="50.32417" lon="1.85601">
        <ele>23.60000038147</ele>
        <time>2023-08-09T08:54:00.000Z</time>
      </trkpt>
      <trkpt lat="50.32396" lon="1.85622">
        <ele>24.799999237061</ele>
        <time>2023-08-09T08:54:07.000Z</time>
      </trkpt>
      <trkpt lat="50.32372" lon="1.85637">
        <ele>25.799999237061</ele>
        <time>2023-08-09T08:54:15.000Z</time>
      </trkpt>
      <trkpt lat="50.32356" lon="1.85655">
        <ele>27</ele>
        <time>2023-08-09T08:54:21.000Z</time>
      </trkpt>
      <trkpt lat="50.32344" lon="1.85666">
        <ele>28</ele>
        <time>2023-08-09T08:54:26.000Z</time>
      </trkpt>
      <trkpt lat="50.32341" lon="1.85672">
        <ele>28.39999961853</ele>
        <time>2023-08-09T08:54:28.000Z</time>
      </trkpt>
      <trkpt lat="50.32334" lon="1.85683">
        <ele>28.799999237061</ele>
        <time>2023-08-09T08:54:31.000Z</time>
      </trkpt>
      <trkpt lat="50.32325" lon="1.85694">
        <ele>29.39999961853</ele>
        <time>2023-08-09T08:54:35.000Z</time>
      </trkpt>
      <trkpt lat="50.3232" lon="1.857">
        <ele>30</ele>
        <time>2023-08-09T08:54:38.000Z</time>
      </trkpt>
      <trkpt lat="50.32318" lon="1.85701">
        <ele>30</ele>
        <time>2023-08-09T08:54:39.000Z</time>
      </trkpt>
      <trkpt lat="50.32315" lon="1.85703">
        <ele>30</ele>
        <time>2023-08-09T08:54:40.000Z</time>
      </trkpt>
      <trkpt lat="50.32304" lon="1.85712">
        <ele>31.200000762939</ele>
        <time>2023-08-09T08:54:45.000Z</time>
      </trkpt>
      <trkpt lat="50.32301" lon="1.85714">
        <ele>31.39999961853</ele>
        <time>2023-08-09T08:54:46.000Z</time>
      </trkpt>
      <trkpt lat="50.32299" lon="1.85715">
        <ele>31.60000038147</ele>
        <time>2023-08-09T08:54:47.000Z</time>
      </trkpt>
      <trkpt lat="50.32295" lon="1.8572">
        <ele>32.200000762939</ele>
        <time>2023-08-09T08:54:49.000Z</time>
      </trkpt>
      <trkpt lat="50.32293" lon="1.85724">
        <ele>32.400001525879</ele>
        <time>2023-08-09T08:54:50.000Z</time>
      </trkpt>
      <trkpt lat="50.32292" lon="1.85726">
        <ele>32.799999237061</ele>
        <time>2023-08-09T08:54:51.000Z</time>
      </trkpt>
      <trkpt lat="50.32285" lon="1.85736">
        <ele>33.400001525879</ele>
        <time>2023-08-09T08:54:54.000Z</time>
      </trkpt>
      <trkpt lat="50.32283" lon="1.85737">
        <ele>33.400001525879</ele>
        <time>2023-08-09T08:54:55.000Z</time>
      </trkpt>
      <trkpt lat="50.32271" lon="1.85746">
        <ele>34</ele>
        <time>2023-08-09T08:55:00.000Z</time>
      </trkpt>
      <trkpt lat="50.32268" lon="1.85748">
        <ele>34.400001525879</ele>
        <time>2023-08-09T08:55:01.000Z</time>
      </trkpt>
      <trkpt lat="50.32262" lon="1.85754">
        <ele>34.799999237061</ele>
        <time>2023-08-09T08:55:03.000Z</time>
      </trkpt>
      <trkpt lat="50.32255" lon="1.85759">
        <ele>35.400001525879</ele>
        <time>2023-08-09T08:55:06.000Z</time>
      </trkpt>
      <trkpt lat="50.32251" lon="1.8576">
        <ele>35.599998474121</ele>
        <time>2023-08-09T08:55:07.000Z</time>
      </trkpt>
      <trkpt lat="50.32242" lon="1.85768">
        <ele>36.599998474121</ele>
        <time>2023-08-09T08:55:11.000Z</time>
      </trkpt>
      <trkpt lat="50.32237" lon="1.85775">
        <ele>36.599998474121</ele>
        <time>2023-08-09T08:55:13.000Z</time>
      </trkpt>
      <trkpt lat="50.32221" lon="1.85789">
        <ele>37.599998474121</ele>
        <time>2023-08-09T08:55:20.000Z</time>
      </trkpt>
      <trkpt lat="50.32216" lon="1.85798">
        <ele>38</ele>
        <time>2023-08-09T08:55:22.000Z</time>
      </trkpt>
      <trkpt lat="50.32206" lon="1.85814">
        <ele>38.599998474121</ele>
        <time>2023-08-09T08:55:28.000Z</time>
      </trkpt>
      <trkpt lat="50.32204" lon="1.85816">
        <ele>39</ele>
        <time>2023-08-09T08:55:29.000Z</time>
      </trkpt>
      <trkpt lat="50.32197" lon="1.85821">
        <ele>39.400001525879</ele>
        <time>2023-08-09T08:55:31.000Z</time>
      </trkpt>
      <trkpt lat="50.32191" lon="1.85829">
        <ele>40</ele>
        <time>2023-08-09T08:55:34.000Z</time>
      </trkpt>
      <trkpt lat="50.32187" lon="1.85834">
        <ele>40.400001525879</ele>
        <time>2023-08-09T08:55:36.000Z</time>
      </trkpt>
      <trkpt lat="50.32177" lon="1.85846">
        <ele>41.200000762939</ele>
        <time>2023-08-09T08:55:40.000Z</time>
      </trkpt>
      <trkpt lat="50.32172" lon="1.85848">
        <ele>41.400001525879</ele>
        <time>2023-08-09T08:55:42.000Z</time>
      </trkpt>
      <trkpt lat="50.32163" lon="1.85857">
        <ele>42</ele>
        <time>2023-08-09T08:55:46.000Z</time>
      </trkpt>
      <trkpt lat="50.32155" lon="1.85868">
        <ele>42.599998474121</ele>
        <time>2023-08-09T08:55:49.000Z</time>
      </trkpt>
      <trkpt lat="50.32151" lon="1.85872">
        <ele>43.200000762939</ele>
        <time>2023-08-09T08:55:51.000Z</time>
      </trkpt>
      <trkpt lat="50.32141" lon="1.85891">
        <ele>44.400001525879</ele>
        <time>2023-08-09T08:55:56.000Z</time>
      </trkpt>
      <trkpt lat="50.32139" lon="1.859">
        <ele>45</ele>
        <time>2023-08-09T08:55:58.000Z</time>
      </trkpt>
      <trkpt lat="50.32135" lon="1.8591">
        <ele>45.400001525879</ele>
        <time>2023-08-09T08:56:01.000Z</time>
      </trkpt>
      <trkpt lat="50.32131" lon="1.85919">
        <ele>46</ele>
        <time>2023-08-09T08:56:03.000Z</time>
      </trkpt>
      <trkpt lat="50.32127" lon="1.85926">
        <ele>46.599998474121</ele>
        <time>2023-08-09T08:56:05.000Z</time>
      </trkpt>
      <trkpt lat="50.32117" lon="1.85937">
        <ele>48</ele>
        <time>2023-08-09T08:56:10.000Z</time>
      </trkpt>
      <trkpt lat="50.32116" lon="1.8594">
        <ele>48</ele>
        <time>2023-08-09T08:56:11.000Z</time>
      </trkpt>
      <trkpt lat="50.32108" lon="1.85949">
        <ele>49</ele>
        <time>2023-08-09T08:56:15.000Z</time>
      </trkpt>
      <trkpt lat="50.32104" lon="1.85954">
        <ele>49.400001525879</ele>
        <time>2023-08-09T08:56:17.000Z</time>
      </trkpt>
      <trkpt lat="50.32098" lon="1.85963">
        <ele>50</ele>
        <time>2023-08-09T08:56:20.000Z</time>
      </trkpt>
      <trkpt lat="50.32093" lon="1.85967">
        <ele>50.400001525879</ele>
        <time>2023-08-09T08:56:22.000Z</time>
      </trkpt>
      <trkpt lat="50.32083" lon="1.85977">
        <ele>51</ele>
        <time>2023-08-09T08:56:26.000Z</time>
      </trkpt>
      <trkpt lat="50.32076" lon="1.85985">
        <ele>51.400001525879</ele>
        <time>2023-08-09T08:56:29.000Z</time>
      </trkpt>
      <trkpt lat="50.32068" lon="1.85992">
        <ele>52</ele>
        <time>2023-08-09T08:56:32.000Z</time>
      </trkpt>
      <trkpt lat="50.3206" lon="1.86001">
        <ele>53</ele>
        <time>2023-08-09T08:56:36.000Z</time>
      </trkpt>
      <trkpt lat="50.32054" lon="1.86005">
        <ele>53.599998474121</ele>
        <time>2023-08-09T08:56:38.000Z</time>
      </trkpt>
      <trkpt lat="50.32043" lon="1.86016">
        <ele>54</ele>
        <time>2023-08-09T08:56:43.000Z</time>
      </trkpt>
      <trkpt lat="50.32041" lon="1.86019">
        <ele>54.200000762939</ele>
        <time>2023-08-09T08:56:44.000Z</time>
      </trkpt>
      <trkpt lat="50.32039" lon="1.86021">
        <ele>54.400001525879</ele>
        <time>2023-08-09T08:56:45.000Z</time>
      </trkpt>
      <trkpt lat="50.32025" lon="1.86033">
        <ele>55.200000762939</ele>
        <time>2023-08-09T08:56:51.000Z</time>
      </trkpt>
      <trkpt lat="50.32021" lon="1.86039">
        <ele>55.599998474121</ele>
        <time>2023-08-09T08:56:53.000Z</time>
      </trkpt>
      <trkpt lat="50.32016" lon="1.86043">
        <ele>56.200000762939</ele>
        <time>2023-08-09T08:56:55.000Z</time>
      </trkpt>
      <trkpt lat="50.32002" lon="1.86059">
        <ele>57.400001525879</ele>
        <time>2023-08-09T08:57:01.000Z</time>
      </trkpt>
      <trkpt lat="50.32" lon="1.86061">
        <ele>57.400001525879</ele>
        <time>2023-08-09T08:57:02.000Z</time>
      </trkpt>
      <trkpt lat="50.31983" lon="1.8608">
        <ele>58.400001525879</ele>
        <time>2023-08-09T08:57:09.000Z</time>
      </trkpt>
      <trkpt lat="50.3198" lon="1.86082">
        <ele>58.400001525879</ele>
        <time>2023-08-09T08:57:10.000Z</time>
      </trkpt>
      <trkpt lat="50.31959" lon="1.86103">
        <ele>59.599998474121</ele>
        <time>2023-08-09T08:57:18.000Z</time>
      </trkpt>
      <trkpt lat="50.31954" lon="1.86109">
        <ele>59.799999237061</ele>
        <time>2023-08-09T08:57:20.000Z</time>
      </trkpt>
      <trkpt lat="50.31941" lon="1.86124">
        <ele>60.599998474121</ele>
        <time>2023-08-09T08:57:25.000Z</time>
      </trkpt>
      <trkpt lat="50.31927" lon="1.8614">
        <ele>61.200000762939</ele>
        <time>2023-08-09T08:57:30.000Z</time>
      </trkpt>
      <trkpt lat="50.31901" lon="1.86165">
        <ele>61.799999237061</ele>
        <time>2023-08-09T08:57:39.000Z</time>
      </trkpt>
      <trkpt lat="50.31882" lon="1.86182">
        <ele>62.400001525879</ele>
        <time>2023-08-09T08:57:45.000Z</time>
      </trkpt>
      <trkpt lat="50.31861" lon="1.86201">
        <ele>62.799999237061</ele>
        <time>2023-08-09T08:57:51.000Z</time>
      </trkpt>
      <trkpt lat="50.3185" lon="1.8621">
        <ele>63</ele>
        <time>2023-08-09T08:57:54.000Z</time>
      </trkpt>
      <trkpt lat="50.31845" lon="1.86213">
        <ele>63</ele>
        <time>2023-08-09T08:57:55.000Z</time>
      </trkpt>
      <trkpt lat="50.31842" lon="1.86216">
        <ele>63</ele>
        <time>2023-08-09T08:57:56.000Z</time>
      </trkpt>
      <trkpt lat="50.31823" lon="1.86232">
        <ele>63.799999237061</ele>
        <time>2023-08-09T08:58:01.000Z</time>
      </trkpt>
      <trkpt lat="50.31801" lon="1.8625">
        <ele>63.599998474121</ele>
        <time>2023-08-09T08:58:07.000Z</time>
      </trkpt>
      <trkpt lat="50.31797" lon="1.86252">
        <ele>63.599998474121</ele>
        <time>2023-08-09T08:58:08.000Z</time>
      </trkpt>
      <trkpt lat="50.31792" lon="1.86254">
        <ele>63.599998474121</ele>
        <time>2023-08-09T08:58:09.000Z</time>
      </trkpt>
      <trkpt lat="50.31783" lon="1.86252">
        <ele>63.400001525879</ele>
        <time>2023-08-09T08:58:11.000Z</time>
      </trkpt>
      <trkpt lat="50.31779" lon="1.86249">
        <ele>63.400001525879</ele>
        <time>2023-08-09T08:58:12.000Z</time>
      </trkpt>
      <trkpt lat="50.31745" lon="1.86237">
        <ele>63.599998474121</ele>
        <time>2023-08-09T08:58:19.000Z</time>
      </trkpt>
      <trkpt lat="50.317" lon="1.86234">
        <ele>63</ele>
        <time>2023-08-09T08:58:28.000Z</time>
      </trkpt>
      <trkpt lat="50.31689" lon="1.86233">
        <ele>63</ele>
        <time>2023-08-09T08:58:30.000Z</time>
      </trkpt>
      <trkpt lat="50.31661" lon="1.86231">
        <ele>62.799999237061</ele>
        <time>2023-08-09T08:58:35.000Z</time>
      </trkpt>
      <trkpt lat="50.31614" lon="1.8623">
        <ele>63</ele>
        <time>2023-08-09T08:58:43.000Z</time>
      </trkpt>
      <trkpt lat="50.31558" lon="1.86227">
        <ele>63.200000762939</ele>
        <time>2023-08-09T08:58:52.000Z</time>
      </trkpt>
      <trkpt lat="50.31544" lon="1.86226">
        <ele>63.200000762939</ele>
        <time>2023-08-09T08:58:54.000Z</time>
      </trkpt>
      <trkpt lat="50.31489" lon="1.86227">
        <ele>63</ele>
        <time>2023-08-09T08:59:03.000Z</time>
      </trkpt>
      <trkpt lat="50.31482" lon="1.86228">
        <ele>62.799999237061</ele>
        <time>2023-08-09T08:59:04.000Z</time>
      </trkpt>
      <trkpt lat="50.31434" lon="1.86244">
        <ele>62.400001525879</ele>
        <time>2023-08-09T08:59:12.000Z</time>
      </trkpt>
      <trkpt lat="50.31379" lon="1.86276">
        <ele>62</ele>
        <time>2023-08-09T08:59:20.000Z</time>
      </trkpt>
      <trkpt lat="50.31372" lon="1.8628">
        <ele>61.799999237061</ele>
        <time>2023-08-09T08:59:21.000Z</time>
      </trkpt>
      <trkpt lat="50.31321" lon="1.8631">
        <ele>60.599998474121</ele>
        <time>2023-08-09T08:59:28.000Z</time>
      </trkpt>
      <trkpt lat="50.31265" lon="1.86343">
        <ele>59.599998474121</ele>
        <time>2023-08-09T08:59:35.000Z</time>
      </trkpt>
      <trkpt lat="50.31256" lon="1.86348">
        <ele>59.400001525879</ele>
        <time>2023-08-09T08:59:36.000Z</time>
      </trkpt>
      <trkpt lat="50.31208" lon="1.86377">
        <ele>58.400001525879</ele>
        <time>2023-08-09T08:59:42.000Z</time>
      </trkpt>
      <trkpt lat="50.31202" lon="1.8638">
        <ele>58.400001525879</ele>
        <time>2023-08-09T08:59:43.000Z</time>
      </trkpt>
      <trkpt lat="50.31147" lon="1.86406">
        <ele>57.400001525879</ele>
        <time>2023-08-09T08:59:50.000Z</time>
      </trkpt>
      <trkpt lat="50.31139" lon="1.86408">
        <ele>57.200000762939</ele>
        <time>2023-08-09T08:59:51.000Z</time>
      </trkpt>
      <trkpt lat="50.31081" lon="1.86421">
        <ele>56.599998474121</ele>
        <time>2023-08-09T08:59:58.000Z</time>
      </trkpt>
      <trkpt lat="50.31067" lon="1.86424">
        <ele>56.400001525879</ele>
        <time>2023-08-09T09:00:00.000Z</time>
      </trkpt>
      <trkpt lat="50.31049" lon="1.86428">
        <ele>56.200000762939</ele>
        <time>2023-08-09T09:00:02.000Z</time>
      </trkpt>
      <trkpt lat="50.30993" lon="1.86439">
        <ele>55.400001525879</ele>
        <time>2023-08-09T09:00:09.000Z</time>
      </trkpt>
      <trkpt lat="50.3097" lon="1.86445">
        <ele>55.400001525879</ele>
        <time>2023-08-09T09:00:12.000Z</time>
      </trkpt>
      <trkpt lat="50.30962" lon="1.86447">
        <ele>55.200000762939</ele>
        <time>2023-08-09T09:00:13.000Z</time>
      </trkpt>
      <trkpt lat="50.30909" lon="1.86458">
        <ele>54.599998474121</ele>
        <time>2023-08-09T09:00:20.000Z</time>
      </trkpt>
      <trkpt lat="50.30853" lon="1.8647">
        <ele>55</ele>
        <time>2023-08-09T09:00:28.000Z</time>
      </trkpt>
      <trkpt lat="50.30795" lon="1.86483">
        <ele>55.799999237061</ele>
        <time>2023-08-09T09:00:37.000Z</time>
      </trkpt>
      <trkpt lat="50.3074" lon="1.86505">
        <ele>56.200000762939</ele>
        <time>2023-08-09T09:00:46.000Z</time>
      </trkpt>
      <trkpt lat="50.30735" lon="1.86508">
        <ele>56.400001525879</ele>
        <time>2023-08-09T09:00:47.000Z</time>
      </trkpt>
      <trkpt lat="50.30729" lon="1.86511">
        <ele>56.400001525879</ele>
        <time>2023-08-09T09:00:48.000Z</time>
      </trkpt>
      <trkpt lat="50.30677" lon="1.86539">
        <ele>56.400001525879</ele>
        <time>2023-08-09T09:00:56.000Z</time>
      </trkpt>
      <trkpt lat="50.30672" lon="1.86541">
        <ele>56.400001525879</ele>
        <time>2023-08-09T09:00:57.000Z</time>
      </trkpt>
      <trkpt lat="50.30619" lon="1.8657">
        <ele>56.599998474121</ele>
        <time>2023-08-09T09:01:05.000Z</time>
      </trkpt>
      <trkpt lat="50.30588" lon="1.86587">
        <ele>56.799999237061</ele>
        <time>2023-08-09T09:01:10.000Z</time>
      </trkpt>
      <trkpt lat="50.30556" lon="1.86603">
        <ele>57</ele>
        <time>2023-08-09T09:01:15.000Z</time>
      </trkpt>
      <trkpt lat="50.3053" lon="1.86617">
        <ele>57</ele>
        <time>2023-08-09T09:01:19.000Z</time>
      </trkpt>
      <trkpt lat="50.30479" lon="1.86645">
        <ele>57.200000762939</ele>
        <time>2023-08-09T09:01:27.000Z</time>
      </trkpt>
      <trkpt lat="50.30473" lon="1.86649">
        <ele>57.400001525879</ele>
        <time>2023-08-09T09:01:28.000Z</time>
      </trkpt>
      <trkpt lat="50.30454" lon="1.86659">
        <ele>57.599998474121</ele>
        <time>2023-08-09T09:01:31.000Z</time>
      </trkpt>
      <trkpt lat="50.304" lon="1.86688">
        <ele>57.799999237061</ele>
        <time>2023-08-09T09:01:39.000Z</time>
      </trkpt>
      <trkpt lat="50.30367" lon="1.86706">
        <ele>57.799999237061</ele>
        <time>2023-08-09T09:01:44.000Z</time>
      </trkpt>
      <trkpt lat="50.30315" lon="1.86734">
        <ele>57.799999237061</ele>
        <time>2023-08-09T09:01:52.000Z</time>
      </trkpt>
      <trkpt lat="50.30302" lon="1.86741">
        <ele>57.599998474121</ele>
        <time>2023-08-09T09:01:54.000Z</time>
      </trkpt>
      <trkpt lat="50.3025" lon="1.86768">
        <ele>57.599998474121</ele>
        <time>2023-08-09T09:02:02.000Z</time>
      </trkpt>
      <trkpt lat="50.30232" lon="1.86779">
        <ele>57.599998474121</ele>
        <time>2023-08-09T09:02:05.000Z</time>
      </trkpt>
      <trkpt lat="50.30177" lon="1.86808">
        <ele>57.599998474121</ele>
        <time>2023-08-09T09:02:13.000Z</time>
      </trkpt>
      <trkpt lat="50.30157" lon="1.86818">
        <ele>57.599998474121</ele>
        <time>2023-08-09T09:02:16.000Z</time>
      </trkpt>
      <trkpt lat="50.30104" lon="1.86847">
        <ele>57.799999237061</ele>
        <time>2023-08-09T09:02:24.000Z</time>
      </trkpt>
      <trkpt lat="50.30091" lon="1.86854">
        <ele>57.799999237061</ele>
        <time>2023-08-09T09:02:26.000Z</time>
      </trkpt>
      <trkpt lat="50.30038" lon="1.86885">
        <ele>57.799999237061</ele>
        <time>2023-08-09T09:02:34.000Z</time>
      </trkpt>
      <trkpt lat="50.30012" lon="1.86902">
        <ele>58</ele>
        <time>2023-08-09T09:02:38.000Z</time>
      </trkpt>
      <trkpt lat="50.2996" lon="1.86937">
        <ele>58.200000762939</ele>
        <time>2023-08-09T09:02:46.000Z</time>
      </trkpt>
      <trkpt lat="50.29941" lon="1.86949">
        <ele>58.200000762939</ele>
        <time>2023-08-09T09:02:49.000Z</time>
      </trkpt>
      <trkpt lat="50.2989" lon="1.86984">
        <ele>58.400001525879</ele>
        <time>2023-08-09T09:02:57.000Z</time>
      </trkpt>
      <trkpt lat="50.29874" lon="1.86993">
        <ele>58.400001525879</ele>
        <time>2023-08-09T09:02:59.000Z</time>
      </trkpt>
      <trkpt lat="50.29825" lon="1.87007">
        <ele>57.799999237061</ele>
        <time>2023-08-09T09:03:05.000Z</time>
      </trkpt>
      <trkpt lat="50.29765" lon="1.87017">
        <ele>56.599998474121</ele>
        <time>2023-08-09T09:03:12.000Z</time>
      </trkpt>
      <trkpt lat="50.29755" lon="1.87019">
        <ele>56.200000762939</ele>
        <time>2023-08-09T09:03:13.000Z</time>
      </trkpt>
      <trkpt lat="50.29746" lon="1.87021">
        <ele>55.799999237061</ele>
        <time>2023-08-09T09:03:14.000Z</time>
      </trkpt>
      <trkpt lat="50.2971" lon="1.87028">
        <ele>54.799999237061</ele>
        <time>2023-08-09T09:03:18.000Z</time>
      </trkpt>
      <trkpt lat="50.29675" lon="1.87037">
        <ele>54</ele>
        <time>2023-08-09T09:03:22.000Z</time>
      </trkpt>
      <trkpt lat="50.29667" lon="1.8704">
        <ele>53.599998474121</ele>
        <time>2023-08-09T09:03:23.000Z</time>
      </trkpt>
      <trkpt lat="50.29636" lon="1.87059">
        <ele>53.200000762939</ele>
        <time>2023-08-09T09:03:27.000Z</time>
      </trkpt>
      <trkpt lat="50.29603" lon="1.87091">
        <ele>52.799999237061</ele>
        <time>2023-08-09T09:03:32.000Z</time>
      </trkpt>
      <trkpt lat="50.29571" lon="1.8713">
        <ele>53.200000762939</ele>
        <time>2023-08-09T09:03:38.000Z</time>
      </trkpt>
      <trkpt lat="50.29538" lon="1.87171">
        <ele>54.400001525879</ele>
        <time>2023-08-09T09:03:45.000Z</time>
      </trkpt>
      <trkpt lat="50.29527" lon="1.87185">
        <ele>54.599998474121</ele>
        <time>2023-08-09T09:03:47.000Z</time>
      </trkpt>
      <trkpt lat="50.29499" lon="1.87218">
        <ele>54.799999237061</ele>
        <time>2023-08-09T09:03:52.000Z</time>
      </trkpt>
      <trkpt lat="50.29452" lon="1.87264">
        <ele>54.200000762939</ele>
        <time>2023-08-09T09:03:59.000Z</time>
      </trkpt>
      <trkpt lat="50.2943" lon="1.87283">
        <ele>53.400001525879</ele>
        <time>2023-08-09T09:04:02.000Z</time>
      </trkpt>
      <trkpt lat="50.29392" lon="1.87313">
        <ele>52.599998474121</ele>
        <time>2023-08-09T09:04:07.000Z</time>
      </trkpt>
      <trkpt lat="50.29384" lon="1.87317">
        <ele>52.400001525879</ele>
        <time>2023-08-09T09:04:08.000Z</time>
      </trkpt>
      <trkpt lat="50.29342" lon="1.87336">
        <ele>51.400001525879</ele>
        <time>2023-08-09T09:04:13.000Z</time>
      </trkpt>
      <trkpt lat="50.29302" lon="1.87355">
        <ele>51.200000762939</ele>
        <time>2023-08-09T09:04:19.000Z</time>
      </trkpt>
      <trkpt lat="50.29269" lon="1.87388">
        <ele>51.799999237061</ele>
        <time>2023-08-09T09:04:25.000Z</time>
      </trkpt>
      <trkpt lat="50.29262" lon="1.87398">
        <ele>52</ele>
        <time>2023-08-09T09:04:27.000Z</time>
      </trkpt>
      <trkpt lat="50.29248" lon="1.87414">
        <ele>52.400001525879</ele>
        <time>2023-08-09T09:04:30.000Z</time>
      </trkpt>
      <trkpt lat="50.29227" lon="1.87444">
        <ele>53.200000762939</ele>
        <time>2023-08-09T09:04:36.000Z</time>
      </trkpt>
      <trkpt lat="50.29221" lon="1.87456">
        <ele>53.599998474121</ele>
        <time>2023-08-09T09:04:38.000Z</time>
      </trkpt>
      <trkpt lat="50.2921" lon="1.87481">
        <ele>54</ele>
        <time>2023-08-09T09:04:42.000Z</time>
      </trkpt>
      <trkpt lat="50.29198" lon="1.87523">
        <ele>54.799999237061</ele>
        <time>2023-08-09T09:04:48.000Z</time>
      </trkpt>
      <trkpt lat="50.29196" lon="1.8753">
        <ele>54.799999237061</ele>
        <time>2023-08-09T09:04:49.000Z</time>
      </trkpt>
      <trkpt lat="50.29183" lon="1.8756">
        <ele>55.599998474121</ele>
        <time>2023-08-09T09:04:54.000Z</time>
      </trkpt>
      <trkpt lat="50.29176" lon="1.87569">
        <ele>55.799999237061</ele>
        <time>2023-08-09T09:04:56.000Z</time>
      </trkpt>
      <trkpt lat="50.29144" lon="1.87599">
        <ele>56.799999237061</ele>
        <time>2023-08-09T09:05:04.000Z</time>
      </trkpt>
      <trkpt lat="50.29141" lon="1.87602">
        <ele>56.799999237061</ele>
        <time>2023-08-09T09:05:05.000Z</time>
      </trkpt>
      <trkpt lat="50.29107" lon="1.87626">
        <ele>57.799999237061</ele>
        <time>2023-08-09T09:05:13.000Z</time>
      </trkpt>
      <trkpt lat="50.29088" lon="1.87636">
        <ele>58.200000762939</ele>
        <time>2023-08-09T09:05:17.000Z</time>
      </trkpt>
      <trkpt lat="50.29074" lon="1.87646">
        <ele>58.599998474121</ele>
        <time>2023-08-09T09:05:20.000Z</time>
      </trkpt>
      <trkpt lat="50.29064" lon="1.87653">
        <ele>59</ele>
        <time>2023-08-09T09:05:22.000Z</time>
      </trkpt>
      <trkpt lat="50.29036" lon="1.87677">
        <ele>59.200000762939</ele>
        <time>2023-08-09T09:05:28.000Z</time>
      </trkpt>
      <trkpt lat="50.28993" lon="1.87718">
        <ele>59.200000762939</ele>
        <time>2023-08-09T09:05:37.000Z</time>
      </trkpt>
      <trkpt lat="50.2897" lon="1.87742">
        <ele>59.200000762939</ele>
        <time>2023-08-09T09:05:42.000Z</time>
      </trkpt>
      <trkpt lat="50.28956" lon="1.87756">
        <ele>59.200000762939</ele>
        <time>2023-08-09T09:05:45.000Z</time>
      </trkpt>
      <trkpt lat="50.28953" lon="1.87759">
        <ele>59</ele>
        <time>2023-08-09T09:05:46.000Z</time>
      </trkpt>
      <trkpt lat="50.28942" lon="1.87763">
        <ele>58.799999237061</ele>
        <time>2023-08-09T09:05:48.000Z</time>
      </trkpt>
      <trkpt lat="50.28937" lon="1.87763">
        <ele>59</ele>
        <time>2023-08-09T09:05:49.000Z</time>
      </trkpt>
      <trkpt lat="50.28933" lon="1.87763">
        <ele>58.799999237061</ele>
        <time>2023-08-09T09:05:50.000Z</time>
      </trkpt>
      <trkpt lat="50.28925" lon="1.8777">
        <ele>58.799999237061</ele>
        <time>2023-08-09T09:05:52.000Z</time>
      </trkpt>
      <trkpt lat="50.28914" lon="1.87789">
        <ele>58.599998474121</ele>
        <time>2023-08-09T09:05:55.000Z</time>
      </trkpt>
      <trkpt lat="50.28902" lon="1.87805">
        <ele>58.599998474121</ele>
        <time>2023-08-09T09:05:58.000Z</time>
      </trkpt>
      <trkpt lat="50.28862" lon="1.87851">
        <ele>59</ele>
        <time>2023-08-09T09:06:07.000Z</time>
      </trkpt>
      <trkpt lat="50.28816" lon="1.87904">
        <ele>59</ele>
        <time>2023-08-09T09:06:17.000Z</time>
      </trkpt>
      <trkpt lat="50.28777" lon="1.8794">
        <ele>59.200000762939</ele>
        <time>2023-08-09T09:06:25.000Z</time>
      </trkpt>
      <trkpt lat="50.28727" lon="1.87967">
        <ele>58.799999237061</ele>
        <time>2023-08-09T09:06:34.000Z</time>
      </trkpt>
      <trkpt lat="50.28672" lon="1.87994">
        <ele>58.200000762939</ele>
        <time>2023-08-09T09:06:43.000Z</time>
      </trkpt>
      <trkpt lat="50.28667" lon="1.87996">
        <ele>58</ele>
        <time>2023-08-09T09:06:44.000Z</time>
      </trkpt>
      <trkpt lat="50.28647" lon="1.88004">
        <ele>57.599998474121</ele>
        <time>2023-08-09T09:06:47.000Z</time>
      </trkpt>
      <trkpt lat="50.28602" lon="1.88016">
        <ele>57</ele>
        <time>2023-08-09T09:06:54.000Z</time>
      </trkpt>
      <trkpt lat="50.28548" lon="1.88022">
        <ele>57</ele>
        <time>2023-08-09T09:07:03.000Z</time>
      </trkpt>
      <trkpt lat="50.28512" lon="1.88026">
        <ele>57.799999237061</ele>
        <time>2023-08-09T09:07:10.000Z</time>
      </trkpt>
      <trkpt lat="50.28481" lon="1.88027">
        <ele>58.799999237061</ele>
        <time>2023-08-09T09:07:16.000Z</time>
      </trkpt>
      <trkpt lat="50.28472" lon="1.88028">
        <ele>59</ele>
        <time>2023-08-09T09:07:18.000Z</time>
      </trkpt>
      <trkpt lat="50.28434" lon="1.88031">
        <ele>59.400001525879</ele>
        <time>2023-08-09T09:07:26.000Z</time>
      </trkpt>
      <trkpt lat="50.28425" lon="1.88029">
        <ele>59.799999237061</ele>
        <time>2023-08-09T09:07:28.000Z</time>
      </trkpt>
      <trkpt lat="50.28404" lon="1.88028">
        <ele>60.400001525879</ele>
        <time>2023-08-09T09:07:33.000Z</time>
      </trkpt>
      <trkpt lat="50.28386" lon="1.88028">
        <ele>60.799999237061</ele>
        <time>2023-08-09T09:07:37.000Z</time>
      </trkpt>
      <trkpt lat="50.28354" lon="1.88027">
        <ele>61.400001525879</ele>
        <time>2023-08-09T09:07:44.000Z</time>
      </trkpt>
      <trkpt lat="50.28296" lon="1.88026">
        <ele>61.400001525879</ele>
        <time>2023-08-09T09:07:55.000Z</time>
      </trkpt>
      <trkpt lat="50.2825" lon="1.88023">
        <ele>61.599998474121</ele>
        <time>2023-08-09T09:08:03.000Z</time>
      </trkpt>
      <trkpt lat="50.28204" lon="1.88023">
        <ele>61.599998474121</ele>
        <time>2023-08-09T09:08:11.000Z</time>
      </trkpt>
      <trkpt lat="50.28163" lon="1.88026">
        <ele>61.799999237061</ele>
        <time>2023-08-09T09:08:18.000Z</time>
      </trkpt>
      <trkpt lat="50.28157" lon="1.88027">
        <ele>61.799999237061</ele>
        <time>2023-08-09T09:08:19.000Z</time>
      </trkpt>
      <trkpt lat="50.28111" lon="1.88035">
        <ele>62.400001525879</ele>
        <time>2023-08-09T09:08:27.000Z</time>
      </trkpt>
      <trkpt lat="50.28094" lon="1.8804">
        <ele>62.799999237061</ele>
        <time>2023-08-09T09:08:30.000Z</time>
      </trkpt>
      <trkpt lat="50.28082" lon="1.88043">
        <ele>63</ele>
        <time>2023-08-09T09:08:32.000Z</time>
      </trkpt>
      <trkpt lat="50.28026" lon="1.88056">
        <ele>63.799999237061</ele>
        <time>2023-08-09T09:08:42.000Z</time>
      </trkpt>
      <trkpt lat="50.2802" lon="1.88058">
        <ele>63.799999237061</ele>
        <time>2023-08-09T09:08:43.000Z</time>
      </trkpt>
      <trkpt lat="50.28009" lon="1.88061">
        <ele>64</ele>
        <time>2023-08-09T09:08:45.000Z</time>
      </trkpt>
      <trkpt lat="50.27965" lon="1.88073">
        <ele>64.400001525879</ele>
        <time>2023-08-09T09:08:53.000Z</time>
      </trkpt>
      <trkpt lat="50.27937" lon="1.8808">
        <ele>65</ele>
        <time>2023-08-09T09:08:58.000Z</time>
      </trkpt>
      <trkpt lat="50.27888" lon="1.88094">
        <ele>65.800003051758</ele>
        <time>2023-08-09T09:09:07.000Z</time>
      </trkpt>
      <trkpt lat="50.27866" lon="1.88101">
        <ele>66.199996948242</ele>
        <time>2023-08-09T09:09:11.000Z</time>
      </trkpt>
      <trkpt lat="50.27827" lon="1.88114">
        <ele>66.800003051758</ele>
        <time>2023-08-09T09:09:18.000Z</time>
      </trkpt>
      <trkpt lat="50.27806" lon="1.88122">
        <ele>67.199996948242</ele>
        <time>2023-08-09T09:09:22.000Z</time>
      </trkpt>
      <trkpt lat="50.27773" lon="1.88132">
        <ele>67.800003051758</ele>
        <time>2023-08-09T09:09:28.000Z</time>
      </trkpt>
      <trkpt lat="50.27734" lon="1.88141">
        <ele>68.199996948242</ele>
        <time>2023-08-09T09:09:35.000Z</time>
      </trkpt>
      <trkpt lat="50.27728" lon="1.88143">
        <ele>68.400001525879</ele>
        <time>2023-08-09T09:09:36.000Z</time>
      </trkpt>
      <trkpt lat="50.27672" lon="1.88156">
        <ele>68.800003051758</ele>
        <time>2023-08-09T09:09:46.000Z</time>
      </trkpt>
      <trkpt lat="50.27644" lon="1.88162">
        <ele>69.199996948242</ele>
        <time>2023-08-09T09:09:51.000Z</time>
      </trkpt>
      <trkpt lat="50.27628" lon="1.88166">
        <ele>69.599998474121</ele>
        <time>2023-08-09T09:09:54.000Z</time>
      </trkpt>
      <trkpt lat="50.27573" lon="1.88179">
        <ele>70</ele>
        <time>2023-08-09T09:10:04.000Z</time>
      </trkpt>
      <trkpt lat="50.27566" lon="1.8818">
        <ele>70.199996948242</ele>
        <time>2023-08-09T09:10:05.000Z</time>
      </trkpt>
      <trkpt lat="50.2756" lon="1.88181">
        <ele>70.199996948242</ele>
        <time>2023-08-09T09:10:06.000Z</time>
      </trkpt>
      <trkpt lat="50.27503" lon="1.88193">
        <ele>70.800003051758</ele>
        <time>2023-08-09T09:10:16.000Z</time>
      </trkpt>
      <trkpt lat="50.27444" lon="1.88205">
        <ele>71</ele>
        <time>2023-08-09T09:10:26.000Z</time>
      </trkpt>
      <trkpt lat="50.27433" lon="1.88206">
        <ele>71</ele>
        <time>2023-08-09T09:10:28.000Z</time>
      </trkpt>
      <trkpt lat="50.27391" lon="1.88211">
        <ele>71.400001525879</ele>
        <time>2023-08-09T09:10:35.000Z</time>
      </trkpt>
      <trkpt lat="50.27367" lon="1.88214">
        <ele>71.400001525879</ele>
        <time>2023-08-09T09:10:39.000Z</time>
      </trkpt>
      <trkpt lat="50.27311" lon="1.88217">
        <ele>71.599998474121</ele>
        <time>2023-08-09T09:10:48.000Z</time>
      </trkpt>
      <trkpt lat="50.27304" lon="1.88218">
        <ele>71.599998474121</ele>
        <time>2023-08-09T09:10:49.000Z</time>
      </trkpt>
      <trkpt lat="50.27254" lon="1.88222">
        <ele>71.599998474121</ele>
        <time>2023-08-09T09:10:57.000Z</time>
      </trkpt>
      <trkpt lat="50.27205" lon="1.88232">
        <ele>71.599998474121</ele>
        <time>2023-08-09T09:11:05.000Z</time>
      </trkpt>
      <trkpt lat="50.27147" lon="1.88257">
        <ele>71.599998474121</ele>
        <time>2023-08-09T09:11:14.000Z</time>
      </trkpt>
      <trkpt lat="50.27095" lon="1.88283">
        <ele>71.199996948242</ele>
        <time>2023-08-09T09:11:22.000Z</time>
      </trkpt>
      <trkpt lat="50.27077" lon="1.88295">
        <ele>71.199996948242</ele>
        <time>2023-08-09T09:11:25.000Z</time>
      </trkpt>
      <trkpt lat="50.27033" lon="1.8832">
        <ele>71</ele>
        <time>2023-08-09T09:11:32.000Z</time>
      </trkpt>
      <trkpt lat="50.26982" lon="1.8835">
        <ele>71</ele>
        <time>2023-08-09T09:11:40.000Z</time>
      </trkpt>
      <trkpt lat="50.26962" lon="1.88362">
        <ele>71</ele>
        <time>2023-08-09T09:11:43.000Z</time>
      </trkpt>
      <trkpt lat="50.26908" lon="1.88393">
        <ele>70.400001525879</ele>
        <time>2023-08-09T09:11:51.000Z</time>
      </trkpt>
      <trkpt lat="50.26852" lon="1.88425">
        <ele>70.400001525879</ele>
        <time>2023-08-09T09:11:59.000Z</time>
      </trkpt>
      <trkpt lat="50.26845" lon="1.88429">
        <ele>70.400001525879</ele>
        <time>2023-08-09T09:12:00.000Z</time>
      </trkpt>
      <trkpt lat="50.26788" lon="1.88462">
        <ele>70</ele>
        <time>2023-08-09T09:12:08.000Z</time>
      </trkpt>
      <trkpt lat="50.26753" lon="1.88483">
        <ele>70</ele>
        <time>2023-08-09T09:12:13.000Z</time>
      </trkpt>
      <trkpt lat="50.26696" lon="1.88515">
        <ele>69.800003051758</ele>
        <time>2023-08-09T09:12:21.000Z</time>
      </trkpt>
      <trkpt lat="50.26689" lon="1.88519">
        <ele>69.800003051758</ele>
        <time>2023-08-09T09:12:22.000Z</time>
      </trkpt>
      <trkpt lat="50.26633" lon="1.88551">
        <ele>69.800003051758</ele>
        <time>2023-08-09T09:12:30.000Z</time>
      </trkpt>
      <trkpt lat="50.26618" lon="1.88558">
        <ele>69.800003051758</ele>
        <time>2023-08-09T09:12:32.000Z</time>
      </trkpt>
      <trkpt lat="50.26563" lon="1.88583">
        <ele>70.599998474121</ele>
        <time>2023-08-09T09:12:40.000Z</time>
      </trkpt>
      <trkpt lat="50.26549" lon="1.88586">
        <ele>71</ele>
        <time>2023-08-09T09:12:42.000Z</time>
      </trkpt>
      <trkpt lat="50.26529" lon="1.88592">
        <ele>71.599998474121</ele>
        <time>2023-08-09T09:12:45.000Z</time>
      </trkpt>
      <trkpt lat="50.26486" lon="1.88604">
        <ele>72</ele>
        <time>2023-08-09T09:12:51.000Z</time>
      </trkpt>
      <trkpt lat="50.26431" lon="1.88619">
        <ele>71.400001525879</ele>
        <time>2023-08-09T09:12:58.000Z</time>
      </trkpt>
      <trkpt lat="50.26415" lon="1.88623">
        <ele>71.199996948242</ele>
        <time>2023-08-09T09:13:00.000Z</time>
      </trkpt>
      <trkpt lat="50.26381" lon="1.88634">
        <ele>70.199996948242</ele>
        <time>2023-08-09T09:13:04.000Z</time>
      </trkpt>
      <trkpt lat="50.26372" lon="1.88637">
        <ele>70.199996948242</ele>
        <time>2023-08-09T09:13:05.000Z</time>
      </trkpt>
      <trkpt lat="50.26353" lon="1.88642">
        <ele>69.199996948242</ele>
        <time>2023-08-09T09:13:07.000Z</time>
      </trkpt>
      <trkpt lat="50.26315" lon="1.88655">
        <ele>68</ele>
        <time>2023-08-09T09:13:11.000Z</time>
      </trkpt>
      <trkpt lat="50.26306" lon="1.88659">
        <ele>68</ele>
        <time>2023-08-09T09:13:12.000Z</time>
      </trkpt>
      <trkpt lat="50.26278" lon="1.88669">
        <ele>67</ele>
        <time>2023-08-09T09:13:15.000Z</time>
      </trkpt>
      <trkpt lat="50.26234" lon="1.88684">
        <ele>65.800003051758</ele>
        <time>2023-08-09T09:13:20.000Z</time>
      </trkpt>
      <trkpt lat="50.26175" lon="1.88699">
        <ele>65.599998474121</ele>
        <time>2023-08-09T09:13:27.000Z</time>
      </trkpt>
      <trkpt lat="50.26129" lon="1.88706">
        <ele>66.199996948242</ele>
        <time>2023-08-09T09:13:33.000Z</time>
      </trkpt>
      <trkpt lat="50.26102" lon="1.88711">
        <ele>67.199996948242</ele>
        <time>2023-08-09T09:13:37.000Z</time>
      </trkpt>
      <trkpt lat="50.2608" lon="1.88715">
        <ele>67.800003051758</ele>
        <time>2023-08-09T09:13:40.000Z</time>
      </trkpt>
      <trkpt lat="50.26032" lon="1.88724">
        <ele>68</ele>
        <time>2023-08-09T09:13:46.000Z</time>
      </trkpt>
      <trkpt lat="50.25977" lon="1.88733">
        <ele>67.400001525879</ele>
        <time>2023-08-09T09:13:53.000Z</time>
      </trkpt>
      <trkpt lat="50.25955" lon="1.88737">
        <ele>67.199996948242</ele>
        <time>2023-08-09T09:13:56.000Z</time>
      </trkpt>
      <trkpt lat="50.25948" lon="1.88738">
        <ele>67.199996948242</ele>
        <time>2023-08-09T09:13:57.000Z</time>
      </trkpt>
      <trkpt lat="50.25905" lon="1.88736">
        <ele>67.800003051758</ele>
        <time>2023-08-09T09:14:03.000Z</time>
      </trkpt>
      <trkpt lat="50.25885" lon="1.88731">
        <ele>67.800003051758</ele>
        <time>2023-08-09T09:14:06.000Z</time>
      </trkpt>
      <trkpt lat="50.25858" lon="1.88723">
        <ele>68</ele>
        <time>2023-08-09T09:14:10.000Z</time>
      </trkpt>
      <trkpt lat="50.25815" lon="1.88699">
        <ele>67.599998474121</ele>
        <time>2023-08-09T09:14:16.000Z</time>
      </trkpt>
      <trkpt lat="50.25761" lon="1.88662">
        <ele>66.400001525879</ele>
        <time>2023-08-09T09:14:23.000Z</time>
      </trkpt>
      <trkpt lat="50.25746" lon="1.88651">
        <ele>66</ele>
        <time>2023-08-09T09:14:25.000Z</time>
      </trkpt>
      <trkpt lat="50.25725" lon="1.88637">
        <ele>64.599998474121</ele>
        <time>2023-08-09T09:14:28.000Z</time>
      </trkpt>
      <trkpt lat="50.25706" lon="1.88623">
        <ele>63.400001525879</ele>
        <time>2023-08-09T09:14:31.000Z</time>
      </trkpt>
      <trkpt lat="50.2569" lon="1.88613">
        <ele>62.200000762939</ele>
        <time>2023-08-09T09:14:34.000Z</time>
      </trkpt>
      <trkpt lat="50.2568" lon="1.88606">
        <ele>61.599998474121</ele>
        <time>2023-08-09T09:14:36.000Z</time>
      </trkpt>
      <trkpt lat="50.25672" lon="1.88601">
        <ele>61</ele>
        <time>2023-08-09T09:14:38.000Z</time>
      </trkpt>
      <trkpt lat="50.25665" lon="1.88595">
        <ele>60.599998474121</ele>
        <time>2023-08-09T09:14:41.000Z</time>
      </trkpt>
      <trkpt lat="50.25665" lon="1.88595">
        <ele>60.400001525879</ele>
        <time>2023-08-09T09:14:44.000Z</time>
      </trkpt>
      <trkpt lat="50.25658" lon="1.8859">
        <ele>59</ele>
        <time>2023-08-09T09:16:27.000Z</time>
      </trkpt>
      <trkpt lat="50.25644" lon="1.88577">
        <ele>58.799999237061</ele>
        <time>2023-08-09T09:16:33.000Z</time>
      </trkpt>
      <trkpt lat="50.25636" lon="1.88568">
        <ele>58.599998474121</ele>
        <time>2023-08-09T09:16:38.000Z</time>
      </trkpt>
      <trkpt lat="50.25624" lon="1.88567">
        <ele>58.200000762939</ele>
        <time>2023-08-09T09:16:43.000Z</time>
      </trkpt>
      <trkpt lat="50.25614" lon="1.8856">
        <ele>57.799999237061</ele>
        <time>2023-08-09T09:16:46.000Z</time>
      </trkpt>
      <trkpt lat="50.25607" lon="1.88555">
        <ele>57.799999237061</ele>
        <time>2023-08-09T09:16:48.000Z</time>
      </trkpt>
      <trkpt lat="50.25581" lon="1.88537">
        <ele>57.799999237061</ele>
        <time>2023-08-09T09:16:55.000Z</time>
      </trkpt>
      <trkpt lat="50.25577" lon="1.88535">
        <ele>57.799999237061</ele>
        <time>2023-08-09T09:16:56.000Z</time>
      </trkpt>
      <trkpt lat="50.2555" lon="1.88525">
        <ele>57.200000762939</ele>
        <time>2023-08-09T09:17:02.000Z</time>
      </trkpt>
      <trkpt lat="50.2554" lon="1.88523">
        <ele>56.799999237061</ele>
        <time>2023-08-09T09:17:04.000Z</time>
      </trkpt>
      <trkpt lat="50.25512" lon="1.88515">
        <ele>55.799999237061</ele>
        <time>2023-08-09T09:17:10.000Z</time>
      </trkpt>
      <trkpt lat="50.25508" lon="1.88514">
        <ele>55.599998474121</ele>
        <time>2023-08-09T09:17:11.000Z</time>
      </trkpt>
      <trkpt lat="50.25491" lon="1.88512">
        <ele>55.200000762939</ele>
        <time>2023-08-09T09:17:15.000Z</time>
      </trkpt>
      <trkpt lat="50.25481" lon="1.8851">
        <ele>54.599998474121</ele>
        <time>2023-08-09T09:17:17.000Z</time>
      </trkpt>
      <trkpt lat="50.25464" lon="1.88508">
        <ele>53.599998474121</ele>
        <time>2023-08-09T09:17:20.000Z</time>
      </trkpt>
      <trkpt lat="50.25458" lon="1.88508">
        <ele>53.599998474121</ele>
        <time>2023-08-09T09:17:21.000Z</time>
      </trkpt>
      <trkpt lat="50.25433" lon="1.88508">
        <ele>52.200000762939</ele>
        <time>2023-08-09T09:17:25.000Z</time>
      </trkpt>
      <trkpt lat="50.25426" lon="1.88508">
        <ele>51.799999237061</ele>
        <time>2023-08-09T09:17:26.000Z</time>
      </trkpt>
      <trkpt lat="50.25419" lon="1.88507">
        <ele>51.400001525879</ele>
        <time>2023-08-09T09:17:27.000Z</time>
      </trkpt>
      <trkpt lat="50.25403" lon="1.88501">
        <ele>50.599998474121</ele>
        <time>2023-08-09T09:17:29.000Z</time>
      </trkpt>
      <trkpt lat="50.25395" lon="1.88496">
        <ele>50</ele>
        <time>2023-08-09T09:17:30.000Z</time>
      </trkpt>
      <trkpt lat="50.25379" lon="1.88485">
        <ele>49</ele>
        <time>2023-08-09T09:17:32.000Z</time>
      </trkpt>
      <trkpt lat="50.25351" lon="1.88456">
        <ele>47.200000762939</ele>
        <time>2023-08-09T09:17:36.000Z</time>
      </trkpt>
      <trkpt lat="50.25339" lon="1.8844">
        <ele>46</ele>
        <time>2023-08-09T09:17:38.000Z</time>
      </trkpt>
      <trkpt lat="50.25324" lon="1.88422">
        <ele>44.799999237061</ele>
        <time>2023-08-09T09:17:41.000Z</time>
      </trkpt>
      <trkpt lat="50.25315" lon="1.88407">
        <ele>43.200000762939</ele>
        <time>2023-08-09T09:17:44.000Z</time>
      </trkpt>
      <trkpt lat="50.25314" lon="1.88403">
        <ele>43</ele>
        <time>2023-08-09T09:17:45.000Z</time>
      </trkpt>
      <trkpt lat="50.25313" lon="1.88393">
        <ele>42.200000762939</ele>
        <time>2023-08-09T09:17:47.000Z</time>
      </trkpt>
      <trkpt lat="50.25311" lon="1.88374">
        <ele>41.599998474121</ele>
        <time>2023-08-09T09:17:50.000Z</time>
      </trkpt>
      <trkpt lat="50.25309" lon="1.88355">
        <ele>41.200000762939</ele>
        <time>2023-08-09T09:17:53.000Z</time>
      </trkpt>
      <trkpt lat="50.25309" lon="1.88341">
        <ele>41</ele>
        <time>2023-08-09T09:17:55.000Z</time>
      </trkpt>
      <trkpt lat="50.25308" lon="1.88328">
        <ele>41</ele>
        <time>2023-08-09T09:17:57.000Z</time>
      </trkpt>
      <trkpt lat="50.25308" lon="1.8831">
        <ele>40.799999237061</ele>
        <time>2023-08-09T09:18:00.000Z</time>
      </trkpt>
      <trkpt lat="50.25303" lon="1.88293">
        <ele>40.400001525879</ele>
        <time>2023-08-09T09:18:05.000Z</time>
      </trkpt>
      <trkpt lat="50.25289" lon="1.88279">
        <ele>40.200000762939</ele>
        <time>2023-08-09T09:18:10.000Z</time>
      </trkpt>
      <trkpt lat="50.25287" lon="1.88276">
        <ele>40</ele>
        <time>2023-08-09T09:18:11.000Z</time>
      </trkpt>
      <trkpt lat="50.25274" lon="1.88261">
        <ele>39</ele>
        <time>2023-08-09T09:18:16.000Z</time>
      </trkpt>
      <trkpt lat="50.25272" lon="1.88259">
        <ele>38.799999237061</ele>
        <time>2023-08-09T09:18:17.000Z</time>
      </trkpt>
      <trkpt lat="50.25265" lon="1.88255">
        <ele>37.799999237061</ele>
        <time>2023-08-09T09:18:21.000Z</time>
      </trkpt>
      <trkpt lat="50.25263" lon="1.88254">
        <ele>37.599998474121</ele>
        <time>2023-08-09T09:18:22.000Z</time>
      </trkpt>
      <trkpt lat="50.25247" lon="1.88247">
        <ele>37</ele>
        <time>2023-08-09T09:18:27.000Z</time>
      </trkpt>
      <trkpt lat="50.25242" lon="1.88243">
        <ele>36.599998474121</ele>
        <time>2023-08-09T09:18:29.000Z</time>
      </trkpt>
      <trkpt lat="50.25234" lon="1.88236">
        <ele>35.799999237061</ele>
        <time>2023-08-09T09:18:33.000Z</time>
      </trkpt>
      <trkpt lat="50.25234" lon="1.88236">
        <ele>35.799999237061</ele>
        <time>2023-08-09T09:18:34.000Z</time>
      </trkpt>
      <trkpt lat="50.25228" lon="1.88234">
        <ele>34.400001525879</ele>
        <time>2023-08-09T09:19:16.000Z</time>
      </trkpt>
      <trkpt lat="50.25226" lon="1.88231">
        <ele>34.400001525879</ele>
        <time>2023-08-09T09:19:18.000Z</time>
      </trkpt>
      <trkpt lat="50.25224" lon="1.88229">
        <ele>34.400001525879</ele>
        <time>2023-08-09T09:19:22.000Z</time>
      </trkpt>
      <trkpt lat="50.25224" lon="1.88225">
        <ele>35</ele>
        <time>2023-08-09T09:20:31.000Z</time>
      </trkpt>
      <trkpt lat="50.2522" lon="1.88201">
        <ele>35</ele>
        <time>2023-08-09T09:20:36.000Z</time>
      </trkpt>
      <trkpt lat="50.25217" lon="1.88165">
        <ele>34.799999237061</ele>
        <time>2023-08-09T09:20:42.000Z</time>
      </trkpt>
      <trkpt lat="50.25217" lon="1.88156">
        <ele>34.400001525879</ele>
        <time>2023-08-09T09:20:45.000Z</time>
      </trkpt>
      <trkpt lat="50.25216" lon="1.88155">
        <ele>34.400001525879</ele>
        <time>2023-08-09T09:20:46.000Z</time>
      </trkpt>
      <trkpt lat="50.25216" lon="1.88154">
        <ele>34.400001525879</ele>
        <time>2023-08-09T09:20:50.000Z</time>
      </trkpt>
      <trkpt lat="50.25215" lon="1.88152">
        <ele>33.799999237061</ele>
        <time>2023-08-09T09:20:54.000Z</time>
      </trkpt>
      <trkpt lat="50.25215" lon="1.88152">
        <ele>33.799999237061</ele>
        <time>2023-08-09T09:20:56.000Z</time>
      </trkpt>
      <trkpt lat="50.25214" lon="1.88142">
        <ele>32.400001525879</ele>
        <time>2023-08-09T09:35:08.000Z</time>
      </trkpt>
      <trkpt lat="50.25214" lon="1.88136">
        <ele>32.599998474121</ele>
        <time>2023-08-09T09:35:10.000Z</time>
      </trkpt>
      <trkpt lat="50.25215" lon="1.88114">
        <ele>33</ele>
        <time>2023-08-09T09:35:17.000Z</time>
      </trkpt>
      <trkpt lat="50.25223" lon="1.88094">
        <ele>33</ele>
        <time>2023-08-09T09:35:22.000Z</time>
      </trkpt>
      <trkpt lat="50.25228" lon="1.88082">
        <ele>33.200000762939</ele>
        <time>2023-08-09T09:35:25.000Z</time>
      </trkpt>
      <trkpt lat="50.25233" lon="1.88066">
        <ele>33.799999237061</ele>
        <time>2023-08-09T09:35:28.000Z</time>
      </trkpt>
      <trkpt lat="50.25241" lon="1.88048">
        <ele>34.200000762939</ele>
        <time>2023-08-09T09:35:32.000Z</time>
      </trkpt>
      <trkpt lat="50.25248" lon="1.88032">
        <ele>34.400001525879</ele>
        <time>2023-08-09T09:35:35.000Z</time>
      </trkpt>
      <trkpt lat="50.25261" lon="1.88">
        <ele>34.799999237061</ele>
        <time>2023-08-09T09:35:40.000Z</time>
      </trkpt>
      <trkpt lat="50.25263" lon="1.87993">
        <ele>34.799999237061</ele>
        <time>2023-08-09T09:35:41.000Z</time>
      </trkpt>
      <trkpt lat="50.25263" lon="1.87986">
        <ele>34.799999237061</ele>
        <time>2023-08-09T09:35:42.000Z</time>
      </trkpt>
      <trkpt lat="50.25261" lon="1.8797">
        <ele>34.599998474121</ele>
        <time>2023-08-09T09:35:44.000Z</time>
      </trkpt>
      <trkpt lat="50.25259" lon="1.87962">
        <ele>34.599998474121</ele>
        <time>2023-08-09T09:35:45.000Z</time>
      </trkpt>
      <trkpt lat="50.25241" lon="1.87914">
        <ele>33.200000762939</ele>
        <time>2023-08-09T09:35:50.000Z</time>
      </trkpt>
      <trkpt lat="50.25229" lon="1.87882">
        <ele>32</ele>
        <time>2023-08-09T09:35:53.000Z</time>
      </trkpt>
      <trkpt lat="50.2522" lon="1.87859">
        <ele>31.39999961853</ele>
        <time>2023-08-09T09:35:55.000Z</time>
      </trkpt>
      <trkpt lat="50.25216" lon="1.87847">
        <ele>31.200000762939</ele>
        <time>2023-08-09T09:35:56.000Z</time>
      </trkpt>
      <trkpt lat="50.25211" lon="1.87836">
        <ele>30.799999237061</ele>
        <time>2023-08-09T09:35:57.000Z</time>
      </trkpt>
      <trkpt lat="50.25193" lon="1.87803">
        <ele>29.200000762939</ele>
        <time>2023-08-09T09:36:00.000Z</time>
      </trkpt>
      <trkpt lat="50.25187" lon="1.87793">
        <ele>29</ele>
        <time>2023-08-09T09:36:01.000Z</time>
      </trkpt>
      <trkpt lat="50.25174" lon="1.87776">
        <ele>28.39999961853</ele>
        <time>2023-08-09T09:36:03.000Z</time>
      </trkpt>
      <trkpt lat="50.25167" lon="1.8777">
        <ele>28.200000762939</ele>
        <time>2023-08-09T09:36:04.000Z</time>
      </trkpt>
      <trkpt lat="50.25161" lon="1.87765">
        <ele>28</ele>
        <time>2023-08-09T09:36:05.000Z</time>
      </trkpt>
      <trkpt lat="50.2514" lon="1.87755">
        <ele>27.39999961853</ele>
        <time>2023-08-09T09:36:08.000Z</time>
      </trkpt>
      <trkpt lat="50.25125" lon="1.87751">
        <ele>27</ele>
        <time>2023-08-09T09:36:10.000Z</time>
      </trkpt>
      <trkpt lat="50.25091" lon="1.87743">
        <ele>26</ele>
        <time>2023-08-09T09:36:15.000Z</time>
      </trkpt>
      <trkpt lat="50.25078" lon="1.87737">
        <ele>25.799999237061</ele>
        <time>2023-08-09T09:36:17.000Z</time>
      </trkpt>
      <trkpt lat="50.2506" lon="1.87729">
        <ele>25.39999961853</ele>
        <time>2023-08-09T09:36:20.000Z</time>
      </trkpt>
      <trkpt lat="50.25044" lon="1.87722">
        <ele>25.200000762939</ele>
        <time>2023-08-09T09:36:23.000Z</time>
      </trkpt>
      <trkpt lat="50.25018" lon="1.87709">
        <ele>25</ele>
        <time>2023-08-09T09:36:28.000Z</time>
      </trkpt>
      <trkpt lat="50.25003" lon="1.87701">
        <ele>24.799999237061</ele>
        <time>2023-08-09T09:36:31.000Z</time>
      </trkpt>
      <trkpt lat="50.24998" lon="1.87698">
        <ele>24.799999237061</ele>
        <time>2023-08-09T09:36:32.000Z</time>
      </trkpt>
      <trkpt lat="50.24965" lon="1.87666">
        <ele>25</ele>
        <time>2023-08-09T09:36:40.000Z</time>
      </trkpt>
      <trkpt lat="50.24958" lon="1.87657">
        <ele>25</ele>
        <time>2023-08-09T09:36:42.000Z</time>
      </trkpt>
      <trkpt lat="50.24946" lon="1.87634">
        <ele>25.200000762939</ele>
        <time>2023-08-09T09:36:46.000Z</time>
      </trkpt>
      <trkpt lat="50.24939" lon="1.87615">
        <ele>25.39999961853</ele>
        <time>2023-08-09T09:36:49.000Z</time>
      </trkpt>
      <trkpt lat="50.24937" lon="1.87602">
        <ele>25.60000038147</ele>
        <time>2023-08-09T09:36:51.000Z</time>
      </trkpt>
      <trkpt lat="50.24936" lon="1.87595">
        <ele>25.60000038147</ele>
        <time>2023-08-09T09:36:52.000Z</time>
      </trkpt>
      <trkpt lat="50.24934" lon="1.8757">
        <ele>26</ele>
        <time>2023-08-09T09:36:56.000Z</time>
      </trkpt>
      <trkpt lat="50.24938" lon="1.87529">
        <ele>27</ele>
        <time>2023-08-09T09:37:03.000Z</time>
      </trkpt>
      <trkpt lat="50.24948" lon="1.8749">
        <ele>28</ele>
        <time>2023-08-09T09:37:10.000Z</time>
      </trkpt>
      <trkpt lat="50.2495" lon="1.87485">
        <ele>28</ele>
        <time>2023-08-09T09:37:11.000Z</time>
      </trkpt>
      <trkpt lat="50.24951" lon="1.87479">
        <ele>28.200000762939</ele>
        <time>2023-08-09T09:37:12.000Z</time>
      </trkpt>
      <trkpt lat="50.24959" lon="1.87434">
        <ele>28.799999237061</ele>
        <time>2023-08-09T09:37:20.000Z</time>
      </trkpt>
      <trkpt lat="50.2496" lon="1.87416">
        <ele>28.799999237061</ele>
        <time>2023-08-09T09:37:23.000Z</time>
      </trkpt>
      <trkpt lat="50.24959" lon="1.87391">
        <ele>28.799999237061</ele>
        <time>2023-08-09T09:37:27.000Z</time>
      </trkpt>
      <trkpt lat="50.24951" lon="1.87346">
        <ele>29</ele>
        <time>2023-08-09T09:37:35.000Z</time>
      </trkpt>
      <trkpt lat="50.2495" lon="1.87341">
        <ele>29</ele>
        <time>2023-08-09T09:37:36.000Z</time>
      </trkpt>
      <trkpt lat="50.24944" lon="1.87319">
        <ele>29.200000762939</ele>
        <time>2023-08-09T09:37:40.000Z</time>
      </trkpt>
      <trkpt lat="50.24942" lon="1.87315">
        <ele>29.200000762939</ele>
        <time>2023-08-09T09:37:41.000Z</time>
      </trkpt>
      <trkpt lat="50.24921" lon="1.87281">
        <ele>30</ele>
        <time>2023-08-09T09:37:49.000Z</time>
      </trkpt>
      <trkpt lat="50.24913" lon="1.87272">
        <ele>30</ele>
        <time>2023-08-09T09:37:52.000Z</time>
      </trkpt>
      <trkpt lat="50.24901" lon="1.87261">
        <ele>30.200000762939</ele>
        <time>2023-08-09T09:37:56.000Z</time>
      </trkpt>
      <trkpt lat="50.24893" lon="1.87255">
        <ele>30.39999961853</ele>
        <time>2023-08-09T09:37:58.000Z</time>
      </trkpt>
      <trkpt lat="50.24868" lon="1.87233">
        <ele>31</ele>
        <time>2023-08-09T09:38:06.000Z</time>
      </trkpt>
      <trkpt lat="50.24858" lon="1.87226">
        <ele>31.200000762939</ele>
        <time>2023-08-09T09:38:09.000Z</time>
      </trkpt>
      <trkpt lat="50.24842" lon="1.87211">
        <ele>31.60000038147</ele>
        <time>2023-08-09T09:38:14.000Z</time>
      </trkpt>
      <trkpt lat="50.24822" lon="1.8719">
        <ele>32.400001525879</ele>
        <time>2023-08-09T09:38:21.000Z</time>
      </trkpt>
      <trkpt lat="50.24815" lon="1.87184">
        <ele>32.400001525879</ele>
        <time>2023-08-09T09:38:23.000Z</time>
      </trkpt>
      <trkpt lat="50.24795" lon="1.87163">
        <ele>33.200000762939</ele>
        <time>2023-08-09T09:38:30.000Z</time>
      </trkpt>
      <trkpt lat="50.24787" lon="1.87154">
        <ele>33.400001525879</ele>
        <time>2023-08-09T09:38:33.000Z</time>
      </trkpt>
      <trkpt lat="50.24775" lon="1.87144">
        <ele>34</ele>
        <time>2023-08-09T09:38:37.000Z</time>
      </trkpt>
      <trkpt lat="50.2477" lon="1.87139">
        <ele>34.400001525879</ele>
        <time>2023-08-09T09:38:39.000Z</time>
      </trkpt>
      <trkpt lat="50.24749" lon="1.87119">
        <ele>35.400001525879</ele>
        <time>2023-08-09T09:38:46.000Z</time>
      </trkpt>
      <trkpt lat="50.24743" lon="1.87113">
        <ele>35.599998474121</ele>
        <time>2023-08-09T09:38:48.000Z</time>
      </trkpt>
      <trkpt lat="50.24734" lon="1.87103">
        <ele>35.599998474121</ele>
        <time>2023-08-09T09:38:51.000Z</time>
      </trkpt>
      <trkpt lat="50.24719" lon="1.87087">
        <ele>35.799999237061</ele>
        <time>2023-08-09T09:38:56.000Z</time>
      </trkpt>
      <trkpt lat="50.24692" lon="1.87053">
        <ele>36.599998474121</ele>
        <time>2023-08-09T09:39:06.000Z</time>
      </trkpt>
      <trkpt lat="50.24689" lon="1.87049">
        <ele>36.599998474121</ele>
        <time>2023-08-09T09:39:07.000Z</time>
      </trkpt>
      <trkpt lat="50.24665" lon="1.87019">
        <ele>37.400001525879</ele>
        <time>2023-08-09T09:39:16.000Z</time>
      </trkpt>
      <trkpt lat="50.24663" lon="1.87015">
        <ele>37.599998474121</ele>
        <time>2023-08-09T09:39:17.000Z</time>
      </trkpt>
      <trkpt lat="50.24639" lon="1.86982">
        <ele>38.599998474121</ele>
        <time>2023-08-09T09:39:26.000Z</time>
      </trkpt>
      <trkpt lat="50.24635" lon="1.86974">
        <ele>38.799999237061</ele>
        <time>2023-08-09T09:39:28.000Z</time>
      </trkpt>
      <trkpt lat="50.24613" lon="1.8694">
        <ele>39.799999237061</ele>
        <time>2023-08-09T09:39:37.000Z</time>
      </trkpt>
      <trkpt lat="50.24611" lon="1.86935">
        <ele>40</ele>
        <time>2023-08-09T09:39:38.000Z</time>
      </trkpt>
      <trkpt lat="50.24596" lon="1.86912">
        <ele>40.799999237061</ele>
        <time>2023-08-09T09:39:44.000Z</time>
      </trkpt>
      <trkpt lat="50.2459" lon="1.86902">
        <ele>41.200000762939</ele>
        <time>2023-08-09T09:39:47.000Z</time>
      </trkpt>
      <trkpt lat="50.24577" lon="1.86879">
        <ele>41.799999237061</ele>
        <time>2023-08-09T09:39:53.000Z</time>
      </trkpt>
      <trkpt lat="50.2457" lon="1.86869">
        <ele>42.400001525879</ele>
        <time>2023-08-09T09:39:56.000Z</time>
      </trkpt>
      <trkpt lat="50.24563" lon="1.86857">
        <ele>43</ele>
        <time>2023-08-09T09:40:00.000Z</time>
      </trkpt>
      <trkpt lat="50.24549" lon="1.86835">
        <ele>43.799999237061</ele>
        <time>2023-08-09T09:40:07.000Z</time>
      </trkpt>
      <trkpt lat="50.24547" lon="1.86832">
        <ele>44.200000762939</ele>
        <time>2023-08-09T09:40:08.000Z</time>
      </trkpt>
      <trkpt lat="50.24534" lon="1.86811">
        <ele>45.200000762939</ele>
        <time>2023-08-09T09:40:15.000Z</time>
      </trkpt>
      <trkpt lat="50.24528" lon="1.86801">
        <ele>45.599998474121</ele>
        <time>2023-08-09T09:40:18.000Z</time>
      </trkpt>
      <trkpt lat="50.24523" lon="1.86792">
        <ele>46.200000762939</ele>
        <time>2023-08-09T09:40:21.000Z</time>
      </trkpt>
      <trkpt lat="50.24509" lon="1.86769">
        <ele>47.200000762939</ele>
        <time>2023-08-09T09:40:29.000Z</time>
      </trkpt>
      <trkpt lat="50.24496" lon="1.86749">
        <ele>48.400001525879</ele>
        <time>2023-08-09T09:40:36.000Z</time>
      </trkpt>
      <trkpt lat="50.24489" lon="1.86737">
        <ele>48.799999237061</ele>
        <time>2023-08-09T09:40:40.000Z</time>
      </trkpt>
      <trkpt lat="50.24482" lon="1.86725">
        <ele>49.400001525879</ele>
        <time>2023-08-09T09:40:44.000Z</time>
      </trkpt>
      <trkpt lat="50.24471" lon="1.86707">
        <ele>50.400001525879</ele>
        <time>2023-08-09T09:40:50.000Z</time>
      </trkpt>
      <trkpt lat="50.2447" lon="1.86704">
        <ele>50.400001525879</ele>
        <time>2023-08-09T09:40:51.000Z</time>
      </trkpt>
      <trkpt lat="50.24459" lon="1.86687">
        <ele>51.599998474121</ele>
        <time>2023-08-09T09:40:57.000Z</time>
      </trkpt>
      <trkpt lat="50.24452" lon="1.86675">
        <ele>52.400001525879</ele>
        <time>2023-08-09T09:41:01.000Z</time>
      </trkpt>
      <trkpt lat="50.24448" lon="1.86668">
        <ele>52.599998474121</ele>
        <time>2023-08-09T09:41:03.000Z</time>
      </trkpt>
      <trkpt lat="50.24436" lon="1.86646">
        <ele>53.599998474121</ele>
        <time>2023-08-09T09:41:10.000Z</time>
      </trkpt>
      <trkpt lat="50.24433" lon="1.8664">
        <ele>54</ele>
        <time>2023-08-09T09:41:12.000Z</time>
      </trkpt>
      <trkpt lat="50.24419" lon="1.86613">
        <ele>54.599998474121</ele>
        <time>2023-08-09T09:41:20.000Z</time>
      </trkpt>
      <trkpt lat="50.24411" lon="1.86595">
        <ele>55.400001525879</ele>
        <time>2023-08-09T09:41:25.000Z</time>
      </trkpt>
      <trkpt lat="50.24407" lon="1.86588">
        <ele>55.799999237061</ele>
        <time>2023-08-09T09:41:27.000Z</time>
      </trkpt>
      <trkpt lat="50.24394" lon="1.86556">
        <ele>56.799999237061</ele>
        <time>2023-08-09T09:41:35.000Z</time>
      </trkpt>
      <trkpt lat="50.24392" lon="1.86552">
        <ele>56.799999237061</ele>
        <time>2023-08-09T09:41:36.000Z</time>
      </trkpt>
      <trkpt lat="50.24382" lon="1.86527">
        <ele>58.200000762939</ele>
        <time>2023-08-09T09:41:42.000Z</time>
      </trkpt>
      <trkpt lat="50.24376" lon="1.86509">
        <ele>58.599998474121</ele>
        <time>2023-08-09T09:41:46.000Z</time>
      </trkpt>
      <trkpt lat="50.24367" lon="1.86486">
        <ele>59.200000762939</ele>
        <time>2023-08-09T09:41:51.000Z</time>
      </trkpt>
      <trkpt lat="50.24358" lon="1.86462">
        <ele>59.599998474121</ele>
        <time>2023-08-09T09:41:56.000Z</time>
      </trkpt>
      <trkpt lat="50.24352" lon="1.86447">
        <ele>60.400001525879</ele>
        <time>2023-08-09T09:41:59.000Z</time>
      </trkpt>
      <trkpt lat="50.24342" lon="1.86422">
        <ele>60.799999237061</ele>
        <time>2023-08-09T09:42:04.000Z</time>
      </trkpt>
      <trkpt lat="50.24328" lon="1.86396">
        <ele>61.400001525879</ele>
        <time>2023-08-09T09:42:10.000Z</time>
      </trkpt>
      <trkpt lat="50.24326" lon="1.86392">
        <ele>61.599998474121</ele>
        <time>2023-08-09T09:42:11.000Z</time>
      </trkpt>
      <trkpt lat="50.24311" lon="1.86364">
        <ele>62.200000762939</ele>
        <time>2023-08-09T09:42:17.000Z</time>
      </trkpt>
      <trkpt lat="50.24288" lon="1.86326">
        <ele>62.400001525879</ele>
        <time>2023-08-09T09:42:26.000Z</time>
      </trkpt>
      <trkpt lat="50.24285" lon="1.86322">
        <ele>62.400001525879</ele>
        <time>2023-08-09T09:42:27.000Z</time>
      </trkpt>
      <trkpt lat="50.24272" lon="1.86306">
        <ele>63</ele>
        <time>2023-08-09T09:42:31.000Z</time>
      </trkpt>
      <trkpt lat="50.24269" lon="1.86302">
        <ele>63</ele>
        <time>2023-08-09T09:42:32.000Z</time>
      </trkpt>
      <trkpt lat="50.24263" lon="1.86293">
        <ele>63</ele>
        <time>2023-08-09T09:42:34.000Z</time>
      </trkpt>
      <trkpt lat="50.24239" lon="1.86264">
        <ele>63.400001525879</ele>
        <time>2023-08-09T09:42:41.000Z</time>
      </trkpt>
      <trkpt lat="50.24223" lon="1.86244">
        <ele>63.599998474121</ele>
        <time>2023-08-09T09:42:45.000Z</time>
      </trkpt>
      <trkpt lat="50.24212" lon="1.8623">
        <ele>63.599998474121</ele>
        <time>2023-08-09T09:42:48.000Z</time>
      </trkpt>
      <trkpt lat="50.24172" lon="1.86185">
        <ele>63.599998474121</ele>
        <time>2023-08-09T09:42:58.000Z</time>
      </trkpt>
      <trkpt lat="50.24137" lon="1.86151">
        <ele>63.400001525879</ele>
        <time>2023-08-09T09:43:06.000Z</time>
      </trkpt>
      <trkpt lat="50.24118" lon="1.86133">
        <ele>63.400001525879</ele>
        <time>2023-08-09T09:43:10.000Z</time>
      </trkpt>
      <trkpt lat="50.24074" lon="1.86091">
        <ele>63.599998474121</ele>
        <time>2023-08-09T09:43:19.000Z</time>
      </trkpt>
      <trkpt lat="50.24029" lon="1.86049">
        <ele>64</ele>
        <time>2023-08-09T09:43:29.000Z</time>
      </trkpt>
      <trkpt lat="50.23997" lon="1.86024">
        <ele>64.199996948242</ele>
        <time>2023-08-09T09:43:36.000Z</time>
      </trkpt>
      <trkpt lat="50.23988" lon="1.86016">
        <ele>64.400001525879</ele>
        <time>2023-08-09T09:43:38.000Z</time>
      </trkpt>
      <trkpt lat="50.23947" lon="1.85973">
        <ele>64.400001525879</ele>
        <time>2023-08-09T09:43:47.000Z</time>
      </trkpt>
      <trkpt lat="50.23937" lon="1.85963">
        <ele>64.599998474121</ele>
        <time>2023-08-09T09:43:49.000Z</time>
      </trkpt>
      <trkpt lat="50.23897" lon="1.85922">
        <ele>64.599998474121</ele>
        <time>2023-08-09T09:43:57.000Z</time>
      </trkpt>
      <trkpt lat="50.23893" lon="1.85918">
        <ele>64.599998474121</ele>
        <time>2023-08-09T09:43:58.000Z</time>
      </trkpt>
      <trkpt lat="50.23847" lon="1.85869">
        <ele>64.199996948242</ele>
        <time>2023-08-09T09:44:07.000Z</time>
      </trkpt>
      <trkpt lat="50.23837" lon="1.85857">
        <ele>64</ele>
        <time>2023-08-09T09:44:09.000Z</time>
      </trkpt>
      <trkpt lat="50.23798" lon="1.85816">
        <ele>63.200000762939</ele>
        <time>2023-08-09T09:44:17.000Z</time>
      </trkpt>
      <trkpt lat="50.23793" lon="1.8581">
        <ele>63.200000762939</ele>
        <time>2023-08-09T09:44:18.000Z</time>
      </trkpt>
      <trkpt lat="50.23773" lon="1.8579">
        <ele>63.200000762939</ele>
        <time>2023-08-09T09:44:22.000Z</time>
      </trkpt>
      <trkpt lat="50.23759" lon="1.85774">
        <ele>63.200000762939</ele>
        <time>2023-08-09T09:44:25.000Z</time>
      </trkpt>
      <trkpt lat="50.23715" lon="1.85726">
        <ele>63.200000762939</ele>
        <time>2023-08-09T09:44:34.000Z</time>
      </trkpt>
      <trkpt lat="50.23686" lon="1.85694">
        <ele>63.599998474121</ele>
        <time>2023-08-09T09:44:40.000Z</time>
      </trkpt>
      <trkpt lat="50.23641" lon="1.85646">
        <ele>63.599998474121</ele>
        <time>2023-08-09T09:44:49.000Z</time>
      </trkpt>
      <trkpt lat="50.23636" lon="1.85641">
        <ele>63.400001525879</ele>
        <time>2023-08-09T09:44:50.000Z</time>
      </trkpt>
      <trkpt lat="50.2362" lon="1.85624">
        <ele>63.400001525879</ele>
        <time>2023-08-09T09:44:53.000Z</time>
      </trkpt>
      <trkpt lat="50.23601" lon="1.85606">
        <ele>63.200000762939</ele>
        <time>2023-08-09T09:44:57.000Z</time>
      </trkpt>
      <trkpt lat="50.23557" lon="1.8556">
        <ele>63.400001525879</ele>
        <time>2023-08-09T09:45:06.000Z</time>
      </trkpt>
      <trkpt lat="50.23527" lon="1.8553">
        <ele>63.200000762939</ele>
        <time>2023-08-09T09:45:12.000Z</time>
      </trkpt>
      <trkpt lat="50.23492" lon="1.85492">
        <ele>63.400001525879</ele>
        <time>2023-08-09T09:45:20.000Z</time>
      </trkpt>
      <trkpt lat="50.23466" lon="1.85465">
        <ele>63.799999237061</ele>
        <time>2023-08-09T09:45:26.000Z</time>
      </trkpt>
      <trkpt lat="50.23453" lon="1.85451">
        <ele>64</ele>
        <time>2023-08-09T09:45:29.000Z</time>
      </trkpt>
      <trkpt lat="50.23439" lon="1.85436">
        <ele>64</ele>
        <time>2023-08-09T09:45:32.000Z</time>
      </trkpt>
      <trkpt lat="50.23422" lon="1.8542">
        <ele>64.199996948242</ele>
        <time>2023-08-09T09:45:36.000Z</time>
      </trkpt>
      <trkpt lat="50.23393" lon="1.8539">
        <ele>64.400001525879</ele>
        <time>2023-08-09T09:45:43.000Z</time>
      </trkpt>
      <trkpt lat="50.23379" lon="1.85376">
        <ele>64.400001525879</ele>
        <time>2023-08-09T09:45:46.000Z</time>
      </trkpt>
      <trkpt lat="50.23366" lon="1.85364">
        <ele>64.400001525879</ele>
        <time>2023-08-09T09:45:49.000Z</time>
      </trkpt>
      <trkpt lat="50.23358" lon="1.85356">
        <ele>65</ele>
        <time>2023-08-09T09:45:51.000Z</time>
      </trkpt>
      <trkpt lat="50.23319" lon="1.85313">
        <ele>65.199996948242</ele>
        <time>2023-08-09T09:46:00.000Z</time>
      </trkpt>
      <trkpt lat="50.23281" lon="1.8527">
        <ele>64.800003051758</ele>
        <time>2023-08-09T09:46:09.000Z</time>
      </trkpt>
      <trkpt lat="50.23247" lon="1.85235">
        <ele>65.400001525879</ele>
        <time>2023-08-09T09:46:17.000Z</time>
      </trkpt>
      <trkpt lat="50.23211" lon="1.85198">
        <ele>65.199996948242</ele>
        <time>2023-08-09T09:46:25.000Z</time>
      </trkpt>
      <trkpt lat="50.23196" lon="1.85183">
        <ele>64.800003051758</ele>
        <time>2023-08-09T09:46:28.000Z</time>
      </trkpt>
      <trkpt lat="50.23158" lon="1.85141">
        <ele>64.400001525879</ele>
        <time>2023-08-09T09:46:36.000Z</time>
      </trkpt>
      <trkpt lat="50.23108" lon="1.8509">
        <ele>64</ele>
        <time>2023-08-09T09:46:46.000Z</time>
      </trkpt>
      <trkpt lat="50.23062" lon="1.85042">
        <ele>63.599998474121</ele>
        <time>2023-08-09T09:46:55.000Z</time>
      </trkpt>
      <trkpt lat="50.23051" lon="1.85031">
        <ele>63.599998474121</ele>
        <time>2023-08-09T09:46:57.000Z</time>
      </trkpt>
      <trkpt lat="50.23035" lon="1.85014">
        <ele>63.400001525879</ele>
        <time>2023-08-09T09:47:00.000Z</time>
      </trkpt>
      <trkpt lat="50.22997" lon="1.84975">
        <ele>62.799999237061</ele>
        <time>2023-08-09T09:47:07.000Z</time>
      </trkpt>
      <trkpt lat="50.22955" lon="1.84931">
        <ele>62.599998474121</ele>
        <time>2023-08-09T09:47:14.000Z</time>
      </trkpt>
      <trkpt lat="50.22906" lon="1.84879">
        <ele>62.200000762939</ele>
        <time>2023-08-09T09:47:22.000Z</time>
      </trkpt>
      <trkpt lat="50.22887" lon="1.8486">
        <ele>62</ele>
        <time>2023-08-09T09:47:25.000Z</time>
      </trkpt>
      <trkpt lat="50.22838" lon="1.84808">
        <ele>61.400001525879</ele>
        <time>2023-08-09T09:47:33.000Z</time>
      </trkpt>
      <trkpt lat="50.22787" lon="1.84756">
        <ele>61.200000762939</ele>
        <time>2023-08-09T09:47:41.000Z</time>
      </trkpt>
      <trkpt lat="50.22774" lon="1.84742">
        <ele>61.200000762939</ele>
        <time>2023-08-09T09:47:43.000Z</time>
      </trkpt>
      <trkpt lat="50.22729" lon="1.84695">
        <ele>60.799999237061</ele>
        <time>2023-08-09T09:47:50.000Z</time>
      </trkpt>
      <trkpt lat="50.22685" lon="1.84649">
        <ele>60</ele>
        <time>2023-08-09T09:47:57.000Z</time>
      </trkpt>
      <trkpt lat="50.22652" lon="1.84615">
        <ele>59.599998474121</ele>
        <time>2023-08-09T09:48:02.000Z</time>
      </trkpt>
      <trkpt lat="50.2262" lon="1.84582">
        <ele>59.200000762939</ele>
        <time>2023-08-09T09:48:07.000Z</time>
      </trkpt>
      <trkpt lat="50.22575" lon="1.84534">
        <ele>58.599998474121</ele>
        <time>2023-08-09T09:48:14.000Z</time>
      </trkpt>
      <trkpt lat="50.22561" lon="1.84521">
        <ele>58.599998474121</ele>
        <time>2023-08-09T09:48:16.000Z</time>
      </trkpt>
      <trkpt lat="50.22548" lon="1.84507">
        <ele>58.400001525879</ele>
        <time>2023-08-09T09:48:18.000Z</time>
      </trkpt>
      <trkpt lat="50.22522" lon="1.84481">
        <ele>58</ele>
        <time>2023-08-09T09:48:22.000Z</time>
      </trkpt>
      <trkpt lat="50.22509" lon="1.84468">
        <ele>58</ele>
        <time>2023-08-09T09:48:24.000Z</time>
      </trkpt>
      <trkpt lat="50.22482" lon="1.84441">
        <ele>57</ele>
        <time>2023-08-09T09:48:28.000Z</time>
      </trkpt>
      <trkpt lat="50.22437" lon="1.84393">
        <ele>56.799999237061</ele>
        <time>2023-08-09T09:48:35.000Z</time>
      </trkpt>
      <trkpt lat="50.22392" lon="1.84346">
        <ele>56.400001525879</ele>
        <time>2023-08-09T09:48:42.000Z</time>
      </trkpt>
      <trkpt lat="50.2238" lon="1.84333">
        <ele>56.400001525879</ele>
        <time>2023-08-09T09:48:44.000Z</time>
      </trkpt>
      <trkpt lat="50.22363" lon="1.84315">
        <ele>56.200000762939</ele>
        <time>2023-08-09T09:48:47.000Z</time>
      </trkpt>
      <trkpt lat="50.22351" lon="1.84303">
        <ele>56</ele>
        <time>2023-08-09T09:48:49.000Z</time>
      </trkpt>
      <trkpt lat="50.22333" lon="1.84286">
        <ele>55.799999237061</ele>
        <time>2023-08-09T09:48:52.000Z</time>
      </trkpt>
      <trkpt lat="50.22296" lon="1.84244">
        <ele>55</ele>
        <time>2023-08-09T09:48:58.000Z</time>
      </trkpt>
      <trkpt lat="50.22251" lon="1.84195">
        <ele>54.200000762939</ele>
        <time>2023-08-09T09:49:05.000Z</time>
      </trkpt>
      <trkpt lat="50.22244" lon="1.84188">
        <ele>54</ele>
        <time>2023-08-09T09:49:06.000Z</time>
      </trkpt>
      <trkpt lat="50.22231" lon="1.84174">
        <ele>53.599998474121</ele>
        <time>2023-08-09T09:49:08.000Z</time>
      </trkpt>
      <trkpt lat="50.22199" lon="1.8414">
        <ele>53.400001525879</ele>
        <time>2023-08-09T09:49:13.000Z</time>
      </trkpt>
      <trkpt lat="50.22192" lon="1.84133">
        <ele>53.200000762939</ele>
        <time>2023-08-09T09:49:14.000Z</time>
      </trkpt>
      <trkpt lat="50.22147" lon="1.84087">
        <ele>52.799999237061</ele>
        <time>2023-08-09T09:49:21.000Z</time>
      </trkpt>
      <trkpt lat="50.22135" lon="1.84074">
        <ele>52.599998474121</ele>
        <time>2023-08-09T09:49:23.000Z</time>
      </trkpt>
      <trkpt lat="50.22086" lon="1.84023">
        <ele>52.599998474121</ele>
        <time>2023-08-09T09:49:31.000Z</time>
      </trkpt>
      <trkpt lat="50.22038" lon="1.83975">
        <ele>52.400001525879</ele>
        <time>2023-08-09T09:49:39.000Z</time>
      </trkpt>
      <trkpt lat="50.22032" lon="1.83968">
        <ele>52.400001525879</ele>
        <time>2023-08-09T09:49:40.000Z</time>
      </trkpt>
      <trkpt lat="50.22015" lon="1.83949">
        <ele>52.400001525879</ele>
        <time>2023-08-09T09:49:43.000Z</time>
      </trkpt>
      <trkpt lat="50.2198" lon="1.83913">
        <ele>52.200000762939</ele>
        <time>2023-08-09T09:49:49.000Z</time>
      </trkpt>
      <trkpt lat="50.21934" lon="1.83865">
        <ele>51.599998474121</ele>
        <time>2023-08-09T09:49:57.000Z</time>
      </trkpt>
      <trkpt lat="50.21885" lon="1.83814">
        <ele>51.599998474121</ele>
        <time>2023-08-09T09:50:05.000Z</time>
      </trkpt>
      <trkpt lat="50.21855" lon="1.83781">
        <ele>51.200000762939</ele>
        <time>2023-08-09T09:50:10.000Z</time>
      </trkpt>
      <trkpt lat="50.21835" lon="1.8376">
        <ele>51</ele>
        <time>2023-08-09T09:50:13.000Z</time>
      </trkpt>
      <trkpt lat="50.21784" lon="1.83706">
        <ele>50.200000762939</ele>
        <time>2023-08-09T09:50:21.000Z</time>
      </trkpt>
      <trkpt lat="50.21778" lon="1.837">
        <ele>50.200000762939</ele>
        <time>2023-08-09T09:50:22.000Z</time>
      </trkpt>
      <trkpt lat="50.21772" lon="1.83693">
        <ele>50.200000762939</ele>
        <time>2023-08-09T09:50:23.000Z</time>
      </trkpt>
      <trkpt lat="50.21725" lon="1.83644">
        <ele>49.599998474121</ele>
        <time>2023-08-09T09:50:30.000Z</time>
      </trkpt>
      <trkpt lat="50.21712" lon="1.83629">
        <ele>49.200000762939</ele>
        <time>2023-08-09T09:50:32.000Z</time>
      </trkpt>
      <trkpt lat="50.21705" lon="1.83622">
        <ele>49</ele>
        <time>2023-08-09T09:50:33.000Z</time>
      </trkpt>
      <trkpt lat="50.21663" lon="1.83578">
        <ele>47.799999237061</ele>
        <time>2023-08-09T09:50:39.000Z</time>
      </trkpt>
      <trkpt lat="50.21656" lon="1.8357">
        <ele>47.599998474121</ele>
        <time>2023-08-09T09:50:40.000Z</time>
      </trkpt>
      <trkpt lat="50.21605" lon="1.83517">
        <ele>46.799999237061</ele>
        <time>2023-08-09T09:50:47.000Z</time>
      </trkpt>
      <trkpt lat="50.21591" lon="1.83503">
        <ele>46.799999237061</ele>
        <time>2023-08-09T09:50:49.000Z</time>
      </trkpt>
      <trkpt lat="50.21584" lon="1.83496">
        <ele>46.599998474121</ele>
        <time>2023-08-09T09:50:50.000Z</time>
      </trkpt>
      <trkpt lat="50.21538" lon="1.83447">
        <ele>46</ele>
        <time>2023-08-09T09:50:57.000Z</time>
      </trkpt>
      <trkpt lat="50.21519" lon="1.83427">
        <ele>45.599998474121</ele>
        <time>2023-08-09T09:51:00.000Z</time>
      </trkpt>
      <trkpt lat="50.21487" lon="1.83393">
        <ele>45</ele>
        <time>2023-08-09T09:51:05.000Z</time>
      </trkpt>
      <trkpt lat="50.21449" lon="1.83353">
        <ele>44.599998474121</ele>
        <time>2023-08-09T09:51:11.000Z</time>
      </trkpt>
      <trkpt lat="50.21437" lon="1.83339">
        <ele>44.400001525879</ele>
        <time>2023-08-09T09:51:13.000Z</time>
      </trkpt>
      <trkpt lat="50.21405" lon="1.83304">
        <ele>43.799999237061</ele>
        <time>2023-08-09T09:51:18.000Z</time>
      </trkpt>
      <trkpt lat="50.21391" lon="1.83289">
        <ele>43.400001525879</ele>
        <time>2023-08-09T09:51:20.000Z</time>
      </trkpt>
      <trkpt lat="50.21367" lon="1.83263">
        <ele>42.599998474121</ele>
        <time>2023-08-09T09:51:23.000Z</time>
      </trkpt>
      <trkpt lat="50.21351" lon="1.83247">
        <ele>42</ele>
        <time>2023-08-09T09:51:25.000Z</time>
      </trkpt>
      <trkpt lat="50.21329" lon="1.83223">
        <ele>40.599998474121</ele>
        <time>2023-08-09T09:51:28.000Z</time>
      </trkpt>
      <trkpt lat="50.21307" lon="1.83201">
        <ele>39.400001525879</ele>
        <time>2023-08-09T09:51:31.000Z</time>
      </trkpt>
      <trkpt lat="50.21276" lon="1.8317">
        <ele>38.799999237061</ele>
        <time>2023-08-09T09:51:36.000Z</time>
      </trkpt>
      <trkpt lat="50.21254" lon="1.83149">
        <ele>38.799999237061</ele>
        <time>2023-08-09T09:51:41.000Z</time>
      </trkpt>
      <trkpt lat="50.21251" lon="1.8315">
        <ele>39</ele>
        <time>2023-08-09T09:51:43.000Z</time>
      </trkpt>
      <trkpt lat="50.21258" lon="1.83158">
        <ele>39.200000762939</ele>
        <time>2023-08-09T09:51:46.000Z</time>
      </trkpt>
      <trkpt lat="50.21275" lon="1.83173">
        <ele>39.200000762939</ele>
        <time>2023-08-09T09:51:50.000Z</time>
      </trkpt>
      <trkpt lat="50.21302" lon="1.83206">
        <ele>39</ele>
        <time>2023-08-09T09:51:55.000Z</time>
      </trkpt>
      <trkpt lat="50.21319" lon="1.83225">
        <ele>38.799999237061</ele>
        <time>2023-08-09T09:51:58.000Z</time>
      </trkpt>
      <trkpt lat="50.21337" lon="1.83247">
        <ele>38.400001525879</ele>
        <time>2023-08-09T09:52:01.000Z</time>
      </trkpt>
      <trkpt lat="50.21343" lon="1.83253">
        <ele>38.400001525879</ele>
        <time>2023-08-09T09:52:02.000Z</time>
      </trkpt>
      <trkpt lat="50.21355" lon="1.83256">
        <ele>38.400001525879</ele>
        <time>2023-08-09T09:52:04.000Z</time>
      </trkpt>
      <trkpt lat="50.21364" lon="1.83245">
        <ele>38.599998474121</ele>
        <time>2023-08-09T09:52:06.000Z</time>
      </trkpt>
      <trkpt lat="50.21369" lon="1.83215">
        <ele>39</ele>
        <time>2023-08-09T09:52:10.000Z</time>
      </trkpt>
      <trkpt lat="50.21371" lon="1.83185">
        <ele>39.799999237061</ele>
        <time>2023-08-09T09:52:14.000Z</time>
      </trkpt>
      <trkpt lat="50.21371" lon="1.83179">
        <ele>40</ele>
        <time>2023-08-09T09:52:15.000Z</time>
      </trkpt>
      <trkpt lat="50.21373" lon="1.83161">
        <ele>40.400001525879</ele>
        <time>2023-08-09T09:52:19.000Z</time>
      </trkpt>
      <trkpt lat="50.21374" lon="1.83126">
        <ele>40.799999237061</ele>
        <time>2023-08-09T09:52:24.000Z</time>
      </trkpt>
      <trkpt lat="50.21375" lon="1.83078">
        <ele>41.200000762939</ele>
        <time>2023-08-09T09:52:30.000Z</time>
      </trkpt>
      <trkpt lat="50.21377" lon="1.83029">
        <ele>41.799999237061</ele>
        <time>2023-08-09T09:52:36.000Z</time>
      </trkpt>
      <trkpt lat="50.21376" lon="1.83013">
        <ele>42</ele>
        <time>2023-08-09T09:52:38.000Z</time>
      </trkpt>
      <trkpt lat="50.21376" lon="1.82995">
        <ele>42.400001525879</ele>
        <time>2023-08-09T09:52:40.000Z</time>
      </trkpt>
      <trkpt lat="50.21379" lon="1.82974">
        <ele>42.799999237061</ele>
        <time>2023-08-09T09:52:43.000Z</time>
      </trkpt>
      <trkpt lat="50.21381" lon="1.82928">
        <ele>43.400001525879</ele>
        <time>2023-08-09T09:52:48.000Z</time>
      </trkpt>
      <trkpt lat="50.21383" lon="1.82923">
        <ele>43.599998474121</ele>
        <time>2023-08-09T09:52:49.000Z</time>
      </trkpt>
      <trkpt lat="50.21386" lon="1.82901">
        <ele>43.799999237061</ele>
        <time>2023-08-09T09:52:52.000Z</time>
      </trkpt>
      <trkpt lat="50.21386" lon="1.82886">
        <ele>44</ele>
        <time>2023-08-09T09:52:54.000Z</time>
      </trkpt>
      <trkpt lat="50.21385" lon="1.82862">
        <ele>44.200000762939</ele>
        <time>2023-08-09T09:52:57.000Z</time>
      </trkpt>
      <trkpt lat="50.2139" lon="1.82806">
        <ele>44.400001525879</ele>
        <time>2023-08-09T09:53:04.000Z</time>
      </trkpt>
      <trkpt lat="50.2139" lon="1.82788">
        <ele>44.400001525879</ele>
        <time>2023-08-09T09:53:06.000Z</time>
      </trkpt>
      <trkpt lat="50.2139" lon="1.82775">
        <ele>44.400001525879</ele>
        <time>2023-08-09T09:53:08.000Z</time>
      </trkpt>
      <trkpt lat="50.21394" lon="1.82711">
        <ele>45</ele>
        <time>2023-08-09T09:53:16.000Z</time>
      </trkpt>
      <trkpt lat="50.21394" lon="1.82703">
        <ele>45</ele>
        <time>2023-08-09T09:53:17.000Z</time>
      </trkpt>
      <trkpt lat="50.21397" lon="1.82615">
        <ele>45</ele>
        <time>2023-08-09T09:53:27.000Z</time>
      </trkpt>
      <trkpt lat="50.21398" lon="1.82594">
        <ele>45</ele>
        <time>2023-08-09T09:53:29.000Z</time>
      </trkpt>
      <trkpt lat="50.21401" lon="1.82563">
        <ele>44.799999237061</ele>
        <time>2023-08-09T09:53:33.000Z</time>
      </trkpt>
      <trkpt lat="50.214" lon="1.82545">
        <ele>44.599998474121</ele>
        <time>2023-08-09T09:53:35.000Z</time>
      </trkpt>
      <trkpt lat="50.21398" lon="1.82516">
        <ele>44.400001525879</ele>
        <time>2023-08-09T09:53:38.000Z</time>
      </trkpt>
      <trkpt lat="50.21399" lon="1.82508">
        <ele>44.400001525879</ele>
        <time>2023-08-09T09:53:39.000Z</time>
      </trkpt>
      <trkpt lat="50.214" lon="1.82473">
        <ele>43.799999237061</ele>
        <time>2023-08-09T09:53:42.000Z</time>
      </trkpt>
      <trkpt lat="50.21401" lon="1.8245">
        <ele>43.599998474121</ele>
        <time>2023-08-09T09:53:44.000Z</time>
      </trkpt>
      <trkpt lat="50.21402" lon="1.8243">
        <ele>43.200000762939</ele>
        <time>2023-08-09T09:53:46.000Z</time>
      </trkpt>
      <trkpt lat="50.21401" lon="1.82419">
        <ele>43</ele>
        <time>2023-08-09T09:53:47.000Z</time>
      </trkpt>
      <trkpt lat="50.21403" lon="1.82379">
        <ele>42.799999237061</ele>
        <time>2023-08-09T09:53:50.000Z</time>
      </trkpt>
      <trkpt lat="50.21406" lon="1.8233">
        <ele>42.599998474121</ele>
        <time>2023-08-09T09:53:54.000Z</time>
      </trkpt>
      <trkpt lat="50.21407" lon="1.82285">
        <ele>42.400001525879</ele>
        <time>2023-08-09T09:53:59.000Z</time>
      </trkpt>
      <trkpt lat="50.21404" lon="1.82254">
        <ele>42.599998474121</ele>
        <time>2023-08-09T09:54:02.000Z</time>
      </trkpt>
      <trkpt lat="50.21406" lon="1.82243">
        <ele>42.599998474121</ele>
        <time>2023-08-09T09:54:03.000Z</time>
      </trkpt>
      <trkpt lat="50.21411" lon="1.82159">
        <ele>43</ele>
        <time>2023-08-09T09:54:12.000Z</time>
      </trkpt>
      <trkpt lat="50.21417" lon="1.82067">
        <ele>43.400001525879</ele>
        <time>2023-08-09T09:54:22.000Z</time>
      </trkpt>
      <trkpt lat="50.21417" lon="1.82058">
        <ele>43.599998474121</ele>
        <time>2023-08-09T09:54:23.000Z</time>
      </trkpt>
      <trkpt lat="50.21421" lon="1.81997">
        <ele>43.599998474121</ele>
        <time>2023-08-09T09:54:30.000Z</time>
      </trkpt>
      <trkpt lat="50.21421" lon="1.81988">
        <ele>43.599998474121</ele>
        <time>2023-08-09T09:54:31.000Z</time>
      </trkpt>
      <trkpt lat="50.21425" lon="1.81914">
        <ele>43.200000762939</ele>
        <time>2023-08-09T09:54:39.000Z</time>
      </trkpt>
      <trkpt lat="50.21429" lon="1.81827">
        <ele>43</ele>
        <time>2023-08-09T09:54:48.000Z</time>
      </trkpt>
      <trkpt lat="50.2143" lon="1.81816">
        <ele>43</ele>
        <time>2023-08-09T09:54:49.000Z</time>
      </trkpt>
      <trkpt lat="50.21435" lon="1.81732">
        <ele>42.400001525879</ele>
        <time>2023-08-09T09:54:58.000Z</time>
      </trkpt>
      <trkpt lat="50.21436" lon="1.81723">
        <ele>42.200000762939</ele>
        <time>2023-08-09T09:54:59.000Z</time>
      </trkpt>
      <trkpt lat="50.2144" lon="1.81664">
        <ele>42.200000762939</ele>
        <time>2023-08-09T09:55:05.000Z</time>
      </trkpt>
      <trkpt lat="50.21447" lon="1.81593">
        <ele>41.599998474121</ele>
        <time>2023-08-09T09:55:12.000Z</time>
      </trkpt>
      <trkpt lat="50.21449" lon="1.81534">
        <ele>41.200000762939</ele>
        <time>2023-08-09T09:55:17.000Z</time>
      </trkpt>
      <trkpt lat="50.2145" lon="1.8149">
        <ele>40.799999237061</ele>
        <time>2023-08-09T09:55:21.000Z</time>
      </trkpt>
      <trkpt lat="50.2145" lon="1.81477">
        <ele>40.599998474121</ele>
        <time>2023-08-09T09:55:22.000Z</time>
      </trkpt>
      <trkpt lat="50.2145" lon="1.81459">
        <ele>40.400001525879</ele>
        <time>2023-08-09T09:55:24.000Z</time>
      </trkpt>
      <trkpt lat="50.21451" lon="1.81439">
        <ele>39.799999237061</ele>
        <time>2023-08-09T09:55:26.000Z</time>
      </trkpt>
      <trkpt lat="50.21454" lon="1.81405">
        <ele>39.200000762939</ele>
        <time>2023-08-09T09:55:29.000Z</time>
      </trkpt>
      <trkpt lat="50.21454" lon="1.81391">
        <ele>39.200000762939</ele>
        <time>2023-08-09T09:55:30.000Z</time>
      </trkpt>
      <trkpt lat="50.21453" lon="1.8137">
        <ele>38.799999237061</ele>
        <time>2023-08-09T09:55:31.000Z</time>
      </trkpt>
      <trkpt lat="50.21455" lon="1.81336">
        <ele>38.200000762939</ele>
        <time>2023-08-09T09:55:33.000Z</time>
      </trkpt>
      <trkpt lat="50.21458" lon="1.81283">
        <ele>36.799999237061</ele>
        <time>2023-08-09T09:55:36.000Z</time>
      </trkpt>
      <trkpt lat="50.21457" lon="1.8124">
        <ele>35.799999237061</ele>
        <time>2023-08-09T09:55:39.000Z</time>
      </trkpt>
      <trkpt lat="50.21459" lon="1.81212">
        <ele>35.599998474121</ele>
        <time>2023-08-09T09:55:41.000Z</time>
      </trkpt>
      <trkpt lat="50.2146" lon="1.81133">
        <ele>35.200000762939</ele>
        <time>2023-08-09T09:55:47.000Z</time>
      </trkpt>
      <trkpt lat="50.21462" lon="1.81084">
        <ele>35.400001525879</ele>
        <time>2023-08-09T09:55:52.000Z</time>
      </trkpt>
      <trkpt lat="50.21466" lon="1.81036">
        <ele>35.799999237061</ele>
        <time>2023-08-09T09:55:58.000Z</time>
      </trkpt>
      <trkpt lat="50.2147" lon="1.80983">
        <ele>36.599998474121</ele>
        <time>2023-08-09T09:56:05.000Z</time>
      </trkpt>
      <trkpt lat="50.21471" lon="1.80944">
        <ele>36.799999237061</ele>
        <time>2023-08-09T09:56:10.000Z</time>
      </trkpt>
      <trkpt lat="50.21472" lon="1.80912">
        <ele>36.799999237061</ele>
        <time>2023-08-09T09:56:14.000Z</time>
      </trkpt>
      <trkpt lat="50.21473" lon="1.80838">
        <ele>37.400001525879</ele>
        <time>2023-08-09T09:56:23.000Z</time>
      </trkpt>
      <trkpt lat="50.21477" lon="1.80754">
        <ele>37.799999237061</ele>
        <time>2023-08-09T09:56:33.000Z</time>
      </trkpt>
      <trkpt lat="50.21477" lon="1.80746">
        <ele>38</ele>
        <time>2023-08-09T09:56:34.000Z</time>
      </trkpt>
      <trkpt lat="50.21481" lon="1.80715">
        <ele>38</ele>
        <time>2023-08-09T09:56:38.000Z</time>
      </trkpt>
      <trkpt lat="50.21483" lon="1.80697">
        <ele>38.200000762939</ele>
        <time>2023-08-09T09:56:41.000Z</time>
      </trkpt>
      <trkpt lat="50.21486" lon="1.8065">
        <ele>38.400001525879</ele>
        <time>2023-08-09T09:56:47.000Z</time>
      </trkpt>
      <trkpt lat="50.21491" lon="1.80592">
        <ele>38.599998474121</ele>
        <time>2023-08-09T09:56:54.000Z</time>
      </trkpt>
      <trkpt lat="50.21492" lon="1.80559">
        <ele>38.400001525879</ele>
        <time>2023-08-09T09:56:58.000Z</time>
      </trkpt>
      <trkpt lat="50.21493" lon="1.8055">
        <ele>38.400001525879</ele>
        <time>2023-08-09T09:56:59.000Z</time>
      </trkpt>
      <trkpt lat="50.21492" lon="1.80488">
        <ele>38.200000762939</ele>
        <time>2023-08-09T09:57:05.000Z</time>
      </trkpt>
      <trkpt lat="50.21493" lon="1.80479">
        <ele>38.200000762939</ele>
        <time>2023-08-09T09:57:06.000Z</time>
      </trkpt>
      <trkpt lat="50.21497" lon="1.80442">
        <ele>38</ele>
        <time>2023-08-09T09:57:10.000Z</time>
      </trkpt>
      <trkpt lat="50.21497" lon="1.80427">
        <ele>38</ele>
        <time>2023-08-09T09:57:12.000Z</time>
      </trkpt>
      <trkpt lat="50.21495" lon="1.80407">
        <ele>38</ele>
        <time>2023-08-09T09:57:14.000Z</time>
      </trkpt>
      <trkpt lat="50.215" lon="1.80364">
        <ele>38</ele>
        <time>2023-08-09T09:57:18.000Z</time>
      </trkpt>
      <trkpt lat="50.21501" lon="1.80353">
        <ele>38</ele>
        <time>2023-08-09T09:57:19.000Z</time>
      </trkpt>
      <trkpt lat="50.21501" lon="1.80334">
        <ele>37.799999237061</ele>
        <time>2023-08-09T09:57:21.000Z</time>
      </trkpt>
      <trkpt lat="50.21501" lon="1.80314">
        <ele>37.599998474121</ele>
        <time>2023-08-09T09:57:23.000Z</time>
      </trkpt>
      <trkpt lat="50.21502" lon="1.80259">
        <ele>37.400001525879</ele>
        <time>2023-08-09T09:57:28.000Z</time>
      </trkpt>
      <trkpt lat="50.21503" lon="1.80246">
        <ele>37.200000762939</ele>
        <time>2023-08-09T09:57:29.000Z</time>
      </trkpt>
      <trkpt lat="50.21505" lon="1.8023">
        <ele>36.799999237061</ele>
        <time>2023-08-09T09:57:31.000Z</time>
      </trkpt>
      <trkpt lat="50.21509" lon="1.80204">
        <ele>36.599998474121</ele>
        <time>2023-08-09T09:57:34.000Z</time>
      </trkpt>
      <trkpt lat="50.21509" lon="1.80196">
        <ele>36.599998474121</ele>
        <time>2023-08-09T09:57:35.000Z</time>
      </trkpt>
      <trkpt lat="50.21509" lon="1.80185">
        <ele>36.400001525879</ele>
        <time>2023-08-09T09:57:36.000Z</time>
      </trkpt>
      <trkpt lat="50.2151" lon="1.8016">
        <ele>36.200000762939</ele>
        <time>2023-08-09T09:57:38.000Z</time>
      </trkpt>
      <trkpt lat="50.21512" lon="1.80129">
        <ele>35.400001525879</ele>
        <time>2023-08-09T09:57:41.000Z</time>
      </trkpt>
      <trkpt lat="50.21512" lon="1.80115">
        <ele>35.200000762939</ele>
        <time>2023-08-09T09:57:42.000Z</time>
      </trkpt>
      <trkpt lat="50.21512" lon="1.80093">
        <ele>34.799999237061</ele>
        <time>2023-08-09T09:57:44.000Z</time>
      </trkpt>
      <trkpt lat="50.21512" lon="1.80065">
        <ele>34.599998474121</ele>
        <time>2023-08-09T09:57:46.000Z</time>
      </trkpt>
      <trkpt lat="50.21511" lon="1.80041">
        <ele>34.400001525879</ele>
        <time>2023-08-09T09:57:48.000Z</time>
      </trkpt>
      <trkpt lat="50.21511" lon="1.8003">
        <ele>34</ele>
        <time>2023-08-09T09:57:49.000Z</time>
      </trkpt>
      <trkpt lat="50.21512" lon="1.80019">
        <ele>33.799999237061</ele>
        <time>2023-08-09T09:57:50.000Z</time>
      </trkpt>
      <trkpt lat="50.21514" lon="1.79983">
        <ele>33.400001525879</ele>
        <time>2023-08-09T09:57:53.000Z</time>
      </trkpt>
      <trkpt lat="50.21515" lon="1.79975">
        <ele>33.400001525879</ele>
        <time>2023-08-09T09:57:54.000Z</time>
      </trkpt>
      <trkpt lat="50.21521" lon="1.79925">
        <ele>33.200000762939</ele>
        <time>2023-08-09T09:57:59.000Z</time>
      </trkpt>
      <trkpt lat="50.21523" lon="1.79895">
        <ele>33.400001525879</ele>
        <time>2023-08-09T09:58:02.000Z</time>
      </trkpt>
      <trkpt lat="50.21522" lon="1.79877">
        <ele>33.599998474121</ele>
        <time>2023-08-09T09:58:04.000Z</time>
      </trkpt>
      <trkpt lat="50.21526" lon="1.7983">
        <ele>34</ele>
        <time>2023-08-09T09:58:10.000Z</time>
      </trkpt>
      <trkpt lat="50.21526" lon="1.79822">
        <ele>34.200000762939</ele>
        <time>2023-08-09T09:58:11.000Z</time>
      </trkpt>
      <trkpt lat="50.21527" lon="1.79801">
        <ele>34.400001525879</ele>
        <time>2023-08-09T09:58:14.000Z</time>
      </trkpt>
      <trkpt lat="50.21528" lon="1.79785">
        <ele>34.599998474121</ele>
        <time>2023-08-09T09:58:16.000Z</time>
      </trkpt>
      <trkpt lat="50.21528" lon="1.79773">
        <ele>35</ele>
        <time>2023-08-09T09:58:18.000Z</time>
      </trkpt>
      <trkpt lat="50.2153" lon="1.79758">
        <ele>35.200000762939</ele>
        <time>2023-08-09T09:58:20.000Z</time>
      </trkpt>
      <trkpt lat="50.21531" lon="1.7975">
        <ele>35.400001525879</ele>
        <time>2023-08-09T09:58:21.000Z</time>
      </trkpt>
      <trkpt lat="50.21536" lon="1.79705">
        <ele>35.799999237061</ele>
        <time>2023-08-09T09:58:27.000Z</time>
      </trkpt>
      <trkpt lat="50.21535" lon="1.79688">
        <ele>35.799999237061</ele>
        <time>2023-08-09T09:58:29.000Z</time>
      </trkpt>
      <trkpt lat="50.21535" lon="1.79672">
        <ele>36</ele>
        <time>2023-08-09T09:58:31.000Z</time>
      </trkpt>
      <trkpt lat="50.21532" lon="1.79614">
        <ele>36</ele>
        <time>2023-08-09T09:58:37.000Z</time>
      </trkpt>
      <trkpt lat="50.21533" lon="1.79547">
        <ele>35.799999237061</ele>
        <time>2023-08-09T09:58:44.000Z</time>
      </trkpt>
      <trkpt lat="50.21537" lon="1.79478">
        <ele>35.400001525879</ele>
        <time>2023-08-09T09:58:52.000Z</time>
      </trkpt>
      <trkpt lat="50.21541" lon="1.79395">
        <ele>35.400001525879</ele>
        <time>2023-08-09T09:59:01.000Z</time>
      </trkpt>
      <trkpt lat="50.21542" lon="1.79375">
        <ele>35.400001525879</ele>
        <time>2023-08-09T09:59:03.000Z</time>
      </trkpt>
      <trkpt lat="50.21543" lon="1.79347">
        <ele>35.400001525879</ele>
        <time>2023-08-09T09:59:06.000Z</time>
      </trkpt>
      <trkpt lat="50.21546" lon="1.79279">
        <ele>35.200000762939</ele>
        <time>2023-08-09T09:59:13.000Z</time>
      </trkpt>
      <trkpt lat="50.21546" lon="1.79216">
        <ele>35.400001525879</ele>
        <time>2023-08-09T09:59:20.000Z</time>
      </trkpt>
      <trkpt lat="50.2154" lon="1.7916">
        <ele>35.400001525879</ele>
        <time>2023-08-09T09:59:26.000Z</time>
      </trkpt>
      <trkpt lat="50.21534" lon="1.79121">
        <ele>35</ele>
        <time>2023-08-09T09:59:30.000Z</time>
      </trkpt>
      <trkpt lat="50.21529" lon="1.79103">
        <ele>35</ele>
        <time>2023-08-09T09:59:32.000Z</time>
      </trkpt>
      <trkpt lat="50.21507" lon="1.79045">
        <ele>34.599998474121</ele>
        <time>2023-08-09T09:59:38.000Z</time>
      </trkpt>
      <trkpt lat="50.21504" lon="1.79033">
        <ele>34.599998474121</ele>
        <time>2023-08-09T09:59:39.000Z</time>
      </trkpt>
      <trkpt lat="50.2148" lon="1.78981">
        <ele>34</ele>
        <time>2023-08-09T09:59:45.000Z</time>
      </trkpt>
      <trkpt lat="50.21475" lon="1.78973">
        <ele>33.799999237061</ele>
        <time>2023-08-09T09:59:46.000Z</time>
      </trkpt>
      <trkpt lat="50.21446" lon="1.78935">
        <ele>32.599998474121</ele>
        <time>2023-08-09T09:59:51.000Z</time>
      </trkpt>
      <trkpt lat="50.21433" lon="1.78917">
        <ele>32.200000762939</ele>
        <time>2023-08-09T09:59:53.000Z</time>
      </trkpt>
      <trkpt lat="50.21414" lon="1.78894">
        <ele>31.200000762939</ele>
        <time>2023-08-09T09:59:56.000Z</time>
      </trkpt>
      <trkpt lat="50.21399" lon="1.78874">
        <ele>30.799999237061</ele>
        <time>2023-08-09T09:59:58.000Z</time>
      </trkpt>
      <trkpt lat="50.21386" lon="1.78858">
        <ele>29.799999237061</ele>
        <time>2023-08-09T10:00:00.000Z</time>
      </trkpt>
      <trkpt lat="50.2137" lon="1.78837">
        <ele>28.60000038147</ele>
        <time>2023-08-09T10:00:02.000Z</time>
      </trkpt>
      <trkpt lat="50.21356" lon="1.7882">
        <ele>27.39999961853</ele>
        <time>2023-08-09T10:00:04.000Z</time>
      </trkpt>
      <trkpt lat="50.21348" lon="1.7881">
        <ele>27</ele>
        <time>2023-08-09T10:00:05.000Z</time>
      </trkpt>
      <trkpt lat="50.21332" lon="1.7879">
        <ele>26.200000762939</ele>
        <time>2023-08-09T10:00:07.000Z</time>
      </trkpt>
      <trkpt lat="50.21322" lon="1.78778">
        <ele>25</ele>
        <time>2023-08-09T10:00:08.000Z</time>
      </trkpt>
      <trkpt lat="50.21306" lon="1.78757">
        <ele>23.60000038147</ele>
        <time>2023-08-09T10:00:10.000Z</time>
      </trkpt>
      <trkpt lat="50.21289" lon="1.78737">
        <ele>22.799999237061</ele>
        <time>2023-08-09T10:00:12.000Z</time>
      </trkpt>
      <trkpt lat="50.21282" lon="1.78729">
        <ele>22.200000762939</ele>
        <time>2023-08-09T10:00:13.000Z</time>
      </trkpt>
      <trkpt lat="50.21264" lon="1.7871">
        <ele>20.60000038147</ele>
        <time>2023-08-09T10:00:15.000Z</time>
      </trkpt>
      <trkpt lat="50.21244" lon="1.7869">
        <ele>19.39999961853</ele>
        <time>2023-08-09T10:00:17.000Z</time>
      </trkpt>
      <trkpt lat="50.21228" lon="1.78674">
        <ele>18.39999961853</ele>
        <time>2023-08-09T10:00:19.000Z</time>
      </trkpt>
      <trkpt lat="50.21218" lon="1.78666">
        <ele>17.39999961853</ele>
        <time>2023-08-09T10:00:20.000Z</time>
      </trkpt>
      <trkpt lat="50.21197" lon="1.78647">
        <ele>16.200000762939</ele>
        <time>2023-08-09T10:00:22.000Z</time>
      </trkpt>
      <trkpt lat="50.2117" lon="1.78622">
        <ele>15</ele>
        <time>2023-08-09T10:00:25.000Z</time>
      </trkpt>
      <trkpt lat="50.21152" lon="1.78607">
        <ele>13.199999809265</ele>
        <time>2023-08-09T10:00:27.000Z</time>
      </trkpt>
      <trkpt lat="50.21144" lon="1.78601">
        <ele>12.800000190735</ele>
        <time>2023-08-09T10:00:28.000Z</time>
      </trkpt>
      <trkpt lat="50.21136" lon="1.78593">
        <ele>12.199999809265</ele>
        <time>2023-08-09T10:00:29.000Z</time>
      </trkpt>
      <trkpt lat="50.21111" lon="1.7857">
        <ele>11</ele>
        <time>2023-08-09T10:00:32.000Z</time>
      </trkpt>
      <trkpt lat="50.21097" lon="1.78553">
        <ele>10.199999809265</ele>
        <time>2023-08-09T10:00:34.000Z</time>
      </trkpt>
      <trkpt lat="50.21091" lon="1.7854">
        <ele>10</ele>
        <time>2023-08-09T10:00:36.000Z</time>
      </trkpt>
      <trkpt lat="50.2109" lon="1.78535">
        <ele>9.8000001907349</ele>
        <time>2023-08-09T10:00:37.000Z</time>
      </trkpt>
      <trkpt lat="50.21089" lon="1.78531">
        <ele>9.6000003814697</ele>
        <time>2023-08-09T10:00:38.000Z</time>
      </trkpt>
      <trkpt lat="50.21088" lon="1.78526">
        <ele>9.1999998092651</ele>
        <time>2023-08-09T10:00:40.000Z</time>
      </trkpt>
      <trkpt lat="50.21087" lon="1.78526">
        <ele>8.8000001907349</ele>
        <time>2023-08-09T10:00:41.000Z</time>
      </trkpt>
      <trkpt lat="50.21075" lon="1.78525">
        <ele>8</ele>
        <time>2023-08-09T10:00:46.000Z</time>
      </trkpt>
      <trkpt lat="50.21069" lon="1.78521">
        <ele>7.8000001907349</ele>
        <time>2023-08-09T10:00:48.000Z</time>
      </trkpt>
      <trkpt lat="50.21055" lon="1.78514">
        <ele>7.5999999046326</ele>
        <time>2023-08-09T10:00:51.000Z</time>
      </trkpt>
      <trkpt lat="50.21024" lon="1.78503">
        <ele>7</ele>
        <time>2023-08-09T10:00:57.000Z</time>
      </trkpt>
      <trkpt lat="50.20973" lon="1.78484">
        <ele>6.8000001907349</ele>
        <time>2023-08-09T10:01:06.000Z</time>
      </trkpt>
      <trkpt lat="50.20945" lon="1.78458">
        <ele>7</ele>
        <time>2023-08-09T10:01:12.000Z</time>
      </trkpt>
      <trkpt lat="50.20941" lon="1.78454">
        <ele>7</ele>
        <time>2023-08-09T10:01:13.000Z</time>
      </trkpt>
      <trkpt lat="50.20919" lon="1.78431">
        <ele>8</ele>
        <time>2023-08-09T10:01:18.000Z</time>
      </trkpt>
      <trkpt lat="50.20914" lon="1.78419">
        <ele>8.1999998092651</ele>
        <time>2023-08-09T10:01:20.000Z</time>
      </trkpt>
      <trkpt lat="50.20906" lon="1.78388">
        <ele>8.6000003814697</ele>
        <time>2023-08-09T10:01:26.000Z</time>
      </trkpt>
      <trkpt lat="50.20901" lon="1.78369">
        <ele>8.8000001907349</ele>
        <time>2023-08-09T10:01:33.000Z</time>
      </trkpt>
      <trkpt lat="50.20901" lon="1.78369">
        <ele>8.8000001907349</ele>
        <time>2023-08-09T10:01:34.000Z</time>
      </trkpt>
      <trkpt lat="50.20901" lon="1.78369">
        <ele>9</ele>
        <time>2023-08-09T10:01:35.000Z</time>
      </trkpt>
      <trkpt lat="50.20907" lon="1.78364">
        <ele>9.1999998092651</ele>
        <time>2023-08-09T10:01:47.000Z</time>
      </trkpt>
      <trkpt lat="50.20909" lon="1.78363">
        <ele>9.1999998092651</ele>
        <time>2023-08-09T10:01:48.000Z</time>
      </trkpt>
      <trkpt lat="50.20916" lon="1.78356">
        <ele>9.1999998092651</ele>
        <time>2023-08-09T10:01:52.000Z</time>
      </trkpt>
      <trkpt lat="50.20919" lon="1.7835">
        <ele>9.1999998092651</ele>
        <time>2023-08-09T10:01:55.000Z</time>
      </trkpt>
      <trkpt lat="50.20919" lon="1.7835">
        <ele>9.1999998092651</ele>
        <time>2023-08-09T10:01:57.000Z</time>
      </trkpt>
      <trkpt lat="50.20921" lon="1.78348">
        <ele>9.1999998092651</ele>
        <time>2023-08-09T10:02:18.000Z</time>
      </trkpt>
      <trkpt lat="50.20935" lon="1.78336">
        <ele>9.3999996185303</ele>
        <time>2023-08-09T10:02:22.000Z</time>
      </trkpt>
      <trkpt lat="50.20954" lon="1.78318">
        <ele>9.3999996185303</ele>
        <time>2023-08-09T10:02:27.000Z</time>
      </trkpt>
      <trkpt lat="50.20959" lon="1.78314">
        <ele>9.3999996185303</ele>
        <time>2023-08-09T10:02:28.000Z</time>
      </trkpt>
      <trkpt lat="50.2098" lon="1.78297">
        <ele>9.1999998092651</ele>
        <time>2023-08-09T10:02:32.000Z</time>
      </trkpt>
      <trkpt lat="50.21019" lon="1.78257">
        <ele>8.8000001907349</ele>
        <time>2023-08-09T10:02:40.000Z</time>
      </trkpt>
      <trkpt lat="50.21056" lon="1.78208">
        <ele>8.1999998092651</ele>
        <time>2023-08-09T10:02:48.000Z</time>
      </trkpt>
      <trkpt lat="50.21091" lon="1.78163">
        <ele>7.8000001907349</ele>
        <time>2023-08-09T10:02:56.000Z</time>
      </trkpt>
      <trkpt lat="50.21104" lon="1.78144">
        <ele>7.5999999046326</ele>
        <time>2023-08-09T10:02:59.000Z</time>
      </trkpt>
      <trkpt lat="50.21108" lon="1.78138">
        <ele>7.5999999046326</ele>
        <time>2023-08-09T10:03:00.000Z</time>
      </trkpt>
      <trkpt lat="50.21113" lon="1.78125">
        <ele>7.5999999046326</ele>
        <time>2023-08-09T10:03:02.000Z</time>
      </trkpt>
      <trkpt lat="50.21115" lon="1.78116">
        <ele>7.4000000953674</ele>
        <time>2023-08-09T10:03:03.000Z</time>
      </trkpt>
      <trkpt lat="50.21129" lon="1.78052">
        <ele>7.1999998092651</ele>
        <time>2023-08-09T10:03:11.000Z</time>
      </trkpt>
      <trkpt lat="50.21141" lon="1.78001">
        <ele>7.1999998092651</ele>
        <time>2023-08-09T10:03:18.000Z</time>
      </trkpt>
      <trkpt lat="50.21144" lon="1.77992">
        <ele>7.1999998092651</ele>
        <time>2023-08-09T10:03:19.000Z</time>
      </trkpt>
      <trkpt lat="50.21146" lon="1.77977">
        <ele>7</ele>
        <time>2023-08-09T10:03:21.000Z</time>
      </trkpt>
      <trkpt lat="50.21149" lon="1.77965">
        <ele>7</ele>
        <time>2023-08-09T10:03:24.000Z</time>
      </trkpt>
      <trkpt lat="50.2115" lon="1.77963">
        <ele>7</ele>
        <time>2023-08-09T10:03:27.000Z</time>
      </trkpt>
      <trkpt lat="50.2115" lon="1.77963">
        <ele>7</ele>
        <time>2023-08-09T10:03:28.000Z</time>
      </trkpt>
      <trkpt lat="50.2115" lon="1.77956">
        <ele>7</ele>
        <time>2023-08-09T10:03:31.000Z</time>
      </trkpt>
      <trkpt lat="50.21148" lon="1.77951">
        <ele>7</ele>
        <time>2023-08-09T10:03:33.000Z</time>
      </trkpt>
      <trkpt lat="50.21128" lon="1.77933">
        <ele>6.1999998092651</ele>
        <time>2023-08-09T10:03:39.000Z</time>
      </trkpt>
      <trkpt lat="50.2112" lon="1.77923">
        <ele>6</ele>
        <time>2023-08-09T10:03:41.000Z</time>
      </trkpt>
      <trkpt lat="50.211" lon="1.779">
        <ele>6</ele>
        <time>2023-08-09T10:03:46.000Z</time>
      </trkpt>
      <trkpt lat="50.21067" lon="1.77859">
        <ele>6.4000000953674</ele>
        <time>2023-08-09T10:03:55.000Z</time>
      </trkpt>
      <trkpt lat="50.21049" lon="1.77825">
        <ele>7</ele>
        <time>2023-08-09T10:04:01.000Z</time>
      </trkpt>
      <trkpt lat="50.21039" lon="1.77806">
        <ele>7.5999999046326</ele>
        <time>2023-08-09T10:04:04.000Z</time>
      </trkpt>
      <trkpt lat="50.21025" lon="1.77775">
        <ele>8</ele>
        <time>2023-08-09T10:04:09.000Z</time>
      </trkpt>
      <trkpt lat="50.21018" lon="1.77758">
        <ele>8.3999996185303</ele>
        <time>2023-08-09T10:04:12.000Z</time>
      </trkpt>
      <trkpt lat="50.21016" lon="1.7775">
        <ele>8.6000003814697</ele>
        <time>2023-08-09T10:04:13.000Z</time>
      </trkpt>
      <trkpt lat="50.21012" lon="1.77737">
        <ele>8.8000001907349</ele>
        <time>2023-08-09T10:04:15.000Z</time>
      </trkpt>
      <trkpt lat="50.21009" lon="1.77725">
        <ele>9</ele>
        <time>2023-08-09T10:04:17.000Z</time>
      </trkpt>
      <trkpt lat="50.21008" lon="1.77717">
        <ele>9</ele>
        <time>2023-08-09T10:04:18.000Z</time>
      </trkpt>
      <trkpt lat="50.21002" lon="1.77693">
        <ele>9.3999996185303</ele>
        <time>2023-08-09T10:04:22.000Z</time>
      </trkpt>
      <trkpt lat="50.20991" lon="1.77645">
        <ele>10</ele>
        <time>2023-08-09T10:04:29.000Z</time>
      </trkpt>
      <trkpt lat="50.20983" lon="1.77602">
        <ele>10.60000038147</ele>
        <time>2023-08-09T10:04:35.000Z</time>
      </trkpt>
      <trkpt lat="50.20979" lon="1.77581">
        <ele>11.199999809265</ele>
        <time>2023-08-09T10:04:38.000Z</time>
      </trkpt>
      <trkpt lat="50.20973" lon="1.77544">
        <ele>12</ele>
        <time>2023-08-09T10:04:44.000Z</time>
      </trkpt>
      <trkpt lat="50.20972" lon="1.77536">
        <ele>12.199999809265</ele>
        <time>2023-08-09T10:04:45.000Z</time>
      </trkpt>
      <trkpt lat="50.20961" lon="1.77485">
        <ele>12.800000190735</ele>
        <time>2023-08-09T10:04:53.000Z</time>
      </trkpt>
      <trkpt lat="50.20955" lon="1.7745">
        <ele>13.199999809265</ele>
        <time>2023-08-09T10:04:58.000Z</time>
      </trkpt>
      <trkpt lat="50.2095" lon="1.77429">
        <ele>13.39999961853</ele>
        <time>2023-08-09T10:05:01.000Z</time>
      </trkpt>
      <trkpt lat="50.20937" lon="1.77369">
        <ele>13.60000038147</ele>
        <time>2023-08-09T10:05:10.000Z</time>
      </trkpt>
      <trkpt lat="50.20926" lon="1.77311">
        <ele>14</ele>
        <time>2023-08-09T10:05:18.000Z</time>
      </trkpt>
      <trkpt lat="50.20925" lon="1.77304">
        <ele>14</ele>
        <time>2023-08-09T10:05:19.000Z</time>
      </trkpt>
      <trkpt lat="50.20921" lon="1.77282">
        <ele>14.39999961853</ele>
        <time>2023-08-09T10:05:22.000Z</time>
      </trkpt>
      <trkpt lat="50.20914" lon="1.77245">
        <ele>14.39999961853</ele>
        <time>2023-08-09T10:05:27.000Z</time>
      </trkpt>
      <trkpt lat="50.20899" lon="1.77172">
        <ele>14.800000190735</ele>
        <time>2023-08-09T10:05:37.000Z</time>
      </trkpt>
      <trkpt lat="50.20893" lon="1.77144">
        <ele>15</ele>
        <time>2023-08-09T10:05:41.000Z</time>
      </trkpt>
      <trkpt lat="50.20888" lon="1.77124">
        <ele>15.39999961853</ele>
        <time>2023-08-09T10:05:44.000Z</time>
      </trkpt>
      <trkpt lat="50.20879" lon="1.77083">
        <ele>16.60000038147</ele>
        <time>2023-08-09T10:05:50.000Z</time>
      </trkpt>
      <trkpt lat="50.20877" lon="1.7707">
        <ele>17</ele>
        <time>2023-08-09T10:05:52.000Z</time>
      </trkpt>
      <trkpt lat="50.2087" lon="1.7703">
        <ele>17.799999237061</ele>
        <time>2023-08-09T10:05:58.000Z</time>
      </trkpt>
      <trkpt lat="50.20863" lon="1.76996">
        <ele>17.799999237061</ele>
        <time>2023-08-09T10:06:03.000Z</time>
      </trkpt>
      <trkpt lat="50.20847" lon="1.76908">
        <ele>18.200000762939</ele>
        <time>2023-08-09T10:06:16.000Z</time>
      </trkpt>
      <trkpt lat="50.20845" lon="1.76901">
        <ele>18.200000762939</ele>
        <time>2023-08-09T10:06:17.000Z</time>
      </trkpt>
      <trkpt lat="50.20826" lon="1.76821">
        <ele>18.39999961853</ele>
        <time>2023-08-09T10:06:28.000Z</time>
      </trkpt>
      <trkpt lat="50.2081" lon="1.76775">
        <ele>18.200000762939</ele>
        <time>2023-08-09T10:06:34.000Z</time>
      </trkpt>
      <trkpt lat="50.20804" lon="1.7676">
        <ele>18.200000762939</ele>
        <time>2023-08-09T10:06:36.000Z</time>
      </trkpt>
      <trkpt lat="50.20778" lon="1.76699">
        <ele>17.799999237061</ele>
        <time>2023-08-09T10:06:44.000Z</time>
      </trkpt>
      <trkpt lat="50.20745" lon="1.76624">
        <ele>16.799999237061</ele>
        <time>2023-08-09T10:06:53.000Z</time>
      </trkpt>
      <trkpt lat="50.20741" lon="1.76616">
        <ele>16.799999237061</ele>
        <time>2023-08-09T10:06:54.000Z</time>
      </trkpt>
      <trkpt lat="50.20738" lon="1.76608">
        <ele>16.60000038147</ele>
        <time>2023-08-09T10:06:55.000Z</time>
      </trkpt>
      <trkpt lat="50.20708" lon="1.7654">
        <ele>16.60000038147</ele>
        <time>2023-08-09T10:07:04.000Z</time>
      </trkpt>
      <trkpt lat="50.20695" lon="1.76507">
        <ele>16.799999237061</ele>
        <time>2023-08-09T10:07:09.000Z</time>
      </trkpt>
      <trkpt lat="50.20689" lon="1.76494">
        <ele>17.200000762939</ele>
        <time>2023-08-09T10:07:11.000Z</time>
      </trkpt>
      <trkpt lat="50.20681" lon="1.76475">
        <ele>17.60000038147</ele>
        <time>2023-08-09T10:07:14.000Z</time>
      </trkpt>
      <trkpt lat="50.2067" lon="1.7645">
        <ele>18.60000038147</ele>
        <time>2023-08-09T10:07:18.000Z</time>
      </trkpt>
      <trkpt lat="50.20668" lon="1.76444">
        <ele>18.799999237061</ele>
        <time>2023-08-09T10:07:19.000Z</time>
      </trkpt>
      <trkpt lat="50.2065" lon="1.76402">
        <ele>19.799999237061</ele>
        <time>2023-08-09T10:07:26.000Z</time>
      </trkpt>
      <trkpt lat="50.20647" lon="1.76396">
        <ele>20</ele>
        <time>2023-08-09T10:07:27.000Z</time>
      </trkpt>
      <trkpt lat="50.20625" lon="1.76341">
        <ele>21</ele>
        <time>2023-08-09T10:07:36.000Z</time>
      </trkpt>
      <trkpt lat="50.20623" lon="1.76335">
        <ele>21.200000762939</ele>
        <time>2023-08-09T10:07:37.000Z</time>
      </trkpt>
      <trkpt lat="50.20618" lon="1.76322">
        <ele>21.200000762939</ele>
        <time>2023-08-09T10:07:39.000Z</time>
      </trkpt>
      <trkpt lat="50.206" lon="1.76279">
        <ele>21.799999237061</ele>
        <time>2023-08-09T10:07:46.000Z</time>
      </trkpt>
      <trkpt lat="50.20579" lon="1.76229">
        <ele>22.200000762939</ele>
        <time>2023-08-09T10:07:54.000Z</time>
      </trkpt>
      <trkpt lat="50.20573" lon="1.76216">
        <ele>22.200000762939</ele>
        <time>2023-08-09T10:07:56.000Z</time>
      </trkpt>
      <trkpt lat="50.20553" lon="1.76172">
        <ele>22.200000762939</ele>
        <time>2023-08-09T10:08:03.000Z</time>
      </trkpt>
      <trkpt lat="50.20519" lon="1.76105">
        <ele>22.200000762939</ele>
        <time>2023-08-09T10:08:14.000Z</time>
      </trkpt>
      <trkpt lat="50.20509" lon="1.76086">
        <ele>22.200000762939</ele>
        <time>2023-08-09T10:08:17.000Z</time>
      </trkpt>
      <trkpt lat="50.20474" lon="1.76018">
        <ele>21.799999237061</ele>
        <time>2023-08-09T10:08:27.000Z</time>
      </trkpt>
      <trkpt lat="50.20439" lon="1.75949">
        <ele>21.39999961853</ele>
        <time>2023-08-09T10:08:37.000Z</time>
      </trkpt>
      <trkpt lat="50.20425" lon="1.75921">
        <ele>21.200000762939</ele>
        <time>2023-08-09T10:08:41.000Z</time>
      </trkpt>
      <trkpt lat="50.20396" lon="1.75865">
        <ele>21.39999961853</ele>
        <time>2023-08-09T10:08:50.000Z</time>
      </trkpt>
      <trkpt lat="50.20363" lon="1.75806">
        <ele>21.799999237061</ele>
        <time>2023-08-09T10:09:00.000Z</time>
      </trkpt>
      <trkpt lat="50.2033" lon="1.75753">
        <ele>22</ele>
        <time>2023-08-09T10:09:09.000Z</time>
      </trkpt>
      <trkpt lat="50.20289" lon="1.75692">
        <ele>21.60000038147</ele>
        <time>2023-08-09T10:09:19.000Z</time>
      </trkpt>
      <trkpt lat="50.2026" lon="1.75654">
        <ele>22</ele>
        <time>2023-08-09T10:09:26.000Z</time>
      </trkpt>
      <trkpt lat="50.20216" lon="1.75602">
        <ele>21.60000038147</ele>
        <time>2023-08-09T10:09:36.000Z</time>
      </trkpt>
      <trkpt lat="50.20211" lon="1.75596">
        <ele>21.39999961853</ele>
        <time>2023-08-09T10:09:37.000Z</time>
      </trkpt>
      <trkpt lat="50.20182" lon="1.75562">
        <ele>21</ele>
        <time>2023-08-09T10:09:43.000Z</time>
      </trkpt>
      <trkpt lat="50.20158" lon="1.75532">
        <ele>20.39999961853</ele>
        <time>2023-08-09T10:09:48.000Z</time>
      </trkpt>
      <trkpt lat="50.20138" lon="1.75506">
        <ele>20</ele>
        <time>2023-08-09T10:09:52.000Z</time>
      </trkpt>
      <trkpt lat="50.20122" lon="1.75483">
        <ele>19.200000762939</ele>
        <time>2023-08-09T10:09:55.000Z</time>
      </trkpt>
      <trkpt lat="50.20117" lon="1.75475">
        <ele>18.60000038147</ele>
        <time>2023-08-09T10:09:56.000Z</time>
      </trkpt>
      <trkpt lat="50.20097" lon="1.75438">
        <ele>17.60000038147</ele>
        <time>2023-08-09T10:10:00.000Z</time>
      </trkpt>
      <trkpt lat="50.20091" lon="1.75429">
        <ele>17.60000038147</ele>
        <time>2023-08-09T10:10:01.000Z</time>
      </trkpt>
      <trkpt lat="50.2008" lon="1.75409">
        <ele>16.60000038147</ele>
        <time>2023-08-09T10:10:03.000Z</time>
      </trkpt>
      <trkpt lat="50.20059" lon="1.75367">
        <ele>15.39999961853</ele>
        <time>2023-08-09T10:10:07.000Z</time>
      </trkpt>
      <trkpt lat="50.20049" lon="1.75345">
        <ele>14.39999961853</ele>
        <time>2023-08-09T10:10:09.000Z</time>
      </trkpt>
      <trkpt lat="50.20044" lon="1.75335">
        <ele>14</ele>
        <time>2023-08-09T10:10:10.000Z</time>
      </trkpt>
      <trkpt lat="50.20029" lon="1.75302">
        <ele>13</ele>
        <time>2023-08-09T10:10:13.000Z</time>
      </trkpt>
      <trkpt lat="50.20014" lon="1.75269">
        <ele>11.800000190735</ele>
        <time>2023-08-09T10:10:16.000Z</time>
      </trkpt>
      <trkpt lat="50.20005" lon="1.75249">
        <ele>10.800000190735</ele>
        <time>2023-08-09T10:10:18.000Z</time>
      </trkpt>
      <trkpt lat="50.20001" lon="1.75238">
        <ele>10.39999961853</ele>
        <time>2023-08-09T10:10:19.000Z</time>
      </trkpt>
      <trkpt lat="50.19984" lon="1.75197">
        <ele>9.1999998092651</ele>
        <time>2023-08-09T10:10:23.000Z</time>
      </trkpt>
      <trkpt lat="50.19963" lon="1.75142">
        <ele>8</ele>
        <time>2023-08-09T10:10:28.000Z</time>
      </trkpt>
      <trkpt lat="50.19952" lon="1.75108">
        <ele>7.4000000953674</ele>
        <time>2023-08-09T10:10:31.000Z</time>
      </trkpt>
      <trkpt lat="50.1994" lon="1.75073">
        <ele>7</ele>
        <time>2023-08-09T10:10:34.000Z</time>
      </trkpt>
      <trkpt lat="50.19925" lon="1.75025">
        <ele>6</ele>
        <time>2023-08-09T10:10:38.000Z</time>
      </trkpt>
      <trkpt lat="50.19913" lon="1.7499">
        <ele>5.4000000953674</ele>
        <time>2023-08-09T10:10:41.000Z</time>
      </trkpt>
      <trkpt lat="50.19906" lon="1.74968">
        <ele>4.8000001907349</ele>
        <time>2023-08-09T10:10:43.000Z</time>
      </trkpt>
      <trkpt lat="50.19889" lon="1.7492">
        <ele>3.5999999046326</ele>
        <time>2023-08-09T10:10:47.000Z</time>
      </trkpt>
      <trkpt lat="50.19878" lon="1.74889">
        <ele>2.7999999523163</ele>
        <time>2023-08-09T10:10:50.000Z</time>
      </trkpt>
      <trkpt lat="50.1987" lon="1.74867">
        <ele>2.5999999046326</ele>
        <time>2023-08-09T10:10:52.000Z</time>
      </trkpt>
      <trkpt lat="50.19852" lon="1.74826">
        <ele>2</ele>
        <time>2023-08-09T10:10:56.000Z</time>
      </trkpt>
      <trkpt lat="50.19837" lon="1.74799">
        <ele>1.3999999761581</ele>
        <time>2023-08-09T10:10:59.000Z</time>
      </trkpt>
      <trkpt lat="50.19817" lon="1.74765">
        <ele>0.80000001192093</ele>
        <time>2023-08-09T10:11:03.000Z</time>
      </trkpt>
      <trkpt lat="50.19798" lon="1.74736">
        <ele>0.40000000596046</ele>
        <time>2023-08-09T10:11:07.000Z</time>
      </trkpt>
      <trkpt lat="50.19794" lon="1.74729">
        <ele>0.40000000596046</ele>
        <time>2023-08-09T10:11:08.000Z</time>
      </trkpt>
      <trkpt lat="50.19763" lon="1.74682">
        <ele>0.60000002384186</ele>
        <time>2023-08-09T10:11:15.000Z</time>
      </trkpt>
      <trkpt lat="50.19741" lon="1.74645">
        <ele>0.80000001192093</ele>
        <time>2023-08-09T10:11:21.000Z</time>
      </trkpt>
      <trkpt lat="50.19727" lon="1.74623">
        <ele>1.3999999761581</ele>
        <time>2023-08-09T10:11:25.000Z</time>
      </trkpt>
      <trkpt lat="50.1972" lon="1.74611">
        <ele>2</ele>
        <time>2023-08-09T10:11:27.000Z</time>
      </trkpt>
      <trkpt lat="50.19706" lon="1.74586">
        <ele>2.5999999046326</ele>
        <time>2023-08-09T10:11:31.000Z</time>
      </trkpt>
      <trkpt lat="50.19692" lon="1.74555">
        <ele>2.7999999523163</ele>
        <time>2023-08-09T10:11:36.000Z</time>
      </trkpt>
      <trkpt lat="50.19675" lon="1.74514">
        <ele>3</ele>
        <time>2023-08-09T10:11:43.000Z</time>
      </trkpt>
      <trkpt lat="50.19671" lon="1.74502">
        <ele>3.4000000953674</ele>
        <time>2023-08-09T10:11:45.000Z</time>
      </trkpt>
      <trkpt lat="50.19667" lon="1.7449">
        <ele>3.5999999046326</ele>
        <time>2023-08-09T10:11:47.000Z</time>
      </trkpt>
      <trkpt lat="50.19661" lon="1.74472">
        <ele>4.1999998092651</ele>
        <time>2023-08-09T10:11:50.000Z</time>
      </trkpt>
      <trkpt lat="50.19659" lon="1.74466">
        <ele>4.5999999046326</ele>
        <time>2023-08-09T10:11:51.000Z</time>
      </trkpt>
      <trkpt lat="50.19649" lon="1.74433">
        <ele>5.8000001907349</ele>
        <time>2023-08-09T10:11:57.000Z</time>
      </trkpt>
      <trkpt lat="50.19642" lon="1.74409">
        <ele>6.4000000953674</ele>
        <time>2023-08-09T10:12:01.000Z</time>
      </trkpt>
      <trkpt lat="50.19635" lon="1.74385">
        <ele>6.8000001907349</ele>
        <time>2023-08-09T10:12:05.000Z</time>
      </trkpt>
      <trkpt lat="50.19626" lon="1.74343">
        <ele>7.4000000953674</ele>
        <time>2023-08-09T10:12:12.000Z</time>
      </trkpt>
      <trkpt lat="50.19616" lon="1.74295">
        <ele>7.8000001907349</ele>
        <time>2023-08-09T10:12:19.000Z</time>
      </trkpt>
      <trkpt lat="50.19604" lon="1.74224">
        <ele>8.3999996185303</ele>
        <time>2023-08-09T10:12:29.000Z</time>
      </trkpt>
      <trkpt lat="50.19599" lon="1.74161">
        <ele>8.8000001907349</ele>
        <time>2023-08-09T10:12:37.000Z</time>
      </trkpt>
      <trkpt lat="50.19596" lon="1.74087">
        <ele>8.8000001907349</ele>
        <time>2023-08-09T10:12:46.000Z</time>
      </trkpt>
      <trkpt lat="50.19597" lon="1.74009">
        <ele>8.3999996185303</ele>
        <time>2023-08-09T10:12:55.000Z</time>
      </trkpt>
      <trkpt lat="50.19597" lon="1.73973">
        <ele>7.8000001907349</ele>
        <time>2023-08-09T10:12:59.000Z</time>
      </trkpt>
      <trkpt lat="50.19598" lon="1.73946">
        <ele>7.4000000953674</ele>
        <time>2023-08-09T10:13:02.000Z</time>
      </trkpt>
      <trkpt lat="50.19599" lon="1.73897">
        <ele>7.4000000953674</ele>
        <time>2023-08-09T10:13:08.000Z</time>
      </trkpt>
      <trkpt lat="50.19599" lon="1.73889">
        <ele>7.1999998092651</ele>
        <time>2023-08-09T10:13:09.000Z</time>
      </trkpt>
      <trkpt lat="50.19599" lon="1.73823">
        <ele>6.8000001907349</ele>
        <time>2023-08-09T10:13:17.000Z</time>
      </trkpt>
      <trkpt lat="50.19599" lon="1.73763">
        <ele>6.8000001907349</ele>
        <time>2023-08-09T10:13:24.000Z</time>
      </trkpt>
      <trkpt lat="50.19593" lon="1.73685">
        <ele>7</ele>
        <time>2023-08-09T10:13:33.000Z</time>
      </trkpt>
      <trkpt lat="50.19587" lon="1.73619">
        <ele>6.8000001907349</ele>
        <time>2023-08-09T10:13:41.000Z</time>
      </trkpt>
      <trkpt lat="50.19577" lon="1.73547">
        <ele>7.4000000953674</ele>
        <time>2023-08-09T10:13:50.000Z</time>
      </trkpt>
      <trkpt lat="50.19573" lon="1.73523">
        <ele>7.5999999046326</ele>
        <time>2023-08-09T10:13:53.000Z</time>
      </trkpt>
      <trkpt lat="50.19568" lon="1.735">
        <ele>8</ele>
        <time>2023-08-09T10:13:56.000Z</time>
      </trkpt>
      <trkpt lat="50.19553" lon="1.73433">
        <ele>9</ele>
        <time>2023-08-09T10:14:04.000Z</time>
      </trkpt>
      <trkpt lat="50.19548" lon="1.73409">
        <ele>8.6000003814697</ele>
        <time>2023-08-09T10:14:07.000Z</time>
      </trkpt>
      <trkpt lat="50.19532" lon="1.73343">
        <ele>9</ele>
        <time>2023-08-09T10:14:15.000Z</time>
      </trkpt>
      <trkpt lat="50.19514" lon="1.73267">
        <ele>9.3999996185303</ele>
        <time>2023-08-09T10:14:24.000Z</time>
      </trkpt>
      <trkpt lat="50.19496" lon="1.73195">
        <ele>9.6000003814697</ele>
        <time>2023-08-09T10:14:33.000Z</time>
      </trkpt>
      <trkpt lat="50.19481" lon="1.7313">
        <ele>9.6000003814697</ele>
        <time>2023-08-09T10:14:41.000Z</time>
      </trkpt>
      <trkpt lat="50.19467" lon="1.73074">
        <ele>10</ele>
        <time>2023-08-09T10:14:48.000Z</time>
      </trkpt>
      <trkpt lat="50.1946" lon="1.73051">
        <ele>10.199999809265</ele>
        <time>2023-08-09T10:14:51.000Z</time>
      </trkpt>
      <trkpt lat="50.19446" lon="1.73009">
        <ele>10.60000038147</ele>
        <time>2023-08-09T10:14:57.000Z</time>
      </trkpt>
      <trkpt lat="50.19444" lon="1.73">
        <ele>10.800000190735</ele>
        <time>2023-08-09T10:14:58.000Z</time>
      </trkpt>
      <trkpt lat="50.19422" lon="1.72938">
        <ele>11.199999809265</ele>
        <time>2023-08-09T10:15:07.000Z</time>
      </trkpt>
      <trkpt lat="50.19399" lon="1.72874">
        <ele>11</ele>
        <time>2023-08-09T10:15:16.000Z</time>
      </trkpt>
      <trkpt lat="50.19373" lon="1.72803">
        <ele>11.39999961853</ele>
        <time>2023-08-09T10:15:26.000Z</time>
      </trkpt>
      <trkpt lat="50.19356" lon="1.72752">
        <ele>11.60000038147</ele>
        <time>2023-08-09T10:15:33.000Z</time>
      </trkpt>
      <trkpt lat="50.19336" lon="1.72695">
        <ele>12</ele>
        <time>2023-08-09T10:15:41.000Z</time>
      </trkpt>
      <trkpt lat="50.19315" lon="1.72636">
        <ele>11.60000038147</ele>
        <time>2023-08-09T10:15:49.000Z</time>
      </trkpt>
      <trkpt lat="50.19298" lon="1.72574">
        <ele>10.60000038147</ele>
        <time>2023-08-09T10:15:56.000Z</time>
      </trkpt>
      <trkpt lat="50.19289" lon="1.72507">
        <ele>10</ele>
        <time>2023-08-09T10:16:03.000Z</time>
      </trkpt>
      <trkpt lat="50.19287" lon="1.72498">
        <ele>10</ele>
        <time>2023-08-09T10:16:04.000Z</time>
      </trkpt>
      <trkpt lat="50.19278" lon="1.72429">
        <ele>9.6000003814697</ele>
        <time>2023-08-09T10:16:11.000Z</time>
      </trkpt>
      <trkpt lat="50.19269" lon="1.7239">
        <ele>9</ele>
        <time>2023-08-09T10:16:15.000Z</time>
      </trkpt>
      <trkpt lat="50.19258" lon="1.72343">
        <ele>8</ele>
        <time>2023-08-09T10:16:20.000Z</time>
      </trkpt>
      <trkpt lat="50.19255" lon="1.72334">
        <ele>7.8000001907349</ele>
        <time>2023-08-09T10:16:21.000Z</time>
      </trkpt>
      <trkpt lat="50.19243" lon="1.72283">
        <ele>6.8000001907349</ele>
        <time>2023-08-09T10:16:26.000Z</time>
      </trkpt>
      <trkpt lat="50.19235" lon="1.72252">
        <ele>6.4000000953674</ele>
        <time>2023-08-09T10:16:29.000Z</time>
      </trkpt>
      <trkpt lat="50.19224" lon="1.72209">
        <ele>5.5999999046326</ele>
        <time>2023-08-09T10:16:33.000Z</time>
      </trkpt>
      <trkpt lat="50.19212" lon="1.72159">
        <ele>4.8000001907349</ele>
        <time>2023-08-09T10:16:38.000Z</time>
      </trkpt>
      <trkpt lat="50.19207" lon="1.72139">
        <ele>4.4000000953674</ele>
        <time>2023-08-09T10:16:40.000Z</time>
      </trkpt>
      <trkpt lat="50.19194" lon="1.7209">
        <ele>3.4000000953674</ele>
        <time>2023-08-09T10:16:45.000Z</time>
      </trkpt>
      <trkpt lat="50.19188" lon="1.72061">
        <ele>3.2000000476837</ele>
        <time>2023-08-09T10:16:48.000Z</time>
      </trkpt>
      <trkpt lat="50.19175" lon="1.72012">
        <ele>2.4000000953674</ele>
        <time>2023-08-09T10:16:53.000Z</time>
      </trkpt>
      <trkpt lat="50.19159" lon="1.71944">
        <ele>1.3999999761581</ele>
        <time>2023-08-09T10:17:00.000Z</time>
      </trkpt>
      <trkpt lat="50.19153" lon="1.71925">
        <ele>1</ele>
        <time>2023-08-09T10:17:02.000Z</time>
      </trkpt>
      <trkpt lat="50.19143" lon="1.71901">
        <ele>0.80000001192093</ele>
        <time>2023-08-09T10:17:05.000Z</time>
      </trkpt>
      <trkpt lat="50.19138" lon="1.71892">
        <ele>0.40000000596046</ele>
        <time>2023-08-09T10:17:06.000Z</time>
      </trkpt>
      <trkpt lat="50.19128" lon="1.71876">
        <ele>10</ele>
        <time>2023-08-09T10:17:08.000Z</time>
      </trkpt>
      <trkpt lat="50.19113" lon="1.71853">
        <ele>-0.60000002384186</ele>
        <time>2023-08-09T10:17:11.000Z</time>
      </trkpt>
      <trkpt lat="50.19093" lon="1.71821">
        <ele>-1</ele>
        <time>2023-08-09T10:17:15.000Z</time>
      </trkpt>
      <trkpt lat="50.19071" lon="1.7179">
        <ele>-2.2000000476837</ele>
        <time>2023-08-09T10:17:19.000Z</time>
      </trkpt>
      <trkpt lat="50.19048" lon="1.7176">
        <ele>-3.2000000476837</ele>
        <time>2023-08-09T10:17:23.000Z</time>
      </trkpt>
      <trkpt lat="50.19029" lon="1.71739">
        <ele>-3.7999999523163</ele>
        <time>2023-08-09T10:17:26.000Z</time>
      </trkpt>
      <trkpt lat="50.19017" lon="1.71725">
        <ele>-4.4000000953674</ele>
        <time>2023-08-09T10:17:28.000Z</time>
      </trkpt>
      <trkpt lat="50.18995" lon="1.71697">
        <ele>-5.1999998092651</ele>
        <time>2023-08-09T10:17:32.000Z</time>
      </trkpt>
      <trkpt lat="50.18979" lon="1.71675">
        <ele>-5.5999999046326</ele>
        <time>2023-08-09T10:17:35.000Z</time>
      </trkpt>
      <trkpt lat="50.18966" lon="1.71652">
        <ele>-5.5999999046326</ele>
        <time>2023-08-09T10:17:38.000Z</time>
      </trkpt>
      <trkpt lat="50.18936" lon="1.716">
        <ele>-5.8000001907349</ele>
        <time>2023-08-09T10:17:45.000Z</time>
      </trkpt>
      <trkpt lat="50.18917" lon="1.71562">
        <ele>-5.8000001907349</ele>
        <time>2023-08-09T10:17:50.000Z</time>
      </trkpt>
      <trkpt lat="50.1891" lon="1.71544">
        <ele>-5.8000001907349</ele>
        <time>2023-08-09T10:17:52.000Z</time>
      </trkpt>
      <trkpt lat="50.18897" lon="1.7149">
        <ele>-6.1999998092651</ele>
        <time>2023-08-09T10:17:58.000Z</time>
      </trkpt>
      <trkpt lat="50.18883" lon="1.71411">
        <ele>-6.1999998092651</ele>
        <time>2023-08-09T10:18:07.000Z</time>
      </trkpt>
      <trkpt lat="50.18866" lon="1.71347">
        <ele>-6</ele>
        <time>2023-08-09T10:18:15.000Z</time>
      </trkpt>
      <trkpt lat="50.18841" lon="1.71301">
        <ele>-6</ele>
        <time>2023-08-09T10:18:22.000Z</time>
      </trkpt>
      <trkpt lat="50.18797" lon="1.71244">
        <ele>-6</ele>
        <time>2023-08-09T10:18:32.000Z</time>
      </trkpt>
      <trkpt lat="50.18792" lon="1.71239">
        <ele>-6</ele>
        <time>2023-08-09T10:18:33.000Z</time>
      </trkpt>
      <trkpt lat="50.18754" lon="1.71201">
        <ele>-6.1999998092651</ele>
        <time>2023-08-09T10:18:41.000Z</time>
      </trkpt>
      <trkpt lat="50.18745" lon="1.71192">
        <ele>-6</ele>
        <time>2023-08-09T10:18:43.000Z</time>
      </trkpt>
      <trkpt lat="50.18705" lon="1.7115">
        <ele>-6</ele>
        <time>2023-08-09T10:18:51.000Z</time>
      </trkpt>
      <trkpt lat="50.18694" lon="1.71142">
        <ele>-6</ele>
        <time>2023-08-09T10:18:53.000Z</time>
      </trkpt>
      <trkpt lat="50.18654" lon="1.71112">
        <ele>-6.1999998092651</ele>
        <time>2023-08-09T10:19:01.000Z</time>
      </trkpt>
      <trkpt lat="50.1861" lon="1.71081">
        <ele>-6</ele>
        <time>2023-08-09T10:19:10.000Z</time>
      </trkpt>
      <trkpt lat="50.18574" lon="1.71056">
        <ele>-5.8000001907349</ele>
        <time>2023-08-09T10:19:18.000Z</time>
      </trkpt>
      <trkpt lat="50.18561" lon="1.71046">
        <ele>-5.8000001907349</ele>
        <time>2023-08-09T10:19:21.000Z</time>
      </trkpt>
      <trkpt lat="50.18547" lon="1.71036">
        <ele>-5.8000001907349</ele>
        <time>2023-08-09T10:19:24.000Z</time>
      </trkpt>
      <trkpt lat="50.18515" lon="1.71013">
        <ele>-5.8000001907349</ele>
        <time>2023-08-09T10:19:31.000Z</time>
      </trkpt>
      <trkpt lat="50.1851" lon="1.71009">
        <ele>-5.8000001907349</ele>
        <time>2023-08-09T10:19:32.000Z</time>
      </trkpt>
      <trkpt lat="50.18471" lon="1.70984">
        <ele>-4.8000001907349</ele>
        <time>2023-08-09T10:19:41.000Z</time>
      </trkpt>
      <trkpt lat="50.18463" lon="1.70978">
        <ele>-4.4000000953674</ele>
        <time>2023-08-09T10:19:43.000Z</time>
      </trkpt>
      <trkpt lat="50.18448" lon="1.70968">
        <ele>-4</ele>
        <time>2023-08-09T10:19:47.000Z</time>
      </trkpt>
      <trkpt lat="50.18439" lon="1.70952">
        <ele>-3.5999999046326</ele>
        <time>2023-08-09T10:19:51.000Z</time>
      </trkpt>
      <trkpt lat="50.18442" lon="1.70929">
        <ele>-3.4000000953674</ele>
        <time>2023-08-09T10:19:55.000Z</time>
      </trkpt>
      <trkpt lat="50.18444" lon="1.70923">
        <ele>-3.4000000953674</ele>
        <time>2023-08-09T10:19:56.000Z</time>
      </trkpt>
      <trkpt lat="50.18455" lon="1.70897">
        <ele>-3.4000000953674</ele>
        <time>2023-08-09T10:20:00.000Z</time>
      </trkpt>
      <trkpt lat="50.18461" lon="1.70886">
        <ele>-3.2000000476837</ele>
        <time>2023-08-09T10:20:02.000Z</time>
      </trkpt>
      <trkpt lat="50.18469" lon="1.70865">
        <ele>-3.2000000476837</ele>
        <time>2023-08-09T10:20:05.000Z</time>
      </trkpt>
      <trkpt lat="50.18475" lon="1.70853">
        <ele>-3.2000000476837</ele>
        <time>2023-08-09T10:20:07.000Z</time>
      </trkpt>
      <trkpt lat="50.18489" lon="1.70824">
        <ele>-3.2000000476837</ele>
        <time>2023-08-09T10:20:12.000Z</time>
      </trkpt>
      <trkpt lat="50.18517" lon="1.70772">
        <ele>-3.5999999046326</ele>
        <time>2023-08-09T10:20:21.000Z</time>
      </trkpt>
      <trkpt lat="50.1854" lon="1.70729">
        <ele>-3.7999999523163</ele>
        <time>2023-08-09T10:20:28.000Z</time>
      </trkpt>
      <trkpt lat="50.18561" lon="1.70697">
        <ele>-4</ele>
        <time>2023-08-09T10:20:34.000Z</time>
      </trkpt>
      <trkpt lat="50.18568" lon="1.70688">
        <ele>-4</ele>
        <time>2023-08-09T10:20:36.000Z</time>
      </trkpt>
      <trkpt lat="50.18594" lon="1.70655">
        <ele>-4</ele>
        <time>2023-08-09T10:20:43.000Z</time>
      </trkpt>
      <trkpt lat="50.18601" lon="1.70646">
        <ele>-3.7999999523163</ele>
        <time>2023-08-09T10:20:45.000Z</time>
      </trkpt>
      <trkpt lat="50.18616" lon="1.70627">
        <ele>-3.7999999523163</ele>
        <time>2023-08-09T10:20:49.000Z</time>
      </trkpt>
      <trkpt lat="50.18632" lon="1.70601">
        <ele>-3.7999999523163</ele>
        <time>2023-08-09T10:20:55.000Z</time>
      </trkpt>
      <trkpt lat="50.18638" lon="1.70589">
        <ele>-3.7999999523163</ele>
        <time>2023-08-09T10:21:00.000Z</time>
      </trkpt>
      <trkpt lat="50.18634" lon="1.70585">
        <ele>-3.7999999523163</ele>
        <time>2023-08-09T10:21:04.000Z</time>
      </trkpt>
      <trkpt lat="50.18634" lon="1.70584">
        <ele>-4</ele>
        <time>2023-08-09T10:21:07.000Z</time>
      </trkpt>
      <trkpt lat="50.18649" lon="1.70573">
        <ele>-5.1999998092651</ele>
        <time>2023-08-09T11:13:42.000Z</time>
      </trkpt>
      <trkpt lat="50.18651" lon="1.70568">
        <ele>-5</ele>
        <time>2023-08-09T11:13:44.000Z</time>
      </trkpt>
      <trkpt lat="50.18658" lon="1.7055">
        <ele>-4.1999998092651</ele>
        <time>2023-08-09T11:13:50.000Z</time>
      </trkpt>
      <trkpt lat="50.18661" lon="1.70542">
        <ele>-3.7999999523163</ele>
        <time>2023-08-09T11:13:52.000Z</time>
      </trkpt>
      <trkpt lat="50.1867" lon="1.70519">
        <ele>-3</ele>
        <time>2023-08-09T11:13:58.000Z</time>
      </trkpt>
      <trkpt lat="50.18673" lon="1.70511">
        <ele>-2.7999999523163</ele>
        <time>2023-08-09T11:14:00.000Z</time>
      </trkpt>
      <trkpt lat="50.1868" lon="1.70488">
        <ele>-2</ele>
        <time>2023-08-09T11:14:05.000Z</time>
      </trkpt>
      <trkpt lat="50.1868" lon="1.70482">
        <ele>-1.6000000238419</ele>
        <time>2023-08-09T11:14:06.000Z</time>
      </trkpt>
      <trkpt lat="50.18682" lon="1.70456">
        <ele>-1.2000000476837</ele>
        <time>2023-08-09T11:14:11.000Z</time>
      </trkpt>
      <trkpt lat="50.1868" lon="1.70424">
        <ele>-1.3999999761581</ele>
        <time>2023-08-09T11:14:17.000Z</time>
      </trkpt>
      <trkpt lat="50.18676" lon="1.70396">
        <ele>-1.2000000476837</ele>
        <time>2023-08-09T11:14:23.000Z</time>
      </trkpt>
      <trkpt lat="50.18677" lon="1.70376">
        <ele>-1.2000000476837</ele>
        <time>2023-08-09T11:14:27.000Z</time>
      </trkpt>
      <trkpt lat="50.18684" lon="1.70326">
        <ele>-1.6000000238419</ele>
        <time>2023-08-09T11:14:35.000Z</time>
      </trkpt>
      <trkpt lat="50.18684" lon="1.70312">
        <ele>-1.6000000238419</ele>
        <time>2023-08-09T11:14:37.000Z</time>
      </trkpt>
      <trkpt lat="50.18682" lon="1.70284">
        <ele>-1.6000000238419</ele>
        <time>2023-08-09T11:14:41.000Z</time>
      </trkpt>
      <trkpt lat="50.18681" lon="1.70277">
        <ele>-1.7999999523163</ele>
        <time>2023-08-09T11:14:42.000Z</time>
      </trkpt>
      <trkpt lat="50.18674" lon="1.70247">
        <ele>-1.7999999523163</ele>
        <time>2023-08-09T11:14:46.000Z</time>
      </trkpt>
      <trkpt lat="50.18673" lon="1.7024">
        <ele>-2</ele>
        <time>2023-08-09T11:14:47.000Z</time>
      </trkpt>
      <trkpt lat="50.18671" lon="1.70231">
        <ele>-2</ele>
        <time>2023-08-09T11:14:48.000Z</time>
      </trkpt>
      <trkpt lat="50.18665" lon="1.70208">
        <ele>-2.2000000476837</ele>
        <time>2023-08-09T11:14:51.000Z</time>
      </trkpt>
      <trkpt lat="50.18653" lon="1.70162">
        <ele>-2.7999999523163</ele>
        <time>2023-08-09T11:14:57.000Z</time>
      </trkpt>
      <trkpt lat="50.18652" lon="1.70156">
        <ele>-3</ele>
        <time>2023-08-09T11:14:58.000Z</time>
      </trkpt>
      <trkpt lat="50.18647" lon="1.7014">
        <ele>-3.2000000476837</ele>
        <time>2023-08-09T11:15:00.000Z</time>
      </trkpt>
      <trkpt lat="50.18635" lon="1.70095">
        <ele>-3.7999999523163</ele>
        <time>2023-08-09T11:15:06.000Z</time>
      </trkpt>
      <trkpt lat="50.18632" lon="1.7008">
        <ele>-4</ele>
        <time>2023-08-09T11:15:08.000Z</time>
      </trkpt>
      <trkpt lat="50.18622" lon="1.7004">
        <ele>-4</ele>
        <time>2023-08-09T11:15:14.000Z</time>
      </trkpt>
      <trkpt lat="50.18618" lon="1.70025">
        <ele>-3.7999999523163</ele>
        <time>2023-08-09T11:15:16.000Z</time>
      </trkpt>
      <trkpt lat="50.18602" lon="1.69961">
        <ele>-3.2000000476837</ele>
        <time>2023-08-09T11:15:26.000Z</time>
      </trkpt>
      <trkpt lat="50.18601" lon="1.69954">
        <ele>-3.2000000476837</ele>
        <time>2023-08-09T11:15:27.000Z</time>
      </trkpt>
      <trkpt lat="50.18601" lon="1.69948">
        <ele>-3.2000000476837</ele>
        <time>2023-08-09T11:15:28.000Z</time>
      </trkpt>
      <trkpt lat="50.18601" lon="1.69943">
        <ele>-3.2000000476837</ele>
        <time>2023-08-09T11:15:29.000Z</time>
      </trkpt>
      <trkpt lat="50.18602" lon="1.69927">
        <ele>-3.4000000953674</ele>
        <time>2023-08-09T11:15:32.000Z</time>
      </trkpt>
      <trkpt lat="50.18604" lon="1.69903">
        <ele>-3.4000000953674</ele>
        <time>2023-08-09T11:15:37.000Z</time>
      </trkpt>
      <trkpt lat="50.18602" lon="1.69898">
        <ele>-3.4000000953674</ele>
        <time>2023-08-09T11:15:39.000Z</time>
      </trkpt>
      <trkpt lat="50.18601" lon="1.69898">
        <ele>-3.5999999046326</ele>
        <time>2023-08-09T11:15:40.000Z</time>
      </trkpt>
      <trkpt lat="50.18601" lon="1.69902">
        <ele>-3.5999999046326</ele>
        <time>2023-08-09T11:15:42.000Z</time>
      </trkpt>
      <trkpt lat="50.18601" lon="1.69907">
        <ele>-4</ele>
        <time>2023-08-09T11:15:44.000Z</time>
      </trkpt>
      <trkpt lat="50.18601" lon="1.69919">
        <ele>-4.8000001907349</ele>
        <time>2023-08-09T11:15:49.000Z</time>
      </trkpt>
      <trkpt lat="50.186" lon="1.69927">
        <ele>-5</ele>
        <time>2023-08-09T11:15:52.000Z</time>
      </trkpt>
      <trkpt lat="50.18588" lon="1.69938">
        <ele>-5.4000000953674</ele>
        <time>2023-08-09T11:15:59.000Z</time>
      </trkpt>
      <trkpt lat="50.18585" lon="1.6994">
        <ele>-5.4000000953674</ele>
        <time>2023-08-09T11:16:00.000Z</time>
      </trkpt>
      <trkpt lat="50.18583" lon="1.69941">
        <ele>-5.5999999046326</ele>
        <time>2023-08-09T11:16:01.000Z</time>
      </trkpt>
      <trkpt lat="50.18577" lon="1.69939">
        <ele>-5.8000001907349</ele>
        <time>2023-08-09T11:16:03.000Z</time>
      </trkpt>
      <trkpt lat="50.18575" lon="1.69937">
        <ele>-6</ele>
        <time>2023-08-09T11:16:04.000Z</time>
      </trkpt>
      <trkpt lat="50.18558" lon="1.69914">
        <ele>-6.1999998092651</ele>
        <time>2023-08-09T11:16:10.000Z</time>
      </trkpt>
      <trkpt lat="50.18548" lon="1.69902">
        <ele>-6</ele>
        <time>2023-08-09T11:16:13.000Z</time>
      </trkpt>
      <trkpt lat="50.18537" lon="1.69888">
        <ele>-6</ele>
        <time>2023-08-09T11:16:16.000Z</time>
      </trkpt>
      <trkpt lat="50.1853" lon="1.69879">
        <ele>-5.8000001907349</ele>
        <time>2023-08-09T11:16:18.000Z</time>
      </trkpt>
      <trkpt lat="50.18515" lon="1.6986">
        <ele>-5.8000001907349</ele>
        <time>2023-08-09T11:16:22.000Z</time>
      </trkpt>
      <trkpt lat="50.185" lon="1.69841">
        <ele>-5.8000001907349</ele>
        <time>2023-08-09T11:16:26.000Z</time>
      </trkpt>
      <trkpt lat="50.18481" lon="1.6982">
        <ele>-5.5999999046326</ele>
        <time>2023-08-09T11:16:31.000Z</time>
      </trkpt>
      <trkpt lat="50.18471" lon="1.69808">
        <ele>-5.1999998092651</ele>
        <time>2023-08-09T11:16:34.000Z</time>
      </trkpt>
      <trkpt lat="50.18459" lon="1.69796">
        <ele>-4.8000001907349</ele>
        <time>2023-08-09T11:16:37.000Z</time>
      </trkpt>
      <trkpt lat="50.18455" lon="1.69792">
        <ele>-4.8000001907349</ele>
        <time>2023-08-09T11:16:38.000Z</time>
      </trkpt>
      <trkpt lat="50.18411" lon="1.69741">
        <ele>-4.4000000953674</ele>
        <time>2023-08-09T11:16:49.000Z</time>
      </trkpt>
      <trkpt lat="50.18387" lon="1.69713">
        <ele>-4.4000000953674</ele>
        <time>2023-08-09T11:16:55.000Z</time>
      </trkpt>
      <trkpt lat="50.18379" lon="1.69704">
        <ele>-4.4000000953674</ele>
        <time>2023-08-09T11:16:57.000Z</time>
      </trkpt>
      <trkpt lat="50.18344" lon="1.6967">
        <ele>-4.1999998092651</ele>
        <time>2023-08-09T11:17:05.000Z</time>
      </trkpt>
      <trkpt lat="50.18318" lon="1.69648">
        <ele>-4.5999999046326</ele>
        <time>2023-08-09T11:17:11.000Z</time>
      </trkpt>
      <trkpt lat="50.18305" lon="1.69638">
        <ele>-4.8000001907349</ele>
        <time>2023-08-09T11:17:14.000Z</time>
      </trkpt>
      <trkpt lat="50.18271" lon="1.6961">
        <ele>-4.5999999046326</ele>
        <time>2023-08-09T11:17:22.000Z</time>
      </trkpt>
      <trkpt lat="50.18229" lon="1.6958">
        <ele>-4.4000000953674</ele>
        <time>2023-08-09T11:17:32.000Z</time>
      </trkpt>
      <trkpt lat="50.18221" lon="1.69577">
        <ele>-4.4000000953674</ele>
        <time>2023-08-09T11:17:34.000Z</time>
      </trkpt>
      <trkpt lat="50.18217" lon="1.69575">
        <ele>-4.5999999046326</ele>
        <time>2023-08-09T11:17:37.000Z</time>
      </trkpt>
      <trkpt lat="50.18217" lon="1.69575">
        <ele>-4.5999999046326</ele>
        <time>2023-08-09T11:17:38.000Z</time>
      </trkpt>
      <trkpt lat="50.18216" lon="1.69567">
        <ele>-5.1999998092651</ele>
        <time>2023-08-09T11:17:45.000Z</time>
      </trkpt>
      <trkpt lat="50.18218" lon="1.69558">
        <ele>-5.4000000953674</ele>
        <time>2023-08-09T11:17:47.000Z</time>
      </trkpt>
      <trkpt lat="50.18223" lon="1.69541">
        <ele>-5.5999999046326</ele>
        <time>2023-08-09T11:17:50.000Z</time>
      </trkpt>
      <trkpt lat="50.18224" lon="1.69536">
        <ele>-5.5999999046326</ele>
        <time>2023-08-09T11:17:51.000Z</time>
      </trkpt>
      <trkpt lat="50.18224" lon="1.69528">
        <ele>-5.5999999046326</ele>
        <time>2023-08-09T11:17:52.000Z</time>
      </trkpt>
      <trkpt lat="50.18221" lon="1.69508">
        <ele>-5.5999999046326</ele>
        <time>2023-08-09T11:17:55.000Z</time>
      </trkpt>
      <trkpt lat="50.18219" lon="1.695">
        <ele>-5.5999999046326</ele>
        <time>2023-08-09T11:17:56.000Z</time>
      </trkpt>
      <trkpt lat="50.18213" lon="1.69486">
        <ele>-5.5999999046326</ele>
        <time>2023-08-09T11:17:58.000Z</time>
      </trkpt>
      <trkpt lat="50.1821" lon="1.69481">
        <ele>-5.5999999046326</ele>
        <time>2023-08-09T11:17:59.000Z</time>
      </trkpt>
      <trkpt lat="50.18202" lon="1.69469">
        <ele>-5.8000001907349</ele>
        <time>2023-08-09T11:18:01.000Z</time>
      </trkpt>
      <trkpt lat="50.18182" lon="1.69444">
        <ele>-5.8000001907349</ele>
        <time>2023-08-09T11:18:06.000Z</time>
      </trkpt>
      <trkpt lat="50.18178" lon="1.6944">
        <ele>-5.8000001907349</ele>
        <time>2023-08-09T11:18:07.000Z</time>
      </trkpt>
      <trkpt lat="50.18153" lon="1.69407">
        <ele>-5.5999999046326</ele>
        <time>2023-08-09T11:18:14.000Z</time>
      </trkpt>
      <trkpt lat="50.18121" lon="1.69366">
        <ele>-5.4000000953674</ele>
        <time>2023-08-09T11:18:22.000Z</time>
      </trkpt>
      <trkpt lat="50.18092" lon="1.69331">
        <ele>-5.1999998092651</ele>
        <time>2023-08-09T11:18:29.000Z</time>
      </trkpt>
      <trkpt lat="50.18087" lon="1.69324">
        <ele>-5.1999998092651</ele>
        <time>2023-08-09T11:18:30.000Z</time>
      </trkpt>
      <trkpt lat="50.18046" lon="1.69271">
        <ele>-5.4000000953674</ele>
        <time>2023-08-09T11:18:40.000Z</time>
      </trkpt>
      <trkpt lat="50.18002" lon="1.69214">
        <ele>-5.5999999046326</ele>
        <time>2023-08-09T11:18:50.000Z</time>
      </trkpt>
      <trkpt lat="50.17994" lon="1.69204">
        <ele>-5.8000001907349</ele>
        <time>2023-08-09T11:18:52.000Z</time>
      </trkpt>
      <trkpt lat="50.17968" lon="1.69171">
        <ele>-5.8000001907349</ele>
        <time>2023-08-09T11:18:58.000Z</time>
      </trkpt>
      <trkpt lat="50.17951" lon="1.6915">
        <ele>-5.8000001907349</ele>
        <time>2023-08-09T11:19:02.000Z</time>
      </trkpt>
      <trkpt lat="50.17909" lon="1.69097">
        <ele>-5.4000000953674</ele>
        <time>2023-08-09T11:19:12.000Z</time>
      </trkpt>
      <trkpt lat="50.17871" lon="1.69051">
        <ele>-5.4000000953674</ele>
        <time>2023-08-09T11:19:21.000Z</time>
      </trkpt>
      <trkpt lat="50.1784" lon="1.69013">
        <ele>-5.8000001907349</ele>
        <time>2023-08-09T11:19:28.000Z</time>
      </trkpt>
      <trkpt lat="50.17814" lon="1.68981">
        <ele>-6</ele>
        <time>2023-08-09T11:19:34.000Z</time>
      </trkpt>
      <trkpt lat="50.1778" lon="1.68938">
        <ele>-6</ele>
        <time>2023-08-09T11:19:42.000Z</time>
      </trkpt>
      <trkpt lat="50.17736" lon="1.68883">
        <ele>-5.8000001907349</ele>
        <time>2023-08-09T11:19:53.000Z</time>
      </trkpt>
      <trkpt lat="50.17703" lon="1.68843">
        <ele>-5.8000001907349</ele>
        <time>2023-08-09T11:20:01.000Z</time>
      </trkpt>
      <trkpt lat="50.17696" lon="1.68833">
        <ele>-5.8000001907349</ele>
        <time>2023-08-09T11:20:03.000Z</time>
      </trkpt>
      <trkpt lat="50.17651" lon="1.68777">
        <ele>-5.4000000953674</ele>
        <time>2023-08-09T11:20:14.000Z</time>
      </trkpt>
      <trkpt lat="50.17643" lon="1.68767">
        <ele>-5.4000000953674</ele>
        <time>2023-08-09T11:20:16.000Z</time>
      </trkpt>
      <trkpt lat="50.17599" lon="1.68711">
        <ele>-5.1999998092651</ele>
        <time>2023-08-09T11:20:27.000Z</time>
      </trkpt>
      <trkpt lat="50.17569" lon="1.68669">
        <ele>-5.4000000953674</ele>
        <time>2023-08-09T11:20:35.000Z</time>
      </trkpt>
      <trkpt lat="50.17562" lon="1.68657">
        <ele>-5.4000000953674</ele>
        <time>2023-08-09T11:20:37.000Z</time>
      </trkpt>
      <trkpt lat="50.17536" lon="1.686">
        <ele>-5.8000001907349</ele>
        <time>2023-08-09T11:20:46.000Z</time>
      </trkpt>
      <trkpt lat="50.17519" lon="1.68544">
        <ele>-5.8000001907349</ele>
        <time>2023-08-09T11:20:54.000Z</time>
      </trkpt>
      <trkpt lat="50.17506" lon="1.68478">
        <ele>-5.5999999046326</ele>
        <time>2023-08-09T11:21:02.000Z</time>
      </trkpt>
      <trkpt lat="50.17501" lon="1.68431">
        <ele>-6</ele>
        <time>2023-08-09T11:21:08.000Z</time>
      </trkpt>
      <trkpt lat="50.17499" lon="1.68407">
        <ele>-6.1999998092651</ele>
        <time>2023-08-09T11:21:11.000Z</time>
      </trkpt>
      <trkpt lat="50.17494" lon="1.68343">
        <ele>-6.4000000953674</ele>
        <time>2023-08-09T11:21:19.000Z</time>
      </trkpt>
      <trkpt lat="50.17487" lon="1.68283">
        <ele>-6.4000000953674</ele>
        <time>2023-08-09T11:21:26.000Z</time>
      </trkpt>
      <trkpt lat="50.17483" lon="1.6825">
        <ele>-6.5999999046326</ele>
        <time>2023-08-09T11:21:30.000Z</time>
      </trkpt>
      <trkpt lat="50.1748" lon="1.68226">
        <ele>-6.8000001907349</ele>
        <time>2023-08-09T11:21:33.000Z</time>
      </trkpt>
      <trkpt lat="50.1747" lon="1.68144">
        <ele>-7.1999998092651</ele>
        <time>2023-08-09T11:21:43.000Z</time>
      </trkpt>
      <trkpt lat="50.17463" lon="1.68076">
        <ele>-7.4000000953674</ele>
        <time>2023-08-09T11:21:51.000Z</time>
      </trkpt>
      <trkpt lat="50.17462" lon="1.68067">
        <ele>-7.4000000953674</ele>
        <time>2023-08-09T11:21:52.000Z</time>
      </trkpt>
      <trkpt lat="50.17456" lon="1.68001">
        <ele>-7.5999999046326</ele>
        <time>2023-08-09T11:22:00.000Z</time>
      </trkpt>
      <trkpt lat="50.17452" lon="1.67968">
        <ele>-7.5999999046326</ele>
        <time>2023-08-09T11:22:04.000Z</time>
      </trkpt>
      <trkpt lat="50.17447" lon="1.67925">
        <ele>-7.8000001907349</ele>
        <time>2023-08-09T11:22:09.000Z</time>
      </trkpt>
      <trkpt lat="50.17439" lon="1.67844">
        <ele>-7.5999999046326</ele>
        <time>2023-08-09T11:22:19.000Z</time>
      </trkpt>
      <trkpt lat="50.1743" lon="1.67756">
        <ele>-7.5999999046326</ele>
        <time>2023-08-09T11:22:30.000Z</time>
      </trkpt>
      <trkpt lat="50.17422" lon="1.67674">
        <ele>-7.1999998092651</ele>
        <time>2023-08-09T11:22:40.000Z</time>
      </trkpt>
      <trkpt lat="50.17415" lon="1.67601">
        <ele>-7.1999998092651</ele>
        <time>2023-08-09T11:22:49.000Z</time>
      </trkpt>
      <trkpt lat="50.17405" lon="1.6751">
        <ele>-7.1999998092651</ele>
        <time>2023-08-09T11:23:00.000Z</time>
      </trkpt>
      <trkpt lat="50.17396" lon="1.67427">
        <ele>-7.4000000953674</ele>
        <time>2023-08-09T11:23:10.000Z</time>
      </trkpt>
      <trkpt lat="50.17388" lon="1.67361">
        <ele>-7</ele>
        <time>2023-08-09T11:23:18.000Z</time>
      </trkpt>
      <trkpt lat="50.17383" lon="1.67313">
        <ele>-7</ele>
        <time>2023-08-09T11:23:24.000Z</time>
      </trkpt>
      <trkpt lat="50.17382" lon="1.6729">
        <ele>-7.1999998092651</ele>
        <time>2023-08-09T11:23:27.000Z</time>
      </trkpt>
      <trkpt lat="50.17376" lon="1.67233">
        <ele>-7</ele>
        <time>2023-08-09T11:23:34.000Z</time>
      </trkpt>
      <trkpt lat="50.17372" lon="1.6721">
        <ele>-7</ele>
        <time>2023-08-09T11:23:37.000Z</time>
      </trkpt>
      <trkpt lat="50.17371" lon="1.67194">
        <ele>-7</ele>
        <time>2023-08-09T11:23:39.000Z</time>
      </trkpt>
      <trkpt lat="50.17363" lon="1.6712">
        <ele>-6.8000001907349</ele>
        <time>2023-08-09T11:23:48.000Z</time>
      </trkpt>
      <trkpt lat="50.17357" lon="1.67036">
        <ele>-7.1999998092651</ele>
        <time>2023-08-09T11:23:58.000Z</time>
      </trkpt>
      <trkpt lat="50.17356" lon="1.67002">
        <ele>-7</ele>
        <time>2023-08-09T11:24:02.000Z</time>
      </trkpt>
      <trkpt lat="50.17355" lon="1.6696">
        <ele>-7</ele>
        <time>2023-08-09T11:24:07.000Z</time>
      </trkpt>
      <trkpt lat="50.17359" lon="1.66876">
        <ele>-6.8000001907349</ele>
        <time>2023-08-09T11:24:17.000Z</time>
      </trkpt>
      <trkpt lat="50.17359" lon="1.66867">
        <ele>-6.8000001907349</ele>
        <time>2023-08-09T11:24:18.000Z</time>
      </trkpt>
      <trkpt lat="50.17363" lon="1.66782">
        <ele>-7</ele>
        <time>2023-08-09T11:24:28.000Z</time>
      </trkpt>
      <trkpt lat="50.17366" lon="1.66694">
        <ele>-7.1999998092651</ele>
        <time>2023-08-09T11:24:38.000Z</time>
      </trkpt>
      <trkpt lat="50.1737" lon="1.66628">
        <ele>-7</ele>
        <time>2023-08-09T11:24:46.000Z</time>
      </trkpt>
      <trkpt lat="50.17371" lon="1.66566">
        <ele>-6.8000001907349</ele>
        <time>2023-08-09T11:24:53.000Z</time>
      </trkpt>
      <trkpt lat="50.1737" lon="1.6655">
        <ele>-7</ele>
        <time>2023-08-09T11:24:55.000Z</time>
      </trkpt>
      <trkpt lat="50.1737" lon="1.66523">
        <ele>-6.8000001907349</ele>
        <time>2023-08-09T11:24:58.000Z</time>
      </trkpt>
      <trkpt lat="50.17372" lon="1.66498">
        <ele>-6.8000001907349</ele>
        <time>2023-08-09T11:25:01.000Z</time>
      </trkpt>
      <trkpt lat="50.17377" lon="1.66431">
        <ele>-7</ele>
        <time>2023-08-09T11:25:09.000Z</time>
      </trkpt>
      <trkpt lat="50.17378" lon="1.66421">
        <ele>-7</ele>
        <time>2023-08-09T11:25:10.000Z</time>
      </trkpt>
      <trkpt lat="50.17381" lon="1.6636">
        <ele>-6.8000001907349</ele>
        <time>2023-08-09T11:25:17.000Z</time>
      </trkpt>
      <trkpt lat="50.17383" lon="1.66333">
        <ele>-6.5999999046326</ele>
        <time>2023-08-09T11:25:20.000Z</time>
      </trkpt>
      <trkpt lat="50.17386" lon="1.66269">
        <ele>-6.5999999046326</ele>
        <time>2023-08-09T11:25:27.000Z</time>
      </trkpt>
      <trkpt lat="50.17389" lon="1.66182">
        <ele>-7</ele>
        <time>2023-08-09T11:25:37.000Z</time>
      </trkpt>
      <trkpt lat="50.1739" lon="1.66172">
        <ele>-7.1999998092651</ele>
        <time>2023-08-09T11:25:38.000Z</time>
      </trkpt>
      <trkpt lat="50.17398" lon="1.66093">
        <ele>-7.1999998092651</ele>
        <time>2023-08-09T11:25:47.000Z</time>
      </trkpt>
      <trkpt lat="50.17398" lon="1.66033">
        <ele>-7.1999998092651</ele>
        <time>2023-08-09T11:25:54.000Z</time>
      </trkpt>
      <trkpt lat="50.17398" lon="1.66017">
        <ele>-7.1999998092651</ele>
        <time>2023-08-09T11:25:56.000Z</time>
      </trkpt>
      <trkpt lat="50.17396" lon="1.6597">
        <ele>-6.8000001907349</ele>
        <time>2023-08-09T11:26:02.000Z</time>
      </trkpt>
      <trkpt lat="50.17398" lon="1.65935">
        <ele>-6.5999999046326</ele>
        <time>2023-08-09T11:26:08.000Z</time>
      </trkpt>
      <trkpt lat="50.17399" lon="1.65926">
        <ele>-6.5999999046326</ele>
        <time>2023-08-09T11:26:12.000Z</time>
      </trkpt>
      <trkpt lat="50.17399" lon="1.65921">
        <ele>-6.5999999046326</ele>
        <time>2023-08-09T11:26:14.000Z</time>
      </trkpt>
      <trkpt lat="50.174" lon="1.65911">
        <ele>-6.8000001907349</ele>
        <time>2023-08-09T11:26:17.000Z</time>
      </trkpt>
      <trkpt lat="50.17402" lon="1.65897">
        <ele>-7.5999999046326</ele>
        <time>2023-08-09T11:26:24.000Z</time>
      </trkpt>
      <trkpt lat="50.174" lon="1.65896">
        <ele>-8.8000001907349</ele>
        <time>2023-08-09T11:27:15.000Z</time>
      </trkpt>
      <trkpt lat="50.17396" lon="1.65899">
        <ele>-8.6000003814697</ele>
        <time>2023-08-09T11:27:18.000Z</time>
      </trkpt>
      <trkpt lat="50.17392" lon="1.65903">
        <ele>-8.6000003814697</ele>
        <time>2023-08-09T11:27:20.000Z</time>
      </trkpt>
      <trkpt lat="50.17386" lon="1.65905">
        <ele>-8.3999996185303</ele>
        <time>2023-08-09T11:27:22.000Z</time>
      </trkpt>
      <trkpt lat="50.17375" lon="1.65904">
        <ele>-8.1999998092651</ele>
        <time>2023-08-09T11:27:26.000Z</time>
      </trkpt>
      <trkpt lat="50.17373" lon="1.65901">
        <ele>-8.1999998092651</ele>
        <time>2023-08-09T11:27:27.000Z</time>
      </trkpt>
      <trkpt lat="50.17368" lon="1.65884">
        <ele>-7.5999999046326</ele>
        <time>2023-08-09T11:27:30.000Z</time>
      </trkpt>
      <trkpt lat="50.17352" lon="1.65843">
        <ele>-6.4000000953674</ele>
        <time>2023-08-09T11:27:37.000Z</time>
      </trkpt>
      <trkpt lat="50.17346" lon="1.65831">
        <ele>-6</ele>
        <time>2023-08-09T11:27:39.000Z</time>
      </trkpt>
      <trkpt lat="50.17324" lon="1.65786">
        <ele>-5.4000000953674</ele>
        <time>2023-08-09T11:27:47.000Z</time>
      </trkpt>
      <trkpt lat="50.17295" lon="1.6573">
        <ele>-4.4000000953674</ele>
        <time>2023-08-09T11:27:56.000Z</time>
      </trkpt>
      <trkpt lat="50.17292" lon="1.65724">
        <ele>-4.1999998092651</ele>
        <time>2023-08-09T11:27:57.000Z</time>
      </trkpt>
      <trkpt lat="50.17259" lon="1.6566">
        <ele>-4.4000000953674</ele>
        <time>2023-08-09T11:28:06.000Z</time>
      </trkpt>
      <trkpt lat="50.17234" lon="1.65597">
        <ele>-5.4000000953674</ele>
        <time>2023-08-09T11:28:14.000Z</time>
      </trkpt>
      <trkpt lat="50.17215" lon="1.65524">
        <ele>-6.4000000953674</ele>
        <time>2023-08-09T11:28:23.000Z</time>
      </trkpt>
      <trkpt lat="50.17213" lon="1.65516">
        <ele>-6.4000000953674</ele>
        <time>2023-08-09T11:28:24.000Z</time>
      </trkpt>
      <trkpt lat="50.17203" lon="1.65447">
        <ele>-7</ele>
        <time>2023-08-09T11:28:32.000Z</time>
      </trkpt>
      <trkpt lat="50.172" lon="1.65378">
        <ele>-7.4000000953674</ele>
        <time>2023-08-09T11:28:40.000Z</time>
      </trkpt>
      <trkpt lat="50.172" lon="1.65363">
        <ele>-7.5999999046326</ele>
        <time>2023-08-09T11:28:42.000Z</time>
      </trkpt>
      <trkpt lat="50.17205" lon="1.65286">
        <ele>-8.1999998092651</ele>
        <time>2023-08-09T11:28:51.000Z</time>
      </trkpt>
      <trkpt lat="50.17216" lon="1.65211">
        <ele>-8.3999996185303</ele>
        <time>2023-08-09T11:29:00.000Z</time>
      </trkpt>
      <trkpt lat="50.17228" lon="1.65118">
        <ele>-8</ele>
        <time>2023-08-09T11:29:11.000Z</time>
      </trkpt>
      <trkpt lat="50.17247" lon="1.65058">
        <ele>-7.8000001907349</ele>
        <time>2023-08-09T11:29:19.000Z</time>
      </trkpt>
      <trkpt lat="50.17263" lon="1.65017">
        <ele>-7.8000001907349</ele>
        <time>2023-08-09T11:29:25.000Z</time>
      </trkpt>
      <trkpt lat="50.17267" lon="1.65012">
        <ele>-7.8000001907349</ele>
        <time>2023-08-09T11:29:26.000Z</time>
      </trkpt>
      <trkpt lat="50.17271" lon="1.65009">
        <ele>-7.8000001907349</ele>
        <time>2023-08-09T11:29:27.000Z</time>
      </trkpt>
      <trkpt lat="50.17283" lon="1.65002">
        <ele>-7.5999999046326</ele>
        <time>2023-08-09T11:29:30.000Z</time>
      </trkpt>
      <trkpt lat="50.17292" lon="1.65">
        <ele>-7.4000000953674</ele>
        <time>2023-08-09T11:29:33.000Z</time>
      </trkpt>
      <trkpt lat="50.17293" lon="1.64998">
        <ele>-7.4000000953674</ele>
        <time>2023-08-09T11:29:34.000Z</time>
      </trkpt>
      <trkpt lat="50.17298" lon="1.64978">
        <ele>-7.1999998092651</ele>
        <time>2023-08-09T11:29:38.000Z</time>
      </trkpt>
      <trkpt lat="50.17299" lon="1.64971">
        <ele>-7.1999998092651</ele>
        <time>2023-08-09T11:29:39.000Z</time>
      </trkpt>
      <trkpt lat="50.17299" lon="1.64949">
        <ele>-7.1999998092651</ele>
        <time>2023-08-09T11:29:42.000Z</time>
      </trkpt>
      <trkpt lat="50.17298" lon="1.64942">
        <ele>-7.1999998092651</ele>
        <time>2023-08-09T11:29:43.000Z</time>
      </trkpt>
      <trkpt lat="50.17296" lon="1.6493">
        <ele>-7.4000000953674</ele>
        <time>2023-08-09T11:29:45.000Z</time>
      </trkpt>
      <trkpt lat="50.17291" lon="1.64921">
        <ele>-7.4000000953674</ele>
        <time>2023-08-09T11:29:47.000Z</time>
      </trkpt>
      <trkpt lat="50.17277" lon="1.64906">
        <ele>-8</ele>
        <time>2023-08-09T11:29:52.000Z</time>
      </trkpt>
      <trkpt lat="50.17261" lon="1.64902">
        <ele>-8.1999998092651</ele>
        <time>2023-08-09T11:29:57.000Z</time>
      </trkpt>
      <trkpt lat="50.17231" lon="1.64884">
        <ele>-8.1999998092651</ele>
        <time>2023-08-09T11:30:05.000Z</time>
      </trkpt>
      <trkpt lat="50.17218" lon="1.64882">
        <ele>-8.3999996185303</ele>
        <time>2023-08-09T11:30:08.000Z</time>
      </trkpt>
      <trkpt lat="50.17215" lon="1.64885">
        <ele>-8.6000003814697</ele>
        <time>2023-08-09T11:30:09.000Z</time>
      </trkpt>
      <trkpt lat="50.17208" lon="1.64894">
        <ele>-8.8000001907349</ele>
        <time>2023-08-09T11:30:11.000Z</time>
      </trkpt>
      <trkpt lat="50.17197" lon="1.64915">
        <ele>-9.1999998092651</ele>
        <time>2023-08-09T11:30:15.000Z</time>
      </trkpt>
      <trkpt lat="50.17194" lon="1.64919">
        <ele>-9.1999998092651</ele>
        <time>2023-08-09T11:30:16.000Z</time>
      </trkpt>
      <trkpt lat="50.17186" lon="1.64926">
        <ele>-9.3999996185303</ele>
        <time>2023-08-09T11:30:18.000Z</time>
      </trkpt>
      <trkpt lat="50.17181" lon="1.64928">
        <ele>-9.3999996185303</ele>
        <time>2023-08-09T11:30:19.000Z</time>
      </trkpt>
      <trkpt lat="50.17176" lon="1.64929">
        <ele>-9.3999996185303</ele>
        <time>2023-08-09T11:30:20.000Z</time>
      </trkpt>
      <trkpt lat="50.17166" lon="1.64926">
        <ele>-9.1999998092651</ele>
        <time>2023-08-09T11:30:23.000Z</time>
      </trkpt>
      <trkpt lat="50.1715" lon="1.64918">
        <ele>-9.1999998092651</ele>
        <time>2023-08-09T11:30:28.000Z</time>
      </trkpt>
      <trkpt lat="50.17137" lon="1.64922">
        <ele>-9.1999998092651</ele>
        <time>2023-08-09T11:30:32.000Z</time>
      </trkpt>
      <trkpt lat="50.17132" lon="1.6494">
        <ele>-9.1999998092651</ele>
        <time>2023-08-09T11:30:36.000Z</time>
      </trkpt>
      <trkpt lat="50.17136" lon="1.64957">
        <ele>-9.1999998092651</ele>
        <time>2023-08-09T11:30:40.000Z</time>
      </trkpt>
      <trkpt lat="50.17138" lon="1.6496">
        <ele>-9</ele>
        <time>2023-08-09T11:30:44.000Z</time>
      </trkpt>
      <trkpt lat="50.17139" lon="1.6496">
        <ele>-8.8000001907349</ele>
        <time>2023-08-09T11:31:08.000Z</time>
      </trkpt>
      <trkpt lat="50.17145" lon="1.64961">
        <ele>-8.8000001907349</ele>
        <time>2023-08-09T11:31:10.000Z</time>
      </trkpt>
      <trkpt lat="50.17155" lon="1.64954">
        <ele>-8.8000001907349</ele>
        <time>2023-08-09T11:31:13.000Z</time>
      </trkpt>
      <trkpt lat="50.17159" lon="1.6495">
        <ele>-8.8000001907349</ele>
        <time>2023-08-09T11:31:14.000Z</time>
      </trkpt>
      <trkpt lat="50.17163" lon="1.64945">
        <ele>-8.8000001907349</ele>
        <time>2023-08-09T11:31:15.000Z</time>
      </trkpt>
      <trkpt lat="50.1718" lon="1.64935">
        <ele>-8.6000003814697</ele>
        <time>2023-08-09T11:31:19.000Z</time>
      </trkpt>
      <trkpt lat="50.1719" lon="1.64929">
        <ele>-8.6000003814697</ele>
        <time>2023-08-09T11:31:21.000Z</time>
      </trkpt>
      <trkpt lat="50.17196" lon="1.64921">
        <ele>-8.3999996185303</ele>
        <time>2023-08-09T11:31:23.000Z</time>
      </trkpt>
      <trkpt lat="50.17202" lon="1.64908">
        <ele>-8.3999996185303</ele>
        <time>2023-08-09T11:31:25.000Z</time>
      </trkpt>
      <trkpt lat="50.17211" lon="1.64891">
        <ele>-8.3999996185303</ele>
        <time>2023-08-09T11:31:28.000Z</time>
      </trkpt>
      <trkpt lat="50.17215" lon="1.64884">
        <ele>-8.3999996185303</ele>
        <time>2023-08-09T11:31:29.000Z</time>
      </trkpt>
      <trkpt lat="50.17223" lon="1.6488">
        <ele>-8.3999996185303</ele>
        <time>2023-08-09T11:31:31.000Z</time>
      </trkpt>
      <trkpt lat="50.17235" lon="1.64884">
        <ele>-8.3999996185303</ele>
        <time>2023-08-09T11:31:34.000Z</time>
      </trkpt>
      <trkpt lat="50.17238" lon="1.64884">
        <ele>-8.3999996185303</ele>
        <time>2023-08-09T11:31:35.000Z</time>
      </trkpt>
      <trkpt lat="50.17242" lon="1.64878">
        <ele>-8.3999996185303</ele>
        <time>2023-08-09T11:31:37.000Z</time>
      </trkpt>
      <trkpt lat="50.17241" lon="1.64858">
        <ele>-8</ele>
        <time>2023-08-09T11:31:41.000Z</time>
      </trkpt>
      <trkpt lat="50.17242" lon="1.64839">
        <ele>-7.5999999046326</ele>
        <time>2023-08-09T11:31:45.000Z</time>
      </trkpt>
      <trkpt lat="50.17243" lon="1.64824">
        <ele>-7.4000000953674</ele>
        <time>2023-08-09T11:31:48.000Z</time>
      </trkpt>
      <trkpt lat="50.17244" lon="1.64811">
        <ele>-7.1999998092651</ele>
        <time>2023-08-09T11:31:52.000Z</time>
      </trkpt>
      <trkpt lat="50.17242" lon="1.64812">
        <ele>-7.1999998092651</ele>
        <time>2023-08-09T11:31:55.000Z</time>
      </trkpt>
      <trkpt lat="50.17242" lon="1.64814">
        <ele>-7.1999998092651</ele>
        <time>2023-08-09T11:31:56.000Z</time>
      </trkpt>
      <trkpt lat="50.1724" lon="1.64831">
        <ele>-7</ele>
        <time>2023-08-09T11:32:01.000Z</time>
      </trkpt>
      <trkpt lat="50.17239" lon="1.64843">
        <ele>-7.1999998092651</ele>
        <time>2023-08-09T11:32:04.000Z</time>
      </trkpt>
      <trkpt lat="50.17238" lon="1.64845">
        <ele>-7.4000000953674</ele>
        <time>2023-08-09T11:32:05.000Z</time>
      </trkpt>
      <trkpt lat="50.17234" lon="1.64844">
        <ele>-7.5999999046326</ele>
        <time>2023-08-09T11:32:07.000Z</time>
      </trkpt>
      <trkpt lat="50.17233" lon="1.64841">
        <ele>-7.8000001907349</ele>
        <time>2023-08-09T11:32:08.000Z</time>
      </trkpt>
      <trkpt lat="50.17232" lon="1.64837">
        <ele>-7.8000001907349</ele>
        <time>2023-08-09T11:32:09.000Z</time>
      </trkpt>
      <trkpt lat="50.17231" lon="1.64818">
        <ele>-8.1999998092651</ele>
        <time>2023-08-09T11:32:13.000Z</time>
      </trkpt>
      <trkpt lat="50.17231" lon="1.64775">
        <ele>-8</ele>
        <time>2023-08-09T11:32:21.000Z</time>
      </trkpt>
      <trkpt lat="50.17226" lon="1.6474">
        <ele>-7.1999998092651</ele>
        <time>2023-08-09T11:32:28.000Z</time>
      </trkpt>
      <trkpt lat="50.1722" lon="1.64712">
        <ele>-7.1999998092651</ele>
        <time>2023-08-09T11:32:34.000Z</time>
      </trkpt>
      <trkpt lat="50.17211" lon="1.64688">
        <ele>-7.1999998092651</ele>
        <time>2023-08-09T11:32:39.000Z</time>
      </trkpt>
      <trkpt lat="50.17208" lon="1.6468">
        <ele>-7</ele>
        <time>2023-08-09T11:32:41.000Z</time>
      </trkpt>
      <trkpt lat="50.1719" lon="1.64664">
        <ele>-6.8000001907349</ele>
        <time>2023-08-09T11:32:46.000Z</time>
      </trkpt>
      <trkpt lat="50.17175" lon="1.64648">
        <ele>-6.5999999046326</ele>
        <time>2023-08-09T11:32:51.000Z</time>
      </trkpt>
      <trkpt lat="50.17172" lon="1.64646">
        <ele>-6.8000001907349</ele>
        <time>2023-08-09T11:32:52.000Z</time>
      </trkpt>
      <trkpt lat="50.17148" lon="1.64625">
        <ele>-6.8000001907349</ele>
        <time>2023-08-09T11:32:59.000Z</time>
      </trkpt>
      <trkpt lat="50.1713" lon="1.64606">
        <ele>-7.1999998092651</ele>
        <time>2023-08-09T11:33:05.000Z</time>
      </trkpt>
      <trkpt lat="50.17112" lon="1.64578">
        <ele>-7.8000001907349</ele>
        <time>2023-08-09T11:33:12.000Z</time>
      </trkpt>
      <trkpt lat="50.17106" lon="1.64565">
        <ele>-7.8000001907349</ele>
        <time>2023-08-09T11:33:15.000Z</time>
      </trkpt>
      <trkpt lat="50.17101" lon="1.64552">
        <ele>-8</ele>
        <time>2023-08-09T11:33:18.000Z</time>
      </trkpt>
      <trkpt lat="50.17078" lon="1.64495">
        <ele>-7.8000001907349</ele>
        <time>2023-08-09T11:33:28.000Z</time>
      </trkpt>
      <trkpt lat="50.17071" lon="1.64478">
        <ele>-8</ele>
        <time>2023-08-09T11:33:31.000Z</time>
      </trkpt>
      <trkpt lat="50.17065" lon="1.64463">
        <ele>-8</ele>
        <time>2023-08-09T11:33:34.000Z</time>
      </trkpt>
      <trkpt lat="50.17058" lon="1.64438">
        <ele>-8</ele>
        <time>2023-08-09T11:33:39.000Z</time>
      </trkpt>
      <trkpt lat="50.1705" lon="1.64399">
        <ele>-8</ele>
        <time>2023-08-09T11:33:45.000Z</time>
      </trkpt>
      <trkpt lat="50.17049" lon="1.64385">
        <ele>-8</ele>
        <time>2023-08-09T11:33:47.000Z</time>
      </trkpt>
      <trkpt lat="50.17044" lon="1.64341">
        <ele>-8.1999998092651</ele>
        <time>2023-08-09T11:33:54.000Z</time>
      </trkpt>
      <trkpt lat="50.17043" lon="1.64311">
        <ele>-8.1999998092651</ele>
        <time>2023-08-09T11:34:00.000Z</time>
      </trkpt>
      <trkpt lat="50.17044" lon="1.64297">
        <ele>-8.1999998092651</ele>
        <time>2023-08-09T11:34:05.000Z</time>
      </trkpt>
      <trkpt lat="50.17044" lon="1.64298">
        <ele>-8.3999996185303</ele>
        <time>2023-08-09T11:34:08.000Z</time>
      </trkpt>
      <trkpt lat="50.17045" lon="1.64291">
        <ele>-8.1999998092651</ele>
        <time>2023-08-09T11:40:40.000Z</time>
      </trkpt>
      <trkpt lat="50.17048" lon="1.64264">
        <ele>-8.3999996185303</ele>
        <time>2023-08-09T11:40:46.000Z</time>
      </trkpt>
      <trkpt lat="50.17054" lon="1.64236">
        <ele>-8.3999996185303</ele>
        <time>2023-08-09T11:40:51.000Z</time>
      </trkpt>
      <trkpt lat="50.17059" lon="1.642">
        <ele>-8.6000003814697</ele>
        <time>2023-08-09T11:40:57.000Z</time>
      </trkpt>
      <trkpt lat="50.17063" lon="1.64158">
        <ele>-9</ele>
        <time>2023-08-09T11:41:04.000Z</time>
      </trkpt>
      <trkpt lat="50.17064" lon="1.64106">
        <ele>-9.1999998092651</ele>
        <time>2023-08-09T11:41:12.000Z</time>
      </trkpt>
      <trkpt lat="50.17061" lon="1.64047">
        <ele>-8.6000003814697</ele>
        <time>2023-08-09T11:41:21.000Z</time>
      </trkpt>
      <trkpt lat="50.1706" lon="1.64033">
        <ele>-8.3999996185303</ele>
        <time>2023-08-09T11:41:23.000Z</time>
      </trkpt>
      <trkpt lat="50.17058" lon="1.64003">
        <ele>-8.1999998092651</ele>
        <time>2023-08-09T11:41:27.000Z</time>
      </trkpt>
      <trkpt lat="50.17051" lon="1.63927">
        <ele>-8.3999996185303</ele>
        <time>2023-08-09T11:41:37.000Z</time>
      </trkpt>
      <trkpt lat="50.17037" lon="1.6386">
        <ele>-8.8000001907349</ele>
        <time>2023-08-09T11:41:46.000Z</time>
      </trkpt>
      <trkpt lat="50.17014" lon="1.63808">
        <ele>-9</ele>
        <time>2023-08-09T11:41:54.000Z</time>
      </trkpt>
      <trkpt lat="50.16994" lon="1.63764">
        <ele>-9.1999998092651</ele>
        <time>2023-08-09T11:42:01.000Z</time>
      </trkpt>
      <trkpt lat="50.16962" lon="1.63691">
        <ele>-9.1999998092651</ele>
        <time>2023-08-09T11:42:12.000Z</time>
      </trkpt>
      <trkpt lat="50.16959" lon="1.63684">
        <ele>-9.3999996185303</ele>
        <time>2023-08-09T11:42:13.000Z</time>
      </trkpt>
      <trkpt lat="50.16936" lon="1.6365">
        <ele>-9.3999996185303</ele>
        <time>2023-08-09T11:42:19.000Z</time>
      </trkpt>
      <trkpt lat="50.16929" lon="1.63639">
        <ele>-9.1999998092651</ele>
        <time>2023-08-09T11:42:21.000Z</time>
      </trkpt>
      <trkpt lat="50.16911" lon="1.63607">
        <ele>-9</ele>
        <time>2023-08-09T11:42:27.000Z</time>
      </trkpt>
      <trkpt lat="50.16901" lon="1.63586">
        <ele>-8.8000001907349</ele>
        <time>2023-08-09T11:42:32.000Z</time>
      </trkpt>
      <trkpt lat="50.16899" lon="1.6358">
        <ele>-8.8000001907349</ele>
        <time>2023-08-09T11:42:33.000Z</time>
      </trkpt>
      <trkpt lat="50.16892" lon="1.63552">
        <ele>-8</ele>
        <time>2023-08-09T11:42:37.000Z</time>
      </trkpt>
      <trkpt lat="50.16878" lon="1.63508">
        <ele>-8</ele>
        <time>2023-08-09T11:42:43.000Z</time>
      </trkpt>
      <trkpt lat="50.16864" lon="1.63464">
        <ele>-7.8000001907349</ele>
        <time>2023-08-09T11:42:49.000Z</time>
      </trkpt>
      <trkpt lat="50.16838" lon="1.63405">
        <ele>-7.1999998092651</ele>
        <time>2023-08-09T11:42:58.000Z</time>
      </trkpt>
      <trkpt lat="50.16806" lon="1.63337">
        <ele>-7.5999999046326</ele>
        <time>2023-08-09T11:43:08.000Z</time>
      </trkpt>
      <trkpt lat="50.16788" lon="1.63278">
        <ele>-7.5999999046326</ele>
        <time>2023-08-09T11:43:16.000Z</time>
      </trkpt>
      <trkpt lat="50.16786" lon="1.6327">
        <ele>-7.4000000953674</ele>
        <time>2023-08-09T11:43:17.000Z</time>
      </trkpt>
      <trkpt lat="50.16778" lon="1.63216">
        <ele>-7.4000000953674</ele>
        <time>2023-08-09T11:43:24.000Z</time>
      </trkpt>
      <trkpt lat="50.16773" lon="1.63144">
        <ele>-7.4000000953674</ele>
        <time>2023-08-09T11:43:33.000Z</time>
      </trkpt>
      <trkpt lat="50.16769" lon="1.63059">
        <ele>-7.4000000953674</ele>
        <time>2023-08-09T11:43:43.000Z</time>
      </trkpt>
      <trkpt lat="50.16768" lon="1.63043">
        <ele>-7.5999999046326</ele>
        <time>2023-08-09T11:43:45.000Z</time>
      </trkpt>
      <trkpt lat="50.16766" lon="1.62988">
        <ele>-7.5999999046326</ele>
        <time>2023-08-09T11:43:53.000Z</time>
      </trkpt>
      <trkpt lat="50.16764" lon="1.62918">
        <ele>-7.4000000953674</ele>
        <time>2023-08-09T11:44:01.000Z</time>
      </trkpt>
      <trkpt lat="50.16761" lon="1.62854">
        <ele>-7.5999999046326</ele>
        <time>2023-08-09T11:44:09.000Z</time>
      </trkpt>
      <trkpt lat="50.1676" lon="1.62794">
        <ele>-7.5999999046326</ele>
        <time>2023-08-09T11:44:17.000Z</time>
      </trkpt>
      <trkpt lat="50.1676" lon="1.62772">
        <ele>-7.4000000953674</ele>
        <time>2023-08-09T11:44:20.000Z</time>
      </trkpt>
      <trkpt lat="50.16761" lon="1.62759">
        <ele>-7.4000000953674</ele>
        <time>2023-08-09T11:44:22.000Z</time>
      </trkpt>
      <trkpt lat="50.1676" lon="1.62753">
        <ele>-7.4000000953674</ele>
        <time>2023-08-09T11:44:23.000Z</time>
      </trkpt>
      <trkpt lat="50.16758" lon="1.62747">
        <ele>-7.1999998092651</ele>
        <time>2023-08-09T11:44:24.000Z</time>
      </trkpt>
      <trkpt lat="50.16751" lon="1.62736">
        <ele>-7.1999998092651</ele>
        <time>2023-08-09T11:44:26.000Z</time>
      </trkpt>
      <trkpt lat="50.16746" lon="1.62731">
        <ele>-7.1999998092651</ele>
        <time>2023-08-09T11:44:27.000Z</time>
      </trkpt>
      <trkpt lat="50.16714" lon="1.62707">
        <ele>-7</ele>
        <time>2023-08-09T11:44:33.000Z</time>
      </trkpt>
      <trkpt lat="50.16664" lon="1.6267">
        <ele>-7.4000000953674</ele>
        <time>2023-08-09T11:44:43.000Z</time>
      </trkpt>
      <trkpt lat="50.1666" lon="1.62666">
        <ele>-7.4000000953674</ele>
        <time>2023-08-09T11:44:44.000Z</time>
      </trkpt>
      <trkpt lat="50.16614" lon="1.62632">
        <ele>-6.8000001907349</ele>
        <time>2023-08-09T11:44:54.000Z</time>
      </trkpt>
      <trkpt lat="50.16582" lon="1.62607">
        <ele>-6.1999998092651</ele>
        <time>2023-08-09T11:45:01.000Z</time>
      </trkpt>
      <trkpt lat="50.16578" lon="1.62603">
        <ele>-6</ele>
        <time>2023-08-09T11:45:02.000Z</time>
      </trkpt>
      <trkpt lat="50.16564" lon="1.62591">
        <ele>-5.8000001907349</ele>
        <time>2023-08-09T11:45:05.000Z</time>
      </trkpt>
      <trkpt lat="50.1653" lon="1.62558">
        <ele>-5.8000001907349</ele>
        <time>2023-08-09T11:45:12.000Z</time>
      </trkpt>
      <trkpt lat="50.16494" lon="1.62519">
        <ele>-6.1999998092651</ele>
        <time>2023-08-09T11:45:19.000Z</time>
      </trkpt>
      <trkpt lat="50.16457" lon="1.62465">
        <ele>-6.5999999046326</ele>
        <time>2023-08-09T11:45:27.000Z</time>
      </trkpt>
      <trkpt lat="50.16429" lon="1.62417">
        <ele>-7.1999998092651</ele>
        <time>2023-08-09T11:45:34.000Z</time>
      </trkpt>
      <trkpt lat="50.16425" lon="1.6241">
        <ele>-7.1999998092651</ele>
        <time>2023-08-09T11:45:35.000Z</time>
      </trkpt>
      <trkpt lat="50.1639" lon="1.62347">
        <ele>-7.5999999046326</ele>
        <time>2023-08-09T11:45:44.000Z</time>
      </trkpt>
      <trkpt lat="50.16356" lon="1.62285">
        <ele>-7.5999999046326</ele>
        <time>2023-08-09T11:45:53.000Z</time>
      </trkpt>
      <trkpt lat="50.16333" lon="1.62233">
        <ele>-7.8000001907349</ele>
        <time>2023-08-09T11:46:00.000Z</time>
      </trkpt>
      <trkpt lat="50.16308" lon="1.62162">
        <ele>-8</ele>
        <time>2023-08-09T11:46:09.000Z</time>
      </trkpt>
      <trkpt lat="50.16284" lon="1.62085">
        <ele>-8</ele>
        <time>2023-08-09T11:46:19.000Z</time>
      </trkpt>
      <trkpt lat="50.16272" lon="1.62029">
        <ele>-8.1999998092651</ele>
        <time>2023-08-09T11:46:26.000Z</time>
      </trkpt>
      <trkpt lat="50.16256" lon="1.61959">
        <ele>-8</ele>
        <time>2023-08-09T11:46:35.000Z</time>
      </trkpt>
      <trkpt lat="50.16253" lon="1.61951">
        <ele>-8</ele>
        <time>2023-08-09T11:46:36.000Z</time>
      </trkpt>
      <trkpt lat="50.16243" lon="1.6193">
        <ele>-8.1999998092651</ele>
        <time>2023-08-09T11:46:39.000Z</time>
      </trkpt>
      <trkpt lat="50.16231" lon="1.61912">
        <ele>-8.1999998092651</ele>
        <time>2023-08-09T11:46:42.000Z</time>
      </trkpt>
      <trkpt lat="50.16203" lon="1.61889">
        <ele>-8.1999998092651</ele>
        <time>2023-08-09T11:46:48.000Z</time>
      </trkpt>
      <trkpt lat="50.16166" lon="1.61879">
        <ele>-8.3999996185303</ele>
        <time>2023-08-09T11:46:55.000Z</time>
      </trkpt>
      <trkpt lat="50.16134" lon="1.61868">
        <ele>-8.3999996185303</ele>
        <time>2023-08-09T11:47:01.000Z</time>
      </trkpt>
      <trkpt lat="50.16129" lon="1.61864">
        <ele>-8.3999996185303</ele>
        <time>2023-08-09T11:47:02.000Z</time>
      </trkpt>
      <trkpt lat="50.16119" lon="1.61855">
        <ele>-8.3999996185303</ele>
        <time>2023-08-09T11:47:04.000Z</time>
      </trkpt>
      <trkpt lat="50.16106" lon="1.61836">
        <ele>-8.3999996185303</ele>
        <time>2023-08-09T11:47:07.000Z</time>
      </trkpt>
      <trkpt lat="50.16088" lon="1.6179">
        <ele>-8.3999996185303</ele>
        <time>2023-08-09T11:47:13.000Z</time>
      </trkpt>
      <trkpt lat="50.16077" lon="1.61733">
        <ele>-8.6000003814697</ele>
        <time>2023-08-09T11:47:20.000Z</time>
      </trkpt>
      <trkpt lat="50.16069" lon="1.61678">
        <ele>-8.6000003814697</ele>
        <time>2023-08-09T11:47:27.000Z</time>
      </trkpt>
      <trkpt lat="50.16061" lon="1.61639">
        <ele>-8.3999996185303</ele>
        <time>2023-08-09T11:47:32.000Z</time>
      </trkpt>
      <trkpt lat="50.16054" lon="1.61617">
        <ele>-8.3999996185303</ele>
        <time>2023-08-09T11:47:35.000Z</time>
      </trkpt>
      <trkpt lat="50.16031" lon="1.61563">
        <ele>-8.3999996185303</ele>
        <time>2023-08-09T11:47:43.000Z</time>
      </trkpt>
      <trkpt lat="50.16004" lon="1.6151">
        <ele>-8.6000003814697</ele>
        <time>2023-08-09T11:47:51.000Z</time>
      </trkpt>
      <trkpt lat="50.15989" lon="1.61487">
        <ele>-8.6000003814697</ele>
        <time>2023-08-09T11:47:55.000Z</time>
      </trkpt>
      <trkpt lat="50.15979" lon="1.6148">
        <ele>-8.6000003814697</ele>
        <time>2023-08-09T11:47:57.000Z</time>
      </trkpt>
      <trkpt lat="50.15968" lon="1.61479">
        <ele>-8.6000003814697</ele>
        <time>2023-08-09T11:47:59.000Z</time>
      </trkpt>
      <trkpt lat="50.15957" lon="1.61484">
        <ele>-8.8000001907349</ele>
        <time>2023-08-09T11:48:01.000Z</time>
      </trkpt>
      <trkpt lat="50.15924" lon="1.61507">
        <ele>-9</ele>
        <time>2023-08-09T11:48:07.000Z</time>
      </trkpt>
      <trkpt lat="50.15891" lon="1.61531">
        <ele>-9.1999998092651</ele>
        <time>2023-08-09T11:48:13.000Z</time>
      </trkpt>
      <trkpt lat="50.15886" lon="1.61535">
        <ele>-9.1999998092651</ele>
        <time>2023-08-09T11:48:14.000Z</time>
      </trkpt>
      <trkpt lat="50.15843" lon="1.61567">
        <ele>-9.3999996185303</ele>
        <time>2023-08-09T11:48:22.000Z</time>
      </trkpt>
      <trkpt lat="50.15791" lon="1.61606">
        <ele>-9.1999998092651</ele>
        <time>2023-08-09T11:48:32.000Z</time>
      </trkpt>
      <trkpt lat="50.15781" lon="1.61613">
        <ele>-9</ele>
        <time>2023-08-09T11:48:34.000Z</time>
      </trkpt>
      <trkpt lat="50.15728" lon="1.61651">
        <ele>-9.1999998092651</ele>
        <time>2023-08-09T11:48:44.000Z</time>
      </trkpt>
      <trkpt lat="50.15718" lon="1.61659">
        <ele>-9.3999996185303</ele>
        <time>2023-08-09T11:48:46.000Z</time>
      </trkpt>
      <trkpt lat="50.15666" lon="1.61696">
        <ele>-9.3999996185303</ele>
        <time>2023-08-09T11:48:56.000Z</time>
      </trkpt>
      <trkpt lat="50.15662" lon="1.61699">
        <ele>-9.3999996185303</ele>
        <time>2023-08-09T11:48:57.000Z</time>
      </trkpt>
      <trkpt lat="50.15639" lon="1.61717">
        <ele>-9.1999998092651</ele>
        <time>2023-08-09T11:49:02.000Z</time>
      </trkpt>
      <trkpt lat="50.1563" lon="1.61719">
        <ele>-8.8000001907349</ele>
        <time>2023-08-09T11:49:04.000Z</time>
      </trkpt>
      <trkpt lat="50.15621" lon="1.61721">
        <ele>-8.8000001907349</ele>
        <time>2023-08-09T11:49:06.000Z</time>
      </trkpt>
      <trkpt lat="50.15609" lon="1.61726">
        <ele>-8.3999996185303</ele>
        <time>2023-08-09T11:49:09.000Z</time>
      </trkpt>
      <trkpt lat="50.15601" lon="1.61725">
        <ele>-8.3999996185303</ele>
        <time>2023-08-09T11:49:11.000Z</time>
      </trkpt>
      <trkpt lat="50.15598" lon="1.61722">
        <ele>-8.1999998092651</ele>
        <time>2023-08-09T11:49:12.000Z</time>
      </trkpt>
      <trkpt lat="50.1558" lon="1.61697">
        <ele>-7.5999999046326</ele>
        <time>2023-08-09T11:49:18.000Z</time>
      </trkpt>
      <trkpt lat="50.15575" lon="1.61685">
        <ele>-7.5999999046326</ele>
        <time>2023-08-09T11:49:20.000Z</time>
      </trkpt>
      <trkpt lat="50.15566" lon="1.61666">
        <ele>-7.4000000953674</ele>
        <time>2023-08-09T11:49:23.000Z</time>
      </trkpt>
      <trkpt lat="50.15563" lon="1.6166">
        <ele>-7.1999998092651</ele>
        <time>2023-08-09T11:49:24.000Z</time>
      </trkpt>
      <trkpt lat="50.15545" lon="1.61621">
        <ele>-7.1999998092651</ele>
        <time>2023-08-09T11:49:30.000Z</time>
      </trkpt>
      <trkpt lat="50.15524" lon="1.61574">
        <ele>-7.1999998092651</ele>
        <time>2023-08-09T11:49:37.000Z</time>
      </trkpt>
      <trkpt lat="50.15495" lon="1.61506">
        <ele>-6.8000001907349</ele>
        <time>2023-08-09T11:49:47.000Z</time>
      </trkpt>
      <trkpt lat="50.15477" lon="1.61467">
        <ele>-6.1999998092651</ele>
        <time>2023-08-09T11:49:53.000Z</time>
      </trkpt>
      <trkpt lat="50.15466" lon="1.61441">
        <ele>-6</ele>
        <time>2023-08-09T11:49:57.000Z</time>
      </trkpt>
      <trkpt lat="50.15455" lon="1.61405">
        <ele>-5.8000001907349</ele>
        <time>2023-08-09T11:50:02.000Z</time>
      </trkpt>
      <trkpt lat="50.15454" lon="1.61397">
        <ele>-5.8000001907349</ele>
        <time>2023-08-09T11:50:03.000Z</time>
      </trkpt>
      <trkpt lat="50.15448" lon="1.61325">
        <ele>-5.5999999046326</ele>
        <time>2023-08-09T11:50:12.000Z</time>
      </trkpt>
      <trkpt lat="50.15443" lon="1.61262">
        <ele>-5.8000001907349</ele>
        <time>2023-08-09T11:50:20.000Z</time>
      </trkpt>
      <trkpt lat="50.15442" lon="1.61254">
        <ele>-5.8000001907349</ele>
        <time>2023-08-09T11:50:21.000Z</time>
      </trkpt>
      <trkpt lat="50.15438" lon="1.61181">
        <ele>-6</ele>
        <time>2023-08-09T11:50:30.000Z</time>
      </trkpt>
      <trkpt lat="50.15436" lon="1.61124">
        <ele>-6</ele>
        <time>2023-08-09T11:50:37.000Z</time>
      </trkpt>
      <trkpt lat="50.15434" lon="1.61044">
        <ele>-6</ele>
        <time>2023-08-09T11:50:47.000Z</time>
      </trkpt>
      <trkpt lat="50.15432" lon="1.60993">
        <ele>-6.1999998092651</ele>
        <time>2023-08-09T11:50:54.000Z</time>
      </trkpt>
      <trkpt lat="50.15428" lon="1.6098">
        <ele>-6.1999998092651</ele>
        <time>2023-08-09T11:50:56.000Z</time>
      </trkpt>
      <trkpt lat="50.15424" lon="1.60976">
        <ele>-6.1999998092651</ele>
        <time>2023-08-09T11:50:57.000Z</time>
      </trkpt>
      <trkpt lat="50.1542" lon="1.60974">
        <ele>-6.1999998092651</ele>
        <time>2023-08-09T11:50:58.000Z</time>
      </trkpt>
      <trkpt lat="50.15405" lon="1.60972">
        <ele>-6.1999998092651</ele>
        <time>2023-08-09T11:51:01.000Z</time>
      </trkpt>
      <trkpt lat="50.15357" lon="1.60972">
        <ele>-5.8000001907349</ele>
        <time>2023-08-09T11:51:11.000Z</time>
      </trkpt>
      <trkpt lat="50.15353" lon="1.6097">
        <ele>-5.8000001907349</ele>
        <time>2023-08-09T11:51:12.000Z</time>
      </trkpt>
      <trkpt lat="50.15349" lon="1.60966">
        <ele>-5.5999999046326</ele>
        <time>2023-08-09T11:51:13.000Z</time>
      </trkpt>
      <trkpt lat="50.15336" lon="1.60953">
        <ele>-5</ele>
        <time>2023-08-09T11:51:16.000Z</time>
      </trkpt>
      <trkpt lat="50.15332" lon="1.60949">
        <ele>-4.8000001907349</ele>
        <time>2023-08-09T11:51:17.000Z</time>
      </trkpt>
      <trkpt lat="50.15329" lon="1.60944">
        <ele>-4.8000001907349</ele>
        <time>2023-08-09T11:51:18.000Z</time>
      </trkpt>
      <trkpt lat="50.15312" lon="1.60921">
        <ele>-4</ele>
        <time>2023-08-09T11:51:23.000Z</time>
      </trkpt>
      <trkpt lat="50.15299" lon="1.60904">
        <ele>-3.2000000476837</ele>
        <time>2023-08-09T11:51:27.000Z</time>
      </trkpt>
      <trkpt lat="50.15293" lon="1.60897">
        <ele>-3</ele>
        <time>2023-08-09T11:51:29.000Z</time>
      </trkpt>
      <trkpt lat="50.15274" lon="1.60874">
        <ele>-2.4000000953674</ele>
        <time>2023-08-09T11:51:35.000Z</time>
      </trkpt>
      <trkpt lat="50.15259" lon="1.60852">
        <ele>-2</ele>
        <time>2023-08-09T11:51:40.000Z</time>
      </trkpt>
      <trkpt lat="50.15256" lon="1.60848">
        <ele>-2</ele>
        <time>2023-08-09T11:51:41.000Z</time>
      </trkpt>
      <trkpt lat="50.15235" lon="1.6081">
        <ele>-1</ele>
        <time>2023-08-09T11:51:49.000Z</time>
      </trkpt>
      <trkpt lat="50.15233" lon="1.60806">
        <ele>-1</ele>
        <time>2023-08-09T11:51:50.000Z</time>
      </trkpt>
      <trkpt lat="50.15211" lon="1.60767">
        <ele>16.4</ele>
        <time>2023-08-09T11:51:59.000Z</time>
      </trkpt>
      <trkpt lat="50.15206" lon="1.60757">
        <ele>0.20000000298023</ele>
        <time>2023-08-09T11:52:01.000Z</time>
      </trkpt>
      <trkpt lat="50.1517" lon="1.60692">
        <ele>1</ele>
        <time>2023-08-09T11:52:15.000Z</time>
      </trkpt>
      <trkpt lat="50.15168" lon="1.60687">
        <ele>1</ele>
        <time>2023-08-09T11:52:16.000Z</time>
      </trkpt>
      <trkpt lat="50.15143" lon="1.60641">
        <ele>2.2000000476837</ele>
        <time>2023-08-09T11:52:26.000Z</time>
      </trkpt>
      <trkpt lat="50.15143" lon="1.60641">
        <ele>2.2000000476837</ele>
        <time>2023-08-09T11:52:27.000Z</time>
      </trkpt>
      <trkpt lat="50.15117" lon="1.60585">
        <ele>3.2000000476837</ele>
        <time>2023-08-09T11:52:37.000Z</time>
      </trkpt>
      <trkpt lat="50.15105" lon="1.60555">
        <ele>4.1999998092651</ele>
        <time>2023-08-09T11:52:43.000Z</time>
      </trkpt>
      <trkpt lat="50.15092" lon="1.60526">
        <ele>4.8000001907349</ele>
        <time>2023-08-09T11:52:49.000Z</time>
      </trkpt>
      <trkpt lat="50.15083" lon="1.60505">
        <ele>5.1999998092651</ele>
        <time>2023-08-09T11:52:53.000Z</time>
      </trkpt>
      <trkpt lat="50.15072" lon="1.6048">
        <ele>6</ele>
        <time>2023-08-09T11:52:58.000Z</time>
      </trkpt>
      <trkpt lat="50.1506" lon="1.60455">
        <ele>6.1999998092651</ele>
        <time>2023-08-09T11:53:03.000Z</time>
      </trkpt>
      <trkpt lat="50.15048" lon="1.6043">
        <ele>6.5999999046326</ele>
        <time>2023-08-09T11:53:08.000Z</time>
      </trkpt>
      <trkpt lat="50.15034" lon="1.60406">
        <ele>7.4000000953674</ele>
        <time>2023-08-09T11:53:13.000Z</time>
      </trkpt>
      <trkpt lat="50.15024" lon="1.60384">
        <ele>8</ele>
        <time>2023-08-09T11:53:17.000Z</time>
      </trkpt>
      <trkpt lat="50.15015" lon="1.60365">
        <ele>8.3999996185303</ele>
        <time>2023-08-09T11:53:21.000Z</time>
      </trkpt>
      <trkpt lat="50.15002" lon="1.60339">
        <ele>9</ele>
        <time>2023-08-09T11:53:26.000Z</time>
      </trkpt>
      <trkpt lat="50.14991" lon="1.60316">
        <ele>9.6000003814697</ele>
        <time>2023-08-09T11:53:30.000Z</time>
      </trkpt>
      <trkpt lat="50.14977" lon="1.60286">
        <ele>10</ele>
        <time>2023-08-09T11:53:35.000Z</time>
      </trkpt>
      <trkpt lat="50.1496" lon="1.60251">
        <ele>10.60000038147</ele>
        <time>2023-08-09T11:53:41.000Z</time>
      </trkpt>
      <trkpt lat="50.14945" lon="1.60221">
        <ele>11.199999809265</ele>
        <time>2023-08-09T11:53:46.000Z</time>
      </trkpt>
      <trkpt lat="50.14922" lon="1.60178">
        <ele>11.60000038147</ele>
        <time>2023-08-09T11:53:53.000Z</time>
      </trkpt>
      <trkpt lat="50.14915" lon="1.60166">
        <ele>11.60000038147</ele>
        <time>2023-08-09T11:53:55.000Z</time>
      </trkpt>
      <trkpt lat="50.14877" lon="1.60105">
        <ele>11.800000190735</ele>
        <time>2023-08-09T11:54:06.000Z</time>
      </trkpt>
      <trkpt lat="50.14853" lon="1.60064">
        <ele>12</ele>
        <time>2023-08-09T11:54:14.000Z</time>
      </trkpt>
      <trkpt lat="50.1482" lon="1.60004">
        <ele>12.199999809265</ele>
        <time>2023-08-09T11:54:24.000Z</time>
      </trkpt>
      <trkpt lat="50.14803" lon="1.59973">
        <ele>12.199999809265</ele>
        <time>2023-08-09T11:54:28.000Z</time>
      </trkpt>
      <trkpt lat="50.14779" lon="1.5993">
        <ele>12</ele>
        <time>2023-08-09T11:54:35.000Z</time>
      </trkpt>
      <trkpt lat="50.1475" lon="1.59879">
        <ele>12</ele>
        <time>2023-08-09T11:54:44.000Z</time>
      </trkpt>
      <trkpt lat="50.14743" lon="1.59863">
        <ele>11.60000038147</ele>
        <time>2023-08-09T11:54:47.000Z</time>
      </trkpt>
      <trkpt lat="50.14737" lon="1.59854">
        <ele>11.60000038147</ele>
        <time>2023-08-09T11:54:49.000Z</time>
      </trkpt>
      <trkpt lat="50.14713" lon="1.59811">
        <ele>11.39999961853</ele>
        <time>2023-08-09T11:54:57.000Z</time>
      </trkpt>
      <trkpt lat="50.14686" lon="1.59767">
        <ele>11.39999961853</ele>
        <time>2023-08-09T11:55:05.000Z</time>
      </trkpt>
      <trkpt lat="50.1465" lon="1.59713">
        <ele>11.39999961853</ele>
        <time>2023-08-09T11:55:15.000Z</time>
      </trkpt>
      <trkpt lat="50.14605" lon="1.59665">
        <ele>11.60000038147</ele>
        <time>2023-08-09T11:55:26.000Z</time>
      </trkpt>
      <trkpt lat="50.14573" lon="1.59633">
        <ele>11.800000190735</ele>
        <time>2023-08-09T11:55:33.000Z</time>
      </trkpt>
      <trkpt lat="50.14531" lon="1.59586">
        <ele>12</ele>
        <time>2023-08-09T11:55:43.000Z</time>
      </trkpt>
      <trkpt lat="50.14488" lon="1.59533">
        <ele>12.60000038147</ele>
        <time>2023-08-09T11:55:54.000Z</time>
      </trkpt>
      <trkpt lat="50.14445" lon="1.59478">
        <ele>13.199999809265</ele>
        <time>2023-08-09T11:56:05.000Z</time>
      </trkpt>
      <trkpt lat="50.14409" lon="1.59434">
        <ele>13.60000038147</ele>
        <time>2023-08-09T11:56:14.000Z</time>
      </trkpt>
      <trkpt lat="50.14379" lon="1.594">
        <ele>14</ele>
        <time>2023-08-09T11:56:21.000Z</time>
      </trkpt>
      <trkpt lat="50.14342" lon="1.59362">
        <ele>14.800000190735</ele>
        <time>2023-08-09T11:56:30.000Z</time>
      </trkpt>
      <trkpt lat="50.14337" lon="1.59356">
        <ele>14.800000190735</ele>
        <time>2023-08-09T11:56:31.000Z</time>
      </trkpt>
      <trkpt lat="50.14332" lon="1.59352">
        <ele>14.800000190735</ele>
        <time>2023-08-09T11:56:32.000Z</time>
      </trkpt>
      <trkpt lat="50.14287" lon="1.59308">
        <ele>15.39999961853</ele>
        <time>2023-08-09T11:56:43.000Z</time>
      </trkpt>
      <trkpt lat="50.14271" lon="1.59291">
        <ele>15.800000190735</ele>
        <time>2023-08-09T11:56:47.000Z</time>
      </trkpt>
      <trkpt lat="50.14262" lon="1.59283">
        <ele>15.800000190735</ele>
        <time>2023-08-09T11:56:49.000Z</time>
      </trkpt>
      <trkpt lat="50.14254" lon="1.59274">
        <ele>16</ele>
        <time>2023-08-09T11:56:51.000Z</time>
      </trkpt>
      <trkpt lat="50.14231" lon="1.5925">
        <ele>16.39999961853</ele>
        <time>2023-08-09T11:56:57.000Z</time>
      </trkpt>
      <trkpt lat="50.14219" lon="1.59235">
        <ele>16.60000038147</ele>
        <time>2023-08-09T11:57:00.000Z</time>
      </trkpt>
      <trkpt lat="50.14212" lon="1.59226">
        <ele>16.799999237061</ele>
        <time>2023-08-09T11:57:02.000Z</time>
      </trkpt>
      <trkpt lat="50.14196" lon="1.59197">
        <ele>17.200000762939</ele>
        <time>2023-08-09T11:57:07.000Z</time>
      </trkpt>
      <trkpt lat="50.14182" lon="1.59157">
        <ele>17.60000038147</ele>
        <time>2023-08-09T11:57:13.000Z</time>
      </trkpt>
      <trkpt lat="50.14179" lon="1.59145">
        <ele>17.799999237061</ele>
        <time>2023-08-09T11:57:15.000Z</time>
      </trkpt>
      <trkpt lat="50.14166" lon="1.59095">
        <ele>18.799999237061</ele>
        <time>2023-08-09T11:57:22.000Z</time>
      </trkpt>
      <trkpt lat="50.14165" lon="1.59088">
        <ele>19.200000762939</ele>
        <time>2023-08-09T11:57:23.000Z</time>
      </trkpt>
      <trkpt lat="50.14161" lon="1.59069">
        <ele>20</ele>
        <time>2023-08-09T11:57:26.000Z</time>
      </trkpt>
      <trkpt lat="50.14156" lon="1.59036">
        <ele>20.200000762939</ele>
        <time>2023-08-09T11:57:31.000Z</time>
      </trkpt>
      <trkpt lat="50.14154" lon="1.5902">
        <ele>20.200000762939</ele>
        <time>2023-08-09T11:57:33.000Z</time>
      </trkpt>
      <trkpt lat="50.14151" lon="1.58986">
        <ele>20.60000038147</ele>
        <time>2023-08-09T11:57:38.000Z</time>
      </trkpt>
      <trkpt lat="50.14148" lon="1.58953">
        <ele>20.799999237061</ele>
        <time>2023-08-09T11:57:43.000Z</time>
      </trkpt>
      <trkpt lat="50.14146" lon="1.58939">
        <ele>21</ele>
        <time>2023-08-09T11:57:45.000Z</time>
      </trkpt>
      <trkpt lat="50.14136" lon="1.58862">
        <ele>21.39999961853</ele>
        <time>2023-08-09T11:57:56.000Z</time>
      </trkpt>
      <trkpt lat="50.14119" lon="1.58782">
        <ele>21.799999237061</ele>
        <time>2023-08-09T11:58:07.000Z</time>
      </trkpt>
      <trkpt lat="50.14118" lon="1.58776">
        <ele>21.799999237061</ele>
        <time>2023-08-09T11:58:08.000Z</time>
      </trkpt>
      <trkpt lat="50.14109" lon="1.58731">
        <ele>21.799999237061</ele>
        <time>2023-08-09T11:58:14.000Z</time>
      </trkpt>
      <trkpt lat="50.14099" lon="1.58686">
        <ele>22</ele>
        <time>2023-08-09T11:58:20.000Z</time>
      </trkpt>
      <trkpt lat="50.14097" lon="1.58679">
        <ele>22</ele>
        <time>2023-08-09T11:58:21.000Z</time>
      </trkpt>
      <trkpt lat="50.14082" lon="1.58604">
        <ele>22.39999961853</ele>
        <time>2023-08-09T11:58:31.000Z</time>
      </trkpt>
      <trkpt lat="50.14068" lon="1.58543">
        <ele>22.39999961853</ele>
        <time>2023-08-09T11:58:39.000Z</time>
      </trkpt>
      <trkpt lat="50.14056" lon="1.58488">
        <ele>22</ele>
        <time>2023-08-09T11:58:47.000Z</time>
      </trkpt>
      <trkpt lat="50.14052" lon="1.58469">
        <ele>22</ele>
        <time>2023-08-09T11:58:51.000Z</time>
      </trkpt>
      <trkpt lat="50.14047" lon="1.58444">
        <ele>21.799999237061</ele>
        <time>2023-08-09T11:58:55.000Z</time>
      </trkpt>
      <trkpt lat="50.14039" lon="1.58408">
        <ele>21.799999237061</ele>
        <time>2023-08-09T11:59:00.000Z</time>
      </trkpt>
      <trkpt lat="50.14024" lon="1.58339">
        <ele>21.60000038147</ele>
        <time>2023-08-09T11:59:09.000Z</time>
      </trkpt>
      <trkpt lat="50.14006" lon="1.58267">
        <ele>21.799999237061</ele>
        <time>2023-08-09T11:59:18.000Z</time>
      </trkpt>
      <trkpt lat="50.13991" lon="1.58208">
        <ele>22</ele>
        <time>2023-08-09T11:59:26.000Z</time>
      </trkpt>
      <trkpt lat="50.13984" lon="1.58187">
        <ele>22.200000762939</ele>
        <time>2023-08-09T11:59:30.000Z</time>
      </trkpt>
      <trkpt lat="50.13981" lon="1.58181">
        <ele>22.200000762939</ele>
        <time>2023-08-09T11:59:31.000Z</time>
      </trkpt>
      <trkpt lat="50.13976" lon="1.58176">
        <ele>22.200000762939</ele>
        <time>2023-08-09T11:59:32.000Z</time>
      </trkpt>
      <trkpt lat="50.13959" lon="1.58159">
        <ele>22</ele>
        <time>2023-08-09T11:59:36.000Z</time>
      </trkpt>
      <trkpt lat="50.13927" lon="1.58123">
        <ele>21.799999237061</ele>
        <time>2023-08-09T11:59:44.000Z</time>
      </trkpt>
      <trkpt lat="50.13922" lon="1.58119">
        <ele>22</ele>
        <time>2023-08-09T11:59:45.000Z</time>
      </trkpt>
      <trkpt lat="50.13902" lon="1.58108">
        <ele>22</ele>
        <time>2023-08-09T11:59:49.000Z</time>
      </trkpt>
      <trkpt lat="50.1386" lon="1.58091">
        <ele>22.799999237061</ele>
        <time>2023-08-09T11:59:57.000Z</time>
      </trkpt>
      <trkpt lat="50.13855" lon="1.58088">
        <ele>22.799999237061</ele>
        <time>2023-08-09T11:59:58.000Z</time>
      </trkpt>
      <trkpt lat="50.1385" lon="1.58084">
        <ele>22.799999237061</ele>
        <time>2023-08-09T11:59:59.000Z</time>
      </trkpt>
      <trkpt lat="50.13846" lon="1.58079">
        <ele>22.799999237061</ele>
        <time>2023-08-09T12:00:00.000Z</time>
      </trkpt>
      <trkpt lat="50.13842" lon="1.58074">
        <ele>23</ele>
        <time>2023-08-09T12:00:01.000Z</time>
      </trkpt>
      <trkpt lat="50.13835" lon="1.58063">
        <ele>23</ele>
        <time>2023-08-09T12:00:03.000Z</time>
      </trkpt>
      <trkpt lat="50.13826" lon="1.58044">
        <ele>23.200000762939</ele>
        <time>2023-08-09T12:00:06.000Z</time>
      </trkpt>
      <trkpt lat="50.13815" lon="1.58017">
        <ele>23.200000762939</ele>
        <time>2023-08-09T12:00:10.000Z</time>
      </trkpt>
      <trkpt lat="50.1381" lon="1.58004">
        <ele>23.200000762939</ele>
        <time>2023-08-09T12:00:12.000Z</time>
      </trkpt>
      <trkpt lat="50.138" lon="1.57976">
        <ele>23.200000762939</ele>
        <time>2023-08-09T12:00:16.000Z</time>
      </trkpt>
      <trkpt lat="50.13786" lon="1.57951">
        <ele>23.39999961853</ele>
        <time>2023-08-09T12:00:20.000Z</time>
      </trkpt>
      <trkpt lat="50.13754" lon="1.57897">
        <ele>23.799999237061</ele>
        <time>2023-08-09T12:00:29.000Z</time>
      </trkpt>
      <trkpt lat="50.1374" lon="1.57873">
        <ele>23.799999237061</ele>
        <time>2023-08-09T12:00:33.000Z</time>
      </trkpt>
      <trkpt lat="50.13734" lon="1.57859">
        <ele>23.799999237061</ele>
        <time>2023-08-09T12:00:35.000Z</time>
      </trkpt>
      <trkpt lat="50.13732" lon="1.57851">
        <ele>24</ele>
        <time>2023-08-09T12:00:36.000Z</time>
      </trkpt>
      <trkpt lat="50.13729" lon="1.57835">
        <ele>24</ele>
        <time>2023-08-09T12:00:38.000Z</time>
      </trkpt>
      <trkpt lat="50.13726" lon="1.5781">
        <ele>24.39999961853</ele>
        <time>2023-08-09T12:00:41.000Z</time>
      </trkpt>
      <trkpt lat="50.13725" lon="1.57801">
        <ele>24.39999961853</ele>
        <time>2023-08-09T12:00:42.000Z</time>
      </trkpt>
      <trkpt lat="50.13718" lon="1.5775">
        <ele>24.799999237061</ele>
        <time>2023-08-09T12:00:48.000Z</time>
      </trkpt>
      <trkpt lat="50.13715" lon="1.57736">
        <ele>25</ele>
        <time>2023-08-09T12:00:50.000Z</time>
      </trkpt>
      <trkpt lat="50.13697" lon="1.57668">
        <ele>25.39999961853</ele>
        <time>2023-08-09T12:00:59.000Z</time>
      </trkpt>
      <trkpt lat="50.1368" lon="1.57608">
        <ele>25.799999237061</ele>
        <time>2023-08-09T12:01:07.000Z</time>
      </trkpt>
      <trkpt lat="50.13674" lon="1.57586">
        <ele>26.200000762939</ele>
        <time>2023-08-09T12:01:10.000Z</time>
      </trkpt>
      <trkpt lat="50.13652" lon="1.57504">
        <ele>26.39999961853</ele>
        <time>2023-08-09T12:01:21.000Z</time>
      </trkpt>
      <trkpt lat="50.13636" lon="1.57443">
        <ele>26.799999237061</ele>
        <time>2023-08-09T12:01:29.000Z</time>
      </trkpt>
      <trkpt lat="50.13629" lon="1.57421">
        <ele>27</ele>
        <time>2023-08-09T12:01:32.000Z</time>
      </trkpt>
      <trkpt lat="50.13612" lon="1.57368">
        <ele>27.39999961853</ele>
        <time>2023-08-09T12:01:39.000Z</time>
      </trkpt>
      <trkpt lat="50.13582" lon="1.57304">
        <ele>27.60000038147</ele>
        <time>2023-08-09T12:01:49.000Z</time>
      </trkpt>
      <trkpt lat="50.13545" lon="1.57251">
        <ele>28</ele>
        <time>2023-08-09T12:01:59.000Z</time>
      </trkpt>
      <trkpt lat="50.13541" lon="1.57247">
        <ele>28</ele>
        <time>2023-08-09T12:02:00.000Z</time>
      </trkpt>
      <trkpt lat="50.13509" lon="1.57212">
        <ele>28.200000762939</ele>
        <time>2023-08-09T12:02:08.000Z</time>
      </trkpt>
      <trkpt lat="50.13472" lon="1.57173">
        <ele>29</ele>
        <time>2023-08-09T12:02:17.000Z</time>
      </trkpt>
      <trkpt lat="50.13468" lon="1.57169">
        <ele>29</ele>
        <time>2023-08-09T12:02:18.000Z</time>
      </trkpt>
      <trkpt lat="50.1344" lon="1.57139">
        <ele>29.39999961853</ele>
        <time>2023-08-09T12:02:25.000Z</time>
      </trkpt>
      <trkpt lat="50.134" lon="1.57095">
        <ele>30</ele>
        <time>2023-08-09T12:02:35.000Z</time>
      </trkpt>
      <trkpt lat="50.13396" lon="1.57091">
        <ele>30</ele>
        <time>2023-08-09T12:02:36.000Z</time>
      </trkpt>
      <trkpt lat="50.13364" lon="1.57043">
        <ele>30.60000038147</ele>
        <time>2023-08-09T12:02:45.000Z</time>
      </trkpt>
      <trkpt lat="50.13361" lon="1.57038">
        <ele>30.60000038147</ele>
        <time>2023-08-09T12:02:46.000Z</time>
      </trkpt>
      <trkpt lat="50.13345" lon="1.57009">
        <ele>31.200000762939</ele>
        <time>2023-08-09T12:02:51.000Z</time>
      </trkpt>
      <trkpt lat="50.13329" lon="1.56981">
        <ele>31.39999961853</ele>
        <time>2023-08-09T12:02:56.000Z</time>
      </trkpt>
      <trkpt lat="50.13301" lon="1.56929">
        <ele>32.200000762939</ele>
        <time>2023-08-09T12:03:05.000Z</time>
      </trkpt>
      <trkpt lat="50.13291" lon="1.56911">
        <ele>32.200000762939</ele>
        <time>2023-08-09T12:03:08.000Z</time>
      </trkpt>
      <trkpt lat="50.13259" lon="1.56859">
        <ele>32.400001525879</ele>
        <time>2023-08-09T12:03:18.000Z</time>
      </trkpt>
      <trkpt lat="50.1325" lon="1.5685">
        <ele>32.400001525879</ele>
        <time>2023-08-09T12:03:19.000Z</time>
      </trkpt>
      <trkpt lat="50.13231" lon="1.56837">
        <ele>32.400001525879</ele>
        <time>2023-08-09T12:03:23.000Z</time>
      </trkpt>
      <trkpt lat="50.13195" lon="1.56827">
        <ele>32.400001525879</ele>
        <time>2023-08-09T12:03:30.000Z</time>
      </trkpt>
      <trkpt lat="50.13159" lon="1.56823">
        <ele>33</ele>
        <time>2023-08-09T12:03:37.000Z</time>
      </trkpt>
      <trkpt lat="50.13154" lon="1.56822">
        <ele>33</ele>
        <time>2023-08-09T12:03:38.000Z</time>
      </trkpt>
      <trkpt lat="50.13108" lon="1.5681">
        <ele>33.799999237061</ele>
        <time>2023-08-09T12:03:47.000Z</time>
      </trkpt>
      <trkpt lat="50.13078" lon="1.56786">
        <ele>34</ele>
        <time>2023-08-09T12:03:54.000Z</time>
      </trkpt>
      <trkpt lat="50.13042" lon="1.56736">
        <ele>34</ele>
        <time>2023-08-09T12:04:03.000Z</time>
      </trkpt>
      <trkpt lat="50.13023" lon="1.56708">
        <ele>34</ele>
        <time>2023-08-09T12:04:08.000Z</time>
      </trkpt>
      <trkpt lat="50.13011" lon="1.56689">
        <ele>34.200000762939</ele>
        <time>2023-08-09T12:04:11.000Z</time>
      </trkpt>
      <trkpt lat="50.12998" lon="1.56669">
        <ele>34</ele>
        <time>2023-08-09T12:04:14.000Z</time>
      </trkpt>
      <trkpt lat="50.12987" lon="1.56651">
        <ele>33.799999237061</ele>
        <time>2023-08-09T12:04:17.000Z</time>
      </trkpt>
      <trkpt lat="50.12984" lon="1.56644">
        <ele>33.799999237061</ele>
        <time>2023-08-09T12:04:18.000Z</time>
      </trkpt>
      <trkpt lat="50.12964" lon="1.56609">
        <ele>33.599998474121</ele>
        <time>2023-08-09T12:04:23.000Z</time>
      </trkpt>
      <trkpt lat="50.12955" lon="1.5659">
        <ele>33.400001525879</ele>
        <time>2023-08-09T12:04:25.000Z</time>
      </trkpt>
      <trkpt lat="50.12946" lon="1.56562">
        <ele>33</ele>
        <time>2023-08-09T12:04:28.000Z</time>
      </trkpt>
      <trkpt lat="50.12941" lon="1.56541">
        <ele>32.599998474121</ele>
        <time>2023-08-09T12:04:30.000Z</time>
      </trkpt>
      <trkpt lat="50.12936" lon="1.56525">
        <ele>32.400001525879</ele>
        <time>2023-08-09T12:04:32.000Z</time>
      </trkpt>
      <trkpt lat="50.12932" lon="1.56516">
        <ele>32.200000762939</ele>
        <time>2023-08-09T12:04:33.000Z</time>
      </trkpt>
      <trkpt lat="50.12928" lon="1.56504">
        <ele>31.60000038147</ele>
        <time>2023-08-09T12:04:34.000Z</time>
      </trkpt>
      <trkpt lat="50.12912" lon="1.56464">
        <ele>30</ele>
        <time>2023-08-09T12:04:37.000Z</time>
      </trkpt>
      <trkpt lat="50.12893" lon="1.56427">
        <ele>28.799999237061</ele>
        <time>2023-08-09T12:04:40.000Z</time>
      </trkpt>
      <trkpt lat="50.12886" lon="1.56417">
        <ele>28.200000762939</ele>
        <time>2023-08-09T12:04:41.000Z</time>
      </trkpt>
      <trkpt lat="50.12878" lon="1.56406">
        <ele>27.39999961853</ele>
        <time>2023-08-09T12:04:42.000Z</time>
      </trkpt>
      <trkpt lat="50.12863" lon="1.56384">
        <ele>25.799999237061</ele>
        <time>2023-08-09T12:04:44.000Z</time>
      </trkpt>
      <trkpt lat="50.12847" lon="1.56363">
        <ele>24.60000038147</ele>
        <time>2023-08-09T12:04:46.000Z</time>
      </trkpt>
      <trkpt lat="50.12824" lon="1.56331">
        <ele>23.200000762939</ele>
        <time>2023-08-09T12:04:49.000Z</time>
      </trkpt>
      <trkpt lat="50.12801" lon="1.563">
        <ele>22</ele>
        <time>2023-08-09T12:04:52.000Z</time>
      </trkpt>
      <trkpt lat="50.12786" lon="1.5628">
        <ele>20.799999237061</ele>
        <time>2023-08-09T12:04:54.000Z</time>
      </trkpt>
      <trkpt lat="50.12764" lon="1.5625">
        <ele>19.39999961853</ele>
        <time>2023-08-09T12:04:57.000Z</time>
      </trkpt>
      <trkpt lat="50.12749" lon="1.56231">
        <ele>18.200000762939</ele>
        <time>2023-08-09T12:04:59.000Z</time>
      </trkpt>
      <trkpt lat="50.12729" lon="1.56203">
        <ele>17.200000762939</ele>
        <time>2023-08-09T12:05:02.000Z</time>
      </trkpt>
      <trkpt lat="50.12723" lon="1.56193">
        <ele>17.200000762939</ele>
        <time>2023-08-09T12:05:03.000Z</time>
      </trkpt>
      <trkpt lat="50.12718" lon="1.56182">
        <ele>17</ele>
        <time>2023-08-09T12:05:04.000Z</time>
      </trkpt>
      <trkpt lat="50.12715" lon="1.5617">
        <ele>17</ele>
        <time>2023-08-09T12:05:05.000Z</time>
      </trkpt>
      <trkpt lat="50.12713" lon="1.56146">
        <ele>16.799999237061</ele>
        <time>2023-08-09T12:05:07.000Z</time>
      </trkpt>
      <trkpt lat="50.12715" lon="1.5607">
        <ele>16.39999961853</ele>
        <time>2023-08-09T12:05:14.000Z</time>
      </trkpt>
      <trkpt lat="50.12711" lon="1.56031">
        <ele>16.39999961853</ele>
        <time>2023-08-09T12:05:18.000Z</time>
      </trkpt>
      <trkpt lat="50.12702" lon="1.56">
        <ele>16.60000038147</ele>
        <time>2023-08-09T12:05:22.000Z</time>
      </trkpt>
      <trkpt lat="50.12694" lon="1.55978">
        <ele>16.60000038147</ele>
        <time>2023-08-09T12:05:25.000Z</time>
      </trkpt>
      <trkpt lat="50.12671" lon="1.55923">
        <ele>16.799999237061</ele>
        <time>2023-08-09T12:05:33.000Z</time>
      </trkpt>
      <trkpt lat="50.12668" lon="1.55917">
        <ele>16.799999237061</ele>
        <time>2023-08-09T12:05:34.000Z</time>
      </trkpt>
      <trkpt lat="50.12646" lon="1.55868">
        <ele>17.39999961853</ele>
        <time>2023-08-09T12:05:42.000Z</time>
      </trkpt>
      <trkpt lat="50.12623" lon="1.55822">
        <ele>18.200000762939</ele>
        <time>2023-08-09T12:05:50.000Z</time>
      </trkpt>
      <trkpt lat="50.12621" lon="1.55817">
        <ele>18.200000762939</ele>
        <time>2023-08-09T12:05:51.000Z</time>
      </trkpt>
      <trkpt lat="50.12602" lon="1.55779">
        <ele>18.60000038147</ele>
        <time>2023-08-09T12:05:58.000Z</time>
      </trkpt>
      <trkpt lat="50.12582" lon="1.55743">
        <ele>19</ele>
        <time>2023-08-09T12:06:05.000Z</time>
      </trkpt>
      <trkpt lat="50.12576" lon="1.55734">
        <ele>19.200000762939</ele>
        <time>2023-08-09T12:06:07.000Z</time>
      </trkpt>
      <trkpt lat="50.12557" lon="1.55708">
        <ele>20</ele>
        <time>2023-08-09T12:06:13.000Z</time>
      </trkpt>
      <trkpt lat="50.12554" lon="1.55704">
        <ele>20.200000762939</ele>
        <time>2023-08-09T12:06:14.000Z</time>
      </trkpt>
      <trkpt lat="50.12525" lon="1.55674">
        <ele>21</ele>
        <time>2023-08-09T12:06:22.000Z</time>
      </trkpt>
      <trkpt lat="50.12515" lon="1.55663">
        <ele>21.200000762939</ele>
        <time>2023-08-09T12:06:25.000Z</time>
      </trkpt>
      <trkpt lat="50.12486" lon="1.55632">
        <ele>22</ele>
        <time>2023-08-09T12:06:33.000Z</time>
      </trkpt>
      <trkpt lat="50.12465" lon="1.5561">
        <ele>22.39999961853</ele>
        <time>2023-08-09T12:06:39.000Z</time>
      </trkpt>
      <trkpt lat="50.12454" lon="1.55599">
        <ele>22.799999237061</ele>
        <time>2023-08-09T12:06:42.000Z</time>
      </trkpt>
      <trkpt lat="50.12433" lon="1.55577">
        <ele>23.39999961853</ele>
        <time>2023-08-09T12:06:48.000Z</time>
      </trkpt>
      <trkpt lat="50.12423" lon="1.55566">
        <ele>23.60000038147</ele>
        <time>2023-08-09T12:06:51.000Z</time>
      </trkpt>
      <trkpt lat="50.12395" lon="1.55534">
        <ele>24</ele>
        <time>2023-08-09T12:06:59.000Z</time>
      </trkpt>
      <trkpt lat="50.1237" lon="1.55506">
        <ele>24.200000762939</ele>
        <time>2023-08-09T12:07:06.000Z</time>
      </trkpt>
      <trkpt lat="50.12356" lon="1.55487">
        <ele>24.60000038147</ele>
        <time>2023-08-09T12:07:10.000Z</time>
      </trkpt>
      <trkpt lat="50.12342" lon="1.5547">
        <ele>25.200000762939</ele>
        <time>2023-08-09T12:07:14.000Z</time>
      </trkpt>
      <trkpt lat="50.12321" lon="1.55445">
        <ele>25.799999237061</ele>
        <time>2023-08-09T12:07:20.000Z</time>
      </trkpt>
      <trkpt lat="50.12298" lon="1.55415">
        <ele>26.39999961853</ele>
        <time>2023-08-09T12:07:27.000Z</time>
      </trkpt>
      <trkpt lat="50.12291" lon="1.55407">
        <ele>26.39999961853</ele>
        <time>2023-08-09T12:07:29.000Z</time>
      </trkpt>
      <trkpt lat="50.12282" lon="1.55395">
        <ele>27</ele>
        <time>2023-08-09T12:07:32.000Z</time>
      </trkpt>
      <trkpt lat="50.12275" lon="1.55387">
        <ele>27.39999961853</ele>
        <time>2023-08-09T12:07:34.000Z</time>
      </trkpt>
      <trkpt lat="50.12267" lon="1.55379">
        <ele>27.799999237061</ele>
        <time>2023-08-09T12:07:36.000Z</time>
      </trkpt>
      <trkpt lat="50.12252" lon="1.55358">
        <ele>28.39999961853</ele>
        <time>2023-08-09T12:07:41.000Z</time>
      </trkpt>
      <trkpt lat="50.12245" lon="1.5535">
        <ele>28.60000038147</ele>
        <time>2023-08-09T12:07:43.000Z</time>
      </trkpt>
      <trkpt lat="50.12216" lon="1.55322">
        <ele>29.60000038147</ele>
        <time>2023-08-09T12:07:51.000Z</time>
      </trkpt>
      <trkpt lat="50.12212" lon="1.55319">
        <ele>29.60000038147</ele>
        <time>2023-08-09T12:07:52.000Z</time>
      </trkpt>
      <trkpt lat="50.12208" lon="1.55316">
        <ele>29.60000038147</ele>
        <time>2023-08-09T12:07:53.000Z</time>
      </trkpt>
      <trkpt lat="50.12178" lon="1.55302">
        <ele>30</ele>
        <time>2023-08-09T12:08:00.000Z</time>
      </trkpt>
      <trkpt lat="50.12143" lon="1.55292">
        <ele>30.39999961853</ele>
        <time>2023-08-09T12:08:08.000Z</time>
      </trkpt>
      <trkpt lat="50.12139" lon="1.55291">
        <ele>30.39999961853</ele>
        <time>2023-08-09T12:08:09.000Z</time>
      </trkpt>
      <trkpt lat="50.12114" lon="1.55282">
        <ele>31</ele>
        <time>2023-08-09T12:08:15.000Z</time>
      </trkpt>
      <trkpt lat="50.12102" lon="1.55275">
        <ele>31.200000762939</ele>
        <time>2023-08-09T12:08:18.000Z</time>
      </trkpt>
      <trkpt lat="50.12094" lon="1.55271">
        <ele>31.39999961853</ele>
        <time>2023-08-09T12:08:20.000Z</time>
      </trkpt>
      <trkpt lat="50.12085" lon="1.55265">
        <ele>31.60000038147</ele>
        <time>2023-08-09T12:08:22.000Z</time>
      </trkpt>
      <trkpt lat="50.12075" lon="1.55255">
        <ele>31.799999237061</ele>
        <time>2023-08-09T12:08:25.000Z</time>
      </trkpt>
      <trkpt lat="50.12053" lon="1.55231">
        <ele>32.200000762939</ele>
        <time>2023-08-09T12:08:31.000Z</time>
      </trkpt>
      <trkpt lat="50.12045" lon="1.55223">
        <ele>32.400001525879</ele>
        <time>2023-08-09T12:08:33.000Z</time>
      </trkpt>
      <trkpt lat="50.12041" lon="1.55219">
        <ele>32.400001525879</ele>
        <time>2023-08-09T12:08:34.000Z</time>
      </trkpt>
      <trkpt lat="50.12027" lon="1.55202">
        <ele>32.400001525879</ele>
        <time>2023-08-09T12:08:38.000Z</time>
      </trkpt>
      <trkpt lat="50.1202" lon="1.55193">
        <ele>32.599998474121</ele>
        <time>2023-08-09T12:08:40.000Z</time>
      </trkpt>
      <trkpt lat="50.12018" lon="1.55189">
        <ele>32.599998474121</ele>
        <time>2023-08-09T12:08:41.000Z</time>
      </trkpt>
      <trkpt lat="50.12007" lon="1.55165">
        <ele>32.599998474121</ele>
        <time>2023-08-09T12:08:45.000Z</time>
      </trkpt>
      <trkpt lat="50.12005" lon="1.55159">
        <ele>32.799999237061</ele>
        <time>2023-08-09T12:08:46.000Z</time>
      </trkpt>
      <trkpt lat="50.12001" lon="1.55132">
        <ele>33</ele>
        <time>2023-08-09T12:08:50.000Z</time>
      </trkpt>
      <trkpt lat="50.11992" lon="1.55071">
        <ele>33.599998474121</ele>
        <time>2023-08-09T12:08:59.000Z</time>
      </trkpt>
      <trkpt lat="50.1199" lon="1.55048">
        <ele>33.599998474121</ele>
        <time>2023-08-09T12:09:02.000Z</time>
      </trkpt>
      <trkpt lat="50.11989" lon="1.55011">
        <ele>33.599998474121</ele>
        <time>2023-08-09T12:09:07.000Z</time>
      </trkpt>
      <trkpt lat="50.11991" lon="1.54976">
        <ele>34</ele>
        <time>2023-08-09T12:09:12.000Z</time>
      </trkpt>
      <trkpt lat="50.11988" lon="1.54964">
        <ele>34</ele>
        <time>2023-08-09T12:09:14.000Z</time>
      </trkpt>
      <trkpt lat="50.1198" lon="1.54952">
        <ele>34.200000762939</ele>
        <time>2023-08-09T12:09:16.000Z</time>
      </trkpt>
      <trkpt lat="50.11977" lon="1.54947">
        <ele>34.400001525879</ele>
        <time>2023-08-09T12:09:17.000Z</time>
      </trkpt>
      <trkpt lat="50.11973" lon="1.54943">
        <ele>34.599998474121</ele>
        <time>2023-08-09T12:09:18.000Z</time>
      </trkpt>
      <trkpt lat="50.11965" lon="1.54935">
        <ele>34.599998474121</ele>
        <time>2023-08-09T12:09:20.000Z</time>
      </trkpt>
      <trkpt lat="50.11942" lon="1.54915">
        <ele>35.200000762939</ele>
        <time>2023-08-09T12:09:25.000Z</time>
      </trkpt>
      <trkpt lat="50.11922" lon="1.54901">
        <ele>35.400001525879</ele>
        <time>2023-08-09T12:09:29.000Z</time>
      </trkpt>
      <trkpt lat="50.11904" lon="1.54887">
        <ele>35.599998474121</ele>
        <time>2023-08-09T12:09:33.000Z</time>
      </trkpt>
      <trkpt lat="50.11879" lon="1.54862">
        <ele>36</ele>
        <time>2023-08-09T12:09:39.000Z</time>
      </trkpt>
      <trkpt lat="50.11874" lon="1.54854">
        <ele>36</ele>
        <time>2023-08-09T12:09:41.000Z</time>
      </trkpt>
      <trkpt lat="50.11863" lon="1.54844">
        <ele>36.200000762939</ele>
        <time>2023-08-09T12:09:44.000Z</time>
      </trkpt>
      <trkpt lat="50.11859" lon="1.54841">
        <ele>36.200000762939</ele>
        <time>2023-08-09T12:09:45.000Z</time>
      </trkpt>
      <trkpt lat="50.11856" lon="1.54837">
        <ele>36.200000762939</ele>
        <time>2023-08-09T12:09:46.000Z</time>
      </trkpt>
      <trkpt lat="50.11836" lon="1.54813">
        <ele>36.200000762939</ele>
        <time>2023-08-09T12:09:51.000Z</time>
      </trkpt>
      <trkpt lat="50.11809" lon="1.54792">
        <ele>36.400001525879</ele>
        <time>2023-08-09T12:09:57.000Z</time>
      </trkpt>
      <trkpt lat="50.11799" lon="1.54785">
        <ele>36.599998474121</ele>
        <time>2023-08-09T12:09:59.000Z</time>
      </trkpt>
      <trkpt lat="50.11772" lon="1.54767">
        <ele>37.200000762939</ele>
        <time>2023-08-09T12:10:05.000Z</time>
      </trkpt>
      <trkpt lat="50.11769" lon="1.54762">
        <ele>37.400001525879</ele>
        <time>2023-08-09T12:10:06.000Z</time>
      </trkpt>
      <trkpt lat="50.11766" lon="1.54756">
        <ele>37.400001525879</ele>
        <time>2023-08-09T12:10:07.000Z</time>
      </trkpt>
      <trkpt lat="50.11762" lon="1.54743">
        <ele>37.400001525879</ele>
        <time>2023-08-09T12:10:09.000Z</time>
      </trkpt>
      <trkpt lat="50.11761" lon="1.54737">
        <ele>37.599998474121</ele>
        <time>2023-08-09T12:10:10.000Z</time>
      </trkpt>
      <trkpt lat="50.11759" lon="1.54723">
        <ele>37.599998474121</ele>
        <time>2023-08-09T12:10:12.000Z</time>
      </trkpt>
      <trkpt lat="50.11757" lon="1.54702">
        <ele>37.799999237061</ele>
        <time>2023-08-09T12:10:15.000Z</time>
      </trkpt>
      <trkpt lat="50.11757" lon="1.54694">
        <ele>38</ele>
        <time>2023-08-09T12:10:16.000Z</time>
      </trkpt>
      <trkpt lat="50.11757" lon="1.54686">
        <ele>38</ele>
        <time>2023-08-09T12:10:17.000Z</time>
      </trkpt>
      <trkpt lat="50.11762" lon="1.54666">
        <ele>38.599998474121</ele>
        <time>2023-08-09T12:10:20.000Z</time>
      </trkpt>
      <trkpt lat="50.11765" lon="1.54652">
        <ele>38.799999237061</ele>
        <time>2023-08-09T12:10:22.000Z</time>
      </trkpt>
      <trkpt lat="50.11766" lon="1.54639">
        <ele>39</ele>
        <time>2023-08-09T12:10:24.000Z</time>
      </trkpt>
      <trkpt lat="50.11766" lon="1.54632">
        <ele>39</ele>
        <time>2023-08-09T12:10:25.000Z</time>
      </trkpt>
      <trkpt lat="50.11764" lon="1.54617">
        <ele>39.200000762939</ele>
        <time>2023-08-09T12:10:27.000Z</time>
      </trkpt>
      <trkpt lat="50.1176" lon="1.54596">
        <ele>39.599998474121</ele>
        <time>2023-08-09T12:10:30.000Z</time>
      </trkpt>
      <trkpt lat="50.11758" lon="1.54588">
        <ele>39.799999237061</ele>
        <time>2023-08-09T12:10:31.000Z</time>
      </trkpt>
      <trkpt lat="50.11753" lon="1.54542">
        <ele>40.599998474121</ele>
        <time>2023-08-09T12:10:38.000Z</time>
      </trkpt>
      <trkpt lat="50.11751" lon="1.54525">
        <ele>40.799999237061</ele>
        <time>2023-08-09T12:10:41.000Z</time>
      </trkpt>
      <trkpt lat="50.11751" lon="1.54512">
        <ele>41</ele>
        <time>2023-08-09T12:10:43.000Z</time>
      </trkpt>
      <trkpt lat="50.11747" lon="1.54475">
        <ele>41.599998474121</ele>
        <time>2023-08-09T12:10:49.000Z</time>
      </trkpt>
      <trkpt lat="50.11744" lon="1.54461">
        <ele>42</ele>
        <time>2023-08-09T12:10:51.000Z</time>
      </trkpt>
      <trkpt lat="50.1174" lon="1.54431">
        <ele>42.400001525879</ele>
        <time>2023-08-09T12:10:55.000Z</time>
      </trkpt>
      <trkpt lat="50.11732" lon="1.54376">
        <ele>42.599998474121</ele>
        <time>2023-08-09T12:11:02.000Z</time>
      </trkpt>
      <trkpt lat="50.11718" lon="1.54318">
        <ele>43</ele>
        <time>2023-08-09T12:11:09.000Z</time>
      </trkpt>
      <trkpt lat="50.11715" lon="1.54302">
        <ele>43.200000762939</ele>
        <time>2023-08-09T12:11:11.000Z</time>
      </trkpt>
      <trkpt lat="50.11699" lon="1.54251">
        <ele>43.400001525879</ele>
        <time>2023-08-09T12:11:18.000Z</time>
      </trkpt>
      <trkpt lat="50.11696" lon="1.54244">
        <ele>43.400001525879</ele>
        <time>2023-08-09T12:11:19.000Z</time>
      </trkpt>
      <trkpt lat="50.11667" lon="1.54176">
        <ele>43</ele>
        <time>2023-08-09T12:11:29.000Z</time>
      </trkpt>
      <trkpt lat="50.11649" lon="1.54131">
        <ele>42.599998474121</ele>
        <time>2023-08-09T12:11:36.000Z</time>
      </trkpt>
      <trkpt lat="50.11622" lon="1.54069">
        <ele>42.400001525879</ele>
        <time>2023-08-09T12:11:45.000Z</time>
      </trkpt>
      <trkpt lat="50.11591" lon="1.53995">
        <ele>42.400001525879</ele>
        <time>2023-08-09T12:11:56.000Z</time>
      </trkpt>
      <trkpt lat="50.11568" lon="1.53942">
        <ele>42.200000762939</ele>
        <time>2023-08-09T12:12:04.000Z</time>
      </trkpt>
      <trkpt lat="50.11562" lon="1.53928">
        <ele>42.200000762939</ele>
        <time>2023-08-09T12:12:06.000Z</time>
      </trkpt>
      <trkpt lat="50.11542" lon="1.53881">
        <ele>42.200000762939</ele>
        <time>2023-08-09T12:12:13.000Z</time>
      </trkpt>
      <trkpt lat="50.11516" lon="1.53823">
        <ele>42.599998474121</ele>
        <time>2023-08-09T12:12:22.000Z</time>
      </trkpt>
      <trkpt lat="50.11487" lon="1.5375">
        <ele>43.200000762939</ele>
        <time>2023-08-09T12:12:33.000Z</time>
      </trkpt>
      <trkpt lat="50.11484" lon="1.53743">
        <ele>43.200000762939</ele>
        <time>2023-08-09T12:12:34.000Z</time>
      </trkpt>
      <trkpt lat="50.11468" lon="1.53671">
        <ele>43.200000762939</ele>
        <time>2023-08-09T12:12:43.000Z</time>
      </trkpt>
      <trkpt lat="50.11452" lon="1.53596">
        <ele>43.200000762939</ele>
        <time>2023-08-09T12:12:53.000Z</time>
      </trkpt>
      <trkpt lat="50.11439" lon="1.53525">
        <ele>43.400001525879</ele>
        <time>2023-08-09T12:13:02.000Z</time>
      </trkpt>
      <trkpt lat="50.11424" lon="1.53447">
        <ele>43.200000762939</ele>
        <time>2023-08-09T12:13:12.000Z</time>
      </trkpt>
      <trkpt lat="50.11415" lon="1.53415">
        <ele>43.200000762939</ele>
        <time>2023-08-09T12:13:16.000Z</time>
      </trkpt>
      <trkpt lat="50.1141" lon="1.53402">
        <ele>43.200000762939</ele>
        <time>2023-08-09T12:13:18.000Z</time>
      </trkpt>
      <trkpt lat="50.11398" lon="1.53383">
        <ele>43.400001525879</ele>
        <time>2023-08-09T12:13:21.000Z</time>
      </trkpt>
      <trkpt lat="50.1139" lon="1.53373">
        <ele>43.400001525879</ele>
        <time>2023-08-09T12:13:23.000Z</time>
      </trkpt>
      <trkpt lat="50.11352" lon="1.53336">
        <ele>43.200000762939</ele>
        <time>2023-08-09T12:13:31.000Z</time>
      </trkpt>
      <trkpt lat="50.11344" lon="1.53326">
        <ele>43.200000762939</ele>
        <time>2023-08-09T12:13:33.000Z</time>
      </trkpt>
      <trkpt lat="50.11325" lon="1.53308">
        <ele>43</ele>
        <time>2023-08-09T12:13:37.000Z</time>
      </trkpt>
      <trkpt lat="50.11277" lon="1.5326">
        <ele>42.400001525879</ele>
        <time>2023-08-09T12:13:47.000Z</time>
      </trkpt>
      <trkpt lat="50.11244" lon="1.53234">
        <ele>42</ele>
        <time>2023-08-09T12:13:53.000Z</time>
      </trkpt>
      <trkpt lat="50.11239" lon="1.53231">
        <ele>41.799999237061</ele>
        <time>2023-08-09T12:13:54.000Z</time>
      </trkpt>
      <trkpt lat="50.11212" lon="1.53218">
        <ele>41.599998474121</ele>
        <time>2023-08-09T12:13:59.000Z</time>
      </trkpt>
      <trkpt lat="50.11208" lon="1.53217">
        <ele>41.599998474121</ele>
        <time>2023-08-09T12:14:00.000Z</time>
      </trkpt>
      <trkpt lat="50.11203" lon="1.53216">
        <ele>41.599998474121</ele>
        <time>2023-08-09T12:14:01.000Z</time>
      </trkpt>
      <trkpt lat="50.11178" lon="1.53207">
        <ele>41.400001525879</ele>
        <time>2023-08-09T12:14:05.000Z</time>
      </trkpt>
      <trkpt lat="50.1113" lon="1.53192">
        <ele>41</ele>
        <time>2023-08-09T12:14:13.000Z</time>
      </trkpt>
      <trkpt lat="50.11123" lon="1.53189">
        <ele>41</ele>
        <time>2023-08-09T12:14:14.000Z</time>
      </trkpt>
      <trkpt lat="50.11116" lon="1.53187">
        <ele>40.799999237061</ele>
        <time>2023-08-09T12:14:15.000Z</time>
      </trkpt>
      <trkpt lat="50.11098" lon="1.53185">
        <ele>40.400001525879</ele>
        <time>2023-08-09T12:14:18.000Z</time>
      </trkpt>
      <trkpt lat="50.11079" lon="1.53183">
        <ele>40.400001525879</ele>
        <time>2023-08-09T12:14:21.000Z</time>
      </trkpt>
      <trkpt lat="50.11069" lon="1.53181">
        <ele>40.400001525879</ele>
        <time>2023-08-09T12:14:23.000Z</time>
      </trkpt>
      <trkpt lat="50.11035" lon="1.53171">
        <ele>40.400001525879</ele>
        <time>2023-08-09T12:14:29.000Z</time>
      </trkpt>
      <trkpt lat="50.10998" lon="1.5316">
        <ele>40.599998474121</ele>
        <time>2023-08-09T12:14:36.000Z</time>
      </trkpt>
      <trkpt lat="50.10992" lon="1.53157">
        <ele>40.599998474121</ele>
        <time>2023-08-09T12:14:37.000Z</time>
      </trkpt>
      <trkpt lat="50.10951" lon="1.53129">
        <ele>41.400001525879</ele>
        <time>2023-08-09T12:14:45.000Z</time>
      </trkpt>
      <trkpt lat="50.10936" lon="1.53118">
        <ele>41.400001525879</ele>
        <time>2023-08-09T12:14:48.000Z</time>
      </trkpt>
      <trkpt lat="50.10926" lon="1.53118">
        <ele>41.599998474121</ele>
        <time>2023-08-09T12:14:50.000Z</time>
      </trkpt>
      <trkpt lat="50.10911" lon="1.53131">
        <ele>41.599998474121</ele>
        <time>2023-08-09T12:14:53.000Z</time>
      </trkpt>
      <trkpt lat="50.10907" lon="1.53135">
        <ele>41.599998474121</ele>
        <time>2023-08-09T12:14:54.000Z</time>
      </trkpt>
      <trkpt lat="50.1089" lon="1.53153">
        <ele>41.799999237061</ele>
        <time>2023-08-09T12:14:58.000Z</time>
      </trkpt>
      <trkpt lat="50.10883" lon="1.53163">
        <ele>41.799999237061</ele>
        <time>2023-08-09T12:15:00.000Z</time>
      </trkpt>
      <trkpt lat="50.10873" lon="1.53167">
        <ele>41.799999237061</ele>
        <time>2023-08-09T12:15:02.000Z</time>
      </trkpt>
      <trkpt lat="50.10869" lon="1.53166">
        <ele>41.799999237061</ele>
        <time>2023-08-09T12:15:03.000Z</time>
      </trkpt>
      <trkpt lat="50.10864" lon="1.53162">
        <ele>42</ele>
        <time>2023-08-09T12:15:04.000Z</time>
      </trkpt>
      <trkpt lat="50.10858" lon="1.5315">
        <ele>42</ele>
        <time>2023-08-09T12:15:06.000Z</time>
      </trkpt>
      <trkpt lat="50.1083" lon="1.53092">
        <ele>42.400001525879</ele>
        <time>2023-08-09T12:15:15.000Z</time>
      </trkpt>
      <trkpt lat="50.10799" lon="1.53035">
        <ele>42.599998474121</ele>
        <time>2023-08-09T12:15:24.000Z</time>
      </trkpt>
      <trkpt lat="50.10792" lon="1.53024">
        <ele>42.799999237061</ele>
        <time>2023-08-09T12:15:26.000Z</time>
      </trkpt>
      <trkpt lat="50.10771" lon="1.52989">
        <ele>43.200000762939</ele>
        <time>2023-08-09T12:15:32.000Z</time>
      </trkpt>
      <trkpt lat="50.1073" lon="1.52926">
        <ele>43.400001525879</ele>
        <time>2023-08-09T12:15:43.000Z</time>
      </trkpt>
      <trkpt lat="50.10721" lon="1.52914">
        <ele>43.400001525879</ele>
        <time>2023-08-09T12:15:45.000Z</time>
      </trkpt>
      <trkpt lat="50.10717" lon="1.52909">
        <ele>43.400001525879</ele>
        <time>2023-08-09T12:15:46.000Z</time>
      </trkpt>
      <trkpt lat="50.10698" lon="1.52894">
        <ele>43</ele>
        <time>2023-08-09T12:15:50.000Z</time>
      </trkpt>
      <trkpt lat="50.10653" lon="1.52879">
        <ele>42.599998474121</ele>
        <time>2023-08-09T12:15:58.000Z</time>
      </trkpt>
      <trkpt lat="50.10648" lon="1.52876">
        <ele>42.599998474121</ele>
        <time>2023-08-09T12:15:59.000Z</time>
      </trkpt>
      <trkpt lat="50.10639" lon="1.52867">
        <ele>42.599998474121</ele>
        <time>2023-08-09T12:16:01.000Z</time>
      </trkpt>
      <trkpt lat="50.10636" lon="1.5286">
        <ele>42.599998474121</ele>
        <time>2023-08-09T12:16:02.000Z</time>
      </trkpt>
      <trkpt lat="50.10633" lon="1.52853">
        <ele>42.599998474121</ele>
        <time>2023-08-09T12:16:03.000Z</time>
      </trkpt>
      <trkpt lat="50.10628" lon="1.52829">
        <ele>42.599998474121</ele>
        <time>2023-08-09T12:16:06.000Z</time>
      </trkpt>
      <trkpt lat="50.10626" lon="1.52813">
        <ele>42.599998474121</ele>
        <time>2023-08-09T12:16:08.000Z</time>
      </trkpt>
      <trkpt lat="50.10622" lon="1.52795">
        <ele>42.599998474121</ele>
        <time>2023-08-09T12:16:11.000Z</time>
      </trkpt>
      <trkpt lat="50.1062" lon="1.52784">
        <ele>42.599998474121</ele>
        <time>2023-08-09T12:16:15.000Z</time>
      </trkpt>
      <trkpt lat="50.1062" lon="1.52784">
        <ele>42.599998474121</ele>
        <time>2023-08-09T12:16:16.000Z</time>
      </trkpt>
      <trkpt lat="50.10621" lon="1.52778">
        <ele>42.400001525879</ele>
        <time>2023-08-09T12:16:22.000Z</time>
      </trkpt>
      <trkpt lat="50.10619" lon="1.5277">
        <ele>42.400001525879</ele>
        <time>2023-08-09T12:16:24.000Z</time>
      </trkpt>
      <trkpt lat="50.10613" lon="1.52744">
        <ele>42</ele>
        <time>2023-08-09T12:16:30.000Z</time>
      </trkpt>
      <trkpt lat="50.10609" lon="1.52717">
        <ele>41.599998474121</ele>
        <time>2023-08-09T12:16:35.000Z</time>
      </trkpt>
      <trkpt lat="50.10608" lon="1.52705">
        <ele>41.400001525879</ele>
        <time>2023-08-09T12:16:37.000Z</time>
      </trkpt>
      <trkpt lat="50.10604" lon="1.52655">
        <ele>41.200000762939</ele>
        <time>2023-08-09T12:16:45.000Z</time>
      </trkpt>
      <trkpt lat="50.10603" lon="1.52648">
        <ele>41.200000762939</ele>
        <time>2023-08-09T12:16:46.000Z</time>
      </trkpt>
      <trkpt lat="50.106" lon="1.52612">
        <ele>41</ele>
        <time>2023-08-09T12:16:51.000Z</time>
      </trkpt>
      <trkpt lat="50.10599" lon="1.52598">
        <ele>41</ele>
        <time>2023-08-09T12:16:53.000Z</time>
      </trkpt>
      <trkpt lat="50.10592" lon="1.5257">
        <ele>41.200000762939</ele>
        <time>2023-08-09T12:16:57.000Z</time>
      </trkpt>
      <trkpt lat="50.10579" lon="1.52521">
        <ele>41.599998474121</ele>
        <time>2023-08-09T12:17:04.000Z</time>
      </trkpt>
      <trkpt lat="50.10562" lon="1.52467">
        <ele>42</ele>
        <time>2023-08-09T12:17:12.000Z</time>
      </trkpt>
      <trkpt lat="50.10544" lon="1.52414">
        <ele>42.599998474121</ele>
        <time>2023-08-09T12:17:20.000Z</time>
      </trkpt>
      <trkpt lat="50.10542" lon="1.52407">
        <ele>42.599998474121</ele>
        <time>2023-08-09T12:17:21.000Z</time>
      </trkpt>
      <trkpt lat="50.10521" lon="1.52344">
        <ele>42.400001525879</ele>
        <time>2023-08-09T12:17:30.000Z</time>
      </trkpt>
      <trkpt lat="50.10499" lon="1.52271">
        <ele>42.400001525879</ele>
        <time>2023-08-09T12:17:40.000Z</time>
      </trkpt>
      <trkpt lat="50.1048" lon="1.52226">
        <ele>42.599998474121</ele>
        <time>2023-08-09T12:17:47.000Z</time>
      </trkpt>
      <trkpt lat="50.10457" lon="1.52177">
        <ele>42.799999237061</ele>
        <time>2023-08-09T12:17:55.000Z</time>
      </trkpt>
      <trkpt lat="50.10425" lon="1.52123">
        <ele>42.799999237061</ele>
        <time>2023-08-09T12:18:04.000Z</time>
      </trkpt>
      <trkpt lat="50.1042" lon="1.52119">
        <ele>42.799999237061</ele>
        <time>2023-08-09T12:18:05.000Z</time>
      </trkpt>
      <trkpt lat="50.10407" lon="1.52107">
        <ele>42.799999237061</ele>
        <time>2023-08-09T12:18:08.000Z</time>
      </trkpt>
      <trkpt lat="50.10395" lon="1.52093">
        <ele>43</ele>
        <time>2023-08-09T12:18:11.000Z</time>
      </trkpt>
      <trkpt lat="50.10376" lon="1.52076">
        <ele>43.200000762939</ele>
        <time>2023-08-09T12:18:16.000Z</time>
      </trkpt>
      <trkpt lat="50.10357" lon="1.52059">
        <ele>43.599998474121</ele>
        <time>2023-08-09T12:18:21.000Z</time>
      </trkpt>
      <trkpt lat="50.10349" lon="1.52051">
        <ele>43.799999237061</ele>
        <time>2023-08-09T12:18:23.000Z</time>
      </trkpt>
      <trkpt lat="50.1032" lon="1.52026">
        <ele>44.200000762939</ele>
        <time>2023-08-09T12:18:30.000Z</time>
      </trkpt>
      <trkpt lat="50.10286" lon="1.52002">
        <ele>44.599998474121</ele>
        <time>2023-08-09T12:18:38.000Z</time>
      </trkpt>
      <trkpt lat="50.10281" lon="1.51999">
        <ele>44.599998474121</ele>
        <time>2023-08-09T12:18:39.000Z</time>
      </trkpt>
      <trkpt lat="50.10277" lon="1.51997">
        <ele>44.400001525879</ele>
        <time>2023-08-09T12:18:40.000Z</time>
      </trkpt>
      <trkpt lat="50.10246" lon="1.5198">
        <ele>44.599998474121</ele>
        <time>2023-08-09T12:18:47.000Z</time>
      </trkpt>
      <trkpt lat="50.10227" lon="1.5197">
        <ele>44.799999237061</ele>
        <time>2023-08-09T12:18:52.000Z</time>
      </trkpt>
      <trkpt lat="50.10221" lon="1.51961">
        <ele>45</ele>
        <time>2023-08-09T12:18:54.000Z</time>
      </trkpt>
      <trkpt lat="50.10221" lon="1.5195">
        <ele>45</ele>
        <time>2023-08-09T12:18:56.000Z</time>
      </trkpt>
      <trkpt lat="50.10224" lon="1.51945">
        <ele>45</ele>
        <time>2023-08-09T12:18:57.000Z</time>
      </trkpt>
      <trkpt lat="50.10227" lon="1.51941">
        <ele>45</ele>
        <time>2023-08-09T12:18:58.000Z</time>
      </trkpt>
      <trkpt lat="50.10231" lon="1.51937">
        <ele>45</ele>
        <time>2023-08-09T12:18:59.000Z</time>
      </trkpt>
      <trkpt lat="50.10244" lon="1.51927">
        <ele>45</ele>
        <time>2023-08-09T12:19:02.000Z</time>
      </trkpt>
      <trkpt lat="50.1028" lon="1.51897">
        <ele>45.200000762939</ele>
        <time>2023-08-09T12:19:10.000Z</time>
      </trkpt>
      <trkpt lat="50.10329" lon="1.51854">
        <ele>45.200000762939</ele>
        <time>2023-08-09T12:19:20.000Z</time>
      </trkpt>
      <trkpt lat="50.10376" lon="1.51809">
        <ele>44.400001525879</ele>
        <time>2023-08-09T12:19:30.000Z</time>
      </trkpt>
      <trkpt lat="50.10411" lon="1.51775">
        <ele>44.200000762939</ele>
        <time>2023-08-09T12:19:38.000Z</time>
      </trkpt>
      <trkpt lat="50.10423" lon="1.51761">
        <ele>44</ele>
        <time>2023-08-09T12:19:41.000Z</time>
      </trkpt>
      <trkpt lat="50.10428" lon="1.51748">
        <ele>44</ele>
        <time>2023-08-09T12:19:43.000Z</time>
      </trkpt>
      <trkpt lat="50.10429" lon="1.51725">
        <ele>44</ele>
        <time>2023-08-09T12:19:46.000Z</time>
      </trkpt>
      <trkpt lat="50.10429" lon="1.51711">
        <ele>44.200000762939</ele>
        <time>2023-08-09T12:19:48.000Z</time>
      </trkpt>
      <trkpt lat="50.10423" lon="1.51658">
        <ele>44.599998474121</ele>
        <time>2023-08-09T12:19:55.000Z</time>
      </trkpt>
      <trkpt lat="50.10418" lon="1.51583">
        <ele>44.400001525879</ele>
        <time>2023-08-09T12:20:05.000Z</time>
      </trkpt>
      <trkpt lat="50.10414" lon="1.51507">
        <ele>44.599998474121</ele>
        <time>2023-08-09T12:20:15.000Z</time>
      </trkpt>
      <trkpt lat="50.10411" lon="1.51462">
        <ele>44.799999237061</ele>
        <time>2023-08-09T12:20:21.000Z</time>
      </trkpt>
      <trkpt lat="50.10409" lon="1.51425">
        <ele>45</ele>
        <time>2023-08-09T12:20:26.000Z</time>
      </trkpt>
      <trkpt lat="50.1041" lon="1.51346">
        <ele>45.200000762939</ele>
        <time>2023-08-09T12:20:36.000Z</time>
      </trkpt>
      <trkpt lat="50.10405" lon="1.513">
        <ele>45</ele>
        <time>2023-08-09T12:20:42.000Z</time>
      </trkpt>
      <trkpt lat="50.10393" lon="1.51249">
        <ele>45</ele>
        <time>2023-08-09T12:20:49.000Z</time>
      </trkpt>
      <trkpt lat="50.10385" lon="1.51218">
        <ele>45</ele>
        <time>2023-08-09T12:20:53.000Z</time>
      </trkpt>
      <trkpt lat="50.1038" lon="1.51194">
        <ele>45</ele>
        <time>2023-08-09T12:20:56.000Z</time>
      </trkpt>
      <trkpt lat="50.10365" lon="1.51118">
        <ele>44</ele>
        <time>2023-08-09T12:21:05.000Z</time>
      </trkpt>
      <trkpt lat="50.10349" lon="1.51035">
        <ele>44</ele>
        <time>2023-08-09T12:21:15.000Z</time>
      </trkpt>
      <trkpt lat="50.10347" lon="1.51019">
        <ele>44</ele>
        <time>2023-08-09T12:21:17.000Z</time>
      </trkpt>
      <trkpt lat="50.1034" lon="1.50985">
        <ele>43.799999237061</ele>
        <time>2023-08-09T12:21:21.000Z</time>
      </trkpt>
      <trkpt lat="50.10331" lon="1.50937">
        <ele>43.799999237061</ele>
        <time>2023-08-09T12:21:27.000Z</time>
      </trkpt>
      <trkpt lat="50.10319" lon="1.50866">
        <ele>44.599998474121</ele>
        <time>2023-08-09T12:21:36.000Z</time>
      </trkpt>
      <trkpt lat="50.10305" lon="1.50785">
        <ele>44.599998474121</ele>
        <time>2023-08-09T12:21:46.000Z</time>
      </trkpt>
      <trkpt lat="50.10304" lon="1.50777">
        <ele>44.599998474121</ele>
        <time>2023-08-09T12:21:47.000Z</time>
      </trkpt>
      <trkpt lat="50.10291" lon="1.50691">
        <ele>44.599998474121</ele>
        <time>2023-08-09T12:21:58.000Z</time>
      </trkpt>
      <trkpt lat="50.10283" lon="1.50634">
        <ele>44.799999237061</ele>
        <time>2023-08-09T12:22:05.000Z</time>
      </trkpt>
      <trkpt lat="50.10274" lon="1.50567">
        <ele>45.200000762939</ele>
        <time>2023-08-09T12:22:13.000Z</time>
      </trkpt>
      <trkpt lat="50.10272" lon="1.50553">
        <ele>45.200000762939</ele>
        <time>2023-08-09T12:22:15.000Z</time>
      </trkpt>
      <trkpt lat="50.1026" lon="1.50465">
        <ele>45.599998474121</ele>
        <time>2023-08-09T12:22:26.000Z</time>
      </trkpt>
      <trkpt lat="50.10251" lon="1.504">
        <ele>46</ele>
        <time>2023-08-09T12:22:34.000Z</time>
      </trkpt>
      <trkpt lat="50.10238" lon="1.50327">
        <ele>46</ele>
        <time>2023-08-09T12:22:43.000Z</time>
      </trkpt>
      <trkpt lat="50.1022" lon="1.50256">
        <ele>45.599998474121</ele>
        <time>2023-08-09T12:22:51.000Z</time>
      </trkpt>
      <trkpt lat="50.10206" lon="1.50194">
        <ele>44.400001525879</ele>
        <time>2023-08-09T12:22:57.000Z</time>
      </trkpt>
      <trkpt lat="50.10203" lon="1.50182">
        <ele>44.200000762939</ele>
        <time>2023-08-09T12:22:58.000Z</time>
      </trkpt>
      <trkpt lat="50.10193" lon="1.50135">
        <ele>43</ele>
        <time>2023-08-09T12:23:02.000Z</time>
      </trkpt>
      <trkpt lat="50.1019" lon="1.50122">
        <ele>42.799999237061</ele>
        <time>2023-08-09T12:23:03.000Z</time>
      </trkpt>
      <trkpt lat="50.10187" lon="1.5011">
        <ele>42.599998474121</ele>
        <time>2023-08-09T12:23:04.000Z</time>
      </trkpt>
      <trkpt lat="50.10181" lon="1.50089">
        <ele>42</ele>
        <time>2023-08-09T12:23:06.000Z</time>
      </trkpt>
      <trkpt lat="50.10171" lon="1.50055">
        <ele>40.799999237061</ele>
        <time>2023-08-09T12:23:09.000Z</time>
      </trkpt>
      <trkpt lat="50.10148" lon="1.50001">
        <ele>40</ele>
        <time>2023-08-09T12:23:15.000Z</time>
      </trkpt>
      <trkpt lat="50.10136" lon="1.49966">
        <ele>39.799999237061</ele>
        <time>2023-08-09T12:23:19.000Z</time>
      </trkpt>
      <trkpt lat="50.10134" lon="1.49957">
        <ele>39.799999237061</ele>
        <time>2023-08-09T12:23:20.000Z</time>
      </trkpt>
      <trkpt lat="50.10133" lon="1.49948">
        <ele>39.799999237061</ele>
        <time>2023-08-09T12:23:21.000Z</time>
      </trkpt>
      <trkpt lat="50.10131" lon="1.49923">
        <ele>39.599998474121</ele>
        <time>2023-08-09T12:23:24.000Z</time>
      </trkpt>
      <trkpt lat="50.10132" lon="1.49872">
        <ele>40.200000762939</ele>
        <time>2023-08-09T12:23:31.000Z</time>
      </trkpt>
      <trkpt lat="50.10132" lon="1.49853">
        <ele>40.799999237061</ele>
        <time>2023-08-09T12:23:34.000Z</time>
      </trkpt>
      <trkpt lat="50.10131" lon="1.49836">
        <ele>41.200000762939</ele>
        <time>2023-08-09T12:23:37.000Z</time>
      </trkpt>
      <trkpt lat="50.1013" lon="1.4983">
        <ele>41.200000762939</ele>
        <time>2023-08-09T12:23:38.000Z</time>
      </trkpt>
      <trkpt lat="50.10124" lon="1.49808">
        <ele>42</ele>
        <time>2023-08-09T12:23:42.000Z</time>
      </trkpt>
      <trkpt lat="50.10118" lon="1.49795">
        <ele>42.400001525879</ele>
        <time>2023-08-09T12:23:45.000Z</time>
      </trkpt>
      <trkpt lat="50.10112" lon="1.49781">
        <ele>43</ele>
        <time>2023-08-09T12:23:48.000Z</time>
      </trkpt>
      <trkpt lat="50.10105" lon="1.49763">
        <ele>43.400001525879</ele>
        <time>2023-08-09T12:23:52.000Z</time>
      </trkpt>
      <trkpt lat="50.10097" lon="1.49746">
        <ele>44.200000762939</ele>
        <time>2023-08-09T12:23:56.000Z</time>
      </trkpt>
      <trkpt lat="50.10088" lon="1.49723">
        <ele>45</ele>
        <time>2023-08-09T12:24:01.000Z</time>
      </trkpt>
      <trkpt lat="50.1008" lon="1.49705">
        <ele>45.400001525879</ele>
        <time>2023-08-09T12:24:05.000Z</time>
      </trkpt>
      <trkpt lat="50.10077" lon="1.49697">
        <ele>45.599998474121</ele>
        <time>2023-08-09T12:24:07.000Z</time>
      </trkpt>
      <trkpt lat="50.10063" lon="1.49667">
        <ele>46.400001525879</ele>
        <time>2023-08-09T12:24:14.000Z</time>
      </trkpt>
      <trkpt lat="50.10061" lon="1.49663">
        <ele>46.400001525879</ele>
        <time>2023-08-09T12:24:15.000Z</time>
      </trkpt>
      <trkpt lat="50.10046" lon="1.49628">
        <ele>47.400001525879</ele>
        <time>2023-08-09T12:24:23.000Z</time>
      </trkpt>
      <trkpt lat="50.10044" lon="1.49624">
        <ele>47.400001525879</ele>
        <time>2023-08-09T12:24:24.000Z</time>
      </trkpt>
      <trkpt lat="50.10029" lon="1.4959">
        <ele>48.599998474121</ele>
        <time>2023-08-09T12:24:32.000Z</time>
      </trkpt>
      <trkpt lat="50.10023" lon="1.49577">
        <ele>48.799999237061</ele>
        <time>2023-08-09T12:24:35.000Z</time>
      </trkpt>
      <trkpt lat="50.10013" lon="1.4955">
        <ele>49.599998474121</ele>
        <time>2023-08-09T12:24:41.000Z</time>
      </trkpt>
      <trkpt lat="50.10005" lon="1.49527">
        <ele>50</ele>
        <time>2023-08-09T12:24:46.000Z</time>
      </trkpt>
      <trkpt lat="50.09997" lon="1.49503">
        <ele>50.599998474121</ele>
        <time>2023-08-09T12:24:51.000Z</time>
      </trkpt>
      <trkpt lat="50.09992" lon="1.49484">
        <ele>51.200000762939</ele>
        <time>2023-08-09T12:24:55.000Z</time>
      </trkpt>
      <trkpt lat="50.09987" lon="1.49467">
        <ele>51.599998474121</ele>
        <time>2023-08-09T12:24:58.000Z</time>
      </trkpt>
      <trkpt lat="50.09978" lon="1.49438">
        <ele>52.799999237061</ele>
        <time>2023-08-09T12:25:04.000Z</time>
      </trkpt>
      <trkpt lat="50.09976" lon="1.49433">
        <ele>53</ele>
        <time>2023-08-09T12:25:05.000Z</time>
      </trkpt>
      <trkpt lat="50.09963" lon="1.49389">
        <ele>53.799999237061</ele>
        <time>2023-08-09T12:25:14.000Z</time>
      </trkpt>
      <trkpt lat="50.09949" lon="1.49346">
        <ele>54.799999237061</ele>
        <time>2023-08-09T12:25:23.000Z</time>
      </trkpt>
      <trkpt lat="50.09944" lon="1.4933">
        <ele>55</ele>
        <time>2023-08-09T12:25:26.000Z</time>
      </trkpt>
      <trkpt lat="50.0993" lon="1.49289">
        <ele>55.799999237061</ele>
        <time>2023-08-09T12:25:34.000Z</time>
      </trkpt>
      <trkpt lat="50.09927" lon="1.49278">
        <ele>56</ele>
        <time>2023-08-09T12:25:36.000Z</time>
      </trkpt>
      <trkpt lat="50.09911" lon="1.49232">
        <ele>56.799999237061</ele>
        <time>2023-08-09T12:25:45.000Z</time>
      </trkpt>
      <trkpt lat="50.09892" lon="1.49176">
        <ele>57.799999237061</ele>
        <time>2023-08-09T12:25:56.000Z</time>
      </trkpt>
      <trkpt lat="50.0989" lon="1.49171">
        <ele>57.799999237061</ele>
        <time>2023-08-09T12:25:57.000Z</time>
      </trkpt>
      <trkpt lat="50.09876" lon="1.49131">
        <ele>58.400001525879</ele>
        <time>2023-08-09T12:26:04.000Z</time>
      </trkpt>
      <trkpt lat="50.0986" lon="1.49091">
        <ele>58.599998474121</ele>
        <time>2023-08-09T12:26:10.000Z</time>
      </trkpt>
      <trkpt lat="50.09849" lon="1.49067">
        <ele>59</ele>
        <time>2023-08-09T12:26:14.000Z</time>
      </trkpt>
      <trkpt lat="50.0983" lon="1.49032">
        <ele>59.200000762939</ele>
        <time>2023-08-09T12:26:20.000Z</time>
      </trkpt>
      <trkpt lat="50.09799" lon="1.48971">
        <ele>59.599998474121</ele>
        <time>2023-08-09T12:26:30.000Z</time>
      </trkpt>
      <trkpt lat="50.09784" lon="1.48939">
        <ele>60</ele>
        <time>2023-08-09T12:26:35.000Z</time>
      </trkpt>
      <trkpt lat="50.09776" lon="1.48922">
        <ele>60</ele>
        <time>2023-08-09T12:26:38.000Z</time>
      </trkpt>
      <trkpt lat="50.09747" lon="1.4886">
        <ele>60.400001525879</ele>
        <time>2023-08-09T12:26:48.000Z</time>
      </trkpt>
      <trkpt lat="50.0972" lon="1.48816">
        <ele>60.799999237061</ele>
        <time>2023-08-09T12:26:56.000Z</time>
      </trkpt>
      <trkpt lat="50.09716" lon="1.48811">
        <ele>60.799999237061</ele>
        <time>2023-08-09T12:26:57.000Z</time>
      </trkpt>
      <trkpt lat="50.09686" lon="1.48781">
        <ele>61.200000762939</ele>
        <time>2023-08-09T12:27:04.000Z</time>
      </trkpt>
      <trkpt lat="50.09652" lon="1.48751">
        <ele>61.799999237061</ele>
        <time>2023-08-09T12:27:12.000Z</time>
      </trkpt>
      <trkpt lat="50.09644" lon="1.48743">
        <ele>61.799999237061</ele>
        <time>2023-08-09T12:27:14.000Z</time>
      </trkpt>
      <trkpt lat="50.09613" lon="1.487">
        <ele>62.400001525879</ele>
        <time>2023-08-09T12:27:23.000Z</time>
      </trkpt>
      <trkpt lat="50.09606" lon="1.4869">
        <ele>62.799999237061</ele>
        <time>2023-08-09T12:27:25.000Z</time>
      </trkpt>
      <trkpt lat="50.09584" lon="1.4865">
        <ele>63.400001525879</ele>
        <time>2023-08-09T12:27:32.000Z</time>
      </trkpt>
      <trkpt lat="50.09574" lon="1.48626">
        <ele>63.799999237061</ele>
        <time>2023-08-09T12:27:36.000Z</time>
      </trkpt>
      <trkpt lat="50.09563" lon="1.48603">
        <ele>64.400001525879</ele>
        <time>2023-08-09T12:27:40.000Z</time>
      </trkpt>
      <trkpt lat="50.09558" lon="1.48591">
        <ele>64.599998474121</ele>
        <time>2023-08-09T12:27:42.000Z</time>
      </trkpt>
      <trkpt lat="50.09553" lon="1.48579">
        <ele>65</ele>
        <time>2023-08-09T12:27:44.000Z</time>
      </trkpt>
      <trkpt lat="50.09536" lon="1.48533">
        <ele>65.400001525879</ele>
        <time>2023-08-09T12:27:51.000Z</time>
      </trkpt>
      <trkpt lat="50.09528" lon="1.48485">
        <ele>65.800003051758</ele>
        <time>2023-08-09T12:27:58.000Z</time>
      </trkpt>
      <trkpt lat="50.09527" lon="1.48465">
        <ele>66</ele>
        <time>2023-08-09T12:28:01.000Z</time>
      </trkpt>
      <trkpt lat="50.09525" lon="1.48437">
        <ele>66.199996948242</ele>
        <time>2023-08-09T12:28:05.000Z</time>
      </trkpt>
      <trkpt lat="50.09513" lon="1.48383">
        <ele>67</ele>
        <time>2023-08-09T12:28:13.000Z</time>
      </trkpt>
      <trkpt lat="50.09511" lon="1.48377">
        <ele>67</ele>
        <time>2023-08-09T12:28:14.000Z</time>
      </trkpt>
      <trkpt lat="50.09495" lon="1.48337">
        <ele>67.199996948242</ele>
        <time>2023-08-09T12:28:20.000Z</time>
      </trkpt>
      <trkpt lat="50.09471" lon="1.48281">
        <ele>67.599998474121</ele>
        <time>2023-08-09T12:28:29.000Z</time>
      </trkpt>
      <trkpt lat="50.09452" lon="1.4824">
        <ele>68</ele>
        <time>2023-08-09T12:28:36.000Z</time>
      </trkpt>
      <trkpt lat="50.09447" lon="1.48228">
        <ele>68.199996948242</ele>
        <time>2023-08-09T12:28:38.000Z</time>
      </trkpt>
      <trkpt lat="50.09429" lon="1.48187">
        <ele>69</ele>
        <time>2023-08-09T12:28:45.000Z</time>
      </trkpt>
      <trkpt lat="50.09426" lon="1.48182">
        <ele>69.199996948242</ele>
        <time>2023-08-09T12:28:46.000Z</time>
      </trkpt>
      <trkpt lat="50.09406" lon="1.48142">
        <ele>70</ele>
        <time>2023-08-09T12:28:53.000Z</time>
      </trkpt>
      <trkpt lat="50.09401" lon="1.48131">
        <ele>70.199996948242</ele>
        <time>2023-08-09T12:28:55.000Z</time>
      </trkpt>
      <trkpt lat="50.09386" lon="1.48102">
        <ele>71.199996948242</ele>
        <time>2023-08-09T12:29:00.000Z</time>
      </trkpt>
      <trkpt lat="50.09377" lon="1.48084">
        <ele>71.599998474121</ele>
        <time>2023-08-09T12:29:03.000Z</time>
      </trkpt>
      <trkpt lat="50.09366" lon="1.4806">
        <ele>72.199996948242</ele>
        <time>2023-08-09T12:29:07.000Z</time>
      </trkpt>
      <trkpt lat="50.09352" lon="1.48033">
        <ele>72.599998474121</ele>
        <time>2023-08-09T12:29:12.000Z</time>
      </trkpt>
      <trkpt lat="50.09331" lon="1.47986">
        <ele>73.199996948242</ele>
        <time>2023-08-09T12:29:20.000Z</time>
      </trkpt>
      <trkpt lat="50.09329" lon="1.4798">
        <ele>73.199996948242</ele>
        <time>2023-08-09T12:29:21.000Z</time>
      </trkpt>
      <trkpt lat="50.09311" lon="1.47931">
        <ele>74.199996948242</ele>
        <time>2023-08-09T12:29:29.000Z</time>
      </trkpt>
      <trkpt lat="50.09309" lon="1.47925">
        <ele>74.199996948242</ele>
        <time>2023-08-09T12:29:30.000Z</time>
      </trkpt>
      <trkpt lat="50.09295" lon="1.47885">
        <ele>75</ele>
        <time>2023-08-09T12:29:36.000Z</time>
      </trkpt>
      <trkpt lat="50.09289" lon="1.47872">
        <ele>75</ele>
        <time>2023-08-09T12:29:38.000Z</time>
      </trkpt>
      <trkpt lat="50.09281" lon="1.47852">
        <ele>75.400001525879</ele>
        <time>2023-08-09T12:29:41.000Z</time>
      </trkpt>
      <trkpt lat="50.09267" lon="1.47821">
        <ele>76.199996948242</ele>
        <time>2023-08-09T12:29:46.000Z</time>
      </trkpt>
      <trkpt lat="50.09258" lon="1.478">
        <ele>76.400001525879</ele>
        <time>2023-08-09T12:29:49.000Z</time>
      </trkpt>
      <trkpt lat="50.09238" lon="1.47757">
        <ele>76.599998474121</ele>
        <time>2023-08-09T12:29:55.000Z</time>
      </trkpt>
      <trkpt lat="50.09218" lon="1.47713">
        <ele>76.599998474121</ele>
        <time>2023-08-09T12:30:01.000Z</time>
      </trkpt>
      <trkpt lat="50.0921" lon="1.477">
        <ele>76.599998474121</ele>
        <time>2023-08-09T12:30:03.000Z</time>
      </trkpt>
      <trkpt lat="50.09175" lon="1.4764">
        <ele>76.199996948242</ele>
        <time>2023-08-09T12:30:12.000Z</time>
      </trkpt>
      <trkpt lat="50.09131" lon="1.47581">
        <ele>75.400001525879</ele>
        <time>2023-08-09T12:30:22.000Z</time>
      </trkpt>
      <trkpt lat="50.09111" lon="1.47562">
        <ele>75.400001525879</ele>
        <time>2023-08-09T12:30:26.000Z</time>
      </trkpt>
      <trkpt lat="50.09096" lon="1.47551">
        <ele>75.199996948242</ele>
        <time>2023-08-09T12:30:29.000Z</time>
      </trkpt>
      <trkpt lat="50.09042" lon="1.47524">
        <ele>75</ele>
        <time>2023-08-09T12:30:39.000Z</time>
      </trkpt>
      <trkpt lat="50.08994" lon="1.4751">
        <ele>74.800003051758</ele>
        <time>2023-08-09T12:30:48.000Z</time>
      </trkpt>
      <trkpt lat="50.08952" lon="1.47492">
        <ele>74.400001525879</ele>
        <time>2023-08-09T12:30:56.000Z</time>
      </trkpt>
      <trkpt lat="50.08937" lon="1.47482">
        <ele>74.199996948242</ele>
        <time>2023-08-09T12:31:00.000Z</time>
      </trkpt>
      <trkpt lat="50.08934" lon="1.4748">
        <ele>74</ele>
        <time>2023-08-09T12:31:01.000Z</time>
      </trkpt>
      <trkpt lat="50.08925" lon="1.47473">
        <ele>73.800003051758</ele>
        <time>2023-08-09T12:31:06.000Z</time>
      </trkpt>
      <trkpt lat="50.08925" lon="1.47473">
        <ele>73.599998474121</ele>
        <time>2023-08-09T12:31:07.000Z</time>
      </trkpt>
      <trkpt lat="50.08922" lon="1.4747">
        <ele>73.400001525879</ele>
        <time>2023-08-09T12:31:10.000Z</time>
      </trkpt>
      <trkpt lat="50.08916" lon="1.47467">
        <ele>73.400001525879</ele>
        <time>2023-08-09T12:31:12.000Z</time>
      </trkpt>
      <trkpt lat="50.08898" lon="1.47457">
        <ele>73.199996948242</ele>
        <time>2023-08-09T12:31:17.000Z</time>
      </trkpt>
      <trkpt lat="50.08886" lon="1.47448">
        <ele>73.199996948242</ele>
        <time>2023-08-09T12:31:20.000Z</time>
      </trkpt>
      <trkpt lat="50.08882" lon="1.47446">
        <ele>73.199996948242</ele>
        <time>2023-08-09T12:31:21.000Z</time>
      </trkpt>
      <trkpt lat="50.0887" lon="1.47438">
        <ele>73</ele>
        <time>2023-08-09T12:31:24.000Z</time>
      </trkpt>
      <trkpt lat="50.08828" lon="1.47412">
        <ele>73.599998474121</ele>
        <time>2023-08-09T12:31:33.000Z</time>
      </trkpt>
      <trkpt lat="50.08802" lon="1.47394">
        <ele>74.199996948242</ele>
        <time>2023-08-09T12:31:39.000Z</time>
      </trkpt>
      <trkpt lat="50.08798" lon="1.47391">
        <ele>74.199996948242</ele>
        <time>2023-08-09T12:31:40.000Z</time>
      </trkpt>
      <trkpt lat="50.08768" lon="1.4737">
        <ele>74.800003051758</ele>
        <time>2023-08-09T12:31:47.000Z</time>
      </trkpt>
      <trkpt lat="50.08763" lon="1.47367">
        <ele>74.800003051758</ele>
        <time>2023-08-09T12:31:48.000Z</time>
      </trkpt>
      <trkpt lat="50.08755" lon="1.47363">
        <ele>75.199996948242</ele>
        <time>2023-08-09T12:31:50.000Z</time>
      </trkpt>
      <trkpt lat="50.08728" lon="1.47352">
        <ele>75.800003051758</ele>
        <time>2023-08-09T12:31:56.000Z</time>
      </trkpt>
      <trkpt lat="50.08718" lon="1.47349">
        <ele>76</ele>
        <time>2023-08-09T12:31:58.000Z</time>
      </trkpt>
      <trkpt lat="50.08695" lon="1.47339">
        <ele>76.199996948242</ele>
        <time>2023-08-09T12:32:03.000Z</time>
      </trkpt>
      <trkpt lat="50.08692" lon="1.47336">
        <ele>76.199996948242</ele>
        <time>2023-08-09T12:32:04.000Z</time>
      </trkpt>
      <trkpt lat="50.08687" lon="1.47332">
        <ele>76.199996948242</ele>
        <time>2023-08-09T12:32:05.000Z</time>
      </trkpt>
      <trkpt lat="50.08663" lon="1.47313">
        <ele>76.199996948242</ele>
        <time>2023-08-09T12:32:10.000Z</time>
      </trkpt>
      <trkpt lat="50.08622" lon="1.47271">
        <ele>76.400001525879</ele>
        <time>2023-08-09T12:32:20.000Z</time>
      </trkpt>
      <trkpt lat="50.08577" lon="1.47223">
        <ele>77</ele>
        <time>2023-08-09T12:32:31.000Z</time>
      </trkpt>
      <trkpt lat="50.08573" lon="1.47218">
        <ele>77.199996948242</ele>
        <time>2023-08-09T12:32:32.000Z</time>
      </trkpt>
      <trkpt lat="50.08534" lon="1.47164">
        <ele>77.400001525879</ele>
        <time>2023-08-09T12:32:42.000Z</time>
      </trkpt>
      <trkpt lat="50.08499" lon="1.47125">
        <ele>77.599998474121</ele>
        <time>2023-08-09T12:32:50.000Z</time>
      </trkpt>
      <trkpt lat="50.08485" lon="1.47113">
        <ele>77.599998474121</ele>
        <time>2023-08-09T12:32:53.000Z</time>
      </trkpt>
      <trkpt lat="50.08472" lon="1.47102">
        <ele>77.599998474121</ele>
        <time>2023-08-09T12:32:56.000Z</time>
      </trkpt>
      <trkpt lat="50.08448" lon="1.47081">
        <ele>78.199996948242</ele>
        <time>2023-08-09T12:33:01.000Z</time>
      </trkpt>
      <trkpt lat="50.08439" lon="1.47071">
        <ele>78.199996948242</ele>
        <time>2023-08-09T12:33:03.000Z</time>
      </trkpt>
      <trkpt lat="50.08406" lon="1.47022">
        <ele>78.800003051758</ele>
        <time>2023-08-09T12:33:12.000Z</time>
      </trkpt>
      <trkpt lat="50.08371" lon="1.46962">
        <ele>79.199996948242</ele>
        <time>2023-08-09T12:33:22.000Z</time>
      </trkpt>
      <trkpt lat="50.08367" lon="1.46956">
        <ele>79.199996948242</ele>
        <time>2023-08-09T12:33:23.000Z</time>
      </trkpt>
      <trkpt lat="50.0833" lon="1.46893">
        <ele>79.599998474121</ele>
        <time>2023-08-09T12:33:34.000Z</time>
      </trkpt>
      <trkpt lat="50.08292" lon="1.46829">
        <ele>79.800003051758</ele>
        <time>2023-08-09T12:33:45.000Z</time>
      </trkpt>
      <trkpt lat="50.08258" lon="1.46771">
        <ele>80.199996948242</ele>
        <time>2023-08-09T12:33:55.000Z</time>
      </trkpt>
      <trkpt lat="50.08248" lon="1.46753">
        <ele>80.400001525879</ele>
        <time>2023-08-09T12:33:58.000Z</time>
      </trkpt>
      <trkpt lat="50.08232" lon="1.46724">
        <ele>80.599998474121</ele>
        <time>2023-08-09T12:34:03.000Z</time>
      </trkpt>
      <trkpt lat="50.08219" lon="1.467">
        <ele>80.800003051758</ele>
        <time>2023-08-09T12:34:07.000Z</time>
      </trkpt>
      <trkpt lat="50.0821" lon="1.46684">
        <ele>81</ele>
        <time>2023-08-09T12:34:10.000Z</time>
      </trkpt>
      <trkpt lat="50.08197" lon="1.46661">
        <ele>81.199996948242</ele>
        <time>2023-08-09T12:34:14.000Z</time>
      </trkpt>
      <trkpt lat="50.08172" lon="1.46615">
        <ele>81.599998474121</ele>
        <time>2023-08-09T12:34:22.000Z</time>
      </trkpt>
      <trkpt lat="50.08149" lon="1.46574">
        <ele>81.800003051758</ele>
        <time>2023-08-09T12:34:29.000Z</time>
      </trkpt>
      <trkpt lat="50.08111" lon="1.46525">
        <ele>82.199996948242</ele>
        <time>2023-08-09T12:34:39.000Z</time>
      </trkpt>
      <trkpt lat="50.08107" lon="1.4652">
        <ele>82.199996948242</ele>
        <time>2023-08-09T12:34:40.000Z</time>
      </trkpt>
      <trkpt lat="50.08066" lon="1.46479">
        <ele>82.599998474121</ele>
        <time>2023-08-09T12:34:50.000Z</time>
      </trkpt>
      <trkpt lat="50.08029" lon="1.4644">
        <ele>82.800003051758</ele>
        <time>2023-08-09T12:34:59.000Z</time>
      </trkpt>
      <trkpt lat="50.08005" lon="1.46413">
        <ele>83.199996948242</ele>
        <time>2023-08-09T12:35:05.000Z</time>
      </trkpt>
      <trkpt lat="50.07993" lon="1.46398">
        <ele>83.400001525879</ele>
        <time>2023-08-09T12:35:08.000Z</time>
      </trkpt>
      <trkpt lat="50.07954" lon="1.46349">
        <ele>83.800003051758</ele>
        <time>2023-08-09T12:35:18.000Z</time>
      </trkpt>
      <trkpt lat="50.07923" lon="1.4631">
        <ele>84.199996948242</ele>
        <time>2023-08-09T12:35:26.000Z</time>
      </trkpt>
      <trkpt lat="50.07919" lon="1.46305">
        <ele>84.199996948242</ele>
        <time>2023-08-09T12:35:27.000Z</time>
      </trkpt>
      <trkpt lat="50.07885" lon="1.46261">
        <ele>84.400001525879</ele>
        <time>2023-08-09T12:35:36.000Z</time>
      </trkpt>
      <trkpt lat="50.07854" lon="1.46224">
        <ele>85.199996948242</ele>
        <time>2023-08-09T12:35:44.000Z</time>
      </trkpt>
      <trkpt lat="50.07834" lon="1.46202">
        <ele>85.199996948242</ele>
        <time>2023-08-09T12:35:49.000Z</time>
      </trkpt>
      <trkpt lat="50.07816" lon="1.46179">
        <ele>85.400001525879</ele>
        <time>2023-08-09T12:35:54.000Z</time>
      </trkpt>
      <trkpt lat="50.07794" lon="1.46154">
        <ele>85.400001525879</ele>
        <time>2023-08-09T12:36:00.000Z</time>
      </trkpt>
      <trkpt lat="50.07787" lon="1.46145">
        <ele>85.400001525879</ele>
        <time>2023-08-09T12:36:02.000Z</time>
      </trkpt>
      <trkpt lat="50.07767" lon="1.46124">
        <ele>85.599998474121</ele>
        <time>2023-08-09T12:36:07.000Z</time>
      </trkpt>
      <trkpt lat="50.07723" lon="1.46079">
        <ele>85.800003051758</ele>
        <time>2023-08-09T12:36:18.000Z</time>
      </trkpt>
      <trkpt lat="50.07691" lon="1.46049">
        <ele>85.800003051758</ele>
        <time>2023-08-09T12:36:25.000Z</time>
      </trkpt>
      <trkpt lat="50.07687" lon="1.46044">
        <ele>85.800003051758</ele>
        <time>2023-08-09T12:36:26.000Z</time>
      </trkpt>
      <trkpt lat="50.07654" lon="1.46013">
        <ele>85.599998474121</ele>
        <time>2023-08-09T12:36:33.000Z</time>
      </trkpt>
      <trkpt lat="50.07616" lon="1.45975">
        <ele>85</ele>
        <time>2023-08-09T12:36:41.000Z</time>
      </trkpt>
      <trkpt lat="50.07578" lon="1.45938">
        <ele>85</ele>
        <time>2023-08-09T12:36:49.000Z</time>
      </trkpt>
      <trkpt lat="50.07537" lon="1.45895">
        <ele>84.599998474121</ele>
        <time>2023-08-09T12:36:58.000Z</time>
      </trkpt>
      <trkpt lat="50.07503" lon="1.45854">
        <ele>84</ele>
        <time>2023-08-09T12:37:06.000Z</time>
      </trkpt>
      <trkpt lat="50.07482" lon="1.4583">
        <ele>83.800003051758</ele>
        <time>2023-08-09T12:37:11.000Z</time>
      </trkpt>
      <trkpt lat="50.07479" lon="1.45826">
        <ele>83.599998474121</ele>
        <time>2023-08-09T12:37:12.000Z</time>
      </trkpt>
      <trkpt lat="50.07473" lon="1.45818">
        <ele>83.199996948242</ele>
        <time>2023-08-09T12:37:14.000Z</time>
      </trkpt>
      <trkpt lat="50.07469" lon="1.45814">
        <ele>83</ele>
        <time>2023-08-09T12:37:15.000Z</time>
      </trkpt>
      <trkpt lat="50.07465" lon="1.4581">
        <ele>83</ele>
        <time>2023-08-09T12:37:16.000Z</time>
      </trkpt>
      <trkpt lat="50.07442" lon="1.45779">
        <ele>82</ele>
        <time>2023-08-09T12:37:22.000Z</time>
      </trkpt>
      <trkpt lat="50.07434" lon="1.45768">
        <ele>81.800003051758</ele>
        <time>2023-08-09T12:37:24.000Z</time>
      </trkpt>
      <trkpt lat="50.07397" lon="1.45714">
        <ele>81</ele>
        <time>2023-08-09T12:37:33.000Z</time>
      </trkpt>
      <trkpt lat="50.07393" lon="1.45708">
        <ele>81</ele>
        <time>2023-08-09T12:37:34.000Z</time>
      </trkpt>
      <trkpt lat="50.07356" lon="1.45658">
        <ele>80.199996948242</ele>
        <time>2023-08-09T12:37:42.000Z</time>
      </trkpt>
      <trkpt lat="50.07333" lon="1.45626">
        <ele>80</ele>
        <time>2023-08-09T12:37:47.000Z</time>
      </trkpt>
      <trkpt lat="50.07314" lon="1.45599">
        <ele>79.599998474121</ele>
        <time>2023-08-09T12:37:51.000Z</time>
      </trkpt>
      <trkpt lat="50.07304" lon="1.45586">
        <ele>79.199996948242</ele>
        <time>2023-08-09T12:37:53.000Z</time>
      </trkpt>
      <trkpt lat="50.07299" lon="1.45579">
        <ele>79</ele>
        <time>2023-08-09T12:37:54.000Z</time>
      </trkpt>
      <trkpt lat="50.07281" lon="1.45551">
        <ele>78.400001525879</ele>
        <time>2023-08-09T12:37:58.000Z</time>
      </trkpt>
      <trkpt lat="50.07271" lon="1.45537">
        <ele>78</ele>
        <time>2023-08-09T12:38:00.000Z</time>
      </trkpt>
      <trkpt lat="50.07243" lon="1.45495">
        <ele>77.199996948242</ele>
        <time>2023-08-09T12:38:06.000Z</time>
      </trkpt>
      <trkpt lat="50.0723" lon="1.45474">
        <ele>76.400001525879</ele>
        <time>2023-08-09T12:38:09.000Z</time>
      </trkpt>
      <trkpt lat="50.07214" lon="1.45444">
        <ele>75.199996948242</ele>
        <time>2023-08-09T12:38:13.000Z</time>
      </trkpt>
      <trkpt lat="50.07191" lon="1.45399">
        <ele>74.199996948242</ele>
        <time>2023-08-09T12:38:18.000Z</time>
      </trkpt>
      <trkpt lat="50.07187" lon="1.45389">
        <ele>73.599998474121</ele>
        <time>2023-08-09T12:38:19.000Z</time>
      </trkpt>
      <trkpt lat="50.07178" lon="1.45369">
        <ele>72.800003051758</ele>
        <time>2023-08-09T12:38:21.000Z</time>
      </trkpt>
      <trkpt lat="50.07155" lon="1.45318">
        <ele>71.800003051758</ele>
        <time>2023-08-09T12:38:26.000Z</time>
      </trkpt>
      <trkpt lat="50.0714" lon="1.45286">
        <ele>70</ele>
        <time>2023-08-09T12:38:29.000Z</time>
      </trkpt>
      <trkpt lat="50.07121" lon="1.4524">
        <ele>69.199996948242</ele>
        <time>2023-08-09T12:38:33.000Z</time>
      </trkpt>
      <trkpt lat="50.07116" lon="1.45228">
        <ele>69</ele>
        <time>2023-08-09T12:38:34.000Z</time>
      </trkpt>
      <trkpt lat="50.07101" lon="1.45196">
        <ele>68</ele>
        <time>2023-08-09T12:38:37.000Z</time>
      </trkpt>
      <trkpt lat="50.07084" lon="1.4516">
        <ele>66.400001525879</ele>
        <time>2023-08-09T12:38:40.000Z</time>
      </trkpt>
      <trkpt lat="50.07079" lon="1.45149">
        <ele>66.199996948242</ele>
        <time>2023-08-09T12:38:41.000Z</time>
      </trkpt>
      <trkpt lat="50.07068" lon="1.45127">
        <ele>65.400001525879</ele>
        <time>2023-08-09T12:38:43.000Z</time>
      </trkpt>
      <trkpt lat="50.07057" lon="1.45105">
        <ele>64.199996948242</ele>
        <time>2023-08-09T12:38:45.000Z</time>
      </trkpt>
      <trkpt lat="50.07045" lon="1.45083">
        <ele>63.400001525879</ele>
        <time>2023-08-09T12:38:47.000Z</time>
      </trkpt>
      <trkpt lat="50.0704" lon="1.45073">
        <ele>63.200000762939</ele>
        <time>2023-08-09T12:38:48.000Z</time>
      </trkpt>
      <trkpt lat="50.07023" lon="1.45041">
        <ele>61.599998474121</ele>
        <time>2023-08-09T12:38:51.000Z</time>
      </trkpt>
      <trkpt lat="50.07001" lon="1.45003">
        <ele>60.799999237061</ele>
        <time>2023-08-09T12:38:55.000Z</time>
      </trkpt>
      <trkpt lat="50.06995" lon="1.44995">
        <ele>60.799999237061</ele>
        <time>2023-08-09T12:38:56.000Z</time>
      </trkpt>
      <trkpt lat="50.06983" lon="1.44983">
        <ele>60.400001525879</ele>
        <time>2023-08-09T12:38:58.000Z</time>
      </trkpt>
      <trkpt lat="50.06977" lon="1.44978">
        <ele>60.200000762939</ele>
        <time>2023-08-09T12:38:59.000Z</time>
      </trkpt>
      <trkpt lat="50.06932" lon="1.4494">
        <ele>59.599998474121</ele>
        <time>2023-08-09T12:39:06.000Z</time>
      </trkpt>
      <trkpt lat="50.06926" lon="1.44934">
        <ele>59.400001525879</ele>
        <time>2023-08-09T12:39:07.000Z</time>
      </trkpt>
      <trkpt lat="50.06921" lon="1.44927">
        <ele>59.200000762939</ele>
        <time>2023-08-09T12:39:08.000Z</time>
      </trkpt>
      <trkpt lat="50.06916" lon="1.44921">
        <ele>59.200000762939</ele>
        <time>2023-08-09T12:39:09.000Z</time>
      </trkpt>
      <trkpt lat="50.069" lon="1.44893">
        <ele>58.799999237061</ele>
        <time>2023-08-09T12:39:12.000Z</time>
      </trkpt>
      <trkpt lat="50.06887" lon="1.44864">
        <ele>58</ele>
        <time>2023-08-09T12:39:15.000Z</time>
      </trkpt>
      <trkpt lat="50.06876" lon="1.44832">
        <ele>57.200000762939</ele>
        <time>2023-08-09T12:39:18.000Z</time>
      </trkpt>
      <trkpt lat="50.06872" lon="1.44821">
        <ele>57</ele>
        <time>2023-08-09T12:39:19.000Z</time>
      </trkpt>
      <trkpt lat="50.06857" lon="1.44774">
        <ele>55.799999237061</ele>
        <time>2023-08-09T12:39:23.000Z</time>
      </trkpt>
      <trkpt lat="50.06844" lon="1.44736">
        <ele>54.400001525879</ele>
        <time>2023-08-09T12:39:26.000Z</time>
      </trkpt>
      <trkpt lat="50.06828" lon="1.44683">
        <ele>53.400001525879</ele>
        <time>2023-08-09T12:39:30.000Z</time>
      </trkpt>
      <trkpt lat="50.06817" lon="1.44642">
        <ele>51.799999237061</ele>
        <time>2023-08-09T12:39:33.000Z</time>
      </trkpt>
      <trkpt lat="50.06807" lon="1.44601">
        <ele>50.400001525879</ele>
        <time>2023-08-09T12:39:36.000Z</time>
      </trkpt>
      <trkpt lat="50.06805" lon="1.44587">
        <ele>50.200000762939</ele>
        <time>2023-08-09T12:39:37.000Z</time>
      </trkpt>
      <trkpt lat="50.06803" lon="1.44573">
        <ele>49.200000762939</ele>
        <time>2023-08-09T12:39:38.000Z</time>
      </trkpt>
      <trkpt lat="50.06798" lon="1.44518">
        <ele>48.200000762939</ele>
        <time>2023-08-09T12:39:42.000Z</time>
      </trkpt>
      <trkpt lat="50.06803" lon="1.44457">
        <ele>47.200000762939</ele>
        <time>2023-08-09T12:39:47.000Z</time>
      </trkpt>
      <trkpt lat="50.06806" lon="1.44433">
        <ele>47</ele>
        <time>2023-08-09T12:39:49.000Z</time>
      </trkpt>
      <trkpt lat="50.06809" lon="1.44408">
        <ele>46.799999237061</ele>
        <time>2023-08-09T12:39:51.000Z</time>
      </trkpt>
      <trkpt lat="50.06811" lon="1.44395">
        <ele>46.599998474121</ele>
        <time>2023-08-09T12:39:52.000Z</time>
      </trkpt>
      <trkpt lat="50.06821" lon="1.44309">
        <ele>46.200000762939</ele>
        <time>2023-08-09T12:39:59.000Z</time>
      </trkpt>
      <trkpt lat="50.06824" lon="1.44284">
        <ele>46</ele>
        <time>2023-08-09T12:40:01.000Z</time>
      </trkpt>
      <trkpt lat="50.06827" lon="1.44259">
        <ele>45.400001525879</ele>
        <time>2023-08-09T12:40:03.000Z</time>
      </trkpt>
      <trkpt lat="50.06831" lon="1.44218">
        <ele>44.200000762939</ele>
        <time>2023-08-09T12:40:06.000Z</time>
      </trkpt>
      <trkpt lat="50.06833" lon="1.44204">
        <ele>44</ele>
        <time>2023-08-09T12:40:07.000Z</time>
      </trkpt>
      <trkpt lat="50.0684" lon="1.44164">
        <ele>43</ele>
        <time>2023-08-09T12:40:10.000Z</time>
      </trkpt>
      <trkpt lat="50.06845" lon="1.44125">
        <ele>41.599998474121</ele>
        <time>2023-08-09T12:40:13.000Z</time>
      </trkpt>
      <trkpt lat="50.06846" lon="1.44108">
        <ele>41.400001525879</ele>
        <time>2023-08-09T12:40:14.000Z</time>
      </trkpt>
      <trkpt lat="50.06847" lon="1.44094">
        <ele>40.799999237061</ele>
        <time>2023-08-09T12:40:15.000Z</time>
      </trkpt>
      <trkpt lat="50.06848" lon="1.44066">
        <ele>40.200000762939</ele>
        <time>2023-08-09T12:40:17.000Z</time>
      </trkpt>
      <trkpt lat="50.06849" lon="1.44037">
        <ele>39.400001525879</ele>
        <time>2023-08-09T12:40:19.000Z</time>
      </trkpt>
      <trkpt lat="50.06849" lon="1.44022">
        <ele>38.799999237061</ele>
        <time>2023-08-09T12:40:20.000Z</time>
      </trkpt>
      <trkpt lat="50.06849" lon="1.43978">
        <ele>37.599998474121</ele>
        <time>2023-08-09T12:40:23.000Z</time>
      </trkpt>
      <trkpt lat="50.0685" lon="1.43934">
        <ele>36.400001525879</ele>
        <time>2023-08-09T12:40:26.000Z</time>
      </trkpt>
      <trkpt lat="50.06851" lon="1.4392">
        <ele>36</ele>
        <time>2023-08-09T12:40:27.000Z</time>
      </trkpt>
      <trkpt lat="50.06854" lon="1.43876">
        <ele>35.200000762939</ele>
        <time>2023-08-09T12:40:30.000Z</time>
      </trkpt>
      <trkpt lat="50.06857" lon="1.43837">
        <ele>34.200000762939</ele>
        <time>2023-08-09T12:40:33.000Z</time>
      </trkpt>
      <trkpt lat="50.06857" lon="1.4381">
        <ele>33.400001525879</ele>
        <time>2023-08-09T12:40:35.000Z</time>
      </trkpt>
      <trkpt lat="50.06857" lon="1.43797">
        <ele>32.799999237061</ele>
        <time>2023-08-09T12:40:36.000Z</time>
      </trkpt>
      <trkpt lat="50.06851" lon="1.43743">
        <ele>32</ele>
        <time>2023-08-09T12:40:40.000Z</time>
      </trkpt>
      <trkpt lat="50.06847" lon="1.43718">
        <ele>31.799999237061</ele>
        <time>2023-08-09T12:40:42.000Z</time>
      </trkpt>
      <trkpt lat="50.06832" lon="1.43643">
        <ele>30.39999961853</ele>
        <time>2023-08-09T12:40:48.000Z</time>
      </trkpt>
      <trkpt lat="50.06821" lon="1.43593">
        <ele>29.39999961853</ele>
        <time>2023-08-09T12:40:52.000Z</time>
      </trkpt>
      <trkpt lat="50.06808" lon="1.43543">
        <ele>27.799999237061</ele>
        <time>2023-08-09T12:40:56.000Z</time>
      </trkpt>
      <trkpt lat="50.06799" lon="1.43505">
        <ele>26.799999237061</ele>
        <time>2023-08-09T12:40:59.000Z</time>
      </trkpt>
      <trkpt lat="50.06783" lon="1.43445">
        <ele>25.60000038147</ele>
        <time>2023-08-09T12:41:04.000Z</time>
      </trkpt>
      <trkpt lat="50.0678" lon="1.43434">
        <ele>25.60000038147</ele>
        <time>2023-08-09T12:41:05.000Z</time>
      </trkpt>
      <trkpt lat="50.0676" lon="1.43368">
        <ele>24.60000038147</ele>
        <time>2023-08-09T12:41:11.000Z</time>
      </trkpt>
      <trkpt lat="50.06757" lon="1.43357">
        <ele>24.39999961853</ele>
        <time>2023-08-09T12:41:12.000Z</time>
      </trkpt>
      <trkpt lat="50.06728" lon="1.43282">
        <ele>24</ele>
        <time>2023-08-09T12:41:19.000Z</time>
      </trkpt>
      <trkpt lat="50.06704" lon="1.43232">
        <ele>23.39999961853</ele>
        <time>2023-08-09T12:41:24.000Z</time>
      </trkpt>
      <trkpt lat="50.0669" lon="1.43202">
        <ele>22.799999237061</ele>
        <time>2023-08-09T12:41:27.000Z</time>
      </trkpt>
      <trkpt lat="50.06659" lon="1.43135">
        <ele>22</ele>
        <time>2023-08-09T12:41:34.000Z</time>
      </trkpt>
      <trkpt lat="50.06629" lon="1.43071">
        <ele>21.200000762939</ele>
        <time>2023-08-09T12:41:41.000Z</time>
      </trkpt>
      <trkpt lat="50.0662" lon="1.43053">
        <ele>20.799999237061</ele>
        <time>2023-08-09T12:41:43.000Z</time>
      </trkpt>
      <trkpt lat="50.06588" lon="1.42985">
        <ele>20</ele>
        <time>2023-08-09T12:41:50.000Z</time>
      </trkpt>
      <trkpt lat="50.06575" lon="1.42958">
        <ele>19.60000038147</ele>
        <time>2023-08-09T12:41:53.000Z</time>
      </trkpt>
      <trkpt lat="50.0657" lon="1.42949">
        <ele>19.60000038147</ele>
        <time>2023-08-09T12:41:54.000Z</time>
      </trkpt>
      <trkpt lat="50.06543" lon="1.42892">
        <ele>18.60000038147</ele>
        <time>2023-08-09T12:42:00.000Z</time>
      </trkpt>
      <trkpt lat="50.06523" lon="1.42853">
        <ele>17.60000038147</ele>
        <time>2023-08-09T12:42:04.000Z</time>
      </trkpt>
      <trkpt lat="50.06518" lon="1.42844">
        <ele>17.60000038147</ele>
        <time>2023-08-09T12:42:05.000Z</time>
      </trkpt>
      <trkpt lat="50.06499" lon="1.42806">
        <ele>16.39999961853</ele>
        <time>2023-08-09T12:42:09.000Z</time>
      </trkpt>
      <trkpt lat="50.06481" lon="1.42774">
        <ele>15.800000190735</ele>
        <time>2023-08-09T12:42:12.000Z</time>
      </trkpt>
      <trkpt lat="50.06468" lon="1.42758">
        <ele>15.39999961853</ele>
        <time>2023-08-09T12:42:14.000Z</time>
      </trkpt>
      <trkpt lat="50.06442" lon="1.42728">
        <ele>14.199999809265</ele>
        <time>2023-08-09T12:42:17.000Z</time>
      </trkpt>
      <trkpt lat="50.06424" lon="1.42708">
        <ele>13.199999809265</ele>
        <time>2023-08-09T12:42:19.000Z</time>
      </trkpt>
      <trkpt lat="50.06406" lon="1.42688">
        <ele>12</ele>
        <time>2023-08-09T12:42:21.000Z</time>
      </trkpt>
      <trkpt lat="50.06387" lon="1.42671">
        <ele>10</ele>
        <time>2023-08-09T12:42:23.000Z</time>
      </trkpt>
      <trkpt lat="50.06367" lon="1.42654">
        <ele>8.6000003814697</ele>
        <time>2023-08-09T12:42:25.000Z</time>
      </trkpt>
      <trkpt lat="50.0635" lon="1.42634">
        <ele>7.5999999046326</ele>
        <time>2023-08-09T12:42:27.000Z</time>
      </trkpt>
      <trkpt lat="50.06342" lon="1.42622">
        <ele>7.4000000953674</ele>
        <time>2023-08-09T12:42:28.000Z</time>
      </trkpt>
      <trkpt lat="50.0633" lon="1.426">
        <ele>6.1999998092651</ele>
        <time>2023-08-09T12:42:30.000Z</time>
      </trkpt>
      <trkpt lat="50.06318" lon="1.42572">
        <ele>5.4000000953674</ele>
        <time>2023-08-09T12:42:32.000Z</time>
      </trkpt>
      <trkpt lat="50.06313" lon="1.42559">
        <ele>5.1999998092651</ele>
        <time>2023-08-09T12:42:33.000Z</time>
      </trkpt>
      <trkpt lat="50.06286" lon="1.42501">
        <ele>4.1999998092651</ele>
        <time>2023-08-09T12:42:38.000Z</time>
      </trkpt>
      <trkpt lat="50.06253" lon="1.42458">
        <ele>3.2000000476837</ele>
        <time>2023-08-09T12:42:43.000Z</time>
      </trkpt>
      <trkpt lat="50.06228" lon="1.42425">
        <ele>2</ele>
        <time>2023-08-09T12:42:47.000Z</time>
      </trkpt>
      <trkpt lat="50.06221" lon="1.42418">
        <ele>1.6000000238419</ele>
        <time>2023-08-09T12:42:48.000Z</time>
      </trkpt>
      <trkpt lat="50.06215" lon="1.42412">
        <ele>1.3999999761581</ele>
        <time>2023-08-09T12:42:49.000Z</time>
      </trkpt>
      <trkpt lat="50.062" lon="1.42405">
        <ele>0.80000001192093</ele>
        <time>2023-08-09T12:42:51.000Z</time>
      </trkpt>
      <trkpt lat="50.06185" lon="1.42401">
        <ele>0.20000000298023</ele>
        <time>2023-08-09T12:42:53.000Z</time>
      </trkpt>
      <trkpt lat="50.06178" lon="1.42398">
        <ele>19.6</ele>
        <time>2023-08-09T12:42:54.000Z</time>
      </trkpt>
      <trkpt lat="50.06171" lon="1.42396">
        <ele>18.3</ele>
        <time>2023-08-09T12:42:55.000Z</time>
      </trkpt>
      <trkpt lat="50.06154" lon="1.42393">
        <ele>-0.60000002384186</ele>
        <time>2023-08-09T12:42:57.000Z</time>
      </trkpt>
      <trkpt lat="50.0613" lon="1.42388">
        <ele>-1.2000000476837</ele>
        <time>2023-08-09T12:43:00.000Z</time>
      </trkpt>
      <trkpt lat="50.06117" lon="1.42386">
        <ele>-1.6000000238419</ele>
        <time>2023-08-09T12:43:02.000Z</time>
      </trkpt>
      <trkpt lat="50.0608" lon="1.42379">
        <ele>-2.7999999523163</ele>
        <time>2023-08-09T12:43:07.000Z</time>
      </trkpt>
      <trkpt lat="50.06073" lon="1.42378">
        <ele>-2.7999999523163</ele>
        <time>2023-08-09T12:43:08.000Z</time>
      </trkpt>
      <trkpt lat="50.06043" lon="1.42374">
        <ele>-3.7999999523163</ele>
        <time>2023-08-09T12:43:12.000Z</time>
      </trkpt>
      <trkpt lat="50.06006" lon="1.42369">
        <ele>-4.5999999046326</ele>
        <time>2023-08-09T12:43:17.000Z</time>
      </trkpt>
      <trkpt lat="50.0599" lon="1.42369">
        <ele>-5</ele>
        <time>2023-08-09T12:43:19.000Z</time>
      </trkpt>
      <trkpt lat="50.05937" lon="1.42375">
        <ele>-5.8000001907349</ele>
        <time>2023-08-09T12:43:26.000Z</time>
      </trkpt>
      <trkpt lat="50.05922" lon="1.42377">
        <ele>-6</ele>
        <time>2023-08-09T12:43:28.000Z</time>
      </trkpt>
      <trkpt lat="50.0587" lon="1.42383">
        <ele>-7</ele>
        <time>2023-08-09T12:43:35.000Z</time>
      </trkpt>
      <trkpt lat="50.05814" lon="1.42389">
        <ele>-8</ele>
        <time>2023-08-09T12:43:43.000Z</time>
      </trkpt>
      <trkpt lat="50.05806" lon="1.42389">
        <ele>-8.1999998092651</ele>
        <time>2023-08-09T12:43:44.000Z</time>
      </trkpt>
      <trkpt lat="50.05785" lon="1.42392">
        <ele>-8.3999996185303</ele>
        <time>2023-08-09T12:43:47.000Z</time>
      </trkpt>
      <trkpt lat="50.05764" lon="1.42394">
        <ele>-9.1999998092651</ele>
        <time>2023-08-09T12:43:50.000Z</time>
      </trkpt>
      <trkpt lat="50.0575" lon="1.42396">
        <ele>-9.3999996185303</ele>
        <time>2023-08-09T12:43:52.000Z</time>
      </trkpt>
      <trkpt lat="50.05695" lon="1.42401">
        <ele>-10.39999961853</ele>
        <time>2023-08-09T12:44:00.000Z</time>
      </trkpt>
      <trkpt lat="50.05682" lon="1.42402">
        <ele>-10.39999961853</ele>
        <time>2023-08-09T12:44:02.000Z</time>
      </trkpt>
      <trkpt lat="50.05669" lon="1.42403">
        <ele>-10.60000038147</ele>
        <time>2023-08-09T12:44:04.000Z</time>
      </trkpt>
      <trkpt lat="50.05656" lon="1.42402">
        <ele>-10.60000038147</ele>
        <time>2023-08-09T12:44:06.000Z</time>
      </trkpt>
      <trkpt lat="50.0564" lon="1.42402">
        <ele>-11</ele>
        <time>2023-08-09T12:44:09.000Z</time>
      </trkpt>
      <trkpt lat="50.05633" lon="1.42399">
        <ele>-11.199999809265</ele>
        <time>2023-08-09T12:44:11.000Z</time>
      </trkpt>
      <trkpt lat="50.0563" lon="1.42388">
        <ele>-11.60000038147</ele>
        <time>2023-08-09T12:44:14.000Z</time>
      </trkpt>
      <trkpt lat="50.05631" lon="1.42382">
        <ele>-11.60000038147</ele>
        <time>2023-08-09T12:44:15.000Z</time>
      </trkpt>
      <trkpt lat="50.0564" lon="1.42353">
        <ele>-11.60000038147</ele>
        <time>2023-08-09T12:44:19.000Z</time>
      </trkpt>
      <trkpt lat="50.0566" lon="1.42294">
        <ele>-12</ele>
        <time>2023-08-09T12:44:27.000Z</time>
      </trkpt>
      <trkpt lat="50.05678" lon="1.42243">
        <ele>-12</ele>
        <time>2023-08-09T12:44:34.000Z</time>
      </trkpt>
      <trkpt lat="50.05687" lon="1.42216">
        <ele>-11.800000190735</ele>
        <time>2023-08-09T12:44:38.000Z</time>
      </trkpt>
      <trkpt lat="50.05694" lon="1.42199">
        <ele>-11.39999961853</ele>
        <time>2023-08-09T12:44:41.000Z</time>
      </trkpt>
      <trkpt lat="50.05705" lon="1.42177">
        <ele>-10.39999961853</ele>
        <time>2023-08-09T12:44:45.000Z</time>
      </trkpt>
      <trkpt lat="50.05713" lon="1.42163">
        <ele>-10</ele>
        <time>2023-08-09T12:44:48.000Z</time>
      </trkpt>
      <trkpt lat="50.05722" lon="1.42147">
        <ele>-9.3999996185303</ele>
        <time>2023-08-09T12:44:51.000Z</time>
      </trkpt>
      <trkpt lat="50.05725" lon="1.42139">
        <ele>-9.1999998092651</ele>
        <time>2023-08-09T12:44:52.000Z</time>
      </trkpt>
      <trkpt lat="50.05733" lon="1.4212">
        <ele>-8.8000001907349</ele>
        <time>2023-08-09T12:44:55.000Z</time>
      </trkpt>
      <trkpt lat="50.05749" lon="1.4207">
        <ele>-8.6000003814697</ele>
        <time>2023-08-09T12:45:02.000Z</time>
      </trkpt>
      <trkpt lat="50.05772" lon="1.42006">
        <ele>-8.8000001907349</ele>
        <time>2023-08-09T12:45:11.000Z</time>
      </trkpt>
      <trkpt lat="50.05793" lon="1.41952">
        <ele>-8.8000001907349</ele>
        <time>2023-08-09T12:45:19.000Z</time>
      </trkpt>
      <trkpt lat="50.05819" lon="1.41887">
        <ele>-8.8000001907349</ele>
        <time>2023-08-09T12:45:29.000Z</time>
      </trkpt>
      <trkpt lat="50.05845" lon="1.41816">
        <ele>-8.6000003814697</ele>
        <time>2023-08-09T12:45:40.000Z</time>
      </trkpt>
      <trkpt lat="50.05854" lon="1.41791">
        <ele>-8.3999996185303</ele>
        <time>2023-08-09T12:45:44.000Z</time>
      </trkpt>
      <trkpt lat="50.05863" lon="1.41759">
        <ele>-7.8000001907349</ele>
        <time>2023-08-09T12:45:49.000Z</time>
      </trkpt>
      <trkpt lat="50.05879" lon="1.41706">
        <ele>-7.4000000953674</ele>
        <time>2023-08-09T12:45:57.000Z</time>
      </trkpt>
      <trkpt lat="50.05883" lon="1.41693">
        <ele>-7.1999998092651</ele>
        <time>2023-08-09T12:45:59.000Z</time>
      </trkpt>
      <trkpt lat="50.05905" lon="1.41616">
        <ele>-6.5999999046326</ele>
        <time>2023-08-09T12:46:10.000Z</time>
      </trkpt>
      <trkpt lat="50.05916" lon="1.41561">
        <ele>-6.8000001907349</ele>
        <time>2023-08-09T12:46:17.000Z</time>
      </trkpt>
      <trkpt lat="50.05924" lon="1.41539">
        <ele>-7</ele>
        <time>2023-08-09T12:46:20.000Z</time>
      </trkpt>
      <trkpt lat="50.05929" lon="1.41523">
        <ele>-7.1999998092651</ele>
        <time>2023-08-09T12:46:22.000Z</time>
      </trkpt>
      <trkpt lat="50.05932" lon="1.41506">
        <ele>-7.1999998092651</ele>
        <time>2023-08-09T12:46:24.000Z</time>
      </trkpt>
      <trkpt lat="50.05937" lon="1.41489">
        <ele>-7.4000000953674</ele>
        <time>2023-08-09T12:46:26.000Z</time>
      </trkpt>
      <trkpt lat="50.05944" lon="1.41474">
        <ele>-7.5999999046326</ele>
        <time>2023-08-09T12:46:28.000Z</time>
      </trkpt>
      <trkpt lat="50.0595" lon="1.41459">
        <ele>-7.5999999046326</ele>
        <time>2023-08-09T12:46:30.000Z</time>
      </trkpt>
      <trkpt lat="50.05958" lon="1.41434">
        <ele>-7.8000001907349</ele>
        <time>2023-08-09T12:46:33.000Z</time>
      </trkpt>
      <trkpt lat="50.05979" lon="1.41365">
        <ele>-8.3999996185303</ele>
        <time>2023-08-09T12:46:41.000Z</time>
      </trkpt>
      <trkpt lat="50.05989" lon="1.4133">
        <ele>-8.3999996185303</ele>
        <time>2023-08-09T12:46:45.000Z</time>
      </trkpt>
      <trkpt lat="50.0601" lon="1.41253">
        <ele>-8.6000003814697</ele>
        <time>2023-08-09T12:46:54.000Z</time>
      </trkpt>
      <trkpt lat="50.06018" lon="1.41197">
        <ele>-9.3999996185303</ele>
        <time>2023-08-09T12:47:00.000Z</time>
      </trkpt>
      <trkpt lat="50.06018" lon="1.41188">
        <ele>-9.3999996185303</ele>
        <time>2023-08-09T12:47:01.000Z</time>
      </trkpt>
      <trkpt lat="50.06014" lon="1.4114">
        <ele>-9.8000001907349</ele>
        <time>2023-08-09T12:47:06.000Z</time>
      </trkpt>
      <trkpt lat="50.06008" lon="1.41092">
        <ele>-10.60000038147</ele>
        <time>2023-08-09T12:47:11.000Z</time>
      </trkpt>
      <trkpt lat="50.06006" lon="1.41074">
        <ele>-10.800000190735</ele>
        <time>2023-08-09T12:47:13.000Z</time>
      </trkpt>
      <trkpt lat="50.06007" lon="1.41065">
        <ele>-11</ele>
        <time>2023-08-09T12:47:14.000Z</time>
      </trkpt>
      <trkpt lat="50.06007" lon="1.41056">
        <ele>-11.199999809265</ele>
        <time>2023-08-09T12:47:15.000Z</time>
      </trkpt>
      <trkpt lat="50.06008" lon="1.41032">
        <ele>-11.800000190735</ele>
        <time>2023-08-09T12:47:18.000Z</time>
      </trkpt>
      <trkpt lat="50.06008" lon="1.41024">
        <ele>-11.800000190735</ele>
        <time>2023-08-09T12:47:19.000Z</time>
      </trkpt>
      <trkpt lat="50.06013" lon="1.40987">
        <ele>-12.39999961853</ele>
        <time>2023-08-09T12:47:25.000Z</time>
      </trkpt>
      <trkpt lat="50.06014" lon="1.40984">
        <ele>-12.60000038147</ele>
        <time>2023-08-09T12:47:29.000Z</time>
      </trkpt>
      <trkpt lat="50.06014" lon="1.40984">
        <ele>-12.60000038147</ele>
        <time>2023-08-09T12:47:30.000Z</time>
      </trkpt>
      <trkpt lat="50.06015" lon="1.40979">
        <ele>-12.800000190735</ele>
        <time>2023-08-09T12:47:35.000Z</time>
      </trkpt>
      <trkpt lat="50.06016" lon="1.40977">
        <ele>-12.800000190735</ele>
        <time>2023-08-09T12:47:36.000Z</time>
      </trkpt>
      <trkpt lat="50.06016" lon="1.40977">
        <ele>-12.800000190735</ele>
        <time>2023-08-09T12:47:38.000Z</time>
      </trkpt>
      <trkpt lat="50.06016" lon="1.40977">
        <ele>-12.800000190735</ele>
        <time>2023-08-09T12:47:39.000Z</time>
      </trkpt>
      <trkpt lat="50.06021" lon="1.40971">
        <ele>-12.60000038147</ele>
        <time>2023-08-09T12:47:43.000Z</time>
      </trkpt>
      <trkpt lat="50.06028" lon="1.40967">
        <ele>-12.60000038147</ele>
        <time>2023-08-09T12:47:45.000Z</time>
      </trkpt>
      <trkpt lat="50.06038" lon="1.40956">
        <ele>-12.39999961853</ele>
        <time>2023-08-09T12:47:48.000Z</time>
      </trkpt>
      <trkpt lat="50.06043" lon="1.40944">
        <ele>-12.39999961853</ele>
        <time>2023-08-09T12:47:50.000Z</time>
      </trkpt>
      <trkpt lat="50.06046" lon="1.40929">
        <ele>-12.199999809265</ele>
        <time>2023-08-09T12:47:52.000Z</time>
      </trkpt>
      <trkpt lat="50.06045" lon="1.40912">
        <ele>-12.199999809265</ele>
        <time>2023-08-09T12:47:54.000Z</time>
      </trkpt>
      <trkpt lat="50.06044" lon="1.40895">
        <ele>-12.199999809265</ele>
        <time>2023-08-09T12:47:56.000Z</time>
      </trkpt>
      <trkpt lat="50.06046" lon="1.40878">
        <ele>-12.199999809265</ele>
        <time>2023-08-09T12:47:58.000Z</time>
      </trkpt>
      <trkpt lat="50.06061" lon="1.40844">
        <ele>-12</ele>
        <time>2023-08-09T12:48:03.000Z</time>
      </trkpt>
      <trkpt lat="50.06064" lon="1.40837">
        <ele>-12</ele>
        <time>2023-08-09T12:48:04.000Z</time>
      </trkpt>
      <trkpt lat="50.06097" lon="1.40777">
        <ele>-11.800000190735</ele>
        <time>2023-08-09T12:48:14.000Z</time>
      </trkpt>
      <trkpt lat="50.06103" lon="1.40764">
        <ele>-11.800000190735</ele>
        <time>2023-08-09T12:48:16.000Z</time>
      </trkpt>
      <trkpt lat="50.06107" lon="1.40759">
        <ele>-11.60000038147</ele>
        <time>2023-08-09T12:48:17.000Z</time>
      </trkpt>
      <trkpt lat="50.06115" lon="1.40751">
        <ele>-11.199999809265</ele>
        <time>2023-08-09T12:48:19.000Z</time>
      </trkpt>
      <trkpt lat="50.06122" lon="1.4074">
        <ele>-11.199999809265</ele>
        <time>2023-08-09T12:48:21.000Z</time>
      </trkpt>
      <trkpt lat="50.06123" lon="1.40733">
        <ele>-11</ele>
        <time>2023-08-09T12:48:22.000Z</time>
      </trkpt>
      <trkpt lat="50.06124" lon="1.40725">
        <ele>-11</ele>
        <time>2023-08-09T12:48:23.000Z</time>
      </trkpt>
      <trkpt lat="50.06124" lon="1.40709">
        <ele>-10.800000190735</ele>
        <time>2023-08-09T12:48:25.000Z</time>
      </trkpt>
      <trkpt lat="50.06125" lon="1.407">
        <ele>-10.800000190735</ele>
        <time>2023-08-09T12:48:26.000Z</time>
      </trkpt>
      <trkpt lat="50.06127" lon="1.40693">
        <ele>-10.60000038147</ele>
        <time>2023-08-09T12:48:27.000Z</time>
      </trkpt>
      <trkpt lat="50.0614" lon="1.40655">
        <ele>-11</ele>
        <time>2023-08-09T12:48:32.000Z</time>
      </trkpt>
      <trkpt lat="50.06151" lon="1.40618">
        <ele>-11.199999809265</ele>
        <time>2023-08-09T12:48:37.000Z</time>
      </trkpt>
      <trkpt lat="50.06157" lon="1.40604">
        <ele>-11.199999809265</ele>
        <time>2023-08-09T12:48:39.000Z</time>
      </trkpt>
      <trkpt lat="50.06167" lon="1.40575">
        <ele>-11.199999809265</ele>
        <time>2023-08-09T12:48:43.000Z</time>
      </trkpt>
      <trkpt lat="50.06174" lon="1.40553">
        <ele>-11.199999809265</ele>
        <time>2023-08-09T12:48:46.000Z</time>
      </trkpt>
      <trkpt lat="50.06199" lon="1.40479">
        <ele>-11</ele>
        <time>2023-08-09T12:48:56.000Z</time>
      </trkpt>
      <trkpt lat="50.06219" lon="1.40418">
        <ele>-11.39999961853</ele>
        <time>2023-08-09T12:49:04.000Z</time>
      </trkpt>
      <trkpt lat="50.06245" lon="1.40341">
        <ele>-11.60000038147</ele>
        <time>2023-08-09T12:49:14.000Z</time>
      </trkpt>
      <trkpt lat="50.06247" lon="1.40333">
        <ele>-11.60000038147</ele>
        <time>2023-08-09T12:49:15.000Z</time>
      </trkpt>
      <trkpt lat="50.06269" lon="1.40273">
        <ele>-11.60000038147</ele>
        <time>2023-08-09T12:49:23.000Z</time>
      </trkpt>
      <trkpt lat="50.06286" lon="1.4022">
        <ele>-11.60000038147</ele>
        <time>2023-08-09T12:49:30.000Z</time>
      </trkpt>
      <trkpt lat="50.06291" lon="1.40204">
        <ele>-11.800000190735</ele>
        <time>2023-08-09T12:49:32.000Z</time>
      </trkpt>
      <trkpt lat="50.06317" lon="1.40128">
        <ele>-11.800000190735</ele>
        <time>2023-08-09T12:49:42.000Z</time>
      </trkpt>
      <trkpt lat="50.06325" lon="1.40105">
        <ele>-11.800000190735</ele>
        <time>2023-08-09T12:49:45.000Z</time>
      </trkpt>
      <trkpt lat="50.06333" lon="1.40082">
        <ele>-12</ele>
        <time>2023-08-09T12:49:48.000Z</time>
      </trkpt>
      <trkpt lat="50.06359" lon="1.40001">
        <ele>-12.199999809265</ele>
        <time>2023-08-09T12:49:59.000Z</time>
      </trkpt>
      <trkpt lat="50.06362" lon="1.39994">
        <ele>-12.199999809265</ele>
        <time>2023-08-09T12:50:00.000Z</time>
      </trkpt>
      <trkpt lat="50.06387" lon="1.3991">
        <ele>-12.199999809265</ele>
        <time>2023-08-09T12:50:11.000Z</time>
      </trkpt>
      <trkpt lat="50.06409" lon="1.39837">
        <ele>-12.60000038147</ele>
        <time>2023-08-09T12:50:20.000Z</time>
      </trkpt>
      <trkpt lat="50.06416" lon="1.39813">
        <ele>-12.800000190735</ele>
        <time>2023-08-09T12:50:23.000Z</time>
      </trkpt>
      <trkpt lat="50.06428" lon="1.39772">
        <ele>-13</ele>
        <time>2023-08-09T12:50:28.000Z</time>
      </trkpt>
      <trkpt lat="50.06446" lon="1.39694">
        <ele>-13.39999961853</ele>
        <time>2023-08-09T12:50:37.000Z</time>
      </trkpt>
      <trkpt lat="50.06458" lon="1.39643">
        <ele>-13.60000038147</ele>
        <time>2023-08-09T12:50:43.000Z</time>
      </trkpt>
      <trkpt lat="50.06462" lon="1.39637">
        <ele>-13.60000038147</ele>
        <time>2023-08-09T12:50:44.000Z</time>
      </trkpt>
      <trkpt lat="50.06465" lon="1.39632">
        <ele>-13.60000038147</ele>
        <time>2023-08-09T12:50:45.000Z</time>
      </trkpt>
      <trkpt lat="50.06469" lon="1.39614">
        <ele>-13.60000038147</ele>
        <time>2023-08-09T12:50:47.000Z</time>
      </trkpt>
      <trkpt lat="50.06471" lon="1.39585">
        <ele>-13.60000038147</ele>
        <time>2023-08-09T12:50:50.000Z</time>
      </trkpt>
      <trkpt lat="50.06474" lon="1.39568">
        <ele>-13.39999961853</ele>
        <time>2023-08-09T12:50:52.000Z</time>
      </trkpt>
      <trkpt lat="50.06491" lon="1.39482">
        <ele>-13.39999961853</ele>
        <time>2023-08-09T12:51:01.000Z</time>
      </trkpt>
      <trkpt lat="50.06504" lon="1.39404">
        <ele>-13.60000038147</ele>
        <time>2023-08-09T12:51:10.000Z</time>
      </trkpt>
      <trkpt lat="50.06515" lon="1.39335">
        <ele>-13.800000190735</ele>
        <time>2023-08-09T12:51:18.000Z</time>
      </trkpt>
      <trkpt lat="50.06523" lon="1.39284">
        <ele>-14</ele>
        <time>2023-08-09T12:51:24.000Z</time>
      </trkpt>
      <trkpt lat="50.06524" lon="1.39275">
        <ele>-13.800000190735</ele>
        <time>2023-08-09T12:51:25.000Z</time>
      </trkpt>
      <trkpt lat="50.0653" lon="1.39243">
        <ele>-13.800000190735</ele>
        <time>2023-08-09T12:51:29.000Z</time>
      </trkpt>
      <trkpt lat="50.06534" lon="1.3922">
        <ele>-13.800000190735</ele>
        <time>2023-08-09T12:51:32.000Z</time>
      </trkpt>
      <trkpt lat="50.06547" lon="1.3914">
        <ele>-13.60000038147</ele>
        <time>2023-08-09T12:51:42.000Z</time>
      </trkpt>
      <trkpt lat="50.06558" lon="1.39072">
        <ele>-13.60000038147</ele>
        <time>2023-08-09T12:51:50.000Z</time>
      </trkpt>
      <trkpt lat="50.06566" lon="1.39013">
        <ele>-13.60000038147</ele>
        <time>2023-08-09T12:51:57.000Z</time>
      </trkpt>
      <trkpt lat="50.06568" lon="1.39004">
        <ele>-13.60000038147</ele>
        <time>2023-08-09T12:51:58.000Z</time>
      </trkpt>
      <trkpt lat="50.0658" lon="1.38942">
        <ele>-14</ele>
        <time>2023-08-09T12:52:06.000Z</time>
      </trkpt>
      <trkpt lat="50.06582" lon="1.38926">
        <ele>-14</ele>
        <time>2023-08-09T12:52:08.000Z</time>
      </trkpt>
      <trkpt lat="50.06586" lon="1.38903">
        <ele>-14</ele>
        <time>2023-08-09T12:52:11.000Z</time>
      </trkpt>
      <trkpt lat="50.06595" lon="1.38842">
        <ele>-14</ele>
        <time>2023-08-09T12:52:19.000Z</time>
      </trkpt>
      <trkpt lat="50.06598" lon="1.38815">
        <ele>-14.199999809265</ele>
        <time>2023-08-09T12:52:24.000Z</time>
      </trkpt>
      <trkpt lat="50.06599" lon="1.38812">
        <ele>-14.199999809265</ele>
        <time>2023-08-09T12:52:25.000Z</time>
      </trkpt>
      <trkpt lat="50.06599" lon="1.38807">
        <ele>-14.60000038147</ele>
        <time>2023-08-09T12:52:28.000Z</time>
      </trkpt>
      <trkpt lat="50.06599" lon="1.38805">
        <ele>-15</ele>
        <time>2023-08-09T12:52:32.000Z</time>
      </trkpt>
      <trkpt lat="50.06601" lon="1.388">
        <ele>-15.199999809265</ele>
        <time>2023-08-09T12:52:39.000Z</time>
      </trkpt>
      <trkpt lat="50.06602" lon="1.38798">
        <ele>-15.39999961853</ele>
        <time>2023-08-09T12:52:40.000Z</time>
      </trkpt>
      <trkpt lat="50.06602" lon="1.38795">
        <ele>-15.39999961853</ele>
        <time>2023-08-09T12:52:41.000Z</time>
      </trkpt>
      <trkpt lat="50.06604" lon="1.38779">
        <ele>-15.60000038147</ele>
        <time>2023-08-09T12:52:45.000Z</time>
      </trkpt>
      <trkpt lat="50.06606" lon="1.38762">
        <ele>-15.60000038147</ele>
        <time>2023-08-09T12:52:49.000Z</time>
      </trkpt>
      <trkpt lat="50.0661" lon="1.38742">
        <ele>-15.39999961853</ele>
        <time>2023-08-09T12:52:53.000Z</time>
      </trkpt>
      <trkpt lat="50.06613" lon="1.38722">
        <ele>-15.199999809265</ele>
        <time>2023-08-09T12:52:56.000Z</time>
      </trkpt>
      <trkpt lat="50.06616" lon="1.387">
        <ele>-15</ele>
        <time>2023-08-09T12:52:59.000Z</time>
      </trkpt>
      <trkpt lat="50.06624" lon="1.38646">
        <ele>-14.60000038147</ele>
        <time>2023-08-09T12:53:06.000Z</time>
      </trkpt>
      <trkpt lat="50.06626" lon="1.38604">
        <ele>-14.199999809265</ele>
        <time>2023-08-09T12:53:11.000Z</time>
      </trkpt>
      <trkpt lat="50.06626" lon="1.38596">
        <ele>-14.199999809265</ele>
        <time>2023-08-09T12:53:12.000Z</time>
      </trkpt>
      <trkpt lat="50.06619" lon="1.38543">
        <ele>-13.800000190735</ele>
        <time>2023-08-09T12:53:19.000Z</time>
      </trkpt>
      <trkpt lat="50.06613" lon="1.38518">
        <ele>-14</ele>
        <time>2023-08-09T12:53:25.000Z</time>
      </trkpt>
      <trkpt lat="50.06602" lon="1.38481">
        <ele>-14.199999809265</ele>
        <time>2023-08-09T12:53:32.000Z</time>
      </trkpt>
      <trkpt lat="50.06598" lon="1.38468">
        <ele>-14</ele>
        <time>2023-08-09T12:53:34.000Z</time>
      </trkpt>
      <trkpt lat="50.06588" lon="1.38442">
        <ele>-13.800000190735</ele>
        <time>2023-08-09T12:53:38.000Z</time>
      </trkpt>
      <trkpt lat="50.06574" lon="1.38395">
        <ele>-13.39999961853</ele>
        <time>2023-08-09T12:53:44.000Z</time>
      </trkpt>
      <trkpt lat="50.06558" lon="1.38339">
        <ele>-13.60000038147</ele>
        <time>2023-08-09T12:53:51.000Z</time>
      </trkpt>
      <trkpt lat="50.06537" lon="1.38279">
        <ele>-13.800000190735</ele>
        <time>2023-08-09T12:53:59.000Z</time>
      </trkpt>
      <trkpt lat="50.06517" lon="1.38217">
        <ele>-13.60000038147</ele>
        <time>2023-08-09T12:54:07.000Z</time>
      </trkpt>
      <trkpt lat="50.06515" lon="1.38211">
        <ele>-13.60000038147</ele>
        <time>2023-08-09T12:54:08.000Z</time>
      </trkpt>
      <trkpt lat="50.06495" lon="1.38146">
        <ele>-13.39999961853</ele>
        <time>2023-08-09T12:54:17.000Z</time>
      </trkpt>
      <trkpt lat="50.0649" lon="1.38133">
        <ele>-13.39999961853</ele>
        <time>2023-08-09T12:54:19.000Z</time>
      </trkpt>
      <trkpt lat="50.06481" lon="1.38104">
        <ele>-13.39999961853</ele>
        <time>2023-08-09T12:54:23.000Z</time>
      </trkpt>
      <trkpt lat="50.06468" lon="1.3806">
        <ele>-13</ele>
        <time>2023-08-09T12:54:29.000Z</time>
      </trkpt>
      <trkpt lat="50.06462" lon="1.38037">
        <ele>-13</ele>
        <time>2023-08-09T12:54:32.000Z</time>
      </trkpt>
      <trkpt lat="50.0644" lon="1.3797">
        <ele>-13.199999809265</ele>
        <time>2023-08-09T12:54:41.000Z</time>
      </trkpt>
      <trkpt lat="50.06439" lon="1.37964">
        <ele>-13.199999809265</ele>
        <time>2023-08-09T12:54:42.000Z</time>
      </trkpt>
      <trkpt lat="50.06438" lon="1.37958">
        <ele>-13.199999809265</ele>
        <time>2023-08-09T12:54:43.000Z</time>
      </trkpt>
      <trkpt lat="50.06434" lon="1.3794">
        <ele>-13.199999809265</ele>
        <time>2023-08-09T12:54:46.000Z</time>
      </trkpt>
      <trkpt lat="50.06428" lon="1.37922">
        <ele>-13.39999961853</ele>
        <time>2023-08-09T12:54:51.000Z</time>
      </trkpt>
      <trkpt lat="50.06426" lon="1.37914">
        <ele>-13.39999961853</ele>
        <time>2023-08-09T12:54:55.000Z</time>
      </trkpt>
      <trkpt lat="50.06425" lon="1.37911">
        <ele>-13.39999961853</ele>
        <time>2023-08-09T12:54:56.000Z</time>
      </trkpt>
      <trkpt lat="50.06422" lon="1.37907">
        <ele>-13.199999809265</ele>
        <time>2023-08-09T12:55:00.000Z</time>
      </trkpt>
      <trkpt lat="50.06424" lon="1.3791">
        <ele>-12.800000190735</ele>
        <time>2023-08-09T12:55:44.000Z</time>
      </trkpt>
      <trkpt lat="50.06427" lon="1.37917">
        <ele>-12.800000190735</ele>
        <time>2023-08-09T12:55:46.000Z</time>
      </trkpt>
      <trkpt lat="50.06443" lon="1.37937">
        <ele>-12.60000038147</ele>
        <time>2023-08-09T12:55:52.000Z</time>
      </trkpt>
      <trkpt lat="50.06454" lon="1.37951">
        <ele>-12.39999961853</ele>
        <time>2023-08-09T12:55:57.000Z</time>
      </trkpt>
      <trkpt lat="50.06456" lon="1.37952">
        <ele>-12.199999809265</ele>
        <time>2023-08-09T12:55:58.000Z</time>
      </trkpt>
      <trkpt lat="50.06458" lon="1.37951">
        <ele>-12.199999809265</ele>
        <time>2023-08-09T12:55:59.000Z</time>
      </trkpt>
      <trkpt lat="50.06461" lon="1.37948">
        <ele>-12</ele>
        <time>2023-08-09T12:56:04.000Z</time>
      </trkpt>
      <trkpt lat="50.06456" lon="1.37949">
        <ele>-13.199999809265</ele>
        <time>2023-08-09T13:08:55.000Z</time>
      </trkpt>
      <trkpt lat="50.06451" lon="1.37946">
        <ele>-13.199999809265</ele>
        <time>2023-08-09T13:08:57.000Z</time>
      </trkpt>
      <trkpt lat="50.06437" lon="1.37936">
        <ele>-13.800000190735</ele>
        <time>2023-08-09T13:09:04.000Z</time>
      </trkpt>
      <trkpt lat="50.06424" lon="1.37916">
        <ele>-14.199999809265</ele>
        <time>2023-08-09T13:09:10.000Z</time>
      </trkpt>
      <trkpt lat="50.06413" lon="1.37882">
        <ele>-14.199999809265</ele>
        <time>2023-08-09T13:09:17.000Z</time>
      </trkpt>
      <trkpt lat="50.06403" lon="1.37847">
        <ele>-13.800000190735</ele>
        <time>2023-08-09T13:09:23.000Z</time>
      </trkpt>
      <trkpt lat="50.06392" lon="1.37815">
        <ele>-13.199999809265</ele>
        <time>2023-08-09T13:09:28.000Z</time>
      </trkpt>
      <trkpt lat="50.06388" lon="1.378">
        <ele>-13.199999809265</ele>
        <time>2023-08-09T13:09:30.000Z</time>
      </trkpt>
      <trkpt lat="50.06369" lon="1.3774">
        <ele>-13</ele>
        <time>2023-08-09T13:09:38.000Z</time>
      </trkpt>
      <trkpt lat="50.06344" lon="1.37663">
        <ele>-13.199999809265</ele>
        <time>2023-08-09T13:09:48.000Z</time>
      </trkpt>
      <trkpt lat="50.06338" lon="1.37647">
        <ele>-13.39999961853</ele>
        <time>2023-08-09T13:09:50.000Z</time>
      </trkpt>
      <trkpt lat="50.06317" lon="1.37573">
        <ele>-13.199999809265</ele>
        <time>2023-08-09T13:10:00.000Z</time>
      </trkpt>
      <trkpt lat="50.06304" lon="1.37539">
        <ele>-13</ele>
        <time>2023-08-09T13:10:05.000Z</time>
      </trkpt>
      <trkpt lat="50.06297" lon="1.37528">
        <ele>-13</ele>
        <time>2023-08-09T13:10:07.000Z</time>
      </trkpt>
      <trkpt lat="50.06289" lon="1.37519">
        <ele>-12.800000190735</ele>
        <time>2023-08-09T13:10:09.000Z</time>
      </trkpt>
      <trkpt lat="50.06277" lon="1.37511">
        <ele>-12.800000190735</ele>
        <time>2023-08-09T13:10:12.000Z</time>
      </trkpt>
      <trkpt lat="50.06271" lon="1.37508">
        <ele>-12.800000190735</ele>
        <time>2023-08-09T13:10:13.000Z</time>
      </trkpt>
      <trkpt lat="50.06255" lon="1.37508">
        <ele>-12.800000190735</ele>
        <time>2023-08-09T13:10:16.000Z</time>
      </trkpt>
      <trkpt lat="50.06244" lon="1.37512">
        <ele>-12.800000190735</ele>
        <time>2023-08-09T13:10:18.000Z</time>
      </trkpt>
      <trkpt lat="50.06234" lon="1.37519">
        <ele>-12.800000190735</ele>
        <time>2023-08-09T13:10:20.000Z</time>
      </trkpt>
      <trkpt lat="50.06226" lon="1.37529">
        <ele>-12.800000190735</ele>
        <time>2023-08-09T13:10:22.000Z</time>
      </trkpt>
      <trkpt lat="50.06219" lon="1.37541">
        <ele>-12.800000190735</ele>
        <time>2023-08-09T13:10:24.000Z</time>
      </trkpt>
      <trkpt lat="50.06216" lon="1.37546">
        <ele>-13</ele>
        <time>2023-08-09T13:10:25.000Z</time>
      </trkpt>
      <trkpt lat="50.06214" lon="1.37553">
        <ele>-13.199999809265</ele>
        <time>2023-08-09T13:10:26.000Z</time>
      </trkpt>
      <trkpt lat="50.06207" lon="1.37586">
        <ele>-13.199999809265</ele>
        <time>2023-08-09T13:10:29.000Z</time>
      </trkpt>
      <trkpt lat="50.06207" lon="1.37586">
        <ele>-13.39999961853</ele>
        <time>2023-08-09T13:10:30.000Z</time>
      </trkpt>
      <trkpt lat="50.06207" lon="1.37593">
        <ele>-13.39999961853</ele>
        <time>2023-08-09T13:10:31.000Z</time>
      </trkpt>
      <trkpt lat="50.0621" lon="1.37617">
        <ele>-13.39999961853</ele>
        <time>2023-08-09T13:10:34.000Z</time>
      </trkpt>
      <trkpt lat="50.06225" lon="1.37678">
        <ele>-13.39999961853</ele>
        <time>2023-08-09T13:10:42.000Z</time>
      </trkpt>
      <trkpt lat="50.06239" lon="1.37748">
        <ele>-13.39999961853</ele>
        <time>2023-08-09T13:10:51.000Z</time>
      </trkpt>
      <trkpt lat="50.06256" lon="1.37795">
        <ele>-13.39999961853</ele>
        <time>2023-08-09T13:10:57.000Z</time>
      </trkpt>
      <trkpt lat="50.06278" lon="1.37836">
        <ele>-12.39999961853</ele>
        <time>2023-08-09T13:11:05.000Z</time>
      </trkpt>
      <trkpt lat="50.06288" lon="1.37853">
        <ele>-12.199999809265</ele>
        <time>2023-08-09T13:11:07.000Z</time>
      </trkpt>
      <trkpt lat="50.06296" lon="1.37875">
        <ele>-12</ele>
        <time>2023-08-09T13:11:10.000Z</time>
      </trkpt>
      <trkpt lat="50.06304" lon="1.37905">
        <ele>-11.60000038147</ele>
        <time>2023-08-09T13:11:14.000Z</time>
      </trkpt>
      <trkpt lat="50.06311" lon="1.37948">
        <ele>-12</ele>
        <time>2023-08-09T13:11:20.000Z</time>
      </trkpt>
      <trkpt lat="50.06314" lon="1.37972">
        <ele>-12.199999809265</ele>
        <time>2023-08-09T13:11:22.000Z</time>
      </trkpt>
      <trkpt lat="50.06333" lon="1.38059">
        <ele>-12.60000038147</ele>
        <time>2023-08-09T13:11:33.000Z</time>
      </trkpt>
      <trkpt lat="50.06335" lon="1.38067">
        <ele>-12.60000038147</ele>
        <time>2023-08-09T13:11:35.000Z</time>
      </trkpt>
      <trkpt lat="50.06339" lon="1.38093">
        <ele>-13</ele>
        <time>2023-08-09T13:11:38.000Z</time>
      </trkpt>
      <trkpt lat="50.06344" lon="1.38129">
        <ele>-13.199999809265</ele>
        <time>2023-08-09T13:11:42.000Z</time>
      </trkpt>
      <trkpt lat="50.0635" lon="1.38199">
        <ele>-13.60000038147</ele>
        <time>2023-08-09T13:11:49.000Z</time>
      </trkpt>
      <trkpt lat="50.06351" lon="1.38217">
        <ele>-13.800000190735</ele>
        <time>2023-08-09T13:11:51.000Z</time>
      </trkpt>
      <trkpt lat="50.06354" lon="1.38243">
        <ele>-14</ele>
        <time>2023-08-09T13:11:54.000Z</time>
      </trkpt>
      <trkpt lat="50.06358" lon="1.38279">
        <ele>-14.39999961853</ele>
        <time>2023-08-09T13:11:58.000Z</time>
      </trkpt>
      <trkpt lat="50.06359" lon="1.38359">
        <ele>-14.39999961853</ele>
        <time>2023-08-09T13:12:07.000Z</time>
      </trkpt>
      <trkpt lat="50.06358" lon="1.38367">
        <ele>-14.39999961853</ele>
        <time>2023-08-09T13:12:08.000Z</time>
      </trkpt>
      <trkpt lat="50.06357" lon="1.38376">
        <ele>-14.60000038147</ele>
        <time>2023-08-09T13:12:09.000Z</time>
      </trkpt>
      <trkpt lat="50.06349" lon="1.3841">
        <ele>-14.60000038147</ele>
        <time>2023-08-09T13:12:13.000Z</time>
      </trkpt>
      <trkpt lat="50.06336" lon="1.38442">
        <ele>-14.800000190735</ele>
        <time>2023-08-09T13:12:17.000Z</time>
      </trkpt>
      <trkpt lat="50.06323" lon="1.38461">
        <ele>-14.800000190735</ele>
        <time>2023-08-09T13:12:20.000Z</time>
      </trkpt>
      <trkpt lat="50.06309" lon="1.38478">
        <ele>-14.800000190735</ele>
        <time>2023-08-09T13:12:23.000Z</time>
      </trkpt>
      <trkpt lat="50.06293" lon="1.38492">
        <ele>-15</ele>
        <time>2023-08-09T13:12:27.000Z</time>
      </trkpt>
      <trkpt lat="50.06282" lon="1.38497">
        <ele>-15</ele>
        <time>2023-08-09T13:12:28.000Z</time>
      </trkpt>
      <trkpt lat="50.06276" lon="1.385">
        <ele>-15</ele>
        <time>2023-08-09T13:12:29.000Z</time>
      </trkpt>
      <trkpt lat="50.0627" lon="1.38502">
        <ele>-15</ele>
        <time>2023-08-09T13:12:30.000Z</time>
      </trkpt>
      <trkpt lat="50.06265" lon="1.38503">
        <ele>-15.199999809265</ele>
        <time>2023-08-09T13:12:32.000Z</time>
      </trkpt>
      <trkpt lat="50.06204" lon="1.38506">
        <ele>-15.199999809265</ele>
        <time>2023-08-09T13:12:42.000Z</time>
      </trkpt>
      <trkpt lat="50.06204" lon="1.38506">
        <ele>-15.199999809265</ele>
        <time>2023-08-09T13:12:43.000Z</time>
      </trkpt>
      <trkpt lat="50.06192" lon="1.38505">
        <ele>-15</ele>
        <time>2023-08-09T13:12:44.000Z</time>
      </trkpt>
      <trkpt lat="50.0617" lon="1.385">
        <ele>-14.60000038147</ele>
        <time>2023-08-09T13:12:50.000Z</time>
      </trkpt>
      <trkpt lat="50.06146" lon="1.38494">
        <ele>-14</ele>
        <time>2023-08-09T13:12:55.000Z</time>
      </trkpt>
      <trkpt lat="50.06131" lon="1.3849">
        <ele>-13.800000190735</ele>
        <time>2023-08-09T13:12:58.000Z</time>
      </trkpt>
      <trkpt lat="50.0612" lon="1.38487">
        <ele>-13.800000190735</ele>
        <time>2023-08-09T13:12:59.000Z</time>
      </trkpt>
      <trkpt lat="50.06091" lon="1.38476">
        <ele>-14.199999809265</ele>
        <time>2023-08-09T13:13:04.000Z</time>
      </trkpt>
      <trkpt lat="50.06053" lon="1.38458">
        <ele>-14.60000038147</ele>
        <time>2023-08-09T13:13:13.000Z</time>
      </trkpt>
      <trkpt lat="50.0602" lon="1.38435">
        <ele>-14.60000038147</ele>
        <time>2023-08-09T13:13:20.000Z</time>
      </trkpt>
      <trkpt lat="50.05975" lon="1.38399">
        <ele>-14.60000038147</ele>
        <time>2023-08-09T13:13:29.000Z</time>
      </trkpt>
      <trkpt lat="50.05956" lon="1.3838">
        <ele>-14.39999961853</ele>
        <time>2023-08-09T13:13:34.000Z</time>
      </trkpt>
      <trkpt lat="50.05954" lon="1.38374">
        <ele>-14.39999961853</ele>
        <time>2023-08-09T13:13:35.000Z</time>
      </trkpt>
      <trkpt lat="50.05951" lon="1.38354">
        <ele>-14.39999961853</ele>
        <time>2023-08-09T13:13:38.000Z</time>
      </trkpt>
      <trkpt lat="50.0595" lon="1.38348">
        <ele>-14.39999961853</ele>
        <time>2023-08-09T13:13:40.000Z</time>
      </trkpt>
      <trkpt lat="50.05949" lon="1.38334">
        <ele>-14.39999961853</ele>
        <time>2023-08-09T13:13:41.000Z</time>
      </trkpt>
      <trkpt lat="50.05952" lon="1.3832">
        <ele>-14.39999961853</ele>
        <time>2023-08-09T13:13:43.000Z</time>
      </trkpt>
      <trkpt lat="50.05953" lon="1.38313">
        <ele>-14.39999961853</ele>
        <time>2023-08-09T13:13:44.000Z</time>
      </trkpt>
      <trkpt lat="50.05954" lon="1.38299">
        <ele>-14.39999961853</ele>
        <time>2023-08-09T13:13:46.000Z</time>
      </trkpt>
      <trkpt lat="50.05955" lon="1.38285">
        <ele>-14.39999961853</ele>
        <time>2023-08-09T13:13:48.000Z</time>
      </trkpt>
      <trkpt lat="50.05957" lon="1.38249">
        <ele>-14</ele>
        <time>2023-08-09T13:13:53.000Z</time>
      </trkpt>
      <trkpt lat="50.05959" lon="1.38235">
        <ele>-14</ele>
        <time>2023-08-09T13:13:55.000Z</time>
      </trkpt>
      <trkpt lat="50.05964" lon="1.38195">
        <ele>-13.800000190735</ele>
        <time>2023-08-09T13:14:00.000Z</time>
      </trkpt>
      <trkpt lat="50.05965" lon="1.38179">
        <ele>-13.800000190735</ele>
        <time>2023-08-09T13:14:02.000Z</time>
      </trkpt>
      <trkpt lat="50.05971" lon="1.38093">
        <ele>-14.199999809265</ele>
        <time>2023-08-09T13:14:13.000Z</time>
      </trkpt>
      <trkpt lat="50.05971" lon="1.38078">
        <ele>-14.199999809265</ele>
        <time>2023-08-09T13:14:15.000Z</time>
      </trkpt>
      <trkpt lat="50.05974" lon="1.38027">
        <ele>-14.39999961853</ele>
        <time>2023-08-09T13:14:22.000Z</time>
      </trkpt>
      <trkpt lat="50.05975" lon="1.38019">
        <ele>-14.60000038147</ele>
        <time>2023-08-09T13:14:23.000Z</time>
      </trkpt>
      <trkpt lat="50.05976" lon="1.38006">
        <ele>-14.60000038147</ele>
        <time>2023-08-09T13:14:25.000Z</time>
      </trkpt>
      <trkpt lat="50.05978" lon="1.37991">
        <ele>-14.60000038147</ele>
        <time>2023-08-09T13:14:27.000Z</time>
      </trkpt>
      <trkpt lat="50.05981" lon="1.37932">
        <ele>-14.39999961853</ele>
        <time>2023-08-09T13:14:35.000Z</time>
      </trkpt>
      <trkpt lat="50.05987" lon="1.37855">
        <ele>-14.199999809265</ele>
        <time>2023-08-09T13:14:47.000Z</time>
      </trkpt>
      <trkpt lat="50.05992" lon="1.37777">
        <ele>-14.199999809265</ele>
        <time>2023-08-09T13:14:57.000Z</time>
      </trkpt>
      <trkpt lat="50.05994" lon="1.37745">
        <ele>-14.39999961853</ele>
        <time>2023-08-09T13:15:03.000Z</time>
      </trkpt>
      <trkpt lat="50.05993" lon="1.37734">
        <ele>-14.39999961853</ele>
        <time>2023-08-09T13:15:05.000Z</time>
      </trkpt>
      <trkpt lat="50.05991" lon="1.37715">
        <ele>-14.60000038147</ele>
        <time>2023-08-09T13:15:09.000Z</time>
      </trkpt>
      <trkpt lat="50.05994" lon="1.37677">
        <ele>-15</ele>
        <time>2023-08-09T13:15:15.000Z</time>
      </trkpt>
      <trkpt lat="50.05994" lon="1.37667">
        <ele>-15</ele>
        <time>2023-08-09T13:15:16.000Z</time>
      </trkpt>
      <trkpt lat="50.05996" lon="1.37639">
        <ele>-14.800000190735</ele>
        <time>2023-08-09T13:15:21.000Z</time>
      </trkpt>
      <trkpt lat="50.06001" lon="1.37583">
        <ele>-14.800000190735</ele>
        <time>2023-08-09T13:15:28.000Z</time>
      </trkpt>
      <trkpt lat="50.06007" lon="1.37524">
        <ele>-14.800000190735</ele>
        <time>2023-08-09T13:15:36.000Z</time>
      </trkpt>
      <trkpt lat="50.06022" lon="1.3747">
        <ele>-14.199999809265</ele>
        <time>2023-08-09T13:15:44.000Z</time>
      </trkpt>
      <trkpt lat="50.06032" lon="1.37427">
        <ele>-14.39999961853</ele>
        <time>2023-08-09T13:15:51.000Z</time>
      </trkpt>
      <trkpt lat="50.06039" lon="1.37404">
        <ele>-14.60000038147</ele>
        <time>2023-08-09T13:15:57.000Z</time>
      </trkpt>
      <trkpt lat="50.06039" lon="1.374">
        <ele>-15</ele>
        <time>2023-08-09T13:15:59.000Z</time>
      </trkpt>
      <trkpt lat="50.06038" lon="1.37397">
        <ele>-15.199999809265</ele>
        <time>2023-08-09T13:16:01.000Z</time>
      </trkpt>
      <trkpt lat="50.06037" lon="1.37397">
        <ele>-15.199999809265</ele>
        <time>2023-08-09T13:16:02.000Z</time>
      </trkpt>
      <trkpt lat="50.0603" lon="1.37398">
        <ele>-15.199999809265</ele>
        <time>2023-08-09T13:16:05.000Z</time>
      </trkpt>
      <trkpt lat="50.06028" lon="1.37396">
        <ele>-15.199999809265</ele>
        <time>2023-08-09T13:16:06.000Z</time>
      </trkpt>
      <trkpt lat="50.06029" lon="1.37385">
        <ele>-15.199999809265</ele>
        <time>2023-08-09T13:16:09.000Z</time>
      </trkpt>
      <trkpt lat="50.06031" lon="1.37373">
        <ele>-14.60000038147</ele>
        <time>2023-08-09T13:16:12.000Z</time>
      </trkpt>
      <trkpt lat="50.06032" lon="1.3737">
        <ele>-14.39999961853</ele>
        <time>2023-08-09T13:16:13.000Z</time>
      </trkpt>
      <trkpt lat="50.06036" lon="1.3735">
        <ele>-13.199999809265</ele>
        <time>2023-08-09T13:16:19.000Z</time>
      </trkpt>
      <trkpt lat="50.06037" lon="1.37345">
        <ele>-12.800000190735</ele>
        <time>2023-08-09T13:16:20.000Z</time>
      </trkpt>
      <trkpt lat="50.06039" lon="1.37335">
        <ele>-12</ele>
        <time>2023-08-09T13:16:23.000Z</time>
      </trkpt>
      <trkpt lat="50.06043" lon="1.37316">
        <ele>-10.800000190735</ele>
        <time>2023-08-09T13:16:28.000Z</time>
      </trkpt>
      <trkpt lat="50.06047" lon="1.37298">
        <ele>-9.8000001907349</ele>
        <time>2023-08-09T13:16:33.000Z</time>
      </trkpt>
      <trkpt lat="50.06048" lon="1.37295">
        <ele>-9.6000003814697</ele>
        <time>2023-08-09T13:16:34.000Z</time>
      </trkpt>
      <trkpt lat="50.06049" lon="1.37279">
        <ele>-8.6000003814697</ele>
        <time>2023-08-09T13:16:38.000Z</time>
      </trkpt>
      <trkpt lat="50.06048" lon="1.37276">
        <ele>-8</ele>
        <time>2023-08-09T13:16:39.000Z</time>
      </trkpt>
      <trkpt lat="50.06046" lon="1.37273">
        <ele>-7.8000001907349</ele>
        <time>2023-08-09T13:16:40.000Z</time>
      </trkpt>
      <trkpt lat="50.06044" lon="1.3727">
        <ele>-7.4000000953674</ele>
        <time>2023-08-09T13:16:41.000Z</time>
      </trkpt>
      <trkpt lat="50.06039" lon="1.37266">
        <ele>-6.8000001907349</ele>
        <time>2023-08-09T13:16:43.000Z</time>
      </trkpt>
      <trkpt lat="50.06034" lon="1.37263">
        <ele>-6.1999998092651</ele>
        <time>2023-08-09T13:16:45.000Z</time>
      </trkpt>
      <trkpt lat="50.0602" lon="1.37257">
        <ele>-5.4000000953674</ele>
        <time>2023-08-09T13:16:50.000Z</time>
      </trkpt>
      <trkpt lat="50.06015" lon="1.37256">
        <ele>-5.1999998092651</ele>
        <time>2023-08-09T13:16:52.000Z</time>
      </trkpt>
      <trkpt lat="50.06006" lon="1.37251">
        <ele>-4.8000001907349</ele>
        <time>2023-08-09T13:16:56.000Z</time>
      </trkpt>
      <trkpt lat="50.05991" lon="1.37245">
        <ele>-4.4000000953674</ele>
        <time>2023-08-09T13:17:01.000Z</time>
      </trkpt>
      <trkpt lat="50.05983" lon="1.3724">
        <ele>-4</ele>
        <time>2023-08-09T13:17:04.000Z</time>
      </trkpt>
      <trkpt lat="50.05972" lon="1.37236">
        <ele>-3.5999999046326</ele>
        <time>2023-08-09T13:17:08.000Z</time>
      </trkpt>
      <trkpt lat="50.05961" lon="1.37228">
        <ele>-3</ele>
        <time>2023-08-09T13:17:12.000Z</time>
      </trkpt>
      <trkpt lat="50.05958" lon="1.37227">
        <ele>-2.7999999523163</ele>
        <time>2023-08-09T13:17:13.000Z</time>
      </trkpt>
      <trkpt lat="50.05954" lon="1.37226">
        <ele>-2.5999999046326</ele>
        <time>2023-08-09T13:17:14.000Z</time>
      </trkpt>
      <trkpt lat="50.05947" lon="1.37223">
        <ele>-2</ele>
        <time>2023-08-09T13:17:17.000Z</time>
      </trkpt>
      <trkpt lat="50.05945" lon="1.37223">
        <ele>-1.7999999523163</ele>
        <time>2023-08-09T13:17:18.000Z</time>
      </trkpt>
      <trkpt lat="50.05939" lon="1.3722">
        <ele>-1.7999999523163</ele>
        <time>2023-08-09T13:17:20.000Z</time>
      </trkpt>
      <trkpt lat="50.05931" lon="1.37208">
        <ele>-0.80000001192093</ele>
        <time>2023-08-09T13:17:25.000Z</time>
      </trkpt>
      <trkpt lat="50.05922" lon="1.37198">
        <ele>0.20000000298023</ele>
        <time>2023-08-09T13:17:30.000Z</time>
      </trkpt>
      <trkpt lat="50.05913" lon="1.37189">
        <ele>1.2000000476837</ele>
        <time>2023-08-09T13:17:34.000Z</time>
      </trkpt>
      <trkpt lat="50.05912" lon="1.37187">
        <ele>1.3999999761581</ele>
        <time>2023-08-09T13:17:35.000Z</time>
      </trkpt>
      <trkpt lat="50.05907" lon="1.37182">
        <ele>2.2000000476837</ele>
        <time>2023-08-09T13:17:39.000Z</time>
      </trkpt>
      <trkpt lat="50.05899" lon="1.37174">
        <ele>3.4000000953674</ele>
        <time>2023-08-09T13:17:44.000Z</time>
      </trkpt>
      <trkpt lat="50.05891" lon="1.37168">
        <ele>4.1999998092651</ele>
        <time>2023-08-09T13:17:48.000Z</time>
      </trkpt>
      <trkpt lat="50.05889" lon="1.37167">
        <ele>4.5999999046326</ele>
        <time>2023-08-09T13:17:49.000Z</time>
      </trkpt>
      <trkpt lat="50.05886" lon="1.37166">
        <ele>4.5999999046326</ele>
        <time>2023-08-09T13:17:50.000Z</time>
      </trkpt>
      <trkpt lat="50.0588" lon="1.37163">
        <ele>5.5999999046326</ele>
        <time>2023-08-09T13:17:54.000Z</time>
      </trkpt>
      <trkpt lat="50.05872" lon="1.37158">
        <ele>6.5999999046326</ele>
        <time>2023-08-09T13:17:59.000Z</time>
      </trkpt>
      <trkpt lat="50.05862" lon="1.37152">
        <ele>7.4000000953674</ele>
        <time>2023-08-09T13:18:04.000Z</time>
      </trkpt>
      <trkpt lat="50.05857" lon="1.37151">
        <ele>8</ele>
        <time>2023-08-09T13:18:06.000Z</time>
      </trkpt>
      <trkpt lat="50.05849" lon="1.37149">
        <ele>8.8000001907349</ele>
        <time>2023-08-09T13:18:10.000Z</time>
      </trkpt>
      <trkpt lat="50.05841" lon="1.37146">
        <ele>9.6000003814697</ele>
        <time>2023-08-09T13:18:14.000Z</time>
      </trkpt>
      <trkpt lat="50.05835" lon="1.37144">
        <ele>10</ele>
        <time>2023-08-09T13:18:16.000Z</time>
      </trkpt>
      <trkpt lat="50.05824" lon="1.37137">
        <ele>10.800000190735</ele>
        <time>2023-08-09T13:18:21.000Z</time>
      </trkpt>
      <trkpt lat="50.05824" lon="1.37137">
        <ele>11</ele>
        <time>2023-08-09T13:18:22.000Z</time>
      </trkpt>
      <trkpt lat="50.05815" lon="1.37131">
        <ele>11.800000190735</ele>
        <time>2023-08-09T13:18:25.000Z</time>
      </trkpt>
      <trkpt lat="50.05804" lon="1.37126">
        <ele>12.60000038147</ele>
        <time>2023-08-09T13:18:30.000Z</time>
      </trkpt>
      <trkpt lat="50.05799" lon="1.37124">
        <ele>13</ele>
        <time>2023-08-09T13:18:32.000Z</time>
      </trkpt>
      <trkpt lat="50.05789" lon="1.37116">
        <ele>14.199999809265</ele>
        <time>2023-08-09T13:18:37.000Z</time>
      </trkpt>
      <trkpt lat="50.05776" lon="1.37104">
        <ele>15.39999961853</ele>
        <time>2023-08-09T13:18:44.000Z</time>
      </trkpt>
      <trkpt lat="50.05763" lon="1.37097">
        <ele>16.60000038147</ele>
        <time>2023-08-09T13:18:50.000Z</time>
      </trkpt>
      <trkpt lat="50.05756" lon="1.37093">
        <ele>17.39999961853</ele>
        <time>2023-08-09T13:18:53.000Z</time>
      </trkpt>
      <trkpt lat="50.05754" lon="1.37092">
        <ele>17.799999237061</ele>
        <time>2023-08-09T13:18:54.000Z</time>
      </trkpt>
      <trkpt lat="50.05744" lon="1.3709">
        <ele>19</ele>
        <time>2023-08-09T13:18:59.000Z</time>
      </trkpt>
      <trkpt lat="50.05736" lon="1.37088">
        <ele>20.39999961853</ele>
        <time>2023-08-09T13:19:03.000Z</time>
      </trkpt>
      <trkpt lat="50.05731" lon="1.37087">
        <ele>20.799999237061</ele>
        <time>2023-08-09T13:19:05.000Z</time>
      </trkpt>
      <trkpt lat="50.05727" lon="1.37088">
        <ele>21.39999961853</ele>
        <time>2023-08-09T13:19:07.000Z</time>
      </trkpt>
      <trkpt lat="50.05719" lon="1.37085">
        <ele>22.39999961853</ele>
        <time>2023-08-09T13:19:11.000Z</time>
      </trkpt>
      <trkpt lat="50.05716" lon="1.37085">
        <ele>22.799999237061</ele>
        <time>2023-08-09T13:19:12.000Z</time>
      </trkpt>
      <trkpt lat="50.0571" lon="1.37085">
        <ele>23.60000038147</ele>
        <time>2023-08-09T13:19:15.000Z</time>
      </trkpt>
      <trkpt lat="50.05705" lon="1.37085">
        <ele>24.200000762939</ele>
        <time>2023-08-09T13:19:17.000Z</time>
      </trkpt>
      <trkpt lat="50.05698" lon="1.37085">
        <ele>24.60000038147</ele>
        <time>2023-08-09T13:19:20.000Z</time>
      </trkpt>
      <trkpt lat="50.05689" lon="1.37085">
        <ele>26</ele>
        <time>2023-08-09T13:19:24.000Z</time>
      </trkpt>
      <trkpt lat="50.05673" lon="1.37086">
        <ele>27</ele>
        <time>2023-08-09T13:19:30.000Z</time>
      </trkpt>
      <trkpt lat="50.05668" lon="1.37086">
        <ele>27.39999961853</ele>
        <time>2023-08-09T13:19:32.000Z</time>
      </trkpt>
      <trkpt lat="50.05663" lon="1.37087">
        <ele>28</ele>
        <time>2023-08-09T13:19:34.000Z</time>
      </trkpt>
      <trkpt lat="50.05653" lon="1.37085">
        <ele>28.799999237061</ele>
        <time>2023-08-09T13:19:38.000Z</time>
      </trkpt>
      <trkpt lat="50.05651" lon="1.37084">
        <ele>29.200000762939</ele>
        <time>2023-08-09T13:19:39.000Z</time>
      </trkpt>
      <trkpt lat="50.05633" lon="1.37086">
        <ele>30</ele>
        <time>2023-08-09T13:19:45.000Z</time>
      </trkpt>
      <trkpt lat="50.0563" lon="1.37087">
        <ele>30.200000762939</ele>
        <time>2023-08-09T13:19:46.000Z</time>
      </trkpt>
      <trkpt lat="50.0561" lon="1.37089">
        <ele>30.39999961853</ele>
        <time>2023-08-09T13:19:52.000Z</time>
      </trkpt>
      <trkpt lat="50.05599" lon="1.3709">
        <ele>30.60000038147</ele>
        <time>2023-08-09T13:19:56.000Z</time>
      </trkpt>
      <trkpt lat="50.05595" lon="1.3709">
        <ele>30.60000038147</ele>
        <time>2023-08-09T13:19:58.000Z</time>
      </trkpt>
      <trkpt lat="50.05586" lon="1.37091">
        <ele>31.39999961853</ele>
        <time>2023-08-09T13:20:02.000Z</time>
      </trkpt>
      <trkpt lat="50.05583" lon="1.37092">
        <ele>31.799999237061</ele>
        <time>2023-08-09T13:20:04.000Z</time>
      </trkpt>
      <trkpt lat="50.05576" lon="1.37093">
        <ele>32.799999237061</ele>
        <time>2023-08-09T13:20:07.000Z</time>
      </trkpt>
      <trkpt lat="50.05564" lon="1.37094">
        <ele>33.400001525879</ele>
        <time>2023-08-09T13:20:12.000Z</time>
      </trkpt>
      <trkpt lat="50.0556" lon="1.37094">
        <ele>33.799999237061</ele>
        <time>2023-08-09T13:20:14.000Z</time>
      </trkpt>
      <trkpt lat="50.05548" lon="1.37094">
        <ele>34.799999237061</ele>
        <time>2023-08-09T13:20:19.000Z</time>
      </trkpt>
      <trkpt lat="50.05539" lon="1.37096">
        <ele>35.400001525879</ele>
        <time>2023-08-09T13:20:22.000Z</time>
      </trkpt>
      <trkpt lat="50.05534" lon="1.37097">
        <ele>35.799999237061</ele>
        <time>2023-08-09T13:20:24.000Z</time>
      </trkpt>
      <trkpt lat="50.05525" lon="1.37097">
        <ele>36.799999237061</ele>
        <time>2023-08-09T13:20:28.000Z</time>
      </trkpt>
      <trkpt lat="50.05523" lon="1.37097">
        <ele>37</ele>
        <time>2023-08-09T13:20:29.000Z</time>
      </trkpt>
      <trkpt lat="50.05508" lon="1.37099">
        <ele>38</ele>
        <time>2023-08-09T13:20:35.000Z</time>
      </trkpt>
      <trkpt lat="50.05505" lon="1.371">
        <ele>38.599998474121</ele>
        <time>2023-08-09T13:20:37.000Z</time>
      </trkpt>
      <trkpt lat="50.05501" lon="1.371">
        <ele>39.200000762939</ele>
        <time>2023-08-09T13:20:39.000Z</time>
      </trkpt>
      <trkpt lat="50.0549" lon="1.37102">
        <ele>40.200000762939</ele>
        <time>2023-08-09T13:20:44.000Z</time>
      </trkpt>
      <trkpt lat="50.05479" lon="1.37102">
        <ele>41.400001525879</ele>
        <time>2023-08-09T13:20:49.000Z</time>
      </trkpt>
      <trkpt lat="50.05469" lon="1.37102">
        <ele>42</ele>
        <time>2023-08-09T13:20:53.000Z</time>
      </trkpt>
      <trkpt lat="50.05468" lon="1.37102">
        <ele>42.400001525879</ele>
        <time>2023-08-09T13:20:54.000Z</time>
      </trkpt>
      <trkpt lat="50.05458" lon="1.37098">
        <ele>43.400001525879</ele>
        <time>2023-08-09T13:20:59.000Z</time>
      </trkpt>
      <trkpt lat="50.05451" lon="1.37097">
        <ele>44.400001525879</ele>
        <time>2023-08-09T13:21:02.000Z</time>
      </trkpt>
      <trkpt lat="50.05441" lon="1.37094">
        <ele>45.799999237061</ele>
        <time>2023-08-09T13:21:07.000Z</time>
      </trkpt>
      <trkpt lat="50.05432" lon="1.37087">
        <ele>47</ele>
        <time>2023-08-09T13:21:12.000Z</time>
      </trkpt>
      <trkpt lat="50.05427" lon="1.37081">
        <ele>47.799999237061</ele>
        <time>2023-08-09T13:21:15.000Z</time>
      </trkpt>
      <trkpt lat="50.05424" lon="1.37075">
        <ele>48.400001525879</ele>
        <time>2023-08-09T13:21:17.000Z</time>
      </trkpt>
      <trkpt lat="50.05421" lon="1.37068">
        <ele>49</ele>
        <time>2023-08-09T13:21:20.000Z</time>
      </trkpt>
      <trkpt lat="50.0542" lon="1.37065">
        <ele>49.400001525879</ele>
        <time>2023-08-09T13:21:21.000Z</time>
      </trkpt>
      <trkpt lat="50.0542" lon="1.37056">
        <ele>50.599998474121</ele>
        <time>2023-08-09T13:21:24.000Z</time>
      </trkpt>
      <trkpt lat="50.05421" lon="1.37049">
        <ele>51</ele>
        <time>2023-08-09T13:21:26.000Z</time>
      </trkpt>
      <trkpt lat="50.05422" lon="1.37043">
        <ele>51.599998474121</ele>
        <time>2023-08-09T13:21:28.000Z</time>
      </trkpt>
      <trkpt lat="50.05425" lon="1.37035">
        <ele>52.599998474121</ele>
        <time>2023-08-09T13:21:31.000Z</time>
      </trkpt>
      <trkpt lat="50.05426" lon="1.37029">
        <ele>53.599998474121</ele>
        <time>2023-08-09T13:21:33.000Z</time>
      </trkpt>
      <trkpt lat="50.05427" lon="1.37026">
        <ele>53.599998474121</ele>
        <time>2023-08-09T13:21:34.000Z</time>
      </trkpt>
      <trkpt lat="50.05426" lon="1.37021">
        <ele>54.599998474121</ele>
        <time>2023-08-09T13:21:36.000Z</time>
      </trkpt>
      <trkpt lat="50.05424" lon="1.37021">
        <ele>55</ele>
        <time>2023-08-09T13:21:37.000Z</time>
      </trkpt>
      <trkpt lat="50.05419" lon="1.37022">
        <ele>56.200000762939</ele>
        <time>2023-08-09T13:21:42.000Z</time>
      </trkpt>
      <trkpt lat="50.05416" lon="1.37024">
        <ele>56.400001525879</ele>
        <time>2023-08-09T13:21:44.000Z</time>
      </trkpt>
      <trkpt lat="50.05407" lon="1.37028">
        <ele>56.599998474121</ele>
        <time>2023-08-09T13:21:47.000Z</time>
      </trkpt>
      <trkpt lat="50.05397" lon="1.37031">
        <ele>56.400001525879</ele>
        <time>2023-08-09T13:21:51.000Z</time>
      </trkpt>
      <trkpt lat="50.05395" lon="1.37018">
        <ele>56.400001525879</ele>
        <time>2023-08-09T13:21:54.000Z</time>
      </trkpt>
      <trkpt lat="50.05392" lon="1.3701">
        <ele>56.400001525879</ele>
        <time>2023-08-09T13:21:56.000Z</time>
      </trkpt>
      <trkpt lat="50.05378" lon="1.36991">
        <ele>57.200000762939</ele>
        <time>2023-08-09T13:22:03.000Z</time>
      </trkpt>
      <trkpt lat="50.05375" lon="1.36988">
        <ele>57.400001525879</ele>
        <time>2023-08-09T13:22:04.000Z</time>
      </trkpt>
      <trkpt lat="50.05362" lon="1.36971">
        <ele>58.400001525879</ele>
        <time>2023-08-09T13:22:10.000Z</time>
      </trkpt>
      <trkpt lat="50.05346" lon="1.36954">
        <ele>59.400001525879</ele>
        <time>2023-08-09T13:22:17.000Z</time>
      </trkpt>
      <trkpt lat="50.05338" lon="1.36949">
        <ele>59.799999237061</ele>
        <time>2023-08-09T13:22:20.000Z</time>
      </trkpt>
      <trkpt lat="50.05329" lon="1.36944">
        <ele>60.599998474121</ele>
        <time>2023-08-09T13:22:23.000Z</time>
      </trkpt>
      <trkpt lat="50.05319" lon="1.36938">
        <ele>61.200000762939</ele>
        <time>2023-08-09T13:22:27.000Z</time>
      </trkpt>
      <trkpt lat="50.05309" lon="1.36928">
        <ele>61.599998474121</ele>
        <time>2023-08-09T13:22:31.000Z</time>
      </trkpt>
      <trkpt lat="50.05296" lon="1.36916">
        <ele>62.400001525879</ele>
        <time>2023-08-09T13:22:36.000Z</time>
      </trkpt>
      <trkpt lat="50.05293" lon="1.36914">
        <ele>62.799999237061</ele>
        <time>2023-08-09T13:22:37.000Z</time>
      </trkpt>
      <trkpt lat="50.05283" lon="1.36899">
        <ele>63.599998474121</ele>
        <time>2023-08-09T13:22:42.000Z</time>
      </trkpt>
      <trkpt lat="50.05281" lon="1.36897">
        <ele>63.799999237061</ele>
        <time>2023-08-09T13:22:43.000Z</time>
      </trkpt>
      <trkpt lat="50.05264" lon="1.36874">
        <ele>64.800003051758</ele>
        <time>2023-08-09T13:22:51.000Z</time>
      </trkpt>
      <trkpt lat="50.0526" lon="1.36868">
        <ele>65.199996948242</ele>
        <time>2023-08-09T13:22:53.000Z</time>
      </trkpt>
      <trkpt lat="50.05248" lon="1.36855">
        <ele>65.800003051758</ele>
        <time>2023-08-09T13:22:58.000Z</time>
      </trkpt>
      <trkpt lat="50.05239" lon="1.36845">
        <ele>66.599998474121</ele>
        <time>2023-08-09T13:23:02.000Z</time>
      </trkpt>
      <trkpt lat="50.05234" lon="1.36839">
        <ele>67</ele>
        <time>2023-08-09T13:23:04.000Z</time>
      </trkpt>
      <trkpt lat="50.05223" lon="1.36823">
        <ele>68</ele>
        <time>2023-08-09T13:23:09.000Z</time>
      </trkpt>
      <trkpt lat="50.0522" lon="1.3682">
        <ele>68.199996948242</ele>
        <time>2023-08-09T13:23:10.000Z</time>
      </trkpt>
      <trkpt lat="50.05201" lon="1.36794">
        <ele>69</ele>
        <time>2023-08-09T13:23:18.000Z</time>
      </trkpt>
      <trkpt lat="50.05198" lon="1.36791">
        <ele>69</ele>
        <time>2023-08-09T13:23:19.000Z</time>
      </trkpt>
      <trkpt lat="50.05182" lon="1.36771">
        <ele>69.599998474121</ele>
        <time>2023-08-09T13:23:25.000Z</time>
      </trkpt>
      <trkpt lat="50.05172" lon="1.36763">
        <ele>70.199996948242</ele>
        <time>2023-08-09T13:23:28.000Z</time>
      </trkpt>
      <trkpt lat="50.05165" lon="1.36759">
        <ele>70.400001525879</ele>
        <time>2023-08-09T13:23:30.000Z</time>
      </trkpt>
      <trkpt lat="50.05142" lon="1.36749">
        <ele>71.199996948242</ele>
        <time>2023-08-09T13:23:36.000Z</time>
      </trkpt>
      <trkpt lat="50.05135" lon="1.36747">
        <ele>71.400001525879</ele>
        <time>2023-08-09T13:23:38.000Z</time>
      </trkpt>
      <trkpt lat="50.05125" lon="1.36743">
        <ele>72.199996948242</ele>
        <time>2023-08-09T13:23:41.000Z</time>
      </trkpt>
      <trkpt lat="50.05104" lon="1.36738">
        <ele>73</ele>
        <time>2023-08-09T13:23:47.000Z</time>
      </trkpt>
      <trkpt lat="50.0509" lon="1.36733">
        <ele>73.400001525879</ele>
        <time>2023-08-09T13:23:51.000Z</time>
      </trkpt>
      <trkpt lat="50.05078" lon="1.3673">
        <ele>73.400001525879</ele>
        <time>2023-08-09T13:23:54.000Z</time>
      </trkpt>
      <trkpt lat="50.05058" lon="1.36723">
        <ele>74.199996948242</ele>
        <time>2023-08-09T13:23:59.000Z</time>
      </trkpt>
      <trkpt lat="50.0505" lon="1.36721">
        <ele>74.599998474121</ele>
        <time>2023-08-09T13:24:01.000Z</time>
      </trkpt>
      <trkpt lat="50.05028" lon="1.36712">
        <ele>75.199996948242</ele>
        <time>2023-08-09T13:24:06.000Z</time>
      </trkpt>
      <trkpt lat="50.05008" lon="1.36706">
        <ele>75.400001525879</ele>
        <time>2023-08-09T13:24:10.000Z</time>
      </trkpt>
      <trkpt lat="50.04972" lon="1.36695">
        <ele>75</ele>
        <time>2023-08-09T13:24:17.000Z</time>
      </trkpt>
      <trkpt lat="50.04925" lon="1.3668">
        <ele>74.400001525879</ele>
        <time>2023-08-09T13:24:26.000Z</time>
      </trkpt>
      <trkpt lat="50.0489" lon="1.36668">
        <ele>74.199996948242</ele>
        <time>2023-08-09T13:24:33.000Z</time>
      </trkpt>
      <trkpt lat="50.04863" lon="1.3666">
        <ele>73.800003051758</ele>
        <time>2023-08-09T13:24:38.000Z</time>
      </trkpt>
      <trkpt lat="50.04808" lon="1.36642">
        <ele>73.400001525879</ele>
        <time>2023-08-09T13:24:48.000Z</time>
      </trkpt>
      <trkpt lat="50.04802" lon="1.3664">
        <ele>73.199996948242</ele>
        <time>2023-08-09T13:24:49.000Z</time>
      </trkpt>
      <trkpt lat="50.04757" lon="1.36624">
        <ele>72.599998474121</ele>
        <time>2023-08-09T13:24:57.000Z</time>
      </trkpt>
      <trkpt lat="50.0474" lon="1.36617">
        <ele>72.199996948242</ele>
        <time>2023-08-09T13:25:00.000Z</time>
      </trkpt>
      <trkpt lat="50.04724" lon="1.36607">
        <ele>71.800003051758</ele>
        <time>2023-08-09T13:25:03.000Z</time>
      </trkpt>
      <trkpt lat="50.04696" lon="1.36589">
        <ele>71.400001525879</ele>
        <time>2023-08-09T13:25:09.000Z</time>
      </trkpt>
      <trkpt lat="50.04694" lon="1.36588">
        <ele>71.400001525879</ele>
        <time>2023-08-09T13:25:10.000Z</time>
      </trkpt>
      <trkpt lat="50.04688" lon="1.36585">
        <ele>71.199996948242</ele>
        <time>2023-08-09T13:25:13.000Z</time>
      </trkpt>
      <trkpt lat="50.04686" lon="1.36582">
        <ele>71.199996948242</ele>
        <time>2023-08-09T13:25:14.000Z</time>
      </trkpt>
      <trkpt lat="50.04668" lon="1.36572">
        <ele>71</ele>
        <time>2023-08-09T13:25:19.000Z</time>
      </trkpt>
      <trkpt lat="50.04664" lon="1.36567">
        <ele>71</ele>
        <time>2023-08-09T13:25:20.000Z</time>
      </trkpt>
      <trkpt lat="50.04659" lon="1.36563">
        <ele>71</ele>
        <time>2023-08-09T13:25:21.000Z</time>
      </trkpt>
      <trkpt lat="50.04644" lon="1.36552">
        <ele>70.599998474121</ele>
        <time>2023-08-09T13:25:24.000Z</time>
      </trkpt>
      <trkpt lat="50.04613" lon="1.36527">
        <ele>70.400001525879</ele>
        <time>2023-08-09T13:25:30.000Z</time>
      </trkpt>
      <trkpt lat="50.04583" lon="1.365">
        <ele>70</ele>
        <time>2023-08-09T13:25:36.000Z</time>
      </trkpt>
      <trkpt lat="50.04578" lon="1.36495">
        <ele>70</ele>
        <time>2023-08-09T13:25:37.000Z</time>
      </trkpt>
      <trkpt lat="50.0453" lon="1.36448">
        <ele>69.199996948242</ele>
        <time>2023-08-09T13:25:47.000Z</time>
      </trkpt>
      <trkpt lat="50.04521" lon="1.36437">
        <ele>69</ele>
        <time>2023-08-09T13:25:49.000Z</time>
      </trkpt>
      <trkpt lat="50.04495" lon="1.36404">
        <ele>68.400001525879</ele>
        <time>2023-08-09T13:25:55.000Z</time>
      </trkpt>
      <trkpt lat="50.04484" lon="1.36387">
        <ele>68.199996948242</ele>
        <time>2023-08-09T13:25:58.000Z</time>
      </trkpt>
      <trkpt lat="50.0447" lon="1.36365">
        <ele>67.800003051758</ele>
        <time>2023-08-09T13:26:02.000Z</time>
      </trkpt>
      <trkpt lat="50.04443" lon="1.36321">
        <ele>66.800003051758</ele>
        <time>2023-08-09T13:26:10.000Z</time>
      </trkpt>
      <trkpt lat="50.04439" lon="1.36315">
        <ele>66.599998474121</ele>
        <time>2023-08-09T13:26:11.000Z</time>
      </trkpt>
      <trkpt lat="50.04416" lon="1.36275">
        <ele>66</ele>
        <time>2023-08-09T13:26:18.000Z</time>
      </trkpt>
      <trkpt lat="50.04409" lon="1.36262">
        <ele>66</ele>
        <time>2023-08-09T13:26:20.000Z</time>
      </trkpt>
      <trkpt lat="50.04395" lon="1.36235">
        <ele>65.800003051758</ele>
        <time>2023-08-09T13:26:24.000Z</time>
      </trkpt>
      <trkpt lat="50.04381" lon="1.36206">
        <ele>65.599998474121</ele>
        <time>2023-08-09T13:26:28.000Z</time>
      </trkpt>
      <trkpt lat="50.0436" lon="1.36163">
        <ele>64.599998474121</ele>
        <time>2023-08-09T13:26:34.000Z</time>
      </trkpt>
      <trkpt lat="50.04352" lon="1.36148">
        <ele>64.400001525879</ele>
        <time>2023-08-09T13:26:36.000Z</time>
      </trkpt>
      <trkpt lat="50.04328" lon="1.36096">
        <ele>64</ele>
        <time>2023-08-09T13:26:43.000Z</time>
      </trkpt>
      <trkpt lat="50.04307" lon="1.3605">
        <ele>63.799999237061</ele>
        <time>2023-08-09T13:26:49.000Z</time>
      </trkpt>
      <trkpt lat="50.04304" lon="1.36043">
        <ele>63.599998474121</ele>
        <time>2023-08-09T13:26:50.000Z</time>
      </trkpt>
      <trkpt lat="50.04296" lon="1.36026">
        <ele>62.799999237061</ele>
        <time>2023-08-09T13:26:53.000Z</time>
      </trkpt>
      <trkpt lat="50.04276" lon="1.35987">
        <ele>62.400001525879</ele>
        <time>2023-08-09T13:26:57.000Z</time>
      </trkpt>
      <trkpt lat="50.04257" lon="1.35956">
        <ele>62</ele>
        <time>2023-08-09T13:27:01.000Z</time>
      </trkpt>
      <trkpt lat="50.04227" lon="1.35911">
        <ele>61.200000762939</ele>
        <time>2023-08-09T13:27:07.000Z</time>
      </trkpt>
      <trkpt lat="50.04212" lon="1.35889">
        <ele>61</ele>
        <time>2023-08-09T13:27:10.000Z</time>
      </trkpt>
      <trkpt lat="50.04186" lon="1.35853">
        <ele>60.200000762939</ele>
        <time>2023-08-09T13:27:15.000Z</time>
      </trkpt>
      <trkpt lat="50.04164" lon="1.35823">
        <ele>59.799999237061</ele>
        <time>2023-08-09T13:27:19.000Z</time>
      </trkpt>
      <trkpt lat="50.04154" lon="1.35808">
        <ele>59.200000762939</ele>
        <time>2023-08-09T13:27:21.000Z</time>
      </trkpt>
      <trkpt lat="50.04137" lon="1.35776">
        <ele>58.599998474121</ele>
        <time>2023-08-09T13:27:25.000Z</time>
      </trkpt>
      <trkpt lat="50.04125" lon="1.3575">
        <ele>58.200000762939</ele>
        <time>2023-08-09T13:27:28.000Z</time>
      </trkpt>
      <trkpt lat="50.04118" lon="1.35731">
        <ele>57.799999237061</ele>
        <time>2023-08-09T13:27:30.000Z</time>
      </trkpt>
      <trkpt lat="50.04108" lon="1.357">
        <ele>57.400001525879</ele>
        <time>2023-08-09T13:27:34.000Z</time>
      </trkpt>
      <trkpt lat="50.04107" lon="1.35695">
        <ele>57</ele>
        <time>2023-08-09T13:27:35.000Z</time>
      </trkpt>
      <trkpt lat="50.04099" lon="1.35665">
        <ele>56.200000762939</ele>
        <time>2023-08-09T13:27:40.000Z</time>
      </trkpt>
      <trkpt lat="50.04096" lon="1.35657">
        <ele>55.799999237061</ele>
        <time>2023-08-09T13:27:41.000Z</time>
      </trkpt>
      <trkpt lat="50.04082" lon="1.35617">
        <ele>55</ele>
        <time>2023-08-09T13:27:46.000Z</time>
      </trkpt>
      <trkpt lat="50.04076" lon="1.35602">
        <ele>54.799999237061</ele>
        <time>2023-08-09T13:27:48.000Z</time>
      </trkpt>
      <trkpt lat="50.0407" lon="1.35587">
        <ele>54.599998474121</ele>
        <time>2023-08-09T13:27:50.000Z</time>
      </trkpt>
      <trkpt lat="50.04057" lon="1.35555">
        <ele>54.200000762939</ele>
        <time>2023-08-09T13:27:54.000Z</time>
      </trkpt>
      <trkpt lat="50.04046" lon="1.3553">
        <ele>53.599998474121</ele>
        <time>2023-08-09T13:27:57.000Z</time>
      </trkpt>
      <trkpt lat="50.04022" lon="1.35469">
        <ele>53</ele>
        <time>2023-08-09T13:28:04.000Z</time>
      </trkpt>
      <trkpt lat="50.04012" lon="1.35442">
        <ele>52.400001525879</ele>
        <time>2023-08-09T13:28:07.000Z</time>
      </trkpt>
      <trkpt lat="50.03989" lon="1.35378">
        <ele>51.200000762939</ele>
        <time>2023-08-09T13:28:14.000Z</time>
      </trkpt>
      <trkpt lat="50.03979" lon="1.35349">
        <ele>50.799999237061</ele>
        <time>2023-08-09T13:28:17.000Z</time>
      </trkpt>
      <trkpt lat="50.03962" lon="1.35302">
        <ele>50.200000762939</ele>
        <time>2023-08-09T13:28:23.000Z</time>
      </trkpt>
      <trkpt lat="50.03951" lon="1.35274">
        <ele>49.799999237061</ele>
        <time>2023-08-09T13:28:25.000Z</time>
      </trkpt>
      <trkpt lat="50.03942" lon="1.35255">
        <ele>49.400001525879</ele>
        <time>2023-08-09T13:28:27.000Z</time>
      </trkpt>
      <trkpt lat="50.03933" lon="1.35236">
        <ele>48.799999237061</ele>
        <time>2023-08-09T13:28:29.000Z</time>
      </trkpt>
      <trkpt lat="50.03913" lon="1.352">
        <ele>48</ele>
        <time>2023-08-09T13:28:33.000Z</time>
      </trkpt>
      <trkpt lat="50.03902" lon="1.35184">
        <ele>47.599998474121</ele>
        <time>2023-08-09T13:28:35.000Z</time>
      </trkpt>
      <trkpt lat="50.03866" lon="1.35134">
        <ele>46.400001525879</ele>
        <time>2023-08-09T13:28:41.000Z</time>
      </trkpt>
      <trkpt lat="50.03841" lon="1.35101">
        <ele>45.200000762939</ele>
        <time>2023-08-09T13:28:45.000Z</time>
      </trkpt>
      <trkpt lat="50.03812" lon="1.35052">
        <ele>44.400001525879</ele>
        <time>2023-08-09T13:28:50.000Z</time>
      </trkpt>
      <trkpt lat="50.03799" lon="1.35016">
        <ele>42.799999237061</ele>
        <time>2023-08-09T13:28:53.000Z</time>
      </trkpt>
      <trkpt lat="50.03791" lon="1.3499">
        <ele>42</ele>
        <time>2023-08-09T13:28:55.000Z</time>
      </trkpt>
      <trkpt lat="50.03788" lon="1.34977">
        <ele>41.799999237061</ele>
        <time>2023-08-09T13:28:56.000Z</time>
      </trkpt>
      <trkpt lat="50.03784" lon="1.34948">
        <ele>40.400001525879</ele>
        <time>2023-08-09T13:28:58.000Z</time>
      </trkpt>
      <trkpt lat="50.03781" lon="1.34919">
        <ele>39.799999237061</ele>
        <time>2023-08-09T13:29:00.000Z</time>
      </trkpt>
      <trkpt lat="50.03779" lon="1.3489">
        <ele>39.400001525879</ele>
        <time>2023-08-09T13:29:02.000Z</time>
      </trkpt>
      <trkpt lat="50.03778" lon="1.34846">
        <ele>38.200000762939</ele>
        <time>2023-08-09T13:29:05.000Z</time>
      </trkpt>
      <trkpt lat="50.03783" lon="1.34803">
        <ele>37.200000762939</ele>
        <time>2023-08-09T13:29:08.000Z</time>
      </trkpt>
      <trkpt lat="50.03786" lon="1.3479">
        <ele>36.599998474121</ele>
        <time>2023-08-09T13:29:09.000Z</time>
      </trkpt>
      <trkpt lat="50.03793" lon="1.34763">
        <ele>35.599998474121</ele>
        <time>2023-08-09T13:29:11.000Z</time>
      </trkpt>
      <trkpt lat="50.03807" lon="1.34713">
        <ele>34.599998474121</ele>
        <time>2023-08-09T13:29:15.000Z</time>
      </trkpt>
      <trkpt lat="50.03813" lon="1.34688">
        <ele>34</ele>
        <time>2023-08-09T13:29:17.000Z</time>
      </trkpt>
      <trkpt lat="50.03819" lon="1.34664">
        <ele>33.200000762939</ele>
        <time>2023-08-09T13:29:19.000Z</time>
      </trkpt>
      <trkpt lat="50.0383" lon="1.34617">
        <ele>31.799999237061</ele>
        <time>2023-08-09T13:29:23.000Z</time>
      </trkpt>
      <trkpt lat="50.03831" lon="1.34605">
        <ele>31.60000038147</ele>
        <time>2023-08-09T13:29:24.000Z</time>
      </trkpt>
      <trkpt lat="50.03835" lon="1.3457">
        <ele>30.799999237061</ele>
        <time>2023-08-09T13:29:27.000Z</time>
      </trkpt>
      <trkpt lat="50.03839" lon="1.34535">
        <ele>30</ele>
        <time>2023-08-09T13:29:30.000Z</time>
      </trkpt>
      <trkpt lat="50.03841" lon="1.34513">
        <ele>29.39999961853</ele>
        <time>2023-08-09T13:29:32.000Z</time>
      </trkpt>
      <trkpt lat="50.03849" lon="1.34427">
        <ele>28.39999961853</ele>
        <time>2023-08-09T13:29:40.000Z</time>
      </trkpt>
      <trkpt lat="50.03857" lon="1.34367">
        <ele>27.799999237061</ele>
        <time>2023-08-09T13:29:46.000Z</time>
      </trkpt>
      <trkpt lat="50.03858" lon="1.34357">
        <ele>27.799999237061</ele>
        <time>2023-08-09T13:29:47.000Z</time>
      </trkpt>
      <trkpt lat="50.03868" lon="1.34295">
        <ele>27.200000762939</ele>
        <time>2023-08-09T13:29:53.000Z</time>
      </trkpt>
      <trkpt lat="50.03876" lon="1.34253">
        <ele>26.200000762939</ele>
        <time>2023-08-09T13:29:57.000Z</time>
      </trkpt>
      <trkpt lat="50.03883" lon="1.34212">
        <ele>25.200000762939</ele>
        <time>2023-08-09T13:30:02.000Z</time>
      </trkpt>
      <trkpt lat="50.03888" lon="1.34186">
        <ele>24</ele>
        <time>2023-08-09T13:30:06.000Z</time>
      </trkpt>
      <trkpt lat="50.0389" lon="1.34178">
        <ele>23.60000038147</ele>
        <time>2023-08-09T13:30:07.000Z</time>
      </trkpt>
      <trkpt lat="50.039" lon="1.34138">
        <ele>22.799999237061</ele>
        <time>2023-08-09T13:30:12.000Z</time>
      </trkpt>
      <trkpt lat="50.03906" lon="1.34104">
        <ele>22.39999961853</ele>
        <time>2023-08-09T13:30:16.000Z</time>
      </trkpt>
      <trkpt lat="50.03919" lon="1.34052">
        <ele>21.60000038147</ele>
        <time>2023-08-09T13:30:22.000Z</time>
      </trkpt>
      <trkpt lat="50.03921" lon="1.34043">
        <ele>21.39999961853</ele>
        <time>2023-08-09T13:30:23.000Z</time>
      </trkpt>
      <trkpt lat="50.03941" lon="1.3397">
        <ele>20.799999237061</ele>
        <time>2023-08-09T13:30:31.000Z</time>
      </trkpt>
      <trkpt lat="50.03946" lon="1.33951">
        <ele>20.60000038147</ele>
        <time>2023-08-09T13:30:33.000Z</time>
      </trkpt>
      <trkpt lat="50.03964" lon="1.33882">
        <ele>19.60000038147</ele>
        <time>2023-08-09T13:30:41.000Z</time>
      </trkpt>
      <trkpt lat="50.03966" lon="1.33874">
        <ele>19.39999961853</ele>
        <time>2023-08-09T13:30:42.000Z</time>
      </trkpt>
      <trkpt lat="50.03985" lon="1.33816">
        <ele>19</ele>
        <time>2023-08-09T13:30:49.000Z</time>
      </trkpt>
      <trkpt lat="50.03998" lon="1.33772">
        <ele>18.39999961853</ele>
        <time>2023-08-09T13:30:54.000Z</time>
      </trkpt>
      <trkpt lat="50.04006" lon="1.3375">
        <ele>18</ele>
        <time>2023-08-09T13:30:57.000Z</time>
      </trkpt>
      <trkpt lat="50.04009" lon="1.33743">
        <ele>17.799999237061</ele>
        <time>2023-08-09T13:30:58.000Z</time>
      </trkpt>
      <trkpt lat="50.04017" lon="1.33732">
        <ele>17.39999961853</ele>
        <time>2023-08-09T13:31:01.000Z</time>
      </trkpt>
      <trkpt lat="50.04021" lon="1.33722">
        <ele>17</ele>
        <time>2023-08-09T13:31:03.000Z</time>
      </trkpt>
      <trkpt lat="50.04025" lon="1.33709">
        <ele>16.799999237061</ele>
        <time>2023-08-09T13:31:05.000Z</time>
      </trkpt>
      <trkpt lat="50.04038" lon="1.33685">
        <ele>16</ele>
        <time>2023-08-09T13:31:09.000Z</time>
      </trkpt>
      <trkpt lat="50.04045" lon="1.33673">
        <ele>15.800000190735</ele>
        <time>2023-08-09T13:31:11.000Z</time>
      </trkpt>
      <trkpt lat="50.04071" lon="1.33632">
        <ele>15.199999809265</ele>
        <time>2023-08-09T13:31:18.000Z</time>
      </trkpt>
      <trkpt lat="50.04078" lon="1.3362">
        <ele>15</ele>
        <time>2023-08-09T13:31:20.000Z</time>
      </trkpt>
      <trkpt lat="50.04082" lon="1.33613">
        <ele>14.800000190735</ele>
        <time>2023-08-09T13:31:21.000Z</time>
      </trkpt>
      <trkpt lat="50.041" lon="1.33582">
        <ele>14.60000038147</ele>
        <time>2023-08-09T13:31:26.000Z</time>
      </trkpt>
      <trkpt lat="50.04124" lon="1.33549">
        <ele>14</ele>
        <time>2023-08-09T13:31:32.000Z</time>
      </trkpt>
      <trkpt lat="50.04126" lon="1.33542">
        <ele>13.60000038147</ele>
        <time>2023-08-09T13:31:33.000Z</time>
      </trkpt>
      <trkpt lat="50.04126" lon="1.33535">
        <ele>13.60000038147</ele>
        <time>2023-08-09T13:31:34.000Z</time>
      </trkpt>
      <trkpt lat="50.04123" lon="1.33529">
        <ele>13.60000038147</ele>
        <time>2023-08-09T13:31:35.000Z</time>
      </trkpt>
      <trkpt lat="50.04115" lon="1.33512">
        <ele>13.39999961853</ele>
        <time>2023-08-09T13:31:38.000Z</time>
      </trkpt>
      <trkpt lat="50.0411" lon="1.33502">
        <ele>13.39999961853</ele>
        <time>2023-08-09T13:31:40.000Z</time>
      </trkpt>
      <trkpt lat="50.04108" lon="1.33498">
        <ele>13.39999961853</ele>
        <time>2023-08-09T13:31:41.000Z</time>
      </trkpt>
      <trkpt lat="50.04092" lon="1.33477">
        <ele>14.39999961853</ele>
        <time>2023-08-09T13:31:48.000Z</time>
      </trkpt>
      <trkpt lat="50.04092" lon="1.33477">
        <ele>14.800000190735</ele>
        <time>2023-08-09T13:31:49.000Z</time>
      </trkpt>
      <trkpt lat="50.04074" lon="1.33456">
        <ele>15.800000190735</ele>
        <time>2023-08-09T13:31:56.000Z</time>
      </trkpt>
      <trkpt lat="50.04064" lon="1.33442">
        <ele>17</ele>
        <time>2023-08-09T13:32:01.000Z</time>
      </trkpt>
      <trkpt lat="50.04059" lon="1.33435">
        <ele>17.60000038147</ele>
        <time>2023-08-09T13:32:04.000Z</time>
      </trkpt>
      <trkpt lat="50.04055" lon="1.3343">
        <ele>18.200000762939</ele>
        <time>2023-08-09T13:32:06.000Z</time>
      </trkpt>
      <trkpt lat="50.04043" lon="1.33416">
        <ele>19.200000762939</ele>
        <time>2023-08-09T13:32:12.000Z</time>
      </trkpt>
      <trkpt lat="50.04042" lon="1.33413">
        <ele>19.39999961853</ele>
        <time>2023-08-09T13:32:13.000Z</time>
      </trkpt>
      <trkpt lat="50.04036" lon="1.33407">
        <ele>20.39999961853</ele>
        <time>2023-08-09T13:32:16.000Z</time>
      </trkpt>
      <trkpt lat="50.04029" lon="1.33395">
        <ele>21.39999961853</ele>
        <time>2023-08-09T13:32:20.000Z</time>
      </trkpt>
      <trkpt lat="50.04025" lon="1.33386">
        <ele>22</ele>
        <time>2023-08-09T13:32:23.000Z</time>
      </trkpt>
      <trkpt lat="50.04022" lon="1.3338">
        <ele>22.39999961853</ele>
        <time>2023-08-09T13:32:25.000Z</time>
      </trkpt>
      <trkpt lat="50.04013" lon="1.3336">
        <ele>23.39999961853</ele>
        <time>2023-08-09T13:32:31.000Z</time>
      </trkpt>
      <trkpt lat="50.0401" lon="1.33354">
        <ele>23.799999237061</ele>
        <time>2023-08-09T13:32:33.000Z</time>
      </trkpt>
      <trkpt lat="50.04003" lon="1.33338">
        <ele>24.39999961853</ele>
        <time>2023-08-09T13:32:38.000Z</time>
      </trkpt>
      <trkpt lat="50.03999" lon="1.3333">
        <ele>25</ele>
        <time>2023-08-09T13:32:41.000Z</time>
      </trkpt>
      <trkpt lat="50.03996" lon="1.33323">
        <ele>25.60000038147</ele>
        <time>2023-08-09T13:32:43.000Z</time>
      </trkpt>
      <trkpt lat="50.03989" lon="1.33308">
        <ele>26.60000038147</ele>
        <time>2023-08-09T13:32:48.000Z</time>
      </trkpt>
      <trkpt lat="50.03987" lon="1.33306">
        <ele>26.799999237061</ele>
        <time>2023-08-09T13:32:49.000Z</time>
      </trkpt>
      <trkpt lat="50.03982" lon="1.33298">
        <ele>27.60000038147</ele>
        <time>2023-08-09T13:32:52.000Z</time>
      </trkpt>
      <trkpt lat="50.03978" lon="1.33283">
        <ele>28.60000038147</ele>
        <time>2023-08-09T13:32:56.000Z</time>
      </trkpt>
      <trkpt lat="50.03976" lon="1.3328">
        <ele>28.60000038147</ele>
        <time>2023-08-09T13:32:57.000Z</time>
      </trkpt>
      <trkpt lat="50.03966" lon="1.3326">
        <ele>30</ele>
        <time>2023-08-09T13:33:03.000Z</time>
      </trkpt>
      <trkpt lat="50.03963" lon="1.33254">
        <ele>30.60000038147</ele>
        <time>2023-08-09T13:33:05.000Z</time>
      </trkpt>
      <trkpt lat="50.03958" lon="1.33244">
        <ele>31.39999961853</ele>
        <time>2023-08-09T13:33:08.000Z</time>
      </trkpt>
      <trkpt lat="50.03953" lon="1.3323">
        <ele>32.200000762939</ele>
        <time>2023-08-09T13:33:12.000Z</time>
      </trkpt>
      <trkpt lat="50.0395" lon="1.33224">
        <ele>32.400001525879</ele>
        <time>2023-08-09T13:33:14.000Z</time>
      </trkpt>
      <trkpt lat="50.03944" lon="1.33212">
        <ele>33.599998474121</ele>
        <time>2023-08-09T13:33:18.000Z</time>
      </trkpt>
      <trkpt lat="50.03939" lon="1.33203">
        <ele>34.200000762939</ele>
        <time>2023-08-09T13:33:21.000Z</time>
      </trkpt>
      <trkpt lat="50.03934" lon="1.33194">
        <ele>34.599998474121</ele>
        <time>2023-08-09T13:33:24.000Z</time>
      </trkpt>
      <trkpt lat="50.03933" lon="1.3319">
        <ele>34.799999237061</ele>
        <time>2023-08-09T13:33:25.000Z</time>
      </trkpt>
      <trkpt lat="50.03927" lon="1.33178">
        <ele>36.200000762939</ele>
        <time>2023-08-09T13:33:29.000Z</time>
      </trkpt>
      <trkpt lat="50.03919" lon="1.33161">
        <ele>37.200000762939</ele>
        <time>2023-08-09T13:33:34.000Z</time>
      </trkpt>
      <trkpt lat="50.03908" lon="1.33139">
        <ele>38.400001525879</ele>
        <time>2023-08-09T13:33:40.000Z</time>
      </trkpt>
      <trkpt lat="50.03892" lon="1.33108">
        <ele>39.200000762939</ele>
        <time>2023-08-09T13:33:48.000Z</time>
      </trkpt>
      <trkpt lat="50.0389" lon="1.33104">
        <ele>39.200000762939</ele>
        <time>2023-08-09T13:33:49.000Z</time>
      </trkpt>
      <trkpt lat="50.03878" lon="1.3308">
        <ele>39.799999237061</ele>
        <time>2023-08-09T13:33:54.000Z</time>
      </trkpt>
      <trkpt lat="50.03859" lon="1.3304">
        <ele>40.599998474121</ele>
        <time>2023-08-09T13:34:01.000Z</time>
      </trkpt>
      <trkpt lat="50.03838" lon="1.32999">
        <ele>41.200000762939</ele>
        <time>2023-08-09T13:34:08.000Z</time>
      </trkpt>
      <trkpt lat="50.03832" lon="1.32987">
        <ele>41.400001525879</ele>
        <time>2023-08-09T13:34:10.000Z</time>
      </trkpt>
      <trkpt lat="50.03808" lon="1.32937">
        <ele>41.599998474121</ele>
        <time>2023-08-09T13:34:18.000Z</time>
      </trkpt>
      <trkpt lat="50.03805" lon="1.3293">
        <ele>41.599998474121</ele>
        <time>2023-08-09T13:34:19.000Z</time>
      </trkpt>
      <trkpt lat="50.03781" lon="1.32879">
        <ele>41.799999237061</ele>
        <time>2023-08-09T13:34:27.000Z</time>
      </trkpt>
      <trkpt lat="50.03749" lon="1.32806">
        <ele>42</ele>
        <time>2023-08-09T13:34:38.000Z</time>
      </trkpt>
      <trkpt lat="50.03715" lon="1.32732">
        <ele>42.400001525879</ele>
        <time>2023-08-09T13:34:49.000Z</time>
      </trkpt>
      <trkpt lat="50.03712" lon="1.32724">
        <ele>42.400001525879</ele>
        <time>2023-08-09T13:34:50.000Z</time>
      </trkpt>
      <trkpt lat="50.03687" lon="1.32669">
        <ele>42.200000762939</ele>
        <time>2023-08-09T13:34:58.000Z</time>
      </trkpt>
      <trkpt lat="50.03679" lon="1.32648">
        <ele>42.200000762939</ele>
        <time>2023-08-09T13:35:01.000Z</time>
      </trkpt>
      <trkpt lat="50.03666" lon="1.32621">
        <ele>42.200000762939</ele>
        <time>2023-08-09T13:35:05.000Z</time>
      </trkpt>
      <trkpt lat="50.03653" lon="1.32593">
        <ele>42</ele>
        <time>2023-08-09T13:35:10.000Z</time>
      </trkpt>
      <trkpt lat="50.03643" lon="1.32572">
        <ele>41.799999237061</ele>
        <time>2023-08-09T13:35:14.000Z</time>
      </trkpt>
      <trkpt lat="50.03636" lon="1.32554">
        <ele>41.599998474121</ele>
        <time>2023-08-09T13:35:17.000Z</time>
      </trkpt>
      <trkpt lat="50.03612" lon="1.325">
        <ele>41.400001525879</ele>
        <time>2023-08-09T13:35:26.000Z</time>
      </trkpt>
      <trkpt lat="50.03601" lon="1.32475">
        <ele>41.200000762939</ele>
        <time>2023-08-09T13:35:30.000Z</time>
      </trkpt>
      <trkpt lat="50.03593" lon="1.32455">
        <ele>41</ele>
        <time>2023-08-09T13:35:33.000Z</time>
      </trkpt>
      <trkpt lat="50.0359" lon="1.32449">
        <ele>40.799999237061</ele>
        <time>2023-08-09T13:35:34.000Z</time>
      </trkpt>
      <trkpt lat="50.03574" lon="1.32417">
        <ele>40.599998474121</ele>
        <time>2023-08-09T13:35:39.000Z</time>
      </trkpt>
      <trkpt lat="50.0357" lon="1.32409">
        <ele>40.599998474121</ele>
        <time>2023-08-09T13:35:40.000Z</time>
      </trkpt>
      <trkpt lat="50.03566" lon="1.32402">
        <ele>40.400001525879</ele>
        <time>2023-08-09T13:35:41.000Z</time>
      </trkpt>
      <trkpt lat="50.03556" lon="1.32374">
        <ele>39.599998474121</ele>
        <time>2023-08-09T13:35:44.000Z</time>
      </trkpt>
      <trkpt lat="50.03544" lon="1.32334">
        <ele>38.200000762939</ele>
        <time>2023-08-09T13:35:48.000Z</time>
      </trkpt>
      <trkpt lat="50.0354" lon="1.32323">
        <ele>37.599998474121</ele>
        <time>2023-08-09T13:35:49.000Z</time>
      </trkpt>
      <trkpt lat="50.03537" lon="1.32312">
        <ele>37</ele>
        <time>2023-08-09T13:35:50.000Z</time>
      </trkpt>
      <trkpt lat="50.03534" lon="1.32297">
        <ele>36.400001525879</ele>
        <time>2023-08-09T13:35:51.000Z</time>
      </trkpt>
      <trkpt lat="50.03533" lon="1.32272">
        <ele>35.200000762939</ele>
        <time>2023-08-09T13:35:53.000Z</time>
      </trkpt>
      <trkpt lat="50.03533" lon="1.32244">
        <ele>33.799999237061</ele>
        <time>2023-08-09T13:35:55.000Z</time>
      </trkpt>
      <trkpt lat="50.03533" lon="1.32213">
        <ele>32.599998474121</ele>
        <time>2023-08-09T13:35:57.000Z</time>
      </trkpt>
      <trkpt lat="50.03533" lon="1.32198">
        <ele>31.60000038147</ele>
        <time>2023-08-09T13:35:58.000Z</time>
      </trkpt>
      <trkpt lat="50.03533" lon="1.32183">
        <ele>31</ele>
        <time>2023-08-09T13:35:59.000Z</time>
      </trkpt>
      <trkpt lat="50.03533" lon="1.32167">
        <ele>30.200000762939</ele>
        <time>2023-08-09T13:36:00.000Z</time>
      </trkpt>
      <trkpt lat="50.03531" lon="1.32136">
        <ele>28.60000038147</ele>
        <time>2023-08-09T13:36:02.000Z</time>
      </trkpt>
      <trkpt lat="50.03531" lon="1.32121">
        <ele>27</ele>
        <time>2023-08-09T13:36:04.000Z</time>
      </trkpt>
      <trkpt lat="50.03529" lon="1.32077">
        <ele>25.200000762939</ele>
        <time>2023-08-09T13:36:06.000Z</time>
      </trkpt>
      <trkpt lat="50.03528" lon="1.32062">
        <ele>24.200000762939</ele>
        <time>2023-08-09T13:36:07.000Z</time>
      </trkpt>
      <trkpt lat="50.03526" lon="1.32031">
        <ele>22.200000762939</ele>
        <time>2023-08-09T13:36:09.000Z</time>
      </trkpt>
      <trkpt lat="50.03525" lon="1.32015">
        <ele>20.200000762939</ele>
        <time>2023-08-09T13:36:11.000Z</time>
      </trkpt>
      <trkpt lat="50.03524" lon="1.31999">
        <ele>19.60000038147</ele>
        <time>2023-08-09T13:36:12.000Z</time>
      </trkpt>
      <trkpt lat="50.03523" lon="1.31984">
        <ele>18.60000038147</ele>
        <time>2023-08-09T13:36:13.000Z</time>
      </trkpt>
      <trkpt lat="50.03521" lon="1.31937">
        <ele>17</ele>
        <time>2023-08-09T13:36:15.000Z</time>
      </trkpt>
      <trkpt lat="50.0352" lon="1.3192">
        <ele>16.39999961853</ele>
        <time>2023-08-09T13:36:16.000Z</time>
      </trkpt>
      <trkpt lat="50.03519" lon="1.31903">
        <ele>15.60000038147</ele>
        <time>2023-08-09T13:36:17.000Z</time>
      </trkpt>
      <trkpt lat="50.03518" lon="1.31886">
        <ele>14.39999961853</ele>
        <time>2023-08-09T13:36:18.000Z</time>
      </trkpt>
      <trkpt lat="50.03516" lon="1.31854">
        <ele>12.60000038147</ele>
        <time>2023-08-09T13:36:20.000Z</time>
      </trkpt>
      <trkpt lat="50.03514" lon="1.31822">
        <ele>11</ele>
        <time>2023-08-09T13:36:22.000Z</time>
      </trkpt>
      <trkpt lat="50.03512" lon="1.31807">
        <ele>10</ele>
        <time>2023-08-09T13:36:23.000Z</time>
      </trkpt>
      <trkpt lat="50.0351" lon="1.31794">
        <ele>9.3999996185303</ele>
        <time>2023-08-09T13:36:24.000Z</time>
      </trkpt>
      <trkpt lat="50.03507" lon="1.31777">
        <ele>8.3999996185303</ele>
        <time>2023-08-09T13:36:25.000Z</time>
      </trkpt>
      <trkpt lat="50.03504" lon="1.31767">
        <ele>8</ele>
        <time>2023-08-09T13:36:26.000Z</time>
      </trkpt>
      <trkpt lat="50.035" lon="1.31753">
        <ele>7.1999998092651</ele>
        <time>2023-08-09T13:36:27.000Z</time>
      </trkpt>
      <trkpt lat="50.03496" lon="1.3174">
        <ele>5.8000001907349</ele>
        <time>2023-08-09T13:36:28.000Z</time>
      </trkpt>
      <trkpt lat="50.03488" lon="1.31715">
        <ele>4.4000000953674</ele>
        <time>2023-08-09T13:36:30.000Z</time>
      </trkpt>
      <trkpt lat="50.03481" lon="1.3169">
        <ele>2.4000000953674</ele>
        <time>2023-08-09T13:36:32.000Z</time>
      </trkpt>
      <trkpt lat="50.03477" lon="1.31678">
        <ele>2</ele>
        <time>2023-08-09T13:36:33.000Z</time>
      </trkpt>
      <trkpt lat="50.03473" lon="1.31666">
        <ele>0.60000002384186</ele>
        <time>2023-08-09T13:36:34.000Z</time>
      </trkpt>
      <trkpt lat="50.03468" lon="1.31656">
        <ele>-0.80000001192093</ele>
        <time>2023-08-09T13:36:35.000Z</time>
      </trkpt>
      <trkpt lat="50.03458" lon="1.31636">
        <ele>-2.5999999046326</ele>
        <time>2023-08-09T13:36:37.000Z</time>
      </trkpt>
      <trkpt lat="50.03447" lon="1.31617">
        <ele>-4.4000000953674</ele>
        <time>2023-08-09T13:36:39.000Z</time>
      </trkpt>
      <trkpt lat="50.03436" lon="1.316">
        <ele>-6.1999998092651</ele>
        <time>2023-08-09T13:36:41.000Z</time>
      </trkpt>
      <trkpt lat="50.0343" lon="1.31592">
        <ele>-7.1999998092651</ele>
        <time>2023-08-09T13:36:42.000Z</time>
      </trkpt>
      <trkpt lat="50.0342" lon="1.31581">
        <ele>-8.6000003814697</ele>
        <time>2023-08-09T13:36:44.000Z</time>
      </trkpt>
      <trkpt lat="50.03408" lon="1.31572">
        <ele>-10</ele>
        <time>2023-08-09T13:36:46.000Z</time>
      </trkpt>
      <trkpt lat="50.03398" lon="1.31564">
        <ele>-11.39999961853</ele>
        <time>2023-08-09T13:36:48.000Z</time>
      </trkpt>
      <trkpt lat="50.03393" lon="1.31559">
        <ele>-12</ele>
        <time>2023-08-09T13:36:49.000Z</time>
      </trkpt>
      <trkpt lat="50.03383" lon="1.31547">
        <ele>-12.800000190735</ele>
        <time>2023-08-09T13:36:51.000Z</time>
      </trkpt>
      <trkpt lat="50.03381" lon="1.31539">
        <ele>-13.60000038147</ele>
        <time>2023-08-09T13:36:53.000Z</time>
      </trkpt>
      <trkpt lat="50.03384" lon="1.31524">
        <ele>-13.800000190735</ele>
        <time>2023-08-09T13:36:54.000Z</time>
      </trkpt>
      <trkpt lat="50.03387" lon="1.31518">
        <ele>-14.199999809265</ele>
        <time>2023-08-09T13:36:55.000Z</time>
      </trkpt>
      <trkpt lat="50.03402" lon="1.31483">
        <ele>-14.800000190735</ele>
        <time>2023-08-09T13:37:01.000Z</time>
      </trkpt>
      <trkpt lat="50.03402" lon="1.31476">
        <ele>-15</ele>
        <time>2023-08-09T13:37:02.000Z</time>
      </trkpt>
      <trkpt lat="50.03401" lon="1.31469">
        <ele>-15</ele>
        <time>2023-08-09T13:37:03.000Z</time>
      </trkpt>
      <trkpt lat="50.03397" lon="1.31456">
        <ele>-15.199999809265</ele>
        <time>2023-08-09T13:37:05.000Z</time>
      </trkpt>
      <trkpt lat="50.03381" lon="1.31401">
        <ele>-15.39999961853</ele>
        <time>2023-08-09T13:37:14.000Z</time>
      </trkpt>
      <trkpt lat="50.03362" lon="1.3134">
        <ele>-15.60000038147</ele>
        <time>2023-08-09T13:37:22.000Z</time>
      </trkpt>
      <trkpt lat="50.0334" lon="1.31269">
        <ele>-15.60000038147</ele>
        <time>2023-08-09T13:37:32.000Z</time>
      </trkpt>
      <trkpt lat="50.03323" lon="1.31215">
        <ele>-15.39999961853</ele>
        <time>2023-08-09T13:37:40.000Z</time>
      </trkpt>
      <trkpt lat="50.03321" lon="1.31209">
        <ele>-15.39999961853</ele>
        <time>2023-08-09T13:37:41.000Z</time>
      </trkpt>
      <trkpt lat="50.03312" lon="1.31178">
        <ele>-14.800000190735</ele>
        <time>2023-08-09T13:37:46.000Z</time>
      </trkpt>
      <trkpt lat="50.03299" lon="1.31135">
        <ele>-14.199999809265</ele>
        <time>2023-08-09T13:37:54.000Z</time>
      </trkpt>
      <trkpt lat="50.03289" lon="1.31104">
        <ele>-13.800000190735</ele>
        <time>2023-08-09T13:37:58.000Z</time>
      </trkpt>
      <trkpt lat="50.0328" lon="1.31076">
        <ele>-13.800000190735</ele>
        <time>2023-08-09T13:38:02.000Z</time>
      </trkpt>
      <trkpt lat="50.03261" lon="1.31016">
        <ele>-14</ele>
        <time>2023-08-09T13:38:10.000Z</time>
      </trkpt>
      <trkpt lat="50.03257" lon="1.31002">
        <ele>-14</ele>
        <time>2023-08-09T13:38:12.000Z</time>
      </trkpt>
      <trkpt lat="50.03238" lon="1.30942">
        <ele>-14.199999809265</ele>
        <time>2023-08-09T13:38:21.000Z</time>
      </trkpt>
      <trkpt lat="50.03223" lon="1.30893">
        <ele>-13.60000038147</ele>
        <time>2023-08-09T13:38:29.000Z</time>
      </trkpt>
      <trkpt lat="50.03216" lon="1.30876">
        <ele>-13.39999961853</ele>
        <time>2023-08-09T13:38:32.000Z</time>
      </trkpt>
      <trkpt lat="50.03208" lon="1.30862">
        <ele>-13</ele>
        <time>2023-08-09T13:38:35.000Z</time>
      </trkpt>
      <trkpt lat="50.03196" lon="1.30847">
        <ele>-12.60000038147</ele>
        <time>2023-08-09T13:38:39.000Z</time>
      </trkpt>
      <trkpt lat="50.03187" lon="1.3084">
        <ele>-12</ele>
        <time>2023-08-09T13:38:42.000Z</time>
      </trkpt>
      <trkpt lat="50.03172" lon="1.3083">
        <ele>-11.60000038147</ele>
        <time>2023-08-09T13:38:47.000Z</time>
      </trkpt>
      <trkpt lat="50.03169" lon="1.30829">
        <ele>-11.39999961853</ele>
        <time>2023-08-09T13:38:48.000Z</time>
      </trkpt>
      <trkpt lat="50.03151" lon="1.30823">
        <ele>-10.199999809265</ele>
        <time>2023-08-09T13:38:53.000Z</time>
      </trkpt>
      <trkpt lat="50.0314" lon="1.30821">
        <ele>-9.3999996185303</ele>
        <time>2023-08-09T13:38:56.000Z</time>
      </trkpt>
      <trkpt lat="50.03132" lon="1.3082">
        <ele>-9</ele>
        <time>2023-08-09T13:38:58.000Z</time>
      </trkpt>
      <trkpt lat="50.0311" lon="1.30822">
        <ele>-8.3999996185303</ele>
        <time>2023-08-09T13:39:04.000Z</time>
      </trkpt>
      <trkpt lat="50.03092" lon="1.30823">
        <ele>-8</ele>
        <time>2023-08-09T13:39:09.000Z</time>
      </trkpt>
      <trkpt lat="50.03059" lon="1.30826">
        <ele>-8</ele>
        <time>2023-08-09T13:39:17.000Z</time>
      </trkpt>
      <trkpt lat="50.03043" lon="1.30827">
        <ele>-8</ele>
        <time>2023-08-09T13:39:21.000Z</time>
      </trkpt>
      <trkpt lat="50.03031" lon="1.30829">
        <ele>-8</ele>
        <time>2023-08-09T13:39:24.000Z</time>
      </trkpt>
      <trkpt lat="50.03" lon="1.30832">
        <ele>-7.8000001907349</ele>
        <time>2023-08-09T13:39:31.000Z</time>
      </trkpt>
      <trkpt lat="50.02992" lon="1.30831">
        <ele>-7.8000001907349</ele>
        <time>2023-08-09T13:39:33.000Z</time>
      </trkpt>
      <trkpt lat="50.02954" lon="1.30833">
        <ele>-7.4000000953674</ele>
        <time>2023-08-09T13:39:41.000Z</time>
      </trkpt>
      <trkpt lat="50.02902" lon="1.30837">
        <ele>-7.4000000953674</ele>
        <time>2023-08-09T13:39:52.000Z</time>
      </trkpt>
      <trkpt lat="50.02867" lon="1.30841">
        <ele>-7</ele>
        <time>2023-08-09T13:39:59.000Z</time>
      </trkpt>
      <trkpt lat="50.02843" lon="1.30843">
        <ele>-6.8000001907349</ele>
        <time>2023-08-09T13:40:04.000Z</time>
      </trkpt>
      <trkpt lat="50.02788" lon="1.30848">
        <ele>-6.4000000953674</ele>
        <time>2023-08-09T13:40:15.000Z</time>
      </trkpt>
      <trkpt lat="50.02741" lon="1.30852">
        <ele>-6.1999998092651</ele>
        <time>2023-08-09T13:40:24.000Z</time>
      </trkpt>
      <trkpt lat="50.02734" lon="1.30853">
        <ele>-6.1999998092651</ele>
        <time>2023-08-09T13:40:25.000Z</time>
      </trkpt>
      <trkpt lat="50.02687" lon="1.30856">
        <ele>-5.8000001907349</ele>
        <time>2023-08-09T13:40:34.000Z</time>
      </trkpt>
      <trkpt lat="50.02647" lon="1.30859">
        <ele>-5.5999999046326</ele>
        <time>2023-08-09T13:40:42.000Z</time>
      </trkpt>
      <trkpt lat="50.026" lon="1.30863">
        <ele>-5.1999998092651</ele>
        <time>2023-08-09T13:40:51.000Z</time>
      </trkpt>
      <trkpt lat="50.0259" lon="1.30864">
        <ele>-5</ele>
        <time>2023-08-09T13:40:53.000Z</time>
      </trkpt>
      <trkpt lat="50.02551" lon="1.30869">
        <ele>-4.4000000953674</ele>
        <time>2023-08-09T13:41:00.000Z</time>
      </trkpt>
      <trkpt lat="50.02509" lon="1.3087">
        <ele>-4.4000000953674</ele>
        <time>2023-08-09T13:41:08.000Z</time>
      </trkpt>
      <trkpt lat="50.02477" lon="1.30872">
        <ele>-3.7999999523163</ele>
        <time>2023-08-09T13:41:14.000Z</time>
      </trkpt>
      <trkpt lat="50.02462" lon="1.30874">
        <ele>-3.7999999523163</ele>
        <time>2023-08-09T13:41:17.000Z</time>
      </trkpt>
      <trkpt lat="50.02405" lon="1.30878">
        <ele>-3</ele>
        <time>2023-08-09T13:41:28.000Z</time>
      </trkpt>
      <trkpt lat="50.02364" lon="1.30884">
        <ele>-2.7999999523163</ele>
        <time>2023-08-09T13:41:36.000Z</time>
      </trkpt>
      <trkpt lat="50.02353" lon="1.30885">
        <ele>-2.5999999046326</ele>
        <time>2023-08-09T13:41:38.000Z</time>
      </trkpt>
      <trkpt lat="50.02313" lon="1.30888">
        <ele>-2.5999999046326</ele>
        <time>2023-08-09T13:41:46.000Z</time>
      </trkpt>
      <trkpt lat="50.02297" lon="1.30891">
        <ele>-2.2000000476837</ele>
        <time>2023-08-09T13:41:49.000Z</time>
      </trkpt>
      <trkpt lat="50.02283" lon="1.30897">
        <ele>-1.6000000238419</ele>
        <time>2023-08-09T13:41:52.000Z</time>
      </trkpt>
      <trkpt lat="50.02278" lon="1.30899">
        <ele>-1.6000000238419</ele>
        <time>2023-08-09T13:41:53.000Z</time>
      </trkpt>
      <trkpt lat="50.02269" lon="1.30904">
        <ele>-1.3999999761581</ele>
        <time>2023-08-09T13:41:55.000Z</time>
      </trkpt>
      <trkpt lat="50.02246" lon="1.30921">
        <ele>-1</ele>
        <time>2023-08-09T13:42:00.000Z</time>
      </trkpt>
      <trkpt lat="50.02219" lon="1.30952">
        <ele>-1</ele>
        <time>2023-08-09T13:42:06.000Z</time>
      </trkpt>
      <trkpt lat="50.02214" lon="1.30957">
        <ele>-1</ele>
        <time>2023-08-09T13:42:07.000Z</time>
      </trkpt>
      <trkpt lat="50.02196" lon="1.30981">
        <ele>-1.3999999761581</ele>
        <time>2023-08-09T13:42:11.000Z</time>
      </trkpt>
      <trkpt lat="50.02181" lon="1.30999">
        <ele>-2</ele>
        <time>2023-08-09T13:42:14.000Z</time>
      </trkpt>
      <trkpt lat="50.02177" lon="1.31006">
        <ele>-2</ele>
        <time>2023-08-09T13:42:15.000Z</time>
      </trkpt>
      <trkpt lat="50.02145" lon="1.31047">
        <ele>-2.7999999523163</ele>
        <time>2023-08-09T13:42:21.000Z</time>
      </trkpt>
      <trkpt lat="50.02133" lon="1.3106">
        <ele>-3.2000000476837</ele>
        <time>2023-08-09T13:42:23.000Z</time>
      </trkpt>
      <trkpt lat="50.02116" lon="1.31077">
        <ele>-4</ele>
        <time>2023-08-09T13:42:26.000Z</time>
      </trkpt>
      <trkpt lat="50.02075" lon="1.31106">
        <ele>-4.5999999046326</ele>
        <time>2023-08-09T13:42:33.000Z</time>
      </trkpt>
      <trkpt lat="50.02055" lon="1.3112">
        <ele>-4.5999999046326</ele>
        <time>2023-08-09T13:42:37.000Z</time>
      </trkpt>
      <trkpt lat="50.02047" lon="1.31126">
        <ele>-4.5999999046326</ele>
        <time>2023-08-09T13:42:39.000Z</time>
      </trkpt>
      <trkpt lat="50.02031" lon="1.31138">
        <ele>-3.7999999523163</ele>
        <time>2023-08-09T13:42:43.000Z</time>
      </trkpt>
      <trkpt lat="50.02007" lon="1.31155">
        <ele>-2.7999999523163</ele>
        <time>2023-08-09T13:42:48.000Z</time>
      </trkpt>
      <trkpt lat="50.01998" lon="1.31161">
        <ele>-2.4000000953674</ele>
        <time>2023-08-09T13:42:50.000Z</time>
      </trkpt>
      <trkpt lat="50.01969" lon="1.31177">
        <ele>-1.7999999523163</ele>
        <time>2023-08-09T13:42:56.000Z</time>
      </trkpt>
      <trkpt lat="50.01964" lon="1.3118">
        <ele>-1.7999999523163</ele>
        <time>2023-08-09T13:42:57.000Z</time>
      </trkpt>
      <trkpt lat="50.01956" lon="1.31186">
        <ele>-1.6000000238419</ele>
        <time>2023-08-09T13:42:59.000Z</time>
      </trkpt>
      <trkpt lat="50.01922" lon="1.31203">
        <ele>-1.6000000238419</ele>
        <time>2023-08-09T13:43:05.000Z</time>
      </trkpt>
      <trkpt lat="50.01884" lon="1.31221">
        <ele>-2.4000000953674</ele>
        <time>2023-08-09T13:43:11.000Z</time>
      </trkpt>
      <trkpt lat="50.01863" lon="1.31233">
        <ele>-3</ele>
        <time>2023-08-09T13:43:14.000Z</time>
      </trkpt>
      <trkpt lat="50.01848" lon="1.31242">
        <ele>-3.5999999046326</ele>
        <time>2023-08-09T13:43:16.000Z</time>
      </trkpt>
      <trkpt lat="50.01841" lon="1.31247">
        <ele>-4.4000000953674</ele>
        <time>2023-08-09T13:43:17.000Z</time>
      </trkpt>
      <trkpt lat="50.01825" lon="1.31258">
        <ele>-5.5999999046326</ele>
        <time>2023-08-09T13:43:19.000Z</time>
      </trkpt>
      <trkpt lat="50.01803" lon="1.31276">
        <ele>-6.8000001907349</ele>
        <time>2023-08-09T13:43:22.000Z</time>
      </trkpt>
      <trkpt lat="50.01786" lon="1.3129">
        <ele>-8</ele>
        <time>2023-08-09T13:43:24.000Z</time>
      </trkpt>
      <trkpt lat="50.0177" lon="1.31305">
        <ele>-8.8000001907349</ele>
        <time>2023-08-09T13:43:26.000Z</time>
      </trkpt>
      <trkpt lat="50.01763" lon="1.31315">
        <ele>-9</ele>
        <time>2023-08-09T13:43:27.000Z</time>
      </trkpt>
      <trkpt lat="50.01756" lon="1.31326">
        <ele>-9.6000003814697</ele>
        <time>2023-08-09T13:43:28.000Z</time>
      </trkpt>
      <trkpt lat="50.01735" lon="1.31364">
        <ele>-10.60000038147</ele>
        <time>2023-08-09T13:43:32.000Z</time>
      </trkpt>
      <trkpt lat="50.01729" lon="1.31373">
        <ele>-11</ele>
        <time>2023-08-09T13:43:33.000Z</time>
      </trkpt>
      <trkpt lat="50.01718" lon="1.31389">
        <ele>-12</ele>
        <time>2023-08-09T13:43:35.000Z</time>
      </trkpt>
      <trkpt lat="50.01712" lon="1.31397">
        <ele>-12.39999961853</ele>
        <time>2023-08-09T13:43:36.000Z</time>
      </trkpt>
      <trkpt lat="50.01697" lon="1.31417">
        <ele>-13</ele>
        <time>2023-08-09T13:43:39.000Z</time>
      </trkpt>
      <trkpt lat="50.01687" lon="1.31429">
        <ele>-13.39999961853</ele>
        <time>2023-08-09T13:43:41.000Z</time>
      </trkpt>
      <trkpt lat="50.01683" lon="1.31436">
        <ele>-13.60000038147</ele>
        <time>2023-08-09T13:43:42.000Z</time>
      </trkpt>
      <trkpt lat="50.01663" lon="1.31465">
        <ele>-14</ele>
        <time>2023-08-09T13:43:47.000Z</time>
      </trkpt>
      <trkpt lat="50.01656" lon="1.31476">
        <ele>-14.199999809265</ele>
        <time>2023-08-09T13:43:49.000Z</time>
      </trkpt>
      <trkpt lat="50.01633" lon="1.31507">
        <ele>-14.199999809265</ele>
        <time>2023-08-09T13:43:55.000Z</time>
      </trkpt>
      <trkpt lat="50.0162" lon="1.31519">
        <ele>-14.199999809265</ele>
        <time>2023-08-09T13:43:58.000Z</time>
      </trkpt>
      <trkpt lat="50.01607" lon="1.31528">
        <ele>-14.199999809265</ele>
        <time>2023-08-09T13:44:01.000Z</time>
      </trkpt>
      <trkpt lat="50.01603" lon="1.31532">
        <ele>-14.199999809265</ele>
        <time>2023-08-09T13:44:02.000Z</time>
      </trkpt>
      <trkpt lat="50.01587" lon="1.31547">
        <ele>-14</ele>
        <time>2023-08-09T13:44:06.000Z</time>
      </trkpt>
      <trkpt lat="50.01579" lon="1.31554">
        <ele>-14</ele>
        <time>2023-08-09T13:44:08.000Z</time>
      </trkpt>
      <trkpt lat="50.01571" lon="1.31561">
        <ele>-13.800000190735</ele>
        <time>2023-08-09T13:44:11.000Z</time>
      </trkpt>
      <trkpt lat="50.0157" lon="1.31561">
        <ele>-13.800000190735</ele>
        <time>2023-08-09T13:44:12.000Z</time>
      </trkpt>
      <trkpt lat="50.01569" lon="1.31561">
        <ele>-13.60000038147</ele>
        <time>2023-08-09T13:44:14.000Z</time>
      </trkpt>
      <trkpt lat="50.01567" lon="1.31561">
        <ele>-13.60000038147</ele>
        <time>2023-08-09T13:44:16.000Z</time>
      </trkpt>
      <trkpt lat="50.01564" lon="1.31568">
        <ele>-13.60000038147</ele>
        <time>2023-08-09T13:44:18.000Z</time>
      </trkpt>
      <trkpt lat="50.01561" lon="1.31579">
        <ele>-13.39999961853</ele>
        <time>2023-08-09T13:44:21.000Z</time>
      </trkpt>
      <trkpt lat="50.01558" lon="1.31583">
        <ele>-13.39999961853</ele>
        <time>2023-08-09T13:44:22.000Z</time>
      </trkpt>
      <trkpt lat="50.01543" lon="1.31598">
        <ele>-13.60000038147</ele>
        <time>2023-08-09T13:44:26.000Z</time>
      </trkpt>
      <trkpt lat="50.01537" lon="1.31601">
        <ele>-13.60000038147</ele>
        <time>2023-08-09T13:44:27.000Z</time>
      </trkpt>
      <trkpt lat="50.01533" lon="1.31601">
        <ele>-13.60000038147</ele>
        <time>2023-08-09T13:44:28.000Z</time>
      </trkpt>
      <trkpt lat="50.01523" lon="1.31597">
        <ele>-13.60000038147</ele>
        <time>2023-08-09T13:44:30.000Z</time>
      </trkpt>
      <trkpt lat="50.01516" lon="1.31588">
        <ele>-13.60000038147</ele>
        <time>2023-08-09T13:44:32.000Z</time>
      </trkpt>
      <trkpt lat="50.01514" lon="1.31582">
        <ele>-13.60000038147</ele>
        <time>2023-08-09T13:44:33.000Z</time>
      </trkpt>
      <trkpt lat="50.0151" lon="1.31575">
        <ele>-13.800000190735</ele>
        <time>2023-08-09T13:44:34.000Z</time>
      </trkpt>
      <trkpt lat="50.01501" lon="1.3156">
        <ele>-13.800000190735</ele>
        <time>2023-08-09T13:44:37.000Z</time>
      </trkpt>
      <trkpt lat="50.01497" lon="1.31557">
        <ele>-13.800000190735</ele>
        <time>2023-08-09T13:44:38.000Z</time>
      </trkpt>
      <trkpt lat="50.01493" lon="1.31555">
        <ele>-13.800000190735</ele>
        <time>2023-08-09T13:44:39.000Z</time>
      </trkpt>
      <trkpt lat="50.01484" lon="1.31553">
        <ele>-13.60000038147</ele>
        <time>2023-08-09T13:44:41.000Z</time>
      </trkpt>
      <trkpt lat="50.0148" lon="1.31554">
        <ele>-13.60000038147</ele>
        <time>2023-08-09T13:44:42.000Z</time>
      </trkpt>
      <trkpt lat="50.01443" lon="1.31569">
        <ele>-13.39999961853</ele>
        <time>2023-08-09T13:44:50.000Z</time>
      </trkpt>
      <trkpt lat="50.01425" lon="1.31578">
        <ele>-13.39999961853</ele>
        <time>2023-08-09T13:44:54.000Z</time>
      </trkpt>
      <trkpt lat="50.01415" lon="1.31581">
        <ele>-13.199999809265</ele>
        <time>2023-08-09T13:44:56.000Z</time>
      </trkpt>
      <trkpt lat="50.0141" lon="1.31584">
        <ele>-13.199999809265</ele>
        <time>2023-08-09T13:44:57.000Z</time>
      </trkpt>
      <trkpt lat="50.01373" lon="1.31601">
        <ele>-13</ele>
        <time>2023-08-09T13:45:05.000Z</time>
      </trkpt>
      <trkpt lat="50.01329" lon="1.31624">
        <ele>-13</ele>
        <time>2023-08-09T13:45:14.000Z</time>
      </trkpt>
      <trkpt lat="50.01325" lon="1.31626">
        <ele>-13</ele>
        <time>2023-08-09T13:45:15.000Z</time>
      </trkpt>
      <trkpt lat="50.01319" lon="1.3163">
        <ele>-13</ele>
        <time>2023-08-09T13:45:16.000Z</time>
      </trkpt>
      <trkpt lat="50.01299" lon="1.31639">
        <ele>-12.60000038147</ele>
        <time>2023-08-09T13:45:20.000Z</time>
      </trkpt>
      <trkpt lat="50.01257" lon="1.31656">
        <ele>-12.39999961853</ele>
        <time>2023-08-09T13:45:29.000Z</time>
      </trkpt>
      <trkpt lat="50.01219" lon="1.31667">
        <ele>-12</ele>
        <time>2023-08-09T13:45:37.000Z</time>
      </trkpt>
      <trkpt lat="50.01169" lon="1.31679">
        <ele>-11.800000190735</ele>
        <time>2023-08-09T13:45:47.000Z</time>
      </trkpt>
      <trkpt lat="50.01135" lon="1.31698">
        <ele>-11.800000190735</ele>
        <time>2023-08-09T13:45:54.000Z</time>
      </trkpt>
      <trkpt lat="50.0109" lon="1.31744">
        <ele>-11.60000038147</ele>
        <time>2023-08-09T13:46:04.000Z</time>
      </trkpt>
      <trkpt lat="50.01073" lon="1.31762">
        <ele>-11.800000190735</ele>
        <time>2023-08-09T13:46:08.000Z</time>
      </trkpt>
      <trkpt lat="50.01064" lon="1.31768">
        <ele>-11.800000190735</ele>
        <time>2023-08-09T13:46:10.000Z</time>
      </trkpt>
      <trkpt lat="50.01059" lon="1.3177">
        <ele>-11.800000190735</ele>
        <time>2023-08-09T13:46:11.000Z</time>
      </trkpt>
      <trkpt lat="50.01048" lon="1.31772">
        <ele>-11.60000038147</ele>
        <time>2023-08-09T13:46:14.000Z</time>
      </trkpt>
      <trkpt lat="50.01036" lon="1.3177">
        <ele>-11.39999961853</ele>
        <time>2023-08-09T13:46:17.000Z</time>
      </trkpt>
      <trkpt lat="50.01028" lon="1.31766">
        <ele>-11.199999809265</ele>
        <time>2023-08-09T13:46:21.000Z</time>
      </trkpt>
      <trkpt lat="50.01027" lon="1.31765">
        <ele>-11</ele>
        <time>2023-08-09T13:46:22.000Z</time>
      </trkpt>
      <trkpt lat="50.01027" lon="1.31764">
        <ele>-10.800000190735</ele>
        <time>2023-08-09T13:46:25.000Z</time>
      </trkpt>
      <trkpt lat="50.01023" lon="1.3176">
        <ele>-10.199999809265</ele>
        <time>2023-08-09T13:46:34.000Z</time>
      </trkpt>
      <trkpt lat="50.01009" lon="1.31756">
        <ele>-10.39999961853</ele>
        <time>2023-08-09T13:46:39.000Z</time>
      </trkpt>
      <trkpt lat="50.01" lon="1.31757">
        <ele>-10.60000038147</ele>
        <time>2023-08-09T13:46:41.000Z</time>
      </trkpt>
      <trkpt lat="50.0099" lon="1.31762">
        <ele>-10.60000038147</ele>
        <time>2023-08-09T13:46:43.000Z</time>
      </trkpt>
      <trkpt lat="50.00984" lon="1.31767">
        <ele>-10.60000038147</ele>
        <time>2023-08-09T13:46:44.000Z</time>
      </trkpt>
      <trkpt lat="50.00977" lon="1.31776">
        <ele>-10.60000038147</ele>
        <time>2023-08-09T13:46:46.000Z</time>
      </trkpt>
      <trkpt lat="50.00961" lon="1.31798">
        <ele>-10.800000190735</ele>
        <time>2023-08-09T13:46:50.000Z</time>
      </trkpt>
      <trkpt lat="50.00948" lon="1.31815">
        <ele>-10.800000190735</ele>
        <time>2023-08-09T13:46:53.000Z</time>
      </trkpt>
      <trkpt lat="50.00934" lon="1.31829">
        <ele>-10.800000190735</ele>
        <time>2023-08-09T13:46:56.000Z</time>
      </trkpt>
      <trkpt lat="50.00894" lon="1.31862">
        <ele>-11</ele>
        <time>2023-08-09T13:47:04.000Z</time>
      </trkpt>
      <trkpt lat="50.00861" lon="1.31896">
        <ele>-11.199999809265</ele>
        <time>2023-08-09T13:47:11.000Z</time>
      </trkpt>
      <trkpt lat="50.00812" lon="1.31947">
        <ele>-11</ele>
        <time>2023-08-09T13:47:22.000Z</time>
      </trkpt>
      <trkpt lat="50.0077" lon="1.31983">
        <ele>-10.60000038147</ele>
        <time>2023-08-09T13:47:31.000Z</time>
      </trkpt>
      <trkpt lat="50.00745" lon="1.32017">
        <ele>-10.60000038147</ele>
        <time>2023-08-09T13:47:37.000Z</time>
      </trkpt>
      <trkpt lat="50.00738" lon="1.32028">
        <ele>-10.800000190735</ele>
        <time>2023-08-09T13:47:39.000Z</time>
      </trkpt>
      <trkpt lat="50.00719" lon="1.32047">
        <ele>-10.60000038147</ele>
        <time>2023-08-09T13:47:43.000Z</time>
      </trkpt>
      <trkpt lat="50.00679" lon="1.32088">
        <ele>-10.39999961853</ele>
        <time>2023-08-09T13:47:52.000Z</time>
      </trkpt>
      <trkpt lat="50.00656" lon="1.32121">
        <ele>-10.199999809265</ele>
        <time>2023-08-09T13:47:58.000Z</time>
      </trkpt>
      <trkpt lat="50.00644" lon="1.32145">
        <ele>-10.199999809265</ele>
        <time>2023-08-09T13:48:02.000Z</time>
      </trkpt>
      <trkpt lat="50.00636" lon="1.32156">
        <ele>-10.199999809265</ele>
        <time>2023-08-09T13:48:04.000Z</time>
      </trkpt>
      <trkpt lat="50.00629" lon="1.32165">
        <ele>-10</ele>
        <time>2023-08-09T13:48:06.000Z</time>
      </trkpt>
      <trkpt lat="50.0062" lon="1.32172">
        <ele>-10</ele>
        <time>2023-08-09T13:48:08.000Z</time>
      </trkpt>
      <trkpt lat="50.00616" lon="1.32175">
        <ele>-10</ele>
        <time>2023-08-09T13:48:09.000Z</time>
      </trkpt>
      <trkpt lat="50.00574" lon="1.32201">
        <ele>-9.6000003814697</ele>
        <time>2023-08-09T13:48:17.000Z</time>
      </trkpt>
      <trkpt lat="50.00536" lon="1.32235">
        <ele>-9.6000003814697</ele>
        <time>2023-08-09T13:48:25.000Z</time>
      </trkpt>
      <trkpt lat="50.00495" lon="1.32275">
        <ele>-9.6000003814697</ele>
        <time>2023-08-09T13:48:34.000Z</time>
      </trkpt>
      <trkpt lat="50.00451" lon="1.32311">
        <ele>-9.1999998092651</ele>
        <time>2023-08-09T13:48:43.000Z</time>
      </trkpt>
      <trkpt lat="50.00407" lon="1.32346">
        <ele>-9</ele>
        <time>2023-08-09T13:48:52.000Z</time>
      </trkpt>
      <trkpt lat="50.00402" lon="1.3235">
        <ele>-8.8000001907349</ele>
        <time>2023-08-09T13:48:53.000Z</time>
      </trkpt>
      <trkpt lat="50.00373" lon="1.32377">
        <ele>-8.8000001907349</ele>
        <time>2023-08-09T13:48:59.000Z</time>
      </trkpt>
      <trkpt lat="50.00369" lon="1.32383">
        <ele>-8.8000001907349</ele>
        <time>2023-08-09T13:49:00.000Z</time>
      </trkpt>
      <trkpt lat="50.00333" lon="1.32432">
        <ele>-8.3999996185303</ele>
        <time>2023-08-09T13:49:09.000Z</time>
      </trkpt>
      <trkpt lat="50.00306" lon="1.32473">
        <ele>-8</ele>
        <time>2023-08-09T13:49:16.000Z</time>
      </trkpt>
      <trkpt lat="50.00283" lon="1.325">
        <ele>-8</ele>
        <time>2023-08-09T13:49:21.000Z</time>
      </trkpt>
      <trkpt lat="50.00273" lon="1.32504">
        <ele>-8</ele>
        <time>2023-08-09T13:49:23.000Z</time>
      </trkpt>
      <trkpt lat="50.00262" lon="1.32503">
        <ele>-8</ele>
        <time>2023-08-09T13:49:25.000Z</time>
      </trkpt>
      <trkpt lat="50.00252" lon="1.32499">
        <ele>-8</ele>
        <time>2023-08-09T13:49:27.000Z</time>
      </trkpt>
      <trkpt lat="50.00237" lon="1.32491">
        <ele>-7.8000001907349</ele>
        <time>2023-08-09T13:49:30.000Z</time>
      </trkpt>
      <trkpt lat="50.00212" lon="1.32478">
        <ele>-7.4000000953674</ele>
        <time>2023-08-09T13:49:35.000Z</time>
      </trkpt>
      <trkpt lat="50.00189" lon="1.32454">
        <ele>-7.1999998092651</ele>
        <time>2023-08-09T13:49:41.000Z</time>
      </trkpt>
      <trkpt lat="50.00186" lon="1.3245">
        <ele>-7.1999998092651</ele>
        <time>2023-08-09T13:49:42.000Z</time>
      </trkpt>
      <trkpt lat="50.00181" lon="1.32441">
        <ele>-6.8000001907349</ele>
        <time>2023-08-09T13:49:44.000Z</time>
      </trkpt>
      <trkpt lat="50.00171" lon="1.32422">
        <ele>-6.4000000953674</ele>
        <time>2023-08-09T13:49:48.000Z</time>
      </trkpt>
      <trkpt lat="50.00158" lon="1.32391">
        <ele>-5.8000001907349</ele>
        <time>2023-08-09T13:49:54.000Z</time>
      </trkpt>
      <trkpt lat="50.00147" lon="1.32367">
        <ele>-5.1999998092651</ele>
        <time>2023-08-09T13:49:59.000Z</time>
      </trkpt>
      <trkpt lat="50.00138" lon="1.32348">
        <ele>-4.4000000953674</ele>
        <time>2023-08-09T13:50:03.000Z</time>
      </trkpt>
      <trkpt lat="50.00124" lon="1.32327">
        <ele>-3.7999999523163</ele>
        <time>2023-08-09T13:50:08.000Z</time>
      </trkpt>
      <trkpt lat="50.00109" lon="1.32312">
        <ele>-3.4000000953674</ele>
        <time>2023-08-09T13:50:12.000Z</time>
      </trkpt>
      <trkpt lat="50.00105" lon="1.32309">
        <ele>-3.4000000953674</ele>
        <time>2023-08-09T13:50:13.000Z</time>
      </trkpt>
      <trkpt lat="50.00102" lon="1.32305">
        <ele>-3.2000000476837</ele>
        <time>2023-08-09T13:50:14.000Z</time>
      </trkpt>
      <trkpt lat="50.00087" lon="1.3229">
        <ele>-2.2000000476837</ele>
        <time>2023-08-09T13:50:19.000Z</time>
      </trkpt>
      <trkpt lat="50.00084" lon="1.32285">
        <ele>-1.6000000238419</ele>
        <time>2023-08-09T13:50:21.000Z</time>
      </trkpt>
      <trkpt lat="50.00082" lon="1.32283">
        <ele>-1.3999999761581</ele>
        <time>2023-08-09T13:50:22.000Z</time>
      </trkpt>
      <trkpt lat="50.00081" lon="1.32283">
        <ele>-1.2000000476837</ele>
        <time>2023-08-09T13:50:23.000Z</time>
      </trkpt>
      <trkpt lat="50.00078" lon="1.32283">
        <ele>-1</ele>
        <time>2023-08-09T13:50:24.000Z</time>
      </trkpt>
      <trkpt lat="50.00073" lon="1.32282">
        <ele>-0.60000002384186</ele>
        <time>2023-08-09T13:50:26.000Z</time>
      </trkpt>
      <trkpt lat="50.00059" lon="1.32274">
        <ele>-0.20000000298023</ele>
        <time>2023-08-09T13:50:31.000Z</time>
      </trkpt>
      <trkpt lat="50.00048" lon="1.32267">
        <ele>0.20000000298023</ele>
        <time>2023-08-09T13:50:35.000Z</time>
      </trkpt>
      <trkpt lat="50.00039" lon="1.32261">
        <ele>0.60000002384186</ele>
        <time>2023-08-09T13:50:38.000Z</time>
      </trkpt>
      <trkpt lat="50.00033" lon="1.32258">
        <ele>1</ele>
        <time>2023-08-09T13:50:40.000Z</time>
      </trkpt>
      <trkpt lat="50.00029" lon="1.32255">
        <ele>1.3999999761581</ele>
        <time>2023-08-09T13:50:42.000Z</time>
      </trkpt>
      <trkpt lat="50.0002" lon="1.32255">
        <ele>2.2000000476837</ele>
        <time>2023-08-09T13:50:46.000Z</time>
      </trkpt>
      <trkpt lat="50.00015" lon="1.32257">
        <ele>2.7999999523163</ele>
        <time>2023-08-09T13:50:48.000Z</time>
      </trkpt>
      <trkpt lat="50.00011" lon="1.32258">
        <ele>3.2000000476837</ele>
        <time>2023-08-09T13:50:50.000Z</time>
      </trkpt>
      <trkpt lat="50.00002" lon="1.32263">
        <ele>4.4000000953674</ele>
        <time>2023-08-09T13:50:54.000Z</time>
      </trkpt>
      <trkpt lat="50" lon="1.32264">
        <ele>4.8000001907349</ele>
        <time>2023-08-09T13:50:55.000Z</time>
      </trkpt>
      <trkpt lat="49.99994" lon="1.32268">
        <ele>5.5999999046326</ele>
        <time>2023-08-09T13:50:58.000Z</time>
      </trkpt>
      <trkpt lat="49.99989" lon="1.32269">
        <ele>6.1999998092651</ele>
        <time>2023-08-09T13:51:01.000Z</time>
      </trkpt>
      <trkpt lat="49.99986" lon="1.3227">
        <ele>6.1999998092651</ele>
        <time>2023-08-09T13:51:02.000Z</time>
      </trkpt>
      <trkpt lat="49.99982" lon="1.3227">
        <ele>6.8000001907349</ele>
        <time>2023-08-09T13:51:04.000Z</time>
      </trkpt>
      <trkpt lat="49.9997" lon="1.32265">
        <ele>7.8000001907349</ele>
        <time>2023-08-09T13:51:11.000Z</time>
      </trkpt>
      <trkpt lat="49.99965" lon="1.3226">
        <ele>8.8000001907349</ele>
        <time>2023-08-09T13:51:14.000Z</time>
      </trkpt>
      <trkpt lat="49.99959" lon="1.32253">
        <ele>10</ele>
        <time>2023-08-09T13:51:18.000Z</time>
      </trkpt>
      <trkpt lat="49.99954" lon="1.32247">
        <ele>11.199999809265</ele>
        <time>2023-08-09T13:51:21.000Z</time>
      </trkpt>
      <trkpt lat="49.99949" lon="1.3224">
        <ele>12.60000038147</ele>
        <time>2023-08-09T13:51:25.000Z</time>
      </trkpt>
      <trkpt lat="49.99947" lon="1.32239">
        <ele>13</ele>
        <time>2023-08-09T13:51:26.000Z</time>
      </trkpt>
      <trkpt lat="49.99944" lon="1.32237">
        <ele>13.39999961853</ele>
        <time>2023-08-09T13:51:28.000Z</time>
      </trkpt>
      <trkpt lat="49.99938" lon="1.32232">
        <ele>14.800000190735</ele>
        <time>2023-08-09T13:51:32.000Z</time>
      </trkpt>
      <trkpt lat="49.99937" lon="1.32231">
        <ele>15.199999809265</ele>
        <time>2023-08-09T13:51:33.000Z</time>
      </trkpt>
      <trkpt lat="49.99934" lon="1.32229">
        <ele>15.800000190735</ele>
        <time>2023-08-09T13:51:35.000Z</time>
      </trkpt>
      <trkpt lat="49.99929" lon="1.32224">
        <ele>16.39999961853</ele>
        <time>2023-08-09T13:51:39.000Z</time>
      </trkpt>
      <trkpt lat="49.99928" lon="1.32223">
        <ele>17</ele>
        <time>2023-08-09T13:51:40.000Z</time>
      </trkpt>
      <trkpt lat="49.99921" lon="1.3222">
        <ele>17.799999237061</ele>
        <time>2023-08-09T13:51:45.000Z</time>
      </trkpt>
      <trkpt lat="49.99918" lon="1.32217">
        <ele>18.200000762939</ele>
        <time>2023-08-09T13:51:47.000Z</time>
      </trkpt>
      <trkpt lat="49.9991" lon="1.32215">
        <ele>19.200000762939</ele>
        <time>2023-08-09T13:51:51.000Z</time>
      </trkpt>
      <trkpt lat="49.99903" lon="1.32213">
        <ele>19.799999237061</ele>
        <time>2023-08-09T13:51:54.000Z</time>
      </trkpt>
      <trkpt lat="49.99896" lon="1.32211">
        <ele>20.200000762939</ele>
        <time>2023-08-09T13:51:57.000Z</time>
      </trkpt>
      <trkpt lat="49.99893" lon="1.32209">
        <ele>20.799999237061</ele>
        <time>2023-08-09T13:51:59.000Z</time>
      </trkpt>
      <trkpt lat="49.99889" lon="1.32208">
        <ele>21.200000762939</ele>
        <time>2023-08-09T13:52:01.000Z</time>
      </trkpt>
      <trkpt lat="49.99887" lon="1.32208">
        <ele>21.39999961853</ele>
        <time>2023-08-09T13:52:02.000Z</time>
      </trkpt>
      <trkpt lat="49.99875" lon="1.32205">
        <ele>22.39999961853</ele>
        <time>2023-08-09T13:52:08.000Z</time>
      </trkpt>
      <trkpt lat="49.99874" lon="1.32204">
        <ele>22.60000038147</ele>
        <time>2023-08-09T13:52:09.000Z</time>
      </trkpt>
      <trkpt lat="49.99856" lon="1.32201">
        <ele>23.60000038147</ele>
        <time>2023-08-09T13:52:16.000Z</time>
      </trkpt>
      <trkpt lat="49.99853" lon="1.32197">
        <ele>24</ele>
        <time>2023-08-09T13:52:19.000Z</time>
      </trkpt>
      <trkpt lat="49.99845" lon="1.32195">
        <ele>24.60000038147</ele>
        <time>2023-08-09T13:52:22.000Z</time>
      </trkpt>
      <trkpt lat="49.99835" lon="1.32191">
        <ele>25.39999961853</ele>
        <time>2023-08-09T13:52:27.000Z</time>
      </trkpt>
      <trkpt lat="49.99831" lon="1.3219">
        <ele>25.799999237061</ele>
        <time>2023-08-09T13:52:30.000Z</time>
      </trkpt>
      <trkpt lat="49.99817" lon="1.32185">
        <ele>26.60000038147</ele>
        <time>2023-08-09T13:52:36.000Z</time>
      </trkpt>
      <trkpt lat="49.99812" lon="1.32183">
        <ele>27</ele>
        <time>2023-08-09T13:52:38.000Z</time>
      </trkpt>
      <trkpt lat="49.998" lon="1.32178">
        <ele>28</ele>
        <time>2023-08-09T13:52:43.000Z</time>
      </trkpt>
      <trkpt lat="49.99794" lon="1.32175">
        <ele>28.200000762939</ele>
        <time>2023-08-09T13:52:46.000Z</time>
      </trkpt>
      <trkpt lat="49.99783" lon="1.32169">
        <ele>29</ele>
        <time>2023-08-09T13:52:52.000Z</time>
      </trkpt>
      <trkpt lat="49.99779" lon="1.32167">
        <ele>29.39999961853</ele>
        <time>2023-08-09T13:52:54.000Z</time>
      </trkpt>
      <trkpt lat="49.9977" lon="1.32161">
        <ele>30</ele>
        <time>2023-08-09T13:52:59.000Z</time>
      </trkpt>
      <trkpt lat="49.99764" lon="1.32157">
        <ele>30.799999237061</ele>
        <time>2023-08-09T13:53:02.000Z</time>
      </trkpt>
      <trkpt lat="49.99759" lon="1.32155">
        <ele>31.200000762939</ele>
        <time>2023-08-09T13:53:04.000Z</time>
      </trkpt>
      <trkpt lat="49.9975" lon="1.32147">
        <ele>32.200000762939</ele>
        <time>2023-08-09T13:53:09.000Z</time>
      </trkpt>
      <trkpt lat="49.99746" lon="1.32145">
        <ele>32.599998474121</ele>
        <time>2023-08-09T13:53:11.000Z</time>
      </trkpt>
      <trkpt lat="49.99736" lon="1.3214">
        <ele>33.200000762939</ele>
        <time>2023-08-09T13:53:15.000Z</time>
      </trkpt>
      <trkpt lat="49.99734" lon="1.32138">
        <ele>33.400001525879</ele>
        <time>2023-08-09T13:53:16.000Z</time>
      </trkpt>
      <trkpt lat="49.99732" lon="1.32136">
        <ele>33.400001525879</ele>
        <time>2023-08-09T13:53:17.000Z</time>
      </trkpt>
      <trkpt lat="49.99714" lon="1.32127">
        <ele>34.400001525879</ele>
        <time>2023-08-09T13:53:25.000Z</time>
      </trkpt>
      <trkpt lat="49.99712" lon="1.32126">
        <ele>34.400001525879</ele>
        <time>2023-08-09T13:53:26.000Z</time>
      </trkpt>
      <trkpt lat="49.99699" lon="1.32121">
        <ele>35.400001525879</ele>
        <time>2023-08-09T13:53:32.000Z</time>
      </trkpt>
      <trkpt lat="49.99692" lon="1.3212">
        <ele>36</ele>
        <time>2023-08-09T13:53:35.000Z</time>
      </trkpt>
      <trkpt lat="49.99687" lon="1.32117">
        <ele>36.400001525879</ele>
        <time>2023-08-09T13:53:38.000Z</time>
      </trkpt>
      <trkpt lat="49.99673" lon="1.32113">
        <ele>37.400001525879</ele>
        <time>2023-08-09T13:53:44.000Z</time>
      </trkpt>
      <trkpt lat="49.99657" lon="1.32108">
        <ele>38.599998474121</ele>
        <time>2023-08-09T13:53:50.000Z</time>
      </trkpt>
      <trkpt lat="49.9965" lon="1.32107">
        <ele>39.200000762939</ele>
        <time>2023-08-09T13:53:53.000Z</time>
      </trkpt>
      <trkpt lat="49.99639" lon="1.32104">
        <ele>39.599998474121</ele>
        <time>2023-08-09T13:53:57.000Z</time>
      </trkpt>
      <trkpt lat="49.99622" lon="1.32103">
        <ele>40.599998474121</ele>
        <time>2023-08-09T13:54:03.000Z</time>
      </trkpt>
      <trkpt lat="49.99598" lon="1.32103">
        <ele>41.799999237061</ele>
        <time>2023-08-09T13:54:12.000Z</time>
      </trkpt>
      <trkpt lat="49.99595" lon="1.32104">
        <ele>41.799999237061</ele>
        <time>2023-08-09T13:54:13.000Z</time>
      </trkpt>
      <trkpt lat="49.99574" lon="1.32106">
        <ele>42.799999237061</ele>
        <time>2023-08-09T13:54:21.000Z</time>
      </trkpt>
      <trkpt lat="49.99568" lon="1.32106">
        <ele>43</ele>
        <time>2023-08-09T13:54:23.000Z</time>
      </trkpt>
      <trkpt lat="49.99554" lon="1.32106">
        <ele>43.799999237061</ele>
        <time>2023-08-09T13:54:28.000Z</time>
      </trkpt>
      <trkpt lat="49.99552" lon="1.32105">
        <ele>43.799999237061</ele>
        <time>2023-08-09T13:54:29.000Z</time>
      </trkpt>
      <trkpt lat="49.99525" lon="1.32095">
        <ele>44.400001525879</ele>
        <time>2023-08-09T13:54:37.000Z</time>
      </trkpt>
      <trkpt lat="49.99519" lon="1.32091">
        <ele>44.599998474121</ele>
        <time>2023-08-09T13:54:39.000Z</time>
      </trkpt>
      <trkpt lat="49.99508" lon="1.32084">
        <ele>44.799999237061</ele>
        <time>2023-08-09T13:54:42.000Z</time>
      </trkpt>
      <trkpt lat="49.99498" lon="1.32077">
        <ele>45</ele>
        <time>2023-08-09T13:54:45.000Z</time>
      </trkpt>
      <trkpt lat="49.99486" lon="1.32069">
        <ele>46</ele>
        <time>2023-08-09T13:54:49.000Z</time>
      </trkpt>
      <trkpt lat="49.9947" lon="1.32057">
        <ele>46.799999237061</ele>
        <time>2023-08-09T13:54:54.000Z</time>
      </trkpt>
      <trkpt lat="49.99456" lon="1.32045">
        <ele>47</ele>
        <time>2023-08-09T13:54:58.000Z</time>
      </trkpt>
      <trkpt lat="49.99446" lon="1.32039">
        <ele>47.799999237061</ele>
        <time>2023-08-09T13:55:01.000Z</time>
      </trkpt>
      <trkpt lat="49.99439" lon="1.32034">
        <ele>48.200000762939</ele>
        <time>2023-08-09T13:55:03.000Z</time>
      </trkpt>
      <trkpt lat="49.99425" lon="1.32028">
        <ele>48.599998474121</ele>
        <time>2023-08-09T13:55:07.000Z</time>
      </trkpt>
      <trkpt lat="49.99415" lon="1.32026">
        <ele>49.599998474121</ele>
        <time>2023-08-09T13:55:10.000Z</time>
      </trkpt>
      <trkpt lat="49.99397" lon="1.32027">
        <ele>50.799999237061</ele>
        <time>2023-08-09T13:55:15.000Z</time>
      </trkpt>
      <trkpt lat="49.99393" lon="1.32027">
        <ele>50.799999237061</ele>
        <time>2023-08-09T13:55:16.000Z</time>
      </trkpt>
      <trkpt lat="49.99373" lon="1.32033">
        <ele>52</ele>
        <time>2023-08-09T13:55:22.000Z</time>
      </trkpt>
      <trkpt lat="49.9937" lon="1.32035">
        <ele>52.200000762939</ele>
        <time>2023-08-09T13:55:23.000Z</time>
      </trkpt>
      <trkpt lat="49.99356" lon="1.32043">
        <ele>53.200000762939</ele>
        <time>2023-08-09T13:55:28.000Z</time>
      </trkpt>
      <trkpt lat="49.99345" lon="1.3205">
        <ele>53.799999237061</ele>
        <time>2023-08-09T13:55:32.000Z</time>
      </trkpt>
      <trkpt lat="49.99339" lon="1.32054">
        <ele>54.200000762939</ele>
        <time>2023-08-09T13:55:34.000Z</time>
      </trkpt>
      <trkpt lat="49.99325" lon="1.32062">
        <ele>55.200000762939</ele>
        <time>2023-08-09T13:55:39.000Z</time>
      </trkpt>
      <trkpt lat="49.99308" lon="1.3207">
        <ele>56.400001525879</ele>
        <time>2023-08-09T13:55:45.000Z</time>
      </trkpt>
      <trkpt lat="49.99302" lon="1.32072">
        <ele>56.599998474121</ele>
        <time>2023-08-09T13:55:47.000Z</time>
      </trkpt>
      <trkpt lat="49.9929" lon="1.32077">
        <ele>57.400001525879</ele>
        <time>2023-08-09T13:55:51.000Z</time>
      </trkpt>
      <trkpt lat="49.99275" lon="1.3208">
        <ele>58.200000762939</ele>
        <time>2023-08-09T13:55:56.000Z</time>
      </trkpt>
      <trkpt lat="49.99272" lon="1.3208">
        <ele>58.400001525879</ele>
        <time>2023-08-09T13:55:57.000Z</time>
      </trkpt>
      <trkpt lat="49.9925" lon="1.32083">
        <ele>59.599998474121</ele>
        <time>2023-08-09T13:56:04.000Z</time>
      </trkpt>
      <trkpt lat="49.99244" lon="1.32083">
        <ele>59.799999237061</ele>
        <time>2023-08-09T13:56:06.000Z</time>
      </trkpt>
      <trkpt lat="49.99226" lon="1.32082">
        <ele>60.599998474121</ele>
        <time>2023-08-09T13:56:12.000Z</time>
      </trkpt>
      <trkpt lat="49.99223" lon="1.32082">
        <ele>61</ele>
        <time>2023-08-09T13:56:13.000Z</time>
      </trkpt>
      <trkpt lat="49.99211" lon="1.32084">
        <ele>61.799999237061</ele>
        <time>2023-08-09T13:56:17.000Z</time>
      </trkpt>
      <trkpt lat="49.99206" lon="1.32083">
        <ele>62.599998474121</ele>
        <time>2023-08-09T13:56:21.000Z</time>
      </trkpt>
      <trkpt lat="49.99206" lon="1.32083">
        <ele>62.599998474121</ele>
        <time>2023-08-09T13:56:22.000Z</time>
      </trkpt>
      <trkpt lat="49.992" lon="1.32083">
        <ele>65.400001525879</ele>
        <time>2023-08-09T14:02:09.000Z</time>
      </trkpt>
      <trkpt lat="49.99193" lon="1.32086">
        <ele>65.400001525879</ele>
        <time>2023-08-09T14:02:12.000Z</time>
      </trkpt>
      <trkpt lat="49.99178" lon="1.32088">
        <ele>65.400001525879</ele>
        <time>2023-08-09T14:02:18.000Z</time>
      </trkpt>
      <trkpt lat="49.9916" lon="1.32093">
        <ele>65.800003051758</ele>
        <time>2023-08-09T14:02:24.000Z</time>
      </trkpt>
      <trkpt lat="49.99139" lon="1.32107">
        <ele>66.599998474121</ele>
        <time>2023-08-09T14:02:32.000Z</time>
      </trkpt>
      <trkpt lat="49.99115" lon="1.32122">
        <ele>67.400001525879</ele>
        <time>2023-08-09T14:02:40.000Z</time>
      </trkpt>
      <trkpt lat="49.99109" lon="1.32124">
        <ele>67.599998474121</ele>
        <time>2023-08-09T14:02:42.000Z</time>
      </trkpt>
      <trkpt lat="49.99092" lon="1.3213">
        <ele>68.400001525879</ele>
        <time>2023-08-09T14:02:48.000Z</time>
      </trkpt>
      <trkpt lat="49.9908" lon="1.32132">
        <ele>68.800003051758</ele>
        <time>2023-08-09T14:02:52.000Z</time>
      </trkpt>
      <trkpt lat="49.9907" lon="1.32133">
        <ele>69</ele>
        <time>2023-08-09T14:02:55.000Z</time>
      </trkpt>
      <trkpt lat="49.99052" lon="1.32134">
        <ele>69.199996948242</ele>
        <time>2023-08-09T14:03:01.000Z</time>
      </trkpt>
      <trkpt lat="49.99018" lon="1.32137">
        <ele>69.800003051758</ele>
        <time>2023-08-09T14:03:11.000Z</time>
      </trkpt>
      <trkpt lat="49.99014" lon="1.32137">
        <ele>69.800003051758</ele>
        <time>2023-08-09T14:03:12.000Z</time>
      </trkpt>
      <trkpt lat="49.98987" lon="1.32139">
        <ele>70.800003051758</ele>
        <time>2023-08-09T14:03:19.000Z</time>
      </trkpt>
      <trkpt lat="49.98984" lon="1.3214">
        <ele>71</ele>
        <time>2023-08-09T14:03:20.000Z</time>
      </trkpt>
      <trkpt lat="49.98949" lon="1.32141">
        <ele>72</ele>
        <time>2023-08-09T14:03:28.000Z</time>
      </trkpt>
      <trkpt lat="49.98913" lon="1.32142">
        <ele>72.400001525879</ele>
        <time>2023-08-09T14:03:36.000Z</time>
      </trkpt>
      <trkpt lat="49.98874" lon="1.32141">
        <ele>72</ele>
        <time>2023-08-09T14:03:44.000Z</time>
      </trkpt>
      <trkpt lat="49.98832" lon="1.3214">
        <ele>71.800003051758</ele>
        <time>2023-08-09T14:03:52.000Z</time>
      </trkpt>
      <trkpt lat="49.98826" lon="1.32139">
        <ele>71.800003051758</ele>
        <time>2023-08-09T14:03:53.000Z</time>
      </trkpt>
      <trkpt lat="49.98797" lon="1.32134">
        <ele>70.800003051758</ele>
        <time>2023-08-09T14:03:58.000Z</time>
      </trkpt>
      <trkpt lat="49.98783" lon="1.32133">
        <ele>70.599998474121</ele>
        <time>2023-08-09T14:04:00.000Z</time>
      </trkpt>
      <trkpt lat="49.9875" lon="1.32114">
        <ele>70.400001525879</ele>
        <time>2023-08-09T14:04:06.000Z</time>
      </trkpt>
      <trkpt lat="49.98715" lon="1.32095">
        <ele>70</ele>
        <time>2023-08-09T14:04:12.000Z</time>
      </trkpt>
      <trkpt lat="49.98704" lon="1.3209">
        <ele>69.800003051758</ele>
        <time>2023-08-09T14:04:14.000Z</time>
      </trkpt>
      <trkpt lat="49.98675" lon="1.32071">
        <ele>69</ele>
        <time>2023-08-09T14:04:19.000Z</time>
      </trkpt>
      <trkpt lat="49.98662" lon="1.32065">
        <ele>68.599998474121</ele>
        <time>2023-08-09T14:04:21.000Z</time>
      </trkpt>
      <trkpt lat="49.98636" lon="1.3205">
        <ele>67.599998474121</ele>
        <time>2023-08-09T14:04:26.000Z</time>
      </trkpt>
      <trkpt lat="49.98631" lon="1.32047">
        <ele>67.599998474121</ele>
        <time>2023-08-09T14:04:27.000Z</time>
      </trkpt>
      <trkpt lat="49.98594" lon="1.32026">
        <ele>67.400001525879</ele>
        <time>2023-08-09T14:04:34.000Z</time>
      </trkpt>
      <trkpt lat="49.98585" lon="1.32021">
        <ele>67.400001525879</ele>
        <time>2023-08-09T14:04:36.000Z</time>
      </trkpt>
      <trkpt lat="49.98568" lon="1.32015">
        <ele>67.400001525879</ele>
        <time>2023-08-09T14:04:39.000Z</time>
      </trkpt>
      <trkpt lat="49.98564" lon="1.32012">
        <ele>67.199996948242</ele>
        <time>2023-08-09T14:04:40.000Z</time>
      </trkpt>
      <trkpt lat="49.98525" lon="1.3199">
        <ele>67.400001525879</ele>
        <time>2023-08-09T14:04:48.000Z</time>
      </trkpt>
      <trkpt lat="49.98483" lon="1.31966">
        <ele>67.599998474121</ele>
        <time>2023-08-09T14:04:57.000Z</time>
      </trkpt>
      <trkpt lat="49.98473" lon="1.31962">
        <ele>67.599998474121</ele>
        <time>2023-08-09T14:04:59.000Z</time>
      </trkpt>
      <trkpt lat="49.9846" lon="1.31952">
        <ele>67.800003051758</ele>
        <time>2023-08-09T14:05:02.000Z</time>
      </trkpt>
      <trkpt lat="49.98446" lon="1.31943">
        <ele>68</ele>
        <time>2023-08-09T14:05:05.000Z</time>
      </trkpt>
      <trkpt lat="49.98433" lon="1.31934">
        <ele>68.199996948242</ele>
        <time>2023-08-09T14:05:08.000Z</time>
      </trkpt>
      <trkpt lat="49.98406" lon="1.3192">
        <ele>68.599998474121</ele>
        <time>2023-08-09T14:05:14.000Z</time>
      </trkpt>
      <trkpt lat="49.98394" lon="1.31914">
        <ele>69</ele>
        <time>2023-08-09T14:05:17.000Z</time>
      </trkpt>
      <trkpt lat="49.98389" lon="1.31912">
        <ele>69</ele>
        <time>2023-08-09T14:05:18.000Z</time>
      </trkpt>
      <trkpt lat="49.98376" lon="1.31906">
        <ele>69.599998474121</ele>
        <time>2023-08-09T14:05:21.000Z</time>
      </trkpt>
      <trkpt lat="49.98366" lon="1.31901">
        <ele>69.800003051758</ele>
        <time>2023-08-09T14:05:23.000Z</time>
      </trkpt>
      <trkpt lat="49.98339" lon="1.31885">
        <ele>70.199996948242</ele>
        <time>2023-08-09T14:05:29.000Z</time>
      </trkpt>
      <trkpt lat="49.98332" lon="1.31879">
        <ele>70.400001525879</ele>
        <time>2023-08-09T14:05:31.000Z</time>
      </trkpt>
      <trkpt lat="49.98316" lon="1.31862">
        <ele>70.599998474121</ele>
        <time>2023-08-09T14:05:35.000Z</time>
      </trkpt>
      <trkpt lat="49.98312" lon="1.31857">
        <ele>70.800003051758</ele>
        <time>2023-08-09T14:05:36.000Z</time>
      </trkpt>
      <trkpt lat="49.98307" lon="1.31851">
        <ele>70.800003051758</ele>
        <time>2023-08-09T14:05:37.000Z</time>
      </trkpt>
      <trkpt lat="49.98294" lon="1.31831">
        <ele>71</ele>
        <time>2023-08-09T14:05:41.000Z</time>
      </trkpt>
      <trkpt lat="49.9829" lon="1.31825">
        <ele>71</ele>
        <time>2023-08-09T14:05:42.000Z</time>
      </trkpt>
      <trkpt lat="49.98283" lon="1.31815">
        <ele>71.199996948242</ele>
        <time>2023-08-09T14:05:44.000Z</time>
      </trkpt>
      <trkpt lat="49.98277" lon="1.31805">
        <ele>71.199996948242</ele>
        <time>2023-08-09T14:05:46.000Z</time>
      </trkpt>
      <trkpt lat="49.98256" lon="1.31774">
        <ele>71.599998474121</ele>
        <time>2023-08-09T14:05:52.000Z</time>
      </trkpt>
      <trkpt lat="49.98228" lon="1.31745">
        <ele>71.800003051758</ele>
        <time>2023-08-09T14:05:59.000Z</time>
      </trkpt>
      <trkpt lat="49.98212" lon="1.31728">
        <ele>72</ele>
        <time>2023-08-09T14:06:03.000Z</time>
      </trkpt>
      <trkpt lat="49.98208" lon="1.31725">
        <ele>72</ele>
        <time>2023-08-09T14:06:04.000Z</time>
      </trkpt>
      <trkpt lat="49.98199" lon="1.31717">
        <ele>72.199996948242</ele>
        <time>2023-08-09T14:06:06.000Z</time>
      </trkpt>
      <trkpt lat="49.98188" lon="1.31704">
        <ele>72.400001525879</ele>
        <time>2023-08-09T14:06:09.000Z</time>
      </trkpt>
      <trkpt lat="49.98163" lon="1.31679">
        <ele>72.800003051758</ele>
        <time>2023-08-09T14:06:15.000Z</time>
      </trkpt>
      <trkpt lat="49.98158" lon="1.31674">
        <ele>72.800003051758</ele>
        <time>2023-08-09T14:06:16.000Z</time>
      </trkpt>
      <trkpt lat="49.9812" lon="1.31634">
        <ele>73.199996948242</ele>
        <time>2023-08-09T14:06:26.000Z</time>
      </trkpt>
      <trkpt lat="49.98072" lon="1.31586">
        <ele>73.400001525879</ele>
        <time>2023-08-09T14:06:38.000Z</time>
      </trkpt>
      <trkpt lat="49.98038" lon="1.31555">
        <ele>73.800003051758</ele>
        <time>2023-08-09T14:06:46.000Z</time>
      </trkpt>
      <trkpt lat="49.98031" lon="1.31549">
        <ele>74</ele>
        <time>2023-08-09T14:06:48.000Z</time>
      </trkpt>
      <trkpt lat="49.97981" lon="1.31511">
        <ele>74.599998474121</ele>
        <time>2023-08-09T14:07:00.000Z</time>
      </trkpt>
      <trkpt lat="49.97963" lon="1.31498">
        <ele>74.800003051758</ele>
        <time>2023-08-09T14:07:04.000Z</time>
      </trkpt>
      <trkpt lat="49.97947" lon="1.31487">
        <ele>75</ele>
        <time>2023-08-09T14:07:08.000Z</time>
      </trkpt>
      <trkpt lat="49.97899" lon="1.31457">
        <ele>75</ele>
        <time>2023-08-09T14:07:19.000Z</time>
      </trkpt>
      <trkpt lat="49.9785" lon="1.31438">
        <ele>75.800003051758</ele>
        <time>2023-08-09T14:07:29.000Z</time>
      </trkpt>
      <trkpt lat="49.97816" lon="1.31417">
        <ele>75.800003051758</ele>
        <time>2023-08-09T14:07:36.000Z</time>
      </trkpt>
      <trkpt lat="49.9777" lon="1.31374">
        <ele>76</ele>
        <time>2023-08-09T14:07:46.000Z</time>
      </trkpt>
      <trkpt lat="49.97731" lon="1.31339">
        <ele>76</ele>
        <time>2023-08-09T14:07:55.000Z</time>
      </trkpt>
      <trkpt lat="49.97722" lon="1.31331">
        <ele>76.199996948242</ele>
        <time>2023-08-09T14:07:57.000Z</time>
      </trkpt>
      <trkpt lat="49.97684" lon="1.31295">
        <ele>76.599998474121</ele>
        <time>2023-08-09T14:08:06.000Z</time>
      </trkpt>
      <trkpt lat="49.97642" lon="1.31255">
        <ele>77</ele>
        <time>2023-08-09T14:08:16.000Z</time>
      </trkpt>
      <trkpt lat="49.97635" lon="1.31247">
        <ele>77.199996948242</ele>
        <time>2023-08-09T14:08:18.000Z</time>
      </trkpt>
      <trkpt lat="49.97605" lon="1.31217">
        <ele>77.400001525879</ele>
        <time>2023-08-09T14:08:25.000Z</time>
      </trkpt>
      <trkpt lat="49.97562" lon="1.31175">
        <ele>78</ele>
        <time>2023-08-09T14:08:35.000Z</time>
      </trkpt>
      <trkpt lat="49.97558" lon="1.31171">
        <ele>78</ele>
        <time>2023-08-09T14:08:36.000Z</time>
      </trkpt>
      <trkpt lat="49.9755" lon="1.31163">
        <ele>78.199996948242</ele>
        <time>2023-08-09T14:08:38.000Z</time>
      </trkpt>
      <trkpt lat="49.97511" lon="1.31127">
        <ele>78.599998474121</ele>
        <time>2023-08-09T14:08:47.000Z</time>
      </trkpt>
      <trkpt lat="49.97469" lon="1.3108">
        <ele>78.599998474121</ele>
        <time>2023-08-09T14:08:57.000Z</time>
      </trkpt>
      <trkpt lat="49.97444" lon="1.31036">
        <ele>78.599998474121</ele>
        <time>2023-08-09T14:09:04.000Z</time>
      </trkpt>
      <trkpt lat="49.97417" lon="1.30976">
        <ele>78.800003051758</ele>
        <time>2023-08-09T14:09:13.000Z</time>
      </trkpt>
      <trkpt lat="49.97389" lon="1.30939">
        <ele>78.599998474121</ele>
        <time>2023-08-09T14:09:20.000Z</time>
      </trkpt>
      <trkpt lat="49.97351" lon="1.30895">
        <ele>78.199996948242</ele>
        <time>2023-08-09T14:09:29.000Z</time>
      </trkpt>
      <trkpt lat="49.9732" lon="1.30854">
        <ele>77.599998474121</ele>
        <time>2023-08-09T14:09:37.000Z</time>
      </trkpt>
      <trkpt lat="49.97282" lon="1.30805">
        <ele>77.400001525879</ele>
        <time>2023-08-09T14:09:46.000Z</time>
      </trkpt>
      <trkpt lat="49.97256" lon="1.30772">
        <ele>77.199996948242</ele>
        <time>2023-08-09T14:09:52.000Z</time>
      </trkpt>
      <trkpt lat="49.97247" lon="1.30761">
        <ele>77</ele>
        <time>2023-08-09T14:09:54.000Z</time>
      </trkpt>
      <trkpt lat="49.97219" lon="1.3072">
        <ele>76.400001525879</ele>
        <time>2023-08-09T14:10:01.000Z</time>
      </trkpt>
      <trkpt lat="49.97188" lon="1.30676">
        <ele>76.400001525879</ele>
        <time>2023-08-09T14:10:08.000Z</time>
      </trkpt>
      <trkpt lat="49.97184" lon="1.30671">
        <ele>76.400001525879</ele>
        <time>2023-08-09T14:10:09.000Z</time>
      </trkpt>
      <trkpt lat="49.97164" lon="1.30641">
        <ele>76.199996948242</ele>
        <time>2023-08-09T14:10:14.000Z</time>
      </trkpt>
      <trkpt lat="49.97159" lon="1.30635">
        <ele>76</ele>
        <time>2023-08-09T14:10:15.000Z</time>
      </trkpt>
      <trkpt lat="49.97123" lon="1.30584">
        <ele>76.199996948242</ele>
        <time>2023-08-09T14:10:24.000Z</time>
      </trkpt>
      <trkpt lat="49.97089" lon="1.30537">
        <ele>76.400001525879</ele>
        <time>2023-08-09T14:10:32.000Z</time>
      </trkpt>
      <trkpt lat="49.97053" lon="1.30487">
        <ele>77</ele>
        <time>2023-08-09T14:10:41.000Z</time>
      </trkpt>
      <trkpt lat="49.97023" lon="1.30445">
        <ele>77.400001525879</ele>
        <time>2023-08-09T14:10:49.000Z</time>
      </trkpt>
      <trkpt lat="49.9702" lon="1.3044">
        <ele>77.599998474121</ele>
        <time>2023-08-09T14:10:50.000Z</time>
      </trkpt>
      <trkpt lat="49.96985" lon="1.30396">
        <ele>78</ele>
        <time>2023-08-09T14:10:59.000Z</time>
      </trkpt>
      <trkpt lat="49.9695" lon="1.30348">
        <ele>78.199996948242</ele>
        <time>2023-08-09T14:11:08.000Z</time>
      </trkpt>
      <trkpt lat="49.96914" lon="1.30297">
        <ele>78.400001525879</ele>
        <time>2023-08-09T14:11:18.000Z</time>
      </trkpt>
      <trkpt lat="49.96911" lon="1.30292">
        <ele>78.400001525879</ele>
        <time>2023-08-09T14:11:19.000Z</time>
      </trkpt>
      <trkpt lat="49.96878" lon="1.30247">
        <ele>78.800003051758</ele>
        <time>2023-08-09T14:11:28.000Z</time>
      </trkpt>
      <trkpt lat="49.96868" lon="1.30226">
        <ele>79</ele>
        <time>2023-08-09T14:11:33.000Z</time>
      </trkpt>
      <trkpt lat="49.96865" lon="1.30218">
        <ele>79</ele>
        <time>2023-08-09T14:11:36.000Z</time>
      </trkpt>
      <trkpt lat="49.96864" lon="1.30216">
        <ele>79.199996948242</ele>
        <time>2023-08-09T14:11:37.000Z</time>
      </trkpt>
      <trkpt lat="49.96852" lon="1.30207">
        <ele>79.400001525879</ele>
        <time>2023-08-09T14:11:41.000Z</time>
      </trkpt>
      <trkpt lat="49.96835" lon="1.30182">
        <ele>79</ele>
        <time>2023-08-09T14:11:46.000Z</time>
      </trkpt>
      <trkpt lat="49.9681" lon="1.30152">
        <ele>79.199996948242</ele>
        <time>2023-08-09T14:11:53.000Z</time>
      </trkpt>
      <trkpt lat="49.96793" lon="1.30126">
        <ele>79.400001525879</ele>
        <time>2023-08-09T14:11:58.000Z</time>
      </trkpt>
      <trkpt lat="49.96766" lon="1.30084">
        <ele>80</ele>
        <time>2023-08-09T14:12:06.000Z</time>
      </trkpt>
      <trkpt lat="49.96762" lon="1.30077">
        <ele>80</ele>
        <time>2023-08-09T14:12:07.000Z</time>
      </trkpt>
      <trkpt lat="49.96737" lon="1.30026">
        <ele>80.400001525879</ele>
        <time>2023-08-09T14:12:16.000Z</time>
      </trkpt>
      <trkpt lat="49.9673" lon="1.30014">
        <ele>80.599998474121</ele>
        <time>2023-08-09T14:12:18.000Z</time>
      </trkpt>
      <trkpt lat="49.96712" lon="1.29991">
        <ele>81</ele>
        <time>2023-08-09T14:12:23.000Z</time>
      </trkpt>
      <trkpt lat="49.96704" lon="1.29983">
        <ele>81</ele>
        <time>2023-08-09T14:12:25.000Z</time>
      </trkpt>
      <trkpt lat="49.96689" lon="1.29967">
        <ele>81.199996948242</ele>
        <time>2023-08-09T14:12:29.000Z</time>
      </trkpt>
      <trkpt lat="49.96682" lon="1.29957">
        <ele>81.400001525879</ele>
        <time>2023-08-09T14:12:31.000Z</time>
      </trkpt>
      <trkpt lat="49.96677" lon="1.29952">
        <ele>81.400001525879</ele>
        <time>2023-08-09T14:12:32.000Z</time>
      </trkpt>
      <trkpt lat="49.9663" lon="1.29898">
        <ele>81.599998474121</ele>
        <time>2023-08-09T14:12:44.000Z</time>
      </trkpt>
      <trkpt lat="49.96625" lon="1.29892">
        <ele>81.599998474121</ele>
        <time>2023-08-09T14:12:45.000Z</time>
      </trkpt>
      <trkpt lat="49.96605" lon="1.29865">
        <ele>81.599998474121</ele>
        <time>2023-08-09T14:12:50.000Z</time>
      </trkpt>
      <trkpt lat="49.96568" lon="1.29814">
        <ele>81.599998474121</ele>
        <time>2023-08-09T14:13:00.000Z</time>
      </trkpt>
      <trkpt lat="49.96545" lon="1.29782">
        <ele>81.400001525879</ele>
        <time>2023-08-09T14:13:06.000Z</time>
      </trkpt>
      <trkpt lat="49.96511" lon="1.29732">
        <ele>81.599998474121</ele>
        <time>2023-08-09T14:13:15.000Z</time>
      </trkpt>
      <trkpt lat="49.96478" lon="1.29673">
        <ele>82</ele>
        <time>2023-08-09T14:13:25.000Z</time>
      </trkpt>
      <trkpt lat="49.96454" lon="1.29615">
        <ele>82</ele>
        <time>2023-08-09T14:13:34.000Z</time>
      </trkpt>
      <trkpt lat="49.96428" lon="1.29548">
        <ele>82.400001525879</ele>
        <time>2023-08-09T14:13:44.000Z</time>
      </trkpt>
      <trkpt lat="49.96412" lon="1.29492">
        <ele>82.599998474121</ele>
        <time>2023-08-09T14:13:53.000Z</time>
      </trkpt>
      <trkpt lat="49.9639" lon="1.29409">
        <ele>82.599998474121</ele>
        <time>2023-08-09T14:14:04.000Z</time>
      </trkpt>
      <trkpt lat="49.96375" lon="1.29353">
        <ele>82.599998474121</ele>
        <time>2023-08-09T14:14:12.000Z</time>
      </trkpt>
      <trkpt lat="49.96361" lon="1.29313">
        <ele>82.800003051758</ele>
        <time>2023-08-09T14:14:18.000Z</time>
      </trkpt>
      <trkpt lat="49.96354" lon="1.29302">
        <ele>83</ele>
        <time>2023-08-09T14:14:20.000Z</time>
      </trkpt>
      <trkpt lat="49.96346" lon="1.29291">
        <ele>83</ele>
        <time>2023-08-09T14:14:22.000Z</time>
      </trkpt>
      <trkpt lat="49.96329" lon="1.29277">
        <ele>83.199996948242</ele>
        <time>2023-08-09T14:14:26.000Z</time>
      </trkpt>
      <trkpt lat="49.9632" lon="1.29271">
        <ele>83.400001525879</ele>
        <time>2023-08-09T14:14:28.000Z</time>
      </trkpt>
      <trkpt lat="49.96286" lon="1.29257">
        <ele>83.800003051758</ele>
        <time>2023-08-09T14:14:35.000Z</time>
      </trkpt>
      <trkpt lat="49.96243" lon="1.29239">
        <ele>84.400001525879</ele>
        <time>2023-08-09T14:14:44.000Z</time>
      </trkpt>
      <trkpt lat="49.96233" lon="1.29235">
        <ele>84.599998474121</ele>
        <time>2023-08-09T14:14:46.000Z</time>
      </trkpt>
      <trkpt lat="49.96189" lon="1.29217">
        <ele>85</ele>
        <time>2023-08-09T14:14:55.000Z</time>
      </trkpt>
      <trkpt lat="49.96155" lon="1.29202">
        <ele>85.199996948242</ele>
        <time>2023-08-09T14:15:02.000Z</time>
      </trkpt>
      <trkpt lat="49.96121" lon="1.29183">
        <ele>85.599998474121</ele>
        <time>2023-08-09T14:15:09.000Z</time>
      </trkpt>
      <trkpt lat="49.96086" lon="1.29154">
        <ele>85.800003051758</ele>
        <time>2023-08-09T14:15:16.000Z</time>
      </trkpt>
      <trkpt lat="49.96083" lon="1.2915">
        <ele>85.800003051758</ele>
        <time>2023-08-09T14:15:17.000Z</time>
      </trkpt>
      <trkpt lat="49.96044" lon="1.29097">
        <ele>86.199996948242</ele>
        <time>2023-08-09T14:15:27.000Z</time>
      </trkpt>
      <trkpt lat="49.96006" lon="1.29043">
        <ele>86.800003051758</ele>
        <time>2023-08-09T14:15:37.000Z</time>
      </trkpt>
      <trkpt lat="49.96003" lon="1.29039">
        <ele>87</ele>
        <time>2023-08-09T14:15:38.000Z</time>
      </trkpt>
      <trkpt lat="49.95967" lon="1.28987">
        <ele>87.199996948242</ele>
        <time>2023-08-09T14:15:48.000Z</time>
      </trkpt>
      <trkpt lat="49.95926" lon="1.28928">
        <ele>87.800003051758</ele>
        <time>2023-08-09T14:16:00.000Z</time>
      </trkpt>
      <trkpt lat="49.95922" lon="1.28923">
        <ele>87.800003051758</ele>
        <time>2023-08-09T14:16:01.000Z</time>
      </trkpt>
      <trkpt lat="49.95915" lon="1.28912">
        <ele>88</ele>
        <time>2023-08-09T14:16:03.000Z</time>
      </trkpt>
      <trkpt lat="49.95885" lon="1.28869">
        <ele>88.400001525879</ele>
        <time>2023-08-09T14:16:11.000Z</time>
      </trkpt>
      <trkpt lat="49.95848" lon="1.28815">
        <ele>89</ele>
        <time>2023-08-09T14:16:21.000Z</time>
      </trkpt>
      <trkpt lat="49.95832" lon="1.28792">
        <ele>89.400001525879</ele>
        <time>2023-08-09T14:16:25.000Z</time>
      </trkpt>
      <trkpt lat="49.95792" lon="1.28733">
        <ele>89.800003051758</ele>
        <time>2023-08-09T14:16:36.000Z</time>
      </trkpt>
      <trkpt lat="49.95788" lon="1.28728">
        <ele>90</ele>
        <time>2023-08-09T14:16:37.000Z</time>
      </trkpt>
      <trkpt lat="49.95784" lon="1.28723">
        <ele>90.199996948242</ele>
        <time>2023-08-09T14:16:38.000Z</time>
      </trkpt>
      <trkpt lat="49.9575" lon="1.28675">
        <ele>91.199996948242</ele>
        <time>2023-08-09T14:16:47.000Z</time>
      </trkpt>
      <trkpt lat="49.95748" lon="1.2867">
        <ele>91.199996948242</ele>
        <time>2023-08-09T14:16:48.000Z</time>
      </trkpt>
      <trkpt lat="49.95714" lon="1.28622">
        <ele>91.800003051758</ele>
        <time>2023-08-09T14:16:57.000Z</time>
      </trkpt>
      <trkpt lat="49.95695" lon="1.28596">
        <ele>92.199996948242</ele>
        <time>2023-08-09T14:17:02.000Z</time>
      </trkpt>
      <trkpt lat="49.95671" lon="1.2856">
        <ele>92.800003051758</ele>
        <time>2023-08-09T14:17:09.000Z</time>
      </trkpt>
      <trkpt lat="49.9566" lon="1.28544">
        <ele>93.199996948242</ele>
        <time>2023-08-09T14:17:12.000Z</time>
      </trkpt>
      <trkpt lat="49.95634" lon="1.28512">
        <ele>94</ele>
        <time>2023-08-09T14:17:19.000Z</time>
      </trkpt>
      <trkpt lat="49.95627" lon="1.28506">
        <ele>94.400001525879</ele>
        <time>2023-08-09T14:17:21.000Z</time>
      </trkpt>
      <trkpt lat="49.95607" lon="1.28491">
        <ele>95</ele>
        <time>2023-08-09T14:17:26.000Z</time>
      </trkpt>
      <trkpt lat="49.95594" lon="1.28484">
        <ele>95.400001525879</ele>
        <time>2023-08-09T14:17:29.000Z</time>
      </trkpt>
      <trkpt lat="49.9557" lon="1.28476">
        <ele>96.400001525879</ele>
        <time>2023-08-09T14:17:35.000Z</time>
      </trkpt>
      <trkpt lat="49.95554" lon="1.2847">
        <ele>96.800003051758</ele>
        <time>2023-08-09T14:17:39.000Z</time>
      </trkpt>
      <trkpt lat="49.9554" lon="1.28466">
        <ele>97.400001525879</ele>
        <time>2023-08-09T14:17:43.000Z</time>
      </trkpt>
      <trkpt lat="49.95536" lon="1.28464">
        <ele>97.599998474121</ele>
        <time>2023-08-09T14:17:44.000Z</time>
      </trkpt>
      <trkpt lat="49.95515" lon="1.28458">
        <ele>98.599998474121</ele>
        <time>2023-08-09T14:17:50.000Z</time>
      </trkpt>
      <trkpt lat="49.95511" lon="1.28456">
        <ele>98.800003051758</ele>
        <time>2023-08-09T14:17:51.000Z</time>
      </trkpt>
      <trkpt lat="49.95483" lon="1.28446">
        <ele>99.800003051758</ele>
        <time>2023-08-09T14:17:59.000Z</time>
      </trkpt>
      <trkpt lat="49.95472" lon="1.28442">
        <ele>100.19999694824</ele>
        <time>2023-08-09T14:18:02.000Z</time>
      </trkpt>
      <trkpt lat="49.95456" lon="1.28437">
        <ele>100.80000305176</ele>
        <time>2023-08-09T14:18:07.000Z</time>
      </trkpt>
      <trkpt lat="49.95447" lon="1.28435">
        <ele>101.40000152588</ele>
        <time>2023-08-09T14:18:10.000Z</time>
      </trkpt>
      <trkpt lat="49.95437" lon="1.28433">
        <ele>102</ele>
        <time>2023-08-09T14:18:13.000Z</time>
      </trkpt>
      <trkpt lat="49.95426" lon="1.2843">
        <ele>102.80000305176</ele>
        <time>2023-08-09T14:18:17.000Z</time>
      </trkpt>
      <trkpt lat="49.9542" lon="1.28428">
        <ele>103.19999694824</ele>
        <time>2023-08-09T14:18:19.000Z</time>
      </trkpt>
      <trkpt lat="49.95405" lon="1.28421">
        <ele>104.19999694824</ele>
        <time>2023-08-09T14:18:24.000Z</time>
      </trkpt>
      <trkpt lat="49.95402" lon="1.2842">
        <ele>104.59999847412</ele>
        <time>2023-08-09T14:18:25.000Z</time>
      </trkpt>
      <trkpt lat="49.95397" lon="1.28417">
        <ele>105.40000152588</ele>
        <time>2023-08-09T14:18:27.000Z</time>
      </trkpt>
      <trkpt lat="49.95381" lon="1.28411">
        <ele>106.19999694824</ele>
        <time>2023-08-09T14:18:32.000Z</time>
      </trkpt>
      <trkpt lat="49.95378" lon="1.2841">
        <ele>106.40000152588</ele>
        <time>2023-08-09T14:18:33.000Z</time>
      </trkpt>
      <trkpt lat="49.95358" lon="1.28403">
        <ele>107.40000152588</ele>
        <time>2023-08-09T14:18:39.000Z</time>
      </trkpt>
      <trkpt lat="49.95344" lon="1.28398">
        <ele>108.59999847412</ele>
        <time>2023-08-09T14:18:43.000Z</time>
      </trkpt>
      <trkpt lat="49.95331" lon="1.28394">
        <ele>109.40000152588</ele>
        <time>2023-08-09T14:18:47.000Z</time>
      </trkpt>
      <trkpt lat="49.95328" lon="1.28393">
        <ele>109.59999847412</ele>
        <time>2023-08-09T14:18:48.000Z</time>
      </trkpt>
      <trkpt lat="49.95322" lon="1.28391">
        <ele>109.80000305176</ele>
        <time>2023-08-09T14:18:50.000Z</time>
      </trkpt>
      <trkpt lat="49.95305" lon="1.28383">
        <ele>110.40000152588</ele>
        <time>2023-08-09T14:18:55.000Z</time>
      </trkpt>
      <trkpt lat="49.953" lon="1.28373">
        <ele>110.59999847412</ele>
        <time>2023-08-09T14:18:57.000Z</time>
      </trkpt>
      <trkpt lat="49.953" lon="1.28368">
        <ele>110.80000305176</ele>
        <time>2023-08-09T14:18:58.000Z</time>
      </trkpt>
      <trkpt lat="49.95301" lon="1.28364">
        <ele>110.80000305176</ele>
        <time>2023-08-09T14:18:59.000Z</time>
      </trkpt>
      <trkpt lat="49.95308" lon="1.28349">
        <ele>111</ele>
        <time>2023-08-09T14:19:02.000Z</time>
      </trkpt>
      <trkpt lat="49.95329" lon="1.28309">
        <ele>111.19999694824</ele>
        <time>2023-08-09T14:19:10.000Z</time>
      </trkpt>
      <trkpt lat="49.95342" lon="1.2828">
        <ele>111.80000305176</ele>
        <time>2023-08-09T14:19:15.000Z</time>
      </trkpt>
      <trkpt lat="49.95347" lon="1.28265">
        <ele>112</ele>
        <time>2023-08-09T14:19:17.000Z</time>
      </trkpt>
      <trkpt lat="49.95355" lon="1.28223">
        <ele>112.19999694824</ele>
        <time>2023-08-09T14:19:23.000Z</time>
      </trkpt>
      <trkpt lat="49.95355" lon="1.28207">
        <ele>112.40000152588</ele>
        <time>2023-08-09T14:19:25.000Z</time>
      </trkpt>
      <trkpt lat="49.95353" lon="1.28174">
        <ele>112.80000305176</ele>
        <time>2023-08-09T14:19:30.000Z</time>
      </trkpt>
      <trkpt lat="49.95352" lon="1.28161">
        <ele>112.80000305176</ele>
        <time>2023-08-09T14:19:32.000Z</time>
      </trkpt>
      <trkpt lat="49.95345" lon="1.28132">
        <ele>113</ele>
        <time>2023-08-09T14:19:36.000Z</time>
      </trkpt>
      <trkpt lat="49.95336" lon="1.28109">
        <ele>113</ele>
        <time>2023-08-09T14:19:40.000Z</time>
      </trkpt>
      <trkpt lat="49.95331" lon="1.28098">
        <ele>113.19999694824</ele>
        <time>2023-08-09T14:19:42.000Z</time>
      </trkpt>
      <trkpt lat="49.95314" lon="1.28076">
        <ele>113.40000152588</ele>
        <time>2023-08-09T14:19:47.000Z</time>
      </trkpt>
      <trkpt lat="49.95301" lon="1.28058">
        <ele>113.80000305176</ele>
        <time>2023-08-09T14:19:51.000Z</time>
      </trkpt>
      <trkpt lat="49.95288" lon="1.28039">
        <ele>115</ele>
        <time>2023-08-09T14:19:55.000Z</time>
      </trkpt>
      <trkpt lat="49.95281" lon="1.28028">
        <ele>115.19999694824</ele>
        <time>2023-08-09T14:19:57.000Z</time>
      </trkpt>
      <trkpt lat="49.9526" lon="1.27986">
        <ele>116</ele>
        <time>2023-08-09T14:20:05.000Z</time>
      </trkpt>
      <trkpt lat="49.95257" lon="1.27981">
        <ele>116</ele>
        <time>2023-08-09T14:20:06.000Z</time>
      </trkpt>
      <trkpt lat="49.95233" lon="1.27925">
        <ele>116.80000305176</ele>
        <time>2023-08-09T14:20:16.000Z</time>
      </trkpt>
      <trkpt lat="49.95225" lon="1.27907">
        <ele>117</ele>
        <time>2023-08-09T14:20:19.000Z</time>
      </trkpt>
      <trkpt lat="49.95215" lon="1.27883">
        <ele>117.19999694824</ele>
        <time>2023-08-09T14:20:23.000Z</time>
      </trkpt>
      <trkpt lat="49.95183" lon="1.2781">
        <ele>117.80000305176</ele>
        <time>2023-08-09T14:20:35.000Z</time>
      </trkpt>
      <trkpt lat="49.95149" lon="1.27737">
        <ele>117.80000305176</ele>
        <time>2023-08-09T14:20:46.000Z</time>
      </trkpt>
      <trkpt lat="49.95141" lon="1.27718">
        <ele>118</ele>
        <time>2023-08-09T14:20:49.000Z</time>
      </trkpt>
      <trkpt lat="49.95111" lon="1.27653">
        <ele>118</ele>
        <time>2023-08-09T14:20:59.000Z</time>
      </trkpt>
      <trkpt lat="49.95095" lon="1.27618">
        <ele>118</ele>
        <time>2023-08-09T14:21:04.000Z</time>
      </trkpt>
      <trkpt lat="49.95082" lon="1.2759">
        <ele>117.80000305176</ele>
        <time>2023-08-09T14:21:08.000Z</time>
      </trkpt>
      <trkpt lat="49.95057" lon="1.27528">
        <ele>117.80000305176</ele>
        <time>2023-08-09T14:21:17.000Z</time>
      </trkpt>
      <trkpt lat="49.9503" lon="1.27455">
        <ele>117.59999847412</ele>
        <time>2023-08-09T14:21:27.000Z</time>
      </trkpt>
      <trkpt lat="49.95027" lon="1.27447">
        <ele>117.59999847412</ele>
        <time>2023-08-09T14:21:28.000Z</time>
      </trkpt>
      <trkpt lat="49.95006" lon="1.27389">
        <ele>116.80000305176</ele>
        <time>2023-08-09T14:21:36.000Z</time>
      </trkpt>
      <trkpt lat="49.94981" lon="1.2733">
        <ele>116.40000152588</ele>
        <time>2023-08-09T14:21:44.000Z</time>
      </trkpt>
      <trkpt lat="49.94968" lon="1.27301">
        <ele>116.19999694824</ele>
        <time>2023-08-09T14:21:48.000Z</time>
      </trkpt>
      <trkpt lat="49.94944" lon="1.27251">
        <ele>115</ele>
        <time>2023-08-09T14:21:55.000Z</time>
      </trkpt>
      <trkpt lat="49.94933" lon="1.2723">
        <ele>114.80000305176</ele>
        <time>2023-08-09T14:21:58.000Z</time>
      </trkpt>
      <trkpt lat="49.9491" lon="1.27182">
        <ele>114</ele>
        <time>2023-08-09T14:22:05.000Z</time>
      </trkpt>
      <trkpt lat="49.94906" lon="1.27176">
        <ele>114</ele>
        <time>2023-08-09T14:22:06.000Z</time>
      </trkpt>
      <trkpt lat="49.9488" lon="1.27132">
        <ele>113</ele>
        <time>2023-08-09T14:22:13.000Z</time>
      </trkpt>
      <trkpt lat="49.94871" lon="1.2712">
        <ele>112.80000305176</ele>
        <time>2023-08-09T14:22:15.000Z</time>
      </trkpt>
      <trkpt lat="49.94846" lon="1.27083">
        <ele>112.19999694824</ele>
        <time>2023-08-09T14:22:21.000Z</time>
      </trkpt>
      <trkpt lat="49.94828" lon="1.27056">
        <ele>112.19999694824</ele>
        <time>2023-08-09T14:22:26.000Z</time>
      </trkpt>
      <trkpt lat="49.94824" lon="1.2705">
        <ele>112.19999694824</ele>
        <time>2023-08-09T14:22:27.000Z</time>
      </trkpt>
      <trkpt lat="49.94804" lon="1.27015">
        <ele>112.59999847412</ele>
        <time>2023-08-09T14:22:33.000Z</time>
      </trkpt>
      <trkpt lat="49.948" lon="1.27006">
        <ele>112.59999847412</ele>
        <time>2023-08-09T14:22:34.000Z</time>
      </trkpt>
      <trkpt lat="49.94797" lon="1.26999">
        <ele>112.59999847412</ele>
        <time>2023-08-09T14:22:35.000Z</time>
      </trkpt>
      <trkpt lat="49.94786" lon="1.26963">
        <ele>112.80000305176</ele>
        <time>2023-08-09T14:22:40.000Z</time>
      </trkpt>
      <trkpt lat="49.94769" lon="1.26888">
        <ele>113.19999694824</ele>
        <time>2023-08-09T14:22:50.000Z</time>
      </trkpt>
      <trkpt lat="49.94756" lon="1.26832">
        <ele>113.19999694824</ele>
        <time>2023-08-09T14:22:57.000Z</time>
      </trkpt>
      <trkpt lat="49.94753" lon="1.26817">
        <ele>113.19999694824</ele>
        <time>2023-08-09T14:22:59.000Z</time>
      </trkpt>
      <trkpt lat="49.94739" lon="1.26754">
        <ele>113.19999694824</ele>
        <time>2023-08-09T14:23:07.000Z</time>
      </trkpt>
      <trkpt lat="49.94736" lon="1.26745">
        <ele>113</ele>
        <time>2023-08-09T14:23:08.000Z</time>
      </trkpt>
      <trkpt lat="49.9473" lon="1.26727">
        <ele>113</ele>
        <time>2023-08-09T14:23:11.000Z</time>
      </trkpt>
      <trkpt lat="49.94725" lon="1.26721">
        <ele>113</ele>
        <time>2023-08-09T14:23:12.000Z</time>
      </trkpt>
      <trkpt lat="49.94703" lon="1.26694">
        <ele>112.59999847412</ele>
        <time>2023-08-09T14:23:17.000Z</time>
      </trkpt>
      <trkpt lat="49.94693" lon="1.26675">
        <ele>112.59999847412</ele>
        <time>2023-08-09T14:23:20.000Z</time>
      </trkpt>
      <trkpt lat="49.94675" lon="1.26622">
        <ele>112.19999694824</ele>
        <time>2023-08-09T14:23:27.000Z</time>
      </trkpt>
      <trkpt lat="49.94664" lon="1.26581">
        <ele>111.80000305176</ele>
        <time>2023-08-09T14:23:32.000Z</time>
      </trkpt>
      <trkpt lat="49.94655" lon="1.26542">
        <ele>111.59999847412</ele>
        <time>2023-08-09T14:23:37.000Z</time>
      </trkpt>
      <trkpt lat="49.94637" lon="1.26481">
        <ele>111.80000305176</ele>
        <time>2023-08-09T14:23:45.000Z</time>
      </trkpt>
      <trkpt lat="49.94618" lon="1.26419">
        <ele>111.59999847412</ele>
        <time>2023-08-09T14:23:54.000Z</time>
      </trkpt>
      <trkpt lat="49.94608" lon="1.26363">
        <ele>111.19999694824</ele>
        <time>2023-08-09T14:24:01.000Z</time>
      </trkpt>
      <trkpt lat="49.94597" lon="1.26294">
        <ele>110.80000305176</ele>
        <time>2023-08-09T14:24:09.000Z</time>
      </trkpt>
      <trkpt lat="49.94595" lon="1.26286">
        <ele>110.80000305176</ele>
        <time>2023-08-09T14:24:10.000Z</time>
      </trkpt>
      <trkpt lat="49.94581" lon="1.26255">
        <ele>110.40000152588</ele>
        <time>2023-08-09T14:24:14.000Z</time>
      </trkpt>
      <trkpt lat="49.94559" lon="1.26211">
        <ele>110.40000152588</ele>
        <time>2023-08-09T14:24:21.000Z</time>
      </trkpt>
      <trkpt lat="49.94549" lon="1.26193">
        <ele>110.40000152588</ele>
        <time>2023-08-09T14:24:24.000Z</time>
      </trkpt>
      <trkpt lat="49.94539" lon="1.26176">
        <ele>110.80000305176</ele>
        <time>2023-08-09T14:24:27.000Z</time>
      </trkpt>
      <trkpt lat="49.94531" lon="1.26158">
        <ele>111</ele>
        <time>2023-08-09T14:24:30.000Z</time>
      </trkpt>
      <trkpt lat="49.94521" lon="1.26132">
        <ele>111.40000152588</ele>
        <time>2023-08-09T14:24:34.000Z</time>
      </trkpt>
      <trkpt lat="49.94506" lon="1.26093">
        <ele>111.80000305176</ele>
        <time>2023-08-09T14:24:40.000Z</time>
      </trkpt>
      <trkpt lat="49.9449" lon="1.26056">
        <ele>112</ele>
        <time>2023-08-09T14:24:46.000Z</time>
      </trkpt>
      <trkpt lat="49.94462" lon="1.25989">
        <ele>112.19999694824</ele>
        <time>2023-08-09T14:24:56.000Z</time>
      </trkpt>
      <trkpt lat="49.94439" lon="1.25935">
        <ele>111.59999847412</ele>
        <time>2023-08-09T14:25:04.000Z</time>
      </trkpt>
      <trkpt lat="49.94424" lon="1.25901">
        <ele>110.80000305176</ele>
        <time>2023-08-09T14:25:10.000Z</time>
      </trkpt>
      <trkpt lat="49.94422" lon="1.25896">
        <ele>110.80000305176</ele>
        <time>2023-08-09T14:25:11.000Z</time>
      </trkpt>
      <trkpt lat="49.94417" lon="1.25883">
        <ele>110.59999847412</ele>
        <time>2023-08-09T14:25:15.000Z</time>
      </trkpt>
      <trkpt lat="49.94406" lon="1.25858">
        <ele>110</ele>
        <time>2023-08-09T14:25:20.000Z</time>
      </trkpt>
      <trkpt lat="49.94404" lon="1.25852">
        <ele>109.80000305176</ele>
        <time>2023-08-09T14:25:21.000Z</time>
      </trkpt>
      <trkpt lat="49.94401" lon="1.25846">
        <ele>109.80000305176</ele>
        <time>2023-08-09T14:25:22.000Z</time>
      </trkpt>
      <trkpt lat="49.94398" lon="1.2584">
        <ele>109.80000305176</ele>
        <time>2023-08-09T14:25:23.000Z</time>
      </trkpt>
      <trkpt lat="49.94393" lon="1.25826">
        <ele>109.80000305176</ele>
        <time>2023-08-09T14:25:25.000Z</time>
      </trkpt>
      <trkpt lat="49.9437" lon="1.25775">
        <ele>110.40000152588</ele>
        <time>2023-08-09T14:25:33.000Z</time>
      </trkpt>
      <trkpt lat="49.9435" lon="1.25729">
        <ele>110.80000305176</ele>
        <time>2023-08-09T14:25:40.000Z</time>
      </trkpt>
      <trkpt lat="49.94347" lon="1.25722">
        <ele>110.80000305176</ele>
        <time>2023-08-09T14:25:41.000Z</time>
      </trkpt>
      <trkpt lat="49.94345" lon="1.25715">
        <ele>111</ele>
        <time>2023-08-09T14:25:42.000Z</time>
      </trkpt>
      <trkpt lat="49.94322" lon="1.25657">
        <ele>111.19999694824</ele>
        <time>2023-08-09T14:25:50.000Z</time>
      </trkpt>
      <trkpt lat="49.94291" lon="1.25594">
        <ele>111.19999694824</ele>
        <time>2023-08-09T14:25:59.000Z</time>
      </trkpt>
      <trkpt lat="49.94264" lon="1.25538">
        <ele>111</ele>
        <time>2023-08-09T14:26:07.000Z</time>
      </trkpt>
      <trkpt lat="49.94234" lon="1.25472">
        <ele>110.80000305176</ele>
        <time>2023-08-09T14:26:16.000Z</time>
      </trkpt>
      <trkpt lat="49.94232" lon="1.25464">
        <ele>110.59999847412</ele>
        <time>2023-08-09T14:26:17.000Z</time>
      </trkpt>
      <trkpt lat="49.94223" lon="1.2543">
        <ele>110.59999847412</ele>
        <time>2023-08-09T14:26:21.000Z</time>
      </trkpt>
      <trkpt lat="49.94207" lon="1.25362">
        <ele>110</ele>
        <time>2023-08-09T14:26:29.000Z</time>
      </trkpt>
      <trkpt lat="49.94196" lon="1.25318">
        <ele>109.80000305176</ele>
        <time>2023-08-09T14:26:34.000Z</time>
      </trkpt>
      <trkpt lat="49.9419" lon="1.25293">
        <ele>109.80000305176</ele>
        <time>2023-08-09T14:26:37.000Z</time>
      </trkpt>
      <trkpt lat="49.94184" lon="1.25277">
        <ele>109.59999847412</ele>
        <time>2023-08-09T14:26:39.000Z</time>
      </trkpt>
      <trkpt lat="49.94176" lon="1.25264">
        <ele>109.40000152588</ele>
        <time>2023-08-09T14:26:41.000Z</time>
      </trkpt>
      <trkpt lat="49.94164" lon="1.25257">
        <ele>109.19999694824</ele>
        <time>2023-08-09T14:26:43.000Z</time>
      </trkpt>
      <trkpt lat="49.94158" lon="1.25256">
        <ele>109.19999694824</ele>
        <time>2023-08-09T14:26:44.000Z</time>
      </trkpt>
      <trkpt lat="49.94134" lon="1.25253">
        <ele>108.80000305176</ele>
        <time>2023-08-09T14:26:48.000Z</time>
      </trkpt>
      <trkpt lat="49.9412" lon="1.2525">
        <ele>108.59999847412</ele>
        <time>2023-08-09T14:26:50.000Z</time>
      </trkpt>
      <trkpt lat="49.94116" lon="1.25247">
        <ele>108.59999847412</ele>
        <time>2023-08-09T14:26:51.000Z</time>
      </trkpt>
      <trkpt lat="49.94111" lon="1.25242">
        <ele>108.40000152588</ele>
        <time>2023-08-09T14:26:52.000Z</time>
      </trkpt>
      <trkpt lat="49.94104" lon="1.25227">
        <ele>108</ele>
        <time>2023-08-09T14:26:54.000Z</time>
      </trkpt>
      <trkpt lat="49.941" lon="1.2521">
        <ele>107.59999847412</ele>
        <time>2023-08-09T14:26:56.000Z</time>
      </trkpt>
      <trkpt lat="49.94086" lon="1.25159">
        <ele>107.19999694824</ele>
        <time>2023-08-09T14:27:02.000Z</time>
      </trkpt>
      <trkpt lat="49.94066" lon="1.25085">
        <ele>106.80000305176</ele>
        <time>2023-08-09T14:27:11.000Z</time>
      </trkpt>
      <trkpt lat="49.94044" lon="1.25006">
        <ele>106.80000305176</ele>
        <time>2023-08-09T14:27:21.000Z</time>
      </trkpt>
      <trkpt lat="49.94032" lon="1.24975">
        <ele>106.59999847412</ele>
        <time>2023-08-09T14:27:25.000Z</time>
      </trkpt>
      <trkpt lat="49.94017" lon="1.24937">
        <ele>106.40000152588</ele>
        <time>2023-08-09T14:27:30.000Z</time>
      </trkpt>
      <trkpt lat="49.93993" lon="1.2489">
        <ele>105.80000305176</ele>
        <time>2023-08-09T14:27:37.000Z</time>
      </trkpt>
      <trkpt lat="49.93963" lon="1.24822">
        <ele>105.40000152588</ele>
        <time>2023-08-09T14:27:46.000Z</time>
      </trkpt>
      <trkpt lat="49.93939" lon="1.24758">
        <ele>105.19999694824</ele>
        <time>2023-08-09T14:27:54.000Z</time>
      </trkpt>
      <trkpt lat="49.93916" lon="1.24694">
        <ele>104.40000152588</ele>
        <time>2023-08-09T14:28:02.000Z</time>
      </trkpt>
      <trkpt lat="49.93902" lon="1.24654">
        <ele>104.19999694824</ele>
        <time>2023-08-09T14:28:07.000Z</time>
      </trkpt>
      <trkpt lat="49.93875" lon="1.24578">
        <ele>103.40000152588</ele>
        <time>2023-08-09T14:28:16.000Z</time>
      </trkpt>
      <trkpt lat="49.93872" lon="1.24572">
        <ele>103.40000152588</ele>
        <time>2023-08-09T14:28:17.000Z</time>
      </trkpt>
      <trkpt lat="49.93844" lon="1.24496">
        <ele>102.59999847412</ele>
        <time>2023-08-09T14:28:27.000Z</time>
      </trkpt>
      <trkpt lat="49.93822" lon="1.24456">
        <ele>102.40000152588</ele>
        <time>2023-08-09T14:28:33.000Z</time>
      </trkpt>
      <trkpt lat="49.93817" lon="1.24448">
        <ele>102</ele>
        <time>2023-08-09T14:28:35.000Z</time>
      </trkpt>
      <trkpt lat="49.93787" lon="1.24403">
        <ele>101.40000152588</ele>
        <time>2023-08-09T14:28:41.000Z</time>
      </trkpt>
      <trkpt lat="49.93775" lon="1.2438">
        <ele>101</ele>
        <time>2023-08-09T14:28:44.000Z</time>
      </trkpt>
      <trkpt lat="49.93747" lon="1.24328">
        <ele>100.40000152588</ele>
        <time>2023-08-09T14:28:51.000Z</time>
      </trkpt>
      <trkpt lat="49.93743" lon="1.24321">
        <ele>100.40000152588</ele>
        <time>2023-08-09T14:28:52.000Z</time>
      </trkpt>
      <trkpt lat="49.93739" lon="1.24314">
        <ele>100.40000152588</ele>
        <time>2023-08-09T14:28:53.000Z</time>
      </trkpt>
      <trkpt lat="49.93723" lon="1.24286">
        <ele>100.19999694824</ele>
        <time>2023-08-09T14:28:57.000Z</time>
      </trkpt>
      <trkpt lat="49.93704" lon="1.24251">
        <ele>99.599998474121</ele>
        <time>2023-08-09T14:29:02.000Z</time>
      </trkpt>
      <trkpt lat="49.93667" lon="1.24184">
        <ele>99.599998474121</ele>
        <time>2023-08-09T14:29:12.000Z</time>
      </trkpt>
      <trkpt lat="49.93632" lon="1.24129">
        <ele>99.800003051758</ele>
        <time>2023-08-09T14:29:21.000Z</time>
      </trkpt>
      <trkpt lat="49.93599" lon="1.24083">
        <ele>100.19999694824</ele>
        <time>2023-08-09T14:29:29.000Z</time>
      </trkpt>
      <trkpt lat="49.93592" lon="1.24068">
        <ele>100.19999694824</ele>
        <time>2023-08-09T14:29:31.000Z</time>
      </trkpt>
      <trkpt lat="49.93587" lon="1.24053">
        <ele>100.40000152588</ele>
        <time>2023-08-09T14:29:33.000Z</time>
      </trkpt>
      <trkpt lat="49.93586" lon="1.24044">
        <ele>100.40000152588</ele>
        <time>2023-08-09T14:29:34.000Z</time>
      </trkpt>
      <trkpt lat="49.93586" lon="1.24036">
        <ele>100.40000152588</ele>
        <time>2023-08-09T14:29:35.000Z</time>
      </trkpt>
      <trkpt lat="49.93586" lon="1.24018">
        <ele>100.40000152588</ele>
        <time>2023-08-09T14:29:37.000Z</time>
      </trkpt>
      <trkpt lat="49.93587" lon="1.24009">
        <ele>100.40000152588</ele>
        <time>2023-08-09T14:29:38.000Z</time>
      </trkpt>
      <trkpt lat="49.93589" lon="1.24">
        <ele>100.40000152588</ele>
        <time>2023-08-09T14:29:39.000Z</time>
      </trkpt>
      <trkpt lat="49.93596" lon="1.23976">
        <ele>100.40000152588</ele>
        <time>2023-08-09T14:29:42.000Z</time>
      </trkpt>
      <trkpt lat="49.93599" lon="1.23969">
        <ele>100.40000152588</ele>
        <time>2023-08-09T14:29:43.000Z</time>
      </trkpt>
      <trkpt lat="49.93623" lon="1.23909">
        <ele>100</ele>
        <time>2023-08-09T14:29:51.000Z</time>
      </trkpt>
      <trkpt lat="49.93626" lon="1.23891">
        <ele>100</ele>
        <time>2023-08-09T14:29:53.000Z</time>
      </trkpt>
      <trkpt lat="49.93625" lon="1.23873">
        <ele>99.800003051758</ele>
        <time>2023-08-09T14:29:55.000Z</time>
      </trkpt>
      <trkpt lat="49.93624" lon="1.23863">
        <ele>99.599998474121</ele>
        <time>2023-08-09T14:29:56.000Z</time>
      </trkpt>
      <trkpt lat="49.93617" lon="1.23829">
        <ele>99.400001525879</ele>
        <time>2023-08-09T14:30:00.000Z</time>
      </trkpt>
      <trkpt lat="49.93615" lon="1.23822">
        <ele>99.400001525879</ele>
        <time>2023-08-09T14:30:01.000Z</time>
      </trkpt>
      <trkpt lat="49.93602" lon="1.23767">
        <ele>99.400001525879</ele>
        <time>2023-08-09T14:30:08.000Z</time>
      </trkpt>
      <trkpt lat="49.93582" lon="1.237">
        <ele>99.599998474121</ele>
        <time>2023-08-09T14:30:17.000Z</time>
      </trkpt>
      <trkpt lat="49.93561" lon="1.23638">
        <ele>99.400001525879</ele>
        <time>2023-08-09T14:30:25.000Z</time>
      </trkpt>
      <trkpt lat="49.93537" lon="1.23571">
        <ele>99.400001525879</ele>
        <time>2023-08-09T14:30:34.000Z</time>
      </trkpt>
      <trkpt lat="49.93531" lon="1.23557">
        <ele>99.400001525879</ele>
        <time>2023-08-09T14:30:36.000Z</time>
      </trkpt>
      <trkpt lat="49.93511" lon="1.23502">
        <ele>99</ele>
        <time>2023-08-09T14:30:43.000Z</time>
      </trkpt>
      <trkpt lat="49.93504" lon="1.23477">
        <ele>98.800003051758</ele>
        <time>2023-08-09T14:30:46.000Z</time>
      </trkpt>
      <trkpt lat="49.93498" lon="1.23449">
        <ele>98.400001525879</ele>
        <time>2023-08-09T14:30:49.000Z</time>
      </trkpt>
      <trkpt lat="49.93497" lon="1.2344">
        <ele>98.199996948242</ele>
        <time>2023-08-09T14:30:50.000Z</time>
      </trkpt>
      <trkpt lat="49.93484" lon="1.23371">
        <ele>97.199996948242</ele>
        <time>2023-08-09T14:30:57.000Z</time>
      </trkpt>
      <trkpt lat="49.9347" lon="1.2329">
        <ele>96.199996948242</ele>
        <time>2023-08-09T14:31:05.000Z</time>
      </trkpt>
      <trkpt lat="49.93468" lon="1.2328">
        <ele>96.199996948242</ele>
        <time>2023-08-09T14:31:06.000Z</time>
      </trkpt>
      <trkpt lat="49.93467" lon="1.23269">
        <ele>96.199996948242</ele>
        <time>2023-08-09T14:31:07.000Z</time>
      </trkpt>
      <trkpt lat="49.93453" lon="1.23191">
        <ele>95.400001525879</ele>
        <time>2023-08-09T14:31:15.000Z</time>
      </trkpt>
      <trkpt lat="49.9345" lon="1.23171">
        <ele>95.199996948242</ele>
        <time>2023-08-09T14:31:17.000Z</time>
      </trkpt>
      <trkpt lat="49.93436" lon="1.23089">
        <ele>94.400001525879</ele>
        <time>2023-08-09T14:31:25.000Z</time>
      </trkpt>
      <trkpt lat="49.93433" lon="1.23079">
        <ele>94.199996948242</ele>
        <time>2023-08-09T14:31:26.000Z</time>
      </trkpt>
      <trkpt lat="49.93431" lon="1.23068">
        <ele>94.199996948242</ele>
        <time>2023-08-09T14:31:27.000Z</time>
      </trkpt>
      <trkpt lat="49.93416" lon="1.22982">
        <ele>93.599998474121</ele>
        <time>2023-08-09T14:31:35.000Z</time>
      </trkpt>
      <trkpt lat="49.93415" lon="1.22971">
        <ele>93.599998474121</ele>
        <time>2023-08-09T14:31:36.000Z</time>
      </trkpt>
      <trkpt lat="49.93405" lon="1.22916">
        <ele>93</ele>
        <time>2023-08-09T14:31:41.000Z</time>
      </trkpt>
      <trkpt lat="49.93399" lon="1.22882">
        <ele>92.800003051758</ele>
        <time>2023-08-09T14:31:44.000Z</time>
      </trkpt>
      <trkpt lat="49.93387" lon="1.22814">
        <ele>92.199996948242</ele>
        <time>2023-08-09T14:31:50.000Z</time>
      </trkpt>
      <trkpt lat="49.93381" lon="1.2278">
        <ele>92</ele>
        <time>2023-08-09T14:31:54.000Z</time>
      </trkpt>
      <trkpt lat="49.93366" lon="1.22692">
        <ele>91.400001525879</ele>
        <time>2023-08-09T14:32:01.000Z</time>
      </trkpt>
      <trkpt lat="49.93364" lon="1.22681">
        <ele>91.400001525879</ele>
        <time>2023-08-09T14:32:02.000Z</time>
      </trkpt>
      <trkpt lat="49.93352" lon="1.22615">
        <ele>91</ele>
        <time>2023-08-09T14:32:08.000Z</time>
      </trkpt>
      <trkpt lat="49.9334" lon="1.22548">
        <ele>90.400001525879</ele>
        <time>2023-08-09T14:32:14.000Z</time>
      </trkpt>
      <trkpt lat="49.9333" lon="1.22493">
        <ele>90</ele>
        <time>2023-08-09T14:32:19.000Z</time>
      </trkpt>
      <trkpt lat="49.93318" lon="1.22428">
        <ele>89.800003051758</ele>
        <time>2023-08-09T14:32:25.000Z</time>
      </trkpt>
      <trkpt lat="49.93302" lon="1.22339">
        <ele>89.199996948242</ele>
        <time>2023-08-09T14:32:33.000Z</time>
      </trkpt>
      <trkpt lat="49.933" lon="1.22328">
        <ele>89.199996948242</ele>
        <time>2023-08-09T14:32:34.000Z</time>
      </trkpt>
      <trkpt lat="49.93294" lon="1.22297">
        <ele>89</ele>
        <time>2023-08-09T14:32:37.000Z</time>
      </trkpt>
      <trkpt lat="49.93279" lon="1.22208">
        <ele>89.400001525879</ele>
        <time>2023-08-09T14:32:46.000Z</time>
      </trkpt>
      <trkpt lat="49.93264" lon="1.22127">
        <ele>89.800003051758</ele>
        <time>2023-08-09T14:32:54.000Z</time>
      </trkpt>
      <trkpt lat="49.93257" lon="1.22086">
        <ele>89.800003051758</ele>
        <time>2023-08-09T14:32:58.000Z</time>
      </trkpt>
      <trkpt lat="49.93242" lon="1.22006">
        <ele>89.800003051758</ele>
        <time>2023-08-09T14:33:06.000Z</time>
      </trkpt>
      <trkpt lat="49.9324" lon="1.21995">
        <ele>89.800003051758</ele>
        <time>2023-08-09T14:33:07.000Z</time>
      </trkpt>
      <trkpt lat="49.93225" lon="1.21913">
        <ele>89.800003051758</ele>
        <time>2023-08-09T14:33:15.000Z</time>
      </trkpt>
      <trkpt lat="49.93216" lon="1.21862">
        <ele>89.599998474121</ele>
        <time>2023-08-09T14:33:20.000Z</time>
      </trkpt>
      <trkpt lat="49.93201" lon="1.21778">
        <ele>89.199996948242</ele>
        <time>2023-08-09T14:33:28.000Z</time>
      </trkpt>
      <trkpt lat="49.93193" lon="1.21736">
        <ele>89.199996948242</ele>
        <time>2023-08-09T14:33:32.000Z</time>
      </trkpt>
      <trkpt lat="49.93178" lon="1.21654">
        <ele>89.199996948242</ele>
        <time>2023-08-09T14:33:40.000Z</time>
      </trkpt>
      <trkpt lat="49.93176" lon="1.21644">
        <ele>89.199996948242</ele>
        <time>2023-08-09T14:33:41.000Z</time>
      </trkpt>
      <trkpt lat="49.9316" lon="1.21585">
        <ele>89.199996948242</ele>
        <time>2023-08-09T14:33:47.000Z</time>
      </trkpt>
      <trkpt lat="49.93136" lon="1.21521">
        <ele>89</ele>
        <time>2023-08-09T14:33:54.000Z</time>
      </trkpt>
      <trkpt lat="49.93106" lon="1.21446">
        <ele>88.800003051758</ele>
        <time>2023-08-09T14:34:02.000Z</time>
      </trkpt>
      <trkpt lat="49.93099" lon="1.21427">
        <ele>88.800003051758</ele>
        <time>2023-08-09T14:34:04.000Z</time>
      </trkpt>
      <trkpt lat="49.93069" lon="1.21349">
        <ele>88.800003051758</ele>
        <time>2023-08-09T14:34:12.000Z</time>
      </trkpt>
      <trkpt lat="49.93065" lon="1.2134">
        <ele>88.800003051758</ele>
        <time>2023-08-09T14:34:13.000Z</time>
      </trkpt>
      <trkpt lat="49.93061" lon="1.21331">
        <ele>88.800003051758</ele>
        <time>2023-08-09T14:34:14.000Z</time>
      </trkpt>
      <trkpt lat="49.93031" lon="1.21254">
        <ele>88.599998474121</ele>
        <time>2023-08-09T14:34:22.000Z</time>
      </trkpt>
      <trkpt lat="49.93027" lon="1.21245">
        <ele>88.599998474121</ele>
        <time>2023-08-09T14:34:23.000Z</time>
      </trkpt>
      <trkpt lat="49.93012" lon="1.21206">
        <ele>88.199996948242</ele>
        <time>2023-08-09T14:34:27.000Z</time>
      </trkpt>
      <trkpt lat="49.9299" lon="1.21164">
        <ele>87.800003051758</ele>
        <time>2023-08-09T14:34:32.000Z</time>
      </trkpt>
      <trkpt lat="49.9295" lon="1.21118">
        <ele>87.599998474121</ele>
        <time>2023-08-09T14:34:39.000Z</time>
      </trkpt>
      <trkpt lat="49.92901" lon="1.21069">
        <ele>87.199996948242</ele>
        <time>2023-08-09T14:34:47.000Z</time>
      </trkpt>
      <trkpt lat="49.92895" lon="1.21062">
        <ele>87</ele>
        <time>2023-08-09T14:34:48.000Z</time>
      </trkpt>
      <trkpt lat="49.92863" lon="1.21013">
        <ele>86.599998474121</ele>
        <time>2023-08-09T14:34:54.000Z</time>
      </trkpt>
      <trkpt lat="49.92839" lon="1.20958">
        <ele>86.199996948242</ele>
        <time>2023-08-09T14:35:00.000Z</time>
      </trkpt>
      <trkpt lat="49.92809" lon="1.20887">
        <ele>85.599998474121</ele>
        <time>2023-08-09T14:35:08.000Z</time>
      </trkpt>
      <trkpt lat="49.9278" lon="1.20816">
        <ele>85.199996948242</ele>
        <time>2023-08-09T14:35:16.000Z</time>
      </trkpt>
      <trkpt lat="49.92772" lon="1.20799">
        <ele>85.199996948242</ele>
        <time>2023-08-09T14:35:18.000Z</time>
      </trkpt>
      <trkpt lat="49.92769" lon="1.2079">
        <ele>85</ele>
        <time>2023-08-09T14:35:19.000Z</time>
      </trkpt>
      <trkpt lat="49.92742" lon="1.20725">
        <ele>84.800003051758</ele>
        <time>2023-08-09T14:35:27.000Z</time>
      </trkpt>
      <trkpt lat="49.92719" lon="1.20671">
        <ele>84.599998474121</ele>
        <time>2023-08-09T14:35:34.000Z</time>
      </trkpt>
      <trkpt lat="49.92689" lon="1.206">
        <ele>84.199996948242</ele>
        <time>2023-08-09T14:35:43.000Z</time>
      </trkpt>
      <trkpt lat="49.92679" lon="1.20577">
        <ele>84</ele>
        <time>2023-08-09T14:35:46.000Z</time>
      </trkpt>
      <trkpt lat="49.92653" lon="1.20515">
        <ele>83.800003051758</ele>
        <time>2023-08-09T14:35:54.000Z</time>
      </trkpt>
      <trkpt lat="49.92623" lon="1.20442">
        <ele>83.199996948242</ele>
        <time>2023-08-09T14:36:04.000Z</time>
      </trkpt>
      <trkpt lat="49.92595" lon="1.20376">
        <ele>83.199996948242</ele>
        <time>2023-08-09T14:36:13.000Z</time>
      </trkpt>
      <trkpt lat="49.92569" lon="1.20316">
        <ele>83.199996948242</ele>
        <time>2023-08-09T14:36:22.000Z</time>
      </trkpt>
      <trkpt lat="49.92542" lon="1.20249">
        <ele>83</ele>
        <time>2023-08-09T14:36:31.000Z</time>
      </trkpt>
      <trkpt lat="49.9251" lon="1.20174">
        <ele>83.199996948242</ele>
        <time>2023-08-09T14:36:40.000Z</time>
      </trkpt>
      <trkpt lat="49.92483" lon="1.20109">
        <ele>83.199996948242</ele>
        <time>2023-08-09T14:36:49.000Z</time>
      </trkpt>
      <trkpt lat="49.92462" lon="1.20063">
        <ele>83</ele>
        <time>2023-08-09T14:36:56.000Z</time>
      </trkpt>
      <trkpt lat="49.92453" lon="1.20039">
        <ele>83</ele>
        <time>2023-08-09T14:36:58.000Z</time>
      </trkpt>
      <trkpt lat="49.92427" lon="1.19977">
        <ele>82.400001525879</ele>
        <time>2023-08-09T14:37:05.000Z</time>
      </trkpt>
      <trkpt lat="49.9241" lon="1.19937">
        <ele>81.599998474121</ele>
        <time>2023-08-09T14:37:09.000Z</time>
      </trkpt>
      <trkpt lat="49.92398" lon="1.19909">
        <ele>80.400001525879</ele>
        <time>2023-08-09T14:37:12.000Z</time>
      </trkpt>
      <trkpt lat="49.92386" lon="1.19884">
        <ele>79.400001525879</ele>
        <time>2023-08-09T14:37:15.000Z</time>
      </trkpt>
      <trkpt lat="49.92382" lon="1.19877">
        <ele>79.199996948242</ele>
        <time>2023-08-09T14:37:16.000Z</time>
      </trkpt>
      <trkpt lat="49.9237" lon="1.19855">
        <ele>78.199996948242</ele>
        <time>2023-08-09T14:37:19.000Z</time>
      </trkpt>
      <trkpt lat="49.92361" lon="1.19842">
        <ele>77.800003051758</ele>
        <time>2023-08-09T14:37:21.000Z</time>
      </trkpt>
      <trkpt lat="49.9235" lon="1.19828">
        <ele>77</ele>
        <time>2023-08-09T14:37:23.000Z</time>
      </trkpt>
      <trkpt lat="49.9234" lon="1.19814">
        <ele>76</ele>
        <time>2023-08-09T14:37:26.000Z</time>
      </trkpt>
      <trkpt lat="49.92319" lon="1.19787">
        <ele>75.400001525879</ele>
        <time>2023-08-09T14:37:29.000Z</time>
      </trkpt>
      <trkpt lat="49.92314" lon="1.19779">
        <ele>74.800003051758</ele>
        <time>2023-08-09T14:37:30.000Z</time>
      </trkpt>
      <trkpt lat="49.92305" lon="1.1976">
        <ele>73.599998474121</ele>
        <time>2023-08-09T14:37:32.000Z</time>
      </trkpt>
      <trkpt lat="49.923" lon="1.19749">
        <ele>73</ele>
        <time>2023-08-09T14:37:33.000Z</time>
      </trkpt>
      <trkpt lat="49.92291" lon="1.19727">
        <ele>72.400001525879</ele>
        <time>2023-08-09T14:37:35.000Z</time>
      </trkpt>
      <trkpt lat="49.92279" lon="1.19709">
        <ele>71.599998474121</ele>
        <time>2023-08-09T14:37:37.000Z</time>
      </trkpt>
      <trkpt lat="49.92272" lon="1.19702">
        <ele>71</ele>
        <time>2023-08-09T14:37:38.000Z</time>
      </trkpt>
      <trkpt lat="49.92257" lon="1.1969">
        <ele>70</ele>
        <time>2023-08-09T14:37:40.000Z</time>
      </trkpt>
      <trkpt lat="49.92248" lon="1.19686">
        <ele>69.800003051758</ele>
        <time>2023-08-09T14:37:41.000Z</time>
      </trkpt>
      <trkpt lat="49.9224" lon="1.19683">
        <ele>69.199996948242</ele>
        <time>2023-08-09T14:37:42.000Z</time>
      </trkpt>
      <trkpt lat="49.92222" lon="1.19682">
        <ele>68.599998474121</ele>
        <time>2023-08-09T14:37:44.000Z</time>
      </trkpt>
      <trkpt lat="49.92214" lon="1.19684">
        <ele>68.400001525879</ele>
        <time>2023-08-09T14:37:45.000Z</time>
      </trkpt>
      <trkpt lat="49.92189" lon="1.19696">
        <ele>67.800003051758</ele>
        <time>2023-08-09T14:37:48.000Z</time>
      </trkpt>
      <trkpt lat="49.9218" lon="1.19699">
        <ele>67.400001525879</ele>
        <time>2023-08-09T14:37:49.000Z</time>
      </trkpt>
      <trkpt lat="49.92165" lon="1.19697">
        <ele>66.199996948242</ele>
        <time>2023-08-09T14:37:51.000Z</time>
      </trkpt>
      <trkpt lat="49.92154" lon="1.19673">
        <ele>64.599998474121</ele>
        <time>2023-08-09T14:37:54.000Z</time>
      </trkpt>
      <trkpt lat="49.92163" lon="1.19654">
        <ele>64</ele>
        <time>2023-08-09T14:37:56.000Z</time>
      </trkpt>
      <trkpt lat="49.9217" lon="1.19648">
        <ele>64</ele>
        <time>2023-08-09T14:37:57.000Z</time>
      </trkpt>
      <trkpt lat="49.92177" lon="1.19643">
        <ele>63.599998474121</ele>
        <time>2023-08-09T14:37:58.000Z</time>
      </trkpt>
      <trkpt lat="49.92194" lon="1.19636">
        <ele>62.799999237061</ele>
        <time>2023-08-09T14:38:00.000Z</time>
      </trkpt>
      <trkpt lat="49.92203" lon="1.19633">
        <ele>62.200000762939</ele>
        <time>2023-08-09T14:38:01.000Z</time>
      </trkpt>
      <trkpt lat="49.92231" lon="1.19625">
        <ele>61.200000762939</ele>
        <time>2023-08-09T14:38:04.000Z</time>
      </trkpt>
      <trkpt lat="49.9224" lon="1.19622">
        <ele>60.599998474121</ele>
        <time>2023-08-09T14:38:05.000Z</time>
      </trkpt>
      <trkpt lat="49.9225" lon="1.1962">
        <ele>59.799999237061</ele>
        <time>2023-08-09T14:38:06.000Z</time>
      </trkpt>
      <trkpt lat="49.9228" lon="1.19613">
        <ele>58.799999237061</ele>
        <time>2023-08-09T14:38:09.000Z</time>
      </trkpt>
      <trkpt lat="49.92305" lon="1.19605">
        <ele>57</ele>
        <time>2023-08-09T14:38:12.000Z</time>
      </trkpt>
      <trkpt lat="49.92312" lon="1.19599">
        <ele>56.400001525879</ele>
        <time>2023-08-09T14:38:13.000Z</time>
      </trkpt>
      <trkpt lat="49.92317" lon="1.19592">
        <ele>56</ele>
        <time>2023-08-09T14:38:14.000Z</time>
      </trkpt>
      <trkpt lat="49.9232" lon="1.19571">
        <ele>55</ele>
        <time>2023-08-09T14:38:16.000Z</time>
      </trkpt>
      <trkpt lat="49.92315" lon="1.1953">
        <ele>53.799999237061</ele>
        <time>2023-08-09T14:38:19.000Z</time>
      </trkpt>
      <trkpt lat="49.92311" lon="1.19515">
        <ele>53.200000762939</ele>
        <time>2023-08-09T14:38:20.000Z</time>
      </trkpt>
      <trkpt lat="49.92307" lon="1.195">
        <ele>53</ele>
        <time>2023-08-09T14:38:21.000Z</time>
      </trkpt>
      <trkpt lat="49.92305" lon="1.19485">
        <ele>52.599998474121</ele>
        <time>2023-08-09T14:38:22.000Z</time>
      </trkpt>
      <trkpt lat="49.92304" lon="1.1947">
        <ele>52.200000762939</ele>
        <time>2023-08-09T14:38:23.000Z</time>
      </trkpt>
      <trkpt lat="49.92304" lon="1.19454">
        <ele>51</ele>
        <time>2023-08-09T14:38:24.000Z</time>
      </trkpt>
      <trkpt lat="49.92305" lon="1.19423">
        <ele>49.599998474121</ele>
        <time>2023-08-09T14:38:26.000Z</time>
      </trkpt>
      <trkpt lat="49.92305" lon="1.1939">
        <ele>48.400001525879</ele>
        <time>2023-08-09T14:38:28.000Z</time>
      </trkpt>
      <trkpt lat="49.92306" lon="1.19375">
        <ele>47.599998474121</ele>
        <time>2023-08-09T14:38:29.000Z</time>
      </trkpt>
      <trkpt lat="49.92306" lon="1.19359">
        <ele>47.200000762939</ele>
        <time>2023-08-09T14:38:30.000Z</time>
      </trkpt>
      <trkpt lat="49.92308" lon="1.19329">
        <ele>46</ele>
        <time>2023-08-09T14:38:32.000Z</time>
      </trkpt>
      <trkpt lat="49.92311" lon="1.193">
        <ele>44.599998474121</ele>
        <time>2023-08-09T14:38:34.000Z</time>
      </trkpt>
      <trkpt lat="49.92313" lon="1.19286">
        <ele>44.400001525879</ele>
        <time>2023-08-09T14:38:35.000Z</time>
      </trkpt>
      <trkpt lat="49.92319" lon="1.19243">
        <ele>43</ele>
        <time>2023-08-09T14:38:38.000Z</time>
      </trkpt>
      <trkpt lat="49.92324" lon="1.19214">
        <ele>42</ele>
        <time>2023-08-09T14:38:40.000Z</time>
      </trkpt>
      <trkpt lat="49.9233" lon="1.1917">
        <ele>40.599998474121</ele>
        <time>2023-08-09T14:38:43.000Z</time>
      </trkpt>
      <trkpt lat="49.92332" lon="1.19155">
        <ele>40</ele>
        <time>2023-08-09T14:38:44.000Z</time>
      </trkpt>
      <trkpt lat="49.92334" lon="1.1914">
        <ele>39.200000762939</ele>
        <time>2023-08-09T14:38:45.000Z</time>
      </trkpt>
      <trkpt lat="49.92339" lon="1.19094">
        <ele>37</ele>
        <time>2023-08-09T14:38:48.000Z</time>
      </trkpt>
      <trkpt lat="49.9234" lon="1.19078">
        <ele>36.599998474121</ele>
        <time>2023-08-09T14:38:49.000Z</time>
      </trkpt>
      <trkpt lat="49.9234" lon="1.19063">
        <ele>35.599998474121</ele>
        <time>2023-08-09T14:38:50.000Z</time>
      </trkpt>
      <trkpt lat="49.92338" lon="1.19031">
        <ele>34.400001525879</ele>
        <time>2023-08-09T14:38:52.000Z</time>
      </trkpt>
      <trkpt lat="49.92336" lon="1.18999">
        <ele>33</ele>
        <time>2023-08-09T14:38:54.000Z</time>
      </trkpt>
      <trkpt lat="49.92334" lon="1.18968">
        <ele>31.799999237061</ele>
        <time>2023-08-09T14:38:56.000Z</time>
      </trkpt>
      <trkpt lat="49.92332" lon="1.18953">
        <ele>31</ele>
        <time>2023-08-09T14:38:57.000Z</time>
      </trkpt>
      <trkpt lat="49.92329" lon="1.18938">
        <ele>30.60000038147</ele>
        <time>2023-08-09T14:38:58.000Z</time>
      </trkpt>
      <trkpt lat="49.9232" lon="1.1891">
        <ele>30</ele>
        <time>2023-08-09T14:39:00.000Z</time>
      </trkpt>
      <trkpt lat="49.92313" lon="1.18897">
        <ele>29.200000762939</ele>
        <time>2023-08-09T14:39:01.000Z</time>
      </trkpt>
      <trkpt lat="49.92306" lon="1.18886">
        <ele>28.799999237061</ele>
        <time>2023-08-09T14:39:02.000Z</time>
      </trkpt>
      <trkpt lat="49.92306" lon="1.18886">
        <ele>28.60000038147</ele>
        <time>2023-08-09T14:39:03.000Z</time>
      </trkpt>
      <trkpt lat="49.92297" lon="1.18876">
        <ele>28.200000762939</ele>
        <time>2023-08-09T14:39:04.000Z</time>
      </trkpt>
      <trkpt lat="49.92268" lon="1.1885">
        <ele>27</ele>
        <time>2023-08-09T14:39:06.000Z</time>
      </trkpt>
      <trkpt lat="49.92258" lon="1.18842">
        <ele>26.799999237061</ele>
        <time>2023-08-09T14:39:07.000Z</time>
      </trkpt>
      <trkpt lat="49.92237" lon="1.18825">
        <ele>25.799999237061</ele>
        <time>2023-08-09T14:39:09.000Z</time>
      </trkpt>
      <trkpt lat="49.92215" lon="1.18807">
        <ele>24.200000762939</ele>
        <time>2023-08-09T14:39:11.000Z</time>
      </trkpt>
      <trkpt lat="49.92194" lon="1.18788">
        <ele>22.60000038147</ele>
        <time>2023-08-09T14:39:13.000Z</time>
      </trkpt>
      <trkpt lat="49.92174" lon="1.18771">
        <ele>21.39999961853</ele>
        <time>2023-08-09T14:39:15.000Z</time>
      </trkpt>
      <trkpt lat="49.92157" lon="1.18756">
        <ele>20.200000762939</ele>
        <time>2023-08-09T14:39:17.000Z</time>
      </trkpt>
      <trkpt lat="49.92149" lon="1.18749">
        <ele>19.39999961853</ele>
        <time>2023-08-09T14:39:18.000Z</time>
      </trkpt>
      <trkpt lat="49.92149" lon="1.18749">
        <ele>19.200000762939</ele>
        <time>2023-08-09T14:39:19.000Z</time>
      </trkpt>
      <trkpt lat="49.92137" lon="1.18738">
        <ele>18.60000038147</ele>
        <time>2023-08-09T14:39:20.000Z</time>
      </trkpt>
      <trkpt lat="49.92129" lon="1.18728">
        <ele>18.200000762939</ele>
        <time>2023-08-09T14:39:22.000Z</time>
      </trkpt>
      <trkpt lat="49.9212" lon="1.18715">
        <ele>18.200000762939</ele>
        <time>2023-08-09T14:39:25.000Z</time>
      </trkpt>
      <trkpt lat="49.92116" lon="1.18712">
        <ele>18.200000762939</ele>
        <time>2023-08-09T14:39:26.000Z</time>
      </trkpt>
      <trkpt lat="49.92089" lon="1.18696">
        <ele>19</ele>
        <time>2023-08-09T14:39:31.000Z</time>
      </trkpt>
      <trkpt lat="49.92084" lon="1.18691">
        <ele>19</ele>
        <time>2023-08-09T14:39:32.000Z</time>
      </trkpt>
      <trkpt lat="49.92042" lon="1.18656">
        <ele>18.799999237061</ele>
        <time>2023-08-09T14:39:39.000Z</time>
      </trkpt>
      <trkpt lat="49.9201" lon="1.18632">
        <ele>18.39999961853</ele>
        <time>2023-08-09T14:39:44.000Z</time>
      </trkpt>
      <trkpt lat="49.92002" lon="1.18629">
        <ele>18</ele>
        <time>2023-08-09T14:39:45.000Z</time>
      </trkpt>
      <trkpt lat="49.91964" lon="1.18628">
        <ele>16.799999237061</ele>
        <time>2023-08-09T14:39:50.000Z</time>
      </trkpt>
      <trkpt lat="49.91927" lon="1.1864">
        <ele>15.60000038147</ele>
        <time>2023-08-09T14:39:55.000Z</time>
      </trkpt>
      <trkpt lat="49.91905" lon="1.18649">
        <ele>14.60000038147</ele>
        <time>2023-08-09T14:39:58.000Z</time>
      </trkpt>
      <trkpt lat="49.91877" lon="1.1866">
        <ele>13.39999961853</ele>
        <time>2023-08-09T14:40:02.000Z</time>
      </trkpt>
      <trkpt lat="49.91835" lon="1.18675">
        <ele>12.800000190735</ele>
        <time>2023-08-09T14:40:08.000Z</time>
      </trkpt>
      <trkpt lat="49.91793" lon="1.1869">
        <ele>12.199999809265</ele>
        <time>2023-08-09T14:40:14.000Z</time>
      </trkpt>
      <trkpt lat="49.91752" lon="1.18705">
        <ele>11.800000190735</ele>
        <time>2023-08-09T14:40:20.000Z</time>
      </trkpt>
      <trkpt lat="49.91697" lon="1.18723">
        <ele>11.39999961853</ele>
        <time>2023-08-09T14:40:28.000Z</time>
      </trkpt>
      <trkpt lat="49.91684" lon="1.18728">
        <ele>11.199999809265</ele>
        <time>2023-08-09T14:40:30.000Z</time>
      </trkpt>
      <trkpt lat="49.9167" lon="1.18733">
        <ele>11</ele>
        <time>2023-08-09T14:40:32.000Z</time>
      </trkpt>
      <trkpt lat="49.91616" lon="1.18752">
        <ele>10.39999961853</ele>
        <time>2023-08-09T14:40:40.000Z</time>
      </trkpt>
      <trkpt lat="49.9158" lon="1.18765">
        <ele>10.199999809265</ele>
        <time>2023-08-09T14:40:45.000Z</time>
      </trkpt>
      <trkpt lat="49.91525" lon="1.18786">
        <ele>9.8000001907349</ele>
        <time>2023-08-09T14:40:53.000Z</time>
      </trkpt>
      <trkpt lat="49.91477" lon="1.18802">
        <ele>9.3999996185303</ele>
        <time>2023-08-09T14:41:00.000Z</time>
      </trkpt>
      <trkpt lat="49.91456" lon="1.1881">
        <ele>9.1999998092651</ele>
        <time>2023-08-09T14:41:03.000Z</time>
      </trkpt>
      <trkpt lat="49.91401" lon="1.1883">
        <ele>9</ele>
        <time>2023-08-09T14:41:11.000Z</time>
      </trkpt>
      <trkpt lat="49.91347" lon="1.1885">
        <ele>8.6000003814697</ele>
        <time>2023-08-09T14:41:19.000Z</time>
      </trkpt>
      <trkpt lat="49.91328" lon="1.18857">
        <ele>8.3999996185303</ele>
        <time>2023-08-09T14:41:22.000Z</time>
      </trkpt>
      <trkpt lat="49.91304" lon="1.18866">
        <ele>8.3999996185303</ele>
        <time>2023-08-09T14:41:26.000Z</time>
      </trkpt>
      <trkpt lat="49.91292" lon="1.18866">
        <ele>8.3999996185303</ele>
        <time>2023-08-09T14:41:28.000Z</time>
      </trkpt>
      <trkpt lat="49.91283" lon="1.18862">
        <ele>8.3999996185303</ele>
        <time>2023-08-09T14:41:30.000Z</time>
      </trkpt>
      <trkpt lat="49.91275" lon="1.18857">
        <ele>8.3999996185303</ele>
        <time>2023-08-09T14:41:32.000Z</time>
      </trkpt>
      <trkpt lat="49.91267" lon="1.18861">
        <ele>8.6000003814697</ele>
        <time>2023-08-09T14:41:34.000Z</time>
      </trkpt>
      <trkpt lat="49.91263" lon="1.18865">
        <ele>8.6000003814697</ele>
        <time>2023-08-09T14:41:35.000Z</time>
      </trkpt>
      <trkpt lat="49.91253" lon="1.1888">
        <ele>9</ele>
        <time>2023-08-09T14:41:37.000Z</time>
      </trkpt>
      <trkpt lat="49.91244" lon="1.18889">
        <ele>9.1999998092651</ele>
        <time>2023-08-09T14:41:39.000Z</time>
      </trkpt>
      <trkpt lat="49.91208" lon="1.18912">
        <ele>9.1999998092651</ele>
        <time>2023-08-09T14:41:45.000Z</time>
      </trkpt>
      <trkpt lat="49.91202" lon="1.18913">
        <ele>9</ele>
        <time>2023-08-09T14:41:46.000Z</time>
      </trkpt>
      <trkpt lat="49.91195" lon="1.18911">
        <ele>9</ele>
        <time>2023-08-09T14:41:47.000Z</time>
      </trkpt>
      <trkpt lat="49.9119" lon="1.18907">
        <ele>8.8000001907349</ele>
        <time>2023-08-09T14:41:48.000Z</time>
      </trkpt>
      <trkpt lat="49.91185" lon="1.18899">
        <ele>8.8000001907349</ele>
        <time>2023-08-09T14:41:49.000Z</time>
      </trkpt>
      <trkpt lat="49.91178" lon="1.18883">
        <ele>8.6000003814697</ele>
        <time>2023-08-09T14:41:51.000Z</time>
      </trkpt>
      <trkpt lat="49.9115" lon="1.18811">
        <ele>8.3999996185303</ele>
        <time>2023-08-09T14:42:00.000Z</time>
      </trkpt>
      <trkpt lat="49.91128" lon="1.18749">
        <ele>8.6000003814697</ele>
        <time>2023-08-09T14:42:08.000Z</time>
      </trkpt>
      <trkpt lat="49.91121" lon="1.18698">
        <ele>8.8000001907349</ele>
        <time>2023-08-09T14:42:14.000Z</time>
      </trkpt>
      <trkpt lat="49.91117" lon="1.18657">
        <ele>9</ele>
        <time>2023-08-09T14:42:19.000Z</time>
      </trkpt>
      <trkpt lat="49.91113" lon="1.18606">
        <ele>9.1999998092651</ele>
        <time>2023-08-09T14:42:25.000Z</time>
      </trkpt>
      <trkpt lat="49.91104" lon="1.18517">
        <ele>8.8000001907349</ele>
        <time>2023-08-09T14:42:35.000Z</time>
      </trkpt>
      <trkpt lat="49.91103" lon="1.18507">
        <ele>8.8000001907349</ele>
        <time>2023-08-09T14:42:36.000Z</time>
      </trkpt>
      <trkpt lat="49.911" lon="1.18476">
        <ele>8.3999996185303</ele>
        <time>2023-08-09T14:42:39.000Z</time>
      </trkpt>
      <trkpt lat="49.91097" lon="1.18435">
        <ele>7.8000001907349</ele>
        <time>2023-08-09T14:42:43.000Z</time>
      </trkpt>
      <trkpt lat="49.91094" lon="1.18404">
        <ele>7.1999998092651</ele>
        <time>2023-08-09T14:42:46.000Z</time>
      </trkpt>
      <trkpt lat="49.91089" lon="1.18352">
        <ele>6.4000000953674</ele>
        <time>2023-08-09T14:42:51.000Z</time>
      </trkpt>
      <trkpt lat="49.91088" lon="1.18339">
        <ele>6.1999998092651</ele>
        <time>2023-08-09T14:42:52.000Z</time>
      </trkpt>
      <trkpt lat="49.9108" lon="1.18267">
        <ele>5.1999998092651</ele>
        <time>2023-08-09T14:42:59.000Z</time>
      </trkpt>
      <trkpt lat="49.91079" lon="1.18256">
        <ele>5</ele>
        <time>2023-08-09T14:43:00.000Z</time>
      </trkpt>
      <trkpt lat="49.91073" lon="1.18203">
        <ele>4.1999998092651</ele>
        <time>2023-08-09T14:43:05.000Z</time>
      </trkpt>
      <trkpt lat="49.91068" lon="1.18152">
        <ele>3.4000000953674</ele>
        <time>2023-08-09T14:43:10.000Z</time>
      </trkpt>
      <trkpt lat="49.91065" lon="1.18112">
        <ele>3.2000000476837</ele>
        <time>2023-08-09T14:43:14.000Z</time>
      </trkpt>
      <trkpt lat="49.91062" lon="1.18082">
        <ele>2.7999999523163</ele>
        <time>2023-08-09T14:43:17.000Z</time>
      </trkpt>
      <trkpt lat="49.9106" lon="1.18063">
        <ele>2.2000000476837</ele>
        <time>2023-08-09T14:43:19.000Z</time>
      </trkpt>
      <trkpt lat="49.9105" lon="1.18007">
        <ele>1.7999999523163</ele>
        <time>2023-08-09T14:43:25.000Z</time>
      </trkpt>
      <trkpt lat="49.91044" lon="1.1798">
        <ele>1.3999999761581</ele>
        <time>2023-08-09T14:43:28.000Z</time>
      </trkpt>
      <trkpt lat="49.91043" lon="1.17961">
        <ele>1.2000000476837</ele>
        <time>2023-08-09T14:43:30.000Z</time>
      </trkpt>
      <trkpt lat="49.91043" lon="1.1791">
        <ele>1.2000000476837</ele>
        <time>2023-08-09T14:43:36.000Z</time>
      </trkpt>
      <trkpt lat="49.91043" lon="1.1789">
        <ele>1.2000000476837</ele>
        <time>2023-08-09T14:43:39.000Z</time>
      </trkpt>
      <trkpt lat="49.9104" lon="1.1787">
        <ele>1.7999999523163</ele>
        <time>2023-08-09T14:43:42.000Z</time>
      </trkpt>
      <trkpt lat="49.91031" lon="1.17817">
        <ele>2.7999999523163</ele>
        <time>2023-08-09T14:43:50.000Z</time>
      </trkpt>
      <trkpt lat="49.91015" lon="1.1776">
        <ele>3.2000000476837</ele>
        <time>2023-08-09T14:43:58.000Z</time>
      </trkpt>
      <trkpt lat="49.91013" lon="1.17752">
        <ele>3.2000000476837</ele>
        <time>2023-08-09T14:43:59.000Z</time>
      </trkpt>
      <trkpt lat="49.91006" lon="1.17708">
        <ele>3.4000000953674</ele>
        <time>2023-08-09T14:44:05.000Z</time>
      </trkpt>
      <trkpt lat="49.91001" lon="1.17642">
        <ele>3.5999999046326</ele>
        <time>2023-08-09T14:44:14.000Z</time>
      </trkpt>
      <trkpt lat="49.90997" lon="1.17571">
        <ele>4</ele>
        <time>2023-08-09T14:44:24.000Z</time>
      </trkpt>
      <trkpt lat="49.90992" lon="1.17533">
        <ele>4.1999998092651</ele>
        <time>2023-08-09T14:44:29.000Z</time>
      </trkpt>
      <trkpt lat="49.90988" lon="1.17511">
        <ele>4.1999998092651</ele>
        <time>2023-08-09T14:44:32.000Z</time>
      </trkpt>
      <trkpt lat="49.90975" lon="1.17456">
        <ele>4</ele>
        <time>2023-08-09T14:44:39.000Z</time>
      </trkpt>
      <trkpt lat="49.90962" lon="1.17407">
        <ele>3</ele>
        <time>2023-08-09T14:44:45.000Z</time>
      </trkpt>
      <trkpt lat="49.90959" lon="1.17399">
        <ele>3</ele>
        <time>2023-08-09T14:44:46.000Z</time>
      </trkpt>
      <trkpt lat="49.90944" lon="1.17347">
        <ele>2</ele>
        <time>2023-08-09T14:44:52.000Z</time>
      </trkpt>
      <trkpt lat="49.90929" lon="1.17302">
        <ele>1.2000000476837</ele>
        <time>2023-08-09T14:44:57.000Z</time>
      </trkpt>
      <trkpt lat="49.90922" lon="1.17283">
        <ele>0.80000001192093</ele>
        <time>2023-08-09T14:44:59.000Z</time>
      </trkpt>
      <trkpt lat="49.90905" lon="1.17234">
        <ele>-0.20000000298023</ele>
        <time>2023-08-09T14:45:04.000Z</time>
      </trkpt>
      <trkpt lat="49.90902" lon="1.17225">
        <ele>-0.20000000298023</ele>
        <time>2023-08-09T14:45:05.000Z</time>
      </trkpt>
      <trkpt lat="49.9088" lon="1.17159">
        <ele>-0.80000001192093</ele>
        <time>2023-08-09T14:45:13.000Z</time>
      </trkpt>
      <trkpt lat="49.90867" lon="1.1712">
        <ele>-0.60000002384186</ele>
        <time>2023-08-09T14:45:18.000Z</time>
      </trkpt>
      <trkpt lat="49.90861" lon="1.17107">
        <ele>-0.60000002384186</ele>
        <time>2023-08-09T14:45:20.000Z</time>
      </trkpt>
      <trkpt lat="49.90842" lon="1.17049">
        <ele>-0.60000002384186</ele>
        <time>2023-08-09T14:45:27.000Z</time>
      </trkpt>
      <trkpt lat="49.90823" lon="1.16992">
        <ele>-1</ele>
        <time>2023-08-09T14:45:34.000Z</time>
      </trkpt>
      <trkpt lat="49.90817" lon="1.16974">
        <ele>-1.2000000476837</ele>
        <time>2023-08-09T14:45:36.000Z</time>
      </trkpt>
      <trkpt lat="49.90799" lon="1.16911">
        <ele>-2</ele>
        <time>2023-08-09T14:45:43.000Z</time>
      </trkpt>
      <trkpt lat="49.90797" lon="1.16901">
        <ele>-2</ele>
        <time>2023-08-09T14:45:44.000Z</time>
      </trkpt>
      <trkpt lat="49.90774" lon="1.16819">
        <ele>-2.7999999523163</ele>
        <time>2023-08-09T14:45:53.000Z</time>
      </trkpt>
      <trkpt lat="49.9077" lon="1.16804">
        <ele>-3</ele>
        <time>2023-08-09T14:45:55.000Z</time>
      </trkpt>
      <trkpt lat="49.90768" lon="1.16796">
        <ele>-3</ele>
        <time>2023-08-09T14:45:56.000Z</time>
      </trkpt>
      <trkpt lat="49.90752" lon="1.16739">
        <ele>-3.2000000476837</ele>
        <time>2023-08-09T14:46:03.000Z</time>
      </trkpt>
      <trkpt lat="49.90736" lon="1.16671">
        <ele>-3.2000000476837</ele>
        <time>2023-08-09T14:46:11.000Z</time>
      </trkpt>
      <trkpt lat="49.90726" lon="1.16603">
        <ele>-3.4000000953674</ele>
        <time>2023-08-09T14:46:19.000Z</time>
      </trkpt>
      <trkpt lat="49.90715" lon="1.16517">
        <ele>-3.4000000953674</ele>
        <time>2023-08-09T14:46:29.000Z</time>
      </trkpt>
      <trkpt lat="49.90714" lon="1.16507">
        <ele>-3.4000000953674</ele>
        <time>2023-08-09T14:46:30.000Z</time>
      </trkpt>
      <trkpt lat="49.90704" lon="1.16425">
        <ele>-3.4000000953674</ele>
        <time>2023-08-09T14:46:40.000Z</time>
      </trkpt>
      <trkpt lat="49.90697" lon="1.16373">
        <ele>-3.5999999046326</ele>
        <time>2023-08-09T14:46:46.000Z</time>
      </trkpt>
      <trkpt lat="49.90693" lon="1.16348">
        <ele>-3.5999999046326</ele>
        <time>2023-08-09T14:46:49.000Z</time>
      </trkpt>
      <trkpt lat="49.90683" lon="1.16271">
        <ele>-3.5999999046326</ele>
        <time>2023-08-09T14:46:58.000Z</time>
      </trkpt>
      <trkpt lat="49.90673" lon="1.16195">
        <ele>-3.4000000953674</ele>
        <time>2023-08-09T14:47:07.000Z</time>
      </trkpt>
      <trkpt lat="49.90663" lon="1.16111">
        <ele>-3.2000000476837</ele>
        <time>2023-08-09T14:47:17.000Z</time>
      </trkpt>
      <trkpt lat="49.90652" lon="1.16046">
        <ele>-3.2000000476837</ele>
        <time>2023-08-09T14:47:25.000Z</time>
      </trkpt>
      <trkpt lat="49.90634" lon="1.15963">
        <ele>-3</ele>
        <time>2023-08-09T14:47:36.000Z</time>
      </trkpt>
      <trkpt lat="49.90633" lon="1.15948">
        <ele>-2.7999999523163</ele>
        <time>2023-08-09T14:47:38.000Z</time>
      </trkpt>
      <trkpt lat="49.90634" lon="1.15925">
        <ele>-2.5999999046326</ele>
        <time>2023-08-09T14:47:41.000Z</time>
      </trkpt>
      <trkpt lat="49.90646" lon="1.15875">
        <ele>-2</ele>
        <time>2023-08-09T14:47:48.000Z</time>
      </trkpt>
      <trkpt lat="49.90646" lon="1.15859">
        <ele>-1.7999999523163</ele>
        <time>2023-08-09T14:47:50.000Z</time>
      </trkpt>
      <trkpt lat="49.90645" lon="1.1585">
        <ele>-1.7999999523163</ele>
        <time>2023-08-09T14:47:51.000Z</time>
      </trkpt>
      <trkpt lat="49.90644" lon="1.15841">
        <ele>-1.7999999523163</ele>
        <time>2023-08-09T14:47:52.000Z</time>
      </trkpt>
      <trkpt lat="49.90642" lon="1.15832">
        <ele>-1.7999999523163</ele>
        <time>2023-08-09T14:47:53.000Z</time>
      </trkpt>
      <trkpt lat="49.90636" lon="1.15798">
        <ele>-1.7999999523163</ele>
        <time>2023-08-09T14:47:57.000Z</time>
      </trkpt>
      <trkpt lat="49.90622" lon="1.1573">
        <ele>-1.7999999523163</ele>
        <time>2023-08-09T14:48:05.000Z</time>
      </trkpt>
      <trkpt lat="49.90612" lon="1.15649">
        <ele>-1.6000000238419</ele>
        <time>2023-08-09T14:48:15.000Z</time>
      </trkpt>
      <trkpt lat="49.90603" lon="1.15566">
        <ele>-1.7999999523163</ele>
        <time>2023-08-09T14:48:25.000Z</time>
      </trkpt>
      <trkpt lat="49.90593" lon="1.15476">
        <ele>-1.7999999523163</ele>
        <time>2023-08-09T14:48:36.000Z</time>
      </trkpt>
      <trkpt lat="49.90584" lon="1.15392">
        <ele>-1.2000000476837</ele>
        <time>2023-08-09T14:48:46.000Z</time>
      </trkpt>
      <trkpt lat="49.90584" lon="1.15385">
        <ele>-1.2000000476837</ele>
        <time>2023-08-09T14:48:47.000Z</time>
      </trkpt>
      <trkpt lat="49.90581" lon="1.15361">
        <ele>-0.80000001192093</ele>
        <time>2023-08-09T14:48:50.000Z</time>
      </trkpt>
      <trkpt lat="49.90577" lon="1.15313">
        <ele>-0.40000000596046</ele>
        <time>2023-08-09T14:48:56.000Z</time>
      </trkpt>
      <trkpt lat="49.90571" lon="1.15226">
        <ele>0.20000000298023</ele>
        <time>2023-08-09T14:49:07.000Z</time>
      </trkpt>
      <trkpt lat="49.90571" lon="1.15218">
        <ele>0.20000000298023</ele>
        <time>2023-08-09T14:49:08.000Z</time>
      </trkpt>
      <trkpt lat="49.90568" lon="1.15146">
        <ele>1.2000000476837</ele>
        <time>2023-08-09T14:49:18.000Z</time>
      </trkpt>
      <trkpt lat="49.90568" lon="1.1513">
        <ele>1.3999999761581</ele>
        <time>2023-08-09T14:49:20.000Z</time>
      </trkpt>
      <trkpt lat="49.90563" lon="1.15078">
        <ele>2.2000000476837</ele>
        <time>2023-08-09T14:49:27.000Z</time>
      </trkpt>
      <trkpt lat="49.90562" lon="1.15065">
        <ele>2.5999999046326</ele>
        <time>2023-08-09T14:49:29.000Z</time>
      </trkpt>
      <trkpt lat="49.90554" lon="1.15021">
        <ele>3.4000000953674</ele>
        <time>2023-08-09T14:49:35.000Z</time>
      </trkpt>
      <trkpt lat="49.90552" lon="1.15006">
        <ele>3.5999999046326</ele>
        <time>2023-08-09T14:49:37.000Z</time>
      </trkpt>
      <trkpt lat="49.90539" lon="1.14951">
        <ele>4.4000000953674</ele>
        <time>2023-08-09T14:49:45.000Z</time>
      </trkpt>
      <trkpt lat="49.90523" lon="1.14876">
        <ele>4.4000000953674</ele>
        <time>2023-08-09T14:49:55.000Z</time>
      </trkpt>
      <trkpt lat="49.90518" lon="1.14859">
        <ele>4.4000000953674</ele>
        <time>2023-08-09T14:49:57.000Z</time>
      </trkpt>
      <trkpt lat="49.90505" lon="1.14827">
        <ele>4.1999998092651</ele>
        <time>2023-08-09T14:50:01.000Z</time>
      </trkpt>
      <trkpt lat="49.90477" lon="1.14773">
        <ele>3.4000000953674</ele>
        <time>2023-08-09T14:50:08.000Z</time>
      </trkpt>
      <trkpt lat="49.90446" lon="1.14718">
        <ele>2.4000000953674</ele>
        <time>2023-08-09T14:50:15.000Z</time>
      </trkpt>
      <trkpt lat="49.90423" lon="1.14666">
        <ele>1.6000000238419</ele>
        <time>2023-08-09T14:50:21.000Z</time>
      </trkpt>
      <trkpt lat="49.9042" lon="1.14657">
        <ele>1.3999999761581</ele>
        <time>2023-08-09T14:50:22.000Z</time>
      </trkpt>
      <trkpt lat="49.90394" lon="1.14588">
        <ele>0.20000000298023</ele>
        <time>2023-08-09T14:50:30.000Z</time>
      </trkpt>
      <trkpt lat="49.9039" lon="1.14579">
        <ele>0.20000000298023</ele>
        <time>2023-08-09T14:50:31.000Z</time>
      </trkpt>
      <trkpt lat="49.90378" lon="1.14544">
        <ele>-0.20000000298023</ele>
        <time>2023-08-09T14:50:35.000Z</time>
      </trkpt>
      <trkpt lat="49.90369" lon="1.14508">
        <ele>-0.60000002384186</ele>
        <time>2023-08-09T14:50:39.000Z</time>
      </trkpt>
      <trkpt lat="49.90367" lon="1.14496">
        <ele>-0.80000001192093</ele>
        <time>2023-08-09T14:50:40.000Z</time>
      </trkpt>
      <trkpt lat="49.90354" lon="1.14433">
        <ele>-1</ele>
        <time>2023-08-09T14:50:47.000Z</time>
      </trkpt>
      <trkpt lat="49.90343" lon="1.14377">
        <ele>-0.60000002384186</ele>
        <time>2023-08-09T14:50:54.000Z</time>
      </trkpt>
      <trkpt lat="49.90326" lon="1.14331">
        <ele>-0.40000000596046</ele>
        <time>2023-08-09T14:51:00.000Z</time>
      </trkpt>
      <trkpt lat="49.90306" lon="1.14307">
        <ele>-1</ele>
        <time>2023-08-09T14:51:04.000Z</time>
      </trkpt>
      <trkpt lat="49.90286" lon="1.14297">
        <ele>-1.6000000238419</ele>
        <time>2023-08-09T14:51:08.000Z</time>
      </trkpt>
      <trkpt lat="49.90282" lon="1.14294">
        <ele>-1.7999999523163</ele>
        <time>2023-08-09T14:51:09.000Z</time>
      </trkpt>
      <trkpt lat="49.90271" lon="1.14285">
        <ele>-2</ele>
        <time>2023-08-09T14:51:11.000Z</time>
      </trkpt>
      <trkpt lat="49.90265" lon="1.14274">
        <ele>-2.7999999523163</ele>
        <time>2023-08-09T14:51:13.000Z</time>
      </trkpt>
      <trkpt lat="49.90262" lon="1.14267">
        <ele>-3</ele>
        <time>2023-08-09T14:51:14.000Z</time>
      </trkpt>
      <trkpt lat="49.90251" lon="1.14236">
        <ele>-4.1999998092651</ele>
        <time>2023-08-09T14:51:18.000Z</time>
      </trkpt>
      <trkpt lat="49.90247" lon="1.14227">
        <ele>-4.4000000953674</ele>
        <time>2023-08-09T14:51:19.000Z</time>
      </trkpt>
      <trkpt lat="49.90235" lon="1.14194">
        <ele>-5.1999998092651</ele>
        <time>2023-08-09T14:51:23.000Z</time>
      </trkpt>
      <trkpt lat="49.90219" lon="1.14158">
        <ele>-5.5999999046326</ele>
        <time>2023-08-09T14:51:28.000Z</time>
      </trkpt>
      <trkpt lat="49.90201" lon="1.14113">
        <ele>-5.4000000953674</ele>
        <time>2023-08-09T14:51:34.000Z</time>
      </trkpt>
      <trkpt lat="49.9018" lon="1.14059">
        <ele>-5.8000001907349</ele>
        <time>2023-08-09T14:51:41.000Z</time>
      </trkpt>
      <trkpt lat="49.90172" lon="1.14044">
        <ele>-6</ele>
        <time>2023-08-09T14:51:43.000Z</time>
      </trkpt>
      <trkpt lat="49.90157" lon="1.14016">
        <ele>-6.4000000953674</ele>
        <time>2023-08-09T14:51:47.000Z</time>
      </trkpt>
      <trkpt lat="49.9015" lon="1.14003">
        <ele>-6.8000001907349</ele>
        <time>2023-08-09T14:51:49.000Z</time>
      </trkpt>
      <trkpt lat="49.90143" lon="1.13995">
        <ele>-7.1999998092651</ele>
        <time>2023-08-09T14:51:51.000Z</time>
      </trkpt>
      <trkpt lat="49.90135" lon="1.13991">
        <ele>-7.5999999046326</ele>
        <time>2023-08-09T14:51:53.000Z</time>
      </trkpt>
      <trkpt lat="49.90119" lon="1.13986">
        <ele>-8.1999998092651</ele>
        <time>2023-08-09T14:51:56.000Z</time>
      </trkpt>
      <trkpt lat="49.90115" lon="1.13984">
        <ele>-8.3999996185303</ele>
        <time>2023-08-09T14:51:57.000Z</time>
      </trkpt>
      <trkpt lat="49.90109" lon="1.13981">
        <ele>-9.3999996185303</ele>
        <time>2023-08-09T14:52:00.000Z</time>
      </trkpt>
      <trkpt lat="49.90107" lon="1.13981">
        <ele>-10.39999961853</ele>
        <time>2023-08-09T14:52:03.000Z</time>
      </trkpt>
      <trkpt lat="49.90104" lon="1.13984">
        <ele>-11</ele>
        <time>2023-08-09T14:52:12.000Z</time>
      </trkpt>
      <trkpt lat="49.901" lon="1.14002">
        <ele>-11.199999809265</ele>
        <time>2023-08-09T14:52:16.000Z</time>
      </trkpt>
      <trkpt lat="49.90094" lon="1.1404">
        <ele>-11.39999961853</ele>
        <time>2023-08-09T14:52:21.000Z</time>
      </trkpt>
      <trkpt lat="49.90085" lon="1.14112">
        <ele>-12</ele>
        <time>2023-08-09T14:52:29.000Z</time>
      </trkpt>
      <trkpt lat="49.90083" lon="1.1412">
        <ele>-12</ele>
        <time>2023-08-09T14:52:30.000Z</time>
      </trkpt>
      <trkpt lat="49.9008" lon="1.14128">
        <ele>-12</ele>
        <time>2023-08-09T14:52:31.000Z</time>
      </trkpt>
      <trkpt lat="49.90071" lon="1.14139">
        <ele>-12</ele>
        <time>2023-08-09T14:52:33.000Z</time>
      </trkpt>
      <trkpt lat="49.90051" lon="1.14146">
        <ele>-11.800000190735</ele>
        <time>2023-08-09T14:52:37.000Z</time>
      </trkpt>
      <trkpt lat="49.90016" lon="1.14156">
        <ele>-11.800000190735</ele>
        <time>2023-08-09T14:52:44.000Z</time>
      </trkpt>
      <trkpt lat="49.89977" lon="1.14169">
        <ele>-11.39999961853</ele>
        <time>2023-08-09T14:52:51.000Z</time>
      </trkpt>
      <trkpt lat="49.89962" lon="1.14174">
        <ele>-11</ele>
        <time>2023-08-09T14:52:54.000Z</time>
      </trkpt>
      <trkpt lat="49.89932" lon="1.14185">
        <ele>-10.800000190735</ele>
        <time>2023-08-09T14:53:00.000Z</time>
      </trkpt>
      <trkpt lat="49.89911" lon="1.14194">
        <ele>-10.60000038147</ele>
        <time>2023-08-09T14:53:04.000Z</time>
      </trkpt>
      <trkpt lat="49.89891" lon="1.14202">
        <ele>-10.60000038147</ele>
        <time>2023-08-09T14:53:08.000Z</time>
      </trkpt>
      <trkpt lat="49.89842" lon="1.14218">
        <ele>-11.199999809265</ele>
        <time>2023-08-09T14:53:17.000Z</time>
      </trkpt>
      <trkpt lat="49.89794" lon="1.14229">
        <ele>-11.60000038147</ele>
        <time>2023-08-09T14:53:25.000Z</time>
      </trkpt>
      <trkpt lat="49.89764" lon="1.14224">
        <ele>-12</ele>
        <time>2023-08-09T14:53:30.000Z</time>
      </trkpt>
      <trkpt lat="49.89758" lon="1.14222">
        <ele>-12.199999809265</ele>
        <time>2023-08-09T14:53:31.000Z</time>
      </trkpt>
      <trkpt lat="49.89724" lon="1.14198">
        <ele>-12.199999809265</ele>
        <time>2023-08-09T14:53:37.000Z</time>
      </trkpt>
      <trkpt lat="49.89709" lon="1.14179">
        <ele>-12.39999961853</ele>
        <time>2023-08-09T14:53:40.000Z</time>
      </trkpt>
      <trkpt lat="49.89697" lon="1.14159">
        <ele>-12.39999961853</ele>
        <time>2023-08-09T14:53:43.000Z</time>
      </trkpt>
      <trkpt lat="49.89674" lon="1.14104">
        <ele>-12.199999809265</ele>
        <time>2023-08-09T14:53:50.000Z</time>
      </trkpt>
      <trkpt lat="49.8965" lon="1.14043">
        <ele>-12.199999809265</ele>
        <time>2023-08-09T14:53:58.000Z</time>
      </trkpt>
      <trkpt lat="49.89621" lon="1.13964">
        <ele>-12</ele>
        <time>2023-08-09T14:54:08.000Z</time>
      </trkpt>
      <trkpt lat="49.89606" lon="1.13926">
        <ele>-11.800000190735</ele>
        <time>2023-08-09T14:54:13.000Z</time>
      </trkpt>
      <trkpt lat="49.89576" lon="1.13851">
        <ele>-11.60000038147</ele>
        <time>2023-08-09T14:54:23.000Z</time>
      </trkpt>
      <trkpt lat="49.89569" lon="1.13834">
        <ele>-11.60000038147</ele>
        <time>2023-08-09T14:54:25.000Z</time>
      </trkpt>
      <trkpt lat="49.89542" lon="1.13761">
        <ele>-11.199999809265</ele>
        <time>2023-08-09T14:54:35.000Z</time>
      </trkpt>
      <trkpt lat="49.89539" lon="1.13754">
        <ele>-11</ele>
        <time>2023-08-09T14:54:36.000Z</time>
      </trkpt>
      <trkpt lat="49.89518" lon="1.13701">
        <ele>-10.800000190735</ele>
        <time>2023-08-09T14:54:43.000Z</time>
      </trkpt>
      <trkpt lat="49.8951" lon="1.13679">
        <ele>-10.60000038147</ele>
        <time>2023-08-09T14:54:46.000Z</time>
      </trkpt>
      <trkpt lat="49.89484" lon="1.13613">
        <ele>-10</ele>
        <time>2023-08-09T14:54:55.000Z</time>
      </trkpt>
      <trkpt lat="49.89464" lon="1.13575">
        <ele>-9.8000001907349</ele>
        <time>2023-08-09T14:55:01.000Z</time>
      </trkpt>
      <trkpt lat="49.8946" lon="1.13569">
        <ele>-9.6000003814697</ele>
        <time>2023-08-09T14:55:02.000Z</time>
      </trkpt>
      <trkpt lat="49.89436" lon="1.13549">
        <ele>-9.3999996185303</ele>
        <time>2023-08-09T14:55:07.000Z</time>
      </trkpt>
      <trkpt lat="49.894" lon="1.13531">
        <ele>-8.8000001907349</ele>
        <time>2023-08-09T14:55:14.000Z</time>
      </trkpt>
      <trkpt lat="49.89377" lon="1.13521">
        <ele>-8.6000003814697</ele>
        <time>2023-08-09T14:55:18.000Z</time>
      </trkpt>
      <trkpt lat="49.89353" lon="1.13511">
        <ele>-8.8000001907349</ele>
        <time>2023-08-09T14:55:22.000Z</time>
      </trkpt>
      <trkpt lat="49.89296" lon="1.13489">
        <ele>-9</ele>
        <time>2023-08-09T14:55:31.000Z</time>
      </trkpt>
      <trkpt lat="49.89238" lon="1.13477">
        <ele>-9.1999998092651</ele>
        <time>2023-08-09T14:55:40.000Z</time>
      </trkpt>
      <trkpt lat="49.89231" lon="1.13477">
        <ele>-9.1999998092651</ele>
        <time>2023-08-09T14:55:41.000Z</time>
      </trkpt>
      <trkpt lat="49.89173" lon="1.13479">
        <ele>-9.6000003814697</ele>
        <time>2023-08-09T14:55:50.000Z</time>
      </trkpt>
      <trkpt lat="49.89151" lon="1.13483">
        <ele>-9.3999996185303</ele>
        <time>2023-08-09T14:55:54.000Z</time>
      </trkpt>
      <trkpt lat="49.89136" lon="1.13488">
        <ele>-9.3999996185303</ele>
        <time>2023-08-09T14:55:57.000Z</time>
      </trkpt>
      <trkpt lat="49.89125" lon="1.13492">
        <ele>-9.3999996185303</ele>
        <time>2023-08-09T14:55:59.000Z</time>
      </trkpt>
      <trkpt lat="49.89111" lon="1.13497">
        <ele>-9.1999998092651</ele>
        <time>2023-08-09T14:56:03.000Z</time>
      </trkpt>
      <trkpt lat="49.89103" lon="1.13496">
        <ele>-9.3999996185303</ele>
        <time>2023-08-09T14:56:07.000Z</time>
      </trkpt>
      <trkpt lat="49.89103" lon="1.13496">
        <ele>-9.3999996185303</ele>
        <time>2023-08-09T14:56:08.000Z</time>
      </trkpt>
      <trkpt lat="49.89099" lon="1.13503">
        <ele>-9.8000001907349</ele>
        <time>2023-08-09T14:58:23.000Z</time>
      </trkpt>
      <trkpt lat="49.89094" lon="1.13506">
        <ele>-10</ele>
        <time>2023-08-09T14:58:25.000Z</time>
      </trkpt>
      <trkpt lat="49.8908" lon="1.13514">
        <ele>-10.199999809265</ele>
        <time>2023-08-09T14:58:29.000Z</time>
      </trkpt>
      <trkpt lat="49.89076" lon="1.13515">
        <ele>-10.39999961853</ele>
        <time>2023-08-09T14:58:30.000Z</time>
      </trkpt>
      <trkpt lat="49.8904" lon="1.13531">
        <ele>-10.60000038147</ele>
        <time>2023-08-09T14:58:37.000Z</time>
      </trkpt>
      <trkpt lat="49.89002" lon="1.13546">
        <ele>-10.60000038147</ele>
        <time>2023-08-09T14:58:44.000Z</time>
      </trkpt>
      <trkpt lat="49.88976" lon="1.13558">
        <ele>-10.800000190735</ele>
        <time>2023-08-09T14:58:49.000Z</time>
      </trkpt>
      <trkpt lat="49.88959" lon="1.13565">
        <ele>-10.800000190735</ele>
        <time>2023-08-09T14:58:52.000Z</time>
      </trkpt>
      <trkpt lat="49.88953" lon="1.13568">
        <ele>-10.800000190735</ele>
        <time>2023-08-09T14:58:53.000Z</time>
      </trkpt>
      <trkpt lat="49.8892" lon="1.13591">
        <ele>-11</ele>
        <time>2023-08-09T14:58:59.000Z</time>
      </trkpt>
      <trkpt lat="49.88872" lon="1.13633">
        <ele>-11.199999809265</ele>
        <time>2023-08-09T14:59:08.000Z</time>
      </trkpt>
      <trkpt lat="49.88855" lon="1.13646">
        <ele>-11.199999809265</ele>
        <time>2023-08-09T14:59:11.000Z</time>
      </trkpt>
      <trkpt lat="49.88807" lon="1.13687">
        <ele>-11.39999961853</ele>
        <time>2023-08-09T14:59:20.000Z</time>
      </trkpt>
      <trkpt lat="49.88802" lon="1.13691">
        <ele>-11.39999961853</ele>
        <time>2023-08-09T14:59:21.000Z</time>
      </trkpt>
      <trkpt lat="49.88755" lon="1.13732">
        <ele>-11.199999809265</ele>
        <time>2023-08-09T14:59:30.000Z</time>
      </trkpt>
      <trkpt lat="49.88707" lon="1.13772">
        <ele>-11.199999809265</ele>
        <time>2023-08-09T14:59:39.000Z</time>
      </trkpt>
      <trkpt lat="49.88703" lon="1.13776">
        <ele>-11.199999809265</ele>
        <time>2023-08-09T14:59:40.000Z</time>
      </trkpt>
      <trkpt lat="49.88652" lon="1.13821">
        <ele>-11</ele>
        <time>2023-08-09T14:59:50.000Z</time>
      </trkpt>
      <trkpt lat="49.88601" lon="1.13864">
        <ele>-10.800000190735</ele>
        <time>2023-08-09T15:00:00.000Z</time>
      </trkpt>
      <trkpt lat="49.88596" lon="1.13868">
        <ele>-10.800000190735</ele>
        <time>2023-08-09T15:00:01.000Z</time>
      </trkpt>
      <trkpt lat="49.88545" lon="1.13912">
        <ele>-10.60000038147</ele>
        <time>2023-08-09T15:00:11.000Z</time>
      </trkpt>
      <trkpt lat="49.88536" lon="1.13919">
        <ele>-10.60000038147</ele>
        <time>2023-08-09T15:00:13.000Z</time>
      </trkpt>
      <trkpt lat="49.88485" lon="1.13963">
        <ele>-10.60000038147</ele>
        <time>2023-08-09T15:00:23.000Z</time>
      </trkpt>
      <trkpt lat="49.8848" lon="1.13967">
        <ele>-10.60000038147</ele>
        <time>2023-08-09T15:00:24.000Z</time>
      </trkpt>
      <trkpt lat="49.88428" lon="1.14011">
        <ele>-10.800000190735</ele>
        <time>2023-08-09T15:00:34.000Z</time>
      </trkpt>
      <trkpt lat="49.88408" lon="1.14028">
        <ele>-10.800000190735</ele>
        <time>2023-08-09T15:00:38.000Z</time>
      </trkpt>
      <trkpt lat="49.88358" lon="1.14071">
        <ele>-10.60000038147</ele>
        <time>2023-08-09T15:00:48.000Z</time>
      </trkpt>
      <trkpt lat="49.88348" lon="1.14078">
        <ele>-10.60000038147</ele>
        <time>2023-08-09T15:00:50.000Z</time>
      </trkpt>
      <trkpt lat="49.88319" lon="1.14102">
        <ele>-9.6000003814697</ele>
        <time>2023-08-09T15:00:56.000Z</time>
      </trkpt>
      <trkpt lat="49.88305" lon="1.14115">
        <ele>-9.3999996185303</ele>
        <time>2023-08-09T15:00:59.000Z</time>
      </trkpt>
      <trkpt lat="49.88273" lon="1.14139">
        <ele>-9.1999998092651</ele>
        <time>2023-08-09T15:01:06.000Z</time>
      </trkpt>
      <trkpt lat="49.88265" lon="1.14138">
        <ele>-9.1999998092651</ele>
        <time>2023-08-09T15:01:08.000Z</time>
      </trkpt>
      <trkpt lat="49.88262" lon="1.14132">
        <ele>-9.1999998092651</ele>
        <time>2023-08-09T15:01:09.000Z</time>
      </trkpt>
      <trkpt lat="49.88261" lon="1.14126">
        <ele>-9.1999998092651</ele>
        <time>2023-08-09T15:01:10.000Z</time>
      </trkpt>
      <trkpt lat="49.88253" lon="1.14092">
        <ele>-9.3999996185303</ele>
        <time>2023-08-09T15:01:14.000Z</time>
      </trkpt>
      <trkpt lat="49.8825" lon="1.14082">
        <ele>-9.6000003814697</ele>
        <time>2023-08-09T15:01:15.000Z</time>
      </trkpt>
      <trkpt lat="49.88238" lon="1.14058">
        <ele>-10</ele>
        <time>2023-08-09T15:01:18.000Z</time>
      </trkpt>
      <trkpt lat="49.88233" lon="1.14051">
        <ele>-10.39999961853</ele>
        <time>2023-08-09T15:01:19.000Z</time>
      </trkpt>
      <trkpt lat="49.88223" lon="1.14038">
        <ele>-10.800000190735</ele>
        <time>2023-08-09T15:01:21.000Z</time>
      </trkpt>
      <trkpt lat="49.88215" lon="1.14026">
        <ele>-11</ele>
        <time>2023-08-09T15:01:23.000Z</time>
      </trkpt>
      <trkpt lat="49.88206" lon="1.14012">
        <ele>-11.199999809265</ele>
        <time>2023-08-09T15:01:25.000Z</time>
      </trkpt>
      <trkpt lat="49.88192" lon="1.13982">
        <ele>-11.60000038147</ele>
        <time>2023-08-09T15:01:29.000Z</time>
      </trkpt>
      <trkpt lat="49.88173" lon="1.13926">
        <ele>-11.800000190735</ele>
        <time>2023-08-09T15:01:36.000Z</time>
      </trkpt>
      <trkpt lat="49.88169" lon="1.1391">
        <ele>-11.800000190735</ele>
        <time>2023-08-09T15:01:38.000Z</time>
      </trkpt>
      <trkpt lat="49.88161" lon="1.13874">
        <ele>-11.800000190735</ele>
        <time>2023-08-09T15:01:42.000Z</time>
      </trkpt>
      <trkpt lat="49.8815" lon="1.13815">
        <ele>-11.39999961853</ele>
        <time>2023-08-09T15:01:49.000Z</time>
      </trkpt>
      <trkpt lat="49.88144" lon="1.13789">
        <ele>-11.39999961853</ele>
        <time>2023-08-09T15:01:52.000Z</time>
      </trkpt>
      <trkpt lat="49.88136" lon="1.13745">
        <ele>-11.60000038147</ele>
        <time>2023-08-09T15:01:57.000Z</time>
      </trkpt>
      <trkpt lat="49.88121" lon="1.13664">
        <ele>-12.199999809265</ele>
        <time>2023-08-09T15:02:06.000Z</time>
      </trkpt>
      <trkpt lat="49.88115" lon="1.13606">
        <ele>-12</ele>
        <time>2023-08-09T15:02:13.000Z</time>
      </trkpt>
      <trkpt lat="49.88114" lon="1.13598">
        <ele>-12.199999809265</ele>
        <time>2023-08-09T15:02:14.000Z</time>
      </trkpt>
      <trkpt lat="49.88109" lon="1.13545">
        <ele>-12</ele>
        <time>2023-08-09T15:02:20.000Z</time>
      </trkpt>
      <trkpt lat="49.88102" lon="1.13476">
        <ele>-12.199999809265</ele>
        <time>2023-08-09T15:02:28.000Z</time>
      </trkpt>
      <trkpt lat="49.881" lon="1.13461">
        <ele>-12.199999809265</ele>
        <time>2023-08-09T15:02:30.000Z</time>
      </trkpt>
      <trkpt lat="49.88096" lon="1.13437">
        <ele>-12</ele>
        <time>2023-08-09T15:02:33.000Z</time>
      </trkpt>
      <trkpt lat="49.88094" lon="1.13424">
        <ele>-12</ele>
        <time>2023-08-09T15:02:35.000Z</time>
      </trkpt>
      <trkpt lat="49.88089" lon="1.13416">
        <ele>-11.800000190735</ele>
        <time>2023-08-09T15:02:37.000Z</time>
      </trkpt>
      <trkpt lat="49.88082" lon="1.13396">
        <ele>-11.39999961853</ele>
        <time>2023-08-09T15:02:41.000Z</time>
      </trkpt>
      <trkpt lat="49.88073" lon="1.13373">
        <ele>-11.39999961853</ele>
        <time>2023-08-09T15:02:47.000Z</time>
      </trkpt>
      <trkpt lat="49.88071" lon="1.13369">
        <ele>-11.60000038147</ele>
        <time>2023-08-09T15:02:51.000Z</time>
      </trkpt>
      <trkpt lat="49.88055" lon="1.13376">
        <ele>-11.60000038147</ele>
        <time>2023-08-09T15:03:29.000Z</time>
      </trkpt>
      <trkpt lat="49.88052" lon="1.13377">
        <ele>-11.60000038147</ele>
        <time>2023-08-09T15:03:31.000Z</time>
      </trkpt>
      <trkpt lat="49.88042" lon="1.13386">
        <ele>-11.800000190735</ele>
        <time>2023-08-09T15:03:35.000Z</time>
      </trkpt>
      <trkpt lat="49.88041" lon="1.13389">
        <ele>-12</ele>
        <time>2023-08-09T15:03:36.000Z</time>
      </trkpt>
      <trkpt lat="49.88044" lon="1.13402">
        <ele>-12.199999809265</ele>
        <time>2023-08-09T15:03:40.000Z</time>
      </trkpt>
      <trkpt lat="49.88043" lon="1.13406">
        <ele>-12.199999809265</ele>
        <time>2023-08-09T15:03:41.000Z</time>
      </trkpt>
      <trkpt lat="49.88031" lon="1.13419">
        <ele>-11.800000190735</ele>
        <time>2023-08-09T15:03:47.000Z</time>
      </trkpt>
      <trkpt lat="49.88028" lon="1.1342">
        <ele>-11.39999961853</ele>
        <time>2023-08-09T15:03:51.000Z</time>
      </trkpt>
      <trkpt lat="49.88028" lon="1.1342">
        <ele>-11.39999961853</ele>
        <time>2023-08-09T15:03:52.000Z</time>
      </trkpt>
      <trkpt lat="49.88027" lon="1.13404">
        <ele>-11.39999961853</ele>
        <time>2023-08-09T15:30:34.000Z</time>
      </trkpt>
      <trkpt lat="49.88028" lon="1.134">
        <ele>-11.800000190735</ele>
        <time>2023-08-09T15:30:36.000Z</time>
      </trkpt>
      <trkpt lat="49.88033" lon="1.13394">
        <ele>-12.60000038147</ele>
        <time>2023-08-09T15:30:39.000Z</time>
      </trkpt>
      <trkpt lat="49.8804" lon="1.13389">
        <ele>-13</ele>
        <time>2023-08-09T15:30:42.000Z</time>
      </trkpt>
      <trkpt lat="49.88058" lon="1.13379">
        <ele>-13.199999809265</ele>
        <time>2023-08-09T15:30:48.000Z</time>
      </trkpt>
      <trkpt lat="49.88067" lon="1.1337">
        <ele>-13</ele>
        <time>2023-08-09T15:30:53.000Z</time>
      </trkpt>
      <trkpt lat="49.88071" lon="1.13368">
        <ele>-12.60000038147</ele>
        <time>2023-08-09T15:30:57.000Z</time>
      </trkpt>
      <trkpt lat="49.88072" lon="1.13367">
        <ele>-12.60000038147</ele>
        <time>2023-08-09T15:30:58.000Z</time>
      </trkpt>
      <trkpt lat="49.88073" lon="1.13361">
        <ele>-12.800000190735</ele>
        <time>2023-08-09T15:31:02.000Z</time>
      </trkpt>
      <trkpt lat="49.88073" lon="1.1336">
        <ele>-12.800000190735</ele>
        <time>2023-08-09T15:31:03.000Z</time>
      </trkpt>
      <trkpt lat="49.88077" lon="1.13352">
        <ele>-12.800000190735</ele>
        <time>2023-08-09T15:31:09.000Z</time>
      </trkpt>
      <trkpt lat="49.88077" lon="1.13351">
        <ele>-12.800000190735</ele>
        <time>2023-08-09T15:31:10.000Z</time>
      </trkpt>
      <trkpt lat="49.88078" lon="1.13344">
        <ele>-12.800000190735</ele>
        <time>2023-08-09T15:31:17.000Z</time>
      </trkpt>
      <trkpt lat="49.88078" lon="1.13343">
        <ele>-12.800000190735</ele>
        <time>2023-08-09T15:31:22.000Z</time>
      </trkpt>
      <trkpt lat="49.88079" lon="1.13336">
        <ele>-12.800000190735</ele>
        <time>2023-08-09T15:31:41.000Z</time>
      </trkpt>
      <trkpt lat="49.88079" lon="1.13332">
        <ele>-12.800000190735</ele>
        <time>2023-08-09T15:31:42.000Z</time>
      </trkpt>
      <trkpt lat="49.88081" lon="1.13313">
        <ele>-13.199999809265</ele>
        <time>2023-08-09T15:31:46.000Z</time>
      </trkpt>
      <trkpt lat="49.88079" lon="1.13297">
        <ele>-13.60000038147</ele>
        <time>2023-08-09T15:31:49.000Z</time>
      </trkpt>
      <trkpt lat="49.88079" lon="1.13286">
        <ele>-13.800000190735</ele>
        <time>2023-08-09T15:31:51.000Z</time>
      </trkpt>
      <trkpt lat="49.88076" lon="1.13244">
        <ele>-13.800000190735</ele>
        <time>2023-08-09T15:31:58.000Z</time>
      </trkpt>
      <trkpt lat="49.8807" lon="1.13184">
        <ele>-13.800000190735</ele>
        <time>2023-08-09T15:32:07.000Z</time>
      </trkpt>
      <trkpt lat="49.88068" lon="1.13165">
        <ele>-13.60000038147</ele>
        <time>2023-08-09T15:32:10.000Z</time>
      </trkpt>
      <trkpt lat="49.88066" lon="1.13151">
        <ele>-13.60000038147</ele>
        <time>2023-08-09T15:32:12.000Z</time>
      </trkpt>
      <trkpt lat="49.88066" lon="1.13143">
        <ele>-13.60000038147</ele>
        <time>2023-08-09T15:32:13.000Z</time>
      </trkpt>
      <trkpt lat="49.88063" lon="1.13104">
        <ele>-13.800000190735</ele>
        <time>2023-08-09T15:32:18.000Z</time>
      </trkpt>
      <trkpt lat="49.88062" lon="1.13089">
        <ele>-14</ele>
        <time>2023-08-09T15:32:20.000Z</time>
      </trkpt>
      <trkpt lat="49.88059" lon="1.13035">
        <ele>-14</ele>
        <time>2023-08-09T15:32:28.000Z</time>
      </trkpt>
      <trkpt lat="49.88061" lon="1.13005">
        <ele>-13.800000190735</ele>
        <time>2023-08-09T15:32:33.000Z</time>
      </trkpt>
      <trkpt lat="49.88063" lon="1.13">
        <ele>-13.800000190735</ele>
        <time>2023-08-09T15:32:34.000Z</time>
      </trkpt>
      <trkpt lat="49.88068" lon="1.12993">
        <ele>-13.800000190735</ele>
        <time>2023-08-09T15:32:36.000Z</time>
      </trkpt>
      <trkpt lat="49.88088" lon="1.12979">
        <ele>-13.60000038147</ele>
        <time>2023-08-09T15:32:42.000Z</time>
      </trkpt>
      <trkpt lat="49.88108" lon="1.12967">
        <ele>-13.39999961853</ele>
        <time>2023-08-09T15:32:47.000Z</time>
      </trkpt>
      <trkpt lat="49.88132" lon="1.1295">
        <ele>-13.199999809265</ele>
        <time>2023-08-09T15:32:54.000Z</time>
      </trkpt>
      <trkpt lat="49.88156" lon="1.12931">
        <ele>-12.60000038147</ele>
        <time>2023-08-09T15:33:02.000Z</time>
      </trkpt>
      <trkpt lat="49.88178" lon="1.12914">
        <ele>-12.199999809265</ele>
        <time>2023-08-09T15:33:09.000Z</time>
      </trkpt>
      <trkpt lat="49.88191" lon="1.12905">
        <ele>-11.39999961853</ele>
        <time>2023-08-09T15:33:13.000Z</time>
      </trkpt>
      <trkpt lat="49.88201" lon="1.12899">
        <ele>-11.199999809265</ele>
        <time>2023-08-09T15:33:16.000Z</time>
      </trkpt>
      <trkpt lat="49.88218" lon="1.12881">
        <ele>-10.60000038147</ele>
        <time>2023-08-09T15:33:22.000Z</time>
      </trkpt>
      <trkpt lat="49.88224" lon="1.12874">
        <ele>-10.39999961853</ele>
        <time>2023-08-09T15:33:24.000Z</time>
      </trkpt>
      <trkpt lat="49.88242" lon="1.12857">
        <ele>-9.8000001907349</ele>
        <time>2023-08-09T15:33:30.000Z</time>
      </trkpt>
      <trkpt lat="49.88251" lon="1.12847">
        <ele>-9.3999996185303</ele>
        <time>2023-08-09T15:33:33.000Z</time>
      </trkpt>
      <trkpt lat="49.8826" lon="1.12832">
        <ele>-9.1999998092651</ele>
        <time>2023-08-09T15:33:37.000Z</time>
      </trkpt>
      <trkpt lat="49.88263" lon="1.12812">
        <ele>-8.8000001907349</ele>
        <time>2023-08-09T15:33:41.000Z</time>
      </trkpt>
      <trkpt lat="49.88255" lon="1.12787">
        <ele>-8.6000003814697</ele>
        <time>2023-08-09T15:33:46.000Z</time>
      </trkpt>
      <trkpt lat="49.88251" lon="1.12779">
        <ele>-8.1999998092651</ele>
        <time>2023-08-09T15:33:48.000Z</time>
      </trkpt>
      <trkpt lat="49.88239" lon="1.12754">
        <ele>-7.5999999046326</ele>
        <time>2023-08-09T15:33:54.000Z</time>
      </trkpt>
      <trkpt lat="49.88234" lon="1.12742">
        <ele>-7.1999998092651</ele>
        <time>2023-08-09T15:33:57.000Z</time>
      </trkpt>
      <trkpt lat="49.88225" lon="1.12721">
        <ele>-6.5999999046326</ele>
        <time>2023-08-09T15:34:02.000Z</time>
      </trkpt>
      <trkpt lat="49.88219" lon="1.12709">
        <ele>-6</ele>
        <time>2023-08-09T15:34:05.000Z</time>
      </trkpt>
      <trkpt lat="49.88208" lon="1.12684">
        <ele>-5</ele>
        <time>2023-08-09T15:34:11.000Z</time>
      </trkpt>
      <trkpt lat="49.88203" lon="1.12676">
        <ele>-4.8000001907349</ele>
        <time>2023-08-09T15:34:13.000Z</time>
      </trkpt>
      <trkpt lat="49.88186" lon="1.12646">
        <ele>-4</ele>
        <time>2023-08-09T15:34:21.000Z</time>
      </trkpt>
      <trkpt lat="49.88184" lon="1.12642">
        <ele>-3.7999999523163</ele>
        <time>2023-08-09T15:34:22.000Z</time>
      </trkpt>
      <trkpt lat="49.8817" lon="1.12621">
        <ele>-3</ele>
        <time>2023-08-09T15:34:29.000Z</time>
      </trkpt>
      <trkpt lat="49.88165" lon="1.12616">
        <ele>-2.7999999523163</ele>
        <time>2023-08-09T15:34:31.000Z</time>
      </trkpt>
      <trkpt lat="49.88153" lon="1.12609">
        <ele>-2.2000000476837</ele>
        <time>2023-08-09T15:34:36.000Z</time>
      </trkpt>
      <trkpt lat="49.88147" lon="1.12604">
        <ele>-1.7999999523163</ele>
        <time>2023-08-09T15:34:40.000Z</time>
      </trkpt>
      <trkpt lat="49.88145" lon="1.12602">
        <ele>-1.6000000238419</ele>
        <time>2023-08-09T15:34:41.000Z</time>
      </trkpt>
      <trkpt lat="49.88131" lon="1.12591">
        <ele>-0.60000002384186</ele>
        <time>2023-08-09T15:34:47.000Z</time>
      </trkpt>
      <trkpt lat="49.88117" lon="1.12574">
        <ele>0.40000000596046</ele>
        <time>2023-08-09T15:34:53.000Z</time>
      </trkpt>
      <trkpt lat="49.88101" lon="1.12561">
        <ele>1.6000000238419</ele>
        <time>2023-08-09T15:34:59.000Z</time>
      </trkpt>
      <trkpt lat="49.88089" lon="1.12549">
        <ele>2.2000000476837</ele>
        <time>2023-08-09T15:35:04.000Z</time>
      </trkpt>
      <trkpt lat="49.88083" lon="1.12544">
        <ele>2.5999999046326</ele>
        <time>2023-08-09T15:35:06.000Z</time>
      </trkpt>
      <trkpt lat="49.8807" lon="1.1253">
        <ele>3.5999999046326</ele>
        <time>2023-08-09T15:35:12.000Z</time>
      </trkpt>
      <trkpt lat="49.88055" lon="1.12517">
        <ele>4.5999999046326</ele>
        <time>2023-08-09T15:35:18.000Z</time>
      </trkpt>
      <trkpt lat="49.88052" lon="1.12515">
        <ele>4.8000001907349</ele>
        <time>2023-08-09T15:35:19.000Z</time>
      </trkpt>
      <trkpt lat="49.88038" lon="1.12502">
        <ele>5.5999999046326</ele>
        <time>2023-08-09T15:35:25.000Z</time>
      </trkpt>
      <trkpt lat="49.88032" lon="1.12493">
        <ele>6</ele>
        <time>2023-08-09T15:35:28.000Z</time>
      </trkpt>
      <trkpt lat="49.88019" lon="1.12476">
        <ele>6.5999999046326</ele>
        <time>2023-08-09T15:35:34.000Z</time>
      </trkpt>
      <trkpt lat="49.88012" lon="1.12468">
        <ele>7</ele>
        <time>2023-08-09T15:35:37.000Z</time>
      </trkpt>
      <trkpt lat="49.87999" lon="1.12451">
        <ele>7.8000001907349</ele>
        <time>2023-08-09T15:35:43.000Z</time>
      </trkpt>
      <trkpt lat="49.87994" lon="1.12445">
        <ele>8</ele>
        <time>2023-08-09T15:35:45.000Z</time>
      </trkpt>
      <trkpt lat="49.87975" lon="1.12423">
        <ele>8.8000001907349</ele>
        <time>2023-08-09T15:35:53.000Z</time>
      </trkpt>
      <trkpt lat="49.87973" lon="1.12421">
        <ele>9</ele>
        <time>2023-08-09T15:35:54.000Z</time>
      </trkpt>
      <trkpt lat="49.87951" lon="1.12398">
        <ele>10</ele>
        <time>2023-08-09T15:36:03.000Z</time>
      </trkpt>
      <trkpt lat="49.87949" lon="1.12396">
        <ele>10.199999809265</ele>
        <time>2023-08-09T15:36:04.000Z</time>
      </trkpt>
      <trkpt lat="49.87937" lon="1.12387">
        <ele>11</ele>
        <time>2023-08-09T15:36:09.000Z</time>
      </trkpt>
      <trkpt lat="49.87929" lon="1.12381">
        <ele>11.39999961853</ele>
        <time>2023-08-09T15:36:12.000Z</time>
      </trkpt>
      <trkpt lat="49.87912" lon="1.1237">
        <ele>12</ele>
        <time>2023-08-09T15:36:19.000Z</time>
      </trkpt>
      <trkpt lat="49.87907" lon="1.12366">
        <ele>12.39999961853</ele>
        <time>2023-08-09T15:36:21.000Z</time>
      </trkpt>
      <trkpt lat="49.879" lon="1.12359">
        <ele>13.199999809265</ele>
        <time>2023-08-09T15:36:24.000Z</time>
      </trkpt>
      <trkpt lat="49.87884" lon="1.12344">
        <ele>14.199999809265</ele>
        <time>2023-08-09T15:36:31.000Z</time>
      </trkpt>
      <trkpt lat="49.87866" lon="1.12328">
        <ele>15</ele>
        <time>2023-08-09T15:36:39.000Z</time>
      </trkpt>
      <trkpt lat="49.87864" lon="1.12326">
        <ele>15.199999809265</ele>
        <time>2023-08-09T15:36:40.000Z</time>
      </trkpt>
      <trkpt lat="49.87849" lon="1.12313">
        <ele>16.39999961853</ele>
        <time>2023-08-09T15:36:47.000Z</time>
      </trkpt>
      <trkpt lat="49.87835" lon="1.123">
        <ele>17.60000038147</ele>
        <time>2023-08-09T15:36:54.000Z</time>
      </trkpt>
      <trkpt lat="49.87833" lon="1.12297">
        <ele>17.60000038147</ele>
        <time>2023-08-09T15:36:55.000Z</time>
      </trkpt>
      <trkpt lat="49.87826" lon="1.12278">
        <ele>18.39999961853</ele>
        <time>2023-08-09T15:37:01.000Z</time>
      </trkpt>
      <trkpt lat="49.87827" lon="1.12271">
        <ele>18.799999237061</ele>
        <time>2023-08-09T15:37:03.000Z</time>
      </trkpt>
      <trkpt lat="49.87831" lon="1.12263">
        <ele>19.39999961853</ele>
        <time>2023-08-09T15:37:06.000Z</time>
      </trkpt>
      <trkpt lat="49.87835" lon="1.12261">
        <ele>19.799999237061</ele>
        <time>2023-08-09T15:37:08.000Z</time>
      </trkpt>
      <trkpt lat="49.87843" lon="1.12262">
        <ele>20.60000038147</ele>
        <time>2023-08-09T15:37:11.000Z</time>
      </trkpt>
      <trkpt lat="49.87845" lon="1.12263">
        <ele>21</ele>
        <time>2023-08-09T15:37:12.000Z</time>
      </trkpt>
      <trkpt lat="49.87857" lon="1.1227">
        <ele>22.200000762939</ele>
        <time>2023-08-09T15:37:17.000Z</time>
      </trkpt>
      <trkpt lat="49.87865" lon="1.12273">
        <ele>23</ele>
        <time>2023-08-09T15:37:20.000Z</time>
      </trkpt>
      <trkpt lat="49.8787" lon="1.12274">
        <ele>23.39999961853</ele>
        <time>2023-08-09T15:37:22.000Z</time>
      </trkpt>
      <trkpt lat="49.87887" lon="1.12274">
        <ele>24.39999961853</ele>
        <time>2023-08-09T15:37:28.000Z</time>
      </trkpt>
      <trkpt lat="49.87889" lon="1.12274">
        <ele>24.39999961853</ele>
        <time>2023-08-09T15:37:29.000Z</time>
      </trkpt>
      <trkpt lat="49.87904" lon="1.12267">
        <ele>25.200000762939</ele>
        <time>2023-08-09T15:37:35.000Z</time>
      </trkpt>
      <trkpt lat="49.87911" lon="1.1226">
        <ele>25.39999961853</ele>
        <time>2023-08-09T15:37:38.000Z</time>
      </trkpt>
      <trkpt lat="49.8792" lon="1.12241">
        <ele>26.200000762939</ele>
        <time>2023-08-09T15:37:44.000Z</time>
      </trkpt>
      <trkpt lat="49.8793" lon="1.12226">
        <ele>27.39999961853</ele>
        <time>2023-08-09T15:37:50.000Z</time>
      </trkpt>
      <trkpt lat="49.87933" lon="1.12225">
        <ele>27.39999961853</ele>
        <time>2023-08-09T15:37:51.000Z</time>
      </trkpt>
      <trkpt lat="49.87944" lon="1.12221">
        <ele>28.39999961853</ele>
        <time>2023-08-09T15:37:55.000Z</time>
      </trkpt>
      <trkpt lat="49.87951" lon="1.12221">
        <ele>29</ele>
        <time>2023-08-09T15:37:58.000Z</time>
      </trkpt>
      <trkpt lat="49.87958" lon="1.12221">
        <ele>29.60000038147</ele>
        <time>2023-08-09T15:38:01.000Z</time>
      </trkpt>
      <trkpt lat="49.87968" lon="1.12221">
        <ele>30.60000038147</ele>
        <time>2023-08-09T15:38:06.000Z</time>
      </trkpt>
      <trkpt lat="49.87969" lon="1.12221">
        <ele>30.799999237061</ele>
        <time>2023-08-09T15:38:07.000Z</time>
      </trkpt>
      <trkpt lat="49.87973" lon="1.12222">
        <ele>31</ele>
        <time>2023-08-09T15:38:09.000Z</time>
      </trkpt>
      <trkpt lat="49.87978" lon="1.12221">
        <ele>31.60000038147</ele>
        <time>2023-08-09T15:38:12.000Z</time>
      </trkpt>
      <trkpt lat="49.87984" lon="1.12222">
        <ele>31.799999237061</ele>
        <time>2023-08-09T15:38:15.000Z</time>
      </trkpt>
      <trkpt lat="49.87993" lon="1.12224">
        <ele>32.799999237061</ele>
        <time>2023-08-09T15:38:20.000Z</time>
      </trkpt>
      <trkpt lat="49.87997" lon="1.12225">
        <ele>32.799999237061</ele>
        <time>2023-08-09T15:38:22.000Z</time>
      </trkpt>
      <trkpt lat="49.88002" lon="1.12227">
        <ele>33.400001525879</ele>
        <time>2023-08-09T15:38:25.000Z</time>
      </trkpt>
      <trkpt lat="49.88006" lon="1.12229">
        <ele>33.799999237061</ele>
        <time>2023-08-09T15:38:27.000Z</time>
      </trkpt>
      <trkpt lat="49.88009" lon="1.12233">
        <ele>34.400001525879</ele>
        <time>2023-08-09T15:38:29.000Z</time>
      </trkpt>
      <trkpt lat="49.88013" lon="1.12238">
        <ele>35</ele>
        <time>2023-08-09T15:38:32.000Z</time>
      </trkpt>
      <trkpt lat="49.88019" lon="1.12241">
        <ele>35.200000762939</ele>
        <time>2023-08-09T15:38:35.000Z</time>
      </trkpt>
      <trkpt lat="49.88031" lon="1.12249">
        <ele>36</ele>
        <time>2023-08-09T15:38:40.000Z</time>
      </trkpt>
      <trkpt lat="49.88034" lon="1.12253">
        <ele>36</ele>
        <time>2023-08-09T15:38:41.000Z</time>
      </trkpt>
      <trkpt lat="49.88048" lon="1.12263">
        <ele>36.799999237061</ele>
        <time>2023-08-09T15:38:46.000Z</time>
      </trkpt>
      <trkpt lat="49.88053" lon="1.12268">
        <ele>37.200000762939</ele>
        <time>2023-08-09T15:38:48.000Z</time>
      </trkpt>
      <trkpt lat="49.88064" lon="1.12274">
        <ele>38</ele>
        <time>2023-08-09T15:38:54.000Z</time>
      </trkpt>
      <trkpt lat="49.88066" lon="1.12276">
        <ele>38.200000762939</ele>
        <time>2023-08-09T15:38:55.000Z</time>
      </trkpt>
      <trkpt lat="49.88071" lon="1.1228">
        <ele>38.400001525879</ele>
        <time>2023-08-09T15:38:57.000Z</time>
      </trkpt>
      <trkpt lat="49.88077" lon="1.12286">
        <ele>39</ele>
        <time>2023-08-09T15:39:00.000Z</time>
      </trkpt>
      <trkpt lat="49.88083" lon="1.1229">
        <ele>39.200000762939</ele>
        <time>2023-08-09T15:39:02.000Z</time>
      </trkpt>
      <trkpt lat="49.88086" lon="1.12289">
        <ele>39.400001525879</ele>
        <time>2023-08-09T15:39:03.000Z</time>
      </trkpt>
      <trkpt lat="49.88097" lon="1.12291">
        <ele>39.799999237061</ele>
        <time>2023-08-09T15:39:06.000Z</time>
      </trkpt>
      <trkpt lat="49.88105" lon="1.12284">
        <ele>40.400001525879</ele>
        <time>2023-08-09T15:39:09.000Z</time>
      </trkpt>
      <trkpt lat="49.88106" lon="1.12279">
        <ele>40.599998474121</ele>
        <time>2023-08-09T15:39:10.000Z</time>
      </trkpt>
      <trkpt lat="49.88106" lon="1.12271">
        <ele>40.799999237061</ele>
        <time>2023-08-09T15:39:12.000Z</time>
      </trkpt>
      <trkpt lat="49.88101" lon="1.12259">
        <ele>41.200000762939</ele>
        <time>2023-08-09T15:39:15.000Z</time>
      </trkpt>
      <trkpt lat="49.88095" lon="1.12251">
        <ele>41.599998474121</ele>
        <time>2023-08-09T15:39:18.000Z</time>
      </trkpt>
      <trkpt lat="49.88086" lon="1.1224">
        <ele>42</ele>
        <time>2023-08-09T15:39:22.000Z</time>
      </trkpt>
      <trkpt lat="49.88077" lon="1.12231">
        <ele>42.599998474121</ele>
        <time>2023-08-09T15:39:26.000Z</time>
      </trkpt>
      <trkpt lat="49.88061" lon="1.12215">
        <ele>43.599998474121</ele>
        <time>2023-08-09T15:39:33.000Z</time>
      </trkpt>
      <trkpt lat="49.88056" lon="1.12211">
        <ele>43.799999237061</ele>
        <time>2023-08-09T15:39:35.000Z</time>
      </trkpt>
      <trkpt lat="49.88047" lon="1.12202">
        <ele>43.799999237061</ele>
        <time>2023-08-09T15:39:39.000Z</time>
      </trkpt>
      <trkpt lat="49.88026" lon="1.12181">
        <ele>44.599998474121</ele>
        <time>2023-08-09T15:39:47.000Z</time>
      </trkpt>
      <trkpt lat="49.88021" lon="1.12177">
        <ele>45</ele>
        <time>2023-08-09T15:39:49.000Z</time>
      </trkpt>
      <trkpt lat="49.88007" lon="1.12167">
        <ele>46</ele>
        <time>2023-08-09T15:39:54.000Z</time>
      </trkpt>
      <trkpt lat="49.88004" lon="1.12166">
        <ele>46.200000762939</ele>
        <time>2023-08-09T15:39:55.000Z</time>
      </trkpt>
      <trkpt lat="49.8799" lon="1.12158">
        <ele>47.200000762939</ele>
        <time>2023-08-09T15:40:00.000Z</time>
      </trkpt>
      <trkpt lat="49.87978" lon="1.12153">
        <ele>48</ele>
        <time>2023-08-09T15:40:04.000Z</time>
      </trkpt>
      <trkpt lat="49.87975" lon="1.12152">
        <ele>48.200000762939</ele>
        <time>2023-08-09T15:40:05.000Z</time>
      </trkpt>
      <trkpt lat="49.87969" lon="1.1215">
        <ele>48.400001525879</ele>
        <time>2023-08-09T15:40:07.000Z</time>
      </trkpt>
      <trkpt lat="49.87952" lon="1.12144">
        <ele>49.200000762939</ele>
        <time>2023-08-09T15:40:13.000Z</time>
      </trkpt>
      <trkpt lat="49.87947" lon="1.12143">
        <ele>49.799999237061</ele>
        <time>2023-08-09T15:40:15.000Z</time>
      </trkpt>
      <trkpt lat="49.87934" lon="1.12142">
        <ele>50.200000762939</ele>
        <time>2023-08-09T15:40:19.000Z</time>
      </trkpt>
      <trkpt lat="49.87916" lon="1.12136">
        <ele>51.400001525879</ele>
        <time>2023-08-09T15:40:25.000Z</time>
      </trkpt>
      <trkpt lat="49.87897" lon="1.1213">
        <ele>52.400001525879</ele>
        <time>2023-08-09T15:40:31.000Z</time>
      </trkpt>
      <trkpt lat="49.87891" lon="1.12128">
        <ele>52.799999237061</ele>
        <time>2023-08-09T15:40:33.000Z</time>
      </trkpt>
      <trkpt lat="49.87877" lon="1.12122">
        <ele>53.400001525879</ele>
        <time>2023-08-09T15:40:38.000Z</time>
      </trkpt>
      <trkpt lat="49.87872" lon="1.12121">
        <ele>53.799999237061</ele>
        <time>2023-08-09T15:40:40.000Z</time>
      </trkpt>
      <trkpt lat="49.87858" lon="1.12115">
        <ele>54.599998474121</ele>
        <time>2023-08-09T15:40:45.000Z</time>
      </trkpt>
      <trkpt lat="49.8785" lon="1.1211">
        <ele>55.200000762939</ele>
        <time>2023-08-09T15:40:48.000Z</time>
      </trkpt>
      <trkpt lat="49.87844" lon="1.12105">
        <ele>55.799999237061</ele>
        <time>2023-08-09T15:40:50.000Z</time>
      </trkpt>
      <trkpt lat="49.87832" lon="1.12092">
        <ele>56.599998474121</ele>
        <time>2023-08-09T15:40:55.000Z</time>
      </trkpt>
      <trkpt lat="49.87829" lon="1.1209">
        <ele>56.799999237061</ele>
        <time>2023-08-09T15:40:56.000Z</time>
      </trkpt>
      <trkpt lat="49.87827" lon="1.12087">
        <ele>57</ele>
        <time>2023-08-09T15:40:57.000Z</time>
      </trkpt>
      <trkpt lat="49.8781" lon="1.12068">
        <ele>58</ele>
        <time>2023-08-09T15:41:04.000Z</time>
      </trkpt>
      <trkpt lat="49.87805" lon="1.12063">
        <ele>58.400001525879</ele>
        <time>2023-08-09T15:41:06.000Z</time>
      </trkpt>
      <trkpt lat="49.87798" lon="1.12055">
        <ele>59</ele>
        <time>2023-08-09T15:41:09.000Z</time>
      </trkpt>
      <trkpt lat="49.87786" lon="1.12041">
        <ele>59.400001525879</ele>
        <time>2023-08-09T15:41:14.000Z</time>
      </trkpt>
      <trkpt lat="49.8778" lon="1.12036">
        <ele>60</ele>
        <time>2023-08-09T15:41:16.000Z</time>
      </trkpt>
      <trkpt lat="49.87761" lon="1.12019">
        <ele>61</ele>
        <time>2023-08-09T15:41:23.000Z</time>
      </trkpt>
      <trkpt lat="49.87758" lon="1.12016">
        <ele>61</ele>
        <time>2023-08-09T15:41:24.000Z</time>
      </trkpt>
      <trkpt lat="49.87744" lon="1.12004">
        <ele>62</ele>
        <time>2023-08-09T15:41:29.000Z</time>
      </trkpt>
      <trkpt lat="49.87736" lon="1.11998">
        <ele>62.599998474121</ele>
        <time>2023-08-09T15:41:32.000Z</time>
      </trkpt>
      <trkpt lat="49.87724" lon="1.11991">
        <ele>63.200000762939</ele>
        <time>2023-08-09T15:41:36.000Z</time>
      </trkpt>
      <trkpt lat="49.87712" lon="1.11985">
        <ele>64</ele>
        <time>2023-08-09T15:41:40.000Z</time>
      </trkpt>
      <trkpt lat="49.87707" lon="1.11982">
        <ele>64.400001525879</ele>
        <time>2023-08-09T15:41:42.000Z</time>
      </trkpt>
      <trkpt lat="49.8769" lon="1.11972">
        <ele>65.400001525879</ele>
        <time>2023-08-09T15:41:48.000Z</time>
      </trkpt>
      <trkpt lat="49.87684" lon="1.11969">
        <ele>65.800003051758</ele>
        <time>2023-08-09T15:41:50.000Z</time>
      </trkpt>
      <trkpt lat="49.87673" lon="1.11964">
        <ele>66.599998474121</ele>
        <time>2023-08-09T15:41:54.000Z</time>
      </trkpt>
      <trkpt lat="49.87664" lon="1.11958">
        <ele>67.599998474121</ele>
        <time>2023-08-09T15:41:57.000Z</time>
      </trkpt>
      <trkpt lat="49.87653" lon="1.11951">
        <ele>68.599998474121</ele>
        <time>2023-08-09T15:42:01.000Z</time>
      </trkpt>
      <trkpt lat="49.8765" lon="1.11949">
        <ele>68.800003051758</ele>
        <time>2023-08-09T15:42:02.000Z</time>
      </trkpt>
      <trkpt lat="49.87633" lon="1.11939">
        <ele>69.599998474121</ele>
        <time>2023-08-09T15:42:08.000Z</time>
      </trkpt>
      <trkpt lat="49.87621" lon="1.11934">
        <ele>70.599998474121</ele>
        <time>2023-08-09T15:42:12.000Z</time>
      </trkpt>
      <trkpt lat="49.87619" lon="1.11932">
        <ele>70.800003051758</ele>
        <time>2023-08-09T15:42:13.000Z</time>
      </trkpt>
      <trkpt lat="49.87601" lon="1.11921">
        <ele>71.800003051758</ele>
        <time>2023-08-09T15:42:19.000Z</time>
      </trkpt>
      <trkpt lat="49.87592" lon="1.11916">
        <ele>72.199996948242</ele>
        <time>2023-08-09T15:42:22.000Z</time>
      </trkpt>
      <trkpt lat="49.87586" lon="1.11913">
        <ele>72.800003051758</ele>
        <time>2023-08-09T15:42:24.000Z</time>
      </trkpt>
      <trkpt lat="49.87574" lon="1.11906">
        <ele>73.599998474121</ele>
        <time>2023-08-09T15:42:28.000Z</time>
      </trkpt>
      <trkpt lat="49.87568" lon="1.11903">
        <ele>74</ele>
        <time>2023-08-09T15:42:30.000Z</time>
      </trkpt>
      <trkpt lat="49.87558" lon="1.11892">
        <ele>74.599998474121</ele>
        <time>2023-08-09T15:42:34.000Z</time>
      </trkpt>
      <trkpt lat="49.87554" lon="1.11879">
        <ele>75.199996948242</ele>
        <time>2023-08-09T15:42:37.000Z</time>
      </trkpt>
      <trkpt lat="49.87553" lon="1.11864">
        <ele>75.400001525879</ele>
        <time>2023-08-09T15:42:40.000Z</time>
      </trkpt>
      <trkpt lat="49.8756" lon="1.11821">
        <ele>75.599998474121</ele>
        <time>2023-08-09T15:42:47.000Z</time>
      </trkpt>
      <trkpt lat="49.87563" lon="1.11807">
        <ele>75.400001525879</ele>
        <time>2023-08-09T15:42:49.000Z</time>
      </trkpt>
      <trkpt lat="49.87571" lon="1.11787">
        <ele>75.199996948242</ele>
        <time>2023-08-09T15:42:53.000Z</time>
      </trkpt>
      <trkpt lat="49.87577" lon="1.11779">
        <ele>75.199996948242</ele>
        <time>2023-08-09T15:42:55.000Z</time>
      </trkpt>
      <trkpt lat="49.87586" lon="1.11773">
        <ele>75</ele>
        <time>2023-08-09T15:42:57.000Z</time>
      </trkpt>
      <trkpt lat="49.87594" lon="1.11762">
        <ele>74.800003051758</ele>
        <time>2023-08-09T15:42:59.000Z</time>
      </trkpt>
      <trkpt lat="49.87598" lon="1.11747">
        <ele>74.800003051758</ele>
        <time>2023-08-09T15:43:01.000Z</time>
      </trkpt>
      <trkpt lat="49.87599" lon="1.11729">
        <ele>74.599998474121</ele>
        <time>2023-08-09T15:43:03.000Z</time>
      </trkpt>
      <trkpt lat="49.87597" lon="1.11721">
        <ele>74.599998474121</ele>
        <time>2023-08-09T15:43:04.000Z</time>
      </trkpt>
      <trkpt lat="49.87594" lon="1.11713">
        <ele>74.599998474121</ele>
        <time>2023-08-09T15:43:05.000Z</time>
      </trkpt>
      <trkpt lat="49.87588" lon="1.11697">
        <ele>74.599998474121</ele>
        <time>2023-08-09T15:43:07.000Z</time>
      </trkpt>
      <trkpt lat="49.87587" lon="1.11689">
        <ele>74.599998474121</ele>
        <time>2023-08-09T15:43:08.000Z</time>
      </trkpt>
      <trkpt lat="49.87586" lon="1.11672">
        <ele>74.599998474121</ele>
        <time>2023-08-09T15:43:10.000Z</time>
      </trkpt>
      <trkpt lat="49.87585" lon="1.11647">
        <ele>75</ele>
        <time>2023-08-09T15:43:13.000Z</time>
      </trkpt>
      <trkpt lat="49.8758" lon="1.11611">
        <ele>75.599998474121</ele>
        <time>2023-08-09T15:43:18.000Z</time>
      </trkpt>
      <trkpt lat="49.87578" lon="1.11605">
        <ele>75.599998474121</ele>
        <time>2023-08-09T15:43:19.000Z</time>
      </trkpt>
      <trkpt lat="49.87566" lon="1.11569">
        <ele>76.199996948242</ele>
        <time>2023-08-09T15:43:25.000Z</time>
      </trkpt>
      <trkpt lat="49.87559" lon="1.11552">
        <ele>76.400001525879</ele>
        <time>2023-08-09T15:43:28.000Z</time>
      </trkpt>
      <trkpt lat="49.87557" lon="1.11546">
        <ele>76.599998474121</ele>
        <time>2023-08-09T15:43:29.000Z</time>
      </trkpt>
      <trkpt lat="49.87542" lon="1.11508">
        <ele>77.199996948242</ele>
        <time>2023-08-09T15:43:35.000Z</time>
      </trkpt>
      <trkpt lat="49.87539" lon="1.11501">
        <ele>77.199996948242</ele>
        <time>2023-08-09T15:43:36.000Z</time>
      </trkpt>
      <trkpt lat="49.87527" lon="1.11469">
        <ele>77.599998474121</ele>
        <time>2023-08-09T15:43:41.000Z</time>
      </trkpt>
      <trkpt lat="49.87522" lon="1.11456">
        <ele>77.800003051758</ele>
        <time>2023-08-09T15:43:43.000Z</time>
      </trkpt>
      <trkpt lat="49.87506" lon="1.11412">
        <ele>78.199996948242</ele>
        <time>2023-08-09T15:43:50.000Z</time>
      </trkpt>
      <trkpt lat="49.87503" lon="1.11406">
        <ele>78.400001525879</ele>
        <time>2023-08-09T15:43:51.000Z</time>
      </trkpt>
      <trkpt lat="49.87482" lon="1.11349">
        <ele>78.800003051758</ele>
        <time>2023-08-09T15:44:00.000Z</time>
      </trkpt>
      <trkpt lat="49.87465" lon="1.11302">
        <ele>79.400001525879</ele>
        <time>2023-08-09T15:44:07.000Z</time>
      </trkpt>
      <trkpt lat="49.87439" lon="1.11238">
        <ele>79.400001525879</ele>
        <time>2023-08-09T15:44:16.000Z</time>
      </trkpt>
      <trkpt lat="49.8742" lon="1.11182">
        <ele>79.599998474121</ele>
        <time>2023-08-09T15:44:23.000Z</time>
      </trkpt>
      <trkpt lat="49.87411" lon="1.11155">
        <ele>79.400001525879</ele>
        <time>2023-08-09T15:44:26.000Z</time>
      </trkpt>
      <trkpt lat="49.87399" lon="1.11108">
        <ele>79</ele>
        <time>2023-08-09T15:44:31.000Z</time>
      </trkpt>
      <trkpt lat="49.87378" lon="1.11023">
        <ele>78.400001525879</ele>
        <time>2023-08-09T15:44:40.000Z</time>
      </trkpt>
      <trkpt lat="49.87374" lon="1.11003">
        <ele>78.199996948242</ele>
        <time>2023-08-09T15:44:42.000Z</time>
      </trkpt>
      <trkpt lat="49.87367" lon="1.10974">
        <ele>78.199996948242</ele>
        <time>2023-08-09T15:44:45.000Z</time>
      </trkpt>
      <trkpt lat="49.8735" lon="1.10906">
        <ele>77.199996948242</ele>
        <time>2023-08-09T15:44:51.000Z</time>
      </trkpt>
      <trkpt lat="49.87348" lon="1.10896">
        <ele>77.199996948242</ele>
        <time>2023-08-09T15:44:52.000Z</time>
      </trkpt>
      <trkpt lat="49.87329" lon="1.10818">
        <ele>76.199996948242</ele>
        <time>2023-08-09T15:45:00.000Z</time>
      </trkpt>
      <trkpt lat="49.87327" lon="1.10808">
        <ele>76</ele>
        <time>2023-08-09T15:45:01.000Z</time>
      </trkpt>
      <trkpt lat="49.87319" lon="1.10768">
        <ele>75.599998474121</ele>
        <time>2023-08-09T15:45:05.000Z</time>
      </trkpt>
      <trkpt lat="49.87309" lon="1.10685">
        <ele>75</ele>
        <time>2023-08-09T15:45:13.000Z</time>
      </trkpt>
      <trkpt lat="49.87308" lon="1.10674">
        <ele>75</ele>
        <time>2023-08-09T15:45:14.000Z</time>
      </trkpt>
      <trkpt lat="49.87307" lon="1.10586">
        <ele>74</ele>
        <time>2023-08-09T15:45:22.000Z</time>
      </trkpt>
      <trkpt lat="49.87307" lon="1.10575">
        <ele>73.800003051758</ele>
        <time>2023-08-09T15:45:23.000Z</time>
      </trkpt>
      <trkpt lat="49.87308" lon="1.10518">
        <ele>72.800003051758</ele>
        <time>2023-08-09T15:45:28.000Z</time>
      </trkpt>
      <trkpt lat="49.8731" lon="1.10462">
        <ele>71.599998474121</ele>
        <time>2023-08-09T15:45:33.000Z</time>
      </trkpt>
      <trkpt lat="49.87312" lon="1.10394">
        <ele>70.599998474121</ele>
        <time>2023-08-09T15:45:39.000Z</time>
      </trkpt>
      <trkpt lat="49.87312" lon="1.10346">
        <ele>69.599998474121</ele>
        <time>2023-08-09T15:45:43.000Z</time>
      </trkpt>
      <trkpt lat="49.87313" lon="1.10322">
        <ele>69.400001525879</ele>
        <time>2023-08-09T15:45:45.000Z</time>
      </trkpt>
      <trkpt lat="49.87315" lon="1.1025">
        <ele>68.400001525879</ele>
        <time>2023-08-09T15:45:51.000Z</time>
      </trkpt>
      <trkpt lat="49.87315" lon="1.10238">
        <ele>68</ele>
        <time>2023-08-09T15:45:52.000Z</time>
      </trkpt>
      <trkpt lat="49.87315" lon="1.10181">
        <ele>67.199996948242</ele>
        <time>2023-08-09T15:45:57.000Z</time>
      </trkpt>
      <trkpt lat="49.87317" lon="1.10149">
        <ele>66.599998474121</ele>
        <time>2023-08-09T15:46:00.000Z</time>
      </trkpt>
      <trkpt lat="49.87321" lon="1.10108">
        <ele>66.199996948242</ele>
        <time>2023-08-09T15:46:05.000Z</time>
      </trkpt>
      <trkpt lat="49.87324" lon="1.10088">
        <ele>66</ele>
        <time>2023-08-09T15:46:06.000Z</time>
      </trkpt>
      <trkpt lat="49.87331" lon="1.10038">
        <ele>65.599998474121</ele>
        <time>2023-08-09T15:46:11.000Z</time>
      </trkpt>
      <trkpt lat="49.87333" lon="1.10029">
        <ele>65.599998474121</ele>
        <time>2023-08-09T15:46:12.000Z</time>
      </trkpt>
      <trkpt lat="49.87341" lon="1.10003">
        <ele>65.599998474121</ele>
        <time>2023-08-09T15:46:15.000Z</time>
      </trkpt>
      <trkpt lat="49.87341" lon="1.09994">
        <ele>65.599998474121</ele>
        <time>2023-08-09T15:46:16.000Z</time>
      </trkpt>
      <trkpt lat="49.8734" lon="1.09986">
        <ele>65.599998474121</ele>
        <time>2023-08-09T15:46:17.000Z</time>
      </trkpt>
      <trkpt lat="49.87334" lon="1.0997">
        <ele>65.599998474121</ele>
        <time>2023-08-09T15:46:19.000Z</time>
      </trkpt>
      <trkpt lat="49.87319" lon="1.09952">
        <ele>65.599998474121</ele>
        <time>2023-08-09T15:46:22.000Z</time>
      </trkpt>
      <trkpt lat="49.87315" lon="1.09944">
        <ele>65.599998474121</ele>
        <time>2023-08-09T15:46:23.000Z</time>
      </trkpt>
      <trkpt lat="49.87311" lon="1.09934">
        <ele>65.599998474121</ele>
        <time>2023-08-09T15:46:24.000Z</time>
      </trkpt>
      <trkpt lat="49.87309" lon="1.09913">
        <ele>65.400001525879</ele>
        <time>2023-08-09T15:46:26.000Z</time>
      </trkpt>
      <trkpt lat="49.87309" lon="1.0989">
        <ele>64.800003051758</ele>
        <time>2023-08-09T15:46:29.000Z</time>
      </trkpt>
      <trkpt lat="49.87308" lon="1.09833">
        <ele>63.599998474121</ele>
        <time>2023-08-09T15:46:33.000Z</time>
      </trkpt>
      <trkpt lat="49.87305" lon="1.09785">
        <ele>62.599998474121</ele>
        <time>2023-08-09T15:46:37.000Z</time>
      </trkpt>
      <trkpt lat="49.87298" lon="1.09725">
        <ele>61.799999237061</ele>
        <time>2023-08-09T15:46:42.000Z</time>
      </trkpt>
      <trkpt lat="49.87293" lon="1.09702">
        <ele>61.400001525879</ele>
        <time>2023-08-09T15:46:44.000Z</time>
      </trkpt>
      <trkpt lat="49.87278" lon="1.09645">
        <ele>60.799999237061</ele>
        <time>2023-08-09T15:46:49.000Z</time>
      </trkpt>
      <trkpt lat="49.87272" lon="1.09623">
        <ele>60.400001525879</ele>
        <time>2023-08-09T15:46:51.000Z</time>
      </trkpt>
      <trkpt lat="49.87257" lon="1.09552">
        <ele>59.200000762939</ele>
        <time>2023-08-09T15:46:57.000Z</time>
      </trkpt>
      <trkpt lat="49.87252" lon="1.09516">
        <ele>58</ele>
        <time>2023-08-09T15:47:00.000Z</time>
      </trkpt>
      <trkpt lat="49.87248" lon="1.09468">
        <ele>57</ele>
        <time>2023-08-09T15:47:04.000Z</time>
      </trkpt>
      <trkpt lat="49.87243" lon="1.09417">
        <ele>56</ele>
        <time>2023-08-09T15:47:08.000Z</time>
      </trkpt>
      <trkpt lat="49.87238" lon="1.09364">
        <ele>54.599998474121</ele>
        <time>2023-08-09T15:47:12.000Z</time>
      </trkpt>
      <trkpt lat="49.87237" lon="1.0935">
        <ele>54.400001525879</ele>
        <time>2023-08-09T15:47:13.000Z</time>
      </trkpt>
      <trkpt lat="49.8723" lon="1.09308">
        <ele>53.400001525879</ele>
        <time>2023-08-09T15:47:16.000Z</time>
      </trkpt>
      <trkpt lat="49.87221" lon="1.09266">
        <ele>52.400001525879</ele>
        <time>2023-08-09T15:47:19.000Z</time>
      </trkpt>
      <trkpt lat="49.87217" lon="1.09252">
        <ele>52.400001525879</ele>
        <time>2023-08-09T15:47:20.000Z</time>
      </trkpt>
      <trkpt lat="49.87202" lon="1.09196">
        <ele>51</ele>
        <time>2023-08-09T15:47:24.000Z</time>
      </trkpt>
      <trkpt lat="49.87188" lon="1.09139">
        <ele>50</ele>
        <time>2023-08-09T15:47:28.000Z</time>
      </trkpt>
      <trkpt lat="49.87177" lon="1.09078">
        <ele>48.799999237061</ele>
        <time>2023-08-09T15:47:32.000Z</time>
      </trkpt>
      <trkpt lat="49.87173" lon="1.09047">
        <ele>48</ele>
        <time>2023-08-09T15:47:34.000Z</time>
      </trkpt>
      <trkpt lat="49.87171" lon="1.09031">
        <ele>47.200000762939</ele>
        <time>2023-08-09T15:47:35.000Z</time>
      </trkpt>
      <trkpt lat="49.87166" lon="1.08967">
        <ele>46</ele>
        <time>2023-08-09T15:47:39.000Z</time>
      </trkpt>
      <trkpt lat="49.87164" lon="1.08936">
        <ele>45</ele>
        <time>2023-08-09T15:47:41.000Z</time>
      </trkpt>
      <trkpt lat="49.87163" lon="1.08889">
        <ele>43.799999237061</ele>
        <time>2023-08-09T15:47:44.000Z</time>
      </trkpt>
      <trkpt lat="49.87165" lon="1.0886">
        <ele>43.200000762939</ele>
        <time>2023-08-09T15:47:46.000Z</time>
      </trkpt>
      <trkpt lat="49.87166" lon="1.08845">
        <ele>42.400001525879</ele>
        <time>2023-08-09T15:47:47.000Z</time>
      </trkpt>
      <trkpt lat="49.8717" lon="1.08785">
        <ele>41.400001525879</ele>
        <time>2023-08-09T15:47:51.000Z</time>
      </trkpt>
      <trkpt lat="49.87172" lon="1.08729">
        <ele>40.400001525879</ele>
        <time>2023-08-09T15:47:55.000Z</time>
      </trkpt>
      <trkpt lat="49.87171" lon="1.08649">
        <ele>39.200000762939</ele>
        <time>2023-08-09T15:48:01.000Z</time>
      </trkpt>
      <trkpt lat="49.8717" lon="1.08639">
        <ele>39</ele>
        <time>2023-08-09T15:48:02.000Z</time>
      </trkpt>
      <trkpt lat="49.87165" lon="1.08559">
        <ele>37.799999237061</ele>
        <time>2023-08-09T15:48:08.000Z</time>
      </trkpt>
      <trkpt lat="49.87162" lon="1.08528">
        <ele>37.400001525879</ele>
        <time>2023-08-09T15:48:10.000Z</time>
      </trkpt>
      <trkpt lat="49.87161" lon="1.08516">
        <ele>36.799999237061</ele>
        <time>2023-08-09T15:48:11.000Z</time>
      </trkpt>
      <trkpt lat="49.87156" lon="1.08472">
        <ele>35.599998474121</ele>
        <time>2023-08-09T15:48:14.000Z</time>
      </trkpt>
      <trkpt lat="49.87152" lon="1.08442">
        <ele>35.200000762939</ele>
        <time>2023-08-09T15:48:16.000Z</time>
      </trkpt>
      <trkpt lat="49.87148" lon="1.08413">
        <ele>34</ele>
        <time>2023-08-09T15:48:18.000Z</time>
      </trkpt>
      <trkpt lat="49.87141" lon="1.08352">
        <ele>32.799999237061</ele>
        <time>2023-08-09T15:48:22.000Z</time>
      </trkpt>
      <trkpt lat="49.87139" lon="1.08305">
        <ele>31.60000038147</ele>
        <time>2023-08-09T15:48:25.000Z</time>
      </trkpt>
      <trkpt lat="49.87138" lon="1.08263">
        <ele>30.60000038147</ele>
        <time>2023-08-09T15:48:28.000Z</time>
      </trkpt>
      <trkpt lat="49.87138" lon="1.08215">
        <ele>29.39999961853</ele>
        <time>2023-08-09T15:48:31.000Z</time>
      </trkpt>
      <trkpt lat="49.87139" lon="1.0817">
        <ele>28.39999961853</ele>
        <time>2023-08-09T15:48:34.000Z</time>
      </trkpt>
      <trkpt lat="49.8714" lon="1.08156">
        <ele>28.200000762939</ele>
        <time>2023-08-09T15:48:35.000Z</time>
      </trkpt>
      <trkpt lat="49.87141" lon="1.081">
        <ele>27.200000762939</ele>
        <time>2023-08-09T15:48:39.000Z</time>
      </trkpt>
      <trkpt lat="49.87141" lon="1.08073">
        <ele>26.60000038147</ele>
        <time>2023-08-09T15:48:41.000Z</time>
      </trkpt>
      <trkpt lat="49.8714" lon="1.08046">
        <ele>26.200000762939</ele>
        <time>2023-08-09T15:48:43.000Z</time>
      </trkpt>
      <trkpt lat="49.87136" lon="1.07976">
        <ele>24.799999237061</ele>
        <time>2023-08-09T15:48:48.000Z</time>
      </trkpt>
      <trkpt lat="49.87134" lon="1.07961">
        <ele>24.60000038147</ele>
        <time>2023-08-09T15:48:49.000Z</time>
      </trkpt>
      <trkpt lat="49.87128" lon="1.07919">
        <ele>23.60000038147</ele>
        <time>2023-08-09T15:48:52.000Z</time>
      </trkpt>
      <trkpt lat="49.87119" lon="1.07862">
        <ele>22.60000038147</ele>
        <time>2023-08-09T15:48:56.000Z</time>
      </trkpt>
      <trkpt lat="49.87114" lon="1.07835">
        <ele>22.200000762939</ele>
        <time>2023-08-09T15:48:58.000Z</time>
      </trkpt>
      <trkpt lat="49.87104" lon="1.07782">
        <ele>21</ele>
        <time>2023-08-09T15:49:02.000Z</time>
      </trkpt>
      <trkpt lat="49.87102" lon="1.07769">
        <ele>20.60000038147</ele>
        <time>2023-08-09T15:49:03.000Z</time>
      </trkpt>
      <trkpt lat="49.87099" lon="1.07755">
        <ele>20</ele>
        <time>2023-08-09T15:49:04.000Z</time>
      </trkpt>
      <trkpt lat="49.87093" lon="1.07717">
        <ele>19.200000762939</ele>
        <time>2023-08-09T15:49:07.000Z</time>
      </trkpt>
      <trkpt lat="49.87093" lon="1.07705">
        <ele>19</ele>
        <time>2023-08-09T15:49:08.000Z</time>
      </trkpt>
      <trkpt lat="49.87093" lon="1.07705">
        <ele>18.799999237061</ele>
        <time>2023-08-09T15:49:09.000Z</time>
      </trkpt>
      <trkpt lat="49.87099" lon="1.07682">
        <ele>18.799999237061</ele>
        <time>2023-08-09T15:49:10.000Z</time>
      </trkpt>
      <trkpt lat="49.87107" lon="1.07658">
        <ele>18.39999961853</ele>
        <time>2023-08-09T15:49:12.000Z</time>
      </trkpt>
      <trkpt lat="49.87112" lon="1.07637">
        <ele>18.200000762939</ele>
        <time>2023-08-09T15:49:14.000Z</time>
      </trkpt>
      <trkpt lat="49.87114" lon="1.0761">
        <ele>18.200000762939</ele>
        <time>2023-08-09T15:49:16.000Z</time>
      </trkpt>
      <trkpt lat="49.87117" lon="1.07568">
        <ele>17.799999237061</ele>
        <time>2023-08-09T15:49:19.000Z</time>
      </trkpt>
      <trkpt lat="49.87119" lon="1.07553">
        <ele>17.60000038147</ele>
        <time>2023-08-09T15:49:20.000Z</time>
      </trkpt>
      <trkpt lat="49.8713" lon="1.07513">
        <ele>16.200000762939</ele>
        <time>2023-08-09T15:49:23.000Z</time>
      </trkpt>
      <trkpt lat="49.87146" lon="1.07477">
        <ele>14.800000190735</ele>
        <time>2023-08-09T15:49:26.000Z</time>
      </trkpt>
      <trkpt lat="49.87167" lon="1.07432">
        <ele>13.39999961853</ele>
        <time>2023-08-09T15:49:30.000Z</time>
      </trkpt>
      <trkpt lat="49.87193" lon="1.07377">
        <ele>12.39999961853</ele>
        <time>2023-08-09T15:49:35.000Z</time>
      </trkpt>
      <trkpt lat="49.87198" lon="1.07367">
        <ele>12.199999809265</ele>
        <time>2023-08-09T15:49:36.000Z</time>
      </trkpt>
      <trkpt lat="49.87224" lon="1.07315">
        <ele>11.199999809265</ele>
        <time>2023-08-09T15:49:41.000Z</time>
      </trkpt>
      <trkpt lat="49.87234" lon="1.0729">
        <ele>10.800000190735</ele>
        <time>2023-08-09T15:49:43.000Z</time>
      </trkpt>
      <trkpt lat="49.87241" lon="1.07269">
        <ele>10.199999809265</ele>
        <time>2023-08-09T15:49:45.000Z</time>
      </trkpt>
      <trkpt lat="49.87249" lon="1.07233">
        <ele>9.1999998092651</ele>
        <time>2023-08-09T15:49:49.000Z</time>
      </trkpt>
      <trkpt lat="49.87255" lon="1.07194">
        <ele>9</ele>
        <time>2023-08-09T15:49:51.000Z</time>
      </trkpt>
      <trkpt lat="49.87264" lon="1.07129">
        <ele>7.5999999046326</ele>
        <time>2023-08-09T15:49:56.000Z</time>
      </trkpt>
      <trkpt lat="49.87265" lon="1.07116">
        <ele>7.4000000953674</ele>
        <time>2023-08-09T15:49:57.000Z</time>
      </trkpt>
      <trkpt lat="49.87268" lon="1.07065">
        <ele>6.4000000953674</ele>
        <time>2023-08-09T15:50:01.000Z</time>
      </trkpt>
      <trkpt lat="49.87269" lon="1.07053">
        <ele>6.4000000953674</ele>
        <time>2023-08-09T15:50:02.000Z</time>
      </trkpt>
      <trkpt lat="49.8727" lon="1.0701">
        <ele>5.5999999046326</ele>
        <time>2023-08-09T15:50:06.000Z</time>
      </trkpt>
      <trkpt lat="49.8727" lon="1.07">
        <ele>5.4000000953674</ele>
        <time>2023-08-09T15:50:07.000Z</time>
      </trkpt>
      <trkpt lat="49.8727" lon="1.06956">
        <ele>4.4000000953674</ele>
        <time>2023-08-09T15:50:12.000Z</time>
      </trkpt>
      <trkpt lat="49.8727" lon="1.0691">
        <ele>3.5999999046326</ele>
        <time>2023-08-09T15:50:17.000Z</time>
      </trkpt>
      <trkpt lat="49.87265" lon="1.06893">
        <ele>3</ele>
        <time>2023-08-09T15:50:19.000Z</time>
      </trkpt>
      <trkpt lat="49.87253" lon="1.06887">
        <ele>2.4000000953674</ele>
        <time>2023-08-09T15:50:21.000Z</time>
      </trkpt>
      <trkpt lat="49.87237" lon="1.06888">
        <ele>1.6000000238419</ele>
        <time>2023-08-09T15:50:24.000Z</time>
      </trkpt>
      <trkpt lat="49.87234" lon="1.06886">
        <ele>1.2000000476837</ele>
        <time>2023-08-09T15:50:25.000Z</time>
      </trkpt>
      <trkpt lat="49.87228" lon="1.06879">
        <ele>0.40000000596046</ele>
        <time>2023-08-09T15:50:27.000Z</time>
      </trkpt>
      <trkpt lat="49.87227" lon="1.06873">
        <ele>0.40000000596046</ele>
        <time>2023-08-09T15:50:28.000Z</time>
      </trkpt>
      <trkpt lat="49.87221" lon="1.06815">
        <ele>-0.20000000298023</ele>
        <time>2023-08-09T15:50:35.000Z</time>
      </trkpt>
      <trkpt lat="49.87214" lon="1.0675">
        <ele>19</ele>
        <time>2023-08-09T15:50:42.000Z</time>
      </trkpt>
      <trkpt lat="49.87202" lon="1.06663">
        <ele>-0.40000000596046</ele>
        <time>2023-08-09T15:50:52.000Z</time>
      </trkpt>
      <trkpt lat="49.87201" lon="1.06654">
        <ele>-0.40000000596046</ele>
        <time>2023-08-09T15:50:53.000Z</time>
      </trkpt>
      <trkpt lat="49.87195" lon="1.06623">
        <ele>19.4</ele>
        <time>2023-08-09T15:50:57.000Z</time>
      </trkpt>
      <trkpt lat="49.8719" lon="1.0661">
        <ele>19</ele>
        <time>2023-08-09T15:50:59.000Z</time>
      </trkpt>
      <trkpt lat="49.87184" lon="1.06598">
        <ele>0.20000000298023</ele>
        <time>2023-08-09T15:51:01.000Z</time>
      </trkpt>
      <trkpt lat="49.87174" lon="1.06583">
        <ele>0.40000000596046</ele>
        <time>2023-08-09T15:51:04.000Z</time>
      </trkpt>
      <trkpt lat="49.87157" lon="1.06564">
        <ele>0.40000000596046</ele>
        <time>2023-08-09T15:51:09.000Z</time>
      </trkpt>
      <trkpt lat="49.8715" lon="1.06558">
        <ele>0.80000001192093</ele>
        <time>2023-08-09T15:51:11.000Z</time>
      </trkpt>
      <trkpt lat="49.87129" lon="1.06537">
        <ele>1.6000000238419</ele>
        <time>2023-08-09T15:51:18.000Z</time>
      </trkpt>
      <trkpt lat="49.87126" lon="1.06534">
        <ele>1.6000000238419</ele>
        <time>2023-08-09T15:51:19.000Z</time>
      </trkpt>
      <trkpt lat="49.87112" lon="1.06519">
        <ele>2.5999999046326</ele>
        <time>2023-08-09T15:51:24.000Z</time>
      </trkpt>
      <trkpt lat="49.871" lon="1.06506">
        <ele>3.7999999523163</ele>
        <time>2023-08-09T15:51:29.000Z</time>
      </trkpt>
      <trkpt lat="49.87097" lon="1.06502">
        <ele>4</ele>
        <time>2023-08-09T15:51:30.000Z</time>
      </trkpt>
      <trkpt lat="49.87087" lon="1.06486">
        <ele>4.8000001907349</ele>
        <time>2023-08-09T15:51:35.000Z</time>
      </trkpt>
      <trkpt lat="49.87079" lon="1.06472">
        <ele>5.5999999046326</ele>
        <time>2023-08-09T15:51:39.000Z</time>
      </trkpt>
      <trkpt lat="49.87077" lon="1.06469">
        <ele>5.8000001907349</ele>
        <time>2023-08-09T15:51:40.000Z</time>
      </trkpt>
      <trkpt lat="49.87069" lon="1.0645">
        <ele>6.8000001907349</ele>
        <time>2023-08-09T15:51:45.000Z</time>
      </trkpt>
      <trkpt lat="49.87066" lon="1.06443">
        <ele>7.4000000953674</ele>
        <time>2023-08-09T15:51:47.000Z</time>
      </trkpt>
      <trkpt lat="49.87065" lon="1.0644">
        <ele>7.8000001907349</ele>
        <time>2023-08-09T15:51:48.000Z</time>
      </trkpt>
      <trkpt lat="49.87064" lon="1.06437">
        <ele>7.8000001907349</ele>
        <time>2023-08-09T15:51:49.000Z</time>
      </trkpt>
      <trkpt lat="49.87059" lon="1.06425">
        <ele>9</ele>
        <time>2023-08-09T15:51:53.000Z</time>
      </trkpt>
      <trkpt lat="49.87058" lon="1.06422">
        <ele>9</ele>
        <time>2023-08-09T15:51:54.000Z</time>
      </trkpt>
      <trkpt lat="49.87055" lon="1.06411">
        <ele>10</ele>
        <time>2023-08-09T15:51:58.000Z</time>
      </trkpt>
      <trkpt lat="49.87051" lon="1.06399">
        <ele>11</ele>
        <time>2023-08-09T15:52:02.000Z</time>
      </trkpt>
      <trkpt lat="49.87049" lon="1.06393">
        <ele>11.199999809265</ele>
        <time>2023-08-09T15:52:04.000Z</time>
      </trkpt>
      <trkpt lat="49.87043" lon="1.06378">
        <ele>12.39999961853</ele>
        <time>2023-08-09T15:52:09.000Z</time>
      </trkpt>
      <trkpt lat="49.87043" lon="1.06378">
        <ele>12.39999961853</ele>
        <time>2023-08-09T15:52:10.000Z</time>
      </trkpt>
      <trkpt lat="49.87033" lon="1.06355">
        <ele>13.199999809265</ele>
        <time>2023-08-09T15:52:16.000Z</time>
      </trkpt>
      <trkpt lat="49.87032" lon="1.06351">
        <ele>13.39999961853</ele>
        <time>2023-08-09T15:52:17.000Z</time>
      </trkpt>
      <trkpt lat="49.87022" lon="1.06327">
        <ele>14.199999809265</ele>
        <time>2023-08-09T15:52:23.000Z</time>
      </trkpt>
      <trkpt lat="49.87019" lon="1.06323">
        <ele>14.39999961853</ele>
        <time>2023-08-09T15:52:24.000Z</time>
      </trkpt>
      <trkpt lat="49.87011" lon="1.06304">
        <ele>15.39999961853</ele>
        <time>2023-08-09T15:52:29.000Z</time>
      </trkpt>
      <trkpt lat="49.87008" lon="1.06296">
        <ele>15.39999961853</ele>
        <time>2023-08-09T15:52:31.000Z</time>
      </trkpt>
      <trkpt lat="49.87004" lon="1.06286">
        <ele>16.200000762939</ele>
        <time>2023-08-09T15:52:34.000Z</time>
      </trkpt>
      <trkpt lat="49.87001" lon="1.06279">
        <ele>16.60000038147</ele>
        <time>2023-08-09T15:52:36.000Z</time>
      </trkpt>
      <trkpt lat="49.86999" lon="1.06251">
        <ele>17.39999961853</ele>
        <time>2023-08-09T15:52:43.000Z</time>
      </trkpt>
      <trkpt lat="49.86999" lon="1.06248">
        <ele>17.60000038147</ele>
        <time>2023-08-09T15:52:44.000Z</time>
      </trkpt>
      <trkpt lat="49.86996" lon="1.06226">
        <ele>18.60000038147</ele>
        <time>2023-08-09T15:52:50.000Z</time>
      </trkpt>
      <trkpt lat="49.86995" lon="1.06223">
        <ele>18.60000038147</ele>
        <time>2023-08-09T15:52:51.000Z</time>
      </trkpt>
      <trkpt lat="49.8699" lon="1.06207">
        <ele>19.60000038147</ele>
        <time>2023-08-09T15:52:56.000Z</time>
      </trkpt>
      <trkpt lat="49.86988" lon="1.06205">
        <ele>19.799999237061</ele>
        <time>2023-08-09T15:52:57.000Z</time>
      </trkpt>
      <trkpt lat="49.86987" lon="1.06202">
        <ele>20</ele>
        <time>2023-08-09T15:52:58.000Z</time>
      </trkpt>
      <trkpt lat="49.86983" lon="1.06191">
        <ele>21</ele>
        <time>2023-08-09T15:53:01.000Z</time>
      </trkpt>
      <trkpt lat="49.8698" lon="1.06176">
        <ele>21.39999961853</ele>
        <time>2023-08-09T15:53:05.000Z</time>
      </trkpt>
      <trkpt lat="49.86975" lon="1.06165">
        <ele>22.200000762939</ele>
        <time>2023-08-09T15:53:08.000Z</time>
      </trkpt>
      <trkpt lat="49.86969" lon="1.06152">
        <ele>22.60000038147</ele>
        <time>2023-08-09T15:53:11.000Z</time>
      </trkpt>
      <trkpt lat="49.86966" lon="1.06137">
        <ele>23</ele>
        <time>2023-08-09T15:53:15.000Z</time>
      </trkpt>
      <trkpt lat="49.86964" lon="1.06133">
        <ele>23.39999961853</ele>
        <time>2023-08-09T15:53:16.000Z</time>
      </trkpt>
      <trkpt lat="49.86962" lon="1.06124">
        <ele>23.799999237061</ele>
        <time>2023-08-09T15:53:19.000Z</time>
      </trkpt>
      <trkpt lat="49.86958" lon="1.06116">
        <ele>24</ele>
        <time>2023-08-09T15:53:21.000Z</time>
      </trkpt>
      <trkpt lat="49.86957" lon="1.06111">
        <ele>24.200000762939</ele>
        <time>2023-08-09T15:53:22.000Z</time>
      </trkpt>
      <trkpt lat="49.86947" lon="1.06083">
        <ele>25.200000762939</ele>
        <time>2023-08-09T15:53:29.000Z</time>
      </trkpt>
      <trkpt lat="49.86942" lon="1.06062">
        <ele>25.799999237061</ele>
        <time>2023-08-09T15:53:36.000Z</time>
      </trkpt>
      <trkpt lat="49.86941" lon="1.06053">
        <ele>26.200000762939</ele>
        <time>2023-08-09T15:53:39.000Z</time>
      </trkpt>
      <trkpt lat="49.86938" lon="1.06043">
        <ele>26.799999237061</ele>
        <time>2023-08-09T15:53:42.000Z</time>
      </trkpt>
      <trkpt lat="49.86934" lon="1.06034">
        <ele>27.200000762939</ele>
        <time>2023-08-09T15:53:45.000Z</time>
      </trkpt>
      <trkpt lat="49.8693" lon="1.06019">
        <ele>28</ele>
        <time>2023-08-09T15:53:49.000Z</time>
      </trkpt>
      <trkpt lat="49.86927" lon="1.06009">
        <ele>28.39999961853</ele>
        <time>2023-08-09T15:53:52.000Z</time>
      </trkpt>
      <trkpt lat="49.86921" lon="1.05997">
        <ele>29.39999961853</ele>
        <time>2023-08-09T15:53:56.000Z</time>
      </trkpt>
      <trkpt lat="49.86918" lon="1.05982">
        <ele>30.200000762939</ele>
        <time>2023-08-09T15:54:01.000Z</time>
      </trkpt>
      <trkpt lat="49.86917" lon="1.05976">
        <ele>30.60000038147</ele>
        <time>2023-08-09T15:54:03.000Z</time>
      </trkpt>
      <trkpt lat="49.86913" lon="1.05967">
        <ele>31.200000762939</ele>
        <time>2023-08-09T15:54:06.000Z</time>
      </trkpt>
      <trkpt lat="49.86913" lon="1.05964">
        <ele>31.39999961853</ele>
        <time>2023-08-09T15:54:07.000Z</time>
      </trkpt>
      <trkpt lat="49.86912" lon="1.05958">
        <ele>31.799999237061</ele>
        <time>2023-08-09T15:54:09.000Z</time>
      </trkpt>
      <trkpt lat="49.86909" lon="1.05944">
        <ele>32.400001525879</ele>
        <time>2023-08-09T15:54:13.000Z</time>
      </trkpt>
      <trkpt lat="49.86908" lon="1.05935">
        <ele>33.200000762939</ele>
        <time>2023-08-09T15:54:16.000Z</time>
      </trkpt>
      <trkpt lat="49.86906" lon="1.05926">
        <ele>33.599998474121</ele>
        <time>2023-08-09T15:54:19.000Z</time>
      </trkpt>
      <trkpt lat="49.86905" lon="1.05924">
        <ele>33.799999237061</ele>
        <time>2023-08-09T15:54:20.000Z</time>
      </trkpt>
      <trkpt lat="49.86905" lon="1.05917">
        <ele>34.200000762939</ele>
        <time>2023-08-09T15:54:22.000Z</time>
      </trkpt>
      <trkpt lat="49.86904" lon="1.05909">
        <ele>34.400001525879</ele>
        <time>2023-08-09T15:54:24.000Z</time>
      </trkpt>
      <trkpt lat="49.86901" lon="1.05902">
        <ele>34.599998474121</ele>
        <time>2023-08-09T15:54:26.000Z</time>
      </trkpt>
      <trkpt lat="49.869" lon="1.05898">
        <ele>34.599998474121</ele>
        <time>2023-08-09T15:54:27.000Z</time>
      </trkpt>
      <trkpt lat="49.86895" lon="1.05869">
        <ele>35</ele>
        <time>2023-08-09T15:54:33.000Z</time>
      </trkpt>
      <trkpt lat="49.86893" lon="1.0586">
        <ele>35.400001525879</ele>
        <time>2023-08-09T15:54:35.000Z</time>
      </trkpt>
      <trkpt lat="49.8689" lon="1.0585">
        <ele>35.400001525879</ele>
        <time>2023-08-09T15:54:37.000Z</time>
      </trkpt>
      <trkpt lat="49.86886" lon="1.05829">
        <ele>36</ele>
        <time>2023-08-09T15:54:41.000Z</time>
      </trkpt>
      <trkpt lat="49.86885" lon="1.0582">
        <ele>36.400001525879</ele>
        <time>2023-08-09T15:54:43.000Z</time>
      </trkpt>
      <trkpt lat="49.86883" lon="1.05799">
        <ele>37.599998474121</ele>
        <time>2023-08-09T15:54:48.000Z</time>
      </trkpt>
      <trkpt lat="49.86882" lon="1.05795">
        <ele>37.799999237061</ele>
        <time>2023-08-09T15:54:49.000Z</time>
      </trkpt>
      <trkpt lat="49.86877" lon="1.05772">
        <ele>38.599998474121</ele>
        <time>2023-08-09T15:54:55.000Z</time>
      </trkpt>
      <trkpt lat="49.86874" lon="1.05751">
        <ele>39.400001525879</ele>
        <time>2023-08-09T15:55:00.000Z</time>
      </trkpt>
      <trkpt lat="49.86872" lon="1.05742">
        <ele>39.599998474121</ele>
        <time>2023-08-09T15:55:02.000Z</time>
      </trkpt>
      <trkpt lat="49.86862" lon="1.05715">
        <ele>40.599998474121</ele>
        <time>2023-08-09T15:55:08.000Z</time>
      </trkpt>
      <trkpt lat="49.86862" lon="1.05711">
        <ele>40.799999237061</ele>
        <time>2023-08-09T15:55:09.000Z</time>
      </trkpt>
      <trkpt lat="49.86851" lon="1.05681">
        <ele>41.400001525879</ele>
        <time>2023-08-09T15:55:15.000Z</time>
      </trkpt>
      <trkpt lat="49.86846" lon="1.05667">
        <ele>42</ele>
        <time>2023-08-09T15:55:19.000Z</time>
      </trkpt>
      <trkpt lat="49.86837" lon="1.05645">
        <ele>42.400001525879</ele>
        <time>2023-08-09T15:55:23.000Z</time>
      </trkpt>
      <trkpt lat="49.86827" lon="1.05624">
        <ele>43.599998474121</ele>
        <time>2023-08-09T15:55:29.000Z</time>
      </trkpt>
      <trkpt lat="49.86825" lon="1.05621">
        <ele>43.599998474121</ele>
        <time>2023-08-09T15:55:30.000Z</time>
      </trkpt>
      <trkpt lat="49.86818" lon="1.05608">
        <ele>44.599998474121</ele>
        <time>2023-08-09T15:55:34.000Z</time>
      </trkpt>
      <trkpt lat="49.86809" lon="1.05595">
        <ele>45.400001525879</ele>
        <time>2023-08-09T15:55:38.000Z</time>
      </trkpt>
      <trkpt lat="49.86807" lon="1.05591">
        <ele>45.599998474121</ele>
        <time>2023-08-09T15:55:39.000Z</time>
      </trkpt>
      <trkpt lat="49.86806" lon="1.05582">
        <ele>46</ele>
        <time>2023-08-09T15:55:41.000Z</time>
      </trkpt>
      <trkpt lat="49.86807" lon="1.05577">
        <ele>46</ele>
        <time>2023-08-09T15:55:42.000Z</time>
      </trkpt>
      <trkpt lat="49.86808" lon="1.05572">
        <ele>46.400001525879</ele>
        <time>2023-08-09T15:55:43.000Z</time>
      </trkpt>
      <trkpt lat="49.86817" lon="1.05558">
        <ele>47</ele>
        <time>2023-08-09T15:55:46.000Z</time>
      </trkpt>
      <trkpt lat="49.86831" lon="1.05544">
        <ele>47.200000762939</ele>
        <time>2023-08-09T15:55:49.000Z</time>
      </trkpt>
      <trkpt lat="49.86839" lon="1.05536">
        <ele>47.200000762939</ele>
        <time>2023-08-09T15:55:51.000Z</time>
      </trkpt>
      <trkpt lat="49.86852" lon="1.05525">
        <ele>47.200000762939</ele>
        <time>2023-08-09T15:55:55.000Z</time>
      </trkpt>
      <trkpt lat="49.86857" lon="1.05517">
        <ele>47.200000762939</ele>
        <time>2023-08-09T15:55:57.000Z</time>
      </trkpt>
      <trkpt lat="49.8686" lon="1.05507">
        <ele>47.599998474121</ele>
        <time>2023-08-09T15:55:59.000Z</time>
      </trkpt>
      <trkpt lat="49.86862" lon="1.05502">
        <ele>47.799999237061</ele>
        <time>2023-08-09T15:56:01.000Z</time>
      </trkpt>
      <trkpt lat="49.86866" lon="1.05481">
        <ele>48.400001525879</ele>
        <time>2023-08-09T15:56:04.000Z</time>
      </trkpt>
      <trkpt lat="49.86866" lon="1.05475">
        <ele>48.599998474121</ele>
        <time>2023-08-09T15:56:05.000Z</time>
      </trkpt>
      <trkpt lat="49.8687" lon="1.05454">
        <ele>49.599998474121</ele>
        <time>2023-08-09T15:56:09.000Z</time>
      </trkpt>
      <trkpt lat="49.86871" lon="1.05448">
        <ele>50</ele>
        <time>2023-08-09T15:56:11.000Z</time>
      </trkpt>
      <trkpt lat="49.86878" lon="1.05409">
        <ele>50.799999237061</ele>
        <time>2023-08-09T15:56:18.000Z</time>
      </trkpt>
      <trkpt lat="49.86878" lon="1.05404">
        <ele>50.799999237061</ele>
        <time>2023-08-09T15:56:19.000Z</time>
      </trkpt>
      <trkpt lat="49.86882" lon="1.05384">
        <ele>51.799999237061</ele>
        <time>2023-08-09T15:56:23.000Z</time>
      </trkpt>
      <trkpt lat="49.86886" lon="1.05363">
        <ele>52.599998474121</ele>
        <time>2023-08-09T15:56:28.000Z</time>
      </trkpt>
      <trkpt lat="49.86888" lon="1.05359">
        <ele>52.799999237061</ele>
        <time>2023-08-09T15:56:29.000Z</time>
      </trkpt>
      <trkpt lat="49.86893" lon="1.05341">
        <ele>53.599998474121</ele>
        <time>2023-08-09T15:56:33.000Z</time>
      </trkpt>
      <trkpt lat="49.86894" lon="1.05336">
        <ele>54</ele>
        <time>2023-08-09T15:56:34.000Z</time>
      </trkpt>
      <trkpt lat="49.86902" lon="1.05304">
        <ele>55</ele>
        <time>2023-08-09T15:56:41.000Z</time>
      </trkpt>
      <trkpt lat="49.8691" lon="1.05265">
        <ele>56</ele>
        <time>2023-08-09T15:56:49.000Z</time>
      </trkpt>
      <trkpt lat="49.86918" lon="1.05237">
        <ele>57</ele>
        <time>2023-08-09T15:56:55.000Z</time>
      </trkpt>
      <trkpt lat="49.8692" lon="1.05234">
        <ele>57.200000762939</ele>
        <time>2023-08-09T15:56:56.000Z</time>
      </trkpt>
      <trkpt lat="49.8693" lon="1.05215">
        <ele>58.200000762939</ele>
        <time>2023-08-09T15:57:01.000Z</time>
      </trkpt>
      <trkpt lat="49.86932" lon="1.05212">
        <ele>58.400001525879</ele>
        <time>2023-08-09T15:57:02.000Z</time>
      </trkpt>
      <trkpt lat="49.86948" lon="1.05195">
        <ele>59.400001525879</ele>
        <time>2023-08-09T15:57:08.000Z</time>
      </trkpt>
      <trkpt lat="49.86966" lon="1.05172">
        <ele>60.400001525879</ele>
        <time>2023-08-09T15:57:15.000Z</time>
      </trkpt>
      <trkpt lat="49.86969" lon="1.05168">
        <ele>60.599998474121</ele>
        <time>2023-08-09T15:57:16.000Z</time>
      </trkpt>
      <trkpt lat="49.86974" lon="1.05142">
        <ele>60.799999237061</ele>
        <time>2023-08-09T15:57:21.000Z</time>
      </trkpt>
      <trkpt lat="49.86973" lon="1.05091">
        <ele>61</ele>
        <time>2023-08-09T15:57:29.000Z</time>
      </trkpt>
      <trkpt lat="49.86971" lon="1.05077">
        <ele>61</ele>
        <time>2023-08-09T15:57:31.000Z</time>
      </trkpt>
      <trkpt lat="49.86965" lon="1.05049">
        <ele>61</ele>
        <time>2023-08-09T15:57:35.000Z</time>
      </trkpt>
      <trkpt lat="49.86952" lon="1.04997">
        <ele>60.599998474121</ele>
        <time>2023-08-09T15:57:43.000Z</time>
      </trkpt>
      <trkpt lat="49.86951" lon="1.04992">
        <ele>60.599998474121</ele>
        <time>2023-08-09T15:57:44.000Z</time>
      </trkpt>
      <trkpt lat="49.86947" lon="1.04979">
        <ele>60.400001525879</ele>
        <time>2023-08-09T15:57:49.000Z</time>
      </trkpt>
      <trkpt lat="49.86947" lon="1.04979">
        <ele>60.400001525879</ele>
        <time>2023-08-09T15:57:50.000Z</time>
      </trkpt>
      <trkpt lat="49.86944" lon="1.04975">
        <ele>61.599998474121</ele>
        <time>2023-08-09T15:58:31.000Z</time>
      </trkpt>
      <trkpt lat="49.86942" lon="1.04968">
        <ele>61.400001525879</ele>
        <time>2023-08-09T15:58:33.000Z</time>
      </trkpt>
      <trkpt lat="49.86941" lon="1.04962">
        <ele>61.400001525879</ele>
        <time>2023-08-09T15:58:36.000Z</time>
      </trkpt>
      <trkpt lat="49.86941" lon="1.04962">
        <ele>61.400001525879</ele>
        <time>2023-08-09T15:58:38.000Z</time>
      </trkpt>
      <trkpt lat="49.8694" lon="1.04958">
        <ele>62.200000762939</ele>
        <time>2023-08-09T15:59:19.000Z</time>
      </trkpt>
      <trkpt lat="49.86936" lon="1.04955">
        <ele>62.200000762939</ele>
        <time>2023-08-09T15:59:21.000Z</time>
      </trkpt>
      <trkpt lat="49.86934" lon="1.0495">
        <ele>62.200000762939</ele>
        <time>2023-08-09T15:59:22.000Z</time>
      </trkpt>
      <trkpt lat="49.86928" lon="1.04933">
        <ele>62</ele>
        <time>2023-08-09T15:59:24.000Z</time>
      </trkpt>
      <trkpt lat="49.86921" lon="1.04918">
        <ele>61.799999237061</ele>
        <time>2023-08-09T15:59:27.000Z</time>
      </trkpt>
      <trkpt lat="49.86918" lon="1.04914">
        <ele>61.799999237061</ele>
        <time>2023-08-09T15:59:28.000Z</time>
      </trkpt>
      <trkpt lat="49.86907" lon="1.04894">
        <ele>61.799999237061</ele>
        <time>2023-08-09T15:59:33.000Z</time>
      </trkpt>
      <trkpt lat="49.86894" lon="1.04868">
        <ele>61.599998474121</ele>
        <time>2023-08-09T15:59:39.000Z</time>
      </trkpt>
      <trkpt lat="49.86876" lon="1.04827">
        <ele>61.599998474121</ele>
        <time>2023-08-09T15:59:47.000Z</time>
      </trkpt>
      <trkpt lat="49.86862" lon="1.04782">
        <ele>61.599998474121</ele>
        <time>2023-08-09T15:59:54.000Z</time>
      </trkpt>
      <trkpt lat="49.86856" lon="1.0477">
        <ele>61.599998474121</ele>
        <time>2023-08-09T15:59:56.000Z</time>
      </trkpt>
      <trkpt lat="49.86849" lon="1.04765">
        <ele>61.599998474121</ele>
        <time>2023-08-09T15:59:58.000Z</time>
      </trkpt>
      <trkpt lat="49.86841" lon="1.0476">
        <ele>61.599998474121</ele>
        <time>2023-08-09T16:00:00.000Z</time>
      </trkpt>
      <trkpt lat="49.86832" lon="1.04755">
        <ele>61.799999237061</ele>
        <time>2023-08-09T16:00:02.000Z</time>
      </trkpt>
      <trkpt lat="49.86812" lon="1.04741">
        <ele>62.200000762939</ele>
        <time>2023-08-09T16:00:07.000Z</time>
      </trkpt>
      <trkpt lat="49.86805" lon="1.04736">
        <ele>62.200000762939</ele>
        <time>2023-08-09T16:00:09.000Z</time>
      </trkpt>
      <trkpt lat="49.86794" lon="1.04725">
        <ele>62.400001525879</ele>
        <time>2023-08-09T16:00:12.000Z</time>
      </trkpt>
      <trkpt lat="49.86791" lon="1.04721">
        <ele>62.599998474121</ele>
        <time>2023-08-09T16:00:13.000Z</time>
      </trkpt>
      <trkpt lat="49.86779" lon="1.04705">
        <ele>63</ele>
        <time>2023-08-09T16:00:17.000Z</time>
      </trkpt>
      <trkpt lat="49.86773" lon="1.04696">
        <ele>63.200000762939</ele>
        <time>2023-08-09T16:00:19.000Z</time>
      </trkpt>
      <trkpt lat="49.86771" lon="1.04692">
        <ele>63.200000762939</ele>
        <time>2023-08-09T16:00:20.000Z</time>
      </trkpt>
      <trkpt lat="49.86756" lon="1.04665">
        <ele>63.400001525879</ele>
        <time>2023-08-09T16:00:25.000Z</time>
      </trkpt>
      <trkpt lat="49.86745" lon="1.04642">
        <ele>63.599998474121</ele>
        <time>2023-08-09T16:00:29.000Z</time>
      </trkpt>
      <trkpt lat="49.86735" lon="1.0462">
        <ele>63.599998474121</ele>
        <time>2023-08-09T16:00:33.000Z</time>
      </trkpt>
      <trkpt lat="49.86733" lon="1.04615">
        <ele>63.799999237061</ele>
        <time>2023-08-09T16:00:34.000Z</time>
      </trkpt>
      <trkpt lat="49.86727" lon="1.04598">
        <ele>64</ele>
        <time>2023-08-09T16:00:37.000Z</time>
      </trkpt>
      <trkpt lat="49.86701" lon="1.04532">
        <ele>64.599998474121</ele>
        <time>2023-08-09T16:00:48.000Z</time>
      </trkpt>
      <trkpt lat="49.86694" lon="1.04514">
        <ele>64.599998474121</ele>
        <time>2023-08-09T16:00:51.000Z</time>
      </trkpt>
      <trkpt lat="49.86683" lon="1.04484">
        <ele>64.800003051758</ele>
        <time>2023-08-09T16:00:56.000Z</time>
      </trkpt>
      <trkpt lat="49.86677" lon="1.04465">
        <ele>64.800003051758</ele>
        <time>2023-08-09T16:00:59.000Z</time>
      </trkpt>
      <trkpt lat="49.86658" lon="1.04396">
        <ele>65.400001525879</ele>
        <time>2023-08-09T16:01:10.000Z</time>
      </trkpt>
      <trkpt lat="49.86654" lon="1.04376">
        <ele>65.599998474121</ele>
        <time>2023-08-09T16:01:13.000Z</time>
      </trkpt>
      <trkpt lat="49.86647" lon="1.04352">
        <ele>66</ele>
        <time>2023-08-09T16:01:17.000Z</time>
      </trkpt>
      <trkpt lat="49.86636" lon="1.04311">
        <ele>66.400001525879</ele>
        <time>2023-08-09T16:01:23.000Z</time>
      </trkpt>
      <trkpt lat="49.86633" lon="1.04297">
        <ele>66.599998474121</ele>
        <time>2023-08-09T16:01:25.000Z</time>
      </trkpt>
      <trkpt lat="49.86625" lon="1.04269">
        <ele>66.599998474121</ele>
        <time>2023-08-09T16:01:29.000Z</time>
      </trkpt>
      <trkpt lat="49.86623" lon="1.04261">
        <ele>66.800003051758</ele>
        <time>2023-08-09T16:01:30.000Z</time>
      </trkpt>
      <trkpt lat="49.86617" lon="1.0424">
        <ele>66.800003051758</ele>
        <time>2023-08-09T16:01:33.000Z</time>
      </trkpt>
      <trkpt lat="49.86611" lon="1.04217">
        <ele>66.800003051758</ele>
        <time>2023-08-09T16:01:36.000Z</time>
      </trkpt>
      <trkpt lat="49.86609" lon="1.0421">
        <ele>66.800003051758</ele>
        <time>2023-08-09T16:01:37.000Z</time>
      </trkpt>
      <trkpt lat="49.86606" lon="1.04195">
        <ele>66.800003051758</ele>
        <time>2023-08-09T16:01:39.000Z</time>
      </trkpt>
      <trkpt lat="49.86603" lon="1.04178">
        <ele>66.800003051758</ele>
        <time>2023-08-09T16:01:41.000Z</time>
      </trkpt>
      <trkpt lat="49.86596" lon="1.04106">
        <ele>66.199996948242</ele>
        <time>2023-08-09T16:01:49.000Z</time>
      </trkpt>
      <trkpt lat="49.86589" lon="1.04018">
        <ele>66</ele>
        <time>2023-08-09T16:01:59.000Z</time>
      </trkpt>
      <trkpt lat="49.86583" lon="1.03942">
        <ele>65.800003051758</ele>
        <time>2023-08-09T16:02:08.000Z</time>
      </trkpt>
      <trkpt lat="49.8658" lon="1.03916">
        <ele>65.800003051758</ele>
        <time>2023-08-09T16:02:11.000Z</time>
      </trkpt>
      <trkpt lat="49.86574" lon="1.03882">
        <ele>66.199996948242</ele>
        <time>2023-08-09T16:02:15.000Z</time>
      </trkpt>
      <trkpt lat="49.86561" lon="1.03803">
        <ele>65.800003051758</ele>
        <time>2023-08-09T16:02:24.000Z</time>
      </trkpt>
      <trkpt lat="49.86553" lon="1.03758">
        <ele>65.599998474121</ele>
        <time>2023-08-09T16:02:29.000Z</time>
      </trkpt>
      <trkpt lat="49.86545" lon="1.03712">
        <ele>65.199996948242</ele>
        <time>2023-08-09T16:02:34.000Z</time>
      </trkpt>
      <trkpt lat="49.8653" lon="1.03627">
        <ele>65</ele>
        <time>2023-08-09T16:02:43.000Z</time>
      </trkpt>
      <trkpt lat="49.86527" lon="1.03607">
        <ele>65</ele>
        <time>2023-08-09T16:02:45.000Z</time>
      </trkpt>
      <trkpt lat="49.8651" lon="1.0352">
        <ele>64.800003051758</ele>
        <time>2023-08-09T16:02:54.000Z</time>
      </trkpt>
      <trkpt lat="49.86507" lon="1.03511">
        <ele>64.800003051758</ele>
        <time>2023-08-09T16:02:55.000Z</time>
      </trkpt>
      <trkpt lat="49.86504" lon="1.03502">
        <ele>64.599998474121</ele>
        <time>2023-08-09T16:02:56.000Z</time>
      </trkpt>
      <trkpt lat="49.86478" lon="1.03423">
        <ele>64.400001525879</ele>
        <time>2023-08-09T16:03:05.000Z</time>
      </trkpt>
      <trkpt lat="49.86449" lon="1.03345">
        <ele>64.199996948242</ele>
        <time>2023-08-09T16:03:14.000Z</time>
      </trkpt>
      <trkpt lat="49.86446" lon="1.03335">
        <ele>64.199996948242</ele>
        <time>2023-08-09T16:03:15.000Z</time>
      </trkpt>
      <trkpt lat="49.86416" lon="1.03254">
        <ele>63.799999237061</ele>
        <time>2023-08-09T16:03:24.000Z</time>
      </trkpt>
      <trkpt lat="49.86412" lon="1.03244">
        <ele>63.799999237061</ele>
        <time>2023-08-09T16:03:25.000Z</time>
      </trkpt>
      <trkpt lat="49.86408" lon="1.03233">
        <ele>63.599998474121</ele>
        <time>2023-08-09T16:03:26.000Z</time>
      </trkpt>
      <trkpt lat="49.86382" lon="1.03158">
        <ele>63</ele>
        <time>2023-08-09T16:03:34.000Z</time>
      </trkpt>
      <trkpt lat="49.86372" lon="1.03131">
        <ele>62.799999237061</ele>
        <time>2023-08-09T16:03:37.000Z</time>
      </trkpt>
      <trkpt lat="49.86368" lon="1.03121">
        <ele>62.799999237061</ele>
        <time>2023-08-09T16:03:38.000Z</time>
      </trkpt>
      <trkpt lat="49.86356" lon="1.03095">
        <ele>62.400001525879</ele>
        <time>2023-08-09T16:03:41.000Z</time>
      </trkpt>
      <trkpt lat="49.86346" lon="1.03082">
        <ele>62.200000762939</ele>
        <time>2023-08-09T16:03:43.000Z</time>
      </trkpt>
      <trkpt lat="49.86321" lon="1.03063">
        <ele>62</ele>
        <time>2023-08-09T16:03:47.000Z</time>
      </trkpt>
      <trkpt lat="49.86306" lon="1.03042">
        <ele>62.200000762939</ele>
        <time>2023-08-09T16:03:50.000Z</time>
      </trkpt>
      <trkpt lat="49.86302" lon="1.03033">
        <ele>62.200000762939</ele>
        <time>2023-08-09T16:03:51.000Z</time>
      </trkpt>
      <trkpt lat="49.86299" lon="1.03022">
        <ele>62.200000762939</ele>
        <time>2023-08-09T16:03:52.000Z</time>
      </trkpt>
      <trkpt lat="49.86294" lon="1.02989">
        <ele>62</ele>
        <time>2023-08-09T16:03:55.000Z</time>
      </trkpt>
      <trkpt lat="49.86289" lon="1.02955">
        <ele>61.599998474121</ele>
        <time>2023-08-09T16:03:58.000Z</time>
      </trkpt>
      <trkpt lat="49.86279" lon="1.02913">
        <ele>61.200000762939</ele>
        <time>2023-08-09T16:04:02.000Z</time>
      </trkpt>
      <trkpt lat="49.86259" lon="1.02869">
        <ele>60.599998474121</ele>
        <time>2023-08-09T16:04:07.000Z</time>
      </trkpt>
      <trkpt lat="49.86255" lon="1.02861">
        <ele>60.400001525879</ele>
        <time>2023-08-09T16:04:08.000Z</time>
      </trkpt>
      <trkpt lat="49.86236" lon="1.02826">
        <ele>59.599998474121</ele>
        <time>2023-08-09T16:04:12.000Z</time>
      </trkpt>
      <trkpt lat="49.86209" lon="1.02772">
        <ele>58.400001525879</ele>
        <time>2023-08-09T16:04:18.000Z</time>
      </trkpt>
      <trkpt lat="49.86195" lon="1.02745">
        <ele>58.200000762939</ele>
        <time>2023-08-09T16:04:21.000Z</time>
      </trkpt>
      <trkpt lat="49.86186" lon="1.02727">
        <ele>57.599998474121</ele>
        <time>2023-08-09T16:04:23.000Z</time>
      </trkpt>
      <trkpt lat="49.86158" lon="1.02673">
        <ele>56.400001525879</ele>
        <time>2023-08-09T16:04:29.000Z</time>
      </trkpt>
      <trkpt lat="49.86139" lon="1.02639">
        <ele>56.200000762939</ele>
        <time>2023-08-09T16:04:33.000Z</time>
      </trkpt>
      <trkpt lat="49.86109" lon="1.02589">
        <ele>55.400001525879</ele>
        <time>2023-08-09T16:04:39.000Z</time>
      </trkpt>
      <trkpt lat="49.86092" lon="1.02563">
        <ele>54.599998474121</ele>
        <time>2023-08-09T16:04:42.000Z</time>
      </trkpt>
      <trkpt lat="49.86075" lon="1.02537">
        <ele>54</ele>
        <time>2023-08-09T16:04:45.000Z</time>
      </trkpt>
      <trkpt lat="49.86063" lon="1.02518">
        <ele>53.200000762939</ele>
        <time>2023-08-09T16:04:47.000Z</time>
      </trkpt>
      <trkpt lat="49.86057" lon="1.02508">
        <ele>53</ele>
        <time>2023-08-09T16:04:48.000Z</time>
      </trkpt>
      <trkpt lat="49.86053" lon="1.02496">
        <ele>52.400001525879</ele>
        <time>2023-08-09T16:04:49.000Z</time>
      </trkpt>
      <trkpt lat="49.86047" lon="1.02469">
        <ele>51.799999237061</ele>
        <time>2023-08-09T16:04:51.000Z</time>
      </trkpt>
      <trkpt lat="49.86046" lon="1.02417">
        <ele>50.599998474121</ele>
        <time>2023-08-09T16:04:55.000Z</time>
      </trkpt>
      <trkpt lat="49.86048" lon="1.02346">
        <ele>49.799999237061</ele>
        <time>2023-08-09T16:05:01.000Z</time>
      </trkpt>
      <trkpt lat="49.86049" lon="1.02284">
        <ele>49.799999237061</ele>
        <time>2023-08-09T16:05:07.000Z</time>
      </trkpt>
      <trkpt lat="49.86047" lon="1.02195">
        <ele>49.599998474121</ele>
        <time>2023-08-09T16:05:16.000Z</time>
      </trkpt>
      <trkpt lat="49.86046" lon="1.02185">
        <ele>49.400001525879</ele>
        <time>2023-08-09T16:05:17.000Z</time>
      </trkpt>
      <trkpt lat="49.86039" lon="1.02101">
        <ele>48.799999237061</ele>
        <time>2023-08-09T16:05:26.000Z</time>
      </trkpt>
      <trkpt lat="49.86035" lon="1.02013">
        <ele>49</ele>
        <time>2023-08-09T16:05:35.000Z</time>
      </trkpt>
      <trkpt lat="49.86037" lon="1.01966">
        <ele>49.200000762939</ele>
        <time>2023-08-09T16:05:40.000Z</time>
      </trkpt>
      <trkpt lat="49.8604" lon="1.01903">
        <ele>50</ele>
        <time>2023-08-09T16:05:48.000Z</time>
      </trkpt>
      <trkpt lat="49.8604" lon="1.01832">
        <ele>50.200000762939</ele>
        <time>2023-08-09T16:05:57.000Z</time>
      </trkpt>
      <trkpt lat="49.86041" lon="1.01762">
        <ele>50.400001525879</ele>
        <time>2023-08-09T16:06:06.000Z</time>
      </trkpt>
      <trkpt lat="49.8604" lon="1.01729">
        <ele>50.400001525879</ele>
        <time>2023-08-09T16:06:10.000Z</time>
      </trkpt>
      <trkpt lat="49.86041" lon="1.01684">
        <ele>50.799999237061</ele>
        <time>2023-08-09T16:06:16.000Z</time>
      </trkpt>
      <trkpt lat="49.86042" lon="1.01616">
        <ele>51</ele>
        <time>2023-08-09T16:06:25.000Z</time>
      </trkpt>
      <trkpt lat="49.86043" lon="1.01531">
        <ele>51.599998474121</ele>
        <time>2023-08-09T16:06:36.000Z</time>
      </trkpt>
      <trkpt lat="49.86043" lon="1.01523">
        <ele>51.799999237061</ele>
        <time>2023-08-09T16:06:37.000Z</time>
      </trkpt>
      <trkpt lat="49.86043" lon="1.01499">
        <ele>51.799999237061</ele>
        <time>2023-08-09T16:06:40.000Z</time>
      </trkpt>
      <trkpt lat="49.86044" lon="1.01421">
        <ele>52.200000762939</ele>
        <time>2023-08-09T16:06:50.000Z</time>
      </trkpt>
      <trkpt lat="49.86044" lon="1.01398">
        <ele>52.799999237061</ele>
        <time>2023-08-09T16:06:53.000Z</time>
      </trkpt>
      <trkpt lat="49.86042" lon="1.01351">
        <ele>53</ele>
        <time>2023-08-09T16:06:59.000Z</time>
      </trkpt>
      <trkpt lat="49.86039" lon="1.01327">
        <ele>53</ele>
        <time>2023-08-09T16:07:02.000Z</time>
      </trkpt>
      <trkpt lat="49.86035" lon="1.01304">
        <ele>53.200000762939</ele>
        <time>2023-08-09T16:07:05.000Z</time>
      </trkpt>
      <trkpt lat="49.86022" lon="1.01245">
        <ele>54</ele>
        <time>2023-08-09T16:07:13.000Z</time>
      </trkpt>
      <trkpt lat="49.86021" lon="1.01238">
        <ele>54</ele>
        <time>2023-08-09T16:07:14.000Z</time>
      </trkpt>
      <trkpt lat="49.86003" lon="1.01153">
        <ele>54.799999237061</ele>
        <time>2023-08-09T16:07:25.000Z</time>
      </trkpt>
      <trkpt lat="49.86001" lon="1.01144">
        <ele>54.799999237061</ele>
        <time>2023-08-09T16:07:26.000Z</time>
      </trkpt>
      <trkpt lat="49.85996" lon="1.01119">
        <ele>55</ele>
        <time>2023-08-09T16:07:29.000Z</time>
      </trkpt>
      <trkpt lat="49.85987" lon="1.01065">
        <ele>55.200000762939</ele>
        <time>2023-08-09T16:07:35.000Z</time>
      </trkpt>
      <trkpt lat="49.85972" lon="1.00984">
        <ele>54.400001525879</ele>
        <time>2023-08-09T16:07:44.000Z</time>
      </trkpt>
      <trkpt lat="49.85958" lon="1.00902">
        <ele>54.400001525879</ele>
        <time>2023-08-09T16:07:53.000Z</time>
      </trkpt>
      <trkpt lat="49.8595" lon="1.00858">
        <ele>54.599998474121</ele>
        <time>2023-08-09T16:07:58.000Z</time>
      </trkpt>
      <trkpt lat="49.85936" lon="1.00782">
        <ele>54.799999237061</ele>
        <time>2023-08-09T16:08:07.000Z</time>
      </trkpt>
      <trkpt lat="49.85933" lon="1.00765">
        <ele>55</ele>
        <time>2023-08-09T16:08:09.000Z</time>
      </trkpt>
      <trkpt lat="49.85922" lon="1.00717">
        <ele>55.200000762939</ele>
        <time>2023-08-09T16:08:15.000Z</time>
      </trkpt>
      <trkpt lat="49.85921" lon="1.00712">
        <ele>55.200000762939</ele>
        <time>2023-08-09T16:08:16.000Z</time>
      </trkpt>
      <trkpt lat="49.85918" lon="1.00709">
        <ele>55.200000762939</ele>
        <time>2023-08-09T16:08:18.000Z</time>
      </trkpt>
      <trkpt lat="49.85918" lon="1.00714">
        <ele>55.200000762939</ele>
        <time>2023-08-09T16:08:20.000Z</time>
      </trkpt>
      <trkpt lat="49.85919" lon="1.00718">
        <ele>55.200000762939</ele>
        <time>2023-08-09T16:08:21.000Z</time>
      </trkpt>
      <trkpt lat="49.85921" lon="1.00731">
        <ele>55.200000762939</ele>
        <time>2023-08-09T16:08:26.000Z</time>
      </trkpt>
      <trkpt lat="49.85921" lon="1.00731">
        <ele>55.200000762939</ele>
        <time>2023-08-09T16:08:27.000Z</time>
      </trkpt>
      <trkpt lat="49.85923" lon="1.00727">
        <ele>55</ele>
        <time>2023-08-09T16:09:41.000Z</time>
      </trkpt>
      <trkpt lat="49.85922" lon="1.0072">
        <ele>55</ele>
        <time>2023-08-09T16:09:44.000Z</time>
      </trkpt>
      <trkpt lat="49.8592" lon="1.00712">
        <ele>54.799999237061</ele>
        <time>2023-08-09T16:09:47.000Z</time>
      </trkpt>
      <trkpt lat="49.85919" lon="1.00699">
        <ele>54.599998474121</ele>
        <time>2023-08-09T16:09:50.000Z</time>
      </trkpt>
      <trkpt lat="49.85917" lon="1.0069">
        <ele>54.599998474121</ele>
        <time>2023-08-09T16:09:52.000Z</time>
      </trkpt>
      <trkpt lat="49.85913" lon="1.00672">
        <ele>54.599998474121</ele>
        <time>2023-08-09T16:09:55.000Z</time>
      </trkpt>
      <trkpt lat="49.85903" lon="1.00626">
        <ele>54.799999237061</ele>
        <time>2023-08-09T16:10:02.000Z</time>
      </trkpt>
      <trkpt lat="49.85888" lon="1.00562">
        <ele>55.400001525879</ele>
        <time>2023-08-09T16:10:11.000Z</time>
      </trkpt>
      <trkpt lat="49.85872" lon="1.00488">
        <ele>56.200000762939</ele>
        <time>2023-08-09T16:10:21.000Z</time>
      </trkpt>
      <trkpt lat="49.85865" lon="1.00462">
        <ele>56.400001525879</ele>
        <time>2023-08-09T16:10:25.000Z</time>
      </trkpt>
      <trkpt lat="49.85854" lon="1.00429">
        <ele>56.599998474121</ele>
        <time>2023-08-09T16:10:30.000Z</time>
      </trkpt>
      <trkpt lat="49.85829" lon="1.00364">
        <ele>57.200000762939</ele>
        <time>2023-08-09T16:10:40.000Z</time>
      </trkpt>
      <trkpt lat="49.85819" lon="1.00339">
        <ele>57.400001525879</ele>
        <time>2023-08-09T16:10:44.000Z</time>
      </trkpt>
      <trkpt lat="49.85807" lon="1.00308">
        <ele>58.200000762939</ele>
        <time>2023-08-09T16:10:49.000Z</time>
      </trkpt>
      <trkpt lat="49.85802" lon="1.00295">
        <ele>58.599998474121</ele>
        <time>2023-08-09T16:10:51.000Z</time>
      </trkpt>
      <trkpt lat="49.85787" lon="1.00254">
        <ele>59.599998474121</ele>
        <time>2023-08-09T16:10:57.000Z</time>
      </trkpt>
      <trkpt lat="49.85784" lon="1.00247">
        <ele>60</ele>
        <time>2023-08-09T16:10:58.000Z</time>
      </trkpt>
      <trkpt lat="49.85771" lon="1.00211">
        <ele>60.799999237061</ele>
        <time>2023-08-09T16:11:04.000Z</time>
      </trkpt>
      <trkpt lat="49.85768" lon="1.00203">
        <ele>60.799999237061</ele>
        <time>2023-08-09T16:11:05.000Z</time>
      </trkpt>
      <trkpt lat="49.85762" lon="1.00185">
        <ele>61</ele>
        <time>2023-08-09T16:11:08.000Z</time>
      </trkpt>
      <trkpt lat="49.85756" lon="1.00173">
        <ele>61</ele>
        <time>2023-08-09T16:11:10.000Z</time>
      </trkpt>
      <trkpt lat="49.85753" lon="1.00166">
        <ele>61</ele>
        <time>2023-08-09T16:11:11.000Z</time>
      </trkpt>
      <trkpt lat="49.85735" lon="1.00124">
        <ele>61.200000762939</ele>
        <time>2023-08-09T16:11:17.000Z</time>
      </trkpt>
      <trkpt lat="49.85711" lon="1.00087">
        <ele>61.400001525879</ele>
        <time>2023-08-09T16:11:24.000Z</time>
      </trkpt>
      <trkpt lat="49.85694" lon="1.00061">
        <ele>62</ele>
        <time>2023-08-09T16:11:29.000Z</time>
      </trkpt>
      <trkpt lat="49.85689" lon="1.00049">
        <ele>62</ele>
        <time>2023-08-09T16:11:31.000Z</time>
      </trkpt>
      <trkpt lat="49.85684" lon="1.00036">
        <ele>62</ele>
        <time>2023-08-09T16:11:33.000Z</time>
      </trkpt>
      <trkpt lat="49.85678" lon="1.00007">
        <ele>62.400001525879</ele>
        <time>2023-08-09T16:11:37.000Z</time>
      </trkpt>
      <trkpt lat="49.8567" lon="0.99941">
        <ele>62.599998474121</ele>
        <time>2023-08-09T16:11:46.000Z</time>
      </trkpt>
      <trkpt lat="49.85668" lon="0.99926">
        <ele>62.799999237061</ele>
        <time>2023-08-09T16:11:48.000Z</time>
      </trkpt>
      <trkpt lat="49.8567" lon="0.99902">
        <ele>62.599998474121</ele>
        <time>2023-08-09T16:11:51.000Z</time>
      </trkpt>
      <trkpt lat="49.85671" lon="0.99894">
        <ele>62.599998474121</ele>
        <time>2023-08-09T16:11:52.000Z</time>
      </trkpt>
      <trkpt lat="49.85676" lon="0.9988">
        <ele>62.599998474121</ele>
        <time>2023-08-09T16:11:54.000Z</time>
      </trkpt>
      <trkpt lat="49.8568" lon="0.99874">
        <ele>62.599998474121</ele>
        <time>2023-08-09T16:11:55.000Z</time>
      </trkpt>
      <trkpt lat="49.85685" lon="0.9987">
        <ele>62.599998474121</ele>
        <time>2023-08-09T16:11:56.000Z</time>
      </trkpt>
      <trkpt lat="49.85695" lon="0.99863">
        <ele>62.400001525879</ele>
        <time>2023-08-09T16:11:58.000Z</time>
      </trkpt>
      <trkpt lat="49.85698" lon="0.9986">
        <ele>62.400001525879</ele>
        <time>2023-08-09T16:11:59.000Z</time>
      </trkpt>
      <trkpt lat="49.85702" lon="0.99854">
        <ele>62.400001525879</ele>
        <time>2023-08-09T16:12:00.000Z</time>
      </trkpt>
      <trkpt lat="49.85709" lon="0.99842">
        <ele>62.400001525879</ele>
        <time>2023-08-09T16:12:02.000Z</time>
      </trkpt>
      <trkpt lat="49.85712" lon="0.99836">
        <ele>62.400001525879</ele>
        <time>2023-08-09T16:12:03.000Z</time>
      </trkpt>
      <trkpt lat="49.85714" lon="0.99828">
        <ele>62.400001525879</ele>
        <time>2023-08-09T16:12:04.000Z</time>
      </trkpt>
      <trkpt lat="49.85718" lon="0.99795">
        <ele>62.200000762939</ele>
        <time>2023-08-09T16:12:08.000Z</time>
      </trkpt>
      <trkpt lat="49.85721" lon="0.99763">
        <ele>62</ele>
        <time>2023-08-09T16:12:12.000Z</time>
      </trkpt>
      <trkpt lat="49.85723" lon="0.99721">
        <ele>61.799999237061</ele>
        <time>2023-08-09T16:12:17.000Z</time>
      </trkpt>
      <trkpt lat="49.85725" lon="0.99684">
        <ele>61.599998474121</ele>
        <time>2023-08-09T16:12:21.000Z</time>
      </trkpt>
      <trkpt lat="49.85726" lon="0.99667">
        <ele>61.400001525879</ele>
        <time>2023-08-09T16:12:23.000Z</time>
      </trkpt>
      <trkpt lat="49.85729" lon="0.99613">
        <ele>61.200000762939</ele>
        <time>2023-08-09T16:12:29.000Z</time>
      </trkpt>
      <trkpt lat="49.8573" lon="0.99553">
        <ele>61.200000762939</ele>
        <time>2023-08-09T16:12:36.000Z</time>
      </trkpt>
      <trkpt lat="49.85731" lon="0.99537">
        <ele>60.799999237061</ele>
        <time>2023-08-09T16:12:38.000Z</time>
      </trkpt>
      <trkpt lat="49.85732" lon="0.9951">
        <ele>60.200000762939</ele>
        <time>2023-08-09T16:12:41.000Z</time>
      </trkpt>
      <trkpt lat="49.85735" lon="0.99487">
        <ele>60.200000762939</ele>
        <time>2023-08-09T16:12:44.000Z</time>
      </trkpt>
      <trkpt lat="49.85741" lon="0.99435">
        <ele>59.799999237061</ele>
        <time>2023-08-09T16:12:50.000Z</time>
      </trkpt>
      <trkpt lat="49.85741" lon="0.99427">
        <ele>59.799999237061</ele>
        <time>2023-08-09T16:12:51.000Z</time>
      </trkpt>
      <trkpt lat="49.85741" lon="0.99421">
        <ele>59.799999237061</ele>
        <time>2023-08-09T16:12:52.000Z</time>
      </trkpt>
      <trkpt lat="49.85737" lon="0.99361">
        <ele>59.599998474121</ele>
        <time>2023-08-09T16:12:59.000Z</time>
      </trkpt>
      <trkpt lat="49.85738" lon="0.99303">
        <ele>59.599998474121</ele>
        <time>2023-08-09T16:13:06.000Z</time>
      </trkpt>
      <trkpt lat="49.85742" lon="0.99219">
        <ele>59.400001525879</ele>
        <time>2023-08-09T16:13:16.000Z</time>
      </trkpt>
      <trkpt lat="49.8575" lon="0.99149">
        <ele>59</ele>
        <time>2023-08-09T16:13:24.000Z</time>
      </trkpt>
      <trkpt lat="49.85756" lon="0.99105">
        <ele>58.599998474121</ele>
        <time>2023-08-09T16:13:29.000Z</time>
      </trkpt>
      <trkpt lat="49.85762" lon="0.99075">
        <ele>58.599998474121</ele>
        <time>2023-08-09T16:13:32.000Z</time>
      </trkpt>
      <trkpt lat="49.8578" lon="0.99019">
        <ele>58</ele>
        <time>2023-08-09T16:13:39.000Z</time>
      </trkpt>
      <trkpt lat="49.85784" lon="0.99002">
        <ele>57.799999237061</ele>
        <time>2023-08-09T16:13:41.000Z</time>
      </trkpt>
      <trkpt lat="49.85789" lon="0.98983">
        <ele>57.599998474121</ele>
        <time>2023-08-09T16:13:43.000Z</time>
      </trkpt>
      <trkpt lat="49.85793" lon="0.98969">
        <ele>57.400001525879</ele>
        <time>2023-08-09T16:13:45.000Z</time>
      </trkpt>
      <trkpt lat="49.85816" lon="0.98892">
        <ele>57</ele>
        <time>2023-08-09T16:13:54.000Z</time>
      </trkpt>
      <trkpt lat="49.85821" lon="0.98876">
        <ele>57</ele>
        <time>2023-08-09T16:13:56.000Z</time>
      </trkpt>
      <trkpt lat="49.85835" lon="0.98818">
        <ele>56.400001525879</ele>
        <time>2023-08-09T16:14:03.000Z</time>
      </trkpt>
      <trkpt lat="49.85837" lon="0.98811">
        <ele>56.400001525879</ele>
        <time>2023-08-09T16:14:04.000Z</time>
      </trkpt>
      <trkpt lat="49.85843" lon="0.98777">
        <ele>56.200000762939</ele>
        <time>2023-08-09T16:14:08.000Z</time>
      </trkpt>
      <trkpt lat="49.85853" lon="0.9872">
        <ele>55.799999237061</ele>
        <time>2023-08-09T16:14:15.000Z</time>
      </trkpt>
      <trkpt lat="49.85859" lon="0.98688">
        <ele>55.599998474121</ele>
        <time>2023-08-09T16:14:19.000Z</time>
      </trkpt>
      <trkpt lat="49.85858" lon="0.98673">
        <ele>55.400001525879</ele>
        <time>2023-08-09T16:14:21.000Z</time>
      </trkpt>
      <trkpt lat="49.85855" lon="0.98662">
        <ele>55.400001525879</ele>
        <time>2023-08-09T16:14:23.000Z</time>
      </trkpt>
      <trkpt lat="49.85849" lon="0.98649">
        <ele>55.599998474121</ele>
        <time>2023-08-09T16:14:25.000Z</time>
      </trkpt>
      <trkpt lat="49.85845" lon="0.98643">
        <ele>55.599998474121</ele>
        <time>2023-08-09T16:14:26.000Z</time>
      </trkpt>
      <trkpt lat="49.85833" lon="0.98629">
        <ele>55.799999237061</ele>
        <time>2023-08-09T16:14:29.000Z</time>
      </trkpt>
      <trkpt lat="49.85803" lon="0.98598">
        <ele>56.400001525879</ele>
        <time>2023-08-09T16:14:36.000Z</time>
      </trkpt>
      <trkpt lat="49.85799" lon="0.98594">
        <ele>56.599998474121</ele>
        <time>2023-08-09T16:14:37.000Z</time>
      </trkpt>
      <trkpt lat="49.85766" lon="0.98563">
        <ele>57.200000762939</ele>
        <time>2023-08-09T16:14:44.000Z</time>
      </trkpt>
      <trkpt lat="49.85725" lon="0.98531">
        <ele>57.599998474121</ele>
        <time>2023-08-09T16:14:52.000Z</time>
      </trkpt>
      <trkpt lat="49.85674" lon="0.9849">
        <ele>57.599998474121</ele>
        <time>2023-08-09T16:15:02.000Z</time>
      </trkpt>
      <trkpt lat="49.8564" lon="0.98461">
        <ele>57.799999237061</ele>
        <time>2023-08-09T16:15:09.000Z</time>
      </trkpt>
      <trkpt lat="49.85624" lon="0.98447">
        <ele>57.799999237061</ele>
        <time>2023-08-09T16:15:12.000Z</time>
      </trkpt>
      <trkpt lat="49.85576" lon="0.98401">
        <ele>58.400001525879</ele>
        <time>2023-08-09T16:15:22.000Z</time>
      </trkpt>
      <trkpt lat="49.85573" lon="0.98398">
        <ele>58.599998474121</ele>
        <time>2023-08-09T16:15:23.000Z</time>
      </trkpt>
      <trkpt lat="49.85538" lon="0.98364">
        <ele>58.799999237061</ele>
        <time>2023-08-09T16:15:30.000Z</time>
      </trkpt>
      <trkpt lat="49.85521" lon="0.98346">
        <ele>59</ele>
        <time>2023-08-09T16:15:34.000Z</time>
      </trkpt>
      <trkpt lat="49.85472" lon="0.98292">
        <ele>59</ele>
        <time>2023-08-09T16:15:44.000Z</time>
      </trkpt>
      <trkpt lat="49.85467" lon="0.98286">
        <ele>58.799999237061</ele>
        <time>2023-08-09T16:15:45.000Z</time>
      </trkpt>
      <trkpt lat="49.85424" lon="0.98228">
        <ele>58.400001525879</ele>
        <time>2023-08-09T16:15:54.000Z</time>
      </trkpt>
      <trkpt lat="49.85392" lon="0.98182">
        <ele>57.799999237061</ele>
        <time>2023-08-09T16:16:01.000Z</time>
      </trkpt>
      <trkpt lat="49.85387" lon="0.98174">
        <ele>57.799999237061</ele>
        <time>2023-08-09T16:16:02.000Z</time>
      </trkpt>
      <trkpt lat="49.85347" lon="0.98111">
        <ele>57</ele>
        <time>2023-08-09T16:16:11.000Z</time>
      </trkpt>
      <trkpt lat="49.85342" lon="0.98103">
        <ele>57</ele>
        <time>2023-08-09T16:16:12.000Z</time>
      </trkpt>
      <trkpt lat="49.85329" lon="0.98083">
        <ele>56.599998474121</ele>
        <time>2023-08-09T16:16:15.000Z</time>
      </trkpt>
      <trkpt lat="49.85293" lon="0.98024">
        <ele>55.799999237061</ele>
        <time>2023-08-09T16:16:23.000Z</time>
      </trkpt>
      <trkpt lat="49.85285" lon="0.98012">
        <ele>55.599998474121</ele>
        <time>2023-08-09T16:16:25.000Z</time>
      </trkpt>
      <trkpt lat="49.85263" lon="0.97975">
        <ele>55.400001525879</ele>
        <time>2023-08-09T16:16:30.000Z</time>
      </trkpt>
      <trkpt lat="49.85229" lon="0.97915">
        <ele>54.599998474121</ele>
        <time>2023-08-09T16:16:38.000Z</time>
      </trkpt>
      <trkpt lat="49.85199" lon="0.97849">
        <ele>54</ele>
        <time>2023-08-09T16:16:46.000Z</time>
      </trkpt>
      <trkpt lat="49.85176" lon="0.97797">
        <ele>53.400001525879</ele>
        <time>2023-08-09T16:16:52.000Z</time>
      </trkpt>
      <trkpt lat="49.85159" lon="0.97758">
        <ele>53</ele>
        <time>2023-08-09T16:16:57.000Z</time>
      </trkpt>
      <trkpt lat="49.85137" lon="0.97711">
        <ele>52.400001525879</ele>
        <time>2023-08-09T16:17:03.000Z</time>
      </trkpt>
      <trkpt lat="49.85129" lon="0.97693">
        <ele>52.200000762939</ele>
        <time>2023-08-09T16:17:05.000Z</time>
      </trkpt>
      <trkpt lat="49.85104" lon="0.97636">
        <ele>51.599998474121</ele>
        <time>2023-08-09T16:17:12.000Z</time>
      </trkpt>
      <trkpt lat="49.85092" lon="0.97608">
        <ele>51.400001525879</ele>
        <time>2023-08-09T16:17:15.000Z</time>
      </trkpt>
      <trkpt lat="49.8507" lon="0.97558">
        <ele>51.400001525879</ele>
        <time>2023-08-09T16:17:21.000Z</time>
      </trkpt>
      <trkpt lat="49.85046" lon="0.97497">
        <ele>52.200000762939</ele>
        <time>2023-08-09T16:17:28.000Z</time>
      </trkpt>
      <trkpt lat="49.85017" lon="0.97417">
        <ele>52.400001525879</ele>
        <time>2023-08-09T16:17:37.000Z</time>
      </trkpt>
      <trkpt lat="49.85011" lon="0.97398">
        <ele>52.400001525879</ele>
        <time>2023-08-09T16:17:39.000Z</time>
      </trkpt>
      <trkpt lat="49.84988" lon="0.97322">
        <ele>52</ele>
        <time>2023-08-09T16:17:47.000Z</time>
      </trkpt>
      <trkpt lat="49.84983" lon="0.97305">
        <ele>51.799999237061</ele>
        <time>2023-08-09T16:17:49.000Z</time>
      </trkpt>
      <trkpt lat="49.84977" lon="0.97285">
        <ele>51.799999237061</ele>
        <time>2023-08-09T16:17:51.000Z</time>
      </trkpt>
      <trkpt lat="49.8495" lon="0.97202">
        <ele>50.799999237061</ele>
        <time>2023-08-09T16:18:00.000Z</time>
      </trkpt>
      <trkpt lat="49.84943" lon="0.97183">
        <ele>50.599998474121</ele>
        <time>2023-08-09T16:18:02.000Z</time>
      </trkpt>
      <trkpt lat="49.84936" lon="0.97167">
        <ele>50.599998474121</ele>
        <time>2023-08-09T16:18:04.000Z</time>
      </trkpt>
      <trkpt lat="49.84907" lon="0.97095">
        <ele>50</ele>
        <time>2023-08-09T16:18:12.000Z</time>
      </trkpt>
      <trkpt lat="49.84892" lon="0.97059">
        <ele>49.400001525879</ele>
        <time>2023-08-09T16:18:16.000Z</time>
      </trkpt>
      <trkpt lat="49.84887" lon="0.97041">
        <ele>49.200000762939</ele>
        <time>2023-08-09T16:18:18.000Z</time>
      </trkpt>
      <trkpt lat="49.84885" lon="0.97031">
        <ele>49</ele>
        <time>2023-08-09T16:18:19.000Z</time>
      </trkpt>
      <trkpt lat="49.84885" lon="0.97021">
        <ele>48.799999237061</ele>
        <time>2023-08-09T16:18:20.000Z</time>
      </trkpt>
      <trkpt lat="49.84886" lon="0.96989">
        <ele>48.599998474121</ele>
        <time>2023-08-09T16:18:23.000Z</time>
      </trkpt>
      <trkpt lat="49.84887" lon="0.96965">
        <ele>48.400001525879</ele>
        <time>2023-08-09T16:18:25.000Z</time>
      </trkpt>
      <trkpt lat="49.84895" lon="0.96881">
        <ele>47.400001525879</ele>
        <time>2023-08-09T16:18:33.000Z</time>
      </trkpt>
      <trkpt lat="49.84905" lon="0.96828">
        <ele>46.400001525879</ele>
        <time>2023-08-09T16:18:38.000Z</time>
      </trkpt>
      <trkpt lat="49.84912" lon="0.96797">
        <ele>46</ele>
        <time>2023-08-09T16:18:41.000Z</time>
      </trkpt>
      <trkpt lat="49.84919" lon="0.96761">
        <ele>45</ele>
        <time>2023-08-09T16:18:44.000Z</time>
      </trkpt>
      <trkpt lat="49.8493" lon="0.96718">
        <ele>43.799999237061</ele>
        <time>2023-08-09T16:18:48.000Z</time>
      </trkpt>
      <trkpt lat="49.84941" lon="0.96671">
        <ele>42.599998474121</ele>
        <time>2023-08-09T16:18:52.000Z</time>
      </trkpt>
      <trkpt lat="49.8495" lon="0.96634">
        <ele>41.799999237061</ele>
        <time>2023-08-09T16:18:55.000Z</time>
      </trkpt>
      <trkpt lat="49.84952" lon="0.96622">
        <ele>41.200000762939</ele>
        <time>2023-08-09T16:18:56.000Z</time>
      </trkpt>
      <trkpt lat="49.84959" lon="0.96583">
        <ele>40</ele>
        <time>2023-08-09T16:18:59.000Z</time>
      </trkpt>
      <trkpt lat="49.84964" lon="0.96543">
        <ele>39</ele>
        <time>2023-08-09T16:19:02.000Z</time>
      </trkpt>
      <trkpt lat="49.84965" lon="0.96527">
        <ele>38.799999237061</ele>
        <time>2023-08-09T16:19:03.000Z</time>
      </trkpt>
      <trkpt lat="49.84967" lon="0.96489">
        <ele>37.400001525879</ele>
        <time>2023-08-09T16:19:06.000Z</time>
      </trkpt>
      <trkpt lat="49.84968" lon="0.96434">
        <ele>36.599998474121</ele>
        <time>2023-08-09T16:19:10.000Z</time>
      </trkpt>
      <trkpt lat="49.84967" lon="0.96421">
        <ele>36.400001525879</ele>
        <time>2023-08-09T16:19:11.000Z</time>
      </trkpt>
      <trkpt lat="49.84965" lon="0.9638">
        <ele>35.200000762939</ele>
        <time>2023-08-09T16:19:14.000Z</time>
      </trkpt>
      <trkpt lat="49.84961" lon="0.96339">
        <ele>33.799999237061</ele>
        <time>2023-08-09T16:19:17.000Z</time>
      </trkpt>
      <trkpt lat="49.84956" lon="0.96296">
        <ele>32.799999237061</ele>
        <time>2023-08-09T16:19:20.000Z</time>
      </trkpt>
      <trkpt lat="49.8495" lon="0.96234">
        <ele>31.39999961853</ele>
        <time>2023-08-09T16:19:24.000Z</time>
      </trkpt>
      <trkpt lat="49.84946" lon="0.96187">
        <ele>29.60000038147</ele>
        <time>2023-08-09T16:19:27.000Z</time>
      </trkpt>
      <trkpt lat="49.84941" lon="0.96156">
        <ele>28.200000762939</ele>
        <time>2023-08-09T16:19:29.000Z</time>
      </trkpt>
      <trkpt lat="49.84928" lon="0.96113">
        <ele>27</ele>
        <time>2023-08-09T16:19:32.000Z</time>
      </trkpt>
      <trkpt lat="49.84923" lon="0.96099">
        <ele>26.799999237061</ele>
        <time>2023-08-09T16:19:33.000Z</time>
      </trkpt>
      <trkpt lat="49.84914" lon="0.96071">
        <ele>25.39999961853</ele>
        <time>2023-08-09T16:19:35.000Z</time>
      </trkpt>
      <trkpt lat="49.84901" lon="0.96027">
        <ele>24</ele>
        <time>2023-08-09T16:19:38.000Z</time>
      </trkpt>
      <trkpt lat="49.84897" lon="0.96013">
        <ele>23</ele>
        <time>2023-08-09T16:19:39.000Z</time>
      </trkpt>
      <trkpt lat="49.84885" lon="0.9599">
        <ele>21.39999961853</ele>
        <time>2023-08-09T16:19:41.000Z</time>
      </trkpt>
      <trkpt lat="49.84869" lon="0.95981">
        <ele>20.200000762939</ele>
        <time>2023-08-09T16:19:43.000Z</time>
      </trkpt>
      <trkpt lat="49.84848" lon="0.95981">
        <ele>18.60000038147</ele>
        <time>2023-08-09T16:19:45.000Z</time>
      </trkpt>
      <trkpt lat="49.84837" lon="0.95981">
        <ele>17.200000762939</ele>
        <time>2023-08-09T16:19:46.000Z</time>
      </trkpt>
      <trkpt lat="49.84815" lon="0.95985">
        <ele>16</ele>
        <time>2023-08-09T16:19:48.000Z</time>
      </trkpt>
      <trkpt lat="49.84793" lon="0.9599">
        <ele>14.800000190735</ele>
        <time>2023-08-09T16:19:50.000Z</time>
      </trkpt>
      <trkpt lat="49.84782" lon="0.95993">
        <ele>14</ele>
        <time>2023-08-09T16:19:51.000Z</time>
      </trkpt>
      <trkpt lat="49.84772" lon="0.95997">
        <ele>13.60000038147</ele>
        <time>2023-08-09T16:19:52.000Z</time>
      </trkpt>
      <trkpt lat="49.84762" lon="0.96001">
        <ele>12.199999809265</ele>
        <time>2023-08-09T16:19:53.000Z</time>
      </trkpt>
      <trkpt lat="49.84743" lon="0.96011">
        <ele>11</ele>
        <time>2023-08-09T16:19:55.000Z</time>
      </trkpt>
      <trkpt lat="49.84725" lon="0.96018">
        <ele>9.3999996185303</ele>
        <time>2023-08-09T16:19:57.000Z</time>
      </trkpt>
      <trkpt lat="49.84718" lon="0.96019">
        <ele>8.3999996185303</ele>
        <time>2023-08-09T16:19:58.000Z</time>
      </trkpt>
      <trkpt lat="49.84712" lon="0.96016">
        <ele>7.8000001907349</ele>
        <time>2023-08-09T16:19:59.000Z</time>
      </trkpt>
      <trkpt lat="49.84707" lon="0.96011">
        <ele>6.5999999046326</ele>
        <time>2023-08-09T16:20:00.000Z</time>
      </trkpt>
      <trkpt lat="49.84705" lon="0.96007">
        <ele>6</ele>
        <time>2023-08-09T16:20:01.000Z</time>
      </trkpt>
      <trkpt lat="49.84703" lon="0.96003">
        <ele>5</ele>
        <time>2023-08-09T16:20:02.000Z</time>
      </trkpt>
      <trkpt lat="49.84701" lon="0.96">
        <ele>4.5999999046326</ele>
        <time>2023-08-09T16:20:03.000Z</time>
      </trkpt>
      <trkpt lat="49.84693" lon="0.96001">
        <ele>3.4000000953674</ele>
        <time>2023-08-09T16:20:05.000Z</time>
      </trkpt>
      <trkpt lat="49.8469" lon="0.96004">
        <ele>3.2000000476837</ele>
        <time>2023-08-09T16:20:06.000Z</time>
      </trkpt>
      <trkpt lat="49.84677" lon="0.96015">
        <ele>2.2000000476837</ele>
        <time>2023-08-09T16:20:09.000Z</time>
      </trkpt>
      <trkpt lat="49.84654" lon="0.96036">
        <ele>2</ele>
        <time>2023-08-09T16:20:14.000Z</time>
      </trkpt>
      <trkpt lat="49.84616" lon="0.96064">
        <ele>2.4000000953674</ele>
        <time>2023-08-09T16:20:21.000Z</time>
      </trkpt>
      <trkpt lat="49.84578" lon="0.96096">
        <ele>2.5999999046326</ele>
        <time>2023-08-09T16:20:29.000Z</time>
      </trkpt>
      <trkpt lat="49.84544" lon="0.96123">
        <ele>2.5999999046326</ele>
        <time>2023-08-09T16:20:36.000Z</time>
      </trkpt>
      <trkpt lat="49.84509" lon="0.96147">
        <ele>2.7999999523163</ele>
        <time>2023-08-09T16:20:43.000Z</time>
      </trkpt>
      <trkpt lat="49.84472" lon="0.9617">
        <ele>3.2000000476837</ele>
        <time>2023-08-09T16:20:50.000Z</time>
      </trkpt>
      <trkpt lat="49.84419" lon="0.96205">
        <ele>3.7999999523163</ele>
        <time>2023-08-09T16:21:01.000Z</time>
      </trkpt>
      <trkpt lat="49.84371" lon="0.96237">
        <ele>4</ele>
        <time>2023-08-09T16:21:11.000Z</time>
      </trkpt>
      <trkpt lat="49.84342" lon="0.96259">
        <ele>4.1999998092651</ele>
        <time>2023-08-09T16:21:17.000Z</time>
      </trkpt>
      <trkpt lat="49.84332" lon="0.96266">
        <ele>4.4000000953674</ele>
        <time>2023-08-09T16:21:19.000Z</time>
      </trkpt>
      <trkpt lat="49.84328" lon="0.9627">
        <ele>4.4000000953674</ele>
        <time>2023-08-09T16:21:20.000Z</time>
      </trkpt>
      <trkpt lat="49.84283" lon="0.96305">
        <ele>4.8000001907349</ele>
        <time>2023-08-09T16:21:29.000Z</time>
      </trkpt>
      <trkpt lat="49.84236" lon="0.96345">
        <ele>4.4000000953674</ele>
        <time>2023-08-09T16:21:39.000Z</time>
      </trkpt>
      <trkpt lat="49.84231" lon="0.96349">
        <ele>4.4000000953674</ele>
        <time>2023-08-09T16:21:40.000Z</time>
      </trkpt>
      <trkpt lat="49.84211" lon="0.96366">
        <ele>4.1999998092651</ele>
        <time>2023-08-09T16:21:44.000Z</time>
      </trkpt>
      <trkpt lat="49.84201" lon="0.96372">
        <ele>4</ele>
        <time>2023-08-09T16:21:46.000Z</time>
      </trkpt>
      <trkpt lat="49.8419" lon="0.96368">
        <ele>4</ele>
        <time>2023-08-09T16:21:48.000Z</time>
      </trkpt>
      <trkpt lat="49.84187" lon="0.96364">
        <ele>4</ele>
        <time>2023-08-09T16:21:49.000Z</time>
      </trkpt>
      <trkpt lat="49.84185" lon="0.96357">
        <ele>4</ele>
        <time>2023-08-09T16:21:50.000Z</time>
      </trkpt>
      <trkpt lat="49.8418" lon="0.96335">
        <ele>4</ele>
        <time>2023-08-09T16:21:53.000Z</time>
      </trkpt>
      <trkpt lat="49.84166" lon="0.96266">
        <ele>4.1999998092651</ele>
        <time>2023-08-09T16:22:02.000Z</time>
      </trkpt>
      <trkpt lat="49.84157" lon="0.96226">
        <ele>4.4000000953674</ele>
        <time>2023-08-09T16:22:08.000Z</time>
      </trkpt>
      <trkpt lat="49.84153" lon="0.96214">
        <ele>4.5999999046326</ele>
        <time>2023-08-09T16:22:10.000Z</time>
      </trkpt>
      <trkpt lat="49.84145" lon="0.96197">
        <ele>4.8000001907349</ele>
        <time>2023-08-09T16:22:13.000Z</time>
      </trkpt>
      <trkpt lat="49.84137" lon="0.96187">
        <ele>5.4000000953674</ele>
        <time>2023-08-09T16:22:16.000Z</time>
      </trkpt>
      <trkpt lat="49.84127" lon="0.9618">
        <ele>5.8000001907349</ele>
        <time>2023-08-09T16:22:19.000Z</time>
      </trkpt>
      <trkpt lat="49.84107" lon="0.96177">
        <ele>6.4000000953674</ele>
        <time>2023-08-09T16:22:24.000Z</time>
      </trkpt>
      <trkpt lat="49.84099" lon="0.96177">
        <ele>6.8000001907349</ele>
        <time>2023-08-09T16:22:26.000Z</time>
      </trkpt>
      <trkpt lat="49.84091" lon="0.96177">
        <ele>7.4000000953674</ele>
        <time>2023-08-09T16:22:28.000Z</time>
      </trkpt>
      <trkpt lat="49.8407" lon="0.96177">
        <ele>8.3999996185303</ele>
        <time>2023-08-09T16:22:34.000Z</time>
      </trkpt>
      <trkpt lat="49.84065" lon="0.96177">
        <ele>8.3999996185303</ele>
        <time>2023-08-09T16:22:36.000Z</time>
      </trkpt>
      <trkpt lat="49.84055" lon="0.96176">
        <ele>9.8000001907349</ele>
        <time>2023-08-09T16:22:39.000Z</time>
      </trkpt>
      <trkpt lat="49.84051" lon="0.96176">
        <ele>10</ele>
        <time>2023-08-09T16:22:40.000Z</time>
      </trkpt>
      <trkpt lat="49.84037" lon="0.96175">
        <ele>11</ele>
        <time>2023-08-09T16:22:44.000Z</time>
      </trkpt>
      <trkpt lat="49.84028" lon="0.96176">
        <ele>11.39999961853</ele>
        <time>2023-08-09T16:22:47.000Z</time>
      </trkpt>
      <trkpt lat="49.84015" lon="0.96177">
        <ele>12.199999809265</ele>
        <time>2023-08-09T16:22:51.000Z</time>
      </trkpt>
      <trkpt lat="49.84003" lon="0.96176">
        <ele>12.800000190735</ele>
        <time>2023-08-09T16:22:55.000Z</time>
      </trkpt>
      <trkpt lat="49.83992" lon="0.96176">
        <ele>13.199999809265</ele>
        <time>2023-08-09T16:22:59.000Z</time>
      </trkpt>
      <trkpt lat="49.83987" lon="0.96176">
        <ele>14</ele>
        <time>2023-08-09T16:23:01.000Z</time>
      </trkpt>
      <trkpt lat="49.83983" lon="0.96175">
        <ele>14.39999961853</ele>
        <time>2023-08-09T16:23:03.000Z</time>
      </trkpt>
      <trkpt lat="49.83975" lon="0.96175">
        <ele>14.800000190735</ele>
        <time>2023-08-09T16:23:06.000Z</time>
      </trkpt>
      <trkpt lat="49.83965" lon="0.96174">
        <ele>15.39999961853</ele>
        <time>2023-08-09T16:23:10.000Z</time>
      </trkpt>
      <trkpt lat="49.83956" lon="0.96175">
        <ele>15.60000038147</ele>
        <time>2023-08-09T16:23:13.000Z</time>
      </trkpt>
      <trkpt lat="49.83942" lon="0.96177">
        <ele>16.39999961853</ele>
        <time>2023-08-09T16:23:17.000Z</time>
      </trkpt>
      <trkpt lat="49.83934" lon="0.96177">
        <ele>16.799999237061</ele>
        <time>2023-08-09T16:23:19.000Z</time>
      </trkpt>
      <trkpt lat="49.8392" lon="0.96177">
        <ele>17.39999961853</ele>
        <time>2023-08-09T16:23:24.000Z</time>
      </trkpt>
      <trkpt lat="49.83917" lon="0.96177">
        <ele>17.60000038147</ele>
        <time>2023-08-09T16:23:25.000Z</time>
      </trkpt>
      <trkpt lat="49.83895" lon="0.96176">
        <ele>18.60000038147</ele>
        <time>2023-08-09T16:23:32.000Z</time>
      </trkpt>
      <trkpt lat="49.83876" lon="0.96173">
        <ele>19.60000038147</ele>
        <time>2023-08-09T16:23:38.000Z</time>
      </trkpt>
      <trkpt lat="49.83851" lon="0.9616">
        <ele>20.39999961853</ele>
        <time>2023-08-09T16:23:46.000Z</time>
      </trkpt>
      <trkpt lat="49.83846" lon="0.96156">
        <ele>20.60000038147</ele>
        <time>2023-08-09T16:23:48.000Z</time>
      </trkpt>
      <trkpt lat="49.83828" lon="0.96138">
        <ele>21.799999237061</ele>
        <time>2023-08-09T16:23:55.000Z</time>
      </trkpt>
      <trkpt lat="49.83826" lon="0.96134">
        <ele>22</ele>
        <time>2023-08-09T16:23:56.000Z</time>
      </trkpt>
      <trkpt lat="49.83809" lon="0.96105">
        <ele>23.200000762939</ele>
        <time>2023-08-09T16:24:04.000Z</time>
      </trkpt>
      <trkpt lat="49.83807" lon="0.96101">
        <ele>23.200000762939</ele>
        <time>2023-08-09T16:24:05.000Z</time>
      </trkpt>
      <trkpt lat="49.83798" lon="0.96077">
        <ele>24.200000762939</ele>
        <time>2023-08-09T16:24:11.000Z</time>
      </trkpt>
      <trkpt lat="49.8379" lon="0.96051">
        <ele>25</ele>
        <time>2023-08-09T16:24:17.000Z</time>
      </trkpt>
      <trkpt lat="49.83789" lon="0.96047">
        <ele>25.200000762939</ele>
        <time>2023-08-09T16:24:18.000Z</time>
      </trkpt>
      <trkpt lat="49.83779" lon="0.96014">
        <ele>26.39999961853</ele>
        <time>2023-08-09T16:24:26.000Z</time>
      </trkpt>
      <trkpt lat="49.83776" lon="0.96005">
        <ele>26.799999237061</ele>
        <time>2023-08-09T16:24:28.000Z</time>
      </trkpt>
      <trkpt lat="49.83769" lon="0.95985">
        <ele>27.39999961853</ele>
        <time>2023-08-09T16:24:33.000Z</time>
      </trkpt>
      <trkpt lat="49.83762" lon="0.95964">
        <ele>28</ele>
        <time>2023-08-09T16:24:38.000Z</time>
      </trkpt>
      <trkpt lat="49.8376" lon="0.9596">
        <ele>28.60000038147</ele>
        <time>2023-08-09T16:24:39.000Z</time>
      </trkpt>
      <trkpt lat="49.83751" lon="0.95943">
        <ele>29.799999237061</ele>
        <time>2023-08-09T16:24:44.000Z</time>
      </trkpt>
      <trkpt lat="49.83745" lon="0.95932">
        <ele>30.39999961853</ele>
        <time>2023-08-09T16:24:47.000Z</time>
      </trkpt>
      <trkpt lat="49.83736" lon="0.95917">
        <ele>31</ele>
        <time>2023-08-09T16:24:51.000Z</time>
      </trkpt>
      <trkpt lat="49.83725" lon="0.95897">
        <ele>31.799999237061</ele>
        <time>2023-08-09T16:24:57.000Z</time>
      </trkpt>
      <trkpt lat="49.83723" lon="0.95894">
        <ele>32.200000762939</ele>
        <time>2023-08-09T16:24:58.000Z</time>
      </trkpt>
      <trkpt lat="49.83716" lon="0.95877">
        <ele>33.200000762939</ele>
        <time>2023-08-09T16:25:02.000Z</time>
      </trkpt>
      <trkpt lat="49.83712" lon="0.9586">
        <ele>34</ele>
        <time>2023-08-09T16:25:06.000Z</time>
      </trkpt>
      <trkpt lat="49.83711" lon="0.9585">
        <ele>34.400001525879</ele>
        <time>2023-08-09T16:25:08.000Z</time>
      </trkpt>
      <trkpt lat="49.83711" lon="0.95832">
        <ele>35</ele>
        <time>2023-08-09T16:25:11.000Z</time>
      </trkpt>
      <trkpt lat="49.83716" lon="0.95814">
        <ele>35.400001525879</ele>
        <time>2023-08-09T16:25:14.000Z</time>
      </trkpt>
      <trkpt lat="49.83718" lon="0.95809">
        <ele>35.400001525879</ele>
        <time>2023-08-09T16:25:15.000Z</time>
      </trkpt>
      <trkpt lat="49.83721" lon="0.95804">
        <ele>35.400001525879</ele>
        <time>2023-08-09T16:25:16.000Z</time>
      </trkpt>
      <trkpt lat="49.83723" lon="0.95799">
        <ele>35.400001525879</ele>
        <time>2023-08-09T16:25:17.000Z</time>
      </trkpt>
      <trkpt lat="49.83736" lon="0.95769">
        <ele>35.599998474121</ele>
        <time>2023-08-09T16:25:23.000Z</time>
      </trkpt>
      <trkpt lat="49.83747" lon="0.95731">
        <ele>35.799999237061</ele>
        <time>2023-08-09T16:25:30.000Z</time>
      </trkpt>
      <trkpt lat="49.83749" lon="0.95704">
        <ele>36.400001525879</ele>
        <time>2023-08-09T16:25:35.000Z</time>
      </trkpt>
      <trkpt lat="49.83749" lon="0.95687">
        <ele>37</ele>
        <time>2023-08-09T16:25:38.000Z</time>
      </trkpt>
      <trkpt lat="49.8375" lon="0.95661">
        <ele>37.599998474121</ele>
        <time>2023-08-09T16:25:43.000Z</time>
      </trkpt>
      <trkpt lat="49.83751" lon="0.95625">
        <ele>38.599998474121</ele>
        <time>2023-08-09T16:25:50.000Z</time>
      </trkpt>
      <trkpt lat="49.83752" lon="0.95591">
        <ele>39.799999237061</ele>
        <time>2023-08-09T16:25:57.000Z</time>
      </trkpt>
      <trkpt lat="49.83753" lon="0.95562">
        <ele>40.799999237061</ele>
        <time>2023-08-09T16:26:03.000Z</time>
      </trkpt>
      <trkpt lat="49.83753" lon="0.95526">
        <ele>41.799999237061</ele>
        <time>2023-08-09T16:26:10.000Z</time>
      </trkpt>
      <trkpt lat="49.83753" lon="0.95521">
        <ele>41.799999237061</ele>
        <time>2023-08-09T16:26:11.000Z</time>
      </trkpt>
      <trkpt lat="49.83753" lon="0.95482">
        <ele>43</ele>
        <time>2023-08-09T16:26:18.000Z</time>
      </trkpt>
      <trkpt lat="49.83753" lon="0.95477">
        <ele>43</ele>
        <time>2023-08-09T16:26:19.000Z</time>
      </trkpt>
      <trkpt lat="49.83753" lon="0.95471">
        <ele>43.400001525879</ele>
        <time>2023-08-09T16:26:20.000Z</time>
      </trkpt>
      <trkpt lat="49.83754" lon="0.95435">
        <ele>44.200000762939</ele>
        <time>2023-08-09T16:26:27.000Z</time>
      </trkpt>
      <trkpt lat="49.83755" lon="0.95388">
        <ele>45.599998474121</ele>
        <time>2023-08-09T16:26:36.000Z</time>
      </trkpt>
      <trkpt lat="49.83755" lon="0.95378">
        <ele>46</ele>
        <time>2023-08-09T16:26:38.000Z</time>
      </trkpt>
      <trkpt lat="49.83756" lon="0.95345">
        <ele>46.799999237061</ele>
        <time>2023-08-09T16:26:44.000Z</time>
      </trkpt>
      <trkpt lat="49.83756" lon="0.95319">
        <ele>47.200000762939</ele>
        <time>2023-08-09T16:26:49.000Z</time>
      </trkpt>
      <trkpt lat="49.83757" lon="0.95297">
        <ele>48</ele>
        <time>2023-08-09T16:26:53.000Z</time>
      </trkpt>
      <trkpt lat="49.83758" lon="0.95255">
        <ele>48.799999237061</ele>
        <time>2023-08-09T16:27:01.000Z</time>
      </trkpt>
      <trkpt lat="49.83758" lon="0.9525">
        <ele>49</ele>
        <time>2023-08-09T16:27:02.000Z</time>
      </trkpt>
      <trkpt lat="49.83758" lon="0.95208">
        <ele>50</ele>
        <time>2023-08-09T16:27:10.000Z</time>
      </trkpt>
      <trkpt lat="49.83758" lon="0.95191">
        <ele>50.400001525879</ele>
        <time>2023-08-09T16:27:13.000Z</time>
      </trkpt>
      <trkpt lat="49.83759" lon="0.95168">
        <ele>51</ele>
        <time>2023-08-09T16:27:17.000Z</time>
      </trkpt>
      <trkpt lat="49.8376" lon="0.9514">
        <ele>51.599998474121</ele>
        <time>2023-08-09T16:27:22.000Z</time>
      </trkpt>
      <trkpt lat="49.8376" lon="0.9513">
        <ele>52</ele>
        <time>2023-08-09T16:27:24.000Z</time>
      </trkpt>
      <trkpt lat="49.83761" lon="0.95093">
        <ele>52.799999237061</ele>
        <time>2023-08-09T16:27:31.000Z</time>
      </trkpt>
      <trkpt lat="49.83762" lon="0.95082">
        <ele>53.200000762939</ele>
        <time>2023-08-09T16:27:33.000Z</time>
      </trkpt>
      <trkpt lat="49.83763" lon="0.95045">
        <ele>54.200000762939</ele>
        <time>2023-08-09T16:27:40.000Z</time>
      </trkpt>
      <trkpt lat="49.83763" lon="0.95039">
        <ele>54.400001525879</ele>
        <time>2023-08-09T16:27:41.000Z</time>
      </trkpt>
      <trkpt lat="49.83764" lon="0.95004">
        <ele>55.400001525879</ele>
        <time>2023-08-09T16:27:47.000Z</time>
      </trkpt>
      <trkpt lat="49.83764" lon="0.94984">
        <ele>55.599998474121</ele>
        <time>2023-08-09T16:27:50.000Z</time>
      </trkpt>
      <trkpt lat="49.83765" lon="0.94944">
        <ele>56.400001525879</ele>
        <time>2023-08-09T16:27:57.000Z</time>
      </trkpt>
      <trkpt lat="49.83765" lon="0.94926">
        <ele>57</ele>
        <time>2023-08-09T16:28:00.000Z</time>
      </trkpt>
      <trkpt lat="49.83766" lon="0.94903">
        <ele>57.400001525879</ele>
        <time>2023-08-09T16:28:04.000Z</time>
      </trkpt>
      <trkpt lat="49.83766" lon="0.94868">
        <ele>58</ele>
        <time>2023-08-09T16:28:10.000Z</time>
      </trkpt>
      <trkpt lat="49.83766" lon="0.94862">
        <ele>58</ele>
        <time>2023-08-09T16:28:11.000Z</time>
      </trkpt>
      <trkpt lat="49.83767" lon="0.94844">
        <ele>58.400001525879</ele>
        <time>2023-08-09T16:28:14.000Z</time>
      </trkpt>
      <trkpt lat="49.83768" lon="0.94785">
        <ele>59.400001525879</ele>
        <time>2023-08-09T16:28:24.000Z</time>
      </trkpt>
      <trkpt lat="49.83768" lon="0.94779">
        <ele>59.400001525879</ele>
        <time>2023-08-09T16:28:25.000Z</time>
      </trkpt>
      <trkpt lat="49.83769" lon="0.94726">
        <ele>60.200000762939</ele>
        <time>2023-08-09T16:28:33.000Z</time>
      </trkpt>
      <trkpt lat="49.8377" lon="0.94688">
        <ele>60.599998474121</ele>
        <time>2023-08-09T16:28:38.000Z</time>
      </trkpt>
      <trkpt lat="49.83769" lon="0.94667">
        <ele>60.799999237061</ele>
        <time>2023-08-09T16:28:41.000Z</time>
      </trkpt>
      <trkpt lat="49.83766" lon="0.94602">
        <ele>61.599998474121</ele>
        <time>2023-08-09T16:28:50.000Z</time>
      </trkpt>
      <trkpt lat="49.83766" lon="0.94594">
        <ele>61.599998474121</ele>
        <time>2023-08-09T16:28:51.000Z</time>
      </trkpt>
      <trkpt lat="49.83761" lon="0.94507">
        <ele>62.400001525879</ele>
        <time>2023-08-09T16:29:03.000Z</time>
      </trkpt>
      <trkpt lat="49.83759" lon="0.94485">
        <ele>62.599998474121</ele>
        <time>2023-08-09T16:29:06.000Z</time>
      </trkpt>
      <trkpt lat="49.83755" lon="0.94419">
        <ele>63.200000762939</ele>
        <time>2023-08-09T16:29:15.000Z</time>
      </trkpt>
      <trkpt lat="49.83751" lon="0.94352">
        <ele>63.599998474121</ele>
        <time>2023-08-09T16:29:24.000Z</time>
      </trkpt>
      <trkpt lat="49.8375" lon="0.94322">
        <ele>64</ele>
        <time>2023-08-09T16:29:28.000Z</time>
      </trkpt>
      <trkpt lat="49.83745" lon="0.94239">
        <ele>63.799999237061</ele>
        <time>2023-08-09T16:29:39.000Z</time>
      </trkpt>
      <trkpt lat="49.83741" lon="0.94161">
        <ele>63.599998474121</ele>
        <time>2023-08-09T16:29:49.000Z</time>
      </trkpt>
      <trkpt lat="49.83736" lon="0.94082">
        <ele>63.400001525879</ele>
        <time>2023-08-09T16:29:59.000Z</time>
      </trkpt>
      <trkpt lat="49.83733" lon="0.94056">
        <ele>63.400001525879</ele>
        <time>2023-08-09T16:30:02.000Z</time>
      </trkpt>
      <trkpt lat="49.83729" lon="0.94022">
        <ele>63.400001525879</ele>
        <time>2023-08-09T16:30:06.000Z</time>
      </trkpt>
      <trkpt lat="49.83718" lon="0.93939">
        <ele>62.799999237061</ele>
        <time>2023-08-09T16:30:15.000Z</time>
      </trkpt>
      <trkpt lat="49.83707" lon="0.93858">
        <ele>62.400001525879</ele>
        <time>2023-08-09T16:30:24.000Z</time>
      </trkpt>
      <trkpt lat="49.83705" lon="0.93839">
        <ele>62.200000762939</ele>
        <time>2023-08-09T16:30:26.000Z</time>
      </trkpt>
      <trkpt lat="49.83698" lon="0.93792">
        <ele>61.799999237061</ele>
        <time>2023-08-09T16:30:31.000Z</time>
      </trkpt>
      <trkpt lat="49.83689" lon="0.93726">
        <ele>61.200000762939</ele>
        <time>2023-08-09T16:30:38.000Z</time>
      </trkpt>
      <trkpt lat="49.83683" lon="0.93679">
        <ele>60.599998474121</ele>
        <time>2023-08-09T16:30:43.000Z</time>
      </trkpt>
      <trkpt lat="49.83676" lon="0.93632">
        <ele>60</ele>
        <time>2023-08-09T16:30:48.000Z</time>
      </trkpt>
      <trkpt lat="49.83668" lon="0.93571">
        <ele>59.599998474121</ele>
        <time>2023-08-09T16:30:54.000Z</time>
      </trkpt>
      <trkpt lat="49.83663" lon="0.9353">
        <ele>59.200000762939</ele>
        <time>2023-08-09T16:30:58.000Z</time>
      </trkpt>
      <trkpt lat="49.83655" lon="0.93477">
        <ele>58.599998474121</ele>
        <time>2023-08-09T16:31:03.000Z</time>
      </trkpt>
      <trkpt lat="49.83643" lon="0.93391">
        <ele>58</ele>
        <time>2023-08-09T16:31:11.000Z</time>
      </trkpt>
      <trkpt lat="49.83638" lon="0.93348">
        <ele>57.400001525879</ele>
        <time>2023-08-09T16:31:15.000Z</time>
      </trkpt>
      <trkpt lat="49.83629" lon="0.93285">
        <ele>57</ele>
        <time>2023-08-09T16:31:21.000Z</time>
      </trkpt>
      <trkpt lat="49.83619" lon="0.93221">
        <ele>56.400001525879</ele>
        <time>2023-08-09T16:31:27.000Z</time>
      </trkpt>
      <trkpt lat="49.83611" lon="0.93189">
        <ele>56</ele>
        <time>2023-08-09T16:31:30.000Z</time>
      </trkpt>
      <trkpt lat="49.83599" lon="0.93146">
        <ele>55.200000762939</ele>
        <time>2023-08-09T16:31:34.000Z</time>
      </trkpt>
      <trkpt lat="49.83582" lon="0.93091">
        <ele>53.799999237061</ele>
        <time>2023-08-09T16:31:39.000Z</time>
      </trkpt>
      <trkpt lat="49.83566" lon="0.93046">
        <ele>52.799999237061</ele>
        <time>2023-08-09T16:31:43.000Z</time>
      </trkpt>
      <trkpt lat="49.83548" lon="0.93">
        <ele>51.799999237061</ele>
        <time>2023-08-09T16:31:47.000Z</time>
      </trkpt>
      <trkpt lat="49.83543" lon="0.92988">
        <ele>51.400001525879</ele>
        <time>2023-08-09T16:31:48.000Z</time>
      </trkpt>
      <trkpt lat="49.83534" lon="0.92966">
        <ele>50.799999237061</ele>
        <time>2023-08-09T16:31:50.000Z</time>
      </trkpt>
      <trkpt lat="49.83519" lon="0.92932">
        <ele>49.599998474121</ele>
        <time>2023-08-09T16:31:53.000Z</time>
      </trkpt>
      <trkpt lat="49.83505" lon="0.929">
        <ele>48.599998474121</ele>
        <time>2023-08-09T16:31:56.000Z</time>
      </trkpt>
      <trkpt lat="49.83501" lon="0.9289">
        <ele>48.400001525879</ele>
        <time>2023-08-09T16:31:57.000Z</time>
      </trkpt>
      <trkpt lat="49.83479" lon="0.92842">
        <ele>47.599998474121</ele>
        <time>2023-08-09T16:32:02.000Z</time>
      </trkpt>
      <trkpt lat="49.83447" lon="0.9277">
        <ele>47.799999237061</ele>
        <time>2023-08-09T16:32:10.000Z</time>
      </trkpt>
      <trkpt lat="49.83415" lon="0.92699">
        <ele>48.799999237061</ele>
        <time>2023-08-09T16:32:19.000Z</time>
      </trkpt>
      <trkpt lat="49.83411" lon="0.92691">
        <ele>48.799999237061</ele>
        <time>2023-08-09T16:32:20.000Z</time>
      </trkpt>
      <trkpt lat="49.83392" lon="0.92647">
        <ele>49.599998474121</ele>
        <time>2023-08-09T16:32:27.000Z</time>
      </trkpt>
      <trkpt lat="49.83378" lon="0.92618">
        <ele>50</ele>
        <time>2023-08-09T16:32:31.000Z</time>
      </trkpt>
      <trkpt lat="49.83353" lon="0.92561">
        <ele>50.599998474121</ele>
        <time>2023-08-09T16:32:38.000Z</time>
      </trkpt>
      <trkpt lat="49.83344" lon="0.92541">
        <ele>51</ele>
        <time>2023-08-09T16:32:42.000Z</time>
      </trkpt>
      <trkpt lat="49.83324" lon="0.92495">
        <ele>51.599998474121</ele>
        <time>2023-08-09T16:32:48.000Z</time>
      </trkpt>
      <trkpt lat="49.83307" lon="0.92456">
        <ele>52</ele>
        <time>2023-08-09T16:32:54.000Z</time>
      </trkpt>
      <trkpt lat="49.8329" lon="0.92416">
        <ele>52.599998474121</ele>
        <time>2023-08-09T16:33:01.000Z</time>
      </trkpt>
      <trkpt lat="49.83282" lon="0.92398">
        <ele>52.799999237061</ele>
        <time>2023-08-09T16:33:03.000Z</time>
      </trkpt>
      <trkpt lat="49.83272" lon="0.92368">
        <ele>53.400001525879</ele>
        <time>2023-08-09T16:33:07.000Z</time>
      </trkpt>
      <trkpt lat="49.83267" lon="0.92353">
        <ele>53.599998474121</ele>
        <time>2023-08-09T16:33:09.000Z</time>
      </trkpt>
      <trkpt lat="49.83252" lon="0.92308">
        <ele>53.799999237061</ele>
        <time>2023-08-09T16:33:15.000Z</time>
      </trkpt>
      <trkpt lat="49.83225" lon="0.92225">
        <ele>53.799999237061</ele>
        <time>2023-08-09T16:33:25.000Z</time>
      </trkpt>
      <trkpt lat="49.83196" lon="0.92139">
        <ele>53.400001525879</ele>
        <time>2023-08-09T16:33:35.000Z</time>
      </trkpt>
      <trkpt lat="49.83193" lon="0.92131">
        <ele>53.400001525879</ele>
        <time>2023-08-09T16:33:36.000Z</time>
      </trkpt>
      <trkpt lat="49.83162" lon="0.92055">
        <ele>53.200000762939</ele>
        <time>2023-08-09T16:33:45.000Z</time>
      </trkpt>
      <trkpt lat="49.83133" lon="0.91982">
        <ele>52.799999237061</ele>
        <time>2023-08-09T16:33:54.000Z</time>
      </trkpt>
      <trkpt lat="49.83123" lon="0.91957">
        <ele>52.799999237061</ele>
        <time>2023-08-09T16:33:57.000Z</time>
      </trkpt>
      <trkpt lat="49.83097" lon="0.91893">
        <ele>53</ele>
        <time>2023-08-09T16:34:05.000Z</time>
      </trkpt>
      <trkpt lat="49.83071" lon="0.91831">
        <ele>53</ele>
        <time>2023-08-09T16:34:13.000Z</time>
      </trkpt>
      <trkpt lat="49.83044" lon="0.91763">
        <ele>53.200000762939</ele>
        <time>2023-08-09T16:34:22.000Z</time>
      </trkpt>
      <trkpt lat="49.83017" lon="0.91703">
        <ele>53.400001525879</ele>
        <time>2023-08-09T16:34:30.000Z</time>
      </trkpt>
      <trkpt lat="49.8299" lon="0.91643">
        <ele>53.799999237061</ele>
        <time>2023-08-09T16:34:38.000Z</time>
      </trkpt>
      <trkpt lat="49.82954" lon="0.91572">
        <ele>54</ele>
        <time>2023-08-09T16:34:48.000Z</time>
      </trkpt>
      <trkpt lat="49.82948" lon="0.91561">
        <ele>54</ele>
        <time>2023-08-09T16:34:50.000Z</time>
      </trkpt>
      <trkpt lat="49.82929" lon="0.91529">
        <ele>54.200000762939</ele>
        <time>2023-08-09T16:34:56.000Z</time>
      </trkpt>
      <trkpt lat="49.82922" lon="0.91519">
        <ele>54.400001525879</ele>
        <time>2023-08-09T16:35:00.000Z</time>
      </trkpt>
      <trkpt lat="49.82918" lon="0.91504">
        <ele>54.599998474121</ele>
        <time>2023-08-09T16:35:04.000Z</time>
      </trkpt>
      <trkpt lat="49.82911" lon="0.91467">
        <ele>54.599998474121</ele>
        <time>2023-08-09T16:35:10.000Z</time>
      </trkpt>
      <trkpt lat="49.82911" lon="0.91461">
        <ele>54.799999237061</ele>
        <time>2023-08-09T16:35:11.000Z</time>
      </trkpt>
      <trkpt lat="49.82906" lon="0.91433">
        <ele>55</ele>
        <time>2023-08-09T16:35:15.000Z</time>
      </trkpt>
      <trkpt lat="49.82905" lon="0.91425">
        <ele>55</ele>
        <time>2023-08-09T16:35:16.000Z</time>
      </trkpt>
      <trkpt lat="49.82902" lon="0.91388">
        <ele>55.200000762939</ele>
        <time>2023-08-09T16:35:21.000Z</time>
      </trkpt>
      <trkpt lat="49.82892" lon="0.91312">
        <ele>55</ele>
        <time>2023-08-09T16:35:32.000Z</time>
      </trkpt>
      <trkpt lat="49.82889" lon="0.91279">
        <ele>55</ele>
        <time>2023-08-09T16:35:39.000Z</time>
      </trkpt>
      <trkpt lat="49.82888" lon="0.91266">
        <ele>55</ele>
        <time>2023-08-09T16:35:44.000Z</time>
      </trkpt>
      <trkpt lat="49.82888" lon="0.91263">
        <ele>54.799999237061</ele>
        <time>2023-08-09T16:35:48.000Z</time>
      </trkpt>
      <trkpt lat="49.82888" lon="0.91262">
        <ele>54.599998474121</ele>
        <time>2023-08-09T16:35:52.000Z</time>
      </trkpt>
      <trkpt lat="49.82887" lon="0.91237">
        <ele>55.400001525879</ele>
        <time>2023-08-09T16:38:54.000Z</time>
      </trkpt>
      <trkpt lat="49.82891" lon="0.91205">
        <ele>55.400001525879</ele>
        <time>2023-08-09T16:38:59.000Z</time>
      </trkpt>
      <trkpt lat="49.82891" lon="0.91198">
        <ele>55.400001525879</ele>
        <time>2023-08-09T16:39:00.000Z</time>
      </trkpt>
      <trkpt lat="49.82895" lon="0.91145">
        <ele>55.400001525879</ele>
        <time>2023-08-09T16:39:08.000Z</time>
      </trkpt>
      <trkpt lat="49.82894" lon="0.91131">
        <ele>55.400001525879</ele>
        <time>2023-08-09T16:39:10.000Z</time>
      </trkpt>
      <trkpt lat="49.82889" lon="0.91105">
        <ele>55.400001525879</ele>
        <time>2023-08-09T16:39:14.000Z</time>
      </trkpt>
      <trkpt lat="49.82887" lon="0.91093">
        <ele>55.400001525879</ele>
        <time>2023-08-09T16:39:16.000Z</time>
      </trkpt>
      <trkpt lat="49.82886" lon="0.91087">
        <ele>55.400001525879</ele>
        <time>2023-08-09T16:39:17.000Z</time>
      </trkpt>
      <trkpt lat="49.82881" lon="0.91062">
        <ele>55.400001525879</ele>
        <time>2023-08-09T16:39:21.000Z</time>
      </trkpt>
      <trkpt lat="49.82878" lon="0.91048">
        <ele>55.400001525879</ele>
        <time>2023-08-09T16:39:23.000Z</time>
      </trkpt>
      <trkpt lat="49.82873" lon="0.91034">
        <ele>55.400001525879</ele>
        <time>2023-08-09T16:39:25.000Z</time>
      </trkpt>
      <trkpt lat="49.8287" lon="0.91028">
        <ele>55.400001525879</ele>
        <time>2023-08-09T16:39:26.000Z</time>
      </trkpt>
      <trkpt lat="49.82858" lon="0.91">
        <ele>55.799999237061</ele>
        <time>2023-08-09T16:39:30.000Z</time>
      </trkpt>
      <trkpt lat="49.82852" lon="0.90987">
        <ele>56</ele>
        <time>2023-08-09T16:39:32.000Z</time>
      </trkpt>
      <trkpt lat="49.82843" lon="0.90968">
        <ele>56</ele>
        <time>2023-08-09T16:39:35.000Z</time>
      </trkpt>
      <trkpt lat="49.8283" lon="0.90941">
        <ele>56.200000762939</ele>
        <time>2023-08-09T16:39:39.000Z</time>
      </trkpt>
      <trkpt lat="49.82819" lon="0.90913">
        <ele>56.200000762939</ele>
        <time>2023-08-09T16:39:43.000Z</time>
      </trkpt>
      <trkpt lat="49.8281" lon="0.90893">
        <ele>56.400001525879</ele>
        <time>2023-08-09T16:39:46.000Z</time>
      </trkpt>
      <trkpt lat="49.82808" lon="0.90886">
        <ele>56.400001525879</ele>
        <time>2023-08-09T16:39:47.000Z</time>
      </trkpt>
      <trkpt lat="49.82799" lon="0.90866">
        <ele>56.400001525879</ele>
        <time>2023-08-09T16:39:50.000Z</time>
      </trkpt>
      <trkpt lat="49.82782" lon="0.90825">
        <ele>56.599998474121</ele>
        <time>2023-08-09T16:39:56.000Z</time>
      </trkpt>
      <trkpt lat="49.82777" lon="0.9081">
        <ele>56.599998474121</ele>
        <time>2023-08-09T16:39:58.000Z</time>
      </trkpt>
      <trkpt lat="49.82772" lon="0.90794">
        <ele>56.599998474121</ele>
        <time>2023-08-09T16:40:00.000Z</time>
      </trkpt>
      <trkpt lat="49.8277" lon="0.90777">
        <ele>56.599998474121</ele>
        <time>2023-08-09T16:40:02.000Z</time>
      </trkpt>
      <trkpt lat="49.8277" lon="0.90768">
        <ele>56.599998474121</ele>
        <time>2023-08-09T16:40:03.000Z</time>
      </trkpt>
      <trkpt lat="49.82767" lon="0.90741">
        <ele>56.599998474121</ele>
        <time>2023-08-09T16:40:06.000Z</time>
      </trkpt>
      <trkpt lat="49.82763" lon="0.90695">
        <ele>56</ele>
        <time>2023-08-09T16:40:11.000Z</time>
      </trkpt>
      <trkpt lat="49.82759" lon="0.90623">
        <ele>55.599998474121</ele>
        <time>2023-08-09T16:40:19.000Z</time>
      </trkpt>
      <trkpt lat="49.82759" lon="0.90583">
        <ele>55.400001525879</ele>
        <time>2023-08-09T16:40:23.000Z</time>
      </trkpt>
      <trkpt lat="49.82762" lon="0.90554">
        <ele>55.200000762939</ele>
        <time>2023-08-09T16:40:26.000Z</time>
      </trkpt>
      <trkpt lat="49.82766" lon="0.90506">
        <ele>54.799999237061</ele>
        <time>2023-08-09T16:40:31.000Z</time>
      </trkpt>
      <trkpt lat="49.8277" lon="0.9047">
        <ele>54.799999237061</ele>
        <time>2023-08-09T16:40:35.000Z</time>
      </trkpt>
      <trkpt lat="49.82775" lon="0.90444">
        <ele>55</ele>
        <time>2023-08-09T16:40:39.000Z</time>
      </trkpt>
      <trkpt lat="49.82776" lon="0.90434">
        <ele>55</ele>
        <time>2023-08-09T16:40:40.000Z</time>
      </trkpt>
      <trkpt lat="49.82776" lon="0.90426">
        <ele>55.200000762939</ele>
        <time>2023-08-09T16:40:41.000Z</time>
      </trkpt>
      <trkpt lat="49.82777" lon="0.90409">
        <ele>55.400001525879</ele>
        <time>2023-08-09T16:40:43.000Z</time>
      </trkpt>
      <trkpt lat="49.82777" lon="0.90392">
        <ele>55.400001525879</ele>
        <time>2023-08-09T16:40:45.000Z</time>
      </trkpt>
      <trkpt lat="49.82777" lon="0.90376">
        <ele>55.599998474121</ele>
        <time>2023-08-09T16:40:47.000Z</time>
      </trkpt>
      <trkpt lat="49.82776" lon="0.90343">
        <ele>55.799999237061</ele>
        <time>2023-08-09T16:40:51.000Z</time>
      </trkpt>
      <trkpt lat="49.82776" lon="0.90335">
        <ele>55.799999237061</ele>
        <time>2023-08-09T16:40:52.000Z</time>
      </trkpt>
      <trkpt lat="49.82772" lon="0.90258">
        <ele>56.599998474121</ele>
        <time>2023-08-09T16:41:02.000Z</time>
      </trkpt>
      <trkpt lat="49.82771" lon="0.90235">
        <ele>57</ele>
        <time>2023-08-09T16:41:05.000Z</time>
      </trkpt>
      <trkpt lat="49.82767" lon="0.90168">
        <ele>57.799999237061</ele>
        <time>2023-08-09T16:41:14.000Z</time>
      </trkpt>
      <trkpt lat="49.82763" lon="0.90122">
        <ele>58</ele>
        <time>2023-08-09T16:41:20.000Z</time>
      </trkpt>
      <trkpt lat="49.82761" lon="0.90091">
        <ele>58.400001525879</ele>
        <time>2023-08-09T16:41:24.000Z</time>
      </trkpt>
      <trkpt lat="49.82751" lon="0.90023">
        <ele>58.599998474121</ele>
        <time>2023-08-09T16:41:33.000Z</time>
      </trkpt>
      <trkpt lat="49.82738" lon="0.89953">
        <ele>58.799999237061</ele>
        <time>2023-08-09T16:41:42.000Z</time>
      </trkpt>
      <trkpt lat="49.82733" lon="0.8993">
        <ele>59.200000762939</ele>
        <time>2023-08-09T16:41:45.000Z</time>
      </trkpt>
      <trkpt lat="49.82729" lon="0.89892">
        <ele>59.799999237061</ele>
        <time>2023-08-09T16:41:50.000Z</time>
      </trkpt>
      <trkpt lat="49.8273" lon="0.89839">
        <ele>60</ele>
        <time>2023-08-09T16:41:57.000Z</time>
      </trkpt>
      <trkpt lat="49.82732" lon="0.89772">
        <ele>60.200000762939</ele>
        <time>2023-08-09T16:42:06.000Z</time>
      </trkpt>
      <trkpt lat="49.82741" lon="0.89722">
        <ele>60</ele>
        <time>2023-08-09T16:42:13.000Z</time>
      </trkpt>
      <trkpt lat="49.82744" lon="0.89707">
        <ele>59.799999237061</ele>
        <time>2023-08-09T16:42:15.000Z</time>
      </trkpt>
      <trkpt lat="49.82751" lon="0.89659">
        <ele>59.599998474121</ele>
        <time>2023-08-09T16:42:22.000Z</time>
      </trkpt>
      <trkpt lat="49.82764" lon="0.89593">
        <ele>59</ele>
        <time>2023-08-09T16:42:29.000Z</time>
      </trkpt>
      <trkpt lat="49.82766" lon="0.89585">
        <ele>59</ele>
        <time>2023-08-09T16:42:30.000Z</time>
      </trkpt>
      <trkpt lat="49.8278" lon="0.89524">
        <ele>58.200000762939</ele>
        <time>2023-08-09T16:42:37.000Z</time>
      </trkpt>
      <trkpt lat="49.82792" lon="0.89441">
        <ele>57.400001525879</ele>
        <time>2023-08-09T16:42:46.000Z</time>
      </trkpt>
      <trkpt lat="49.82795" lon="0.89412">
        <ele>57</ele>
        <time>2023-08-09T16:42:49.000Z</time>
      </trkpt>
      <trkpt lat="49.828" lon="0.89354">
        <ele>56.400001525879</ele>
        <time>2023-08-09T16:42:55.000Z</time>
      </trkpt>
      <trkpt lat="49.82802" lon="0.89326">
        <ele>56</ele>
        <time>2023-08-09T16:42:58.000Z</time>
      </trkpt>
      <trkpt lat="49.82805" lon="0.89288">
        <ele>55.400001525879</ele>
        <time>2023-08-09T16:43:02.000Z</time>
      </trkpt>
      <trkpt lat="49.8281" lon="0.89231">
        <ele>54.799999237061</ele>
        <time>2023-08-09T16:43:08.000Z</time>
      </trkpt>
      <trkpt lat="49.82813" lon="0.89184">
        <ele>54.599998474121</ele>
        <time>2023-08-09T16:43:13.000Z</time>
      </trkpt>
      <trkpt lat="49.82813" lon="0.89174">
        <ele>54.599998474121</ele>
        <time>2023-08-09T16:43:14.000Z</time>
      </trkpt>
      <trkpt lat="49.82812" lon="0.89165">
        <ele>54.599998474121</ele>
        <time>2023-08-09T16:43:15.000Z</time>
      </trkpt>
      <trkpt lat="49.82808" lon="0.89148">
        <ele>54.400001525879</ele>
        <time>2023-08-09T16:43:17.000Z</time>
      </trkpt>
      <trkpt lat="49.82804" lon="0.89141">
        <ele>54.400001525879</ele>
        <time>2023-08-09T16:43:18.000Z</time>
      </trkpt>
      <trkpt lat="49.82773" lon="0.89088">
        <ele>54.599998474121</ele>
        <time>2023-08-09T16:43:26.000Z</time>
      </trkpt>
      <trkpt lat="49.82738" lon="0.89033">
        <ele>54.799999237061</ele>
        <time>2023-08-09T16:43:35.000Z</time>
      </trkpt>
      <trkpt lat="49.82723" lon="0.88998">
        <ele>55</ele>
        <time>2023-08-09T16:43:40.000Z</time>
      </trkpt>
      <trkpt lat="49.82697" lon="0.88918">
        <ele>55.599998474121</ele>
        <time>2023-08-09T16:43:51.000Z</time>
      </trkpt>
      <trkpt lat="49.82694" lon="0.8891">
        <ele>55.599998474121</ele>
        <time>2023-08-09T16:43:52.000Z</time>
      </trkpt>
      <trkpt lat="49.82684" lon="0.88878">
        <ele>56</ele>
        <time>2023-08-09T16:43:56.000Z</time>
      </trkpt>
      <trkpt lat="49.82673" lon="0.88845">
        <ele>56</ele>
        <time>2023-08-09T16:44:00.000Z</time>
      </trkpt>
      <trkpt lat="49.82649" lon="0.88767">
        <ele>55.400001525879</ele>
        <time>2023-08-09T16:44:09.000Z</time>
      </trkpt>
      <trkpt lat="49.82647" lon="0.8876">
        <ele>55.400001525879</ele>
        <time>2023-08-09T16:44:10.000Z</time>
      </trkpt>
      <trkpt lat="49.82622" lon="0.88685">
        <ele>55.200000762939</ele>
        <time>2023-08-09T16:44:19.000Z</time>
      </trkpt>
      <trkpt lat="49.82611" lon="0.8865">
        <ele>55.200000762939</ele>
        <time>2023-08-09T16:44:23.000Z</time>
      </trkpt>
      <trkpt lat="49.82591" lon="0.88588">
        <ele>55.400001525879</ele>
        <time>2023-08-09T16:44:31.000Z</time>
      </trkpt>
      <trkpt lat="49.8257" lon="0.88525">
        <ele>55.200000762939</ele>
        <time>2023-08-09T16:44:39.000Z</time>
      </trkpt>
      <trkpt lat="49.82545" lon="0.88445">
        <ele>55.200000762939</ele>
        <time>2023-08-09T16:44:49.000Z</time>
      </trkpt>
      <trkpt lat="49.82526" lon="0.88389">
        <ele>55.400001525879</ele>
        <time>2023-08-09T16:44:56.000Z</time>
      </trkpt>
      <trkpt lat="49.825" lon="0.88307">
        <ele>55.400001525879</ele>
        <time>2023-08-09T16:45:06.000Z</time>
      </trkpt>
      <trkpt lat="49.82482" lon="0.88246">
        <ele>56.200000762939</ele>
        <time>2023-08-09T16:45:14.000Z</time>
      </trkpt>
      <trkpt lat="49.82477" lon="0.88234">
        <ele>56.400001525879</ele>
        <time>2023-08-09T16:45:16.000Z</time>
      </trkpt>
      <trkpt lat="49.82469" lon="0.88223">
        <ele>56.599998474121</ele>
        <time>2023-08-09T16:45:18.000Z</time>
      </trkpt>
      <trkpt lat="49.8246" lon="0.88215">
        <ele>57</ele>
        <time>2023-08-09T16:45:20.000Z</time>
      </trkpt>
      <trkpt lat="49.82447" lon="0.88202">
        <ele>57.599998474121</ele>
        <time>2023-08-09T16:45:23.000Z</time>
      </trkpt>
      <trkpt lat="49.8244" lon="0.88188">
        <ele>57.799999237061</ele>
        <time>2023-08-09T16:45:25.000Z</time>
      </trkpt>
      <trkpt lat="49.82426" lon="0.88141">
        <ele>57.799999237061</ele>
        <time>2023-08-09T16:45:31.000Z</time>
      </trkpt>
      <trkpt lat="49.82402" lon="0.88085">
        <ele>57.599998474121</ele>
        <time>2023-08-09T16:45:39.000Z</time>
      </trkpt>
      <trkpt lat="49.82371" lon="0.88014">
        <ele>58</ele>
        <time>2023-08-09T16:45:50.000Z</time>
      </trkpt>
      <trkpt lat="49.82365" lon="0.88001">
        <ele>58</ele>
        <time>2023-08-09T16:45:52.000Z</time>
      </trkpt>
      <trkpt lat="49.82334" lon="0.87924">
        <ele>59</ele>
        <time>2023-08-09T16:46:04.000Z</time>
      </trkpt>
      <trkpt lat="49.82332" lon="0.87918">
        <ele>59.200000762939</ele>
        <time>2023-08-09T16:46:05.000Z</time>
      </trkpt>
      <trkpt lat="49.82308" lon="0.87852">
        <ele>60</ele>
        <time>2023-08-09T16:46:15.000Z</time>
      </trkpt>
      <trkpt lat="49.82306" lon="0.87845">
        <ele>60.200000762939</ele>
        <time>2023-08-09T16:46:16.000Z</time>
      </trkpt>
      <trkpt lat="49.82286" lon="0.87789">
        <ele>61.200000762939</ele>
        <time>2023-08-09T16:46:25.000Z</time>
      </trkpt>
      <trkpt lat="49.82284" lon="0.87783">
        <ele>61.400001525879</ele>
        <time>2023-08-09T16:46:26.000Z</time>
      </trkpt>
      <trkpt lat="49.82282" lon="0.87778">
        <ele>61.400001525879</ele>
        <time>2023-08-09T16:46:27.000Z</time>
      </trkpt>
      <trkpt lat="49.8227" lon="0.87744">
        <ele>61.799999237061</ele>
        <time>2023-08-09T16:46:32.000Z</time>
      </trkpt>
      <trkpt lat="49.82258" lon="0.87713">
        <ele>62.400001525879</ele>
        <time>2023-08-09T16:46:37.000Z</time>
      </trkpt>
      <trkpt lat="49.82247" lon="0.87682">
        <ele>63.200000762939</ele>
        <time>2023-08-09T16:46:42.000Z</time>
      </trkpt>
      <trkpt lat="49.82241" lon="0.87663">
        <ele>63.400001525879</ele>
        <time>2023-08-09T16:46:45.000Z</time>
      </trkpt>
      <trkpt lat="49.8222" lon="0.87605">
        <ele>64</ele>
        <time>2023-08-09T16:46:54.000Z</time>
      </trkpt>
      <trkpt lat="49.822" lon="0.87554">
        <ele>64.400001525879</ele>
        <time>2023-08-09T16:47:02.000Z</time>
      </trkpt>
      <trkpt lat="49.82195" lon="0.87541">
        <ele>64.400001525879</ele>
        <time>2023-08-09T16:47:04.000Z</time>
      </trkpt>
      <trkpt lat="49.82174" lon="0.87485">
        <ele>65</ele>
        <time>2023-08-09T16:47:12.000Z</time>
      </trkpt>
      <trkpt lat="49.8215" lon="0.87425">
        <ele>64.800003051758</ele>
        <time>2023-08-09T16:47:20.000Z</time>
      </trkpt>
      <trkpt lat="49.82123" lon="0.87358">
        <ele>64</ele>
        <time>2023-08-09T16:47:28.000Z</time>
      </trkpt>
      <trkpt lat="49.82099" lon="0.87292">
        <ele>63.400001525879</ele>
        <time>2023-08-09T16:47:35.000Z</time>
      </trkpt>
      <trkpt lat="49.82095" lon="0.8728">
        <ele>63.400001525879</ele>
        <time>2023-08-09T16:47:36.000Z</time>
      </trkpt>
      <trkpt lat="49.82073" lon="0.87225">
        <ele>62.200000762939</ele>
        <time>2023-08-09T16:47:41.000Z</time>
      </trkpt>
      <trkpt lat="49.82067" lon="0.87215">
        <ele>62</ele>
        <time>2023-08-09T16:47:42.000Z</time>
      </trkpt>
      <trkpt lat="49.82054" lon="0.87199">
        <ele>60.799999237061</ele>
        <time>2023-08-09T16:47:44.000Z</time>
      </trkpt>
      <trkpt lat="49.82035" lon="0.87183">
        <ele>60</ele>
        <time>2023-08-09T16:47:46.000Z</time>
      </trkpt>
      <trkpt lat="49.82026" lon="0.87178">
        <ele>59.599998474121</ele>
        <time>2023-08-09T16:47:47.000Z</time>
      </trkpt>
      <trkpt lat="49.81996" lon="0.87166">
        <ele>58.200000762939</ele>
        <time>2023-08-09T16:47:50.000Z</time>
      </trkpt>
      <trkpt lat="49.81966" lon="0.87162">
        <ele>56</ele>
        <time>2023-08-09T16:47:53.000Z</time>
      </trkpt>
      <trkpt lat="49.81943" lon="0.87158">
        <ele>54.799999237061</ele>
        <time>2023-08-09T16:47:55.000Z</time>
      </trkpt>
      <trkpt lat="49.8193" lon="0.87155">
        <ele>54.200000762939</ele>
        <time>2023-08-09T16:47:56.000Z</time>
      </trkpt>
      <trkpt lat="49.81919" lon="0.87149">
        <ele>53.599998474121</ele>
        <time>2023-08-09T16:47:57.000Z</time>
      </trkpt>
      <trkpt lat="49.81909" lon="0.87141">
        <ele>53.200000762939</ele>
        <time>2023-08-09T16:47:58.000Z</time>
      </trkpt>
      <trkpt lat="49.81901" lon="0.87134">
        <ele>53</ele>
        <time>2023-08-09T16:47:59.000Z</time>
      </trkpt>
      <trkpt lat="49.81891" lon="0.87122">
        <ele>52.400001525879</ele>
        <time>2023-08-09T16:48:00.000Z</time>
      </trkpt>
      <trkpt lat="49.81876" lon="0.87099">
        <ele>51</ele>
        <time>2023-08-09T16:48:02.000Z</time>
      </trkpt>
      <trkpt lat="49.81857" lon="0.87067">
        <ele>49.599998474121</ele>
        <time>2023-08-09T16:48:05.000Z</time>
      </trkpt>
      <trkpt lat="49.81847" lon="0.8705">
        <ele>49.400001525879</ele>
        <time>2023-08-09T16:48:07.000Z</time>
      </trkpt>
      <trkpt lat="49.81825" lon="0.8701">
        <ele>49.799999237061</ele>
        <time>2023-08-09T16:48:12.000Z</time>
      </trkpt>
      <trkpt lat="49.81814" lon="0.86989">
        <ele>50.799999237061</ele>
        <time>2023-08-09T16:48:15.000Z</time>
      </trkpt>
      <trkpt lat="49.81804" lon="0.86973">
        <ele>52</ele>
        <time>2023-08-09T16:48:18.000Z</time>
      </trkpt>
      <trkpt lat="49.81795" lon="0.86958">
        <ele>53.400001525879</ele>
        <time>2023-08-09T16:48:21.000Z</time>
      </trkpt>
      <trkpt lat="49.81788" lon="0.86945">
        <ele>54.200000762939</ele>
        <time>2023-08-09T16:48:24.000Z</time>
      </trkpt>
      <trkpt lat="49.81786" lon="0.86941">
        <ele>54.400001525879</ele>
        <time>2023-08-09T16:48:25.000Z</time>
      </trkpt>
      <trkpt lat="49.81777" lon="0.86925">
        <ele>55.400001525879</ele>
        <time>2023-08-09T16:48:29.000Z</time>
      </trkpt>
      <trkpt lat="49.81774" lon="0.86919">
        <ele>55.799999237061</ele>
        <time>2023-08-09T16:48:31.000Z</time>
      </trkpt>
      <trkpt lat="49.81765" lon="0.86903">
        <ele>56.400001525879</ele>
        <time>2023-08-09T16:48:35.000Z</time>
      </trkpt>
      <trkpt lat="49.81755" lon="0.86883">
        <ele>57.400001525879</ele>
        <time>2023-08-09T16:48:40.000Z</time>
      </trkpt>
      <trkpt lat="49.8175" lon="0.86876">
        <ele>57.599998474121</ele>
        <time>2023-08-09T16:48:42.000Z</time>
      </trkpt>
      <trkpt lat="49.81741" lon="0.86858">
        <ele>58.599998474121</ele>
        <time>2023-08-09T16:48:47.000Z</time>
      </trkpt>
      <trkpt lat="49.81733" lon="0.86844">
        <ele>59.200000762939</ele>
        <time>2023-08-09T16:48:51.000Z</time>
      </trkpt>
      <trkpt lat="49.81729" lon="0.86836">
        <ele>59.799999237061</ele>
        <time>2023-08-09T16:48:53.000Z</time>
      </trkpt>
      <trkpt lat="49.81715" lon="0.86804">
        <ele>60.799999237061</ele>
        <time>2023-08-09T16:49:01.000Z</time>
      </trkpt>
      <trkpt lat="49.81713" lon="0.868">
        <ele>61</ele>
        <time>2023-08-09T16:49:02.000Z</time>
      </trkpt>
      <trkpt lat="49.81707" lon="0.86782">
        <ele>62</ele>
        <time>2023-08-09T16:49:06.000Z</time>
      </trkpt>
      <trkpt lat="49.81695" lon="0.86747">
        <ele>63</ele>
        <time>2023-08-09T16:49:14.000Z</time>
      </trkpt>
      <trkpt lat="49.81683" lon="0.86708">
        <ele>64</ele>
        <time>2023-08-09T16:49:22.000Z</time>
      </trkpt>
      <trkpt lat="49.81678" lon="0.86689">
        <ele>64.599998474121</ele>
        <time>2023-08-09T16:49:26.000Z</time>
      </trkpt>
      <trkpt lat="49.81674" lon="0.86674">
        <ele>65</ele>
        <time>2023-08-09T16:49:29.000Z</time>
      </trkpt>
      <trkpt lat="49.81667" lon="0.86638">
        <ele>65.800003051758</ele>
        <time>2023-08-09T16:49:36.000Z</time>
      </trkpt>
      <trkpt lat="49.81666" lon="0.86633">
        <ele>66.199996948242</ele>
        <time>2023-08-09T16:49:37.000Z</time>
      </trkpt>
      <trkpt lat="49.8166" lon="0.86587">
        <ele>67.400001525879</ele>
        <time>2023-08-09T16:49:46.000Z</time>
      </trkpt>
      <trkpt lat="49.81659" lon="0.86575">
        <ele>67.599998474121</ele>
        <time>2023-08-09T16:49:48.000Z</time>
      </trkpt>
      <trkpt lat="49.81655" lon="0.86549">
        <ele>68.400001525879</ele>
        <time>2023-08-09T16:49:53.000Z</time>
      </trkpt>
      <trkpt lat="49.81651" lon="0.86515">
        <ele>69</ele>
        <time>2023-08-09T16:49:59.000Z</time>
      </trkpt>
      <trkpt lat="49.81647" lon="0.86485">
        <ele>69.599998474121</ele>
        <time>2023-08-09T16:50:04.000Z</time>
      </trkpt>
      <trkpt lat="49.81644" lon="0.86453">
        <ele>70</ele>
        <time>2023-08-09T16:50:09.000Z</time>
      </trkpt>
      <trkpt lat="49.81637" lon="0.86393">
        <ele>70.400001525879</ele>
        <time>2023-08-09T16:50:17.000Z</time>
      </trkpt>
      <trkpt lat="49.81635" lon="0.86371">
        <ele>70.599998474121</ele>
        <time>2023-08-09T16:50:20.000Z</time>
      </trkpt>
      <trkpt lat="49.81632" lon="0.86318">
        <ele>71.400001525879</ele>
        <time>2023-08-09T16:50:27.000Z</time>
      </trkpt>
      <trkpt lat="49.8163" lon="0.86287">
        <ele>71.599998474121</ele>
        <time>2023-08-09T16:50:31.000Z</time>
      </trkpt>
      <trkpt lat="49.81627" lon="0.86219">
        <ele>71.800003051758</ele>
        <time>2023-08-09T16:50:40.000Z</time>
      </trkpt>
      <trkpt lat="49.81623" lon="0.86135">
        <ele>72.400001525879</ele>
        <time>2023-08-09T16:50:51.000Z</time>
      </trkpt>
      <trkpt lat="49.81622" lon="0.86099">
        <ele>72.599998474121</ele>
        <time>2023-08-09T16:50:56.000Z</time>
      </trkpt>
      <trkpt lat="49.81619" lon="0.86059">
        <ele>73</ele>
        <time>2023-08-09T16:51:01.000Z</time>
      </trkpt>
      <trkpt lat="49.81616" lon="0.85994">
        <ele>73</ele>
        <time>2023-08-09T16:51:09.000Z</time>
      </trkpt>
      <trkpt lat="49.8161" lon="0.85911">
        <ele>72.800003051758</ele>
        <time>2023-08-09T16:51:19.000Z</time>
      </trkpt>
      <trkpt lat="49.81601" lon="0.85825">
        <ele>72.199996948242</ele>
        <time>2023-08-09T16:51:29.000Z</time>
      </trkpt>
      <trkpt lat="49.81593" lon="0.85753">
        <ele>71.599998474121</ele>
        <time>2023-08-09T16:51:36.000Z</time>
      </trkpt>
      <trkpt lat="49.81592" lon="0.85742">
        <ele>71.599998474121</ele>
        <time>2023-08-09T16:51:37.000Z</time>
      </trkpt>
      <trkpt lat="49.81586" lon="0.85681">
        <ele>70.400001525879</ele>
        <time>2023-08-09T16:51:43.000Z</time>
      </trkpt>
      <trkpt lat="49.81583" lon="0.85647">
        <ele>69.800003051758</ele>
        <time>2023-08-09T16:51:46.000Z</time>
      </trkpt>
      <trkpt lat="49.81578" lon="0.85604">
        <ele>69.400001525879</ele>
        <time>2023-08-09T16:51:50.000Z</time>
      </trkpt>
      <trkpt lat="49.81571" lon="0.85536">
        <ele>68.599998474121</ele>
        <time>2023-08-09T16:51:56.000Z</time>
      </trkpt>
      <trkpt lat="49.81567" lon="0.85493">
        <ele>67.400001525879</ele>
        <time>2023-08-09T16:52:00.000Z</time>
      </trkpt>
      <trkpt lat="49.81566" lon="0.85474">
        <ele>66.800003051758</ele>
        <time>2023-08-09T16:52:02.000Z</time>
      </trkpt>
      <trkpt lat="49.81564" lon="0.85456">
        <ele>66.400001525879</ele>
        <time>2023-08-09T16:52:04.000Z</time>
      </trkpt>
      <trkpt lat="49.8156" lon="0.85433">
        <ele>65.599998474121</ele>
        <time>2023-08-09T16:52:07.000Z</time>
      </trkpt>
      <trkpt lat="49.81559" lon="0.85424">
        <ele>65.400001525879</ele>
        <time>2023-08-09T16:52:08.000Z</time>
      </trkpt>
      <trkpt lat="49.81556" lon="0.85392">
        <ele>64.199996948242</ele>
        <time>2023-08-09T16:52:11.000Z</time>
      </trkpt>
      <trkpt lat="49.81555" lon="0.85381">
        <ele>63.799999237061</ele>
        <time>2023-08-09T16:52:12.000Z</time>
      </trkpt>
      <trkpt lat="49.81549" lon="0.8535">
        <ele>63.200000762939</ele>
        <time>2023-08-09T16:52:15.000Z</time>
      </trkpt>
      <trkpt lat="49.81546" lon="0.85332">
        <ele>62</ele>
        <time>2023-08-09T16:52:17.000Z</time>
      </trkpt>
      <trkpt lat="49.81546" lon="0.85326">
        <ele>61.599998474121</ele>
        <time>2023-08-09T16:52:18.000Z</time>
      </trkpt>
      <trkpt lat="49.81545" lon="0.85321">
        <ele>60.799999237061</ele>
        <time>2023-08-09T16:52:19.000Z</time>
      </trkpt>
      <trkpt lat="49.81544" lon="0.85314">
        <ele>59.799999237061</ele>
        <time>2023-08-09T16:52:21.000Z</time>
      </trkpt>
      <trkpt lat="49.81543" lon="0.8531">
        <ele>59.599998474121</ele>
        <time>2023-08-09T16:52:22.000Z</time>
      </trkpt>
      <trkpt lat="49.81543" lon="0.85307">
        <ele>58.799999237061</ele>
        <time>2023-08-09T16:52:23.000Z</time>
      </trkpt>
      <trkpt lat="49.81543" lon="0.85302">
        <ele>57.799999237061</ele>
        <time>2023-08-09T16:52:25.000Z</time>
      </trkpt>
      <trkpt lat="49.81543" lon="0.85297">
        <ele>57.200000762939</ele>
        <time>2023-08-09T16:52:26.000Z</time>
      </trkpt>
      <trkpt lat="49.81539" lon="0.85272">
        <ele>56.400001525879</ele>
        <time>2023-08-09T16:52:29.000Z</time>
      </trkpt>
      <trkpt lat="49.81538" lon="0.85266">
        <ele>56</ele>
        <time>2023-08-09T16:52:30.000Z</time>
      </trkpt>
      <trkpt lat="49.81536" lon="0.85256">
        <ele>55</ele>
        <time>2023-08-09T16:52:32.000Z</time>
      </trkpt>
      <trkpt lat="49.81534" lon="0.8525">
        <ele>54.400001525879</ele>
        <time>2023-08-09T16:52:33.000Z</time>
      </trkpt>
      <trkpt lat="49.81533" lon="0.85242">
        <ele>54</ele>
        <time>2023-08-09T16:52:34.000Z</time>
      </trkpt>
      <trkpt lat="49.81532" lon="0.85235">
        <ele>53.400001525879</ele>
        <time>2023-08-09T16:52:35.000Z</time>
      </trkpt>
      <trkpt lat="49.81531" lon="0.85226">
        <ele>52.799999237061</ele>
        <time>2023-08-09T16:52:36.000Z</time>
      </trkpt>
      <trkpt lat="49.81529" lon="0.85215">
        <ele>52.400001525879</ele>
        <time>2023-08-09T16:52:37.000Z</time>
      </trkpt>
      <trkpt lat="49.81523" lon="0.8519">
        <ele>50.799999237061</ele>
        <time>2023-08-09T16:52:40.000Z</time>
      </trkpt>
      <trkpt lat="49.8152" lon="0.85172">
        <ele>50</ele>
        <time>2023-08-09T16:52:42.000Z</time>
      </trkpt>
      <trkpt lat="49.81518" lon="0.85166">
        <ele>48.799999237061</ele>
        <time>2023-08-09T16:52:43.000Z</time>
      </trkpt>
      <trkpt lat="49.81517" lon="0.85155">
        <ele>47.599998474121</ele>
        <time>2023-08-09T16:52:45.000Z</time>
      </trkpt>
      <trkpt lat="49.81516" lon="0.8515">
        <ele>47.200000762939</ele>
        <time>2023-08-09T16:52:46.000Z</time>
      </trkpt>
      <trkpt lat="49.81513" lon="0.85146">
        <ele>45.799999237061</ele>
        <time>2023-08-09T16:52:47.000Z</time>
      </trkpt>
      <trkpt lat="49.81505" lon="0.85137">
        <ele>44.400001525879</ele>
        <time>2023-08-09T16:52:49.000Z</time>
      </trkpt>
      <trkpt lat="49.81489" lon="0.85121">
        <ele>43</ele>
        <time>2023-08-09T16:52:52.000Z</time>
      </trkpt>
      <trkpt lat="49.81477" lon="0.85106">
        <ele>42.400001525879</ele>
        <time>2023-08-09T16:52:54.000Z</time>
      </trkpt>
      <trkpt lat="49.81468" lon="0.85096">
        <ele>41.799999237061</ele>
        <time>2023-08-09T16:52:56.000Z</time>
      </trkpt>
      <trkpt lat="49.81454" lon="0.85082">
        <ele>40.799999237061</ele>
        <time>2023-08-09T16:52:59.000Z</time>
      </trkpt>
      <trkpt lat="49.81449" lon="0.85077">
        <ele>40.400001525879</ele>
        <time>2023-08-09T16:53:00.000Z</time>
      </trkpt>
      <trkpt lat="49.81433" lon="0.8506">
        <ele>39.599998474121</ele>
        <time>2023-08-09T16:53:03.000Z</time>
      </trkpt>
      <trkpt lat="49.81419" lon="0.85046">
        <ele>38.799999237061</ele>
        <time>2023-08-09T16:53:05.000Z</time>
      </trkpt>
      <trkpt lat="49.81412" lon="0.85039">
        <ele>38.400001525879</ele>
        <time>2023-08-09T16:53:06.000Z</time>
      </trkpt>
      <trkpt lat="49.8139" lon="0.85021">
        <ele>37.200000762939</ele>
        <time>2023-08-09T16:53:09.000Z</time>
      </trkpt>
      <trkpt lat="49.81384" lon="0.85018">
        <ele>36.400001525879</ele>
        <time>2023-08-09T16:53:10.000Z</time>
      </trkpt>
      <trkpt lat="49.81361" lon="0.8501">
        <ele>35.200000762939</ele>
        <time>2023-08-09T16:53:13.000Z</time>
      </trkpt>
      <trkpt lat="49.81346" lon="0.85009">
        <ele>34.599998474121</ele>
        <time>2023-08-09T16:53:15.000Z</time>
      </trkpt>
      <trkpt lat="49.81332" lon="0.85012">
        <ele>34</ele>
        <time>2023-08-09T16:53:17.000Z</time>
      </trkpt>
      <trkpt lat="49.81315" lon="0.85019">
        <ele>33.799999237061</ele>
        <time>2023-08-09T16:53:20.000Z</time>
      </trkpt>
      <trkpt lat="49.81309" lon="0.85021">
        <ele>33.799999237061</ele>
        <time>2023-08-09T16:53:21.000Z</time>
      </trkpt>
      <trkpt lat="49.81285" lon="0.85034">
        <ele>33.400001525879</ele>
        <time>2023-08-09T16:53:26.000Z</time>
      </trkpt>
      <trkpt lat="49.81281" lon="0.85036">
        <ele>33.200000762939</ele>
        <time>2023-08-09T16:53:27.000Z</time>
      </trkpt>
      <trkpt lat="49.8127" lon="0.85042">
        <ele>33</ele>
        <time>2023-08-09T16:53:31.000Z</time>
      </trkpt>
      <trkpt lat="49.81266" lon="0.85043">
        <ele>32.599998474121</ele>
        <time>2023-08-09T16:53:35.000Z</time>
      </trkpt>
      <trkpt lat="49.81265" lon="0.85042">
        <ele>32.200000762939</ele>
        <time>2023-08-09T16:53:39.000Z</time>
      </trkpt>
      <trkpt lat="49.81264" lon="0.85041">
        <ele>31.60000038147</ele>
        <time>2023-08-09T16:54:05.000Z</time>
      </trkpt>
      <trkpt lat="49.81262" lon="0.85038">
        <ele>31.60000038147</ele>
        <time>2023-08-09T16:54:07.000Z</time>
      </trkpt>
      <trkpt lat="49.81259" lon="0.85028">
        <ele>31.60000038147</ele>
        <time>2023-08-09T16:54:12.000Z</time>
      </trkpt>
      <trkpt lat="49.8126" lon="0.85026">
        <ele>31.60000038147</ele>
        <time>2023-08-09T16:54:13.000Z</time>
      </trkpt>
      <trkpt lat="49.81263" lon="0.8503">
        <ele>31.60000038147</ele>
        <time>2023-08-09T16:54:16.000Z</time>
      </trkpt>
      <trkpt lat="49.81264" lon="0.85034">
        <ele>31.60000038147</ele>
        <time>2023-08-09T16:54:18.000Z</time>
      </trkpt>
      <trkpt lat="49.81265" lon="0.8504">
        <ele>31.60000038147</ele>
        <time>2023-08-09T16:54:21.000Z</time>
      </trkpt>
      <trkpt lat="49.81266" lon="0.85042">
        <ele>31.799999237061</ele>
        <time>2023-08-09T16:54:24.000Z</time>
      </trkpt>
      <trkpt lat="49.81264" lon="0.85043">
        <ele>32.400001525879</ele>
        <time>2023-08-09T16:57:52.000Z</time>
      </trkpt>
      <trkpt lat="49.81262" lon="0.85045">
        <ele>32.400001525879</ele>
        <time>2023-08-09T16:57:53.000Z</time>
      </trkpt>
      <trkpt lat="49.81252" lon="0.85045">
        <ele>32.400001525879</ele>
        <time>2023-08-09T16:57:57.000Z</time>
      </trkpt>
      <trkpt lat="49.81246" lon="0.8504">
        <ele>32.200000762939</ele>
        <time>2023-08-09T16:57:59.000Z</time>
      </trkpt>
      <trkpt lat="49.81243" lon="0.85032">
        <ele>32</ele>
        <time>2023-08-09T16:58:01.000Z</time>
      </trkpt>
      <trkpt lat="49.81241" lon="0.8502">
        <ele>32</ele>
        <time>2023-08-09T16:58:05.000Z</time>
      </trkpt>
      <trkpt lat="49.81243" lon="0.85011">
        <ele>31.799999237061</ele>
        <time>2023-08-09T16:58:07.000Z</time>
      </trkpt>
      <trkpt lat="49.81248" lon="0.85002">
        <ele>31.799999237061</ele>
        <time>2023-08-09T16:58:09.000Z</time>
      </trkpt>
      <trkpt lat="49.81256" lon="0.84986">
        <ele>31.799999237061</ele>
        <time>2023-08-09T16:58:12.000Z</time>
      </trkpt>
      <trkpt lat="49.81261" lon="0.84975">
        <ele>31.799999237061</ele>
        <time>2023-08-09T16:58:14.000Z</time>
      </trkpt>
      <trkpt lat="49.8127" lon="0.84959">
        <ele>31.799999237061</ele>
        <time>2023-08-09T16:58:17.000Z</time>
      </trkpt>
      <trkpt lat="49.81279" lon="0.84948">
        <ele>31.799999237061</ele>
        <time>2023-08-09T16:58:19.000Z</time>
      </trkpt>
      <trkpt lat="49.81283" lon="0.84945">
        <ele>31.799999237061</ele>
        <time>2023-08-09T16:58:20.000Z</time>
      </trkpt>
      <trkpt lat="49.81298" lon="0.84934">
        <ele>32</ele>
        <time>2023-08-09T16:58:23.000Z</time>
      </trkpt>
      <trkpt lat="49.81307" lon="0.8493">
        <ele>32</ele>
        <time>2023-08-09T16:58:25.000Z</time>
      </trkpt>
      <trkpt lat="49.81328" lon="0.84922">
        <ele>32</ele>
        <time>2023-08-09T16:58:29.000Z</time>
      </trkpt>
      <trkpt lat="49.81338" lon="0.84919">
        <ele>32</ele>
        <time>2023-08-09T16:58:31.000Z</time>
      </trkpt>
      <trkpt lat="49.81343" lon="0.84917">
        <ele>32</ele>
        <time>2023-08-09T16:58:32.000Z</time>
      </trkpt>
      <trkpt lat="49.81385" lon="0.84911">
        <ele>31.799999237061</ele>
        <time>2023-08-09T16:58:40.000Z</time>
      </trkpt>
      <trkpt lat="49.81397" lon="0.84914">
        <ele>31.799999237061</ele>
        <time>2023-08-09T16:58:43.000Z</time>
      </trkpt>
      <trkpt lat="49.81412" lon="0.84914">
        <ele>31.799999237061</ele>
        <time>2023-08-09T16:58:46.000Z</time>
      </trkpt>
      <trkpt lat="49.81451" lon="0.84917">
        <ele>31.799999237061</ele>
        <time>2023-08-09T16:58:54.000Z</time>
      </trkpt>
      <trkpt lat="49.81485" lon="0.84921">
        <ele>32.200000762939</ele>
        <time>2023-08-09T16:59:01.000Z</time>
      </trkpt>
      <trkpt lat="49.81494" lon="0.84922">
        <ele>32.400001525879</ele>
        <time>2023-08-09T16:59:03.000Z</time>
      </trkpt>
      <trkpt lat="49.81499" lon="0.84923">
        <ele>32.400001525879</ele>
        <time>2023-08-09T16:59:04.000Z</time>
      </trkpt>
      <trkpt lat="49.81513" lon="0.84924">
        <ele>32.799999237061</ele>
        <time>2023-08-09T16:59:07.000Z</time>
      </trkpt>
      <trkpt lat="49.81537" lon="0.84928">
        <ele>33.400001525879</ele>
        <time>2023-08-09T16:59:12.000Z</time>
      </trkpt>
      <trkpt lat="49.81546" lon="0.84931">
        <ele>33.599998474121</ele>
        <time>2023-08-09T16:59:14.000Z</time>
      </trkpt>
      <trkpt lat="49.81578" lon="0.84949">
        <ele>34</ele>
        <time>2023-08-09T16:59:21.000Z</time>
      </trkpt>
      <trkpt lat="49.81615" lon="0.84971">
        <ele>33.799999237061</ele>
        <time>2023-08-09T16:59:28.000Z</time>
      </trkpt>
      <trkpt lat="49.81644" lon="0.84976">
        <ele>33.200000762939</ele>
        <time>2023-08-09T16:59:33.000Z</time>
      </trkpt>
      <trkpt lat="49.81651" lon="0.84975">
        <ele>33</ele>
        <time>2023-08-09T16:59:34.000Z</time>
      </trkpt>
      <trkpt lat="49.81662" lon="0.84972">
        <ele>33</ele>
        <time>2023-08-09T16:59:36.000Z</time>
      </trkpt>
      <trkpt lat="49.8168" lon="0.84964">
        <ele>32.400001525879</ele>
        <time>2023-08-09T16:59:39.000Z</time>
      </trkpt>
      <trkpt lat="49.81685" lon="0.84961">
        <ele>32.400001525879</ele>
        <time>2023-08-09T16:59:40.000Z</time>
      </trkpt>
      <trkpt lat="49.81712" lon="0.84945">
        <ele>31.200000762939</ele>
        <time>2023-08-09T16:59:45.000Z</time>
      </trkpt>
      <trkpt lat="49.81739" lon="0.84929">
        <ele>30.39999961853</ele>
        <time>2023-08-09T16:59:50.000Z</time>
      </trkpt>
      <trkpt lat="49.8175" lon="0.84922">
        <ele>30.200000762939</ele>
        <time>2023-08-09T16:59:52.000Z</time>
      </trkpt>
      <trkpt lat="49.81772" lon="0.84908">
        <ele>29.799999237061</ele>
        <time>2023-08-09T16:59:56.000Z</time>
      </trkpt>
      <trkpt lat="49.81788" lon="0.84898">
        <ele>29.799999237061</ele>
        <time>2023-08-09T16:59:59.000Z</time>
      </trkpt>
      <trkpt lat="49.81805" lon="0.84888">
        <ele>29.200000762939</ele>
        <time>2023-08-09T17:00:02.000Z</time>
      </trkpt>
      <trkpt lat="49.81835" lon="0.8487">
        <ele>28.200000762939</ele>
        <time>2023-08-09T17:00:07.000Z</time>
      </trkpt>
      <trkpt lat="49.81846" lon="0.84867">
        <ele>28</ele>
        <time>2023-08-09T17:00:09.000Z</time>
      </trkpt>
      <trkpt lat="49.81878" lon="0.84862">
        <ele>27.39999961853</ele>
        <time>2023-08-09T17:00:14.000Z</time>
      </trkpt>
      <trkpt lat="49.8193" lon="0.84865">
        <ele>27</ele>
        <time>2023-08-09T17:00:22.000Z</time>
      </trkpt>
      <trkpt lat="49.81978" lon="0.84868">
        <ele>26.200000762939</ele>
        <time>2023-08-09T17:00:30.000Z</time>
      </trkpt>
      <trkpt lat="49.82033" lon="0.84872">
        <ele>26</ele>
        <time>2023-08-09T17:00:39.000Z</time>
      </trkpt>
      <trkpt lat="49.8204" lon="0.84872">
        <ele>26</ele>
        <time>2023-08-09T17:00:40.000Z</time>
      </trkpt>
      <trkpt lat="49.82045" lon="0.84872">
        <ele>26</ele>
        <time>2023-08-09T17:00:41.000Z</time>
      </trkpt>
      <trkpt lat="49.82099" lon="0.84875">
        <ele>26</ele>
        <time>2023-08-09T17:00:51.000Z</time>
      </trkpt>
      <trkpt lat="49.8213" lon="0.84878">
        <ele>26.799999237061</ele>
        <time>2023-08-09T17:00:58.000Z</time>
      </trkpt>
      <trkpt lat="49.82134" lon="0.84878">
        <ele>27</ele>
        <time>2023-08-09T17:00:59.000Z</time>
      </trkpt>
      <trkpt lat="49.82159" lon="0.8488">
        <ele>28</ele>
        <time>2023-08-09T17:01:05.000Z</time>
      </trkpt>
      <trkpt lat="49.82163" lon="0.8488">
        <ele>28.200000762939</ele>
        <time>2023-08-09T17:01:06.000Z</time>
      </trkpt>
      <trkpt lat="49.82177" lon="0.84881">
        <ele>28.60000038147</ele>
        <time>2023-08-09T17:01:09.000Z</time>
      </trkpt>
      <trkpt lat="49.82195" lon="0.84879">
        <ele>29.200000762939</ele>
        <time>2023-08-09T17:01:13.000Z</time>
      </trkpt>
      <trkpt lat="49.82225" lon="0.84868">
        <ele>30</ele>
        <time>2023-08-09T17:01:20.000Z</time>
      </trkpt>
      <trkpt lat="49.82262" lon="0.84846">
        <ele>30</ele>
        <time>2023-08-09T17:01:27.000Z</time>
      </trkpt>
      <trkpt lat="49.82307" lon="0.84819">
        <ele>29.39999961853</ele>
        <time>2023-08-09T17:01:35.000Z</time>
      </trkpt>
      <trkpt lat="49.82358" lon="0.84792">
        <ele>28.39999961853</ele>
        <time>2023-08-09T17:01:44.000Z</time>
      </trkpt>
      <trkpt lat="49.82371" lon="0.84794">
        <ele>28.200000762939</ele>
        <time>2023-08-09T17:01:46.000Z</time>
      </trkpt>
      <trkpt lat="49.82376" lon="0.84796">
        <ele>28.200000762939</ele>
        <time>2023-08-09T17:01:47.000Z</time>
      </trkpt>
      <trkpt lat="49.82382" lon="0.848">
        <ele>28</ele>
        <time>2023-08-09T17:01:48.000Z</time>
      </trkpt>
      <trkpt lat="49.82427" lon="0.84822">
        <ele>27</ele>
        <time>2023-08-09T17:01:54.000Z</time>
      </trkpt>
      <trkpt lat="49.82449" lon="0.84833">
        <ele>25.799999237061</ele>
        <time>2023-08-09T17:01:57.000Z</time>
      </trkpt>
      <trkpt lat="49.82466" lon="0.84842">
        <ele>24.60000038147</ele>
        <time>2023-08-09T17:01:59.000Z</time>
      </trkpt>
      <trkpt lat="49.8248" lon="0.8485">
        <ele>24</ele>
        <time>2023-08-09T17:02:01.000Z</time>
      </trkpt>
      <trkpt lat="49.82496" lon="0.84858">
        <ele>23.39999961853</ele>
        <time>2023-08-09T17:02:03.000Z</time>
      </trkpt>
      <trkpt lat="49.82518" lon="0.84869">
        <ele>22.200000762939</ele>
        <time>2023-08-09T17:02:06.000Z</time>
      </trkpt>
      <trkpt lat="49.82539" lon="0.84878">
        <ele>21.799999237061</ele>
        <time>2023-08-09T17:02:09.000Z</time>
      </trkpt>
      <trkpt lat="49.82579" lon="0.84886">
        <ele>21.200000762939</ele>
        <time>2023-08-09T17:02:15.000Z</time>
      </trkpt>
      <trkpt lat="49.8261" lon="0.84893">
        <ele>20.799999237061</ele>
        <time>2023-08-09T17:02:20.000Z</time>
      </trkpt>
      <trkpt lat="49.82615" lon="0.84894">
        <ele>20.799999237061</ele>
        <time>2023-08-09T17:02:21.000Z</time>
      </trkpt>
      <trkpt lat="49.82626" lon="0.849">
        <ele>20.799999237061</ele>
        <time>2023-08-09T17:02:23.000Z</time>
      </trkpt>
      <trkpt lat="49.82646" lon="0.84915">
        <ele>20.60000038147</ele>
        <time>2023-08-09T17:02:27.000Z</time>
      </trkpt>
      <trkpt lat="49.8265" lon="0.84919">
        <ele>20.60000038147</ele>
        <time>2023-08-09T17:02:28.000Z</time>
      </trkpt>
      <trkpt lat="49.82668" lon="0.84938">
        <ele>20.799999237061</ele>
        <time>2023-08-09T17:02:33.000Z</time>
      </trkpt>
      <trkpt lat="49.82683" lon="0.84951">
        <ele>20.799999237061</ele>
        <time>2023-08-09T17:02:38.000Z</time>
      </trkpt>
      <trkpt lat="49.8269" lon="0.84957">
        <ele>20.799999237061</ele>
        <time>2023-08-09T17:02:43.000Z</time>
      </trkpt>
      <trkpt lat="49.82691" lon="0.8496">
        <ele>20.60000038147</ele>
        <time>2023-08-09T17:02:47.000Z</time>
      </trkpt>
      <trkpt lat="49.82686" lon="0.8495">
        <ele>19.60000038147</ele>
        <time>2023-08-09T17:10:52.000Z</time>
      </trkpt>
      <trkpt lat="49.82686" lon="0.8495">
        <ele>19.60000038147</ele>
        <time>2023-08-09T17:10:55.000Z</time>
      </trkpt>
      <trkpt lat="49.82685" lon="0.84947">
        <ele>19.60000038147</ele>
        <time>2023-08-09T17:10:56.000Z</time>
      </trkpt>
      <trkpt lat="49.82684" lon="0.84946">
        <ele>19.39999961853</ele>
        <time>2023-08-09T17:10:59.000Z</time>
      </trkpt>
      <trkpt lat="49.82684" lon="0.84946">
        <ele>19.39999961853</ele>
        <time>2023-08-09T17:11:00.000Z</time>
      </trkpt>
      <trkpt lat="49.82687" lon="0.84946">
        <ele>19.39999961853</ele>
        <time>2023-08-09T17:11:02.000Z</time>
      </trkpt>
      <trkpt lat="49.82688" lon="0.84945">
        <ele>19.39999961853</ele>
        <time>2023-08-09T17:11:05.000Z</time>
      </trkpt>
      <trkpt lat="49.82687" lon="0.84944">
        <ele>19.39999961853</ele>
        <time>2023-08-09T17:11:09.000Z</time>
      </trkpt>
      <trkpt lat="49.82687" lon="0.84944">
        <ele>19.39999961853</ele>
        <time>2023-08-09T17:11:10.000Z</time>
      </trkpt>
      <trkpt lat="49.82687" lon="0.84944">
        <ele>19.39999961853</ele>
        <time>2023-08-09T17:11:11.000Z</time>
      </trkpt>
      <trkpt lat="49.8268" lon="0.84949">
        <ele>19.39999961853</ele>
        <time>2023-08-09T17:11:50.000Z</time>
      </trkpt>
      <trkpt lat="49.82676" lon="0.84958">
        <ele>19.39999961853</ele>
        <time>2023-08-09T17:11:51.000Z</time>
      </trkpt>
      <trkpt lat="49.8267" lon="0.8497">
        <ele>19.39999961853</ele>
        <time>2023-08-09T17:11:53.000Z</time>
      </trkpt>
      <trkpt lat="49.82672" lon="0.84968">
        <ele>19.39999961853</ele>
        <time>2023-08-09T17:11:55.000Z</time>
      </trkpt>
      <trkpt lat="49.82678" lon="0.84963">
        <ele>19.39999961853</ele>
        <time>2023-08-09T17:12:00.000Z</time>
      </trkpt>
      <trkpt lat="49.82683" lon="0.84962">
        <ele>19.60000038147</ele>
        <time>2023-08-09T17:12:08.000Z</time>
      </trkpt>
      <trkpt lat="49.82682" lon="0.84962">
        <ele>19.60000038147</ele>
        <time>2023-08-09T17:12:09.000Z</time>
      </trkpt>
      <trkpt lat="49.8272" lon="0.84918">
        <ele>19.799999237061</ele>
        <time>2023-08-09T17:12:57.000Z</time>
      </trkpt>
      <trkpt lat="49.82721" lon="0.84916">
        <ele>19.60000038147</ele>
        <time>2023-08-09T17:12:59.000Z</time>
      </trkpt>
      <trkpt lat="49.82721" lon="0.84915">
        <ele>19.60000038147</ele>
        <time>2023-08-09T17:13:03.000Z</time>
      </trkpt>
      <trkpt lat="49.8272" lon="0.84915">
        <ele>19.60000038147</ele>
        <time>2023-08-09T17:13:05.000Z</time>
      </trkpt>
      <trkpt lat="49.82719" lon="0.84917">
        <ele>19.60000038147</ele>
        <time>2023-08-09T17:13:06.000Z</time>
      </trkpt>
      <trkpt lat="49.82717" lon="0.84922">
        <ele>19.60000038147</ele>
        <time>2023-08-09T17:13:10.000Z</time>
      </trkpt>
      <trkpt lat="49.82717" lon="0.84926">
        <ele>19.60000038147</ele>
        <time>2023-08-09T17:13:17.000Z</time>
      </trkpt>
      <trkpt lat="49.82717" lon="0.84926">
        <ele>19.39999961853</ele>
        <time>2023-08-09T17:13:18.000Z</time>
      </trkpt>
      <trkpt lat="49.82717" lon="0.84926">
        <ele>19.39999961853</ele>
        <time>2023-08-09T17:13:20.000Z</time>
      </trkpt>
      <trkpt lat="49.82702" lon="0.84936">
        <ele>19.200000762939</ele>
        <time>2023-08-09T17:19:30.000Z</time>
      </trkpt>
      <trkpt lat="49.82702" lon="0.84936">
        <ele>19.200000762939</ele>
        <time>2023-08-09T17:19:31.000Z</time>
      </trkpt>
      <trkpt lat="49.82702" lon="0.84936">
        <ele>19.200000762939</ele>
        <time>2023-08-09T17:19:32.000Z</time>
      </trkpt>
      <trkpt lat="49.827" lon="0.84934">
        <ele>19.200000762939</ele>
        <time>2023-08-09T17:19:34.000Z</time>
      </trkpt>
      <trkpt lat="49.827" lon="0.84934">
        <ele>19.200000762939</ele>
        <time>2023-08-09T17:19:36.000Z</time>
      </trkpt>
      <trkpt lat="49.827" lon="0.84934">
        <ele>19.200000762939</ele>
        <time>2023-08-09T17:19:39.000Z</time>
      </trkpt>
      <trkpt lat="49.827" lon="0.84934">
        <ele>19</ele>
        <time>2023-08-09T17:19:41.000Z</time>
      </trkpt>
      <trkpt lat="49.82689" lon="0.84941">
        <ele>18.799999237061</ele>
        <time>2023-08-09T17:20:28.000Z</time>
      </trkpt>
      <trkpt lat="49.82687" lon="0.84941">
        <ele>18.799999237061</ele>
        <time>2023-08-09T17:20:29.000Z</time>
      </trkpt>
      <trkpt lat="49.82685" lon="0.8494">
        <ele>19</ele>
        <time>2023-08-09T17:20:31.000Z</time>
      </trkpt>
      <trkpt lat="49.82685" lon="0.84939">
        <ele>19</ele>
        <time>2023-08-09T17:20:32.000Z</time>
      </trkpt>
      <trkpt lat="49.82686" lon="0.84942">
        <ele>19</ele>
        <time>2023-08-09T17:20:35.000Z</time>
      </trkpt>
      <trkpt lat="49.82689" lon="0.8494">
        <ele>19</ele>
        <time>2023-08-09T17:20:37.000Z</time>
      </trkpt>
      <trkpt lat="49.82682" lon="0.84947">
        <ele>19</ele>
        <time>2023-08-09T17:20:40.000Z</time>
      </trkpt>
      <trkpt lat="49.82679" lon="0.84956">
        <ele>19</ele>
        <time>2023-08-09T17:20:46.000Z</time>
      </trkpt>
      <trkpt lat="49.82683" lon="0.84953">
        <ele>19</ele>
        <time>2023-08-09T17:20:49.000Z</time>
      </trkpt>
      <trkpt lat="49.82682" lon="0.84954">
        <ele>19</ele>
        <time>2023-08-09T17:20:50.000Z</time>
      </trkpt>
      <trkpt lat="49.82681" lon="0.84964">
        <ele>19</ele>
        <time>2023-08-09T17:20:53.000Z</time>
      </trkpt>
      <trkpt lat="49.82686" lon="0.84956">
        <ele>19</ele>
        <time>2023-08-09T17:20:56.000Z</time>
      </trkpt>
      <trkpt lat="49.8269" lon="0.84951">
        <ele>19</ele>
        <time>2023-08-09T17:21:00.000Z</time>
      </trkpt>
      <trkpt lat="49.82687" lon="0.84961">
        <ele>19.200000762939</ele>
        <time>2023-08-09T17:21:06.000Z</time>
      </trkpt>
      <trkpt lat="49.82684" lon="0.84964">
        <ele>19.200000762939</ele>
        <time>2023-08-09T17:21:09.000Z</time>
      </trkpt>
      <trkpt lat="49.82685" lon="0.84963">
        <ele>19.200000762939</ele>
        <time>2023-08-09T17:21:10.000Z</time>
      </trkpt>
      <trkpt lat="49.82683" lon="0.84962">
        <ele>19</ele>
        <time>2023-08-09T17:21:11.000Z</time>
      </trkpt>
      <trkpt lat="49.82683" lon="0.84963">
        <ele>19</ele>
        <time>2023-08-09T17:21:13.000Z</time>
      </trkpt>
      <trkpt lat="49.82689" lon="0.84955">
        <ele>19</ele>
        <time>2023-08-09T17:21:17.000Z</time>
      </trkpt>
      <trkpt lat="49.82688" lon="0.84955">
        <ele>19</ele>
        <time>2023-08-09T17:21:20.000Z</time>
      </trkpt>
      <trkpt lat="49.82689" lon="0.84956">
        <ele>18.799999237061</ele>
        <time>2023-08-09T17:21:48.000Z</time>
      </trkpt>
      <trkpt lat="49.82686" lon="0.84956">
        <ele>18.799999237061</ele>
        <time>2023-08-09T17:21:49.000Z</time>
      </trkpt>
      <trkpt lat="49.82691" lon="0.84951">
        <ele>18.799999237061</ele>
        <time>2023-08-09T17:21:52.000Z</time>
      </trkpt>
      <trkpt lat="49.82691" lon="0.84952">
        <ele>18.799999237061</ele>
        <time>2023-08-09T17:21:54.000Z</time>
      </trkpt>
      <trkpt lat="49.82685" lon="0.84953">
        <ele>18.799999237061</ele>
        <time>2023-08-09T17:21:57.000Z</time>
      </trkpt>
      <trkpt lat="49.82684" lon="0.84952">
        <ele>18.799999237061</ele>
        <time>2023-08-09T17:21:58.000Z</time>
      </trkpt>
      <trkpt lat="49.82685" lon="0.84953">
        <ele>18.799999237061</ele>
        <time>2023-08-09T17:21:59.000Z</time>
      </trkpt>
      <trkpt lat="49.82691" lon="0.84967">
        <ele>18.60000038147</ele>
        <time>2023-08-09T17:22:01.000Z</time>
      </trkpt>
      <trkpt lat="49.82702" lon="0.84954">
        <ele>18.60000038147</ele>
        <time>2023-08-09T17:22:05.000Z</time>
      </trkpt>
      <trkpt lat="49.82708" lon="0.84954">
        <ele>18.60000038147</ele>
        <time>2023-08-09T17:22:09.000Z</time>
      </trkpt>
      <trkpt lat="49.82714" lon="0.84961">
        <ele>18.799999237061</ele>
        <time>2023-08-09T17:22:15.000Z</time>
      </trkpt>
      <trkpt lat="49.82715" lon="0.84962">
        <ele>18.799999237061</ele>
        <time>2023-08-09T17:22:16.000Z</time>
      </trkpt>
      <trkpt lat="49.8271" lon="0.8496">
        <ele>18.799999237061</ele>
        <time>2023-08-09T17:22:22.000Z</time>
      </trkpt>
      <trkpt lat="49.82703" lon="0.84966">
        <ele>18.799999237061</ele>
        <time>2023-08-09T17:22:23.000Z</time>
      </trkpt>
      <trkpt lat="49.82695" lon="0.84964">
        <ele>18.799999237061</ele>
        <time>2023-08-09T17:22:26.000Z</time>
      </trkpt>
      <trkpt lat="49.8269" lon="0.84962">
        <ele>18.799999237061</ele>
        <time>2023-08-09T17:22:28.000Z</time>
      </trkpt>
      <trkpt lat="49.82691" lon="0.84967">
        <ele>18.799999237061</ele>
        <time>2023-08-09T17:22:29.000Z</time>
      </trkpt>
      <trkpt lat="49.82694" lon="0.84971">
        <ele>18.799999237061</ele>
        <time>2023-08-09T17:22:30.000Z</time>
      </trkpt>
      <trkpt lat="49.82702" lon="0.84967">
        <ele>18.799999237061</ele>
        <time>2023-08-09T17:22:33.000Z</time>
      </trkpt>
      <trkpt lat="49.82681" lon="0.84965">
        <ele>18.799999237061</ele>
        <time>2023-08-09T17:22:41.000Z</time>
      </trkpt>
      <trkpt lat="49.82673" lon="0.84965">
        <ele>18.799999237061</ele>
        <time>2023-08-09T17:22:44.000Z</time>
      </trkpt>
      <trkpt lat="49.82697" lon="0.84967">
        <ele>19</ele>
        <time>2023-08-09T17:24:05.000Z</time>
      </trkpt>
      <trkpt lat="49.82697" lon="0.84976">
        <ele>18.799999237061</ele>
        <time>2023-08-09T17:24:16.000Z</time>
      </trkpt>
      <trkpt lat="49.82693" lon="0.84988">
        <ele>18.799999237061</ele>
        <time>2023-08-09T17:24:18.000Z</time>
      </trkpt>
      <trkpt lat="49.82683" lon="0.84977">
        <ele>18.799999237061</ele>
        <time>2023-08-09T17:24:25.000Z</time>
      </trkpt>
      <trkpt lat="49.82704" lon="0.84924">
        <ele>18.799999237061</ele>
        <time>2023-08-09T17:24:45.000Z</time>
      </trkpt>
      <trkpt lat="49.82656" lon="0.84941">
        <ele>18.60000038147</ele>
        <time>2023-08-09T17:29:58.000Z</time>
      </trkpt>
      <trkpt lat="49.82636" lon="0.84956">
        <ele>18.39999961853</ele>
        <time>2023-08-09T17:30:14.000Z</time>
      </trkpt>
      <trkpt lat="49.82701" lon="0.84922">
        <ele>18.799999237061</ele>
        <time>2023-08-09T17:31:51.000Z</time>
      </trkpt>
      <trkpt lat="49.82707" lon="0.84924">
        <ele>18.799999237061</ele>
        <time>2023-08-09T17:31:52.000Z</time>
      </trkpt>
      <trkpt lat="49.82713" lon="0.84946">
        <ele>18.799999237061</ele>
        <time>2023-08-09T17:31:54.000Z</time>
      </trkpt>
      <trkpt lat="49.82718" lon="0.84983">
        <ele>18.60000038147</ele>
        <time>2023-08-09T17:32:09.000Z</time>
      </trkpt>
      <trkpt lat="49.82691" lon="0.84968">
        <ele>18.60000038147</ele>
        <time>2023-08-09T17:32:11.000Z</time>
      </trkpt>
      <trkpt lat="49.82679" lon="0.84966">
        <ele>18.60000038147</ele>
        <time>2023-08-09T17:32:16.000Z</time>
      </trkpt>
      <trkpt lat="49.82667" lon="0.84961">
        <ele>18.60000038147</ele>
        <time>2023-08-09T17:32:20.000Z</time>
      </trkpt>
      <trkpt lat="49.82666" lon="0.8496">
        <ele>18.60000038147</ele>
        <time>2023-08-09T17:32:23.000Z</time>
      </trkpt>
      <trkpt lat="49.82671" lon="0.84958">
        <ele>18.60000038147</ele>
        <time>2023-08-09T17:32:26.000Z</time>
      </trkpt>
      <trkpt lat="49.82703" lon="0.84942">
        <ele>19.200000762939</ele>
        <time>2023-08-09T17:41:08.000Z</time>
      </trkpt>
      <trkpt lat="49.82703" lon="0.84943">
        <ele>19.200000762939</ele>
        <time>2023-08-09T17:41:09.000Z</time>
      </trkpt>
      <trkpt lat="49.82702" lon="0.8494">
        <ele>19.200000762939</ele>
        <time>2023-08-09T17:41:10.000Z</time>
      </trkpt>
      <trkpt lat="49.82702" lon="0.84946">
        <ele>19.200000762939</ele>
        <time>2023-08-09T17:41:13.000Z</time>
      </trkpt>
      <trkpt lat="49.82707" lon="0.84955">
        <ele>19.200000762939</ele>
        <time>2023-08-09T17:41:14.000Z</time>
      </trkpt>
      <trkpt lat="49.8272" lon="0.84996">
        <ele>19</ele>
        <time>2023-08-09T17:41:18.000Z</time>
      </trkpt>
      <trkpt lat="49.82735" lon="0.8503">
        <ele>19</ele>
        <time>2023-08-09T17:41:33.000Z</time>
      </trkpt>
      <trkpt lat="49.82734" lon="0.85021">
        <ele>18.799999237061</ele>
        <time>2023-08-09T17:41:34.000Z</time>
      </trkpt>
      <trkpt lat="49.82722" lon="0.84992">
        <ele>18.799999237061</ele>
        <time>2023-08-09T17:41:41.000Z</time>
      </trkpt>
      <trkpt lat="49.82719" lon="0.84987">
        <ele>18.799999237061</ele>
        <time>2023-08-09T17:41:42.000Z</time>
      </trkpt>
      <trkpt lat="49.82733" lon="0.849">
        <ele>18.799999237061</ele>
        <time>2023-08-09T17:44:18.000Z</time>
      </trkpt>
      <trkpt lat="49.8269" lon="0.84967">
        <ele>20.200000762939</ele>
        <time>2023-08-09T18:05:09.000Z</time>
      </trkpt>
      <trkpt lat="49.8278" lon="0.84928">
        <ele>20.200000762939</ele>
        <time>2023-08-09T18:05:10.000Z</time>
      </trkpt>
      <trkpt lat="49.82761" lon="0.84933">
        <ele>20</ele>
        <time>2023-08-09T18:05:12.000Z</time>
      </trkpt>
      <trkpt lat="49.82774" lon="0.84928">
        <ele>20</ele>
        <time>2023-08-09T18:05:17.000Z</time>
      </trkpt>
      <trkpt lat="49.82717" lon="0.84946">
        <ele>19.39999961853</ele>
        <time>2023-08-09T18:05:59.000Z</time>
      </trkpt>
      <trkpt lat="49.82706" lon="0.84947">
        <ele>18.60000038147</ele>
        <time>2023-08-09T18:06:00.000Z</time>
      </trkpt>
      <trkpt lat="49.82689" lon="0.84942">
        <ele>18.200000762939</ele>
        <time>2023-08-09T18:06:03.000Z</time>
      </trkpt>
      <trkpt lat="49.82686" lon="0.84941">
        <ele>18.799999237061</ele>
        <time>2023-08-09T18:06:04.000Z</time>
      </trkpt>
      <trkpt lat="49.82684" lon="0.84944">
        <ele>20</ele>
        <time>2023-08-09T18:06:05.000Z</time>
      </trkpt>
      <trkpt lat="49.82682" lon="0.84948">
        <ele>19.39999961853</ele>
        <time>2023-08-09T18:06:07.000Z</time>
      </trkpt>
      <trkpt lat="49.8268" lon="0.84949">
        <ele>20</ele>
        <time>2023-08-09T18:06:09.000Z</time>
      </trkpt>
      <trkpt lat="49.82676" lon="0.84952">
        <ele>20.799999237061</ele>
        <time>2023-08-09T18:06:15.000Z</time>
      </trkpt>
      <trkpt lat="49.82675" lon="0.84948">
        <ele>20.39999961853</ele>
        <time>2023-08-09T18:06:16.000Z</time>
      </trkpt>
      <trkpt lat="49.82675" lon="0.84942">
        <ele>20.200000762939</ele>
        <time>2023-08-09T18:06:18.000Z</time>
      </trkpt>
      <trkpt lat="49.82675" lon="0.8494">
        <ele>20.200000762939</ele>
        <time>2023-08-09T18:06:19.000Z</time>
      </trkpt>
      <trkpt lat="49.82676" lon="0.8494">
        <ele>20.60000038147</ele>
        <time>2023-08-09T18:06:24.000Z</time>
      </trkpt>
      <trkpt lat="49.82679" lon="0.84943">
        <ele>20.39999961853</ele>
        <time>2023-08-09T18:06:32.000Z</time>
      </trkpt>
      <trkpt lat="49.82681" lon="0.84945">
        <ele>20.200000762939</ele>
        <time>2023-08-09T18:06:36.000Z</time>
      </trkpt>
      <trkpt lat="49.82681" lon="0.84947">
        <ele>20.200000762939</ele>
        <time>2023-08-09T18:06:39.000Z</time>
      </trkpt>
      <trkpt lat="49.8269" lon="0.84959">
        <ele>20.39999961853</ele>
        <time>2023-08-09T18:13:20.000Z</time>
      </trkpt>
      <trkpt lat="49.82687" lon="0.84955">
        <ele>20.39999961853</ele>
        <time>2023-08-09T18:13:22.000Z</time>
      </trkpt>
      <trkpt lat="49.82675" lon="0.84941">
        <ele>20.60000038147</ele>
        <time>2023-08-09T18:13:27.000Z</time>
      </trkpt>
      <trkpt lat="49.82672" lon="0.84937">
        <ele>20.60000038147</ele>
        <time>2023-08-09T18:13:28.000Z</time>
      </trkpt>
      <trkpt lat="49.82656" lon="0.84917">
        <ele>21</ele>
        <time>2023-08-09T18:13:34.000Z</time>
      </trkpt>
      <trkpt lat="49.8263" lon="0.84894">
        <ele>21</ele>
        <time>2023-08-09T18:13:42.000Z</time>
      </trkpt>
      <trkpt lat="49.82607" lon="0.84882">
        <ele>20.799999237061</ele>
        <time>2023-08-09T18:13:48.000Z</time>
      </trkpt>
      <trkpt lat="49.82594" lon="0.84879">
        <ele>20.799999237061</ele>
        <time>2023-08-09T18:13:51.000Z</time>
      </trkpt>
      <trkpt lat="49.82574" lon="0.84875">
        <ele>20.799999237061</ele>
        <time>2023-08-09T18:13:56.000Z</time>
      </trkpt>
      <trkpt lat="49.82536" lon="0.84868">
        <ele>21</ele>
        <time>2023-08-09T18:14:05.000Z</time>
      </trkpt>
      <trkpt lat="49.82525" lon="0.84864">
        <ele>21.200000762939</ele>
        <time>2023-08-09T18:14:08.000Z</time>
      </trkpt>
      <trkpt lat="49.82517" lon="0.8486">
        <ele>21.200000762939</ele>
        <time>2023-08-09T18:14:10.000Z</time>
      </trkpt>
      <trkpt lat="49.82513" lon="0.84858">
        <ele>21.200000762939</ele>
        <time>2023-08-09T18:14:11.000Z</time>
      </trkpt>
      <trkpt lat="49.82481" lon="0.84842">
        <ele>20.799999237061</ele>
        <time>2023-08-09T18:14:19.000Z</time>
      </trkpt>
      <trkpt lat="49.82445" lon="0.84824">
        <ele>21.60000038147</ele>
        <time>2023-08-09T18:14:29.000Z</time>
      </trkpt>
      <trkpt lat="49.82443" lon="0.84823">
        <ele>21.60000038147</ele>
        <time>2023-08-09T18:14:30.000Z</time>
      </trkpt>
      <trkpt lat="49.82437" lon="0.84819">
        <ele>22</ele>
        <time>2023-08-09T18:14:32.000Z</time>
      </trkpt>
      <trkpt lat="49.82425" lon="0.84814">
        <ele>22.60000038147</ele>
        <time>2023-08-09T18:14:36.000Z</time>
      </trkpt>
      <trkpt lat="49.82419" lon="0.8481">
        <ele>23</ele>
        <time>2023-08-09T18:14:38.000Z</time>
      </trkpt>
      <trkpt lat="49.82416" lon="0.84802">
        <ele>23.39999961853</ele>
        <time>2023-08-09T18:14:40.000Z</time>
      </trkpt>
      <trkpt lat="49.82412" lon="0.8478">
        <ele>24.39999961853</ele>
        <time>2023-08-09T18:14:45.000Z</time>
      </trkpt>
      <trkpt lat="49.82412" lon="0.84776">
        <ele>24.60000038147</ele>
        <time>2023-08-09T18:14:46.000Z</time>
      </trkpt>
      <trkpt lat="49.82412" lon="0.84748">
        <ele>25.39999961853</ele>
        <time>2023-08-09T18:14:53.000Z</time>
      </trkpt>
      <trkpt lat="49.82413" lon="0.84733">
        <ele>26.200000762939</ele>
        <time>2023-08-09T18:14:58.000Z</time>
      </trkpt>
      <trkpt lat="49.82413" lon="0.84727">
        <ele>26.60000038147</ele>
        <time>2023-08-09T18:15:00.000Z</time>
      </trkpt>
      <trkpt lat="49.82416" lon="0.84704">
        <ele>27.200000762939</ele>
        <time>2023-08-09T18:15:05.000Z</time>
      </trkpt>
      <trkpt lat="49.82419" lon="0.84669">
        <ele>27.200000762939</ele>
        <time>2023-08-09T18:15:11.000Z</time>
      </trkpt>
      <trkpt lat="49.82422" lon="0.84635">
        <ele>26.799999237061</ele>
        <time>2023-08-09T18:15:16.000Z</time>
      </trkpt>
      <trkpt lat="49.82422" lon="0.84626">
        <ele>26.60000038147</ele>
        <time>2023-08-09T18:15:17.000Z</time>
      </trkpt>
      <trkpt lat="49.82421" lon="0.84608">
        <ele>26.39999961853</ele>
        <time>2023-08-09T18:15:19.000Z</time>
      </trkpt>
      <trkpt lat="49.82421" lon="0.84591">
        <ele>26</ele>
        <time>2023-08-09T18:15:21.000Z</time>
      </trkpt>
      <trkpt lat="49.82423" lon="0.84567">
        <ele>25.799999237061</ele>
        <time>2023-08-09T18:15:24.000Z</time>
      </trkpt>
      <trkpt lat="49.82423" lon="0.84551">
        <ele>25.39999961853</ele>
        <time>2023-08-09T18:15:26.000Z</time>
      </trkpt>
      <trkpt lat="49.82423" lon="0.84536">
        <ele>25.39999961853</ele>
        <time>2023-08-09T18:15:28.000Z</time>
      </trkpt>
      <trkpt lat="49.82425" lon="0.84517">
        <ele>25.200000762939</ele>
        <time>2023-08-09T18:15:31.000Z</time>
      </trkpt>
      <trkpt lat="49.82424" lon="0.84508">
        <ele>25.200000762939</ele>
        <time>2023-08-09T18:15:33.000Z</time>
      </trkpt>
      <trkpt lat="49.82423" lon="0.84504">
        <ele>25.39999961853</ele>
        <time>2023-08-09T18:15:35.000Z</time>
      </trkpt>
      <trkpt lat="49.82419" lon="0.84498">
        <ele>25.60000038147</ele>
        <time>2023-08-09T18:15:41.000Z</time>
      </trkpt>
      <trkpt lat="49.82413" lon="0.84496">
        <ele>25.60000038147</ele>
        <time>2023-08-09T18:15:47.000Z</time>
      </trkpt>
      <trkpt lat="49.82409" lon="0.84494">
        <ele>25.60000038147</ele>
        <time>2023-08-09T18:15:49.000Z</time>
      </trkpt>
      <trkpt lat="49.82399" lon="0.84487">
        <ele>25.39999961853</ele>
        <time>2023-08-09T18:15:54.000Z</time>
      </trkpt>
      <trkpt lat="49.82398" lon="0.84483">
        <ele>25.39999961853</ele>
        <time>2023-08-09T18:15:55.000Z</time>
      </trkpt>
      <trkpt lat="49.82402" lon="0.84466">
        <ele>25.200000762939</ele>
        <time>2023-08-09T18:16:00.000Z</time>
      </trkpt>
      <trkpt lat="49.82406" lon="0.84448">
        <ele>25.39999961853</ele>
        <time>2023-08-09T18:16:05.000Z</time>
      </trkpt>
      <trkpt lat="49.8241" lon="0.84446">
        <ele>25.60000038147</ele>
        <time>2023-08-09T18:16:07.000Z</time>
      </trkpt>
      <trkpt lat="49.82421" lon="0.84447">
        <ele>26</ele>
        <time>2023-08-09T18:16:11.000Z</time>
      </trkpt>
      <trkpt lat="49.82427" lon="0.84441">
        <ele>26</ele>
        <time>2023-08-09T18:16:13.000Z</time>
      </trkpt>
      <trkpt lat="49.82429" lon="0.84431">
        <ele>26.200000762939</ele>
        <time>2023-08-09T18:16:15.000Z</time>
      </trkpt>
      <trkpt lat="49.82432" lon="0.84402">
        <ele>26.39999961853</ele>
        <time>2023-08-09T18:16:21.000Z</time>
      </trkpt>
      <trkpt lat="49.82432" lon="0.8439">
        <ele>27</ele>
        <time>2023-08-09T18:16:24.000Z</time>
      </trkpt>
      <trkpt lat="49.82431" lon="0.84382">
        <ele>27.200000762939</ele>
        <time>2023-08-09T18:16:26.000Z</time>
      </trkpt>
      <trkpt lat="49.82426" lon="0.84369">
        <ele>28.200000762939</ele>
        <time>2023-08-09T18:16:31.000Z</time>
      </trkpt>
      <trkpt lat="49.82421" lon="0.84355">
        <ele>29.200000762939</ele>
        <time>2023-08-09T18:16:37.000Z</time>
      </trkpt>
      <trkpt lat="49.8242" lon="0.84351">
        <ele>29.60000038147</ele>
        <time>2023-08-09T18:16:39.000Z</time>
      </trkpt>
      <trkpt lat="49.82417" lon="0.84347">
        <ele>30.39999961853</ele>
        <time>2023-08-09T18:16:43.000Z</time>
      </trkpt>
      <trkpt lat="49.82413" lon="0.84342">
        <ele>31.200000762939</ele>
        <time>2023-08-09T18:16:47.000Z</time>
      </trkpt>
      <trkpt lat="49.82413" lon="0.84341">
        <ele>31.39999961853</ele>
        <time>2023-08-09T18:16:48.000Z</time>
      </trkpt>
      <trkpt lat="49.82405" lon="0.84331">
        <ele>32.799999237061</ele>
        <time>2023-08-09T18:16:53.000Z</time>
      </trkpt>
      <trkpt lat="49.82402" lon="0.84325">
        <ele>33.599998474121</ele>
        <time>2023-08-09T18:16:57.000Z</time>
      </trkpt>
      <trkpt lat="49.82401" lon="0.84323">
        <ele>34</ele>
        <time>2023-08-09T18:16:58.000Z</time>
      </trkpt>
      <trkpt lat="49.82399" lon="0.84321">
        <ele>34</ele>
        <time>2023-08-09T18:16:59.000Z</time>
      </trkpt>
      <trkpt lat="49.82394" lon="0.84313">
        <ele>34.799999237061</ele>
        <time>2023-08-09T18:17:02.000Z</time>
      </trkpt>
      <trkpt lat="49.82392" lon="0.84309">
        <ele>35</ele>
        <time>2023-08-09T18:17:04.000Z</time>
      </trkpt>
      <trkpt lat="49.82391" lon="0.84306">
        <ele>35.400001525879</ele>
        <time>2023-08-09T18:17:06.000Z</time>
      </trkpt>
      <trkpt lat="49.82383" lon="0.84297">
        <ele>36</ele>
        <time>2023-08-09T18:17:09.000Z</time>
      </trkpt>
      <trkpt lat="49.82382" lon="0.84294">
        <ele>36.200000762939</ele>
        <time>2023-08-09T18:17:10.000Z</time>
      </trkpt>
      <trkpt lat="49.82372" lon="0.84275">
        <ele>37</ele>
        <time>2023-08-09T18:17:15.000Z</time>
      </trkpt>
      <trkpt lat="49.82371" lon="0.84272">
        <ele>37.200000762939</ele>
        <time>2023-08-09T18:17:16.000Z</time>
      </trkpt>
      <trkpt lat="49.82364" lon="0.8426">
        <ele>38</ele>
        <time>2023-08-09T18:17:21.000Z</time>
      </trkpt>
      <trkpt lat="49.82361" lon="0.84254">
        <ele>38.400001525879</ele>
        <time>2023-08-09T18:17:23.000Z</time>
      </trkpt>
      <trkpt lat="49.82359" lon="0.84247">
        <ele>38.799999237061</ele>
        <time>2023-08-09T18:17:26.000Z</time>
      </trkpt>
      <trkpt lat="49.82356" lon="0.84241">
        <ele>39</ele>
        <time>2023-08-09T18:17:28.000Z</time>
      </trkpt>
      <trkpt lat="49.82353" lon="0.84232">
        <ele>39.400001525879</ele>
        <time>2023-08-09T18:17:31.000Z</time>
      </trkpt>
      <trkpt lat="49.82349" lon="0.84217">
        <ele>40.200000762939</ele>
        <time>2023-08-09T18:17:36.000Z</time>
      </trkpt>
      <trkpt lat="49.82347" lon="0.84209">
        <ele>40.599998474121</ele>
        <time>2023-08-09T18:17:39.000Z</time>
      </trkpt>
      <trkpt lat="49.82345" lon="0.842">
        <ele>41.200000762939</ele>
        <time>2023-08-09T18:17:42.000Z</time>
      </trkpt>
      <trkpt lat="49.82342" lon="0.84192">
        <ele>41.799999237061</ele>
        <time>2023-08-09T18:17:45.000Z</time>
      </trkpt>
      <trkpt lat="49.82338" lon="0.84177">
        <ele>42.599998474121</ele>
        <time>2023-08-09T18:17:50.000Z</time>
      </trkpt>
      <trkpt lat="49.82336" lon="0.84171">
        <ele>42.799999237061</ele>
        <time>2023-08-09T18:17:52.000Z</time>
      </trkpt>
      <trkpt lat="49.82332" lon="0.84153">
        <ele>43.799999237061</ele>
        <time>2023-08-09T18:17:58.000Z</time>
      </trkpt>
      <trkpt lat="49.82331" lon="0.84147">
        <ele>44.400001525879</ele>
        <time>2023-08-09T18:18:00.000Z</time>
      </trkpt>
      <trkpt lat="49.82328" lon="0.84134">
        <ele>44.799999237061</ele>
        <time>2023-08-09T18:18:04.000Z</time>
      </trkpt>
      <trkpt lat="49.82327" lon="0.84123">
        <ele>45.200000762939</ele>
        <time>2023-08-09T18:18:08.000Z</time>
      </trkpt>
      <trkpt lat="49.82327" lon="0.84121">
        <ele>45.400001525879</ele>
        <time>2023-08-09T18:18:09.000Z</time>
      </trkpt>
      <trkpt lat="49.82328" lon="0.84113">
        <ele>45.799999237061</ele>
        <time>2023-08-09T18:18:12.000Z</time>
      </trkpt>
      <trkpt lat="49.82327" lon="0.841">
        <ele>46.200000762939</ele>
        <time>2023-08-09T18:18:16.000Z</time>
      </trkpt>
      <trkpt lat="49.82327" lon="0.84093">
        <ele>46.400001525879</ele>
        <time>2023-08-09T18:18:18.000Z</time>
      </trkpt>
      <trkpt lat="49.82327" lon="0.84089">
        <ele>46.599998474121</ele>
        <time>2023-08-09T18:18:19.000Z</time>
      </trkpt>
      <trkpt lat="49.82329" lon="0.84067">
        <ele>47.400001525879</ele>
        <time>2023-08-09T18:18:25.000Z</time>
      </trkpt>
      <trkpt lat="49.82331" lon="0.84057">
        <ele>47.799999237061</ele>
        <time>2023-08-09T18:18:28.000Z</time>
      </trkpt>
      <trkpt lat="49.82334" lon="0.84029">
        <ele>48.599998474121</ele>
        <time>2023-08-09T18:18:35.000Z</time>
      </trkpt>
      <trkpt lat="49.82334" lon="0.84025">
        <ele>48.599998474121</ele>
        <time>2023-08-09T18:18:36.000Z</time>
      </trkpt>
      <trkpt lat="49.82335" lon="0.83993">
        <ele>49.599998474121</ele>
        <time>2023-08-09T18:18:44.000Z</time>
      </trkpt>
      <trkpt lat="49.82336" lon="0.8398">
        <ele>50</ele>
        <time>2023-08-09T18:18:47.000Z</time>
      </trkpt>
      <trkpt lat="49.82338" lon="0.83956">
        <ele>50.599998474121</ele>
        <time>2023-08-09T18:18:53.000Z</time>
      </trkpt>
      <trkpt lat="49.82339" lon="0.83944">
        <ele>51</ele>
        <time>2023-08-09T18:18:56.000Z</time>
      </trkpt>
      <trkpt lat="49.82341" lon="0.83913">
        <ele>51.599998474121</ele>
        <time>2023-08-09T18:19:03.000Z</time>
      </trkpt>
      <trkpt lat="49.82344" lon="0.83881">
        <ele>52.200000762939</ele>
        <time>2023-08-09T18:19:10.000Z</time>
      </trkpt>
      <trkpt lat="49.82349" lon="0.83853">
        <ele>52.799999237061</ele>
        <time>2023-08-09T18:19:16.000Z</time>
      </trkpt>
      <trkpt lat="49.82353" lon="0.83822">
        <ele>53.200000762939</ele>
        <time>2023-08-09T18:19:21.000Z</time>
      </trkpt>
      <trkpt lat="49.82354" lon="0.83809">
        <ele>53.200000762939</ele>
        <time>2023-08-09T18:19:23.000Z</time>
      </trkpt>
      <trkpt lat="49.82357" lon="0.83777">
        <ele>53.799999237061</ele>
        <time>2023-08-09T18:19:28.000Z</time>
      </trkpt>
      <trkpt lat="49.82357" lon="0.83771">
        <ele>53.799999237061</ele>
        <time>2023-08-09T18:19:29.000Z</time>
      </trkpt>
      <trkpt lat="49.82363" lon="0.83718">
        <ele>54.400001525879</ele>
        <time>2023-08-09T18:19:37.000Z</time>
      </trkpt>
      <trkpt lat="49.82366" lon="0.83686">
        <ele>55</ele>
        <time>2023-08-09T18:19:43.000Z</time>
      </trkpt>
      <trkpt lat="49.82367" lon="0.83681">
        <ele>55.200000762939</ele>
        <time>2023-08-09T18:19:44.000Z</time>
      </trkpt>
      <trkpt lat="49.82371" lon="0.83647">
        <ele>55.599998474121</ele>
        <time>2023-08-09T18:19:51.000Z</time>
      </trkpt>
      <trkpt lat="49.82374" lon="0.83618">
        <ele>56</ele>
        <time>2023-08-09T18:19:57.000Z</time>
      </trkpt>
      <trkpt lat="49.82376" lon="0.83599">
        <ele>56.400001525879</ele>
        <time>2023-08-09T18:20:01.000Z</time>
      </trkpt>
      <trkpt lat="49.82381" lon="0.83554">
        <ele>57</ele>
        <time>2023-08-09T18:20:11.000Z</time>
      </trkpt>
      <trkpt lat="49.82382" lon="0.8354">
        <ele>57</ele>
        <time>2023-08-09T18:20:14.000Z</time>
      </trkpt>
      <trkpt lat="49.82384" lon="0.83522">
        <ele>57.200000762939</ele>
        <time>2023-08-09T18:20:18.000Z</time>
      </trkpt>
      <trkpt lat="49.82385" lon="0.83481">
        <ele>57.599998474121</ele>
        <time>2023-08-09T18:20:27.000Z</time>
      </trkpt>
      <trkpt lat="49.82383" lon="0.83442">
        <ele>58.200000762939</ele>
        <time>2023-08-09T18:20:35.000Z</time>
      </trkpt>
      <trkpt lat="49.82383" lon="0.83438">
        <ele>58.200000762939</ele>
        <time>2023-08-09T18:20:36.000Z</time>
      </trkpt>
      <trkpt lat="49.82378" lon="0.83394">
        <ele>58.400001525879</ele>
        <time>2023-08-09T18:20:45.000Z</time>
      </trkpt>
      <trkpt lat="49.82372" lon="0.83345">
        <ele>58.799999237061</ele>
        <time>2023-08-09T18:20:55.000Z</time>
      </trkpt>
      <trkpt lat="49.82367" lon="0.83314">
        <ele>59</ele>
        <time>2023-08-09T18:21:01.000Z</time>
      </trkpt>
      <trkpt lat="49.82359" lon="0.83256">
        <ele>59</ele>
        <time>2023-08-09T18:21:12.000Z</time>
      </trkpt>
      <trkpt lat="49.82351" lon="0.83216">
        <ele>59</ele>
        <time>2023-08-09T18:21:20.000Z</time>
      </trkpt>
      <trkpt lat="49.8234" lon="0.83168">
        <ele>58.799999237061</ele>
        <time>2023-08-09T18:21:28.000Z</time>
      </trkpt>
      <trkpt lat="49.82325" lon="0.83116">
        <ele>58.599998474121</ele>
        <time>2023-08-09T18:21:36.000Z</time>
      </trkpt>
      <trkpt lat="49.82308" lon="0.83053">
        <ele>58.400001525879</ele>
        <time>2023-08-09T18:21:46.000Z</time>
      </trkpt>
      <trkpt lat="49.82299" lon="0.83022">
        <ele>58.400001525879</ele>
        <time>2023-08-09T18:21:51.000Z</time>
      </trkpt>
      <trkpt lat="49.82295" lon="0.83002">
        <ele>58.400001525879</ele>
        <time>2023-08-09T18:21:54.000Z</time>
      </trkpt>
      <trkpt lat="49.8228" lon="0.82941">
        <ele>58.400001525879</ele>
        <time>2023-08-09T18:22:02.000Z</time>
      </trkpt>
      <trkpt lat="49.8226" lon="0.82869">
        <ele>58.599998474121</ele>
        <time>2023-08-09T18:22:11.000Z</time>
      </trkpt>
      <trkpt lat="49.82237" lon="0.82785">
        <ele>58.400001525879</ele>
        <time>2023-08-09T18:22:21.000Z</time>
      </trkpt>
      <trkpt lat="49.82219" lon="0.82717">
        <ele>58.400001525879</ele>
        <time>2023-08-09T18:22:29.000Z</time>
      </trkpt>
      <trkpt lat="49.82198" lon="0.82639">
        <ele>58.200000762939</ele>
        <time>2023-08-09T18:22:38.000Z</time>
      </trkpt>
      <trkpt lat="49.82196" lon="0.82631">
        <ele>58.400001525879</ele>
        <time>2023-08-09T18:22:39.000Z</time>
      </trkpt>
      <trkpt lat="49.82168" lon="0.8255">
        <ele>59</ele>
        <time>2023-08-09T18:22:49.000Z</time>
      </trkpt>
      <trkpt lat="49.82157" lon="0.82519">
        <ele>59.400001525879</ele>
        <time>2023-08-09T18:22:53.000Z</time>
      </trkpt>
      <trkpt lat="49.82145" lon="0.82489">
        <ele>60</ele>
        <time>2023-08-09T18:22:57.000Z</time>
      </trkpt>
      <trkpt lat="49.82135" lon="0.82459">
        <ele>60.599998474121</ele>
        <time>2023-08-09T18:23:01.000Z</time>
      </trkpt>
      <trkpt lat="49.82125" lon="0.82431">
        <ele>61.400001525879</ele>
        <time>2023-08-09T18:23:05.000Z</time>
      </trkpt>
      <trkpt lat="49.8212" lon="0.82417">
        <ele>61.599998474121</ele>
        <time>2023-08-09T18:23:07.000Z</time>
      </trkpt>
      <trkpt lat="49.82101" lon="0.82361">
        <ele>62.599998474121</ele>
        <time>2023-08-09T18:23:15.000Z</time>
      </trkpt>
      <trkpt lat="49.82098" lon="0.82354">
        <ele>62.599998474121</ele>
        <time>2023-08-09T18:23:16.000Z</time>
      </trkpt>
      <trkpt lat="49.82075" lon="0.82288">
        <ele>63.599998474121</ele>
        <time>2023-08-09T18:23:26.000Z</time>
      </trkpt>
      <trkpt lat="49.82073" lon="0.82283">
        <ele>63.799999237061</ele>
        <time>2023-08-09T18:23:27.000Z</time>
      </trkpt>
      <trkpt lat="49.82067" lon="0.82268">
        <ele>64</ele>
        <time>2023-08-09T18:23:31.000Z</time>
      </trkpt>
      <trkpt lat="49.82055" lon="0.82238">
        <ele>64.400001525879</ele>
        <time>2023-08-09T18:23:37.000Z</time>
      </trkpt>
      <trkpt lat="49.82039" lon="0.82198">
        <ele>64.800003051758</ele>
        <time>2023-08-09T18:23:43.000Z</time>
      </trkpt>
      <trkpt lat="49.82035" lon="0.82184">
        <ele>64.800003051758</ele>
        <time>2023-08-09T18:23:45.000Z</time>
      </trkpt>
      <trkpt lat="49.82011" lon="0.82111">
        <ele>65.400001525879</ele>
        <time>2023-08-09T18:23:55.000Z</time>
      </trkpt>
      <trkpt lat="49.81995" lon="0.82054">
        <ele>65.800003051758</ele>
        <time>2023-08-09T18:24:03.000Z</time>
      </trkpt>
      <trkpt lat="49.81991" lon="0.82039">
        <ele>65.800003051758</ele>
        <time>2023-08-09T18:24:05.000Z</time>
      </trkpt>
      <trkpt lat="49.8198" lon="0.81996">
        <ele>66</ele>
        <time>2023-08-09T18:24:11.000Z</time>
      </trkpt>
      <trkpt lat="49.81976" lon="0.81982">
        <ele>66.199996948242</ele>
        <time>2023-08-09T18:24:13.000Z</time>
      </trkpt>
      <trkpt lat="49.81969" lon="0.81938">
        <ele>66.599998474121</ele>
        <time>2023-08-09T18:24:19.000Z</time>
      </trkpt>
      <trkpt lat="49.81963" lon="0.81879">
        <ele>67</ele>
        <time>2023-08-09T18:24:27.000Z</time>
      </trkpt>
      <trkpt lat="49.81962" lon="0.81865">
        <ele>67.199996948242</ele>
        <time>2023-08-09T18:24:29.000Z</time>
      </trkpt>
      <trkpt lat="49.81956" lon="0.81779">
        <ele>67.599998474121</ele>
        <time>2023-08-09T18:24:40.000Z</time>
      </trkpt>
      <trkpt lat="49.81956" lon="0.81771">
        <ele>67.599998474121</ele>
        <time>2023-08-09T18:24:41.000Z</time>
      </trkpt>
      <trkpt lat="49.81955" lon="0.81763">
        <ele>67.599998474121</ele>
        <time>2023-08-09T18:24:42.000Z</time>
      </trkpt>
      <trkpt lat="49.81953" lon="0.81722">
        <ele>67.800003051758</ele>
        <time>2023-08-09T18:24:47.000Z</time>
      </trkpt>
      <trkpt lat="49.81952" lon="0.81706">
        <ele>68</ele>
        <time>2023-08-09T18:24:49.000Z</time>
      </trkpt>
      <trkpt lat="49.81946" lon="0.81634">
        <ele>68.400001525879</ele>
        <time>2023-08-09T18:24:58.000Z</time>
      </trkpt>
      <trkpt lat="49.81934" lon="0.8158">
        <ele>68.599998474121</ele>
        <time>2023-08-09T18:25:05.000Z</time>
      </trkpt>
      <trkpt lat="49.81927" lon="0.81549">
        <ele>68.599998474121</ele>
        <time>2023-08-09T18:25:09.000Z</time>
      </trkpt>
      <trkpt lat="49.81917" lon="0.81511">
        <ele>68.400001525879</ele>
        <time>2023-08-09T18:25:14.000Z</time>
      </trkpt>
      <trkpt lat="49.81892" lon="0.81429">
        <ele>68.800003051758</ele>
        <time>2023-08-09T18:25:25.000Z</time>
      </trkpt>
      <trkpt lat="49.8187" lon="0.81363">
        <ele>69</ele>
        <time>2023-08-09T18:25:34.000Z</time>
      </trkpt>
      <trkpt lat="49.81844" lon="0.81299">
        <ele>68.800003051758</ele>
        <time>2023-08-09T18:25:43.000Z</time>
      </trkpt>
      <trkpt lat="49.81812" lon="0.81225">
        <ele>68.800003051758</ele>
        <time>2023-08-09T18:25:54.000Z</time>
      </trkpt>
      <trkpt lat="49.81782" lon="0.81159">
        <ele>68.400001525879</ele>
        <time>2023-08-09T18:26:04.000Z</time>
      </trkpt>
      <trkpt lat="49.81761" lon="0.81113">
        <ele>68.199996948242</ele>
        <time>2023-08-09T18:26:10.000Z</time>
      </trkpt>
      <trkpt lat="49.81731" lon="0.81043">
        <ele>67.400001525879</ele>
        <time>2023-08-09T18:26:19.000Z</time>
      </trkpt>
      <trkpt lat="49.81725" lon="0.81029">
        <ele>67.400001525879</ele>
        <time>2023-08-09T18:26:21.000Z</time>
      </trkpt>
      <trkpt lat="49.81722" lon="0.81018">
        <ele>67.199996948242</ele>
        <time>2023-08-09T18:26:23.000Z</time>
      </trkpt>
      <trkpt lat="49.81709" lon="0.80987">
        <ele>67.199996948242</ele>
        <time>2023-08-09T18:26:28.000Z</time>
      </trkpt>
      <trkpt lat="49.81707" lon="0.80982">
        <ele>67.199996948242</ele>
        <time>2023-08-09T18:26:29.000Z</time>
      </trkpt>
      <trkpt lat="49.81702" lon="0.80969">
        <ele>67</ele>
        <time>2023-08-09T18:26:32.000Z</time>
      </trkpt>
      <trkpt lat="49.81688" lon="0.80938">
        <ele>66.800003051758</ele>
        <time>2023-08-09T18:26:37.000Z</time>
      </trkpt>
      <trkpt lat="49.81668" lon="0.80884">
        <ele>66.599998474121</ele>
        <time>2023-08-09T18:26:43.000Z</time>
      </trkpt>
      <trkpt lat="49.81663" lon="0.80845">
        <ele>66.400001525879</ele>
        <time>2023-08-09T18:26:47.000Z</time>
      </trkpt>
      <trkpt lat="49.81663" lon="0.80822">
        <ele>66.199996948242</ele>
        <time>2023-08-09T18:26:49.000Z</time>
      </trkpt>
      <trkpt lat="49.81659" lon="0.80798">
        <ele>66.199996948242</ele>
        <time>2023-08-09T18:26:51.000Z</time>
      </trkpt>
      <trkpt lat="49.81657" lon="0.80789">
        <ele>66</ele>
        <time>2023-08-09T18:26:52.000Z</time>
      </trkpt>
      <trkpt lat="49.8165" lon="0.80772">
        <ele>66</ele>
        <time>2023-08-09T18:26:55.000Z</time>
      </trkpt>
      <trkpt lat="49.81637" lon="0.80763">
        <ele>65.599998474121</ele>
        <time>2023-08-09T18:26:59.000Z</time>
      </trkpt>
      <trkpt lat="49.81616" lon="0.80753">
        <ele>65.199996948242</ele>
        <time>2023-08-09T18:27:06.000Z</time>
      </trkpt>
      <trkpt lat="49.81605" lon="0.80751">
        <ele>65</ele>
        <time>2023-08-09T18:27:09.000Z</time>
      </trkpt>
      <trkpt lat="49.81591" lon="0.80746">
        <ele>65</ele>
        <time>2023-08-09T18:27:13.000Z</time>
      </trkpt>
      <trkpt lat="49.81551" lon="0.80732">
        <ele>64.199996948242</ele>
        <time>2023-08-09T18:27:22.000Z</time>
      </trkpt>
      <trkpt lat="49.81542" lon="0.80728">
        <ele>64</ele>
        <time>2023-08-09T18:27:24.000Z</time>
      </trkpt>
      <trkpt lat="49.81528" lon="0.8072">
        <ele>63.799999237061</ele>
        <time>2023-08-09T18:27:27.000Z</time>
      </trkpt>
      <trkpt lat="49.81523" lon="0.80717">
        <ele>63.599998474121</ele>
        <time>2023-08-09T18:27:28.000Z</time>
      </trkpt>
      <trkpt lat="49.81504" lon="0.80704">
        <ele>63</ele>
        <time>2023-08-09T18:27:33.000Z</time>
      </trkpt>
      <trkpt lat="49.815" lon="0.80701">
        <ele>63</ele>
        <time>2023-08-09T18:27:34.000Z</time>
      </trkpt>
      <trkpt lat="49.81484" lon="0.80684">
        <ele>62.799999237061</ele>
        <time>2023-08-09T18:27:38.000Z</time>
      </trkpt>
      <trkpt lat="49.81445" lon="0.80647">
        <ele>62.400001525879</ele>
        <time>2023-08-09T18:27:47.000Z</time>
      </trkpt>
      <trkpt lat="49.8144" lon="0.80643">
        <ele>62.400001525879</ele>
        <time>2023-08-09T18:27:48.000Z</time>
      </trkpt>
      <trkpt lat="49.81391" lon="0.80606">
        <ele>62.599998474121</ele>
        <time>2023-08-09T18:27:58.000Z</time>
      </trkpt>
      <trkpt lat="49.81387" lon="0.80602">
        <ele>62.599998474121</ele>
        <time>2023-08-09T18:27:59.000Z</time>
      </trkpt>
      <trkpt lat="49.81366" lon="0.80583">
        <ele>62.799999237061</ele>
        <time>2023-08-09T18:28:05.000Z</time>
      </trkpt>
      <trkpt lat="49.81342" lon="0.80561">
        <ele>62.799999237061</ele>
        <time>2023-08-09T18:28:12.000Z</time>
      </trkpt>
      <trkpt lat="49.81324" lon="0.80545">
        <ele>62.799999237061</ele>
        <time>2023-08-09T18:28:17.000Z</time>
      </trkpt>
      <trkpt lat="49.81296" lon="0.80522">
        <ele>63.200000762939</ele>
        <time>2023-08-09T18:28:23.000Z</time>
      </trkpt>
      <trkpt lat="49.81271" lon="0.80501">
        <ele>63.200000762939</ele>
        <time>2023-08-09T18:28:28.000Z</time>
      </trkpt>
      <trkpt lat="49.81266" lon="0.80495">
        <ele>63.200000762939</ele>
        <time>2023-08-09T18:28:30.000Z</time>
      </trkpt>
      <trkpt lat="49.81257" lon="0.80488">
        <ele>63.400001525879</ele>
        <time>2023-08-09T18:28:34.000Z</time>
      </trkpt>
      <trkpt lat="49.81255" lon="0.80487">
        <ele>63.599998474121</ele>
        <time>2023-08-09T18:28:35.000Z</time>
      </trkpt>
      <trkpt lat="49.81256" lon="0.80482">
        <ele>63.799999237061</ele>
        <time>2023-08-09T18:28:37.000Z</time>
      </trkpt>
      <trkpt lat="49.81257" lon="0.80478">
        <ele>64</ele>
        <time>2023-08-09T18:28:38.000Z</time>
      </trkpt>
      <trkpt lat="49.81259" lon="0.80473">
        <ele>64.199996948242</ele>
        <time>2023-08-09T18:28:39.000Z</time>
      </trkpt>
      <trkpt lat="49.81262" lon="0.80448">
        <ele>64.400001525879</ele>
        <time>2023-08-09T18:28:44.000Z</time>
      </trkpt>
      <trkpt lat="49.81268" lon="0.80411">
        <ele>64.800003051758</ele>
        <time>2023-08-09T18:28:51.000Z</time>
      </trkpt>
      <trkpt lat="49.81273" lon="0.80365">
        <ele>64.800003051758</ele>
        <time>2023-08-09T18:28:58.000Z</time>
      </trkpt>
      <trkpt lat="49.81278" lon="0.8033">
        <ele>64.800003051758</ele>
        <time>2023-08-09T18:29:03.000Z</time>
      </trkpt>
      <trkpt lat="49.81286" lon="0.80271">
        <ele>65</ele>
        <time>2023-08-09T18:29:11.000Z</time>
      </trkpt>
      <trkpt lat="49.81291" lon="0.8024">
        <ele>65.199996948242</ele>
        <time>2023-08-09T18:29:15.000Z</time>
      </trkpt>
      <trkpt lat="49.81292" lon="0.80233">
        <ele>65.400001525879</ele>
        <time>2023-08-09T18:29:17.000Z</time>
      </trkpt>
      <trkpt lat="49.81296" lon="0.80203">
        <ele>65.599998474121</ele>
        <time>2023-08-09T18:29:20.000Z</time>
      </trkpt>
      <trkpt lat="49.81306" lon="0.80134">
        <ele>66</ele>
        <time>2023-08-09T18:29:29.000Z</time>
      </trkpt>
      <trkpt lat="49.8131" lon="0.80103">
        <ele>66.199996948242</ele>
        <time>2023-08-09T18:29:33.000Z</time>
      </trkpt>
      <trkpt lat="49.81311" lon="0.80095">
        <ele>66.199996948242</ele>
        <time>2023-08-09T18:29:34.000Z</time>
      </trkpt>
      <trkpt lat="49.81314" lon="0.80073">
        <ele>66.400001525879</ele>
        <time>2023-08-09T18:29:37.000Z</time>
      </trkpt>
      <trkpt lat="49.81318" lon="0.79994">
        <ele>66.800003051758</ele>
        <time>2023-08-09T18:29:47.000Z</time>
      </trkpt>
      <trkpt lat="49.81316" lon="0.79954">
        <ele>66.800003051758</ele>
        <time>2023-08-09T18:29:52.000Z</time>
      </trkpt>
      <trkpt lat="49.81312" lon="0.79931">
        <ele>66.800003051758</ele>
        <time>2023-08-09T18:29:55.000Z</time>
      </trkpt>
      <trkpt lat="49.81302" lon="0.79886">
        <ele>67</ele>
        <time>2023-08-09T18:30:01.000Z</time>
      </trkpt>
      <trkpt lat="49.81295" lon="0.79865">
        <ele>67.199996948242</ele>
        <time>2023-08-09T18:30:04.000Z</time>
      </trkpt>
      <trkpt lat="49.81273" lon="0.79801">
        <ele>67.599998474121</ele>
        <time>2023-08-09T18:30:13.000Z</time>
      </trkpt>
      <trkpt lat="49.81246" lon="0.79723">
        <ele>67.800003051758</ele>
        <time>2023-08-09T18:30:24.000Z</time>
      </trkpt>
      <trkpt lat="49.81226" lon="0.79669">
        <ele>68</ele>
        <time>2023-08-09T18:30:32.000Z</time>
      </trkpt>
      <trkpt lat="49.81211" lon="0.79626">
        <ele>68.400001525879</ele>
        <time>2023-08-09T18:30:38.000Z</time>
      </trkpt>
      <trkpt lat="49.81185" lon="0.79554">
        <ele>69.199996948242</ele>
        <time>2023-08-09T18:30:48.000Z</time>
      </trkpt>
      <trkpt lat="49.81178" lon="0.79532">
        <ele>69.400001525879</ele>
        <time>2023-08-09T18:30:51.000Z</time>
      </trkpt>
      <trkpt lat="49.81155" lon="0.79469">
        <ele>70</ele>
        <time>2023-08-09T18:31:00.000Z</time>
      </trkpt>
      <trkpt lat="49.81142" lon="0.79434">
        <ele>70.400001525879</ele>
        <time>2023-08-09T18:31:05.000Z</time>
      </trkpt>
      <trkpt lat="49.8113" lon="0.79399">
        <ele>70.800003051758</ele>
        <time>2023-08-09T18:31:10.000Z</time>
      </trkpt>
      <trkpt lat="49.81102" lon="0.79323">
        <ele>71.400001525879</ele>
        <time>2023-08-09T18:31:21.000Z</time>
      </trkpt>
      <trkpt lat="49.81094" lon="0.79301">
        <ele>71.599998474121</ele>
        <time>2023-08-09T18:31:24.000Z</time>
      </trkpt>
      <trkpt lat="49.81076" lon="0.79237">
        <ele>72.199996948242</ele>
        <time>2023-08-09T18:31:33.000Z</time>
      </trkpt>
      <trkpt lat="49.81072" lon="0.79217">
        <ele>72.400001525879</ele>
        <time>2023-08-09T18:31:36.000Z</time>
      </trkpt>
      <trkpt lat="49.81065" lon="0.79157">
        <ele>73</ele>
        <time>2023-08-09T18:31:44.000Z</time>
      </trkpt>
      <trkpt lat="49.81064" lon="0.79127">
        <ele>73.199996948242</ele>
        <time>2023-08-09T18:31:48.000Z</time>
      </trkpt>
      <trkpt lat="49.81063" lon="0.79104">
        <ele>73.599998474121</ele>
        <time>2023-08-09T18:31:51.000Z</time>
      </trkpt>
      <trkpt lat="49.81063" lon="0.7902">
        <ele>74.400001525879</ele>
        <time>2023-08-09T18:32:02.000Z</time>
      </trkpt>
      <trkpt lat="49.81063" lon="0.78998">
        <ele>74.599998474121</ele>
        <time>2023-08-09T18:32:05.000Z</time>
      </trkpt>
      <trkpt lat="49.81063" lon="0.78937">
        <ele>75</ele>
        <time>2023-08-09T18:32:13.000Z</time>
      </trkpt>
      <trkpt lat="49.81064" lon="0.78852">
        <ele>75.400001525879</ele>
        <time>2023-08-09T18:32:24.000Z</time>
      </trkpt>
      <trkpt lat="49.81064" lon="0.78787">
        <ele>75.400001525879</ele>
        <time>2023-08-09T18:32:32.000Z</time>
      </trkpt>
      <trkpt lat="49.81065" lon="0.78696">
        <ele>75.400001525879</ele>
        <time>2023-08-09T18:32:43.000Z</time>
      </trkpt>
      <trkpt lat="49.81065" lon="0.78688">
        <ele>75.599998474121</ele>
        <time>2023-08-09T18:32:44.000Z</time>
      </trkpt>
      <trkpt lat="49.81065" lon="0.7863">
        <ele>75.599998474121</ele>
        <time>2023-08-09T18:32:51.000Z</time>
      </trkpt>
      <trkpt lat="49.81065" lon="0.78587">
        <ele>75.800003051758</ele>
        <time>2023-08-09T18:32:56.000Z</time>
      </trkpt>
      <trkpt lat="49.81065" lon="0.78503">
        <ele>76</ele>
        <time>2023-08-09T18:33:06.000Z</time>
      </trkpt>
      <trkpt lat="49.81065" lon="0.78486">
        <ele>76</ele>
        <time>2023-08-09T18:33:08.000Z</time>
      </trkpt>
      <trkpt lat="49.81066" lon="0.78401">
        <ele>76.400001525879</ele>
        <time>2023-08-09T18:33:18.000Z</time>
      </trkpt>
      <trkpt lat="49.81066" lon="0.78391">
        <ele>76.400001525879</ele>
        <time>2023-08-09T18:33:19.000Z</time>
      </trkpt>
      <trkpt lat="49.81066" lon="0.78314">
        <ele>76.400001525879</ele>
        <time>2023-08-09T18:33:28.000Z</time>
      </trkpt>
      <trkpt lat="49.81067" lon="0.78224">
        <ele>76.400001525879</ele>
        <time>2023-08-09T18:33:38.000Z</time>
      </trkpt>
      <trkpt lat="49.81067" lon="0.78205">
        <ele>76.400001525879</ele>
        <time>2023-08-09T18:33:40.000Z</time>
      </trkpt>
      <trkpt lat="49.81072" lon="0.7812">
        <ele>75.800003051758</ele>
        <time>2023-08-09T18:33:49.000Z</time>
      </trkpt>
      <trkpt lat="49.81072" lon="0.78101">
        <ele>75.599998474121</ele>
        <time>2023-08-09T18:33:51.000Z</time>
      </trkpt>
      <trkpt lat="49.81075" lon="0.78014">
        <ele>74.800003051758</ele>
        <time>2023-08-09T18:34:00.000Z</time>
      </trkpt>
      <trkpt lat="49.81075" lon="0.77971">
        <ele>74.599998474121</ele>
        <time>2023-08-09T18:34:04.000Z</time>
      </trkpt>
      <trkpt lat="49.81075" lon="0.77963">
        <ele>74.599998474121</ele>
        <time>2023-08-09T18:34:05.000Z</time>
      </trkpt>
      <trkpt lat="49.81075" lon="0.7788">
        <ele>73.800003051758</ele>
        <time>2023-08-09T18:34:13.000Z</time>
      </trkpt>
      <trkpt lat="49.81075" lon="0.77869">
        <ele>73.599998474121</ele>
        <time>2023-08-09T18:34:14.000Z</time>
      </trkpt>
      <trkpt lat="49.81075" lon="0.77848">
        <ele>73.400001525879</ele>
        <time>2023-08-09T18:34:16.000Z</time>
      </trkpt>
      <trkpt lat="49.81075" lon="0.77784">
        <ele>72.599998474121</ele>
        <time>2023-08-09T18:34:22.000Z</time>
      </trkpt>
      <trkpt lat="49.81075" lon="0.77774">
        <ele>72.400001525879</ele>
        <time>2023-08-09T18:34:23.000Z</time>
      </trkpt>
      <trkpt lat="49.81075" lon="0.777">
        <ele>71.400001525879</ele>
        <time>2023-08-09T18:34:30.000Z</time>
      </trkpt>
      <trkpt lat="49.81075" lon="0.7769">
        <ele>71.199996948242</ele>
        <time>2023-08-09T18:34:31.000Z</time>
      </trkpt>
      <trkpt lat="49.81075" lon="0.7762">
        <ele>70.199996948242</ele>
        <time>2023-08-09T18:34:37.000Z</time>
      </trkpt>
      <trkpt lat="49.81075" lon="0.7756">
        <ele>69.199996948242</ele>
        <time>2023-08-09T18:34:42.000Z</time>
      </trkpt>
      <trkpt lat="49.81075" lon="0.77549">
        <ele>69</ele>
        <time>2023-08-09T18:34:43.000Z</time>
      </trkpt>
      <trkpt lat="49.81075" lon="0.77489">
        <ele>68</ele>
        <time>2023-08-09T18:34:48.000Z</time>
      </trkpt>
      <trkpt lat="49.81074" lon="0.77427">
        <ele>67</ele>
        <time>2023-08-09T18:34:53.000Z</time>
      </trkpt>
      <trkpt lat="49.81074" lon="0.77417">
        <ele>66.599998474121</ele>
        <time>2023-08-09T18:34:54.000Z</time>
      </trkpt>
      <trkpt lat="49.81074" lon="0.77362">
        <ele>65.800003051758</ele>
        <time>2023-08-09T18:34:58.000Z</time>
      </trkpt>
      <trkpt lat="49.81074" lon="0.77308">
        <ele>65</ele>
        <time>2023-08-09T18:35:02.000Z</time>
      </trkpt>
      <trkpt lat="49.81074" lon="0.77297">
        <ele>64.599998474121</ele>
        <time>2023-08-09T18:35:03.000Z</time>
      </trkpt>
      <trkpt lat="49.81074" lon="0.77235">
        <ele>63.400001525879</ele>
        <time>2023-08-09T18:35:07.000Z</time>
      </trkpt>
      <trkpt lat="49.81074" lon="0.77208">
        <ele>62.799999237061</ele>
        <time>2023-08-09T18:35:09.000Z</time>
      </trkpt>
      <trkpt lat="49.81073" lon="0.7719">
        <ele>62.200000762939</ele>
        <time>2023-08-09T18:35:10.000Z</time>
      </trkpt>
      <trkpt lat="49.81069" lon="0.77149">
        <ele>60.799999237061</ele>
        <time>2023-08-09T18:35:13.000Z</time>
      </trkpt>
      <trkpt lat="49.81065" lon="0.77119">
        <ele>60</ele>
        <time>2023-08-09T18:35:15.000Z</time>
      </trkpt>
      <trkpt lat="49.81063" lon="0.77105">
        <ele>59.799999237061</ele>
        <time>2023-08-09T18:35:16.000Z</time>
      </trkpt>
      <trkpt lat="49.81056" lon="0.77071">
        <ele>58.799999237061</ele>
        <time>2023-08-09T18:35:19.000Z</time>
      </trkpt>
      <trkpt lat="49.81053" lon="0.7706">
        <ele>58.599998474121</ele>
        <time>2023-08-09T18:35:20.000Z</time>
      </trkpt>
      <trkpt lat="49.81034" lon="0.77">
        <ele>58.599998474121</ele>
        <time>2023-08-09T18:35:26.000Z</time>
      </trkpt>
      <trkpt lat="49.81016" lon="0.76951">
        <ele>59.400001525879</ele>
        <time>2023-08-09T18:35:33.000Z</time>
      </trkpt>
      <trkpt lat="49.81013" lon="0.76943">
        <ele>59.799999237061</ele>
        <time>2023-08-09T18:35:34.000Z</time>
      </trkpt>
      <trkpt lat="49.81007" lon="0.76925">
        <ele>60.799999237061</ele>
        <time>2023-08-09T18:35:37.000Z</time>
      </trkpt>
      <trkpt lat="49.81002" lon="0.76905">
        <ele>61.400001525879</ele>
        <time>2023-08-09T18:35:40.000Z</time>
      </trkpt>
      <trkpt lat="49.80997" lon="0.76888">
        <ele>62</ele>
        <time>2023-08-09T18:35:43.000Z</time>
      </trkpt>
      <trkpt lat="49.8099" lon="0.7685">
        <ele>62.799999237061</ele>
        <time>2023-08-09T18:35:49.000Z</time>
      </trkpt>
      <trkpt lat="49.80989" lon="0.76839">
        <ele>63</ele>
        <time>2023-08-09T18:35:51.000Z</time>
      </trkpt>
      <trkpt lat="49.80985" lon="0.76788">
        <ele>63.799999237061</ele>
        <time>2023-08-09T18:35:59.000Z</time>
      </trkpt>
      <trkpt lat="49.80985" lon="0.76782">
        <ele>64</ele>
        <time>2023-08-09T18:36:00.000Z</time>
      </trkpt>
      <trkpt lat="49.80986" lon="0.76733">
        <ele>64.599998474121</ele>
        <time>2023-08-09T18:36:07.000Z</time>
      </trkpt>
      <trkpt lat="49.80988" lon="0.76703">
        <ele>64.800003051758</ele>
        <time>2023-08-09T18:36:11.000Z</time>
      </trkpt>
      <trkpt lat="49.80991" lon="0.7667">
        <ele>64.800003051758</ele>
        <time>2023-08-09T18:36:15.000Z</time>
      </trkpt>
      <trkpt lat="49.80999" lon="0.76593">
        <ele>64.400001525879</ele>
        <time>2023-08-09T18:36:24.000Z</time>
      </trkpt>
      <trkpt lat="49.81007" lon="0.76503">
        <ele>63.799999237061</ele>
        <time>2023-08-09T18:36:34.000Z</time>
      </trkpt>
      <trkpt lat="49.81008" lon="0.76495">
        <ele>63.799999237061</ele>
        <time>2023-08-09T18:36:35.000Z</time>
      </trkpt>
      <trkpt lat="49.81015" lon="0.76406">
        <ele>63.799999237061</ele>
        <time>2023-08-09T18:36:45.000Z</time>
      </trkpt>
      <trkpt lat="49.81015" lon="0.76398">
        <ele>63.799999237061</ele>
        <time>2023-08-09T18:36:46.000Z</time>
      </trkpt>
      <trkpt lat="49.81015" lon="0.76338">
        <ele>64.199996948242</ele>
        <time>2023-08-09T18:36:54.000Z</time>
      </trkpt>
      <trkpt lat="49.81015" lon="0.76294">
        <ele>65.199996948242</ele>
        <time>2023-08-09T18:37:01.000Z</time>
      </trkpt>
      <trkpt lat="49.81015" lon="0.76282">
        <ele>65.400001525879</ele>
        <time>2023-08-09T18:37:03.000Z</time>
      </trkpt>
      <trkpt lat="49.81012" lon="0.76254">
        <ele>66.199996948242</ele>
        <time>2023-08-09T18:37:08.000Z</time>
      </trkpt>
      <trkpt lat="49.81011" lon="0.76234">
        <ele>66.599998474121</ele>
        <time>2023-08-09T18:37:12.000Z</time>
      </trkpt>
      <trkpt lat="49.81007" lon="0.76201">
        <ele>67.800003051758</ele>
        <time>2023-08-09T18:37:18.000Z</time>
      </trkpt>
      <trkpt lat="49.81006" lon="0.7619">
        <ele>67.800003051758</ele>
        <time>2023-08-09T18:37:20.000Z</time>
      </trkpt>
      <trkpt lat="49.81002" lon="0.76152">
        <ele>68.800003051758</ele>
        <time>2023-08-09T18:37:27.000Z</time>
      </trkpt>
      <trkpt lat="49.81" lon="0.76136">
        <ele>69.199996948242</ele>
        <time>2023-08-09T18:37:30.000Z</time>
      </trkpt>
      <trkpt lat="49.80997" lon="0.7611">
        <ele>69.800003051758</ele>
        <time>2023-08-09T18:37:35.000Z</time>
      </trkpt>
      <trkpt lat="49.80994" lon="0.76084">
        <ele>70.800003051758</ele>
        <time>2023-08-09T18:37:40.000Z</time>
      </trkpt>
      <trkpt lat="49.80993" lon="0.76077">
        <ele>71</ele>
        <time>2023-08-09T18:37:41.000Z</time>
      </trkpt>
      <trkpt lat="49.80987" lon="0.76036">
        <ele>72</ele>
        <time>2023-08-09T18:37:49.000Z</time>
      </trkpt>
      <trkpt lat="49.80981" lon="0.75986">
        <ele>73.199996948242</ele>
        <time>2023-08-09T18:37:58.000Z</time>
      </trkpt>
      <trkpt lat="49.80977" lon="0.75951">
        <ele>73.800003051758</ele>
        <time>2023-08-09T18:38:04.000Z</time>
      </trkpt>
      <trkpt lat="49.80974" lon="0.7593">
        <ele>74.400001525879</ele>
        <time>2023-08-09T18:38:08.000Z</time>
      </trkpt>
      <trkpt lat="49.80971" lon="0.75904">
        <ele>75.199996948242</ele>
        <time>2023-08-09T18:38:13.000Z</time>
      </trkpt>
      <trkpt lat="49.80969" lon="0.75894">
        <ele>75.599998474121</ele>
        <time>2023-08-09T18:38:15.000Z</time>
      </trkpt>
      <trkpt lat="49.80963" lon="0.75854">
        <ele>76.599998474121</ele>
        <time>2023-08-09T18:38:23.000Z</time>
      </trkpt>
      <trkpt lat="49.80956" lon="0.75819">
        <ele>77.800003051758</ele>
        <time>2023-08-09T18:38:30.000Z</time>
      </trkpt>
      <trkpt lat="49.80952" lon="0.75803">
        <ele>78.199996948242</ele>
        <time>2023-08-09T18:38:33.000Z</time>
      </trkpt>
      <trkpt lat="49.80944" lon="0.75774">
        <ele>78.800003051758</ele>
        <time>2023-08-09T18:38:39.000Z</time>
      </trkpt>
      <trkpt lat="49.80936" lon="0.75748">
        <ele>79.199996948242</ele>
        <time>2023-08-09T18:38:44.000Z</time>
      </trkpt>
      <trkpt lat="49.80925" lon="0.75718">
        <ele>80</ele>
        <time>2023-08-09T18:38:50.000Z</time>
      </trkpt>
      <trkpt lat="49.80921" lon="0.75705">
        <ele>80</ele>
        <time>2023-08-09T18:38:52.000Z</time>
      </trkpt>
      <trkpt lat="49.80913" lon="0.75682">
        <ele>80.599998474121</ele>
        <time>2023-08-09T18:38:56.000Z</time>
      </trkpt>
      <trkpt lat="49.80904" lon="0.75657">
        <ele>80.800003051758</ele>
        <time>2023-08-09T18:39:00.000Z</time>
      </trkpt>
      <trkpt lat="49.80897" lon="0.75635">
        <ele>81</ele>
        <time>2023-08-09T18:39:03.000Z</time>
      </trkpt>
      <trkpt lat="49.80888" lon="0.75604">
        <ele>81.199996948242</ele>
        <time>2023-08-09T18:39:07.000Z</time>
      </trkpt>
      <trkpt lat="49.80867" lon="0.7553">
        <ele>81</ele>
        <time>2023-08-09T18:39:16.000Z</time>
      </trkpt>
      <trkpt lat="49.80845" lon="0.75456">
        <ele>80.400001525879</ele>
        <time>2023-08-09T18:39:24.000Z</time>
      </trkpt>
      <trkpt lat="49.80834" lon="0.75418">
        <ele>79.800003051758</ele>
        <time>2023-08-09T18:39:28.000Z</time>
      </trkpt>
      <trkpt lat="49.80825" lon="0.75382">
        <ele>79</ele>
        <time>2023-08-09T18:39:32.000Z</time>
      </trkpt>
      <trkpt lat="49.80819" lon="0.75351">
        <ele>78.800003051758</ele>
        <time>2023-08-09T18:39:35.000Z</time>
      </trkpt>
      <trkpt lat="49.80817" lon="0.75343">
        <ele>78.599998474121</ele>
        <time>2023-08-09T18:39:36.000Z</time>
      </trkpt>
      <trkpt lat="49.80813" lon="0.7533">
        <ele>78.400001525879</ele>
        <time>2023-08-09T18:39:38.000Z</time>
      </trkpt>
      <trkpt lat="49.80809" lon="0.75312">
        <ele>77.599998474121</ele>
        <time>2023-08-09T18:39:41.000Z</time>
      </trkpt>
      <trkpt lat="49.80804" lon="0.75297">
        <ele>77.400001525879</ele>
        <time>2023-08-09T18:39:43.000Z</time>
      </trkpt>
      <trkpt lat="49.80798" lon="0.75282">
        <ele>77.199996948242</ele>
        <time>2023-08-09T18:39:45.000Z</time>
      </trkpt>
      <trkpt lat="49.80784" lon="0.75257">
        <ele>77</ele>
        <time>2023-08-09T18:39:49.000Z</time>
      </trkpt>
      <trkpt lat="49.80763" lon="0.75204">
        <ele>76.800003051758</ele>
        <time>2023-08-09T18:39:56.000Z</time>
      </trkpt>
      <trkpt lat="49.80734" lon="0.75128">
        <ele>76.800003051758</ele>
        <time>2023-08-09T18:40:06.000Z</time>
      </trkpt>
      <trkpt lat="49.80731" lon="0.7512">
        <ele>76.800003051758</ele>
        <time>2023-08-09T18:40:07.000Z</time>
      </trkpt>
      <trkpt lat="49.80705" lon="0.7505">
        <ele>76.599998474121</ele>
        <time>2023-08-09T18:40:16.000Z</time>
      </trkpt>
      <trkpt lat="49.80691" lon="0.75011">
        <ele>76.400001525879</ele>
        <time>2023-08-09T18:40:21.000Z</time>
      </trkpt>
      <trkpt lat="49.80671" lon="0.74955">
        <ele>75.800003051758</ele>
        <time>2023-08-09T18:40:28.000Z</time>
      </trkpt>
      <trkpt lat="49.80664" lon="0.74935">
        <ele>75.400001525879</ele>
        <time>2023-08-09T18:40:30.000Z</time>
      </trkpt>
      <trkpt lat="49.80646" lon="0.74886">
        <ele>74.400001525879</ele>
        <time>2023-08-09T18:40:35.000Z</time>
      </trkpt>
      <trkpt lat="49.80643" lon="0.74875">
        <ele>74</ele>
        <time>2023-08-09T18:40:36.000Z</time>
      </trkpt>
      <trkpt lat="49.80632" lon="0.74843">
        <ele>73</ele>
        <time>2023-08-09T18:40:39.000Z</time>
      </trkpt>
      <trkpt lat="49.80617" lon="0.74797">
        <ele>72</ele>
        <time>2023-08-09T18:40:43.000Z</time>
      </trkpt>
      <trkpt lat="49.80613" lon="0.74785">
        <ele>71.599998474121</ele>
        <time>2023-08-09T18:40:44.000Z</time>
      </trkpt>
      <trkpt lat="49.80597" lon="0.74737">
        <ele>70.199996948242</ele>
        <time>2023-08-09T18:40:48.000Z</time>
      </trkpt>
      <trkpt lat="49.80594" lon="0.74724">
        <ele>69.800003051758</ele>
        <time>2023-08-09T18:40:49.000Z</time>
      </trkpt>
      <trkpt lat="49.80591" lon="0.74712">
        <ele>69.599998474121</ele>
        <time>2023-08-09T18:40:50.000Z</time>
      </trkpt>
      <trkpt lat="49.8059" lon="0.74699">
        <ele>69.199996948242</ele>
        <time>2023-08-09T18:40:51.000Z</time>
      </trkpt>
      <trkpt lat="49.80588" lon="0.74685">
        <ele>69</ele>
        <time>2023-08-09T18:40:52.000Z</time>
      </trkpt>
      <trkpt lat="49.80589" lon="0.74657">
        <ele>68</ele>
        <time>2023-08-09T18:40:54.000Z</time>
      </trkpt>
      <trkpt lat="49.80593" lon="0.74616">
        <ele>67</ele>
        <time>2023-08-09T18:40:57.000Z</time>
      </trkpt>
      <trkpt lat="49.80597" lon="0.74583">
        <ele>66.199996948242</ele>
        <time>2023-08-09T18:40:59.000Z</time>
      </trkpt>
      <trkpt lat="49.80599" lon="0.74568">
        <ele>65.599998474121</ele>
        <time>2023-08-09T18:41:00.000Z</time>
      </trkpt>
      <trkpt lat="49.80601" lon="0.74538">
        <ele>64.800003051758</ele>
        <time>2023-08-09T18:41:02.000Z</time>
      </trkpt>
      <trkpt lat="49.80601" lon="0.74524">
        <ele>64.400001525879</ele>
        <time>2023-08-09T18:41:03.000Z</time>
      </trkpt>
      <trkpt lat="49.80599" lon="0.74509">
        <ele>64.199996948242</ele>
        <time>2023-08-09T18:41:04.000Z</time>
      </trkpt>
      <trkpt lat="49.80595" lon="0.74481">
        <ele>62.799999237061</ele>
        <time>2023-08-09T18:41:06.000Z</time>
      </trkpt>
      <trkpt lat="49.80591" lon="0.74467">
        <ele>62.400001525879</ele>
        <time>2023-08-09T18:41:07.000Z</time>
      </trkpt>
      <trkpt lat="49.80587" lon="0.74455">
        <ele>62</ele>
        <time>2023-08-09T18:41:08.000Z</time>
      </trkpt>
      <trkpt lat="49.80582" lon="0.74444">
        <ele>61.799999237061</ele>
        <time>2023-08-09T18:41:09.000Z</time>
      </trkpt>
      <trkpt lat="49.80567" lon="0.74413">
        <ele>61</ele>
        <time>2023-08-09T18:41:12.000Z</time>
      </trkpt>
      <trkpt lat="49.80562" lon="0.74404">
        <ele>60.599998474121</ele>
        <time>2023-08-09T18:41:13.000Z</time>
      </trkpt>
      <trkpt lat="49.8054" lon="0.74363">
        <ele>60.400001525879</ele>
        <time>2023-08-09T18:41:18.000Z</time>
      </trkpt>
      <trkpt lat="49.80519" lon="0.74325">
        <ele>60.799999237061</ele>
        <time>2023-08-09T18:41:24.000Z</time>
      </trkpt>
      <trkpt lat="49.80507" lon="0.74299">
        <ele>62</ele>
        <time>2023-08-09T18:41:29.000Z</time>
      </trkpt>
      <trkpt lat="49.80502" lon="0.74288">
        <ele>62.599998474121</ele>
        <time>2023-08-09T18:41:31.000Z</time>
      </trkpt>
      <trkpt lat="49.80498" lon="0.7428">
        <ele>63</ele>
        <time>2023-08-09T18:41:33.000Z</time>
      </trkpt>
      <trkpt lat="49.80497" lon="0.74274">
        <ele>63.200000762939</ele>
        <time>2023-08-09T18:41:34.000Z</time>
      </trkpt>
      <trkpt lat="49.80492" lon="0.74263">
        <ele>63.400001525879</ele>
        <time>2023-08-09T18:41:36.000Z</time>
      </trkpt>
      <trkpt lat="49.80482" lon="0.74236">
        <ele>64.400001525879</ele>
        <time>2023-08-09T18:41:41.000Z</time>
      </trkpt>
      <trkpt lat="49.80476" lon="0.74219">
        <ele>64.800003051758</ele>
        <time>2023-08-09T18:41:44.000Z</time>
      </trkpt>
      <trkpt lat="49.80472" lon="0.74203">
        <ele>65.400001525879</ele>
        <time>2023-08-09T18:41:47.000Z</time>
      </trkpt>
      <trkpt lat="49.80464" lon="0.74178">
        <ele>66.199996948242</ele>
        <time>2023-08-09T18:41:52.000Z</time>
      </trkpt>
      <trkpt lat="49.80461" lon="0.74167">
        <ele>66.599998474121</ele>
        <time>2023-08-09T18:41:54.000Z</time>
      </trkpt>
      <trkpt lat="49.80453" lon="0.74136">
        <ele>67.599998474121</ele>
        <time>2023-08-09T18:42:00.000Z</time>
      </trkpt>
      <trkpt lat="49.80444" lon="0.741">
        <ele>68.800003051758</ele>
        <time>2023-08-09T18:42:07.000Z</time>
      </trkpt>
      <trkpt lat="49.80442" lon="0.74095">
        <ele>69</ele>
        <time>2023-08-09T18:42:08.000Z</time>
      </trkpt>
      <trkpt lat="49.80435" lon="0.74068">
        <ele>69.800003051758</ele>
        <time>2023-08-09T18:42:13.000Z</time>
      </trkpt>
      <trkpt lat="49.80427" lon="0.74037">
        <ele>70.599998474121</ele>
        <time>2023-08-09T18:42:19.000Z</time>
      </trkpt>
      <trkpt lat="49.80426" lon="0.74031">
        <ele>71</ele>
        <time>2023-08-09T18:42:20.000Z</time>
      </trkpt>
      <trkpt lat="49.80416" lon="0.73999">
        <ele>71.800003051758</ele>
        <time>2023-08-09T18:42:26.000Z</time>
      </trkpt>
      <trkpt lat="49.80415" lon="0.73994">
        <ele>72</ele>
        <time>2023-08-09T18:42:27.000Z</time>
      </trkpt>
      <trkpt lat="49.80408" lon="0.73965">
        <ele>73</ele>
        <time>2023-08-09T18:42:32.000Z</time>
      </trkpt>
      <trkpt lat="49.80405" lon="0.73956">
        <ele>73.199996948242</ele>
        <time>2023-08-09T18:42:34.000Z</time>
      </trkpt>
      <trkpt lat="49.80395" lon="0.73919">
        <ele>74</ele>
        <time>2023-08-09T18:42:41.000Z</time>
      </trkpt>
      <trkpt lat="49.80391" lon="0.73902">
        <ele>74.400001525879</ele>
        <time>2023-08-09T18:42:44.000Z</time>
      </trkpt>
      <trkpt lat="49.80379" lon="0.73859">
        <ele>75.199996948242</ele>
        <time>2023-08-09T18:42:52.000Z</time>
      </trkpt>
      <trkpt lat="49.80376" lon="0.7385">
        <ele>75.400001525879</ele>
        <time>2023-08-09T18:42:54.000Z</time>
      </trkpt>
      <trkpt lat="49.80369" lon="0.73821">
        <ele>76</ele>
        <time>2023-08-09T18:42:59.000Z</time>
      </trkpt>
      <trkpt lat="49.8036" lon="0.73786">
        <ele>76.400001525879</ele>
        <time>2023-08-09T18:43:05.000Z</time>
      </trkpt>
      <trkpt lat="49.80353" lon="0.73764">
        <ele>76.599998474121</ele>
        <time>2023-08-09T18:43:09.000Z</time>
      </trkpt>
      <trkpt lat="49.80337" lon="0.73704">
        <ele>77.199996948242</ele>
        <time>2023-08-09T18:43:19.000Z</time>
      </trkpt>
      <trkpt lat="49.80327" lon="0.73654">
        <ele>77.400001525879</ele>
        <time>2023-08-09T18:43:26.000Z</time>
      </trkpt>
      <trkpt lat="49.80324" lon="0.73638">
        <ele>77.400001525879</ele>
        <time>2023-08-09T18:43:28.000Z</time>
      </trkpt>
      <trkpt lat="49.80319" lon="0.73603">
        <ele>77.599998474121</ele>
        <time>2023-08-09T18:43:32.000Z</time>
      </trkpt>
      <trkpt lat="49.80313" lon="0.73522">
        <ele>77.800003051758</ele>
        <time>2023-08-09T18:43:41.000Z</time>
      </trkpt>
      <trkpt lat="49.80308" lon="0.73439">
        <ele>77.599998474121</ele>
        <time>2023-08-09T18:43:50.000Z</time>
      </trkpt>
      <trkpt lat="49.80306" lon="0.73419">
        <ele>77.400001525879</ele>
        <time>2023-08-09T18:43:52.000Z</time>
      </trkpt>
      <trkpt lat="49.80301" lon="0.73334">
        <ele>77</ele>
        <time>2023-08-09T18:44:01.000Z</time>
      </trkpt>
      <trkpt lat="49.80298" lon="0.73287">
        <ele>76.599998474121</ele>
        <time>2023-08-09T18:44:06.000Z</time>
      </trkpt>
      <trkpt lat="49.80295" lon="0.73238">
        <ele>76.400001525879</ele>
        <time>2023-08-09T18:44:11.000Z</time>
      </trkpt>
      <trkpt lat="49.80292" lon="0.73186">
        <ele>76.199996948242</ele>
        <time>2023-08-09T18:44:16.000Z</time>
      </trkpt>
      <trkpt lat="49.80289" lon="0.73121">
        <ele>75.400001525879</ele>
        <time>2023-08-09T18:44:22.000Z</time>
      </trkpt>
      <trkpt lat="49.80287" lon="0.73088">
        <ele>74.800003051758</ele>
        <time>2023-08-09T18:44:25.000Z</time>
      </trkpt>
      <trkpt lat="49.80284" lon="0.73044">
        <ele>74.400001525879</ele>
        <time>2023-08-09T18:44:29.000Z</time>
      </trkpt>
      <trkpt lat="49.80279" lon="0.72975">
        <ele>73.199996948242</ele>
        <time>2023-08-09T18:44:35.000Z</time>
      </trkpt>
      <trkpt lat="49.80278" lon="0.72963">
        <ele>73</ele>
        <time>2023-08-09T18:44:36.000Z</time>
      </trkpt>
      <trkpt lat="49.80274" lon="0.72899">
        <ele>71.800003051758</ele>
        <time>2023-08-09T18:44:41.000Z</time>
      </trkpt>
      <trkpt lat="49.80272" lon="0.72868">
        <ele>71.400001525879</ele>
        <time>2023-08-09T18:44:43.000Z</time>
      </trkpt>
      <trkpt lat="49.80271" lon="0.72853">
        <ele>70.800003051758</ele>
        <time>2023-08-09T18:44:44.000Z</time>
      </trkpt>
      <trkpt lat="49.80268" lon="0.72807">
        <ele>69.599998474121</ele>
        <time>2023-08-09T18:44:47.000Z</time>
      </trkpt>
      <trkpt lat="49.80265" lon="0.7276">
        <ele>68.800003051758</ele>
        <time>2023-08-09T18:44:50.000Z</time>
      </trkpt>
      <trkpt lat="49.80264" lon="0.72744">
        <ele>68.199996948242</ele>
        <time>2023-08-09T18:44:51.000Z</time>
      </trkpt>
      <trkpt lat="49.80261" lon="0.72695">
        <ele>67</ele>
        <time>2023-08-09T18:44:54.000Z</time>
      </trkpt>
      <trkpt lat="49.8026" lon="0.72666">
        <ele>65.400001525879</ele>
        <time>2023-08-09T18:44:56.000Z</time>
      </trkpt>
      <trkpt lat="49.80257" lon="0.72614">
        <ele>63.799999237061</ele>
        <time>2023-08-09T18:44:59.000Z</time>
      </trkpt>
      <trkpt lat="49.80255" lon="0.72568">
        <ele>62.400001525879</ele>
        <time>2023-08-09T18:45:02.000Z</time>
      </trkpt>
      <trkpt lat="49.80252" lon="0.72526">
        <ele>61.200000762939</ele>
        <time>2023-08-09T18:45:05.000Z</time>
      </trkpt>
      <trkpt lat="49.80243" lon="0.72439">
        <ele>60.400001525879</ele>
        <time>2023-08-09T18:45:12.000Z</time>
      </trkpt>
      <trkpt lat="49.80236" lon="0.72379">
        <ele>60.400001525879</ele>
        <time>2023-08-09T18:45:18.000Z</time>
      </trkpt>
      <trkpt lat="49.80229" lon="0.72322">
        <ele>62</ele>
        <time>2023-08-09T18:45:25.000Z</time>
      </trkpt>
      <trkpt lat="49.80227" lon="0.72313">
        <ele>62.200000762939</ele>
        <time>2023-08-09T18:45:26.000Z</time>
      </trkpt>
      <trkpt lat="49.80221" lon="0.72275">
        <ele>63.200000762939</ele>
        <time>2023-08-09T18:45:31.000Z</time>
      </trkpt>
      <trkpt lat="49.80219" lon="0.72267">
        <ele>63.400001525879</ele>
        <time>2023-08-09T18:45:32.000Z</time>
      </trkpt>
      <trkpt lat="49.8021" lon="0.72228">
        <ele>64.400001525879</ele>
        <time>2023-08-09T18:45:38.000Z</time>
      </trkpt>
      <trkpt lat="49.80207" lon="0.72217">
        <ele>64.800003051758</ele>
        <time>2023-08-09T18:45:40.000Z</time>
      </trkpt>
      <trkpt lat="49.80199" lon="0.72191">
        <ele>65.599998474121</ele>
        <time>2023-08-09T18:45:44.000Z</time>
      </trkpt>
      <trkpt lat="49.8019" lon="0.72163">
        <ele>66.400001525879</ele>
        <time>2023-08-09T18:45:48.000Z</time>
      </trkpt>
      <trkpt lat="49.80183" lon="0.72144">
        <ele>67</ele>
        <time>2023-08-09T18:45:51.000Z</time>
      </trkpt>
      <trkpt lat="49.80168" lon="0.72096">
        <ele>67.400001525879</ele>
        <time>2023-08-09T18:45:58.000Z</time>
      </trkpt>
      <trkpt lat="49.80151" lon="0.72048">
        <ele>67</ele>
        <time>2023-08-09T18:46:04.000Z</time>
      </trkpt>
      <trkpt lat="49.80129" lon="0.71983">
        <ele>66</ele>
        <time>2023-08-09T18:46:11.000Z</time>
      </trkpt>
      <trkpt lat="49.80124" lon="0.71967">
        <ele>65.599998474121</ele>
        <time>2023-08-09T18:46:13.000Z</time>
      </trkpt>
      <trkpt lat="49.80103" lon="0.71907">
        <ele>64.800003051758</ele>
        <time>2023-08-09T18:46:20.000Z</time>
      </trkpt>
      <trkpt lat="49.80093" lon="0.71865">
        <ele>65.199996948242</ele>
        <time>2023-08-09T18:46:26.000Z</time>
      </trkpt>
      <trkpt lat="49.80089" lon="0.71817">
        <ele>67</ele>
        <time>2023-08-09T18:46:33.000Z</time>
      </trkpt>
      <trkpt lat="49.80089" lon="0.71808">
        <ele>67.199996948242</ele>
        <time>2023-08-09T18:46:34.000Z</time>
      </trkpt>
      <trkpt lat="49.80089" lon="0.71794">
        <ele>67.800003051758</ele>
        <time>2023-08-09T18:46:36.000Z</time>
      </trkpt>
      <trkpt lat="49.8009" lon="0.71774">
        <ele>68.599998474121</ele>
        <time>2023-08-09T18:46:39.000Z</time>
      </trkpt>
      <trkpt lat="49.8009" lon="0.71761">
        <ele>69</ele>
        <time>2023-08-09T18:46:41.000Z</time>
      </trkpt>
      <trkpt lat="49.80089" lon="0.71726">
        <ele>70</ele>
        <time>2023-08-09T18:46:46.000Z</time>
      </trkpt>
      <trkpt lat="49.80088" lon="0.71718">
        <ele>70.400001525879</ele>
        <time>2023-08-09T18:46:47.000Z</time>
      </trkpt>
      <trkpt lat="49.80088" lon="0.71689">
        <ele>71.199996948242</ele>
        <time>2023-08-09T18:46:51.000Z</time>
      </trkpt>
      <trkpt lat="49.80087" lon="0.71653">
        <ele>72.400001525879</ele>
        <time>2023-08-09T18:46:57.000Z</time>
      </trkpt>
      <trkpt lat="49.80086" lon="0.71612">
        <ele>73.199996948242</ele>
        <time>2023-08-09T18:47:03.000Z</time>
      </trkpt>
      <trkpt lat="49.80086" lon="0.71607">
        <ele>73.400001525879</ele>
        <time>2023-08-09T18:47:04.000Z</time>
      </trkpt>
      <trkpt lat="49.80085" lon="0.71588">
        <ele>73.599998474121</ele>
        <time>2023-08-09T18:47:07.000Z</time>
      </trkpt>
      <trkpt lat="49.80083" lon="0.71568">
        <ele>73.800003051758</ele>
        <time>2023-08-09T18:47:10.000Z</time>
      </trkpt>
      <trkpt lat="49.80083" lon="0.71506">
        <ele>74.199996948242</ele>
        <time>2023-08-09T18:47:19.000Z</time>
      </trkpt>
      <trkpt lat="49.80083" lon="0.71501">
        <ele>74.400001525879</ele>
        <time>2023-08-09T18:47:20.000Z</time>
      </trkpt>
      <trkpt lat="49.80081" lon="0.71435">
        <ele>75.599998474121</ele>
        <time>2023-08-09T18:47:30.000Z</time>
      </trkpt>
      <trkpt lat="49.80081" lon="0.71428">
        <ele>75.599998474121</ele>
        <time>2023-08-09T18:47:31.000Z</time>
      </trkpt>
      <trkpt lat="49.8008" lon="0.71413">
        <ele>75.599998474121</ele>
        <time>2023-08-09T18:47:33.000Z</time>
      </trkpt>
      <trkpt lat="49.8008" lon="0.71351">
        <ele>76.400001525879</ele>
        <time>2023-08-09T18:47:42.000Z</time>
      </trkpt>
      <trkpt lat="49.80084" lon="0.71315">
        <ele>76.599998474121</ele>
        <time>2023-08-09T18:47:47.000Z</time>
      </trkpt>
      <trkpt lat="49.80088" lon="0.71294">
        <ele>76.599998474121</ele>
        <time>2023-08-09T18:47:50.000Z</time>
      </trkpt>
      <trkpt lat="49.801" lon="0.71215">
        <ele>76.800003051758</ele>
        <time>2023-08-09T18:48:00.000Z</time>
      </trkpt>
      <trkpt lat="49.80109" lon="0.71158">
        <ele>76.400001525879</ele>
        <time>2023-08-09T18:48:07.000Z</time>
      </trkpt>
      <trkpt lat="49.80121" lon="0.71082">
        <ele>76.199996948242</ele>
        <time>2023-08-09T18:48:16.000Z</time>
      </trkpt>
      <trkpt lat="49.80124" lon="0.71067">
        <ele>76</ele>
        <time>2023-08-09T18:48:18.000Z</time>
      </trkpt>
      <trkpt lat="49.80128" lon="0.7104">
        <ele>76</ele>
        <time>2023-08-09T18:48:21.000Z</time>
      </trkpt>
      <trkpt lat="49.80129" lon="0.71032">
        <ele>76</ele>
        <time>2023-08-09T18:48:22.000Z</time>
      </trkpt>
      <trkpt lat="49.80144" lon="0.70948">
        <ele>75.800003051758</ele>
        <time>2023-08-09T18:48:33.000Z</time>
      </trkpt>
      <trkpt lat="49.80149" lon="0.70918">
        <ele>76</ele>
        <time>2023-08-09T18:48:38.000Z</time>
      </trkpt>
      <trkpt lat="49.80153" lon="0.70898">
        <ele>76.199996948242</ele>
        <time>2023-08-09T18:48:42.000Z</time>
      </trkpt>
      <trkpt lat="49.80156" lon="0.70872">
        <ele>76.599998474121</ele>
        <time>2023-08-09T18:48:48.000Z</time>
      </trkpt>
      <trkpt lat="49.8016" lon="0.70846">
        <ele>76.800003051758</ele>
        <time>2023-08-09T18:48:55.000Z</time>
      </trkpt>
      <trkpt lat="49.80161" lon="0.70845">
        <ele>77</ele>
        <time>2023-08-09T18:48:58.000Z</time>
      </trkpt>
      <trkpt lat="49.80161" lon="0.70842">
        <ele>76.800003051758</ele>
        <time>2023-08-09T18:49:35.000Z</time>
      </trkpt>
      <trkpt lat="49.80161" lon="0.7084">
        <ele>76.800003051758</ele>
        <time>2023-08-09T18:49:36.000Z</time>
      </trkpt>
      <trkpt lat="49.80165" lon="0.70816">
        <ele>77</ele>
        <time>2023-08-09T18:49:42.000Z</time>
      </trkpt>
      <trkpt lat="49.80168" lon="0.7079">
        <ele>77</ele>
        <time>2023-08-09T18:49:46.000Z</time>
      </trkpt>
      <trkpt lat="49.8017" lon="0.70783">
        <ele>77</ele>
        <time>2023-08-09T18:49:47.000Z</time>
      </trkpt>
      <trkpt lat="49.80172" lon="0.70774">
        <ele>77</ele>
        <time>2023-08-09T18:49:48.000Z</time>
      </trkpt>
      <trkpt lat="49.80176" lon="0.70745">
        <ele>77.199996948242</ele>
        <time>2023-08-09T18:49:52.000Z</time>
      </trkpt>
      <trkpt lat="49.80183" lon="0.70704">
        <ele>77.599998474121</ele>
        <time>2023-08-09T18:49:57.000Z</time>
      </trkpt>
      <trkpt lat="49.80187" lon="0.70681">
        <ele>77.800003051758</ele>
        <time>2023-08-09T18:50:00.000Z</time>
      </trkpt>
      <trkpt lat="49.80195" lon="0.70617">
        <ele>78</ele>
        <time>2023-08-09T18:50:08.000Z</time>
      </trkpt>
      <trkpt lat="49.80196" lon="0.70584">
        <ele>78.199996948242</ele>
        <time>2023-08-09T18:50:12.000Z</time>
      </trkpt>
      <trkpt lat="49.80195" lon="0.7056">
        <ele>78.199996948242</ele>
        <time>2023-08-09T18:50:15.000Z</time>
      </trkpt>
      <trkpt lat="49.80194" lon="0.70472">
        <ele>78.199996948242</ele>
        <time>2023-08-09T18:50:25.000Z</time>
      </trkpt>
      <trkpt lat="49.80193" lon="0.70382">
        <ele>78</ele>
        <time>2023-08-09T18:50:35.000Z</time>
      </trkpt>
      <trkpt lat="49.80192" lon="0.70298">
        <ele>77.599998474121</ele>
        <time>2023-08-09T18:50:44.000Z</time>
      </trkpt>
      <trkpt lat="49.80191" lon="0.70289">
        <ele>77.599998474121</ele>
        <time>2023-08-09T18:50:45.000Z</time>
      </trkpt>
      <trkpt lat="49.80187" lon="0.70201">
        <ele>77.199996948242</ele>
        <time>2023-08-09T18:50:54.000Z</time>
      </trkpt>
      <trkpt lat="49.80186" lon="0.70182">
        <ele>77</ele>
        <time>2023-08-09T18:50:56.000Z</time>
      </trkpt>
      <trkpt lat="49.80181" lon="0.70093">
        <ele>76.599998474121</ele>
        <time>2023-08-09T18:51:05.000Z</time>
      </trkpt>
      <trkpt lat="49.80181" lon="0.70081">
        <ele>76.599998474121</ele>
        <time>2023-08-09T18:51:06.000Z</time>
      </trkpt>
      <trkpt lat="49.8018" lon="0.70064">
        <ele>76.599998474121</ele>
        <time>2023-08-09T18:51:08.000Z</time>
      </trkpt>
      <trkpt lat="49.80174" lon="0.69978">
        <ele>76.599998474121</ele>
        <time>2023-08-09T18:51:17.000Z</time>
      </trkpt>
      <trkpt lat="49.80169" lon="0.69889">
        <ele>76.800003051758</ele>
        <time>2023-08-09T18:51:27.000Z</time>
      </trkpt>
      <trkpt lat="49.80167" lon="0.69863">
        <ele>77</ele>
        <time>2023-08-09T18:51:30.000Z</time>
      </trkpt>
      <trkpt lat="49.80156" lon="0.69787">
        <ele>77.599998474121</ele>
        <time>2023-08-09T18:51:39.000Z</time>
      </trkpt>
      <trkpt lat="49.80148" lon="0.69743">
        <ele>78.400001525879</ele>
        <time>2023-08-09T18:51:45.000Z</time>
      </trkpt>
      <trkpt lat="49.80143" lon="0.69715">
        <ele>78.599998474121</ele>
        <time>2023-08-09T18:51:49.000Z</time>
      </trkpt>
      <trkpt lat="49.80139" lon="0.69687">
        <ele>79.400001525879</ele>
        <time>2023-08-09T18:51:53.000Z</time>
      </trkpt>
      <trkpt lat="49.80136" lon="0.69671">
        <ele>79.800003051758</ele>
        <time>2023-08-09T18:51:55.000Z</time>
      </trkpt>
      <trkpt lat="49.80129" lon="0.69627">
        <ele>80.199996948242</ele>
        <time>2023-08-09T18:52:01.000Z</time>
      </trkpt>
      <trkpt lat="49.80118" lon="0.69565">
        <ele>80.800003051758</ele>
        <time>2023-08-09T18:52:09.000Z</time>
      </trkpt>
      <trkpt lat="49.80117" lon="0.69557">
        <ele>81</ele>
        <time>2023-08-09T18:52:10.000Z</time>
      </trkpt>
      <trkpt lat="49.80103" lon="0.69499">
        <ele>81.199996948242</ele>
        <time>2023-08-09T18:52:18.000Z</time>
      </trkpt>
      <trkpt lat="49.80082" lon="0.6944">
        <ele>82</ele>
        <time>2023-08-09T18:52:27.000Z</time>
      </trkpt>
      <trkpt lat="49.8008" lon="0.69433">
        <ele>82</ele>
        <time>2023-08-09T18:52:28.000Z</time>
      </trkpt>
      <trkpt lat="49.80057" lon="0.6937">
        <ele>83</ele>
        <time>2023-08-09T18:52:38.000Z</time>
      </trkpt>
      <trkpt lat="49.8005" lon="0.6935">
        <ele>83.400001525879</ele>
        <time>2023-08-09T18:52:41.000Z</time>
      </trkpt>
      <trkpt lat="49.80042" lon="0.69322">
        <ele>84</ele>
        <time>2023-08-09T18:52:45.000Z</time>
      </trkpt>
      <trkpt lat="49.80031" lon="0.6928">
        <ele>84.400001525879</ele>
        <time>2023-08-09T18:52:51.000Z</time>
      </trkpt>
      <trkpt lat="49.80023" lon="0.69245">
        <ele>84.800003051758</ele>
        <time>2023-08-09T18:52:56.000Z</time>
      </trkpt>
      <trkpt lat="49.80017" lon="0.69226">
        <ele>84.800003051758</ele>
        <time>2023-08-09T18:52:59.000Z</time>
      </trkpt>
      <trkpt lat="49.80014" lon="0.69219">
        <ele>85</ele>
        <time>2023-08-09T18:53:00.000Z</time>
      </trkpt>
      <trkpt lat="49.79997" lon="0.69167">
        <ele>85.400001525879</ele>
        <time>2023-08-09T18:53:08.000Z</time>
      </trkpt>
      <trkpt lat="49.79983" lon="0.69128">
        <ele>85.400001525879</ele>
        <time>2023-08-09T18:53:15.000Z</time>
      </trkpt>
      <trkpt lat="49.79976" lon="0.69104">
        <ele>84.800003051758</ele>
        <time>2023-08-09T18:53:21.000Z</time>
      </trkpt>
      <trkpt lat="49.79977" lon="0.69101">
        <ele>84.800003051758</ele>
        <time>2023-08-09T18:53:22.000Z</time>
      </trkpt>
      <trkpt lat="49.79979" lon="0.69095">
        <ele>84.400001525879</ele>
        <time>2023-08-09T18:53:25.000Z</time>
      </trkpt>
      <trkpt lat="49.79979" lon="0.69095">
        <ele>84</ele>
        <time>2023-08-09T18:53:29.000Z</time>
      </trkpt>
      <trkpt lat="49.79981" lon="0.69094">
        <ele>83</ele>
        <time>2023-08-09T18:55:48.000Z</time>
      </trkpt>
      <trkpt lat="49.79983" lon="0.69092">
        <ele>83</ele>
        <time>2023-08-09T18:55:49.000Z</time>
      </trkpt>
      <trkpt lat="49.79992" lon="0.69086">
        <ele>83</ele>
        <time>2023-08-09T18:55:53.000Z</time>
      </trkpt>
      <trkpt lat="49.80005" lon="0.69077">
        <ele>83</ele>
        <time>2023-08-09T18:55:58.000Z</time>
      </trkpt>
      <trkpt lat="49.80025" lon="0.69065">
        <ele>83</ele>
        <time>2023-08-09T18:56:06.000Z</time>
      </trkpt>
      <trkpt lat="49.80042" lon="0.69062">
        <ele>82.800003051758</ele>
        <time>2023-08-09T18:56:12.000Z</time>
      </trkpt>
      <trkpt lat="49.80058" lon="0.69057">
        <ele>82.800003051758</ele>
        <time>2023-08-09T18:56:18.000Z</time>
      </trkpt>
      <trkpt lat="49.80064" lon="0.69041">
        <ele>82.599998474121</ele>
        <time>2023-08-09T18:56:23.000Z</time>
      </trkpt>
      <trkpt lat="49.80069" lon="0.69023">
        <ele>82.400001525879</ele>
        <time>2023-08-09T18:56:27.000Z</time>
      </trkpt>
      <trkpt lat="49.80077" lon="0.69001">
        <ele>82.199996948242</ele>
        <time>2023-08-09T18:56:31.000Z</time>
      </trkpt>
      <trkpt lat="49.80088" lon="0.68973">
        <ele>81.800003051758</ele>
        <time>2023-08-09T18:56:36.000Z</time>
      </trkpt>
      <trkpt lat="49.801" lon="0.68953">
        <ele>81.400001525879</ele>
        <time>2023-08-09T18:56:42.000Z</time>
      </trkpt>
      <trkpt lat="49.80111" lon="0.68933">
        <ele>81</ele>
        <time>2023-08-09T18:56:51.000Z</time>
      </trkpt>
      <trkpt lat="49.80118" lon="0.68928">
        <ele>81</ele>
        <time>2023-08-09T18:56:55.000Z</time>
      </trkpt>
      <trkpt lat="49.80121" lon="0.68927">
        <ele>81</ele>
        <time>2023-08-09T18:56:57.000Z</time>
      </trkpt>
      <trkpt lat="49.80124" lon="0.68928">
        <ele>80.800003051758</ele>
        <time>2023-08-09T18:56:59.000Z</time>
      </trkpt>
      <trkpt lat="49.8013" lon="0.68937">
        <ele>80.800003051758</ele>
        <time>2023-08-09T18:57:02.000Z</time>
      </trkpt>
      <trkpt lat="49.80145" lon="0.68956">
        <ele>81</ele>
        <time>2023-08-09T18:57:08.000Z</time>
      </trkpt>
      <trkpt lat="49.80162" lon="0.6898">
        <ele>81.199996948242</ele>
        <time>2023-08-09T18:57:17.000Z</time>
      </trkpt>
      <trkpt lat="49.80165" lon="0.68988">
        <ele>81.199996948242</ele>
        <time>2023-08-09T18:57:21.000Z</time>
      </trkpt>
      <trkpt lat="49.80166" lon="0.6899">
        <ele>81.199996948242</ele>
        <time>2023-08-09T18:57:23.000Z</time>
      </trkpt>
      <trkpt lat="49.80169" lon="0.68992">
        <ele>81.400001525879</ele>
        <time>2023-08-09T18:57:26.000Z</time>
      </trkpt>
      <trkpt lat="49.80173" lon="0.68994">
        <ele>81.400001525879</ele>
        <time>2023-08-09T18:57:28.000Z</time>
      </trkpt>
      <trkpt lat="49.80178" lon="0.68992">
        <ele>81.400001525879</ele>
        <time>2023-08-09T18:57:31.000Z</time>
      </trkpt>
      <trkpt lat="49.8018" lon="0.68991">
        <ele>81.400001525879</ele>
        <time>2023-08-09T18:57:34.000Z</time>
      </trkpt>
      <trkpt lat="49.8018" lon="0.68991">
        <ele>81.400001525879</ele>
        <time>2023-08-09T18:57:35.000Z</time>
      </trkpt>
      <trkpt lat="49.80174" lon="0.68988">
        <ele>81.199996948242</ele>
        <time>2023-08-09T18:59:09.000Z</time>
      </trkpt>
      <trkpt lat="49.8017" lon="0.68987">
        <ele>81</ele>
        <time>2023-08-09T18:59:11.000Z</time>
      </trkpt>
      <trkpt lat="49.80157" lon="0.69">
        <ele>81.400001525879</ele>
        <time>2023-08-09T18:59:17.000Z</time>
      </trkpt>
      <trkpt lat="49.80149" lon="0.69011">
        <ele>81.400001525879</ele>
        <time>2023-08-09T18:59:23.000Z</time>
      </trkpt>
      <trkpt lat="49.80149" lon="0.69012">
        <ele>81.400001525879</ele>
        <time>2023-08-09T18:59:24.000Z</time>
      </trkpt>
      <trkpt lat="49.80151" lon="0.69012">
        <ele>81.400001525879</ele>
        <time>2023-08-09T18:59:27.000Z</time>
      </trkpt>
      <trkpt lat="49.80153" lon="0.69011">
        <ele>81.400001525879</ele>
        <time>2023-08-09T18:59:28.000Z</time>
      </trkpt>
      <trkpt lat="49.80162" lon="0.68995">
        <ele>81.599998474121</ele>
        <time>2023-08-09T18:59:34.000Z</time>
      </trkpt>
      <trkpt lat="49.80166" lon="0.68983">
        <ele>81.400001525879</ele>
        <time>2023-08-09T18:59:39.000Z</time>
      </trkpt>
      <trkpt lat="49.8016" lon="0.68972">
        <ele>81.199996948242</ele>
        <time>2023-08-09T18:59:43.000Z</time>
      </trkpt>
      <trkpt lat="49.80146" lon="0.68955">
        <ele>81.199996948242</ele>
        <time>2023-08-09T18:59:48.000Z</time>
      </trkpt>
      <trkpt lat="49.80125" lon="0.68928">
        <ele>80.800003051758</ele>
        <time>2023-08-09T18:59:55.000Z</time>
      </trkpt>
      <trkpt lat="49.80108" lon="0.68907">
        <ele>80.599998474121</ele>
        <time>2023-08-09T19:00:01.000Z</time>
      </trkpt>
      <trkpt lat="49.80105" lon="0.68903">
        <ele>80.599998474121</ele>
        <time>2023-08-09T19:00:02.000Z</time>
      </trkpt>
      <trkpt lat="49.80102" lon="0.689">
        <ele>80.599998474121</ele>
        <time>2023-08-09T19:00:03.000Z</time>
      </trkpt>
      <trkpt lat="49.80083" lon="0.68879">
        <ele>81</ele>
        <time>2023-08-09T19:00:08.000Z</time>
      </trkpt>
      <trkpt lat="49.80053" lon="0.68851">
        <ele>81.199996948242</ele>
        <time>2023-08-09T19:00:16.000Z</time>
      </trkpt>
      <trkpt lat="49.80019" lon="0.68824">
        <ele>81.599998474121</ele>
        <time>2023-08-09T19:00:25.000Z</time>
      </trkpt>
      <trkpt lat="49.8" lon="0.68809">
        <ele>81.599998474121</ele>
        <time>2023-08-09T19:00:31.000Z</time>
      </trkpt>
      <trkpt lat="49.79996" lon="0.68807">
        <ele>81.599998474121</ele>
        <time>2023-08-09T19:00:32.000Z</time>
      </trkpt>
      <trkpt lat="49.79992" lon="0.68806">
        <ele>81.599998474121</ele>
        <time>2023-08-09T19:00:33.000Z</time>
      </trkpt>
      <trkpt lat="49.79983" lon="0.6881">
        <ele>81.800003051758</ele>
        <time>2023-08-09T19:00:35.000Z</time>
      </trkpt>
      <trkpt lat="49.79977" lon="0.68819">
        <ele>81.800003051758</ele>
        <time>2023-08-09T19:00:37.000Z</time>
      </trkpt>
      <trkpt lat="49.7997" lon="0.6883">
        <ele>81.800003051758</ele>
        <time>2023-08-09T19:00:39.000Z</time>
      </trkpt>
      <trkpt lat="49.79954" lon="0.68857">
        <ele>82.400001525879</ele>
        <time>2023-08-09T19:00:45.000Z</time>
      </trkpt>
      <trkpt lat="49.79948" lon="0.68868">
        <ele>82.599998474121</ele>
        <time>2023-08-09T19:00:47.000Z</time>
      </trkpt>
      <trkpt lat="49.79927" lon="0.689">
        <ele>83.400001525879</ele>
        <time>2023-08-09T19:00:55.000Z</time>
      </trkpt>
      <trkpt lat="49.79922" lon="0.68909">
        <ele>83.800003051758</ele>
        <time>2023-08-09T19:00:57.000Z</time>
      </trkpt>
      <trkpt lat="49.7991" lon="0.68923">
        <ele>84</ele>
        <time>2023-08-09T19:01:02.000Z</time>
      </trkpt>
      <trkpt lat="49.79903" lon="0.68923">
        <ele>84.199996948242</ele>
        <time>2023-08-09T19:01:06.000Z</time>
      </trkpt>
      <trkpt lat="49.79892" lon="0.68912">
        <ele>84.400001525879</ele>
        <time>2023-08-09T19:01:10.000Z</time>
      </trkpt>
      <trkpt lat="49.79874" lon="0.68877">
        <ele>84.199996948242</ele>
        <time>2023-08-09T19:01:18.000Z</time>
      </trkpt>
      <trkpt lat="49.7986" lon="0.68848">
        <ele>84.199996948242</ele>
        <time>2023-08-09T19:01:24.000Z</time>
      </trkpt>
      <trkpt lat="49.79834" lon="0.68805">
        <ele>84</ele>
        <time>2023-08-09T19:01:32.000Z</time>
      </trkpt>
      <trkpt lat="49.79806" lon="0.68764">
        <ele>84</ele>
        <time>2023-08-09T19:01:40.000Z</time>
      </trkpt>
      <trkpt lat="49.79774" lon="0.68718">
        <ele>84</ele>
        <time>2023-08-09T19:01:49.000Z</time>
      </trkpt>
      <trkpt lat="49.79735" lon="0.68659">
        <ele>83.800003051758</ele>
        <time>2023-08-09T19:01:59.000Z</time>
      </trkpt>
      <trkpt lat="49.79731" lon="0.68653">
        <ele>83.800003051758</ele>
        <time>2023-08-09T19:02:00.000Z</time>
      </trkpt>
      <trkpt lat="49.79689" lon="0.68589">
        <ele>83.400001525879</ele>
        <time>2023-08-09T19:02:11.000Z</time>
      </trkpt>
      <trkpt lat="49.79685" lon="0.68585">
        <ele>83.400001525879</ele>
        <time>2023-08-09T19:02:12.000Z</time>
      </trkpt>
      <trkpt lat="49.79668" lon="0.68569">
        <ele>83.400001525879</ele>
        <time>2023-08-09T19:02:16.000Z</time>
      </trkpt>
      <trkpt lat="49.79665" lon="0.68566">
        <ele>83.400001525879</ele>
        <time>2023-08-09T19:02:17.000Z</time>
      </trkpt>
      <trkpt lat="49.79612" lon="0.68532">
        <ele>84</ele>
        <time>2023-08-09T19:02:28.000Z</time>
      </trkpt>
      <trkpt lat="49.79606" lon="0.68528">
        <ele>84.199996948242</ele>
        <time>2023-08-09T19:02:29.000Z</time>
      </trkpt>
      <trkpt lat="49.79569" lon="0.68504">
        <ele>84.400001525879</ele>
        <time>2023-08-09T19:02:37.000Z</time>
      </trkpt>
      <trkpt lat="49.79544" lon="0.68488">
        <ele>84.800003051758</ele>
        <time>2023-08-09T19:02:42.000Z</time>
      </trkpt>
      <trkpt lat="49.79525" lon="0.68475">
        <ele>85.199996948242</ele>
        <time>2023-08-09T19:02:46.000Z</time>
      </trkpt>
      <trkpt lat="49.79488" lon="0.6845">
        <ele>85.800003051758</ele>
        <time>2023-08-09T19:02:54.000Z</time>
      </trkpt>
      <trkpt lat="49.79483" lon="0.68447">
        <ele>86</ele>
        <time>2023-08-09T19:02:55.000Z</time>
      </trkpt>
      <trkpt lat="49.79434" lon="0.68415">
        <ele>87</ele>
        <time>2023-08-09T19:03:06.000Z</time>
      </trkpt>
      <trkpt lat="49.79428" lon="0.68411">
        <ele>87</ele>
        <time>2023-08-09T19:03:07.000Z</time>
      </trkpt>
      <trkpt lat="49.79378" lon="0.68378">
        <ele>87.800003051758</ele>
        <time>2023-08-09T19:03:18.000Z</time>
      </trkpt>
      <trkpt lat="49.79365" lon="0.6837">
        <ele>88</ele>
        <time>2023-08-09T19:03:21.000Z</time>
      </trkpt>
      <trkpt lat="49.79332" lon="0.68348">
        <ele>88.400001525879</ele>
        <time>2023-08-09T19:03:28.000Z</time>
      </trkpt>
      <trkpt lat="49.79301" lon="0.68329">
        <ele>89</ele>
        <time>2023-08-09T19:03:35.000Z</time>
      </trkpt>
      <trkpt lat="49.79278" lon="0.68314">
        <ele>89.400001525879</ele>
        <time>2023-08-09T19:03:40.000Z</time>
      </trkpt>
      <trkpt lat="49.7924" lon="0.68288">
        <ele>90.199996948242</ele>
        <time>2023-08-09T19:03:48.000Z</time>
      </trkpt>
      <trkpt lat="49.79232" lon="0.68282">
        <ele>90.400001525879</ele>
        <time>2023-08-09T19:03:50.000Z</time>
      </trkpt>
      <trkpt lat="49.79185" lon="0.68238">
        <ele>91.199996948242</ele>
        <time>2023-08-09T19:04:01.000Z</time>
      </trkpt>
      <trkpt lat="49.79181" lon="0.68234">
        <ele>91.400001525879</ele>
        <time>2023-08-09T19:04:02.000Z</time>
      </trkpt>
      <trkpt lat="49.79147" lon="0.68192">
        <ele>92</ele>
        <time>2023-08-09T19:04:11.000Z</time>
      </trkpt>
      <trkpt lat="49.79119" lon="0.6815">
        <ele>92.400001525879</ele>
        <time>2023-08-09T19:04:19.000Z</time>
      </trkpt>
      <trkpt lat="49.79115" lon="0.68143">
        <ele>92.400001525879</ele>
        <time>2023-08-09T19:04:20.000Z</time>
      </trkpt>
      <trkpt lat="49.79085" lon="0.68081">
        <ele>93.199996948242</ele>
        <time>2023-08-09T19:04:30.000Z</time>
      </trkpt>
      <trkpt lat="49.79068" lon="0.6804">
        <ele>93.400001525879</ele>
        <time>2023-08-09T19:04:36.000Z</time>
      </trkpt>
      <trkpt lat="49.79061" lon="0.6802">
        <ele>93.400001525879</ele>
        <time>2023-08-09T19:04:39.000Z</time>
      </trkpt>
      <trkpt lat="49.79038" lon="0.67943">
        <ele>93.599998474121</ele>
        <time>2023-08-09T19:04:49.000Z</time>
      </trkpt>
      <trkpt lat="49.79036" lon="0.67935">
        <ele>93.599998474121</ele>
        <time>2023-08-09T19:04:50.000Z</time>
      </trkpt>
      <trkpt lat="49.79016" lon="0.67857">
        <ele>93.599998474121</ele>
        <time>2023-08-09T19:05:00.000Z</time>
      </trkpt>
      <trkpt lat="49.79014" lon="0.6785">
        <ele>93.599998474121</ele>
        <time>2023-08-09T19:05:01.000Z</time>
      </trkpt>
      <trkpt lat="49.78998" lon="0.67789">
        <ele>93.400001525879</ele>
        <time>2023-08-09T19:05:09.000Z</time>
      </trkpt>
      <trkpt lat="49.7898" lon="0.67721">
        <ele>93.199996948242</ele>
        <time>2023-08-09T19:05:18.000Z</time>
      </trkpt>
      <trkpt lat="49.78965" lon="0.67664">
        <ele>93</ele>
        <time>2023-08-09T19:05:26.000Z</time>
      </trkpt>
      <trkpt lat="49.7895" lon="0.67606">
        <ele>92.599998474121</ele>
        <time>2023-08-09T19:05:34.000Z</time>
      </trkpt>
      <trkpt lat="49.78941" lon="0.6757">
        <ele>92.400001525879</ele>
        <time>2023-08-09T19:05:39.000Z</time>
      </trkpt>
      <trkpt lat="49.78933" lon="0.67541">
        <ele>92.199996948242</ele>
        <time>2023-08-09T19:05:43.000Z</time>
      </trkpt>
      <trkpt lat="49.78913" lon="0.67466">
        <ele>91.800003051758</ele>
        <time>2023-08-09T19:05:53.000Z</time>
      </trkpt>
      <trkpt lat="49.78901" lon="0.6742">
        <ele>91.400001525879</ele>
        <time>2023-08-09T19:05:59.000Z</time>
      </trkpt>
      <trkpt lat="49.78898" lon="0.67405">
        <ele>91.199996948242</ele>
        <time>2023-08-09T19:06:01.000Z</time>
      </trkpt>
      <trkpt lat="49.78877" lon="0.67329">
        <ele>90.800003051758</ele>
        <time>2023-08-09T19:06:10.000Z</time>
      </trkpt>
      <trkpt lat="49.78857" lon="0.67254">
        <ele>90.400001525879</ele>
        <time>2023-08-09T19:06:19.000Z</time>
      </trkpt>
      <trkpt lat="49.78853" lon="0.67237">
        <ele>90.400001525879</ele>
        <time>2023-08-09T19:06:21.000Z</time>
      </trkpt>
      <trkpt lat="49.78835" lon="0.67168">
        <ele>89.800003051758</ele>
        <time>2023-08-09T19:06:29.000Z</time>
      </trkpt>
      <trkpt lat="49.78818" lon="0.67107">
        <ele>89.400001525879</ele>
        <time>2023-08-09T19:06:36.000Z</time>
      </trkpt>
      <trkpt lat="49.78812" lon="0.6708">
        <ele>89.199996948242</ele>
        <time>2023-08-09T19:06:39.000Z</time>
      </trkpt>
      <trkpt lat="49.78796" lon="0.67019">
        <ele>89</ele>
        <time>2023-08-09T19:06:46.000Z</time>
      </trkpt>
      <trkpt lat="49.78791" lon="0.66994">
        <ele>88.800003051758</ele>
        <time>2023-08-09T19:06:49.000Z</time>
      </trkpt>
      <trkpt lat="49.78783" lon="0.66906">
        <ele>88.599998474121</ele>
        <time>2023-08-09T19:06:59.000Z</time>
      </trkpt>
      <trkpt lat="49.78778" lon="0.66843">
        <ele>88.800003051758</ele>
        <time>2023-08-09T19:07:06.000Z</time>
      </trkpt>
      <trkpt lat="49.78772" lon="0.66751">
        <ele>89.199996948242</ele>
        <time>2023-08-09T19:07:16.000Z</time>
      </trkpt>
      <trkpt lat="49.78765" lon="0.66665">
        <ele>89.400001525879</ele>
        <time>2023-08-09T19:07:26.000Z</time>
      </trkpt>
      <trkpt lat="49.78759" lon="0.66579">
        <ele>89.199996948242</ele>
        <time>2023-08-09T19:07:36.000Z</time>
      </trkpt>
      <trkpt lat="49.78758" lon="0.66572">
        <ele>89.199996948242</ele>
        <time>2023-08-09T19:07:37.000Z</time>
      </trkpt>
      <trkpt lat="49.78752" lon="0.66482">
        <ele>88.800003051758</ele>
        <time>2023-08-09T19:07:47.000Z</time>
      </trkpt>
      <trkpt lat="49.78751" lon="0.66473">
        <ele>88.800003051758</ele>
        <time>2023-08-09T19:07:48.000Z</time>
      </trkpt>
      <trkpt lat="49.78746" lon="0.66404">
        <ele>88.400001525879</ele>
        <time>2023-08-09T19:07:55.000Z</time>
      </trkpt>
      <trkpt lat="49.78745" lon="0.66385">
        <ele>88</ele>
        <time>2023-08-09T19:07:57.000Z</time>
      </trkpt>
      <trkpt lat="49.78738" lon="0.66298">
        <ele>87</ele>
        <time>2023-08-09T19:08:05.000Z</time>
      </trkpt>
      <trkpt lat="49.78738" lon="0.6629">
        <ele>86.800003051758</ele>
        <time>2023-08-09T19:08:06.000Z</time>
      </trkpt>
      <trkpt lat="49.78734" lon="0.66236">
        <ele>86</ele>
        <time>2023-08-09T19:08:11.000Z</time>
      </trkpt>
      <trkpt lat="49.78734" lon="0.66225">
        <ele>85.800003051758</ele>
        <time>2023-08-09T19:08:12.000Z</time>
      </trkpt>
      <trkpt lat="49.7873" lon="0.66183">
        <ele>85.400001525879</ele>
        <time>2023-08-09T19:08:16.000Z</time>
      </trkpt>
      <trkpt lat="49.78728" lon="0.66162">
        <ele>84.800003051758</ele>
        <time>2023-08-09T19:08:18.000Z</time>
      </trkpt>
      <trkpt lat="49.78722" lon="0.66087">
        <ele>83.599998474121</ele>
        <time>2023-08-09T19:08:25.000Z</time>
      </trkpt>
      <trkpt lat="49.78719" lon="0.66034">
        <ele>82.599998474121</ele>
        <time>2023-08-09T19:08:30.000Z</time>
      </trkpt>
      <trkpt lat="49.78716" lon="0.65993">
        <ele>82.199996948242</ele>
        <time>2023-08-09T19:08:34.000Z</time>
      </trkpt>
      <trkpt lat="49.78713" lon="0.65941">
        <ele>81.400001525879</ele>
        <time>2023-08-09T19:08:39.000Z</time>
      </trkpt>
      <trkpt lat="49.78712" lon="0.65932">
        <ele>81.199996948242</ele>
        <time>2023-08-09T19:08:40.000Z</time>
      </trkpt>
      <trkpt lat="49.78706" lon="0.65865">
        <ele>80.400001525879</ele>
        <time>2023-08-09T19:08:47.000Z</time>
      </trkpt>
      <trkpt lat="49.78705" lon="0.65855">
        <ele>80.199996948242</ele>
        <time>2023-08-09T19:08:48.000Z</time>
      </trkpt>
      <trkpt lat="49.78703" lon="0.65844">
        <ele>80.199996948242</ele>
        <time>2023-08-09T19:08:49.000Z</time>
      </trkpt>
      <trkpt lat="49.78693" lon="0.65809">
        <ele>79.599998474121</ele>
        <time>2023-08-09T19:08:53.000Z</time>
      </trkpt>
      <trkpt lat="49.78687" lon="0.65796">
        <ele>79.400001525879</ele>
        <time>2023-08-09T19:08:55.000Z</time>
      </trkpt>
      <trkpt lat="49.78679" lon="0.65783">
        <ele>79.199996948242</ele>
        <time>2023-08-09T19:08:57.000Z</time>
      </trkpt>
      <trkpt lat="49.78673" lon="0.65776">
        <ele>79</ele>
        <time>2023-08-09T19:08:58.000Z</time>
      </trkpt>
      <trkpt lat="49.78657" lon="0.65759">
        <ele>78.599998474121</ele>
        <time>2023-08-09T19:09:02.000Z</time>
      </trkpt>
      <trkpt lat="49.78655" lon="0.65754">
        <ele>78.400001525879</ele>
        <time>2023-08-09T19:09:03.000Z</time>
      </trkpt>
      <trkpt lat="49.78653" lon="0.6575">
        <ele>78.199996948242</ele>
        <time>2023-08-09T19:09:04.000Z</time>
      </trkpt>
      <trkpt lat="49.78653" lon="0.65734">
        <ele>78</ele>
        <time>2023-08-09T19:09:07.000Z</time>
      </trkpt>
      <trkpt lat="49.7865" lon="0.65709">
        <ele>77.800003051758</ele>
        <time>2023-08-09T19:09:12.000Z</time>
      </trkpt>
      <trkpt lat="49.78643" lon="0.65701">
        <ele>77.800003051758</ele>
        <time>2023-08-09T19:09:14.000Z</time>
      </trkpt>
      <trkpt lat="49.7864" lon="0.65699">
        <ele>77.800003051758</ele>
        <time>2023-08-09T19:09:15.000Z</time>
      </trkpt>
      <trkpt lat="49.78612" lon="0.6569">
        <ele>77.400001525879</ele>
        <time>2023-08-09T19:09:20.000Z</time>
      </trkpt>
      <trkpt lat="49.78598" lon="0.65683">
        <ele>77</ele>
        <time>2023-08-09T19:09:22.000Z</time>
      </trkpt>
      <trkpt lat="49.78579" lon="0.65671">
        <ele>76.400001525879</ele>
        <time>2023-08-09T19:09:25.000Z</time>
      </trkpt>
      <trkpt lat="49.78558" lon="0.65652">
        <ele>75.599998474121</ele>
        <time>2023-08-09T19:09:28.000Z</time>
      </trkpt>
      <trkpt lat="49.78546" lon="0.65639">
        <ele>75</ele>
        <time>2023-08-09T19:09:30.000Z</time>
      </trkpt>
      <trkpt lat="49.78534" lon="0.65622">
        <ele>74.199996948242</ele>
        <time>2023-08-09T19:09:32.000Z</time>
      </trkpt>
      <trkpt lat="49.78517" lon="0.65591">
        <ele>73</ele>
        <time>2023-08-09T19:09:35.000Z</time>
      </trkpt>
      <trkpt lat="49.78502" lon="0.65555">
        <ele>71.800003051758</ele>
        <time>2023-08-09T19:09:38.000Z</time>
      </trkpt>
      <trkpt lat="49.78488" lon="0.65521">
        <ele>71</ele>
        <time>2023-08-09T19:09:41.000Z</time>
      </trkpt>
      <trkpt lat="49.78483" lon="0.65509">
        <ele>70.199996948242</ele>
        <time>2023-08-09T19:09:42.000Z</time>
      </trkpt>
      <trkpt lat="49.78467" lon="0.65472">
        <ele>69</ele>
        <time>2023-08-09T19:09:45.000Z</time>
      </trkpt>
      <trkpt lat="49.78451" lon="0.65435">
        <ele>67.800003051758</ele>
        <time>2023-08-09T19:09:48.000Z</time>
      </trkpt>
      <trkpt lat="49.78446" lon="0.65423">
        <ele>67.199996948242</ele>
        <time>2023-08-09T19:09:49.000Z</time>
      </trkpt>
      <trkpt lat="49.7844" lon="0.65411">
        <ele>66.599998474121</ele>
        <time>2023-08-09T19:09:50.000Z</time>
      </trkpt>
      <trkpt lat="49.78432" lon="0.65399">
        <ele>66.400001525879</ele>
        <time>2023-08-09T19:09:51.000Z</time>
      </trkpt>
      <trkpt lat="49.78419" lon="0.65382">
        <ele>65.599998474121</ele>
        <time>2023-08-09T19:09:53.000Z</time>
      </trkpt>
      <trkpt lat="49.78403" lon="0.65364">
        <ele>64.599998474121</ele>
        <time>2023-08-09T19:09:55.000Z</time>
      </trkpt>
      <trkpt lat="49.7837" lon="0.6533">
        <ele>63</ele>
        <time>2023-08-09T19:09:59.000Z</time>
      </trkpt>
      <trkpt lat="49.78361" lon="0.65322">
        <ele>62.799999237061</ele>
        <time>2023-08-09T19:10:00.000Z</time>
      </trkpt>
      <trkpt lat="49.78345" lon="0.65304">
        <ele>61.799999237061</ele>
        <time>2023-08-09T19:10:02.000Z</time>
      </trkpt>
      <trkpt lat="49.78323" lon="0.65272">
        <ele>61</ele>
        <time>2023-08-09T19:10:05.000Z</time>
      </trkpt>
      <trkpt lat="49.78317" lon="0.65256">
        <ele>60.200000762939</ele>
        <time>2023-08-09T19:10:06.000Z</time>
      </trkpt>
      <trkpt lat="49.78311" lon="0.65229">
        <ele>59.200000762939</ele>
        <time>2023-08-09T19:10:08.000Z</time>
      </trkpt>
      <trkpt lat="49.7831" lon="0.65214">
        <ele>58.599998474121</ele>
        <time>2023-08-09T19:10:09.000Z</time>
      </trkpt>
      <trkpt lat="49.7831" lon="0.65199">
        <ele>58.400001525879</ele>
        <time>2023-08-09T19:10:10.000Z</time>
      </trkpt>
      <trkpt lat="49.78311" lon="0.65184">
        <ele>57.799999237061</ele>
        <time>2023-08-09T19:10:12.000Z</time>
      </trkpt>
      <trkpt lat="49.78313" lon="0.6517">
        <ele>57</ele>
        <time>2023-08-09T19:10:13.000Z</time>
      </trkpt>
      <trkpt lat="49.78321" lon="0.65126">
        <ele>56</ele>
        <time>2023-08-09T19:10:16.000Z</time>
      </trkpt>
      <trkpt lat="49.78333" lon="0.65085">
        <ele>55</ele>
        <time>2023-08-09T19:10:19.000Z</time>
      </trkpt>
      <trkpt lat="49.78344" lon="0.65058">
        <ele>53.799999237061</ele>
        <time>2023-08-09T19:10:21.000Z</time>
      </trkpt>
      <trkpt lat="49.78364" lon="0.65021">
        <ele>52.599998474121</ele>
        <time>2023-08-09T19:10:24.000Z</time>
      </trkpt>
      <trkpt lat="49.78376" lon="0.65006">
        <ele>51.799999237061</ele>
        <time>2023-08-09T19:10:26.000Z</time>
      </trkpt>
      <trkpt lat="49.78385" lon="0.64994">
        <ele>51.200000762939</ele>
        <time>2023-08-09T19:10:27.000Z</time>
      </trkpt>
      <trkpt lat="49.78406" lon="0.6496">
        <ele>50</ele>
        <time>2023-08-09T19:10:30.000Z</time>
      </trkpt>
      <trkpt lat="49.78426" lon="0.64926">
        <ele>48.599998474121</ele>
        <time>2023-08-09T19:10:33.000Z</time>
      </trkpt>
      <trkpt lat="49.78434" lon="0.64913">
        <ele>48.200000762939</ele>
        <time>2023-08-09T19:10:34.000Z</time>
      </trkpt>
      <trkpt lat="49.78441" lon="0.64902">
        <ele>48</ele>
        <time>2023-08-09T19:10:35.000Z</time>
      </trkpt>
      <trkpt lat="49.78448" lon="0.64893">
        <ele>47.599998474121</ele>
        <time>2023-08-09T19:10:36.000Z</time>
      </trkpt>
      <trkpt lat="49.78456" lon="0.64883">
        <ele>47.200000762939</ele>
        <time>2023-08-09T19:10:37.000Z</time>
      </trkpt>
      <trkpt lat="49.78465" lon="0.64874">
        <ele>46.799999237061</ele>
        <time>2023-08-09T19:10:38.000Z</time>
      </trkpt>
      <trkpt lat="49.78474" lon="0.64867">
        <ele>46.200000762939</ele>
        <time>2023-08-09T19:10:39.000Z</time>
      </trkpt>
      <trkpt lat="49.78483" lon="0.64862">
        <ele>46</ele>
        <time>2023-08-09T19:10:40.000Z</time>
      </trkpt>
      <trkpt lat="49.78493" lon="0.64858">
        <ele>45.400001525879</ele>
        <time>2023-08-09T19:10:41.000Z</time>
      </trkpt>
      <trkpt lat="49.78502" lon="0.64855">
        <ele>45</ele>
        <time>2023-08-09T19:10:42.000Z</time>
      </trkpt>
      <trkpt lat="49.78522" lon="0.64851">
        <ele>44.400001525879</ele>
        <time>2023-08-09T19:10:44.000Z</time>
      </trkpt>
      <trkpt lat="49.78533" lon="0.64848">
        <ele>44</ele>
        <time>2023-08-09T19:10:45.000Z</time>
      </trkpt>
      <trkpt lat="49.78564" lon="0.64837">
        <ele>42.799999237061</ele>
        <time>2023-08-09T19:10:48.000Z</time>
      </trkpt>
      <trkpt lat="49.78573" lon="0.64835">
        <ele>42.200000762939</ele>
        <time>2023-08-09T19:10:49.000Z</time>
      </trkpt>
      <trkpt lat="49.78591" lon="0.64832">
        <ele>41.599998474121</ele>
        <time>2023-08-09T19:10:51.000Z</time>
      </trkpt>
      <trkpt lat="49.78609" lon="0.64826">
        <ele>40.599998474121</ele>
        <time>2023-08-09T19:10:53.000Z</time>
      </trkpt>
      <trkpt lat="49.78619" lon="0.64823">
        <ele>40.200000762939</ele>
        <time>2023-08-09T19:10:54.000Z</time>
      </trkpt>
      <trkpt lat="49.78627" lon="0.6482">
        <ele>40</ele>
        <time>2023-08-09T19:10:55.000Z</time>
      </trkpt>
      <trkpt lat="49.78647" lon="0.64807">
        <ele>39.200000762939</ele>
        <time>2023-08-09T19:10:57.000Z</time>
      </trkpt>
      <trkpt lat="49.78669" lon="0.64782">
        <ele>37.799999237061</ele>
        <time>2023-08-09T19:11:00.000Z</time>
      </trkpt>
      <trkpt lat="49.78676" lon="0.64773">
        <ele>37.400001525879</ele>
        <time>2023-08-09T19:11:01.000Z</time>
      </trkpt>
      <trkpt lat="49.78689" lon="0.64752">
        <ele>36.799999237061</ele>
        <time>2023-08-09T19:11:03.000Z</time>
      </trkpt>
      <trkpt lat="49.78704" lon="0.64732">
        <ele>35.799999237061</ele>
        <time>2023-08-09T19:11:05.000Z</time>
      </trkpt>
      <trkpt lat="49.78711" lon="0.64722">
        <ele>35</ele>
        <time>2023-08-09T19:11:06.000Z</time>
      </trkpt>
      <trkpt lat="49.78727" lon="0.647">
        <ele>34.599998474121</ele>
        <time>2023-08-09T19:11:08.000Z</time>
      </trkpt>
      <trkpt lat="49.78734" lon="0.64691">
        <ele>34.200000762939</ele>
        <time>2023-08-09T19:11:09.000Z</time>
      </trkpt>
      <trkpt lat="49.7874" lon="0.64683">
        <ele>33.799999237061</ele>
        <time>2023-08-09T19:11:10.000Z</time>
      </trkpt>
      <trkpt lat="49.78753" lon="0.64655">
        <ele>33.200000762939</ele>
        <time>2023-08-09T19:11:12.000Z</time>
      </trkpt>
      <trkpt lat="49.78757" lon="0.64644">
        <ele>32.400001525879</ele>
        <time>2023-08-09T19:11:13.000Z</time>
      </trkpt>
      <trkpt lat="49.78761" lon="0.64632">
        <ele>32.200000762939</ele>
        <time>2023-08-09T19:11:14.000Z</time>
      </trkpt>
      <trkpt lat="49.78765" lon="0.64609">
        <ele>31.39999961853</ele>
        <time>2023-08-09T19:11:16.000Z</time>
      </trkpt>
      <trkpt lat="49.78768" lon="0.64583">
        <ele>30.200000762939</ele>
        <time>2023-08-09T19:11:18.000Z</time>
      </trkpt>
      <trkpt lat="49.78768" lon="0.64564">
        <ele>30</ele>
        <time>2023-08-09T19:11:19.000Z</time>
      </trkpt>
      <trkpt lat="49.78764" lon="0.64511">
        <ele>28.60000038147</ele>
        <time>2023-08-09T19:11:22.000Z</time>
      </trkpt>
      <trkpt lat="49.78756" lon="0.64465">
        <ele>27.39999961853</ele>
        <time>2023-08-09T19:11:25.000Z</time>
      </trkpt>
      <trkpt lat="49.78749" lon="0.64412">
        <ele>26.200000762939</ele>
        <time>2023-08-09T19:11:28.000Z</time>
      </trkpt>
      <trkpt lat="49.78742" lon="0.64383">
        <ele>25</ele>
        <time>2023-08-09T19:11:30.000Z</time>
      </trkpt>
      <trkpt lat="49.78736" lon="0.64347">
        <ele>23.799999237061</ele>
        <time>2023-08-09T19:11:32.000Z</time>
      </trkpt>
      <trkpt lat="49.78735" lon="0.6433">
        <ele>23.60000038147</ele>
        <time>2023-08-09T19:11:33.000Z</time>
      </trkpt>
      <trkpt lat="49.78735" lon="0.643">
        <ele>22.200000762939</ele>
        <time>2023-08-09T19:11:35.000Z</time>
      </trkpt>
      <trkpt lat="49.78736" lon="0.64251">
        <ele>21.200000762939</ele>
        <time>2023-08-09T19:11:38.000Z</time>
      </trkpt>
      <trkpt lat="49.78737" lon="0.64221">
        <ele>20</ele>
        <time>2023-08-09T19:11:40.000Z</time>
      </trkpt>
      <trkpt lat="49.78738" lon="0.64182">
        <ele>19</ele>
        <time>2023-08-09T19:11:43.000Z</time>
      </trkpt>
      <trkpt lat="49.78738" lon="0.64172">
        <ele>18.200000762939</ele>
        <time>2023-08-09T19:11:44.000Z</time>
      </trkpt>
      <trkpt lat="49.78739" lon="0.64162">
        <ele>17.799999237061</ele>
        <time>2023-08-09T19:11:45.000Z</time>
      </trkpt>
      <trkpt lat="49.78739" lon="0.64148">
        <ele>16.60000038147</ele>
        <time>2023-08-09T19:11:47.000Z</time>
      </trkpt>
      <trkpt lat="49.7874" lon="0.64141">
        <ele>16.39999961853</ele>
        <time>2023-08-09T19:11:48.000Z</time>
      </trkpt>
      <trkpt lat="49.7874" lon="0.64126">
        <ele>15.39999961853</ele>
        <time>2023-08-09T19:11:50.000Z</time>
      </trkpt>
      <trkpt lat="49.78741" lon="0.641">
        <ele>14.39999961853</ele>
        <time>2023-08-09T19:11:53.000Z</time>
      </trkpt>
      <trkpt lat="49.78741" lon="0.64091">
        <ele>14</ele>
        <time>2023-08-09T19:11:54.000Z</time>
      </trkpt>
      <trkpt lat="49.78741" lon="0.64051">
        <ele>13</ele>
        <time>2023-08-09T19:11:58.000Z</time>
      </trkpt>
      <trkpt lat="49.78741" lon="0.64041">
        <ele>12.800000190735</ele>
        <time>2023-08-09T19:11:59.000Z</time>
      </trkpt>
      <trkpt lat="49.78743" lon="0.63997">
        <ele>11.60000038147</ele>
        <time>2023-08-09T19:12:03.000Z</time>
      </trkpt>
      <trkpt lat="49.78748" lon="0.63968">
        <ele>10.800000190735</ele>
        <time>2023-08-09T19:12:06.000Z</time>
      </trkpt>
      <trkpt lat="49.78751" lon="0.63955">
        <ele>10.60000038147</ele>
        <time>2023-08-09T19:12:07.000Z</time>
      </trkpt>
      <trkpt lat="49.78754" lon="0.63946">
        <ele>10</ele>
        <time>2023-08-09T19:12:08.000Z</time>
      </trkpt>
      <trkpt lat="49.78759" lon="0.63921">
        <ele>9.3999996185303</ele>
        <time>2023-08-09T19:12:11.000Z</time>
      </trkpt>
      <trkpt lat="49.7876" lon="0.63915">
        <ele>9.1999998092651</ele>
        <time>2023-08-09T19:12:12.000Z</time>
      </trkpt>
      <trkpt lat="49.78762" lon="0.63908">
        <ele>8.1999998092651</ele>
        <time>2023-08-09T19:12:13.000Z</time>
      </trkpt>
      <trkpt lat="49.78765" lon="0.63897">
        <ele>7.1999998092651</ele>
        <time>2023-08-09T19:12:15.000Z</time>
      </trkpt>
      <trkpt lat="49.78767" lon="0.63894">
        <ele>6.5999999046326</ele>
        <time>2023-08-09T19:12:16.000Z</time>
      </trkpt>
      <trkpt lat="49.7877" lon="0.63892">
        <ele>6.4000000953674</ele>
        <time>2023-08-09T19:12:17.000Z</time>
      </trkpt>
      <trkpt lat="49.78772" lon="0.63893">
        <ele>6</ele>
        <time>2023-08-09T19:12:18.000Z</time>
      </trkpt>
      <trkpt lat="49.78775" lon="0.63893">
        <ele>5.5999999046326</ele>
        <time>2023-08-09T19:12:19.000Z</time>
      </trkpt>
      <trkpt lat="49.78781" lon="0.63892">
        <ele>5</ele>
        <time>2023-08-09T19:12:21.000Z</time>
      </trkpt>
      <trkpt lat="49.78789" lon="0.63892">
        <ele>4.5999999046326</ele>
        <time>2023-08-09T19:12:24.000Z</time>
      </trkpt>
      <trkpt lat="49.78808" lon="0.63888">
        <ele>4</ele>
        <time>2023-08-09T19:12:31.000Z</time>
      </trkpt>
      <trkpt lat="49.78811" lon="0.63889">
        <ele>3.7999999523163</ele>
        <time>2023-08-09T19:12:32.000Z</time>
      </trkpt>
      <trkpt lat="49.78827" lon="0.6389">
        <ele>2.7999999523163</ele>
        <time>2023-08-09T19:12:38.000Z</time>
      </trkpt>
      <trkpt lat="49.78829" lon="0.63889">
        <ele>2.7999999523163</ele>
        <time>2023-08-09T19:12:39.000Z</time>
      </trkpt>
      <trkpt lat="49.78834" lon="0.63887">
        <ele>2.4000000953674</ele>
        <time>2023-08-09T19:12:42.000Z</time>
      </trkpt>
      <trkpt lat="49.78834" lon="0.63885">
        <ele>2.4000000953674</ele>
        <time>2023-08-09T19:12:43.000Z</time>
      </trkpt>
      <trkpt lat="49.78835" lon="0.63882">
        <ele>2.4000000953674</ele>
        <time>2023-08-09T19:12:44.000Z</time>
      </trkpt>
      <trkpt lat="49.78835" lon="0.63873">
        <ele>2.2000000476837</ele>
        <time>2023-08-09T19:12:47.000Z</time>
      </trkpt>
      <trkpt lat="49.78834" lon="0.63869">
        <ele>2</ele>
        <time>2023-08-09T19:12:49.000Z</time>
      </trkpt>
      <trkpt lat="49.78832" lon="0.63869">
        <ele>2</ele>
        <time>2023-08-09T19:12:51.000Z</time>
      </trkpt>
      <trkpt lat="49.78831" lon="0.63874">
        <ele>2</ele>
        <time>2023-08-09T19:12:53.000Z</time>
      </trkpt>
      <trkpt lat="49.78833" lon="0.63879">
        <ele>2</ele>
        <time>2023-08-09T19:12:55.000Z</time>
      </trkpt>
      <trkpt lat="49.78843" lon="0.63887">
        <ele>2.2000000476837</ele>
        <time>2023-08-09T19:13:00.000Z</time>
      </trkpt>
      <trkpt lat="49.78858" lon="0.63891">
        <ele>2.2000000476837</ele>
        <time>2023-08-09T19:13:05.000Z</time>
      </trkpt>
      <trkpt lat="49.78872" lon="0.63895">
        <ele>2.4000000953674</ele>
        <time>2023-08-09T19:13:09.000Z</time>
      </trkpt>
      <trkpt lat="49.78894" lon="0.63908">
        <ele>2.2000000476837</ele>
        <time>2023-08-09T19:13:16.000Z</time>
      </trkpt>
      <trkpt lat="49.78913" lon="0.63921">
        <ele>2</ele>
        <time>2023-08-09T19:13:21.000Z</time>
      </trkpt>
      <trkpt lat="49.7892" lon="0.63925">
        <ele>1.7999999523163</ele>
        <time>2023-08-09T19:13:23.000Z</time>
      </trkpt>
      <trkpt lat="49.78932" lon="0.63932">
        <ele>1.6000000238419</ele>
        <time>2023-08-09T19:13:26.000Z</time>
      </trkpt>
      <trkpt lat="49.7895" lon="0.63938">
        <ele>1.2000000476837</ele>
        <time>2023-08-09T19:13:30.000Z</time>
      </trkpt>
      <trkpt lat="49.78976" lon="0.63941">
        <ele>0.80000001192093</ele>
        <time>2023-08-09T19:13:35.000Z</time>
      </trkpt>
      <trkpt lat="49.79014" lon="0.63942">
        <ele>-0.60000002384186</ele>
        <time>2023-08-09T19:13:42.000Z</time>
      </trkpt>
      <trkpt lat="49.7905" lon="0.6394">
        <ele>-1.2000000476837</ele>
        <time>2023-08-09T19:13:49.000Z</time>
      </trkpt>
      <trkpt lat="49.79056" lon="0.63938">
        <ele>-1.2000000476837</ele>
        <time>2023-08-09T19:13:50.000Z</time>
      </trkpt>
      <trkpt lat="49.79095" lon="0.6392">
        <ele>-1.6000000238419</ele>
        <time>2023-08-09T19:13:58.000Z</time>
      </trkpt>
      <trkpt lat="49.791" lon="0.63918">
        <ele>-1.6000000238419</ele>
        <time>2023-08-09T19:13:59.000Z</time>
      </trkpt>
      <trkpt lat="49.79137" lon="0.63909">
        <ele>-1.7999999523163</ele>
        <time>2023-08-09T19:14:06.000Z</time>
      </trkpt>
      <trkpt lat="49.79187" lon="0.63906">
        <ele>-2.4000000953674</ele>
        <time>2023-08-09T19:14:15.000Z</time>
      </trkpt>
      <trkpt lat="49.79211" lon="0.63906">
        <ele>-2.4000000953674</ele>
        <time>2023-08-09T19:14:21.000Z</time>
      </trkpt>
      <trkpt lat="49.79224" lon="0.63901">
        <ele>-2.2000000476837</ele>
        <time>2023-08-09T19:14:27.000Z</time>
      </trkpt>
      <trkpt lat="49.79226" lon="0.63899">
        <ele>-1.7999999523163</ele>
        <time>2023-08-09T19:14:29.000Z</time>
      </trkpt>
      <trkpt lat="49.7923" lon="0.63897">
        <ele>-2</ele>
        <time>2023-08-09T19:14:32.000Z</time>
      </trkpt>
      <trkpt lat="49.79234" lon="0.63895">
        <ele>-1.7999999523163</ele>
        <time>2023-08-09T19:14:34.000Z</time>
      </trkpt>
      <trkpt lat="49.79237" lon="0.63898">
        <ele>-1.7999999523163</ele>
        <time>2023-08-09T19:14:36.000Z</time>
      </trkpt>
      <trkpt lat="49.7924" lon="0.63908">
        <ele>-1.3999999761581</ele>
        <time>2023-08-09T19:14:40.000Z</time>
      </trkpt>
      <trkpt lat="49.79241" lon="0.63908">
        <ele>-1.3999999761581</ele>
        <time>2023-08-09T19:14:41.000Z</time>
      </trkpt>
      <trkpt lat="49.79242" lon="0.63907">
        <ele>-1.2000000476837</ele>
        <time>2023-08-09T19:14:44.000Z</time>
      </trkpt>
      <trkpt lat="49.79246" lon="0.63909">
        <ele>-1.2000000476837</ele>
        <time>2023-08-09T19:15:08.000Z</time>
      </trkpt>
      <trkpt lat="49.79248" lon="0.6391">
        <ele>-1.2000000476837</ele>
        <time>2023-08-09T19:15:09.000Z</time>
      </trkpt>
      <trkpt lat="49.79262" lon="0.6391">
        <ele>-1</ele>
        <time>2023-08-09T19:15:14.000Z</time>
      </trkpt>
      <trkpt lat="49.7928" lon="0.63907">
        <ele>-0.60000002384186</ele>
        <time>2023-08-09T19:15:19.000Z</time>
      </trkpt>
      <trkpt lat="49.79287" lon="0.63904">
        <ele>-0.40000000596046</ele>
        <time>2023-08-09T19:15:21.000Z</time>
      </trkpt>
      <trkpt lat="49.79301" lon="0.63902">
        <ele>0.20000000298023</ele>
        <time>2023-08-09T19:15:26.000Z</time>
      </trkpt>
      <trkpt lat="49.79309" lon="0.639">
        <ele>0.40000000596046</ele>
        <time>2023-08-09T19:15:29.000Z</time>
      </trkpt>
      <trkpt lat="49.79314" lon="0.63898">
        <ele>0.80000001192093</ele>
        <time>2023-08-09T19:15:31.000Z</time>
      </trkpt>
      <trkpt lat="49.79333" lon="0.63891">
        <ele>1.6000000238419</ele>
        <time>2023-08-09T19:15:38.000Z</time>
      </trkpt>
      <trkpt lat="49.79348" lon="0.63885">
        <ele>2.2000000476837</ele>
        <time>2023-08-09T19:15:43.000Z</time>
      </trkpt>
      <trkpt lat="49.79357" lon="0.63882">
        <ele>2.5999999046326</ele>
        <time>2023-08-09T19:15:46.000Z</time>
      </trkpt>
      <trkpt lat="49.79375" lon="0.63877">
        <ele>3.2000000476837</ele>
        <time>2023-08-09T19:15:52.000Z</time>
      </trkpt>
      <trkpt lat="49.79396" lon="0.6387">
        <ele>3.7999999523163</ele>
        <time>2023-08-09T19:15:58.000Z</time>
      </trkpt>
      <trkpt lat="49.79418" lon="0.63857">
        <ele>3.7999999523163</ele>
        <time>2023-08-09T19:16:04.000Z</time>
      </trkpt>
      <trkpt lat="49.79438" lon="0.63836">
        <ele>3.4000000953674</ele>
        <time>2023-08-09T19:16:09.000Z</time>
      </trkpt>
      <trkpt lat="49.7946" lon="0.63813">
        <ele>2.5999999046326</ele>
        <time>2023-08-09T19:16:14.000Z</time>
      </trkpt>
      <trkpt lat="49.79476" lon="0.63797">
        <ele>1.7999999523163</ele>
        <time>2023-08-09T19:16:18.000Z</time>
      </trkpt>
      <trkpt lat="49.79484" lon="0.63788">
        <ele>1.3999999761581</ele>
        <time>2023-08-09T19:16:20.000Z</time>
      </trkpt>
      <trkpt lat="49.79494" lon="0.63781">
        <ele>0.80000001192093</ele>
        <time>2023-08-09T19:16:22.000Z</time>
      </trkpt>
      <trkpt lat="49.79498" lon="0.6378">
        <ele>0.80000001192093</ele>
        <time>2023-08-09T19:16:23.000Z</time>
      </trkpt>
      <trkpt lat="49.79502" lon="0.63779">
        <ele>0.40000000596046</ele>
        <time>2023-08-09T19:16:24.000Z</time>
      </trkpt>
      <trkpt lat="49.79521" lon="0.63777">
        <ele>-0.60000002384186</ele>
        <time>2023-08-09T19:16:28.000Z</time>
      </trkpt>
      <trkpt lat="49.79524" lon="0.63776">
        <ele>-0.80000001192093</ele>
        <time>2023-08-09T19:16:29.000Z</time>
      </trkpt>
      <trkpt lat="49.79541" lon="0.63775">
        <ele>-1.6000000238419</ele>
        <time>2023-08-09T19:16:33.000Z</time>
      </trkpt>
      <trkpt lat="49.79566" lon="0.63775">
        <ele>-2.4000000953674</ele>
        <time>2023-08-09T19:16:38.000Z</time>
      </trkpt>
      <trkpt lat="49.79579" lon="0.63777">
        <ele>-2.7999999523163</ele>
        <time>2023-08-09T19:16:41.000Z</time>
      </trkpt>
      <trkpt lat="49.796" lon="0.63776">
        <ele>-3.4000000953674</ele>
        <time>2023-08-09T19:16:46.000Z</time>
      </trkpt>
      <trkpt lat="49.79625" lon="0.63776">
        <ele>-4</ele>
        <time>2023-08-09T19:16:51.000Z</time>
      </trkpt>
      <trkpt lat="49.7965" lon="0.63774">
        <ele>-4.1999998092651</ele>
        <time>2023-08-09T19:16:56.000Z</time>
      </trkpt>
      <trkpt lat="49.79698" lon="0.63767">
        <ele>-4.5999999046326</ele>
        <time>2023-08-09T19:17:05.000Z</time>
      </trkpt>
      <trkpt lat="49.79728" lon="0.63776">
        <ele>-4.8000001907349</ele>
        <time>2023-08-09T19:17:11.000Z</time>
      </trkpt>
      <trkpt lat="49.79742" lon="0.63783">
        <ele>-5</ele>
        <time>2023-08-09T19:17:14.000Z</time>
      </trkpt>
      <trkpt lat="49.79748" lon="0.63786">
        <ele>-5.1999998092651</ele>
        <time>2023-08-09T19:17:16.000Z</time>
      </trkpt>
      <trkpt lat="49.79753" lon="0.63787">
        <ele>-5.1999998092651</ele>
        <time>2023-08-09T19:17:18.000Z</time>
      </trkpt>
      <trkpt lat="49.79755" lon="0.63785">
        <ele>-5.1999998092651</ele>
        <time>2023-08-09T19:17:19.000Z</time>
      </trkpt>
      <trkpt lat="49.79756" lon="0.63782">
        <ele>-5.1999998092651</ele>
        <time>2023-08-09T19:17:20.000Z</time>
      </trkpt>
      <trkpt lat="49.7976" lon="0.6377">
        <ele>-5.4000000953674</ele>
        <time>2023-08-09T19:17:24.000Z</time>
      </trkpt>
      <trkpt lat="49.79766" lon="0.63749">
        <ele>-5.5999999046326</ele>
        <time>2023-08-09T19:17:31.000Z</time>
      </trkpt>
      <trkpt lat="49.7977" lon="0.63736">
        <ele>-6</ele>
        <time>2023-08-09T19:17:37.000Z</time>
      </trkpt>
      <trkpt lat="49.79772" lon="0.63726">
        <ele>-6</ele>
        <time>2023-08-09T19:17:44.000Z</time>
      </trkpt>
      <trkpt lat="49.79774" lon="0.63714">
        <ele>-6</ele>
        <time>2023-08-09T19:17:48.000Z</time>
      </trkpt>
      <trkpt lat="49.79774" lon="0.63712">
        <ele>-6</ele>
        <time>2023-08-09T19:17:49.000Z</time>
      </trkpt>
      <trkpt lat="49.79775" lon="0.63709">
        <ele>-6.1999998092651</ele>
        <time>2023-08-09T19:17:51.000Z</time>
      </trkpt>
      <trkpt lat="49.79776" lon="0.6371">
        <ele>-6.1999998092651</ele>
        <time>2023-08-09T19:17:53.000Z</time>
      </trkpt>
      <trkpt lat="49.79774" lon="0.63707">
        <ele>-6.5999999046326</ele>
        <time>2023-08-09T19:18:07.000Z</time>
      </trkpt>
      <trkpt lat="49.7977" lon="0.63699">
        <ele>-6.5999999046326</ele>
        <time>2023-08-09T19:18:10.000Z</time>
      </trkpt>
      <trkpt lat="49.79759" lon="0.63678">
        <ele>-6.8000001907349</ele>
        <time>2023-08-09T19:18:17.000Z</time>
      </trkpt>
      <trkpt lat="49.79751" lon="0.63662">
        <ele>-6.5999999046326</ele>
        <time>2023-08-09T19:18:23.000Z</time>
      </trkpt>
      <trkpt lat="49.79751" lon="0.63662">
        <ele>-6.5999999046326</ele>
        <time>2023-08-09T19:18:24.000Z</time>
      </trkpt>
      <trkpt lat="49.79751" lon="0.63662">
        <ele>-6.5999999046326</ele>
        <time>2023-08-09T19:18:26.000Z</time>
      </trkpt>
      <trkpt lat="49.7975" lon="0.63668">
        <ele>-7</ele>
        <time>2023-08-09T19:20:54.000Z</time>
      </trkpt>
      <trkpt lat="49.79752" lon="0.63671">
        <ele>-7</ele>
        <time>2023-08-09T19:20:56.000Z</time>
      </trkpt>
      <trkpt lat="49.79755" lon="0.6368">
        <ele>-7</ele>
        <time>2023-08-09T19:21:00.000Z</time>
      </trkpt>
      <trkpt lat="49.79757" lon="0.63685">
        <ele>-7</ele>
        <time>2023-08-09T19:21:02.000Z</time>
      </trkpt>
      <trkpt lat="49.79759" lon="0.63689">
        <ele>-7</ele>
        <time>2023-08-09T19:21:03.000Z</time>
      </trkpt>
      <trkpt lat="49.79764" lon="0.63695">
        <ele>-7.1999998092651</ele>
        <time>2023-08-09T19:21:07.000Z</time>
      </trkpt>
      <trkpt lat="49.79765" lon="0.63696">
        <ele>-7.1999998092651</ele>
        <time>2023-08-09T19:21:08.000Z</time>
      </trkpt>
      <trkpt lat="49.79767" lon="0.63699">
        <ele>-7.1999998092651</ele>
        <time>2023-08-09T19:21:14.000Z</time>
      </trkpt>
      <trkpt lat="49.7977" lon="0.63684">
        <ele>-6.8000001907349</ele>
        <time>2023-08-09T19:22:27.000Z</time>
      </trkpt>
      <trkpt lat="49.79769" lon="0.63679">
        <ele>-6.8000001907349</ele>
        <time>2023-08-09T19:22:29.000Z</time>
      </trkpt>
      <trkpt lat="49.79762" lon="0.63659">
        <ele>-6.5999999046326</ele>
        <time>2023-08-09T19:22:35.000Z</time>
      </trkpt>
      <trkpt lat="49.79755" lon="0.63635">
        <ele>-6.8000001907349</ele>
        <time>2023-08-09T19:22:42.000Z</time>
      </trkpt>
      <trkpt lat="49.79756" lon="0.6362">
        <ele>-7</ele>
        <time>2023-08-09T19:22:48.000Z</time>
      </trkpt>
      <trkpt lat="49.79756" lon="0.63619">
        <ele>-7</ele>
        <time>2023-08-09T19:22:51.000Z</time>
      </trkpt>
    </trkseg>
  </trk>
</gpx>